<?xml version="1.0" encoding="UTF-8" standalone="no" ?>
<gpx xmlns="http://www.topografix.com/GPX/1/1" xmlns:xsi="http://www.w3.org/2001/XMLSchema-instance" xsi:schemaLocation="http://www.topografix.com/GPX/1/1 http://www.topografix.com/GPX/1/1/gpx.xsd" version="1.1" creator="VisuGPX - https://www.visugpx.com">
  <metadata>
    <name>aigles</name>
  </metadata>
  <trk>
    <name><![CDATA[aigles_1]]></name>
    <trkseg>
      <trkpt lat="44.73323" lon="5.04544">
        <ele>194</ele>
        <time>2020-02-07T09:25:27.000Z</time>
      </trkpt>
      <trkpt lat="44.73323" lon="5.04545">
        <ele>193</ele>
        <time>2020-02-07T09:25:28.000Z</time>
      </trkpt>
      <trkpt lat="44.73323" lon="5.04546">
        <ele>192</ele>
        <time>2020-02-07T09:25:29.000Z</time>
      </trkpt>
      <trkpt lat="44.73323" lon="5.04547">
        <ele>192</ele>
        <time>2020-02-07T09:25:30.000Z</time>
      </trkpt>
      <trkpt lat="44.73322" lon="5.04549">
        <ele>191</ele>
        <time>2020-02-07T09:25:31.000Z</time>
      </trkpt>
      <trkpt lat="44.73323" lon="5.0455">
        <ele>191</ele>
        <time>2020-02-07T09:25:32.000Z</time>
      </trkpt>
      <trkpt lat="44.73323" lon="5.04551">
        <ele>190</ele>
        <time>2020-02-07T09:25:33.000Z</time>
      </trkpt>
      <trkpt lat="44.73323" lon="5.04552">
        <ele>190</ele>
        <time>2020-02-07T09:25:34.000Z</time>
      </trkpt>
      <trkpt lat="44.73323" lon="5.04553">
        <ele>190</ele>
        <time>2020-02-07T09:25:35.000Z</time>
      </trkpt>
      <trkpt lat="44.73323" lon="5.04554">
        <ele>189</ele>
        <time>2020-02-07T09:25:36.000Z</time>
      </trkpt>
      <trkpt lat="44.73323" lon="5.04556">
        <ele>188</ele>
        <time>2020-02-07T09:25:37.000Z</time>
      </trkpt>
      <trkpt lat="44.73323" lon="5.04557">
        <ele>189</ele>
        <time>2020-02-07T09:25:38.000Z</time>
      </trkpt>
      <trkpt lat="44.73323" lon="5.04558">
        <ele>189</ele>
        <time>2020-02-07T09:25:39.000Z</time>
      </trkpt>
      <trkpt lat="44.73324" lon="5.04559">
        <ele>188</ele>
        <time>2020-02-07T09:25:40.000Z</time>
      </trkpt>
      <trkpt lat="44.73323" lon="5.04561">
        <ele>186</ele>
        <time>2020-02-07T09:25:41.000Z</time>
      </trkpt>
      <trkpt lat="44.73322" lon="5.04562">
        <ele>185</ele>
        <time>2020-02-07T09:25:42.000Z</time>
      </trkpt>
      <trkpt lat="44.73322" lon="5.04564">
        <ele>185</ele>
        <time>2020-02-07T09:25:43.000Z</time>
      </trkpt>
      <trkpt lat="44.73323" lon="5.04565">
        <ele>185</ele>
        <time>2020-02-07T09:25:44.000Z</time>
      </trkpt>
      <trkpt lat="44.73323" lon="5.04566">
        <ele>185</ele>
        <time>2020-02-07T09:25:45.000Z</time>
      </trkpt>
      <trkpt lat="44.73324" lon="5.04567">
        <ele>185</ele>
        <time>2020-02-07T09:25:46.000Z</time>
      </trkpt>
      <trkpt lat="44.73324" lon="5.04569">
        <ele>184</ele>
        <time>2020-02-07T09:25:47.000Z</time>
      </trkpt>
      <trkpt lat="44.73324" lon="5.0457">
        <ele>185</ele>
        <time>2020-02-07T09:25:48.000Z</time>
      </trkpt>
      <trkpt lat="44.73325" lon="5.04571">
        <ele>185</ele>
        <time>2020-02-07T09:25:49.000Z</time>
      </trkpt>
      <trkpt lat="44.73326" lon="5.04572">
        <ele>187</ele>
        <time>2020-02-07T09:25:50.000Z</time>
      </trkpt>
      <trkpt lat="44.73328" lon="5.04573">
        <ele>187</ele>
        <time>2020-02-07T09:25:51.000Z</time>
      </trkpt>
      <trkpt lat="44.73328" lon="5.04574">
        <ele>188</ele>
        <time>2020-02-07T09:25:52.000Z</time>
      </trkpt>
      <trkpt lat="44.73329" lon="5.04575">
        <ele>188</ele>
        <time>2020-02-07T09:25:53.000Z</time>
      </trkpt>
      <trkpt lat="44.73327" lon="5.04576">
        <ele>187</ele>
        <time>2020-02-07T09:25:54.000Z</time>
      </trkpt>
      <trkpt lat="44.73327" lon="5.04577">
        <ele>187</ele>
        <time>2020-02-07T09:25:55.000Z</time>
      </trkpt>
      <trkpt lat="44.73327" lon="5.04578">
        <ele>187</ele>
        <time>2020-02-07T09:25:56.000Z</time>
      </trkpt>
      <trkpt lat="44.73327" lon="5.0458">
        <ele>187</ele>
        <time>2020-02-07T09:25:57.000Z</time>
      </trkpt>
      <trkpt lat="44.73328" lon="5.04581">
        <ele>187</ele>
        <time>2020-02-07T09:25:58.000Z</time>
      </trkpt>
      <trkpt lat="44.73328" lon="5.04582">
        <ele>187</ele>
        <time>2020-02-07T09:25:59.000Z</time>
      </trkpt>
      <trkpt lat="44.73328" lon="5.04582">
        <ele>187</ele>
        <time>2020-02-07T09:26:00.000Z</time>
      </trkpt>
      <trkpt lat="44.73329" lon="5.04583">
        <ele>188</ele>
        <time>2020-02-07T09:26:01.000Z</time>
      </trkpt>
      <trkpt lat="44.73329" lon="5.04583">
        <ele>188</ele>
        <time>2020-02-07T09:26:02.000Z</time>
      </trkpt>
      <trkpt lat="44.73329" lon="5.04584">
        <ele>188</ele>
        <time>2020-02-07T09:26:03.000Z</time>
      </trkpt>
      <trkpt lat="44.73329" lon="5.04584">
        <ele>189</ele>
        <time>2020-02-07T09:26:04.000Z</time>
      </trkpt>
      <trkpt lat="44.73329" lon="5.04585">
        <ele>189</ele>
        <time>2020-02-07T09:26:05.000Z</time>
      </trkpt>
      <trkpt lat="44.7333" lon="5.04586">
        <ele>189</ele>
        <time>2020-02-07T09:26:06.000Z</time>
      </trkpt>
      <trkpt lat="44.7333" lon="5.04587">
        <ele>189</ele>
        <time>2020-02-07T09:26:07.000Z</time>
      </trkpt>
      <trkpt lat="44.73331" lon="5.04589">
        <ele>189</ele>
        <time>2020-02-07T09:26:08.000Z</time>
      </trkpt>
      <trkpt lat="44.73331" lon="5.0459">
        <ele>189</ele>
        <time>2020-02-07T09:26:09.000Z</time>
      </trkpt>
      <trkpt lat="44.73332" lon="5.04592">
        <ele>189</ele>
        <time>2020-02-07T09:26:10.000Z</time>
      </trkpt>
      <trkpt lat="44.73333" lon="5.04593">
        <ele>189</ele>
        <time>2020-02-07T09:26:11.000Z</time>
      </trkpt>
      <trkpt lat="44.73333" lon="5.04594">
        <ele>190</ele>
        <time>2020-02-07T09:26:12.000Z</time>
      </trkpt>
      <trkpt lat="44.73334" lon="5.04595">
        <ele>190</ele>
        <time>2020-02-07T09:26:13.000Z</time>
      </trkpt>
      <trkpt lat="44.73335" lon="5.04596">
        <ele>191</ele>
        <time>2020-02-07T09:26:14.000Z</time>
      </trkpt>
      <trkpt lat="44.73335" lon="5.04597">
        <ele>191</ele>
        <time>2020-02-07T09:26:15.000Z</time>
      </trkpt>
      <trkpt lat="44.73336" lon="5.04598">
        <ele>191</ele>
        <time>2020-02-07T09:26:16.000Z</time>
      </trkpt>
      <trkpt lat="44.73337" lon="5.046">
        <ele>192</ele>
        <time>2020-02-07T09:26:17.000Z</time>
      </trkpt>
      <trkpt lat="44.73338" lon="5.04601">
        <ele>192</ele>
        <time>2020-02-07T09:26:18.000Z</time>
      </trkpt>
      <trkpt lat="44.73338" lon="5.04602">
        <ele>192</ele>
        <time>2020-02-07T09:26:19.000Z</time>
      </trkpt>
      <trkpt lat="44.73339" lon="5.04603">
        <ele>193</ele>
        <time>2020-02-07T09:26:20.000Z</time>
      </trkpt>
      <trkpt lat="44.7334" lon="5.04604">
        <ele>193</ele>
        <time>2020-02-07T09:26:21.000Z</time>
      </trkpt>
      <trkpt lat="44.73341" lon="5.04605">
        <ele>194</ele>
        <time>2020-02-07T09:26:22.000Z</time>
      </trkpt>
      <trkpt lat="44.73341" lon="5.04606">
        <ele>194</ele>
        <time>2020-02-07T09:26:23.000Z</time>
      </trkpt>
      <trkpt lat="44.73342" lon="5.04607">
        <ele>194</ele>
        <time>2020-02-07T09:26:24.000Z</time>
      </trkpt>
      <trkpt lat="44.73342" lon="5.04607">
        <ele>195</ele>
        <time>2020-02-07T09:26:25.000Z</time>
      </trkpt>
      <trkpt lat="44.73343" lon="5.04607">
        <ele>194</ele>
        <time>2020-02-07T09:26:26.000Z</time>
      </trkpt>
      <trkpt lat="44.73344" lon="5.04607">
        <ele>194</ele>
        <time>2020-02-07T09:26:27.000Z</time>
      </trkpt>
      <trkpt lat="44.73345" lon="5.04606">
        <ele>195</ele>
        <time>2020-02-07T09:26:28.000Z</time>
      </trkpt>
      <trkpt lat="44.73345" lon="5.04605">
        <ele>195</ele>
        <time>2020-02-07T09:26:29.000Z</time>
      </trkpt>
      <trkpt lat="44.73346" lon="5.04605">
        <ele>195</ele>
        <time>2020-02-07T09:26:30.000Z</time>
      </trkpt>
      <trkpt lat="44.73348" lon="5.04604">
        <ele>196</ele>
        <time>2020-02-07T09:26:31.000Z</time>
      </trkpt>
      <trkpt lat="44.73348" lon="5.04602">
        <ele>197</ele>
        <time>2020-02-07T09:26:32.000Z</time>
      </trkpt>
      <trkpt lat="44.73348" lon="5.04601">
        <ele>197</ele>
        <time>2020-02-07T09:26:33.000Z</time>
      </trkpt>
      <trkpt lat="44.73349" lon="5.046">
        <ele>197</ele>
        <time>2020-02-07T09:26:34.000Z</time>
      </trkpt>
      <trkpt lat="44.73349" lon="5.04599">
        <ele>198</ele>
        <time>2020-02-07T09:26:35.000Z</time>
      </trkpt>
      <trkpt lat="44.73349" lon="5.04597">
        <ele>198</ele>
        <time>2020-02-07T09:26:36.000Z</time>
      </trkpt>
      <trkpt lat="44.73349" lon="5.04596">
        <ele>198</ele>
        <time>2020-02-07T09:26:37.000Z</time>
      </trkpt>
      <trkpt lat="44.73348" lon="5.04595">
        <ele>198</ele>
        <time>2020-02-07T09:26:38.000Z</time>
      </trkpt>
      <trkpt lat="44.73348" lon="5.04594">
        <ele>198</ele>
        <time>2020-02-07T09:26:39.000Z</time>
      </trkpt>
      <trkpt lat="44.73348" lon="5.04592">
        <ele>198</ele>
        <time>2020-02-07T09:26:40.000Z</time>
      </trkpt>
      <trkpt lat="44.73349" lon="5.04591">
        <ele>198</ele>
        <time>2020-02-07T09:26:41.000Z</time>
      </trkpt>
      <trkpt lat="44.73349" lon="5.0459">
        <ele>199</ele>
        <time>2020-02-07T09:26:42.000Z</time>
      </trkpt>
      <trkpt lat="44.73348" lon="5.04589">
        <ele>199</ele>
        <time>2020-02-07T09:26:43.000Z</time>
      </trkpt>
      <trkpt lat="44.73348" lon="5.04589">
        <ele>238</ele>
        <time>2020-02-07T09:28:19.000Z</time>
      </trkpt>
      <trkpt lat="44.73348" lon="5.04589">
        <ele>239</ele>
        <time>2020-02-07T09:28:20.000Z</time>
      </trkpt>
      <trkpt lat="44.73419" lon="5.04646">
        <ele>239</ele>
        <time>2020-02-07T09:28:21.000Z</time>
      </trkpt>
      <trkpt lat="44.7342" lon="5.04646">
        <ele>241</ele>
        <time>2020-02-07T09:28:22.000Z</time>
      </trkpt>
      <trkpt lat="44.73421" lon="5.04647">
        <ele>240</ele>
        <time>2020-02-07T09:28:23.000Z</time>
      </trkpt>
      <trkpt lat="44.73422" lon="5.04648">
        <ele>241</ele>
        <time>2020-02-07T09:28:24.000Z</time>
      </trkpt>
      <trkpt lat="44.73423" lon="5.04649">
        <ele>241</ele>
        <time>2020-02-07T09:28:25.000Z</time>
      </trkpt>
      <trkpt lat="44.73425" lon="5.04649">
        <ele>242</ele>
        <time>2020-02-07T09:28:26.000Z</time>
      </trkpt>
      <trkpt lat="44.73426" lon="5.0465">
        <ele>243</ele>
        <time>2020-02-07T09:28:27.000Z</time>
      </trkpt>
      <trkpt lat="44.73426" lon="5.04651">
        <ele>243</ele>
        <time>2020-02-07T09:28:28.000Z</time>
      </trkpt>
      <trkpt lat="44.73427" lon="5.04652">
        <ele>244</ele>
        <time>2020-02-07T09:28:29.000Z</time>
      </trkpt>
      <trkpt lat="44.73428" lon="5.04653">
        <ele>244</ele>
        <time>2020-02-07T09:28:30.000Z</time>
      </trkpt>
      <trkpt lat="44.7343" lon="5.04654">
        <ele>246</ele>
        <time>2020-02-07T09:28:31.000Z</time>
      </trkpt>
      <trkpt lat="44.7343" lon="5.04655">
        <ele>246</ele>
        <time>2020-02-07T09:28:32.000Z</time>
      </trkpt>
      <trkpt lat="44.73431" lon="5.04656">
        <ele>247</ele>
        <time>2020-02-07T09:28:33.000Z</time>
      </trkpt>
      <trkpt lat="44.73432" lon="5.04657">
        <ele>248</ele>
        <time>2020-02-07T09:28:34.000Z</time>
      </trkpt>
      <trkpt lat="44.73431" lon="5.04658">
        <ele>245</ele>
        <time>2020-02-07T09:28:35.000Z</time>
      </trkpt>
      <trkpt lat="44.73431" lon="5.04659">
        <ele>244</ele>
        <time>2020-02-07T09:28:36.000Z</time>
      </trkpt>
      <trkpt lat="44.73431" lon="5.04659">
        <ele>243</ele>
        <time>2020-02-07T09:28:37.000Z</time>
      </trkpt>
      <trkpt lat="44.73431" lon="5.0466">
        <ele>242</ele>
        <time>2020-02-07T09:28:38.000Z</time>
      </trkpt>
      <trkpt lat="44.73431" lon="5.0466">
        <ele>243</ele>
        <time>2020-02-07T09:28:39.000Z</time>
      </trkpt>
      <trkpt lat="44.73432" lon="5.04661">
        <ele>243</ele>
        <time>2020-02-07T09:28:40.000Z</time>
      </trkpt>
      <trkpt lat="44.73433" lon="5.04661">
        <ele>243</ele>
        <time>2020-02-07T09:28:41.000Z</time>
      </trkpt>
      <trkpt lat="44.73434" lon="5.04661">
        <ele>243</ele>
        <time>2020-02-07T09:28:42.000Z</time>
      </trkpt>
      <trkpt lat="44.73435" lon="5.04662">
        <ele>244</ele>
        <time>2020-02-07T09:28:43.000Z</time>
      </trkpt>
      <trkpt lat="44.73436" lon="5.04662">
        <ele>243</ele>
        <time>2020-02-07T09:28:44.000Z</time>
      </trkpt>
      <trkpt lat="44.73434" lon="5.04664">
        <ele>241</ele>
        <time>2020-02-07T09:28:45.000Z</time>
      </trkpt>
      <trkpt lat="44.73435" lon="5.04664">
        <ele>241</ele>
        <time>2020-02-07T09:28:46.000Z</time>
      </trkpt>
      <trkpt lat="44.73436" lon="5.04665">
        <ele>241</ele>
        <time>2020-02-07T09:28:47.000Z</time>
      </trkpt>
      <trkpt lat="44.73437" lon="5.04666">
        <ele>241</ele>
        <time>2020-02-07T09:28:48.000Z</time>
      </trkpt>
      <trkpt lat="44.73438" lon="5.04667">
        <ele>241</ele>
        <time>2020-02-07T09:28:49.000Z</time>
      </trkpt>
      <trkpt lat="44.73438" lon="5.04668">
        <ele>241</ele>
        <time>2020-02-07T09:28:50.000Z</time>
      </trkpt>
      <trkpt lat="44.73439" lon="5.04668">
        <ele>241</ele>
        <time>2020-02-07T09:28:51.000Z</time>
      </trkpt>
      <trkpt lat="44.7344" lon="5.04669">
        <ele>242</ele>
        <time>2020-02-07T09:28:52.000Z</time>
      </trkpt>
      <trkpt lat="44.73441" lon="5.04669">
        <ele>242</ele>
        <time>2020-02-07T09:28:53.000Z</time>
      </trkpt>
      <trkpt lat="44.73441" lon="5.0467">
        <ele>243</ele>
        <time>2020-02-07T09:28:54.000Z</time>
      </trkpt>
      <trkpt lat="44.73442" lon="5.04671">
        <ele>243</ele>
        <time>2020-02-07T09:28:55.000Z</time>
      </trkpt>
      <trkpt lat="44.73443" lon="5.04671">
        <ele>244</ele>
        <time>2020-02-07T09:28:56.000Z</time>
      </trkpt>
      <trkpt lat="44.73444" lon="5.04672">
        <ele>244</ele>
        <time>2020-02-07T09:28:57.000Z</time>
      </trkpt>
      <trkpt lat="44.73445" lon="5.04672">
        <ele>244</ele>
        <time>2020-02-07T09:28:58.000Z</time>
      </trkpt>
      <trkpt lat="44.73446" lon="5.04673">
        <ele>245</ele>
        <time>2020-02-07T09:28:59.000Z</time>
      </trkpt>
      <trkpt lat="44.73447" lon="5.04674">
        <ele>245</ele>
        <time>2020-02-07T09:29:00.000Z</time>
      </trkpt>
      <trkpt lat="44.73449" lon="5.04674">
        <ele>246</ele>
        <time>2020-02-07T09:29:01.000Z</time>
      </trkpt>
      <trkpt lat="44.7345" lon="5.04675">
        <ele>246</ele>
        <time>2020-02-07T09:29:02.000Z</time>
      </trkpt>
      <trkpt lat="44.73451" lon="5.04675">
        <ele>246</ele>
        <time>2020-02-07T09:29:03.000Z</time>
      </trkpt>
      <trkpt lat="44.73452" lon="5.04676">
        <ele>247</ele>
        <time>2020-02-07T09:29:04.000Z</time>
      </trkpt>
      <trkpt lat="44.73453" lon="5.04676">
        <ele>247</ele>
        <time>2020-02-07T09:29:05.000Z</time>
      </trkpt>
      <trkpt lat="44.73454" lon="5.04677">
        <ele>247</ele>
        <time>2020-02-07T09:29:06.000Z</time>
      </trkpt>
      <trkpt lat="44.73455" lon="5.04677">
        <ele>247</ele>
        <time>2020-02-07T09:29:07.000Z</time>
      </trkpt>
      <trkpt lat="44.73456" lon="5.04678">
        <ele>247</ele>
        <time>2020-02-07T09:29:08.000Z</time>
      </trkpt>
      <trkpt lat="44.73457" lon="5.04679">
        <ele>247</ele>
        <time>2020-02-07T09:29:09.000Z</time>
      </trkpt>
      <trkpt lat="44.73458" lon="5.0468">
        <ele>247</ele>
        <time>2020-02-07T09:29:10.000Z</time>
      </trkpt>
      <trkpt lat="44.73459" lon="5.04681">
        <ele>247</ele>
        <time>2020-02-07T09:29:11.000Z</time>
      </trkpt>
      <trkpt lat="44.7346" lon="5.04682">
        <ele>247</ele>
        <time>2020-02-07T09:29:12.000Z</time>
      </trkpt>
      <trkpt lat="44.73461" lon="5.04682">
        <ele>247</ele>
        <time>2020-02-07T09:29:13.000Z</time>
      </trkpt>
      <trkpt lat="44.73461" lon="5.04683">
        <ele>248</ele>
        <time>2020-02-07T09:29:14.000Z</time>
      </trkpt>
      <trkpt lat="44.73462" lon="5.04684">
        <ele>248</ele>
        <time>2020-02-07T09:29:15.000Z</time>
      </trkpt>
      <trkpt lat="44.73463" lon="5.04685">
        <ele>248</ele>
        <time>2020-02-07T09:29:16.000Z</time>
      </trkpt>
      <trkpt lat="44.73464" lon="5.04686">
        <ele>248</ele>
        <time>2020-02-07T09:29:17.000Z</time>
      </trkpt>
      <trkpt lat="44.73465" lon="5.04686">
        <ele>248</ele>
        <time>2020-02-07T09:29:18.000Z</time>
      </trkpt>
      <trkpt lat="44.73466" lon="5.04687">
        <ele>248</ele>
        <time>2020-02-07T09:29:19.000Z</time>
      </trkpt>
      <trkpt lat="44.73467" lon="5.04688">
        <ele>248</ele>
        <time>2020-02-07T09:29:20.000Z</time>
      </trkpt>
      <trkpt lat="44.73468" lon="5.04688">
        <ele>249</ele>
        <time>2020-02-07T09:29:21.000Z</time>
      </trkpt>
      <trkpt lat="44.73469" lon="5.04689">
        <ele>249</ele>
        <time>2020-02-07T09:29:22.000Z</time>
      </trkpt>
      <trkpt lat="44.7347" lon="5.04689">
        <ele>249</ele>
        <time>2020-02-07T09:29:23.000Z</time>
      </trkpt>
      <trkpt lat="44.7347" lon="5.0469">
        <ele>249</ele>
        <time>2020-02-07T09:29:24.000Z</time>
      </trkpt>
      <trkpt lat="44.73472" lon="5.04691">
        <ele>249</ele>
        <time>2020-02-07T09:29:25.000Z</time>
      </trkpt>
      <trkpt lat="44.73472" lon="5.04692">
        <ele>249</ele>
        <time>2020-02-07T09:29:26.000Z</time>
      </trkpt>
      <trkpt lat="44.73473" lon="5.04693">
        <ele>249</ele>
        <time>2020-02-07T09:29:27.000Z</time>
      </trkpt>
      <trkpt lat="44.73473" lon="5.04694">
        <ele>249</ele>
        <time>2020-02-07T09:29:28.000Z</time>
      </trkpt>
      <trkpt lat="44.73474" lon="5.04695">
        <ele>249</ele>
        <time>2020-02-07T09:29:29.000Z</time>
      </trkpt>
      <trkpt lat="44.73475" lon="5.04695">
        <ele>249</ele>
        <time>2020-02-07T09:29:30.000Z</time>
      </trkpt>
      <trkpt lat="44.73476" lon="5.04696">
        <ele>248</ele>
        <time>2020-02-07T09:29:31.000Z</time>
      </trkpt>
      <trkpt lat="44.73476" lon="5.04697">
        <ele>248</ele>
        <time>2020-02-07T09:29:32.000Z</time>
      </trkpt>
      <trkpt lat="44.73476" lon="5.04697">
        <ele>249</ele>
        <time>2020-02-07T09:29:33.000Z</time>
      </trkpt>
      <trkpt lat="44.73476" lon="5.04698">
        <ele>249</ele>
        <time>2020-02-07T09:29:34.000Z</time>
      </trkpt>
      <trkpt lat="44.73477" lon="5.04699">
        <ele>249</ele>
        <time>2020-02-07T09:29:35.000Z</time>
      </trkpt>
      <trkpt lat="44.73477" lon="5.047">
        <ele>249</ele>
        <time>2020-02-07T09:29:36.000Z</time>
      </trkpt>
      <trkpt lat="44.73478" lon="5.047">
        <ele>249</ele>
        <time>2020-02-07T09:29:37.000Z</time>
      </trkpt>
      <trkpt lat="44.73478" lon="5.04701">
        <ele>249</ele>
        <time>2020-02-07T09:29:38.000Z</time>
      </trkpt>
      <trkpt lat="44.73479" lon="5.04701">
        <ele>249</ele>
        <time>2020-02-07T09:29:39.000Z</time>
      </trkpt>
      <trkpt lat="44.7348" lon="5.04701">
        <ele>249</ele>
        <time>2020-02-07T09:29:40.000Z</time>
      </trkpt>
      <trkpt lat="44.73481" lon="5.04702">
        <ele>249</ele>
        <time>2020-02-07T09:29:41.000Z</time>
      </trkpt>
      <trkpt lat="44.73482" lon="5.04702">
        <ele>250</ele>
        <time>2020-02-07T09:29:42.000Z</time>
      </trkpt>
      <trkpt lat="44.73483" lon="5.04703">
        <ele>250</ele>
        <time>2020-02-07T09:29:43.000Z</time>
      </trkpt>
      <trkpt lat="44.73484" lon="5.04703">
        <ele>250</ele>
        <time>2020-02-07T09:29:44.000Z</time>
      </trkpt>
      <trkpt lat="44.73485" lon="5.04705">
        <ele>250</ele>
        <time>2020-02-07T09:29:45.000Z</time>
      </trkpt>
      <trkpt lat="44.73485" lon="5.04706">
        <ele>250</ele>
        <time>2020-02-07T09:29:46.000Z</time>
      </trkpt>
      <trkpt lat="44.73485" lon="5.04707">
        <ele>250</ele>
        <time>2020-02-07T09:29:47.000Z</time>
      </trkpt>
      <trkpt lat="44.73485" lon="5.04709">
        <ele>250</ele>
        <time>2020-02-07T09:29:48.000Z</time>
      </trkpt>
      <trkpt lat="44.73486" lon="5.0471">
        <ele>250</ele>
        <time>2020-02-07T09:29:49.000Z</time>
      </trkpt>
      <trkpt lat="44.73487" lon="5.04711">
        <ele>250</ele>
        <time>2020-02-07T09:29:50.000Z</time>
      </trkpt>
      <trkpt lat="44.73487" lon="5.04712">
        <ele>250</ele>
        <time>2020-02-07T09:29:51.000Z</time>
      </trkpt>
      <trkpt lat="44.73488" lon="5.04713">
        <ele>250</ele>
        <time>2020-02-07T09:29:52.000Z</time>
      </trkpt>
      <trkpt lat="44.7349" lon="5.04713">
        <ele>250</ele>
        <time>2020-02-07T09:29:53.000Z</time>
      </trkpt>
      <trkpt lat="44.73491" lon="5.04714">
        <ele>251</ele>
        <time>2020-02-07T09:29:54.000Z</time>
      </trkpt>
      <trkpt lat="44.73492" lon="5.04715">
        <ele>251</ele>
        <time>2020-02-07T09:29:55.000Z</time>
      </trkpt>
      <trkpt lat="44.73493" lon="5.04716">
        <ele>251</ele>
        <time>2020-02-07T09:29:56.000Z</time>
      </trkpt>
      <trkpt lat="44.73494" lon="5.04717">
        <ele>251</ele>
        <time>2020-02-07T09:29:57.000Z</time>
      </trkpt>
      <trkpt lat="44.73494" lon="5.04718">
        <ele>251</ele>
        <time>2020-02-07T09:29:58.000Z</time>
      </trkpt>
      <trkpt lat="44.73495" lon="5.04719">
        <ele>251</ele>
        <time>2020-02-07T09:29:59.000Z</time>
      </trkpt>
      <trkpt lat="44.73496" lon="5.0472">
        <ele>251</ele>
        <time>2020-02-07T09:30:00.000Z</time>
      </trkpt>
      <trkpt lat="44.73497" lon="5.04721">
        <ele>251</ele>
        <time>2020-02-07T09:30:01.000Z</time>
      </trkpt>
      <trkpt lat="44.73498" lon="5.04722">
        <ele>251</ele>
        <time>2020-02-07T09:30:02.000Z</time>
      </trkpt>
      <trkpt lat="44.735" lon="5.04723">
        <ele>251</ele>
        <time>2020-02-07T09:30:03.000Z</time>
      </trkpt>
      <trkpt lat="44.73501" lon="5.04724">
        <ele>251</ele>
        <time>2020-02-07T09:30:04.000Z</time>
      </trkpt>
      <trkpt lat="44.73501" lon="5.04725">
        <ele>252</ele>
        <time>2020-02-07T09:30:05.000Z</time>
      </trkpt>
      <trkpt lat="44.73502" lon="5.04725">
        <ele>252</ele>
        <time>2020-02-07T09:30:06.000Z</time>
      </trkpt>
      <trkpt lat="44.73503" lon="5.04726">
        <ele>252</ele>
        <time>2020-02-07T09:30:07.000Z</time>
      </trkpt>
      <trkpt lat="44.73503" lon="5.04727">
        <ele>252</ele>
        <time>2020-02-07T09:30:08.000Z</time>
      </trkpt>
      <trkpt lat="44.73504" lon="5.04727">
        <ele>251</ele>
        <time>2020-02-07T09:30:09.000Z</time>
      </trkpt>
      <trkpt lat="44.73505" lon="5.04728">
        <ele>251</ele>
        <time>2020-02-07T09:30:10.000Z</time>
      </trkpt>
      <trkpt lat="44.73506" lon="5.04729">
        <ele>252</ele>
        <time>2020-02-07T09:30:11.000Z</time>
      </trkpt>
      <trkpt lat="44.73506" lon="5.0473">
        <ele>252</ele>
        <time>2020-02-07T09:30:12.000Z</time>
      </trkpt>
      <trkpt lat="44.73506" lon="5.04731">
        <ele>252</ele>
        <time>2020-02-07T09:30:13.000Z</time>
      </trkpt>
      <trkpt lat="44.73507" lon="5.04733">
        <ele>252</ele>
        <time>2020-02-07T09:30:14.000Z</time>
      </trkpt>
      <trkpt lat="44.73508" lon="5.04734">
        <ele>252</ele>
        <time>2020-02-07T09:30:15.000Z</time>
      </trkpt>
      <trkpt lat="44.73509" lon="5.04735">
        <ele>253</ele>
        <time>2020-02-07T09:30:16.000Z</time>
      </trkpt>
      <trkpt lat="44.7351" lon="5.04736">
        <ele>252</ele>
        <time>2020-02-07T09:30:17.000Z</time>
      </trkpt>
      <trkpt lat="44.73511" lon="5.04736">
        <ele>252</ele>
        <time>2020-02-07T09:30:18.000Z</time>
      </trkpt>
      <trkpt lat="44.73512" lon="5.04737">
        <ele>252</ele>
        <time>2020-02-07T09:30:19.000Z</time>
      </trkpt>
      <trkpt lat="44.73513" lon="5.04738">
        <ele>252</ele>
        <time>2020-02-07T09:30:20.000Z</time>
      </trkpt>
      <trkpt lat="44.73513" lon="5.04739">
        <ele>253</ele>
        <time>2020-02-07T09:30:21.000Z</time>
      </trkpt>
      <trkpt lat="44.73514" lon="5.04739">
        <ele>253</ele>
        <time>2020-02-07T09:30:22.000Z</time>
      </trkpt>
      <trkpt lat="44.73515" lon="5.0474">
        <ele>253</ele>
        <time>2020-02-07T09:30:23.000Z</time>
      </trkpt>
      <trkpt lat="44.73515" lon="5.04741">
        <ele>253</ele>
        <time>2020-02-07T09:30:24.000Z</time>
      </trkpt>
      <trkpt lat="44.73516" lon="5.04742">
        <ele>253</ele>
        <time>2020-02-07T09:30:25.000Z</time>
      </trkpt>
      <trkpt lat="44.73516" lon="5.04743">
        <ele>253</ele>
        <time>2020-02-07T09:30:26.000Z</time>
      </trkpt>
      <trkpt lat="44.73517" lon="5.04744">
        <ele>253</ele>
        <time>2020-02-07T09:30:27.000Z</time>
      </trkpt>
      <trkpt lat="44.73519" lon="5.04745">
        <ele>253</ele>
        <time>2020-02-07T09:30:28.000Z</time>
      </trkpt>
      <trkpt lat="44.73519" lon="5.04746">
        <ele>253</ele>
        <time>2020-02-07T09:30:29.000Z</time>
      </trkpt>
      <trkpt lat="44.7352" lon="5.04747">
        <ele>253</ele>
        <time>2020-02-07T09:30:30.000Z</time>
      </trkpt>
      <trkpt lat="44.73521" lon="5.04747">
        <ele>253</ele>
        <time>2020-02-07T09:30:31.000Z</time>
      </trkpt>
      <trkpt lat="44.73522" lon="5.04748">
        <ele>253</ele>
        <time>2020-02-07T09:30:32.000Z</time>
      </trkpt>
      <trkpt lat="44.73523" lon="5.04748">
        <ele>254</ele>
        <time>2020-02-07T09:30:33.000Z</time>
      </trkpt>
      <trkpt lat="44.73523" lon="5.04749">
        <ele>254</ele>
        <time>2020-02-07T09:30:34.000Z</time>
      </trkpt>
      <trkpt lat="44.73525" lon="5.0475">
        <ele>254</ele>
        <time>2020-02-07T09:30:35.000Z</time>
      </trkpt>
      <trkpt lat="44.73526" lon="5.0475">
        <ele>254</ele>
        <time>2020-02-07T09:30:36.000Z</time>
      </trkpt>
      <trkpt lat="44.73527" lon="5.04751">
        <ele>254</ele>
        <time>2020-02-07T09:30:37.000Z</time>
      </trkpt>
      <trkpt lat="44.73528" lon="5.04752">
        <ele>254</ele>
        <time>2020-02-07T09:30:38.000Z</time>
      </trkpt>
      <trkpt lat="44.73528" lon="5.04753">
        <ele>254</ele>
        <time>2020-02-07T09:30:39.000Z</time>
      </trkpt>
      <trkpt lat="44.73529" lon="5.04754">
        <ele>254</ele>
        <time>2020-02-07T09:30:40.000Z</time>
      </trkpt>
      <trkpt lat="44.7353" lon="5.04754">
        <ele>255</ele>
        <time>2020-02-07T09:30:41.000Z</time>
      </trkpt>
      <trkpt lat="44.73531" lon="5.04755">
        <ele>255</ele>
        <time>2020-02-07T09:30:42.000Z</time>
      </trkpt>
      <trkpt lat="44.73533" lon="5.04756">
        <ele>255</ele>
        <time>2020-02-07T09:30:43.000Z</time>
      </trkpt>
      <trkpt lat="44.73534" lon="5.04756">
        <ele>255</ele>
        <time>2020-02-07T09:30:44.000Z</time>
      </trkpt>
      <trkpt lat="44.73535" lon="5.04757">
        <ele>255</ele>
        <time>2020-02-07T09:30:45.000Z</time>
      </trkpt>
      <trkpt lat="44.73535" lon="5.04758">
        <ele>255</ele>
        <time>2020-02-07T09:30:46.000Z</time>
      </trkpt>
      <trkpt lat="44.73536" lon="5.04758">
        <ele>255</ele>
        <time>2020-02-07T09:30:47.000Z</time>
      </trkpt>
      <trkpt lat="44.73536" lon="5.04759">
        <ele>255</ele>
        <time>2020-02-07T09:30:48.000Z</time>
      </trkpt>
      <trkpt lat="44.73537" lon="5.0476">
        <ele>255</ele>
        <time>2020-02-07T09:30:49.000Z</time>
      </trkpt>
      <trkpt lat="44.73538" lon="5.0476">
        <ele>255</ele>
        <time>2020-02-07T09:30:50.000Z</time>
      </trkpt>
      <trkpt lat="44.73538" lon="5.04761">
        <ele>255</ele>
        <time>2020-02-07T09:30:51.000Z</time>
      </trkpt>
      <trkpt lat="44.73539" lon="5.04762">
        <ele>255</ele>
        <time>2020-02-07T09:30:52.000Z</time>
      </trkpt>
      <trkpt lat="44.7354" lon="5.04762">
        <ele>255</ele>
        <time>2020-02-07T09:30:53.000Z</time>
      </trkpt>
      <trkpt lat="44.73541" lon="5.04763">
        <ele>256</ele>
        <time>2020-02-07T09:30:54.000Z</time>
      </trkpt>
      <trkpt lat="44.73542" lon="5.04764">
        <ele>256</ele>
        <time>2020-02-07T09:30:55.000Z</time>
      </trkpt>
      <trkpt lat="44.73547" lon="5.04764">
        <ele>260</ele>
        <time>2020-02-07T09:30:56.000Z</time>
      </trkpt>
      <trkpt lat="44.73558" lon="5.04761">
        <ele>272</ele>
        <time>2020-02-07T09:30:57.000Z</time>
      </trkpt>
      <trkpt lat="44.73559" lon="5.04762">
        <ele>272</ele>
        <time>2020-02-07T09:30:58.000Z</time>
      </trkpt>
      <trkpt lat="44.7356" lon="5.04762">
        <ele>273</ele>
        <time>2020-02-07T09:30:59.000Z</time>
      </trkpt>
      <trkpt lat="44.73561" lon="5.04762">
        <ele>274</ele>
        <time>2020-02-07T09:31:00.000Z</time>
      </trkpt>
      <trkpt lat="44.73562" lon="5.04763">
        <ele>275</ele>
        <time>2020-02-07T09:31:01.000Z</time>
      </trkpt>
      <trkpt lat="44.73564" lon="5.04763">
        <ele>276</ele>
        <time>2020-02-07T09:31:02.000Z</time>
      </trkpt>
      <trkpt lat="44.73566" lon="5.04764">
        <ele>277</ele>
        <time>2020-02-07T09:31:03.000Z</time>
      </trkpt>
      <trkpt lat="44.73567" lon="5.04764">
        <ele>278</ele>
        <time>2020-02-07T09:31:04.000Z</time>
      </trkpt>
      <trkpt lat="44.73568" lon="5.04765">
        <ele>279</ele>
        <time>2020-02-07T09:31:05.000Z</time>
      </trkpt>
      <trkpt lat="44.7357" lon="5.04766">
        <ele>280</ele>
        <time>2020-02-07T09:31:06.000Z</time>
      </trkpt>
      <trkpt lat="44.73571" lon="5.04766">
        <ele>282</ele>
        <time>2020-02-07T09:31:07.000Z</time>
      </trkpt>
      <trkpt lat="44.73572" lon="5.04766">
        <ele>283</ele>
        <time>2020-02-07T09:31:08.000Z</time>
      </trkpt>
      <trkpt lat="44.73574" lon="5.04767">
        <ele>284</ele>
        <time>2020-02-07T09:31:09.000Z</time>
      </trkpt>
      <trkpt lat="44.73575" lon="5.04767">
        <ele>285</ele>
        <time>2020-02-07T09:31:10.000Z</time>
      </trkpt>
      <trkpt lat="44.73576" lon="5.04768">
        <ele>286</ele>
        <time>2020-02-07T09:31:11.000Z</time>
      </trkpt>
      <trkpt lat="44.73577" lon="5.04769">
        <ele>286</ele>
        <time>2020-02-07T09:31:12.000Z</time>
      </trkpt>
      <trkpt lat="44.73578" lon="5.0477">
        <ele>287</ele>
        <time>2020-02-07T09:31:13.000Z</time>
      </trkpt>
      <trkpt lat="44.73579" lon="5.0477">
        <ele>288</ele>
        <time>2020-02-07T09:31:14.000Z</time>
      </trkpt>
      <trkpt lat="44.7358" lon="5.04771">
        <ele>288</ele>
        <time>2020-02-07T09:31:15.000Z</time>
      </trkpt>
      <trkpt lat="44.73581" lon="5.04772">
        <ele>289</ele>
        <time>2020-02-07T09:31:16.000Z</time>
      </trkpt>
      <trkpt lat="44.73582" lon="5.04772">
        <ele>290</ele>
        <time>2020-02-07T09:31:17.000Z</time>
      </trkpt>
      <trkpt lat="44.73584" lon="5.04773">
        <ele>290</ele>
        <time>2020-02-07T09:31:18.000Z</time>
      </trkpt>
      <trkpt lat="44.73585" lon="5.04774">
        <ele>291</ele>
        <time>2020-02-07T09:31:19.000Z</time>
      </trkpt>
      <trkpt lat="44.73586" lon="5.04774">
        <ele>291</ele>
        <time>2020-02-07T09:31:20.000Z</time>
      </trkpt>
      <trkpt lat="44.73586" lon="5.04775">
        <ele>292</ele>
        <time>2020-02-07T09:31:21.000Z</time>
      </trkpt>
      <trkpt lat="44.73587" lon="5.04776">
        <ele>292</ele>
        <time>2020-02-07T09:31:22.000Z</time>
      </trkpt>
      <trkpt lat="44.73589" lon="5.04777">
        <ele>292</ele>
        <time>2020-02-07T09:31:23.000Z</time>
      </trkpt>
      <trkpt lat="44.7359" lon="5.04777">
        <ele>293</ele>
        <time>2020-02-07T09:31:24.000Z</time>
      </trkpt>
      <trkpt lat="44.73591" lon="5.04778">
        <ele>293</ele>
        <time>2020-02-07T09:31:25.000Z</time>
      </trkpt>
      <trkpt lat="44.73592" lon="5.04779">
        <ele>293</ele>
        <time>2020-02-07T09:31:26.000Z</time>
      </trkpt>
      <trkpt lat="44.73593" lon="5.0478">
        <ele>294</ele>
        <time>2020-02-07T09:31:27.000Z</time>
      </trkpt>
      <trkpt lat="44.73594" lon="5.04781">
        <ele>294</ele>
        <time>2020-02-07T09:31:28.000Z</time>
      </trkpt>
      <trkpt lat="44.73595" lon="5.04781">
        <ele>294</ele>
        <time>2020-02-07T09:31:29.000Z</time>
      </trkpt>
      <trkpt lat="44.73596" lon="5.04782">
        <ele>294</ele>
        <time>2020-02-07T09:31:30.000Z</time>
      </trkpt>
      <trkpt lat="44.73597" lon="5.04783">
        <ele>295</ele>
        <time>2020-02-07T09:31:31.000Z</time>
      </trkpt>
      <trkpt lat="44.73598" lon="5.04783">
        <ele>295</ele>
        <time>2020-02-07T09:31:32.000Z</time>
      </trkpt>
      <trkpt lat="44.73599" lon="5.04784">
        <ele>295</ele>
        <time>2020-02-07T09:31:33.000Z</time>
      </trkpt>
      <trkpt lat="44.736" lon="5.04785">
        <ele>295</ele>
        <time>2020-02-07T09:31:34.000Z</time>
      </trkpt>
      <trkpt lat="44.73601" lon="5.04786">
        <ele>295</ele>
        <time>2020-02-07T09:31:35.000Z</time>
      </trkpt>
      <trkpt lat="44.73602" lon="5.04787">
        <ele>295</ele>
        <time>2020-02-07T09:31:36.000Z</time>
      </trkpt>
      <trkpt lat="44.73603" lon="5.04787">
        <ele>295</ele>
        <time>2020-02-07T09:31:37.000Z</time>
      </trkpt>
      <trkpt lat="44.73604" lon="5.04788">
        <ele>296</ele>
        <time>2020-02-07T09:31:38.000Z</time>
      </trkpt>
      <trkpt lat="44.73605" lon="5.04788">
        <ele>296</ele>
        <time>2020-02-07T09:31:39.000Z</time>
      </trkpt>
      <trkpt lat="44.73606" lon="5.04789">
        <ele>296</ele>
        <time>2020-02-07T09:31:40.000Z</time>
      </trkpt>
      <trkpt lat="44.73607" lon="5.0479">
        <ele>296</ele>
        <time>2020-02-07T09:31:41.000Z</time>
      </trkpt>
      <trkpt lat="44.73608" lon="5.0479">
        <ele>296</ele>
        <time>2020-02-07T09:31:42.000Z</time>
      </trkpt>
      <trkpt lat="44.7361" lon="5.04791">
        <ele>296</ele>
        <time>2020-02-07T09:31:43.000Z</time>
      </trkpt>
      <trkpt lat="44.73611" lon="5.04791">
        <ele>296</ele>
        <time>2020-02-07T09:31:44.000Z</time>
      </trkpt>
      <trkpt lat="44.73612" lon="5.04792">
        <ele>296</ele>
        <time>2020-02-07T09:31:45.000Z</time>
      </trkpt>
      <trkpt lat="44.73612" lon="5.04792">
        <ele>296</ele>
        <time>2020-02-07T09:31:46.000Z</time>
      </trkpt>
      <trkpt lat="44.73613" lon="5.04793">
        <ele>296</ele>
        <time>2020-02-07T09:31:47.000Z</time>
      </trkpt>
      <trkpt lat="44.73614" lon="5.04793">
        <ele>296</ele>
        <time>2020-02-07T09:31:48.000Z</time>
      </trkpt>
      <trkpt lat="44.73615" lon="5.04794">
        <ele>297</ele>
        <time>2020-02-07T09:31:49.000Z</time>
      </trkpt>
      <trkpt lat="44.73616" lon="5.04795">
        <ele>297</ele>
        <time>2020-02-07T09:31:50.000Z</time>
      </trkpt>
      <trkpt lat="44.73617" lon="5.04796">
        <ele>297</ele>
        <time>2020-02-07T09:31:51.000Z</time>
      </trkpt>
      <trkpt lat="44.73617" lon="5.04796">
        <ele>297</ele>
        <time>2020-02-07T09:31:52.000Z</time>
      </trkpt>
      <trkpt lat="44.73618" lon="5.04797">
        <ele>297</ele>
        <time>2020-02-07T09:31:53.000Z</time>
      </trkpt>
      <trkpt lat="44.73619" lon="5.04797">
        <ele>297</ele>
        <time>2020-02-07T09:31:54.000Z</time>
      </trkpt>
      <trkpt lat="44.7362" lon="5.04798">
        <ele>297</ele>
        <time>2020-02-07T09:31:55.000Z</time>
      </trkpt>
      <trkpt lat="44.7362" lon="5.04799">
        <ele>297</ele>
        <time>2020-02-07T09:31:56.000Z</time>
      </trkpt>
      <trkpt lat="44.73621" lon="5.04799">
        <ele>298</ele>
        <time>2020-02-07T09:31:57.000Z</time>
      </trkpt>
      <trkpt lat="44.73622" lon="5.048">
        <ele>298</ele>
        <time>2020-02-07T09:31:58.000Z</time>
      </trkpt>
      <trkpt lat="44.73623" lon="5.04801">
        <ele>298</ele>
        <time>2020-02-07T09:31:59.000Z</time>
      </trkpt>
      <trkpt lat="44.73623" lon="5.04802">
        <ele>298</ele>
        <time>2020-02-07T09:32:00.000Z</time>
      </trkpt>
      <trkpt lat="44.73624" lon="5.04803">
        <ele>298</ele>
        <time>2020-02-07T09:32:01.000Z</time>
      </trkpt>
      <trkpt lat="44.73625" lon="5.04803">
        <ele>298</ele>
        <time>2020-02-07T09:32:02.000Z</time>
      </trkpt>
      <trkpt lat="44.73626" lon="5.04804">
        <ele>299</ele>
        <time>2020-02-07T09:32:03.000Z</time>
      </trkpt>
      <trkpt lat="44.73627" lon="5.04804">
        <ele>299</ele>
        <time>2020-02-07T09:32:04.000Z</time>
      </trkpt>
      <trkpt lat="44.73628" lon="5.04805">
        <ele>299</ele>
        <time>2020-02-07T09:32:05.000Z</time>
      </trkpt>
      <trkpt lat="44.73629" lon="5.04806">
        <ele>299</ele>
        <time>2020-02-07T09:32:06.000Z</time>
      </trkpt>
      <trkpt lat="44.7363" lon="5.04806">
        <ele>299</ele>
        <time>2020-02-07T09:32:07.000Z</time>
      </trkpt>
      <trkpt lat="44.73631" lon="5.04807">
        <ele>299</ele>
        <time>2020-02-07T09:32:08.000Z</time>
      </trkpt>
      <trkpt lat="44.73632" lon="5.04807">
        <ele>300</ele>
        <time>2020-02-07T09:32:09.000Z</time>
      </trkpt>
      <trkpt lat="44.73633" lon="5.04808">
        <ele>300</ele>
        <time>2020-02-07T09:32:10.000Z</time>
      </trkpt>
      <trkpt lat="44.73634" lon="5.04809">
        <ele>300</ele>
        <time>2020-02-07T09:32:11.000Z</time>
      </trkpt>
      <trkpt lat="44.73635" lon="5.04809">
        <ele>300</ele>
        <time>2020-02-07T09:32:12.000Z</time>
      </trkpt>
      <trkpt lat="44.73635" lon="5.0481">
        <ele>300</ele>
        <time>2020-02-07T09:32:13.000Z</time>
      </trkpt>
      <trkpt lat="44.73636" lon="5.0481">
        <ele>300</ele>
        <time>2020-02-07T09:32:14.000Z</time>
      </trkpt>
      <trkpt lat="44.73637" lon="5.04811">
        <ele>300</ele>
        <time>2020-02-07T09:32:15.000Z</time>
      </trkpt>
      <trkpt lat="44.73638" lon="5.04812">
        <ele>300</ele>
        <time>2020-02-07T09:32:16.000Z</time>
      </trkpt>
      <trkpt lat="44.73639" lon="5.04812">
        <ele>301</ele>
        <time>2020-02-07T09:32:17.000Z</time>
      </trkpt>
      <trkpt lat="44.73639" lon="5.04812">
        <ele>301</ele>
        <time>2020-02-07T09:32:18.000Z</time>
      </trkpt>
      <trkpt lat="44.7364" lon="5.04813">
        <ele>301</ele>
        <time>2020-02-07T09:32:19.000Z</time>
      </trkpt>
      <trkpt lat="44.73641" lon="5.04813">
        <ele>301</ele>
        <time>2020-02-07T09:32:20.000Z</time>
      </trkpt>
      <trkpt lat="44.73642" lon="5.04814">
        <ele>301</ele>
        <time>2020-02-07T09:32:21.000Z</time>
      </trkpt>
      <trkpt lat="44.73643" lon="5.04814">
        <ele>301</ele>
        <time>2020-02-07T09:32:22.000Z</time>
      </trkpt>
      <trkpt lat="44.73644" lon="5.04815">
        <ele>301</ele>
        <time>2020-02-07T09:32:23.000Z</time>
      </trkpt>
      <trkpt lat="44.73645" lon="5.04815">
        <ele>301</ele>
        <time>2020-02-07T09:32:24.000Z</time>
      </trkpt>
      <trkpt lat="44.73646" lon="5.04816">
        <ele>301</ele>
        <time>2020-02-07T09:32:25.000Z</time>
      </trkpt>
      <trkpt lat="44.73647" lon="5.04816">
        <ele>301</ele>
        <time>2020-02-07T09:32:26.000Z</time>
      </trkpt>
      <trkpt lat="44.73648" lon="5.04816">
        <ele>302</ele>
        <time>2020-02-07T09:32:27.000Z</time>
      </trkpt>
      <trkpt lat="44.73648" lon="5.04817">
        <ele>302</ele>
        <time>2020-02-07T09:32:28.000Z</time>
      </trkpt>
      <trkpt lat="44.73649" lon="5.04817">
        <ele>302</ele>
        <time>2020-02-07T09:32:29.000Z</time>
      </trkpt>
      <trkpt lat="44.7365" lon="5.04817">
        <ele>302</ele>
        <time>2020-02-07T09:32:30.000Z</time>
      </trkpt>
      <trkpt lat="44.73652" lon="5.04817">
        <ele>302</ele>
        <time>2020-02-07T09:32:31.000Z</time>
      </trkpt>
      <trkpt lat="44.73653" lon="5.04817">
        <ele>302</ele>
        <time>2020-02-07T09:32:32.000Z</time>
      </trkpt>
      <trkpt lat="44.73654" lon="5.04818">
        <ele>302</ele>
        <time>2020-02-07T09:32:33.000Z</time>
      </trkpt>
      <trkpt lat="44.73655" lon="5.04818">
        <ele>302</ele>
        <time>2020-02-07T09:32:34.000Z</time>
      </trkpt>
      <trkpt lat="44.73656" lon="5.04818">
        <ele>302</ele>
        <time>2020-02-07T09:32:35.000Z</time>
      </trkpt>
      <trkpt lat="44.73657" lon="5.04818">
        <ele>303</ele>
        <time>2020-02-07T09:32:36.000Z</time>
      </trkpt>
      <trkpt lat="44.73658" lon="5.04819">
        <ele>303</ele>
        <time>2020-02-07T09:32:37.000Z</time>
      </trkpt>
      <trkpt lat="44.73659" lon="5.04819">
        <ele>303</ele>
        <time>2020-02-07T09:32:38.000Z</time>
      </trkpt>
      <trkpt lat="44.7366" lon="5.0482">
        <ele>303</ele>
        <time>2020-02-07T09:32:39.000Z</time>
      </trkpt>
      <trkpt lat="44.73662" lon="5.0482">
        <ele>304</ele>
        <time>2020-02-07T09:32:40.000Z</time>
      </trkpt>
      <trkpt lat="44.73662" lon="5.0482">
        <ele>304</ele>
        <time>2020-02-07T09:32:41.000Z</time>
      </trkpt>
      <trkpt lat="44.73663" lon="5.0482">
        <ele>304</ele>
        <time>2020-02-07T09:32:42.000Z</time>
      </trkpt>
      <trkpt lat="44.73664" lon="5.0482">
        <ele>304</ele>
        <time>2020-02-07T09:32:43.000Z</time>
      </trkpt>
      <trkpt lat="44.73665" lon="5.0482">
        <ele>304</ele>
        <time>2020-02-07T09:32:44.000Z</time>
      </trkpt>
      <trkpt lat="44.73666" lon="5.0482">
        <ele>305</ele>
        <time>2020-02-07T09:32:45.000Z</time>
      </trkpt>
      <trkpt lat="44.73667" lon="5.0482">
        <ele>305</ele>
        <time>2020-02-07T09:32:46.000Z</time>
      </trkpt>
      <trkpt lat="44.73668" lon="5.0482">
        <ele>305</ele>
        <time>2020-02-07T09:32:47.000Z</time>
      </trkpt>
      <trkpt lat="44.73669" lon="5.0482">
        <ele>305</ele>
        <time>2020-02-07T09:32:48.000Z</time>
      </trkpt>
      <trkpt lat="44.7367" lon="5.0482">
        <ele>305</ele>
        <time>2020-02-07T09:32:49.000Z</time>
      </trkpt>
      <trkpt lat="44.73671" lon="5.0482">
        <ele>305</ele>
        <time>2020-02-07T09:32:50.000Z</time>
      </trkpt>
      <trkpt lat="44.73672" lon="5.0482">
        <ele>306</ele>
        <time>2020-02-07T09:32:51.000Z</time>
      </trkpt>
      <trkpt lat="44.73672" lon="5.0482">
        <ele>306</ele>
        <time>2020-02-07T09:32:52.000Z</time>
      </trkpt>
      <trkpt lat="44.73673" lon="5.0482">
        <ele>306</ele>
        <time>2020-02-07T09:32:53.000Z</time>
      </trkpt>
      <trkpt lat="44.73674" lon="5.04821">
        <ele>306</ele>
        <time>2020-02-07T09:32:54.000Z</time>
      </trkpt>
      <trkpt lat="44.73675" lon="5.04821">
        <ele>307</ele>
        <time>2020-02-07T09:32:55.000Z</time>
      </trkpt>
      <trkpt lat="44.73676" lon="5.04821">
        <ele>307</ele>
        <time>2020-02-07T09:32:56.000Z</time>
      </trkpt>
      <trkpt lat="44.73676" lon="5.04821">
        <ele>307</ele>
        <time>2020-02-07T09:32:57.000Z</time>
      </trkpt>
      <trkpt lat="44.73677" lon="5.04822">
        <ele>307</ele>
        <time>2020-02-07T09:32:58.000Z</time>
      </trkpt>
      <trkpt lat="44.73677" lon="5.04822">
        <ele>308</ele>
        <time>2020-02-07T09:32:59.000Z</time>
      </trkpt>
      <trkpt lat="44.73678" lon="5.04822">
        <ele>308</ele>
        <time>2020-02-07T09:33:00.000Z</time>
      </trkpt>
      <trkpt lat="44.73679" lon="5.04823">
        <ele>308</ele>
        <time>2020-02-07T09:33:01.000Z</time>
      </trkpt>
      <trkpt lat="44.7368" lon="5.04823">
        <ele>308</ele>
        <time>2020-02-07T09:33:02.000Z</time>
      </trkpt>
      <trkpt lat="44.7368" lon="5.04823">
        <ele>309</ele>
        <time>2020-02-07T09:33:03.000Z</time>
      </trkpt>
      <trkpt lat="44.73681" lon="5.04823">
        <ele>309</ele>
        <time>2020-02-07T09:33:04.000Z</time>
      </trkpt>
      <trkpt lat="44.73681" lon="5.04823">
        <ele>309</ele>
        <time>2020-02-07T09:33:05.000Z</time>
      </trkpt>
      <trkpt lat="44.73682" lon="5.04823">
        <ele>309</ele>
        <time>2020-02-07T09:33:06.000Z</time>
      </trkpt>
      <trkpt lat="44.73683" lon="5.04824">
        <ele>309</ele>
        <time>2020-02-07T09:33:07.000Z</time>
      </trkpt>
      <trkpt lat="44.73684" lon="5.04823">
        <ele>309</ele>
        <time>2020-02-07T09:33:08.000Z</time>
      </trkpt>
      <trkpt lat="44.73684" lon="5.04823">
        <ele>309</ele>
        <time>2020-02-07T09:33:09.000Z</time>
      </trkpt>
      <trkpt lat="44.73685" lon="5.04823">
        <ele>309</ele>
        <time>2020-02-07T09:33:10.000Z</time>
      </trkpt>
      <trkpt lat="44.73686" lon="5.04823">
        <ele>310</ele>
        <time>2020-02-07T09:33:11.000Z</time>
      </trkpt>
      <trkpt lat="44.73686" lon="5.04824">
        <ele>310</ele>
        <time>2020-02-07T09:33:12.000Z</time>
      </trkpt>
      <trkpt lat="44.73687" lon="5.04824">
        <ele>310</ele>
        <time>2020-02-07T09:33:13.000Z</time>
      </trkpt>
      <trkpt lat="44.73688" lon="5.04824">
        <ele>310</ele>
        <time>2020-02-07T09:33:14.000Z</time>
      </trkpt>
      <trkpt lat="44.73689" lon="5.04824">
        <ele>310</ele>
        <time>2020-02-07T09:33:15.000Z</time>
      </trkpt>
      <trkpt lat="44.7369" lon="5.04825">
        <ele>310</ele>
        <time>2020-02-07T09:33:16.000Z</time>
      </trkpt>
      <trkpt lat="44.7369" lon="5.04825">
        <ele>311</ele>
        <time>2020-02-07T09:33:17.000Z</time>
      </trkpt>
      <trkpt lat="44.73691" lon="5.04826">
        <ele>311</ele>
        <time>2020-02-07T09:33:18.000Z</time>
      </trkpt>
      <trkpt lat="44.73692" lon="5.04826">
        <ele>311</ele>
        <time>2020-02-07T09:33:19.000Z</time>
      </trkpt>
      <trkpt lat="44.73693" lon="5.04826">
        <ele>311</ele>
        <time>2020-02-07T09:33:20.000Z</time>
      </trkpt>
      <trkpt lat="44.73694" lon="5.04826">
        <ele>311</ele>
        <time>2020-02-07T09:33:21.000Z</time>
      </trkpt>
      <trkpt lat="44.73694" lon="5.04827">
        <ele>311</ele>
        <time>2020-02-07T09:33:22.000Z</time>
      </trkpt>
      <trkpt lat="44.73695" lon="5.04827">
        <ele>311</ele>
        <time>2020-02-07T09:33:23.000Z</time>
      </trkpt>
      <trkpt lat="44.73695" lon="5.04827">
        <ele>311</ele>
        <time>2020-02-07T09:33:24.000Z</time>
      </trkpt>
      <trkpt lat="44.73696" lon="5.04828">
        <ele>311</ele>
        <time>2020-02-07T09:33:25.000Z</time>
      </trkpt>
      <trkpt lat="44.73696" lon="5.04828">
        <ele>311</ele>
        <time>2020-02-07T09:33:26.000Z</time>
      </trkpt>
      <trkpt lat="44.73697" lon="5.04828">
        <ele>311</ele>
        <time>2020-02-07T09:33:27.000Z</time>
      </trkpt>
      <trkpt lat="44.73698" lon="5.04828">
        <ele>311</ele>
        <time>2020-02-07T09:33:28.000Z</time>
      </trkpt>
      <trkpt lat="44.73699" lon="5.04828">
        <ele>311</ele>
        <time>2020-02-07T09:33:29.000Z</time>
      </trkpt>
      <trkpt lat="44.737" lon="5.04829">
        <ele>311</ele>
        <time>2020-02-07T09:33:30.000Z</time>
      </trkpt>
      <trkpt lat="44.73701" lon="5.04829">
        <ele>311</ele>
        <time>2020-02-07T09:33:31.000Z</time>
      </trkpt>
      <trkpt lat="44.73702" lon="5.04829">
        <ele>312</ele>
        <time>2020-02-07T09:33:32.000Z</time>
      </trkpt>
      <trkpt lat="44.73703" lon="5.04829">
        <ele>312</ele>
        <time>2020-02-07T09:33:33.000Z</time>
      </trkpt>
      <trkpt lat="44.73704" lon="5.0483">
        <ele>312</ele>
        <time>2020-02-07T09:33:34.000Z</time>
      </trkpt>
      <trkpt lat="44.73705" lon="5.0483">
        <ele>312</ele>
        <time>2020-02-07T09:33:35.000Z</time>
      </trkpt>
      <trkpt lat="44.73707" lon="5.0483">
        <ele>312</ele>
        <time>2020-02-07T09:33:36.000Z</time>
      </trkpt>
      <trkpt lat="44.73708" lon="5.0483">
        <ele>312</ele>
        <time>2020-02-07T09:33:37.000Z</time>
      </trkpt>
      <trkpt lat="44.73709" lon="5.0483">
        <ele>312</ele>
        <time>2020-02-07T09:33:38.000Z</time>
      </trkpt>
      <trkpt lat="44.73709" lon="5.0483">
        <ele>312</ele>
        <time>2020-02-07T09:33:39.000Z</time>
      </trkpt>
      <trkpt lat="44.7371" lon="5.04831">
        <ele>312</ele>
        <time>2020-02-07T09:33:40.000Z</time>
      </trkpt>
      <trkpt lat="44.73711" lon="5.04831">
        <ele>312</ele>
        <time>2020-02-07T09:33:41.000Z</time>
      </trkpt>
      <trkpt lat="44.73712" lon="5.04831">
        <ele>312</ele>
        <time>2020-02-07T09:33:42.000Z</time>
      </trkpt>
      <trkpt lat="44.73713" lon="5.04831">
        <ele>312</ele>
        <time>2020-02-07T09:33:43.000Z</time>
      </trkpt>
      <trkpt lat="44.73714" lon="5.04831">
        <ele>312</ele>
        <time>2020-02-07T09:33:44.000Z</time>
      </trkpt>
      <trkpt lat="44.73715" lon="5.04831">
        <ele>312</ele>
        <time>2020-02-07T09:33:45.000Z</time>
      </trkpt>
      <trkpt lat="44.73716" lon="5.04831">
        <ele>312</ele>
        <time>2020-02-07T09:33:46.000Z</time>
      </trkpt>
      <trkpt lat="44.73717" lon="5.0483">
        <ele>312</ele>
        <time>2020-02-07T09:33:47.000Z</time>
      </trkpt>
      <trkpt lat="44.73718" lon="5.04831">
        <ele>312</ele>
        <time>2020-02-07T09:33:48.000Z</time>
      </trkpt>
      <trkpt lat="44.73719" lon="5.04831">
        <ele>312</ele>
        <time>2020-02-07T09:33:49.000Z</time>
      </trkpt>
      <trkpt lat="44.7372" lon="5.0483">
        <ele>312</ele>
        <time>2020-02-07T09:33:50.000Z</time>
      </trkpt>
      <trkpt lat="44.73721" lon="5.0483">
        <ele>312</ele>
        <time>2020-02-07T09:33:51.000Z</time>
      </trkpt>
      <trkpt lat="44.73722" lon="5.0483">
        <ele>312</ele>
        <time>2020-02-07T09:33:52.000Z</time>
      </trkpt>
      <trkpt lat="44.73723" lon="5.0483">
        <ele>312</ele>
        <time>2020-02-07T09:33:53.000Z</time>
      </trkpt>
      <trkpt lat="44.73724" lon="5.0483">
        <ele>312</ele>
        <time>2020-02-07T09:33:54.000Z</time>
      </trkpt>
      <trkpt lat="44.73725" lon="5.0483">
        <ele>312</ele>
        <time>2020-02-07T09:33:55.000Z</time>
      </trkpt>
      <trkpt lat="44.73725" lon="5.0483">
        <ele>312</ele>
        <time>2020-02-07T09:33:56.000Z</time>
      </trkpt>
      <trkpt lat="44.73726" lon="5.04829">
        <ele>312</ele>
        <time>2020-02-07T09:33:57.000Z</time>
      </trkpt>
      <trkpt lat="44.73727" lon="5.0483">
        <ele>312</ele>
        <time>2020-02-07T09:33:58.000Z</time>
      </trkpt>
      <trkpt lat="44.73728" lon="5.0483">
        <ele>312</ele>
        <time>2020-02-07T09:33:59.000Z</time>
      </trkpt>
      <trkpt lat="44.73728" lon="5.04829">
        <ele>312</ele>
        <time>2020-02-07T09:34:00.000Z</time>
      </trkpt>
      <trkpt lat="44.73729" lon="5.04829">
        <ele>312</ele>
        <time>2020-02-07T09:34:01.000Z</time>
      </trkpt>
      <trkpt lat="44.7373" lon="5.04829">
        <ele>312</ele>
        <time>2020-02-07T09:34:02.000Z</time>
      </trkpt>
      <trkpt lat="44.7373" lon="5.04828">
        <ele>312</ele>
        <time>2020-02-07T09:34:03.000Z</time>
      </trkpt>
      <trkpt lat="44.73731" lon="5.04828">
        <ele>312</ele>
        <time>2020-02-07T09:34:04.000Z</time>
      </trkpt>
      <trkpt lat="44.73732" lon="5.04828">
        <ele>312</ele>
        <time>2020-02-07T09:34:05.000Z</time>
      </trkpt>
      <trkpt lat="44.73733" lon="5.04829">
        <ele>313</ele>
        <time>2020-02-07T09:34:06.000Z</time>
      </trkpt>
      <trkpt lat="44.73734" lon="5.04829">
        <ele>313</ele>
        <time>2020-02-07T09:34:07.000Z</time>
      </trkpt>
      <trkpt lat="44.73735" lon="5.04829">
        <ele>313</ele>
        <time>2020-02-07T09:34:08.000Z</time>
      </trkpt>
      <trkpt lat="44.73736" lon="5.0483">
        <ele>313</ele>
        <time>2020-02-07T09:34:09.000Z</time>
      </trkpt>
      <trkpt lat="44.73737" lon="5.0483">
        <ele>313</ele>
        <time>2020-02-07T09:34:10.000Z</time>
      </trkpt>
      <trkpt lat="44.73738" lon="5.0483">
        <ele>313</ele>
        <time>2020-02-07T09:34:11.000Z</time>
      </trkpt>
      <trkpt lat="44.73739" lon="5.04831">
        <ele>313</ele>
        <time>2020-02-07T09:34:12.000Z</time>
      </trkpt>
      <trkpt lat="44.7374" lon="5.04831">
        <ele>313</ele>
        <time>2020-02-07T09:34:13.000Z</time>
      </trkpt>
      <trkpt lat="44.73741" lon="5.04831">
        <ele>313</ele>
        <time>2020-02-07T09:34:14.000Z</time>
      </trkpt>
      <trkpt lat="44.73741" lon="5.04832">
        <ele>313</ele>
        <time>2020-02-07T09:34:15.000Z</time>
      </trkpt>
      <trkpt lat="44.73742" lon="5.04832">
        <ele>313</ele>
        <time>2020-02-07T09:34:16.000Z</time>
      </trkpt>
      <trkpt lat="44.73743" lon="5.04832">
        <ele>314</ele>
        <time>2020-02-07T09:34:17.000Z</time>
      </trkpt>
      <trkpt lat="44.73744" lon="5.04833">
        <ele>314</ele>
        <time>2020-02-07T09:34:18.000Z</time>
      </trkpt>
      <trkpt lat="44.73745" lon="5.04833">
        <ele>314</ele>
        <time>2020-02-07T09:34:19.000Z</time>
      </trkpt>
      <trkpt lat="44.73746" lon="5.04834">
        <ele>314</ele>
        <time>2020-02-07T09:34:20.000Z</time>
      </trkpt>
      <trkpt lat="44.73747" lon="5.04834">
        <ele>314</ele>
        <time>2020-02-07T09:34:21.000Z</time>
      </trkpt>
      <trkpt lat="44.73748" lon="5.04834">
        <ele>314</ele>
        <time>2020-02-07T09:34:22.000Z</time>
      </trkpt>
      <trkpt lat="44.73749" lon="5.04834">
        <ele>314</ele>
        <time>2020-02-07T09:34:23.000Z</time>
      </trkpt>
      <trkpt lat="44.7375" lon="5.04835">
        <ele>314</ele>
        <time>2020-02-07T09:34:24.000Z</time>
      </trkpt>
      <trkpt lat="44.7375" lon="5.04835">
        <ele>314</ele>
        <time>2020-02-07T09:34:25.000Z</time>
      </trkpt>
      <trkpt lat="44.73751" lon="5.04835">
        <ele>314</ele>
        <time>2020-02-07T09:34:26.000Z</time>
      </trkpt>
      <trkpt lat="44.73752" lon="5.04836">
        <ele>314</ele>
        <time>2020-02-07T09:34:27.000Z</time>
      </trkpt>
      <trkpt lat="44.73753" lon="5.04836">
        <ele>315</ele>
        <time>2020-02-07T09:34:28.000Z</time>
      </trkpt>
      <trkpt lat="44.73753" lon="5.04837">
        <ele>315</ele>
        <time>2020-02-07T09:34:29.000Z</time>
      </trkpt>
      <trkpt lat="44.73754" lon="5.04838">
        <ele>315</ele>
        <time>2020-02-07T09:34:30.000Z</time>
      </trkpt>
      <trkpt lat="44.73754" lon="5.04838">
        <ele>315</ele>
        <time>2020-02-07T09:34:31.000Z</time>
      </trkpt>
      <trkpt lat="44.73754" lon="5.04838">
        <ele>315</ele>
        <time>2020-02-07T09:34:32.000Z</time>
      </trkpt>
      <trkpt lat="44.73754" lon="5.04838">
        <ele>315</ele>
        <time>2020-02-07T09:34:33.000Z</time>
      </trkpt>
      <trkpt lat="44.73755" lon="5.04838">
        <ele>315</ele>
        <time>2020-02-07T09:34:34.000Z</time>
      </trkpt>
      <trkpt lat="44.73756" lon="5.04839">
        <ele>315</ele>
        <time>2020-02-07T09:34:35.000Z</time>
      </trkpt>
      <trkpt lat="44.73756" lon="5.04839">
        <ele>316</ele>
        <time>2020-02-07T09:34:36.000Z</time>
      </trkpt>
      <trkpt lat="44.73756" lon="5.04839">
        <ele>316</ele>
        <time>2020-02-07T09:34:37.000Z</time>
      </trkpt>
      <trkpt lat="44.73757" lon="5.04839">
        <ele>316</ele>
        <time>2020-02-07T09:34:38.000Z</time>
      </trkpt>
      <trkpt lat="44.73757" lon="5.04839">
        <ele>316</ele>
        <time>2020-02-07T09:34:39.000Z</time>
      </trkpt>
      <trkpt lat="44.73757" lon="5.04839">
        <ele>316</ele>
        <time>2020-02-07T09:34:40.000Z</time>
      </trkpt>
      <trkpt lat="44.73757" lon="5.04839">
        <ele>316</ele>
        <time>2020-02-07T09:34:41.000Z</time>
      </trkpt>
      <trkpt lat="44.73757" lon="5.04839">
        <ele>316</ele>
        <time>2020-02-07T09:34:42.000Z</time>
      </trkpt>
      <trkpt lat="44.73757" lon="5.04839">
        <ele>316</ele>
        <time>2020-02-07T09:34:43.000Z</time>
      </trkpt>
      <trkpt lat="44.73757" lon="5.04839">
        <ele>316</ele>
        <time>2020-02-07T09:34:44.000Z</time>
      </trkpt>
      <trkpt lat="44.73757" lon="5.04839">
        <ele>316</ele>
        <time>2020-02-07T09:34:45.000Z</time>
      </trkpt>
      <trkpt lat="44.73757" lon="5.04839">
        <ele>316</ele>
        <time>2020-02-07T09:34:46.000Z</time>
      </trkpt>
      <trkpt lat="44.73757" lon="5.04839">
        <ele>316</ele>
        <time>2020-02-07T09:34:47.000Z</time>
      </trkpt>
      <trkpt lat="44.73757" lon="5.04839">
        <ele>316</ele>
        <time>2020-02-07T09:34:48.000Z</time>
      </trkpt>
      <trkpt lat="44.73757" lon="5.04839">
        <ele>316</ele>
        <time>2020-02-07T09:34:49.000Z</time>
      </trkpt>
      <trkpt lat="44.73757" lon="5.0484">
        <ele>316</ele>
        <time>2020-02-07T09:34:50.000Z</time>
      </trkpt>
      <trkpt lat="44.73757" lon="5.0484">
        <ele>316</ele>
        <time>2020-02-07T09:34:51.000Z</time>
      </trkpt>
      <trkpt lat="44.73757" lon="5.0484">
        <ele>316</ele>
        <time>2020-02-07T09:34:52.000Z</time>
      </trkpt>
      <trkpt lat="44.73757" lon="5.0484">
        <ele>316</ele>
        <time>2020-02-07T09:34:53.000Z</time>
      </trkpt>
      <trkpt lat="44.73757" lon="5.0484">
        <ele>316</ele>
        <time>2020-02-07T09:34:54.000Z</time>
      </trkpt>
      <trkpt lat="44.73757" lon="5.0484">
        <ele>316</ele>
        <time>2020-02-07T09:34:55.000Z</time>
      </trkpt>
      <trkpt lat="44.73757" lon="5.0484">
        <ele>316</ele>
        <time>2020-02-07T09:34:56.000Z</time>
      </trkpt>
      <trkpt lat="44.73757" lon="5.0484">
        <ele>316</ele>
        <time>2020-02-07T09:34:57.000Z</time>
      </trkpt>
      <trkpt lat="44.73757" lon="5.0484">
        <ele>316</ele>
        <time>2020-02-07T09:34:58.000Z</time>
      </trkpt>
      <trkpt lat="44.73757" lon="5.0484">
        <ele>316</ele>
        <time>2020-02-07T09:34:59.000Z</time>
      </trkpt>
      <trkpt lat="44.73757" lon="5.0484">
        <ele>316</ele>
        <time>2020-02-07T09:35:00.000Z</time>
      </trkpt>
      <trkpt lat="44.73757" lon="5.0484">
        <ele>316</ele>
        <time>2020-02-07T09:35:01.000Z</time>
      </trkpt>
      <trkpt lat="44.73757" lon="5.0484">
        <ele>316</ele>
        <time>2020-02-07T09:35:02.000Z</time>
      </trkpt>
      <trkpt lat="44.73757" lon="5.0484">
        <ele>316</ele>
        <time>2020-02-07T09:35:03.000Z</time>
      </trkpt>
      <trkpt lat="44.73757" lon="5.0484">
        <ele>316</ele>
        <time>2020-02-07T09:35:04.000Z</time>
      </trkpt>
      <trkpt lat="44.73757" lon="5.0484">
        <ele>316</ele>
        <time>2020-02-07T09:35:05.000Z</time>
      </trkpt>
      <trkpt lat="44.73757" lon="5.0484">
        <ele>316</ele>
        <time>2020-02-07T09:35:06.000Z</time>
      </trkpt>
      <trkpt lat="44.73757" lon="5.0484">
        <ele>316</ele>
        <time>2020-02-07T09:35:07.000Z</time>
      </trkpt>
      <trkpt lat="44.73757" lon="5.0484">
        <ele>316</ele>
        <time>2020-02-07T09:35:08.000Z</time>
      </trkpt>
      <trkpt lat="44.73757" lon="5.0484">
        <ele>316</ele>
        <time>2020-02-07T09:35:09.000Z</time>
      </trkpt>
      <trkpt lat="44.73757" lon="5.0484">
        <ele>316</ele>
        <time>2020-02-07T09:35:10.000Z</time>
      </trkpt>
      <trkpt lat="44.73757" lon="5.0484">
        <ele>316</ele>
        <time>2020-02-07T09:35:11.000Z</time>
      </trkpt>
      <trkpt lat="44.73757" lon="5.0484">
        <ele>316</ele>
        <time>2020-02-07T09:35:12.000Z</time>
      </trkpt>
      <trkpt lat="44.73757" lon="5.0484">
        <ele>316</ele>
        <time>2020-02-07T09:35:13.000Z</time>
      </trkpt>
      <trkpt lat="44.73757" lon="5.0484">
        <ele>316</ele>
        <time>2020-02-07T09:35:14.000Z</time>
      </trkpt>
      <trkpt lat="44.73757" lon="5.0484">
        <ele>316</ele>
        <time>2020-02-07T09:35:15.000Z</time>
      </trkpt>
      <trkpt lat="44.73757" lon="5.0484">
        <ele>316</ele>
        <time>2020-02-07T09:35:16.000Z</time>
      </trkpt>
      <trkpt lat="44.73757" lon="5.0484">
        <ele>316</ele>
        <time>2020-02-07T09:35:17.000Z</time>
      </trkpt>
      <trkpt lat="44.73757" lon="5.0484">
        <ele>316</ele>
        <time>2020-02-07T09:35:18.000Z</time>
      </trkpt>
      <trkpt lat="44.73757" lon="5.0484">
        <ele>316</ele>
        <time>2020-02-07T09:35:19.000Z</time>
      </trkpt>
      <trkpt lat="44.73757" lon="5.0484">
        <ele>316</ele>
        <time>2020-02-07T09:35:20.000Z</time>
      </trkpt>
      <trkpt lat="44.73757" lon="5.0484">
        <ele>316</ele>
        <time>2020-02-07T09:35:21.000Z</time>
      </trkpt>
      <trkpt lat="44.73757" lon="5.0484">
        <ele>316</ele>
        <time>2020-02-07T09:35:22.000Z</time>
      </trkpt>
      <trkpt lat="44.73757" lon="5.0484">
        <ele>316</ele>
        <time>2020-02-07T09:35:23.000Z</time>
      </trkpt>
      <trkpt lat="44.73757" lon="5.0484">
        <ele>316</ele>
        <time>2020-02-07T09:35:24.000Z</time>
      </trkpt>
      <trkpt lat="44.73758" lon="5.0484">
        <ele>316</ele>
        <time>2020-02-07T09:35:25.000Z</time>
      </trkpt>
      <trkpt lat="44.73758" lon="5.0484">
        <ele>316</ele>
        <time>2020-02-07T09:35:26.000Z</time>
      </trkpt>
      <trkpt lat="44.73758" lon="5.0484">
        <ele>316</ele>
        <time>2020-02-07T09:35:27.000Z</time>
      </trkpt>
      <trkpt lat="44.73758" lon="5.0484">
        <ele>316</ele>
        <time>2020-02-07T09:35:28.000Z</time>
      </trkpt>
      <trkpt lat="44.73758" lon="5.0484">
        <ele>316</ele>
        <time>2020-02-07T09:35:29.000Z</time>
      </trkpt>
      <trkpt lat="44.73758" lon="5.0484">
        <ele>316</ele>
        <time>2020-02-07T09:35:30.000Z</time>
      </trkpt>
      <trkpt lat="44.73758" lon="5.0484">
        <ele>316</ele>
        <time>2020-02-07T09:35:31.000Z</time>
      </trkpt>
      <trkpt lat="44.73758" lon="5.0484">
        <ele>316</ele>
        <time>2020-02-07T09:35:32.000Z</time>
      </trkpt>
      <trkpt lat="44.73758" lon="5.0484">
        <ele>316</ele>
        <time>2020-02-07T09:35:33.000Z</time>
      </trkpt>
      <trkpt lat="44.73758" lon="5.0484">
        <ele>316</ele>
        <time>2020-02-07T09:35:34.000Z</time>
      </trkpt>
      <trkpt lat="44.73758" lon="5.0484">
        <ele>316</ele>
        <time>2020-02-07T09:35:35.000Z</time>
      </trkpt>
      <trkpt lat="44.73758" lon="5.0484">
        <ele>316</ele>
        <time>2020-02-07T09:35:36.000Z</time>
      </trkpt>
      <trkpt lat="44.73758" lon="5.0484">
        <ele>316</ele>
        <time>2020-02-07T09:35:37.000Z</time>
      </trkpt>
      <trkpt lat="44.73758" lon="5.0484">
        <ele>316</ele>
        <time>2020-02-07T09:35:38.000Z</time>
      </trkpt>
      <trkpt lat="44.73758" lon="5.0484">
        <ele>316</ele>
        <time>2020-02-07T09:35:39.000Z</time>
      </trkpt>
      <trkpt lat="44.73758" lon="5.0484">
        <ele>316</ele>
        <time>2020-02-07T09:35:40.000Z</time>
      </trkpt>
      <trkpt lat="44.73758" lon="5.0484">
        <ele>316</ele>
        <time>2020-02-07T09:35:41.000Z</time>
      </trkpt>
      <trkpt lat="44.73758" lon="5.0484">
        <ele>316</ele>
        <time>2020-02-07T09:35:42.000Z</time>
      </trkpt>
      <trkpt lat="44.73758" lon="5.0484">
        <ele>316</ele>
        <time>2020-02-07T09:35:43.000Z</time>
      </trkpt>
      <trkpt lat="44.73758" lon="5.0484">
        <ele>316</ele>
        <time>2020-02-07T09:35:44.000Z</time>
      </trkpt>
      <trkpt lat="44.73758" lon="5.0484">
        <ele>317</ele>
        <time>2020-02-07T09:35:45.000Z</time>
      </trkpt>
      <trkpt lat="44.73758" lon="5.0484">
        <ele>317</ele>
        <time>2020-02-07T09:35:46.000Z</time>
      </trkpt>
      <trkpt lat="44.73758" lon="5.04841">
        <ele>317</ele>
        <time>2020-02-07T09:35:47.000Z</time>
      </trkpt>
      <trkpt lat="44.73758" lon="5.04841">
        <ele>317</ele>
        <time>2020-02-07T09:35:48.000Z</time>
      </trkpt>
      <trkpt lat="44.73759" lon="5.04842">
        <ele>317</ele>
        <time>2020-02-07T09:35:49.000Z</time>
      </trkpt>
      <trkpt lat="44.73759" lon="5.04842">
        <ele>317</ele>
        <time>2020-02-07T09:35:50.000Z</time>
      </trkpt>
      <trkpt lat="44.73759" lon="5.04842">
        <ele>317</ele>
        <time>2020-02-07T09:35:51.000Z</time>
      </trkpt>
      <trkpt lat="44.7376" lon="5.04842">
        <ele>317</ele>
        <time>2020-02-07T09:35:52.000Z</time>
      </trkpt>
      <trkpt lat="44.7376" lon="5.04842">
        <ele>317</ele>
        <time>2020-02-07T09:35:53.000Z</time>
      </trkpt>
      <trkpt lat="44.7376" lon="5.04842">
        <ele>317</ele>
        <time>2020-02-07T09:35:54.000Z</time>
      </trkpt>
      <trkpt lat="44.7376" lon="5.04842">
        <ele>317</ele>
        <time>2020-02-07T09:35:55.000Z</time>
      </trkpt>
      <trkpt lat="44.7376" lon="5.04842">
        <ele>317</ele>
        <time>2020-02-07T09:35:56.000Z</time>
      </trkpt>
      <trkpt lat="44.7376" lon="5.04842">
        <ele>317</ele>
        <time>2020-02-07T09:35:57.000Z</time>
      </trkpt>
      <trkpt lat="44.7376" lon="5.04842">
        <ele>317</ele>
        <time>2020-02-07T09:35:58.000Z</time>
      </trkpt>
      <trkpt lat="44.7376" lon="5.04842">
        <ele>317</ele>
        <time>2020-02-07T09:35:59.000Z</time>
      </trkpt>
      <trkpt lat="44.7376" lon="5.04842">
        <ele>317</ele>
        <time>2020-02-07T09:36:00.000Z</time>
      </trkpt>
      <trkpt lat="44.7376" lon="5.04842">
        <ele>317</ele>
        <time>2020-02-07T09:36:01.000Z</time>
      </trkpt>
      <trkpt lat="44.7376" lon="5.04842">
        <ele>317</ele>
        <time>2020-02-07T09:36:02.000Z</time>
      </trkpt>
      <trkpt lat="44.7376" lon="5.04842">
        <ele>317</ele>
        <time>2020-02-07T09:36:03.000Z</time>
      </trkpt>
      <trkpt lat="44.7376" lon="5.04842">
        <ele>318</ele>
        <time>2020-02-07T09:36:04.000Z</time>
      </trkpt>
      <trkpt lat="44.7376" lon="5.04842">
        <ele>318</ele>
        <time>2020-02-07T09:36:05.000Z</time>
      </trkpt>
      <trkpt lat="44.73761" lon="5.04842">
        <ele>318</ele>
        <time>2020-02-07T09:36:06.000Z</time>
      </trkpt>
      <trkpt lat="44.73761" lon="5.04842">
        <ele>318</ele>
        <time>2020-02-07T09:36:07.000Z</time>
      </trkpt>
      <trkpt lat="44.73761" lon="5.04842">
        <ele>318</ele>
        <time>2020-02-07T09:36:08.000Z</time>
      </trkpt>
      <trkpt lat="44.73761" lon="5.04843">
        <ele>318</ele>
        <time>2020-02-07T09:36:09.000Z</time>
      </trkpt>
      <trkpt lat="44.73762" lon="5.04843">
        <ele>318</ele>
        <time>2020-02-07T09:36:10.000Z</time>
      </trkpt>
      <trkpt lat="44.73762" lon="5.04844">
        <ele>318</ele>
        <time>2020-02-07T09:36:11.000Z</time>
      </trkpt>
      <trkpt lat="44.73763" lon="5.04844">
        <ele>318</ele>
        <time>2020-02-07T09:36:12.000Z</time>
      </trkpt>
      <trkpt lat="44.73763" lon="5.04844">
        <ele>318</ele>
        <time>2020-02-07T09:36:13.000Z</time>
      </trkpt>
      <trkpt lat="44.73763" lon="5.04844">
        <ele>318</ele>
        <time>2020-02-07T09:36:14.000Z</time>
      </trkpt>
      <trkpt lat="44.73763" lon="5.04845">
        <ele>318</ele>
        <time>2020-02-07T09:36:15.000Z</time>
      </trkpt>
      <trkpt lat="44.73763" lon="5.04845">
        <ele>318</ele>
        <time>2020-02-07T09:36:16.000Z</time>
      </trkpt>
      <trkpt lat="44.73763" lon="5.04845">
        <ele>318</ele>
        <time>2020-02-07T09:36:17.000Z</time>
      </trkpt>
      <trkpt lat="44.73764" lon="5.04845">
        <ele>318</ele>
        <time>2020-02-07T09:36:18.000Z</time>
      </trkpt>
      <trkpt lat="44.73764" lon="5.04845">
        <ele>318</ele>
        <time>2020-02-07T09:36:19.000Z</time>
      </trkpt>
      <trkpt lat="44.73764" lon="5.04845">
        <ele>318</ele>
        <time>2020-02-07T09:36:20.000Z</time>
      </trkpt>
      <trkpt lat="44.73764" lon="5.04845">
        <ele>318</ele>
        <time>2020-02-07T09:36:21.000Z</time>
      </trkpt>
      <trkpt lat="44.73764" lon="5.04845">
        <ele>318</ele>
        <time>2020-02-07T09:36:22.000Z</time>
      </trkpt>
      <trkpt lat="44.73764" lon="5.04845">
        <ele>318</ele>
        <time>2020-02-07T09:36:23.000Z</time>
      </trkpt>
      <trkpt lat="44.73764" lon="5.04845">
        <ele>318</ele>
        <time>2020-02-07T09:36:24.000Z</time>
      </trkpt>
      <trkpt lat="44.73764" lon="5.04845">
        <ele>318</ele>
        <time>2020-02-07T09:36:25.000Z</time>
      </trkpt>
      <trkpt lat="44.73764" lon="5.04845">
        <ele>318</ele>
        <time>2020-02-07T09:36:26.000Z</time>
      </trkpt>
      <trkpt lat="44.73764" lon="5.04845">
        <ele>318</ele>
        <time>2020-02-07T09:36:27.000Z</time>
      </trkpt>
      <trkpt lat="44.73764" lon="5.04845">
        <ele>318</ele>
        <time>2020-02-07T09:36:28.000Z</time>
      </trkpt>
      <trkpt lat="44.73764" lon="5.04845">
        <ele>318</ele>
        <time>2020-02-07T09:36:29.000Z</time>
      </trkpt>
      <trkpt lat="44.73764" lon="5.04845">
        <ele>318</ele>
        <time>2020-02-07T09:36:30.000Z</time>
      </trkpt>
      <trkpt lat="44.73764" lon="5.04845">
        <ele>318</ele>
        <time>2020-02-07T09:36:31.000Z</time>
      </trkpt>
      <trkpt lat="44.73764" lon="5.04845">
        <ele>318</ele>
        <time>2020-02-07T09:36:32.000Z</time>
      </trkpt>
      <trkpt lat="44.73764" lon="5.04845">
        <ele>318</ele>
        <time>2020-02-07T09:36:33.000Z</time>
      </trkpt>
      <trkpt lat="44.73765" lon="5.04845">
        <ele>318</ele>
        <time>2020-02-07T09:36:34.000Z</time>
      </trkpt>
      <trkpt lat="44.73765" lon="5.04845">
        <ele>318</ele>
        <time>2020-02-07T09:36:35.000Z</time>
      </trkpt>
      <trkpt lat="44.73765" lon="5.04845">
        <ele>318</ele>
        <time>2020-02-07T09:36:36.000Z</time>
      </trkpt>
      <trkpt lat="44.73765" lon="5.04845">
        <ele>318</ele>
        <time>2020-02-07T09:36:37.000Z</time>
      </trkpt>
      <trkpt lat="44.73765" lon="5.04845">
        <ele>318</ele>
        <time>2020-02-07T09:36:38.000Z</time>
      </trkpt>
      <trkpt lat="44.73765" lon="5.04845">
        <ele>318</ele>
        <time>2020-02-07T09:36:39.000Z</time>
      </trkpt>
      <trkpt lat="44.73765" lon="5.04845">
        <ele>318</ele>
        <time>2020-02-07T09:36:40.000Z</time>
      </trkpt>
      <trkpt lat="44.73765" lon="5.04845">
        <ele>318</ele>
        <time>2020-02-07T09:36:41.000Z</time>
      </trkpt>
      <trkpt lat="44.73765" lon="5.04845">
        <ele>318</ele>
        <time>2020-02-07T09:36:42.000Z</time>
      </trkpt>
      <trkpt lat="44.73765" lon="5.04845">
        <ele>318</ele>
        <time>2020-02-07T09:36:43.000Z</time>
      </trkpt>
      <trkpt lat="44.73765" lon="5.04845">
        <ele>318</ele>
        <time>2020-02-07T09:36:44.000Z</time>
      </trkpt>
      <trkpt lat="44.73765" lon="5.04845">
        <ele>318</ele>
        <time>2020-02-07T09:36:45.000Z</time>
      </trkpt>
      <trkpt lat="44.73764" lon="5.04845">
        <ele>318</ele>
        <time>2020-02-07T09:36:46.000Z</time>
      </trkpt>
      <trkpt lat="44.73764" lon="5.04845">
        <ele>318</ele>
        <time>2020-02-07T09:36:47.000Z</time>
      </trkpt>
      <trkpt lat="44.73764" lon="5.04845">
        <ele>318</ele>
        <time>2020-02-07T09:36:48.000Z</time>
      </trkpt>
      <trkpt lat="44.73764" lon="5.04844">
        <ele>318</ele>
        <time>2020-02-07T09:36:49.000Z</time>
      </trkpt>
      <trkpt lat="44.73764" lon="5.04844">
        <ele>318</ele>
        <time>2020-02-07T09:36:50.000Z</time>
      </trkpt>
      <trkpt lat="44.73765" lon="5.04843">
        <ele>318</ele>
        <time>2020-02-07T09:36:51.000Z</time>
      </trkpt>
      <trkpt lat="44.73765" lon="5.04842">
        <ele>318</ele>
        <time>2020-02-07T09:36:52.000Z</time>
      </trkpt>
      <trkpt lat="44.73766" lon="5.04842">
        <ele>318</ele>
        <time>2020-02-07T09:36:53.000Z</time>
      </trkpt>
      <trkpt lat="44.73766" lon="5.04842">
        <ele>318</ele>
        <time>2020-02-07T09:36:54.000Z</time>
      </trkpt>
      <trkpt lat="44.73766" lon="5.04842">
        <ele>318</ele>
        <time>2020-02-07T09:36:55.000Z</time>
      </trkpt>
      <trkpt lat="44.73766" lon="5.04842">
        <ele>318</ele>
        <time>2020-02-07T09:36:56.000Z</time>
      </trkpt>
      <trkpt lat="44.73766" lon="5.04842">
        <ele>318</ele>
        <time>2020-02-07T09:36:57.000Z</time>
      </trkpt>
      <trkpt lat="44.73766" lon="5.04842">
        <ele>318</ele>
        <time>2020-02-07T09:36:58.000Z</time>
      </trkpt>
      <trkpt lat="44.73766" lon="5.04842">
        <ele>318</ele>
        <time>2020-02-07T09:36:59.000Z</time>
      </trkpt>
      <trkpt lat="44.73766" lon="5.04842">
        <ele>318</ele>
        <time>2020-02-07T09:37:00.000Z</time>
      </trkpt>
      <trkpt lat="44.73766" lon="5.04842">
        <ele>318</ele>
        <time>2020-02-07T09:37:01.000Z</time>
      </trkpt>
      <trkpt lat="44.73766" lon="5.04842">
        <ele>318</ele>
        <time>2020-02-07T09:37:02.000Z</time>
      </trkpt>
      <trkpt lat="44.73766" lon="5.04842">
        <ele>318</ele>
        <time>2020-02-07T09:37:03.000Z</time>
      </trkpt>
      <trkpt lat="44.73766" lon="5.04842">
        <ele>318</ele>
        <time>2020-02-07T09:37:04.000Z</time>
      </trkpt>
      <trkpt lat="44.73766" lon="5.04842">
        <ele>318</ele>
        <time>2020-02-07T09:37:05.000Z</time>
      </trkpt>
      <trkpt lat="44.73766" lon="5.04842">
        <ele>318</ele>
        <time>2020-02-07T09:37:06.000Z</time>
      </trkpt>
      <trkpt lat="44.73766" lon="5.04842">
        <ele>318</ele>
        <time>2020-02-07T09:37:07.000Z</time>
      </trkpt>
      <trkpt lat="44.73766" lon="5.04842">
        <ele>318</ele>
        <time>2020-02-07T09:37:08.000Z</time>
      </trkpt>
      <trkpt lat="44.73766" lon="5.04842">
        <ele>318</ele>
        <time>2020-02-07T09:37:09.000Z</time>
      </trkpt>
      <trkpt lat="44.73766" lon="5.04842">
        <ele>318</ele>
        <time>2020-02-07T09:37:10.000Z</time>
      </trkpt>
      <trkpt lat="44.73766" lon="5.04842">
        <ele>318</ele>
        <time>2020-02-07T09:37:11.000Z</time>
      </trkpt>
      <trkpt lat="44.73766" lon="5.04842">
        <ele>318</ele>
        <time>2020-02-07T09:37:12.000Z</time>
      </trkpt>
      <trkpt lat="44.73767" lon="5.04842">
        <ele>318</ele>
        <time>2020-02-07T09:37:13.000Z</time>
      </trkpt>
      <trkpt lat="44.73767" lon="5.04842">
        <ele>318</ele>
        <time>2020-02-07T09:37:14.000Z</time>
      </trkpt>
      <trkpt lat="44.73767" lon="5.04842">
        <ele>318</ele>
        <time>2020-02-07T09:37:15.000Z</time>
      </trkpt>
      <trkpt lat="44.73767" lon="5.04842">
        <ele>318</ele>
        <time>2020-02-07T09:37:16.000Z</time>
      </trkpt>
      <trkpt lat="44.73767" lon="5.04842">
        <ele>318</ele>
        <time>2020-02-07T09:37:17.000Z</time>
      </trkpt>
      <trkpt lat="44.73767" lon="5.04842">
        <ele>318</ele>
        <time>2020-02-07T09:37:18.000Z</time>
      </trkpt>
      <trkpt lat="44.73767" lon="5.04842">
        <ele>318</ele>
        <time>2020-02-07T09:37:19.000Z</time>
      </trkpt>
      <trkpt lat="44.73767" lon="5.04842">
        <ele>318</ele>
        <time>2020-02-07T09:37:20.000Z</time>
      </trkpt>
      <trkpt lat="44.73767" lon="5.04842">
        <ele>318</ele>
        <time>2020-02-07T09:37:21.000Z</time>
      </trkpt>
      <trkpt lat="44.73767" lon="5.04842">
        <ele>318</ele>
        <time>2020-02-07T09:37:22.000Z</time>
      </trkpt>
      <trkpt lat="44.73767" lon="5.04842">
        <ele>318</ele>
        <time>2020-02-07T09:37:23.000Z</time>
      </trkpt>
      <trkpt lat="44.73767" lon="5.04842">
        <ele>318</ele>
        <time>2020-02-07T09:37:24.000Z</time>
      </trkpt>
      <trkpt lat="44.73767" lon="5.04842">
        <ele>318</ele>
        <time>2020-02-07T09:37:25.000Z</time>
      </trkpt>
      <trkpt lat="44.73767" lon="5.04842">
        <ele>318</ele>
        <time>2020-02-07T09:37:26.000Z</time>
      </trkpt>
      <trkpt lat="44.73767" lon="5.04842">
        <ele>318</ele>
        <time>2020-02-07T09:37:27.000Z</time>
      </trkpt>
      <trkpt lat="44.73767" lon="5.04842">
        <ele>318</ele>
        <time>2020-02-07T09:37:28.000Z</time>
      </trkpt>
      <trkpt lat="44.73767" lon="5.04841">
        <ele>318</ele>
        <time>2020-02-07T09:37:29.000Z</time>
      </trkpt>
      <trkpt lat="44.73767" lon="5.04841">
        <ele>318</ele>
        <time>2020-02-07T09:37:30.000Z</time>
      </trkpt>
      <trkpt lat="44.73767" lon="5.04841">
        <ele>318</ele>
        <time>2020-02-07T09:37:31.000Z</time>
      </trkpt>
      <trkpt lat="44.73767" lon="5.04841">
        <ele>318</ele>
        <time>2020-02-07T09:37:32.000Z</time>
      </trkpt>
      <trkpt lat="44.73767" lon="5.04841">
        <ele>318</ele>
        <time>2020-02-07T09:37:33.000Z</time>
      </trkpt>
      <trkpt lat="44.73767" lon="5.04841">
        <ele>318</ele>
        <time>2020-02-07T09:37:34.000Z</time>
      </trkpt>
      <trkpt lat="44.73767" lon="5.04841">
        <ele>318</ele>
        <time>2020-02-07T09:37:35.000Z</time>
      </trkpt>
      <trkpt lat="44.73767" lon="5.04841">
        <ele>318</ele>
        <time>2020-02-07T09:37:36.000Z</time>
      </trkpt>
      <trkpt lat="44.73767" lon="5.04841">
        <ele>318</ele>
        <time>2020-02-07T09:37:37.000Z</time>
      </trkpt>
      <trkpt lat="44.73767" lon="5.04841">
        <ele>318</ele>
        <time>2020-02-07T09:37:38.000Z</time>
      </trkpt>
      <trkpt lat="44.73767" lon="5.04841">
        <ele>318</ele>
        <time>2020-02-07T09:37:39.000Z</time>
      </trkpt>
      <trkpt lat="44.73767" lon="5.04841">
        <ele>318</ele>
        <time>2020-02-07T09:37:40.000Z</time>
      </trkpt>
      <trkpt lat="44.73767" lon="5.04841">
        <ele>318</ele>
        <time>2020-02-07T09:37:41.000Z</time>
      </trkpt>
      <trkpt lat="44.73767" lon="5.04841">
        <ele>318</ele>
        <time>2020-02-07T09:37:42.000Z</time>
      </trkpt>
      <trkpt lat="44.73767" lon="5.04841">
        <ele>318</ele>
        <time>2020-02-07T09:37:43.000Z</time>
      </trkpt>
      <trkpt lat="44.73767" lon="5.04841">
        <ele>318</ele>
        <time>2020-02-07T09:37:44.000Z</time>
      </trkpt>
      <trkpt lat="44.73767" lon="5.04841">
        <ele>318</ele>
        <time>2020-02-07T09:37:45.000Z</time>
      </trkpt>
      <trkpt lat="44.73767" lon="5.04841">
        <ele>318</ele>
        <time>2020-02-07T09:37:46.000Z</time>
      </trkpt>
      <trkpt lat="44.73767" lon="5.04841">
        <ele>318</ele>
        <time>2020-02-07T09:37:47.000Z</time>
      </trkpt>
      <trkpt lat="44.73767" lon="5.04841">
        <ele>318</ele>
        <time>2020-02-07T09:37:48.000Z</time>
      </trkpt>
      <trkpt lat="44.73767" lon="5.04841">
        <ele>318</ele>
        <time>2020-02-07T09:37:49.000Z</time>
      </trkpt>
      <trkpt lat="44.73767" lon="5.04841">
        <ele>318</ele>
        <time>2020-02-07T09:37:50.000Z</time>
      </trkpt>
      <trkpt lat="44.73767" lon="5.04841">
        <ele>318</ele>
        <time>2020-02-07T09:37:51.000Z</time>
      </trkpt>
      <trkpt lat="44.73767" lon="5.04841">
        <ele>318</ele>
        <time>2020-02-07T09:37:52.000Z</time>
      </trkpt>
      <trkpt lat="44.73767" lon="5.04841">
        <ele>318</ele>
        <time>2020-02-07T09:37:53.000Z</time>
      </trkpt>
      <trkpt lat="44.73767" lon="5.04841">
        <ele>318</ele>
        <time>2020-02-07T09:37:54.000Z</time>
      </trkpt>
      <trkpt lat="44.73767" lon="5.04841">
        <ele>318</ele>
        <time>2020-02-07T09:37:55.000Z</time>
      </trkpt>
      <trkpt lat="44.73767" lon="5.04841">
        <ele>318</ele>
        <time>2020-02-07T09:37:56.000Z</time>
      </trkpt>
      <trkpt lat="44.73767" lon="5.04841">
        <ele>318</ele>
        <time>2020-02-07T09:37:57.000Z</time>
      </trkpt>
      <trkpt lat="44.73767" lon="5.04841">
        <ele>317</ele>
        <time>2020-02-07T09:37:58.000Z</time>
      </trkpt>
      <trkpt lat="44.73767" lon="5.04841">
        <ele>317</ele>
        <time>2020-02-07T09:37:59.000Z</time>
      </trkpt>
      <trkpt lat="44.73767" lon="5.04841">
        <ele>317</ele>
        <time>2020-02-07T09:38:00.000Z</time>
      </trkpt>
      <trkpt lat="44.73767" lon="5.04841">
        <ele>318</ele>
        <time>2020-02-07T09:38:01.000Z</time>
      </trkpt>
      <trkpt lat="44.73767" lon="5.04841">
        <ele>318</ele>
        <time>2020-02-07T09:38:02.000Z</time>
      </trkpt>
      <trkpt lat="44.73767" lon="5.04841">
        <ele>318</ele>
        <time>2020-02-07T09:38:03.000Z</time>
      </trkpt>
      <trkpt lat="44.73767" lon="5.04841">
        <ele>318</ele>
        <time>2020-02-07T09:38:04.000Z</time>
      </trkpt>
      <trkpt lat="44.73767" lon="5.04841">
        <ele>318</ele>
        <time>2020-02-07T09:38:05.000Z</time>
      </trkpt>
      <trkpt lat="44.73767" lon="5.0484">
        <ele>318</ele>
        <time>2020-02-07T09:38:06.000Z</time>
      </trkpt>
      <trkpt lat="44.73767" lon="5.0484">
        <ele>318</ele>
        <time>2020-02-07T09:38:07.000Z</time>
      </trkpt>
      <trkpt lat="44.73767" lon="5.0484">
        <ele>318</ele>
        <time>2020-02-07T09:38:08.000Z</time>
      </trkpt>
      <trkpt lat="44.73768" lon="5.0484">
        <ele>318</ele>
        <time>2020-02-07T09:38:09.000Z</time>
      </trkpt>
      <trkpt lat="44.73768" lon="5.0484">
        <ele>318</ele>
        <time>2020-02-07T09:38:10.000Z</time>
      </trkpt>
      <trkpt lat="44.73768" lon="5.0484">
        <ele>318</ele>
        <time>2020-02-07T09:38:11.000Z</time>
      </trkpt>
      <trkpt lat="44.73768" lon="5.0484">
        <ele>318</ele>
        <time>2020-02-07T09:38:12.000Z</time>
      </trkpt>
      <trkpt lat="44.73768" lon="5.0484">
        <ele>318</ele>
        <time>2020-02-07T09:38:13.000Z</time>
      </trkpt>
      <trkpt lat="44.73768" lon="5.0484">
        <ele>318</ele>
        <time>2020-02-07T09:38:14.000Z</time>
      </trkpt>
      <trkpt lat="44.73768" lon="5.0484">
        <ele>318</ele>
        <time>2020-02-07T09:38:15.000Z</time>
      </trkpt>
      <trkpt lat="44.73768" lon="5.0484">
        <ele>318</ele>
        <time>2020-02-07T09:38:16.000Z</time>
      </trkpt>
      <trkpt lat="44.73768" lon="5.0484">
        <ele>318</ele>
        <time>2020-02-07T09:38:17.000Z</time>
      </trkpt>
      <trkpt lat="44.73768" lon="5.0484">
        <ele>318</ele>
        <time>2020-02-07T09:38:18.000Z</time>
      </trkpt>
      <trkpt lat="44.73768" lon="5.0484">
        <ele>318</ele>
        <time>2020-02-07T09:38:19.000Z</time>
      </trkpt>
      <trkpt lat="44.73768" lon="5.0484">
        <ele>318</ele>
        <time>2020-02-07T09:38:20.000Z</time>
      </trkpt>
      <trkpt lat="44.73768" lon="5.0484">
        <ele>318</ele>
        <time>2020-02-07T09:38:21.000Z</time>
      </trkpt>
      <trkpt lat="44.73768" lon="5.0484">
        <ele>319</ele>
        <time>2020-02-07T09:38:22.000Z</time>
      </trkpt>
      <trkpt lat="44.73768" lon="5.0484">
        <ele>319</ele>
        <time>2020-02-07T09:38:23.000Z</time>
      </trkpt>
      <trkpt lat="44.73768" lon="5.0484">
        <ele>319</ele>
        <time>2020-02-07T09:38:24.000Z</time>
      </trkpt>
      <trkpt lat="44.73768" lon="5.0484">
        <ele>319</ele>
        <time>2020-02-07T09:38:25.000Z</time>
      </trkpt>
      <trkpt lat="44.73768" lon="5.0484">
        <ele>319</ele>
        <time>2020-02-07T09:38:26.000Z</time>
      </trkpt>
      <trkpt lat="44.73768" lon="5.0484">
        <ele>319</ele>
        <time>2020-02-07T09:38:27.000Z</time>
      </trkpt>
      <trkpt lat="44.73769" lon="5.0484">
        <ele>319</ele>
        <time>2020-02-07T09:38:28.000Z</time>
      </trkpt>
      <trkpt lat="44.73768" lon="5.0484">
        <ele>319</ele>
        <time>2020-02-07T09:38:29.000Z</time>
      </trkpt>
      <trkpt lat="44.73768" lon="5.0484">
        <ele>319</ele>
        <time>2020-02-07T09:38:30.000Z</time>
      </trkpt>
      <trkpt lat="44.73768" lon="5.0484">
        <ele>319</ele>
        <time>2020-02-07T09:38:31.000Z</time>
      </trkpt>
      <trkpt lat="44.73768" lon="5.0484">
        <ele>319</ele>
        <time>2020-02-07T09:38:32.000Z</time>
      </trkpt>
      <trkpt lat="44.73768" lon="5.0484">
        <ele>319</ele>
        <time>2020-02-07T09:38:33.000Z</time>
      </trkpt>
      <trkpt lat="44.73768" lon="5.0484">
        <ele>319</ele>
        <time>2020-02-07T09:38:34.000Z</time>
      </trkpt>
      <trkpt lat="44.73768" lon="5.0484">
        <ele>319</ele>
        <time>2020-02-07T09:38:35.000Z</time>
      </trkpt>
      <trkpt lat="44.73768" lon="5.0484">
        <ele>319</ele>
        <time>2020-02-07T09:38:36.000Z</time>
      </trkpt>
      <trkpt lat="44.73768" lon="5.0484">
        <ele>319</ele>
        <time>2020-02-07T09:38:37.000Z</time>
      </trkpt>
      <trkpt lat="44.73769" lon="5.0484">
        <ele>319</ele>
        <time>2020-02-07T09:38:38.000Z</time>
      </trkpt>
      <trkpt lat="44.73769" lon="5.0484">
        <ele>319</ele>
        <time>2020-02-07T09:38:39.000Z</time>
      </trkpt>
      <trkpt lat="44.73769" lon="5.0484">
        <ele>319</ele>
        <time>2020-02-07T09:38:40.000Z</time>
      </trkpt>
      <trkpt lat="44.73769" lon="5.0484">
        <ele>319</ele>
        <time>2020-02-07T09:38:41.000Z</time>
      </trkpt>
      <trkpt lat="44.73769" lon="5.0484">
        <ele>319</ele>
        <time>2020-02-07T09:38:42.000Z</time>
      </trkpt>
      <trkpt lat="44.73769" lon="5.04841">
        <ele>319</ele>
        <time>2020-02-07T09:38:43.000Z</time>
      </trkpt>
      <trkpt lat="44.73769" lon="5.04841">
        <ele>319</ele>
        <time>2020-02-07T09:38:44.000Z</time>
      </trkpt>
      <trkpt lat="44.73769" lon="5.04841">
        <ele>319</ele>
        <time>2020-02-07T09:38:45.000Z</time>
      </trkpt>
      <trkpt lat="44.73768" lon="5.04841">
        <ele>319</ele>
        <time>2020-02-07T09:38:46.000Z</time>
      </trkpt>
      <trkpt lat="44.73768" lon="5.04841">
        <ele>319</ele>
        <time>2020-02-07T09:38:47.000Z</time>
      </trkpt>
      <trkpt lat="44.73768" lon="5.04841">
        <ele>319</ele>
        <time>2020-02-07T09:38:48.000Z</time>
      </trkpt>
      <trkpt lat="44.73768" lon="5.04841">
        <ele>319</ele>
        <time>2020-02-07T09:38:49.000Z</time>
      </trkpt>
      <trkpt lat="44.73768" lon="5.04841">
        <ele>319</ele>
        <time>2020-02-07T09:38:50.000Z</time>
      </trkpt>
      <trkpt lat="44.73768" lon="5.04841">
        <ele>319</ele>
        <time>2020-02-07T09:38:51.000Z</time>
      </trkpt>
      <trkpt lat="44.73768" lon="5.04841">
        <ele>319</ele>
        <time>2020-02-07T09:38:52.000Z</time>
      </trkpt>
      <trkpt lat="44.73768" lon="5.04841">
        <ele>319</ele>
        <time>2020-02-07T09:38:53.000Z</time>
      </trkpt>
      <trkpt lat="44.73768" lon="5.04841">
        <ele>319</ele>
        <time>2020-02-07T09:38:54.000Z</time>
      </trkpt>
      <trkpt lat="44.73768" lon="5.04841">
        <ele>319</ele>
        <time>2020-02-07T09:38:55.000Z</time>
      </trkpt>
      <trkpt lat="44.73768" lon="5.04841">
        <ele>319</ele>
        <time>2020-02-07T09:38:56.000Z</time>
      </trkpt>
      <trkpt lat="44.73768" lon="5.04841">
        <ele>319</ele>
        <time>2020-02-07T09:38:57.000Z</time>
      </trkpt>
      <trkpt lat="44.73768" lon="5.04841">
        <ele>319</ele>
        <time>2020-02-07T09:38:58.000Z</time>
      </trkpt>
      <trkpt lat="44.73768" lon="5.04841">
        <ele>319</ele>
        <time>2020-02-07T09:38:59.000Z</time>
      </trkpt>
      <trkpt lat="44.73768" lon="5.04841">
        <ele>319</ele>
        <time>2020-02-07T09:39:00.000Z</time>
      </trkpt>
      <trkpt lat="44.73768" lon="5.04841">
        <ele>319</ele>
        <time>2020-02-07T09:39:01.000Z</time>
      </trkpt>
      <trkpt lat="44.73768" lon="5.04841">
        <ele>319</ele>
        <time>2020-02-07T09:39:02.000Z</time>
      </trkpt>
      <trkpt lat="44.73768" lon="5.04841">
        <ele>319</ele>
        <time>2020-02-07T09:39:03.000Z</time>
      </trkpt>
      <trkpt lat="44.73768" lon="5.04841">
        <ele>319</ele>
        <time>2020-02-07T09:39:04.000Z</time>
      </trkpt>
      <trkpt lat="44.73768" lon="5.04841">
        <ele>319</ele>
        <time>2020-02-07T09:39:05.000Z</time>
      </trkpt>
      <trkpt lat="44.73768" lon="5.04841">
        <ele>319</ele>
        <time>2020-02-07T09:39:06.000Z</time>
      </trkpt>
      <trkpt lat="44.73768" lon="5.04841">
        <ele>319</ele>
        <time>2020-02-07T09:39:07.000Z</time>
      </trkpt>
      <trkpt lat="44.73768" lon="5.04842">
        <ele>319</ele>
        <time>2020-02-07T09:39:08.000Z</time>
      </trkpt>
      <trkpt lat="44.73768" lon="5.04842">
        <ele>319</ele>
        <time>2020-02-07T09:39:09.000Z</time>
      </trkpt>
      <trkpt lat="44.73768" lon="5.04842">
        <ele>319</ele>
        <time>2020-02-07T09:39:10.000Z</time>
      </trkpt>
      <trkpt lat="44.73768" lon="5.04842">
        <ele>319</ele>
        <time>2020-02-07T09:39:11.000Z</time>
      </trkpt>
      <trkpt lat="44.73768" lon="5.04842">
        <ele>319</ele>
        <time>2020-02-07T09:39:12.000Z</time>
      </trkpt>
      <trkpt lat="44.73768" lon="5.04842">
        <ele>319</ele>
        <time>2020-02-07T09:39:13.000Z</time>
      </trkpt>
      <trkpt lat="44.73768" lon="5.04842">
        <ele>319</ele>
        <time>2020-02-07T09:39:14.000Z</time>
      </trkpt>
      <trkpt lat="44.73768" lon="5.04842">
        <ele>319</ele>
        <time>2020-02-07T09:39:15.000Z</time>
      </trkpt>
      <trkpt lat="44.73768" lon="5.04842">
        <ele>319</ele>
        <time>2020-02-07T09:39:16.000Z</time>
      </trkpt>
      <trkpt lat="44.73768" lon="5.04842">
        <ele>319</ele>
        <time>2020-02-07T09:39:17.000Z</time>
      </trkpt>
      <trkpt lat="44.73768" lon="5.04842">
        <ele>319</ele>
        <time>2020-02-07T09:39:18.000Z</time>
      </trkpt>
      <trkpt lat="44.73768" lon="5.04842">
        <ele>319</ele>
        <time>2020-02-07T09:39:19.000Z</time>
      </trkpt>
      <trkpt lat="44.73768" lon="5.04842">
        <ele>319</ele>
        <time>2020-02-07T09:39:20.000Z</time>
      </trkpt>
      <trkpt lat="44.73768" lon="5.04842">
        <ele>319</ele>
        <time>2020-02-07T09:39:21.000Z</time>
      </trkpt>
      <trkpt lat="44.73769" lon="5.04842">
        <ele>319</ele>
        <time>2020-02-07T09:39:22.000Z</time>
      </trkpt>
      <trkpt lat="44.73769" lon="5.04842">
        <ele>319</ele>
        <time>2020-02-07T09:39:23.000Z</time>
      </trkpt>
      <trkpt lat="44.7377" lon="5.04842">
        <ele>319</ele>
        <time>2020-02-07T09:39:24.000Z</time>
      </trkpt>
      <trkpt lat="44.7377" lon="5.04843">
        <ele>320</ele>
        <time>2020-02-07T09:39:25.000Z</time>
      </trkpt>
      <trkpt lat="44.73771" lon="5.04843">
        <ele>320</ele>
        <time>2020-02-07T09:39:26.000Z</time>
      </trkpt>
      <trkpt lat="44.73771" lon="5.04844">
        <ele>320</ele>
        <time>2020-02-07T09:39:27.000Z</time>
      </trkpt>
      <trkpt lat="44.73772" lon="5.04844">
        <ele>320</ele>
        <time>2020-02-07T09:39:28.000Z</time>
      </trkpt>
      <trkpt lat="44.73773" lon="5.04844">
        <ele>320</ele>
        <time>2020-02-07T09:39:29.000Z</time>
      </trkpt>
      <trkpt lat="44.73774" lon="5.04844">
        <ele>320</ele>
        <time>2020-02-07T09:39:30.000Z</time>
      </trkpt>
      <trkpt lat="44.73774" lon="5.04845">
        <ele>320</ele>
        <time>2020-02-07T09:39:31.000Z</time>
      </trkpt>
      <trkpt lat="44.73775" lon="5.04845">
        <ele>320</ele>
        <time>2020-02-07T09:39:32.000Z</time>
      </trkpt>
      <trkpt lat="44.73776" lon="5.04845">
        <ele>320</ele>
        <time>2020-02-07T09:39:33.000Z</time>
      </trkpt>
      <trkpt lat="44.73776" lon="5.04846">
        <ele>320</ele>
        <time>2020-02-07T09:39:34.000Z</time>
      </trkpt>
      <trkpt lat="44.73777" lon="5.04846">
        <ele>321</ele>
        <time>2020-02-07T09:39:35.000Z</time>
      </trkpt>
      <trkpt lat="44.73778" lon="5.04847">
        <ele>321</ele>
        <time>2020-02-07T09:39:36.000Z</time>
      </trkpt>
      <trkpt lat="44.73779" lon="5.04847">
        <ele>321</ele>
        <time>2020-02-07T09:39:37.000Z</time>
      </trkpt>
      <trkpt lat="44.7378" lon="5.04847">
        <ele>321</ele>
        <time>2020-02-07T09:39:38.000Z</time>
      </trkpt>
      <trkpt lat="44.73781" lon="5.04848">
        <ele>321</ele>
        <time>2020-02-07T09:39:39.000Z</time>
      </trkpt>
      <trkpt lat="44.73782" lon="5.04848">
        <ele>321</ele>
        <time>2020-02-07T09:39:40.000Z</time>
      </trkpt>
      <trkpt lat="44.73783" lon="5.04848">
        <ele>321</ele>
        <time>2020-02-07T09:39:41.000Z</time>
      </trkpt>
      <trkpt lat="44.73783" lon="5.04848">
        <ele>321</ele>
        <time>2020-02-07T09:39:42.000Z</time>
      </trkpt>
      <trkpt lat="44.73784" lon="5.04849">
        <ele>321</ele>
        <time>2020-02-07T09:39:43.000Z</time>
      </trkpt>
      <trkpt lat="44.73785" lon="5.04849">
        <ele>321</ele>
        <time>2020-02-07T09:39:44.000Z</time>
      </trkpt>
      <trkpt lat="44.73786" lon="5.0485">
        <ele>321</ele>
        <time>2020-02-07T09:39:45.000Z</time>
      </trkpt>
      <trkpt lat="44.73787" lon="5.0485">
        <ele>321</ele>
        <time>2020-02-07T09:39:46.000Z</time>
      </trkpt>
      <trkpt lat="44.73787" lon="5.04851">
        <ele>322</ele>
        <time>2020-02-07T09:39:47.000Z</time>
      </trkpt>
      <trkpt lat="44.73788" lon="5.04851">
        <ele>322</ele>
        <time>2020-02-07T09:39:48.000Z</time>
      </trkpt>
      <trkpt lat="44.73789" lon="5.04851">
        <ele>322</ele>
        <time>2020-02-07T09:39:49.000Z</time>
      </trkpt>
      <trkpt lat="44.7379" lon="5.04851">
        <ele>322</ele>
        <time>2020-02-07T09:39:50.000Z</time>
      </trkpt>
      <trkpt lat="44.73791" lon="5.04851">
        <ele>322</ele>
        <time>2020-02-07T09:39:51.000Z</time>
      </trkpt>
      <trkpt lat="44.73792" lon="5.04852">
        <ele>322</ele>
        <time>2020-02-07T09:39:52.000Z</time>
      </trkpt>
      <trkpt lat="44.73793" lon="5.04852">
        <ele>322</ele>
        <time>2020-02-07T09:39:53.000Z</time>
      </trkpt>
      <trkpt lat="44.73794" lon="5.04852">
        <ele>322</ele>
        <time>2020-02-07T09:39:54.000Z</time>
      </trkpt>
      <trkpt lat="44.73795" lon="5.04852">
        <ele>322</ele>
        <time>2020-02-07T09:39:55.000Z</time>
      </trkpt>
      <trkpt lat="44.73796" lon="5.04853">
        <ele>322</ele>
        <time>2020-02-07T09:39:56.000Z</time>
      </trkpt>
      <trkpt lat="44.73797" lon="5.04853">
        <ele>322</ele>
        <time>2020-02-07T09:39:57.000Z</time>
      </trkpt>
      <trkpt lat="44.73798" lon="5.04853">
        <ele>322</ele>
        <time>2020-02-07T09:39:58.000Z</time>
      </trkpt>
      <trkpt lat="44.73798" lon="5.04853">
        <ele>322</ele>
        <time>2020-02-07T09:39:59.000Z</time>
      </trkpt>
      <trkpt lat="44.73799" lon="5.04852">
        <ele>323</ele>
        <time>2020-02-07T09:40:00.000Z</time>
      </trkpt>
      <trkpt lat="44.738" lon="5.04852">
        <ele>323</ele>
        <time>2020-02-07T09:40:01.000Z</time>
      </trkpt>
      <trkpt lat="44.73801" lon="5.04852">
        <ele>323</ele>
        <time>2020-02-07T09:40:02.000Z</time>
      </trkpt>
      <trkpt lat="44.73801" lon="5.04852">
        <ele>323</ele>
        <time>2020-02-07T09:40:03.000Z</time>
      </trkpt>
      <trkpt lat="44.73802" lon="5.04852">
        <ele>323</ele>
        <time>2020-02-07T09:40:04.000Z</time>
      </trkpt>
      <trkpt lat="44.73803" lon="5.04852">
        <ele>323</ele>
        <time>2020-02-07T09:40:05.000Z</time>
      </trkpt>
      <trkpt lat="44.73804" lon="5.04852">
        <ele>323</ele>
        <time>2020-02-07T09:40:06.000Z</time>
      </trkpt>
      <trkpt lat="44.73805" lon="5.04851">
        <ele>323</ele>
        <time>2020-02-07T09:40:07.000Z</time>
      </trkpt>
      <trkpt lat="44.73806" lon="5.04851">
        <ele>323</ele>
        <time>2020-02-07T09:40:08.000Z</time>
      </trkpt>
      <trkpt lat="44.73807" lon="5.04851">
        <ele>323</ele>
        <time>2020-02-07T09:40:09.000Z</time>
      </trkpt>
      <trkpt lat="44.73808" lon="5.04851">
        <ele>323</ele>
        <time>2020-02-07T09:40:10.000Z</time>
      </trkpt>
      <trkpt lat="44.73808" lon="5.04851">
        <ele>323</ele>
        <time>2020-02-07T09:40:11.000Z</time>
      </trkpt>
      <trkpt lat="44.73809" lon="5.04851">
        <ele>324</ele>
        <time>2020-02-07T09:40:12.000Z</time>
      </trkpt>
      <trkpt lat="44.7381" lon="5.0485">
        <ele>324</ele>
        <time>2020-02-07T09:40:13.000Z</time>
      </trkpt>
      <trkpt lat="44.73811" lon="5.0485">
        <ele>324</ele>
        <time>2020-02-07T09:40:14.000Z</time>
      </trkpt>
      <trkpt lat="44.73812" lon="5.0485">
        <ele>324</ele>
        <time>2020-02-07T09:40:15.000Z</time>
      </trkpt>
      <trkpt lat="44.73813" lon="5.04849">
        <ele>324</ele>
        <time>2020-02-07T09:40:16.000Z</time>
      </trkpt>
      <trkpt lat="44.73813" lon="5.04849">
        <ele>324</ele>
        <time>2020-02-07T09:40:17.000Z</time>
      </trkpt>
      <trkpt lat="44.73814" lon="5.04848">
        <ele>325</ele>
        <time>2020-02-07T09:40:18.000Z</time>
      </trkpt>
      <trkpt lat="44.73815" lon="5.04848">
        <ele>325</ele>
        <time>2020-02-07T09:40:19.000Z</time>
      </trkpt>
      <trkpt lat="44.73816" lon="5.04848">
        <ele>325</ele>
        <time>2020-02-07T09:40:20.000Z</time>
      </trkpt>
      <trkpt lat="44.73817" lon="5.04847">
        <ele>325</ele>
        <time>2020-02-07T09:40:21.000Z</time>
      </trkpt>
      <trkpt lat="44.73817" lon="5.04847">
        <ele>325</ele>
        <time>2020-02-07T09:40:22.000Z</time>
      </trkpt>
      <trkpt lat="44.73818" lon="5.04846">
        <ele>325</ele>
        <time>2020-02-07T09:40:23.000Z</time>
      </trkpt>
      <trkpt lat="44.73818" lon="5.04846">
        <ele>325</ele>
        <time>2020-02-07T09:40:24.000Z</time>
      </trkpt>
      <trkpt lat="44.73819" lon="5.04845">
        <ele>326</ele>
        <time>2020-02-07T09:40:25.000Z</time>
      </trkpt>
      <trkpt lat="44.7382" lon="5.04845">
        <ele>326</ele>
        <time>2020-02-07T09:40:26.000Z</time>
      </trkpt>
      <trkpt lat="44.7382" lon="5.04844">
        <ele>326</ele>
        <time>2020-02-07T09:40:27.000Z</time>
      </trkpt>
      <trkpt lat="44.73821" lon="5.04844">
        <ele>326</ele>
        <time>2020-02-07T09:40:28.000Z</time>
      </trkpt>
      <trkpt lat="44.73821" lon="5.04844">
        <ele>326</ele>
        <time>2020-02-07T09:40:29.000Z</time>
      </trkpt>
      <trkpt lat="44.73822" lon="5.04844">
        <ele>326</ele>
        <time>2020-02-07T09:40:30.000Z</time>
      </trkpt>
      <trkpt lat="44.73823" lon="5.04844">
        <ele>326</ele>
        <time>2020-02-07T09:40:31.000Z</time>
      </trkpt>
      <trkpt lat="44.73824" lon="5.04843">
        <ele>326</ele>
        <time>2020-02-07T09:40:32.000Z</time>
      </trkpt>
      <trkpt lat="44.73825" lon="5.04843">
        <ele>327</ele>
        <time>2020-02-07T09:40:33.000Z</time>
      </trkpt>
      <trkpt lat="44.73825" lon="5.04843">
        <ele>327</ele>
        <time>2020-02-07T09:40:34.000Z</time>
      </trkpt>
      <trkpt lat="44.73826" lon="5.04843">
        <ele>327</ele>
        <time>2020-02-07T09:40:35.000Z</time>
      </trkpt>
      <trkpt lat="44.73827" lon="5.04843">
        <ele>327</ele>
        <time>2020-02-07T09:40:36.000Z</time>
      </trkpt>
      <trkpt lat="44.73827" lon="5.04843">
        <ele>327</ele>
        <time>2020-02-07T09:40:37.000Z</time>
      </trkpt>
      <trkpt lat="44.73828" lon="5.04842">
        <ele>327</ele>
        <time>2020-02-07T09:40:38.000Z</time>
      </trkpt>
      <trkpt lat="44.73829" lon="5.04842">
        <ele>327</ele>
        <time>2020-02-07T09:40:39.000Z</time>
      </trkpt>
      <trkpt lat="44.73829" lon="5.04842">
        <ele>328</ele>
        <time>2020-02-07T09:40:40.000Z</time>
      </trkpt>
      <trkpt lat="44.7383" lon="5.04841">
        <ele>328</ele>
        <time>2020-02-07T09:40:41.000Z</time>
      </trkpt>
      <trkpt lat="44.7383" lon="5.04841">
        <ele>328</ele>
        <time>2020-02-07T09:40:42.000Z</time>
      </trkpt>
      <trkpt lat="44.73831" lon="5.04841">
        <ele>328</ele>
        <time>2020-02-07T09:40:43.000Z</time>
      </trkpt>
      <trkpt lat="44.73832" lon="5.0484">
        <ele>328</ele>
        <time>2020-02-07T09:40:44.000Z</time>
      </trkpt>
      <trkpt lat="44.73832" lon="5.0484">
        <ele>328</ele>
        <time>2020-02-07T09:40:45.000Z</time>
      </trkpt>
      <trkpt lat="44.73833" lon="5.0484">
        <ele>329</ele>
        <time>2020-02-07T09:40:46.000Z</time>
      </trkpt>
      <trkpt lat="44.73834" lon="5.04839">
        <ele>329</ele>
        <time>2020-02-07T09:40:47.000Z</time>
      </trkpt>
      <trkpt lat="44.73834" lon="5.04839">
        <ele>329</ele>
        <time>2020-02-07T09:40:48.000Z</time>
      </trkpt>
      <trkpt lat="44.73835" lon="5.04838">
        <ele>329</ele>
        <time>2020-02-07T09:40:49.000Z</time>
      </trkpt>
      <trkpt lat="44.73836" lon="5.04838">
        <ele>329</ele>
        <time>2020-02-07T09:40:50.000Z</time>
      </trkpt>
      <trkpt lat="44.73837" lon="5.04838">
        <ele>329</ele>
        <time>2020-02-07T09:40:51.000Z</time>
      </trkpt>
      <trkpt lat="44.73838" lon="5.04838">
        <ele>329</ele>
        <time>2020-02-07T09:40:52.000Z</time>
      </trkpt>
      <trkpt lat="44.73839" lon="5.04838">
        <ele>329</ele>
        <time>2020-02-07T09:40:53.000Z</time>
      </trkpt>
      <trkpt lat="44.73839" lon="5.04838">
        <ele>329</ele>
        <time>2020-02-07T09:40:54.000Z</time>
      </trkpt>
      <trkpt lat="44.7384" lon="5.04838">
        <ele>329</ele>
        <time>2020-02-07T09:40:55.000Z</time>
      </trkpt>
      <trkpt lat="44.73841" lon="5.04838">
        <ele>329</ele>
        <time>2020-02-07T09:40:56.000Z</time>
      </trkpt>
      <trkpt lat="44.73842" lon="5.04838">
        <ele>330</ele>
        <time>2020-02-07T09:40:57.000Z</time>
      </trkpt>
      <trkpt lat="44.73843" lon="5.04838">
        <ele>330</ele>
        <time>2020-02-07T09:40:58.000Z</time>
      </trkpt>
      <trkpt lat="44.73844" lon="5.04838">
        <ele>330</ele>
        <time>2020-02-07T09:40:59.000Z</time>
      </trkpt>
      <trkpt lat="44.73845" lon="5.04838">
        <ele>330</ele>
        <time>2020-02-07T09:41:00.000Z</time>
      </trkpt>
      <trkpt lat="44.73846" lon="5.04837">
        <ele>330</ele>
        <time>2020-02-07T09:41:01.000Z</time>
      </trkpt>
      <trkpt lat="44.73846" lon="5.04837">
        <ele>330</ele>
        <time>2020-02-07T09:41:02.000Z</time>
      </trkpt>
      <trkpt lat="44.73847" lon="5.04838">
        <ele>330</ele>
        <time>2020-02-07T09:41:03.000Z</time>
      </trkpt>
      <trkpt lat="44.73848" lon="5.04838">
        <ele>330</ele>
        <time>2020-02-07T09:41:04.000Z</time>
      </trkpt>
      <trkpt lat="44.73849" lon="5.04838">
        <ele>330</ele>
        <time>2020-02-07T09:41:05.000Z</time>
      </trkpt>
      <trkpt lat="44.7385" lon="5.04838">
        <ele>330</ele>
        <time>2020-02-07T09:41:06.000Z</time>
      </trkpt>
      <trkpt lat="44.73851" lon="5.04838">
        <ele>330</ele>
        <time>2020-02-07T09:41:07.000Z</time>
      </trkpt>
      <trkpt lat="44.73852" lon="5.04838">
        <ele>330</ele>
        <time>2020-02-07T09:41:08.000Z</time>
      </trkpt>
      <trkpt lat="44.73854" lon="5.04839">
        <ele>330</ele>
        <time>2020-02-07T09:41:09.000Z</time>
      </trkpt>
      <trkpt lat="44.73855" lon="5.04839">
        <ele>330</ele>
        <time>2020-02-07T09:41:10.000Z</time>
      </trkpt>
      <trkpt lat="44.73856" lon="5.04839">
        <ele>330</ele>
        <time>2020-02-07T09:41:11.000Z</time>
      </trkpt>
      <trkpt lat="44.73857" lon="5.0484">
        <ele>330</ele>
        <time>2020-02-07T09:41:12.000Z</time>
      </trkpt>
      <trkpt lat="44.73859" lon="5.0484">
        <ele>330</ele>
        <time>2020-02-07T09:41:13.000Z</time>
      </trkpt>
      <trkpt lat="44.7386" lon="5.04841">
        <ele>330</ele>
        <time>2020-02-07T09:41:14.000Z</time>
      </trkpt>
      <trkpt lat="44.73861" lon="5.04842">
        <ele>330</ele>
        <time>2020-02-07T09:41:15.000Z</time>
      </trkpt>
      <trkpt lat="44.73863" lon="5.04842">
        <ele>330</ele>
        <time>2020-02-07T09:41:16.000Z</time>
      </trkpt>
      <trkpt lat="44.73864" lon="5.04843">
        <ele>330</ele>
        <time>2020-02-07T09:41:17.000Z</time>
      </trkpt>
      <trkpt lat="44.73866" lon="5.04844">
        <ele>329</ele>
        <time>2020-02-07T09:41:18.000Z</time>
      </trkpt>
      <trkpt lat="44.73867" lon="5.04844">
        <ele>329</ele>
        <time>2020-02-07T09:41:19.000Z</time>
      </trkpt>
      <trkpt lat="44.73868" lon="5.04845">
        <ele>329</ele>
        <time>2020-02-07T09:41:20.000Z</time>
      </trkpt>
      <trkpt lat="44.73869" lon="5.04845">
        <ele>329</ele>
        <time>2020-02-07T09:41:21.000Z</time>
      </trkpt>
      <trkpt lat="44.73871" lon="5.04846">
        <ele>329</ele>
        <time>2020-02-07T09:41:22.000Z</time>
      </trkpt>
      <trkpt lat="44.73872" lon="5.04847">
        <ele>329</ele>
        <time>2020-02-07T09:41:23.000Z</time>
      </trkpt>
      <trkpt lat="44.73873" lon="5.04847">
        <ele>329</ele>
        <time>2020-02-07T09:41:24.000Z</time>
      </trkpt>
      <trkpt lat="44.73874" lon="5.04847">
        <ele>329</ele>
        <time>2020-02-07T09:41:25.000Z</time>
      </trkpt>
      <trkpt lat="44.73875" lon="5.04848">
        <ele>329</ele>
        <time>2020-02-07T09:41:26.000Z</time>
      </trkpt>
      <trkpt lat="44.73877" lon="5.04848">
        <ele>329</ele>
        <time>2020-02-07T09:41:27.000Z</time>
      </trkpt>
      <trkpt lat="44.73878" lon="5.04849">
        <ele>329</ele>
        <time>2020-02-07T09:41:28.000Z</time>
      </trkpt>
      <trkpt lat="44.73879" lon="5.04849">
        <ele>329</ele>
        <time>2020-02-07T09:41:29.000Z</time>
      </trkpt>
      <trkpt lat="44.7388" lon="5.04849">
        <ele>329</ele>
        <time>2020-02-07T09:41:30.000Z</time>
      </trkpt>
      <trkpt lat="44.73881" lon="5.0485">
        <ele>329</ele>
        <time>2020-02-07T09:41:31.000Z</time>
      </trkpt>
      <trkpt lat="44.73882" lon="5.0485">
        <ele>329</ele>
        <time>2020-02-07T09:41:32.000Z</time>
      </trkpt>
      <trkpt lat="44.73883" lon="5.04851">
        <ele>329</ele>
        <time>2020-02-07T09:41:33.000Z</time>
      </trkpt>
      <trkpt lat="44.73885" lon="5.04851">
        <ele>329</ele>
        <time>2020-02-07T09:41:34.000Z</time>
      </trkpt>
      <trkpt lat="44.73886" lon="5.04851">
        <ele>329</ele>
        <time>2020-02-07T09:41:35.000Z</time>
      </trkpt>
      <trkpt lat="44.73887" lon="5.04852">
        <ele>329</ele>
        <time>2020-02-07T09:41:36.000Z</time>
      </trkpt>
      <trkpt lat="44.73888" lon="5.04853">
        <ele>329</ele>
        <time>2020-02-07T09:41:37.000Z</time>
      </trkpt>
      <trkpt lat="44.73889" lon="5.04853">
        <ele>329</ele>
        <time>2020-02-07T09:41:38.000Z</time>
      </trkpt>
      <trkpt lat="44.7389" lon="5.04853">
        <ele>329</ele>
        <time>2020-02-07T09:41:39.000Z</time>
      </trkpt>
      <trkpt lat="44.73891" lon="5.04853">
        <ele>329</ele>
        <time>2020-02-07T09:41:40.000Z</time>
      </trkpt>
      <trkpt lat="44.73891" lon="5.04854">
        <ele>329</ele>
        <time>2020-02-07T09:41:41.000Z</time>
      </trkpt>
      <trkpt lat="44.73893" lon="5.04854">
        <ele>329</ele>
        <time>2020-02-07T09:41:42.000Z</time>
      </trkpt>
      <trkpt lat="44.73893" lon="5.04855">
        <ele>329</ele>
        <time>2020-02-07T09:41:43.000Z</time>
      </trkpt>
      <trkpt lat="44.73894" lon="5.04855">
        <ele>329</ele>
        <time>2020-02-07T09:41:44.000Z</time>
      </trkpt>
      <trkpt lat="44.73895" lon="5.04856">
        <ele>329</ele>
        <time>2020-02-07T09:41:45.000Z</time>
      </trkpt>
      <trkpt lat="44.73896" lon="5.04856">
        <ele>329</ele>
        <time>2020-02-07T09:41:46.000Z</time>
      </trkpt>
      <trkpt lat="44.73897" lon="5.04856">
        <ele>329</ele>
        <time>2020-02-07T09:41:47.000Z</time>
      </trkpt>
      <trkpt lat="44.73898" lon="5.04856">
        <ele>329</ele>
        <time>2020-02-07T09:41:48.000Z</time>
      </trkpt>
      <trkpt lat="44.73899" lon="5.04857">
        <ele>329</ele>
        <time>2020-02-07T09:41:49.000Z</time>
      </trkpt>
      <trkpt lat="44.739" lon="5.04857">
        <ele>329</ele>
        <time>2020-02-07T09:41:50.000Z</time>
      </trkpt>
      <trkpt lat="44.73901" lon="5.04857">
        <ele>329</ele>
        <time>2020-02-07T09:41:51.000Z</time>
      </trkpt>
      <trkpt lat="44.73902" lon="5.04858">
        <ele>329</ele>
        <time>2020-02-07T09:41:52.000Z</time>
      </trkpt>
      <trkpt lat="44.73903" lon="5.04858">
        <ele>329</ele>
        <time>2020-02-07T09:41:53.000Z</time>
      </trkpt>
      <trkpt lat="44.73904" lon="5.04858">
        <ele>329</ele>
        <time>2020-02-07T09:41:54.000Z</time>
      </trkpt>
      <trkpt lat="44.73905" lon="5.04858">
        <ele>329</ele>
        <time>2020-02-07T09:41:55.000Z</time>
      </trkpt>
      <trkpt lat="44.73906" lon="5.04858">
        <ele>329</ele>
        <time>2020-02-07T09:41:56.000Z</time>
      </trkpt>
      <trkpt lat="44.73907" lon="5.04859">
        <ele>329</ele>
        <time>2020-02-07T09:41:57.000Z</time>
      </trkpt>
      <trkpt lat="44.73909" lon="5.04859">
        <ele>329</ele>
        <time>2020-02-07T09:41:58.000Z</time>
      </trkpt>
      <trkpt lat="44.7391" lon="5.04859">
        <ele>329</ele>
        <time>2020-02-07T09:41:59.000Z</time>
      </trkpt>
      <trkpt lat="44.73911" lon="5.04859">
        <ele>329</ele>
        <time>2020-02-07T09:42:00.000Z</time>
      </trkpt>
      <trkpt lat="44.73912" lon="5.04859">
        <ele>329</ele>
        <time>2020-02-07T09:42:01.000Z</time>
      </trkpt>
      <trkpt lat="44.73913" lon="5.04859">
        <ele>329</ele>
        <time>2020-02-07T09:42:02.000Z</time>
      </trkpt>
      <trkpt lat="44.73914" lon="5.04859">
        <ele>329</ele>
        <time>2020-02-07T09:42:03.000Z</time>
      </trkpt>
      <trkpt lat="44.73915" lon="5.04859">
        <ele>329</ele>
        <time>2020-02-07T09:42:04.000Z</time>
      </trkpt>
      <trkpt lat="44.73916" lon="5.04859">
        <ele>329</ele>
        <time>2020-02-07T09:42:05.000Z</time>
      </trkpt>
      <trkpt lat="44.73917" lon="5.04859">
        <ele>329</ele>
        <time>2020-02-07T09:42:06.000Z</time>
      </trkpt>
      <trkpt lat="44.73918" lon="5.0486">
        <ele>329</ele>
        <time>2020-02-07T09:42:07.000Z</time>
      </trkpt>
      <trkpt lat="44.73919" lon="5.0486">
        <ele>329</ele>
        <time>2020-02-07T09:42:08.000Z</time>
      </trkpt>
      <trkpt lat="44.7392" lon="5.0486">
        <ele>329</ele>
        <time>2020-02-07T09:42:09.000Z</time>
      </trkpt>
      <trkpt lat="44.73921" lon="5.0486">
        <ele>329</ele>
        <time>2020-02-07T09:42:10.000Z</time>
      </trkpt>
      <trkpt lat="44.73922" lon="5.0486">
        <ele>329</ele>
        <time>2020-02-07T09:42:11.000Z</time>
      </trkpt>
      <trkpt lat="44.73923" lon="5.0486">
        <ele>329</ele>
        <time>2020-02-07T09:42:12.000Z</time>
      </trkpt>
      <trkpt lat="44.73924" lon="5.0486">
        <ele>329</ele>
        <time>2020-02-07T09:42:13.000Z</time>
      </trkpt>
      <trkpt lat="44.73926" lon="5.0486">
        <ele>329</ele>
        <time>2020-02-07T09:42:14.000Z</time>
      </trkpt>
      <trkpt lat="44.73927" lon="5.0486">
        <ele>330</ele>
        <time>2020-02-07T09:42:15.000Z</time>
      </trkpt>
      <trkpt lat="44.73928" lon="5.0486">
        <ele>330</ele>
        <time>2020-02-07T09:42:16.000Z</time>
      </trkpt>
      <trkpt lat="44.7393" lon="5.0486">
        <ele>330</ele>
        <time>2020-02-07T09:42:17.000Z</time>
      </trkpt>
      <trkpt lat="44.73931" lon="5.0486">
        <ele>330</ele>
        <time>2020-02-07T09:42:18.000Z</time>
      </trkpt>
      <trkpt lat="44.73932" lon="5.0486">
        <ele>330</ele>
        <time>2020-02-07T09:42:19.000Z</time>
      </trkpt>
      <trkpt lat="44.73933" lon="5.04859">
        <ele>330</ele>
        <time>2020-02-07T09:42:20.000Z</time>
      </trkpt>
      <trkpt lat="44.73934" lon="5.04859">
        <ele>330</ele>
        <time>2020-02-07T09:42:21.000Z</time>
      </trkpt>
      <trkpt lat="44.73936" lon="5.04859">
        <ele>330</ele>
        <time>2020-02-07T09:42:22.000Z</time>
      </trkpt>
      <trkpt lat="44.73937" lon="5.04859">
        <ele>330</ele>
        <time>2020-02-07T09:42:23.000Z</time>
      </trkpt>
      <trkpt lat="44.73938" lon="5.04859">
        <ele>330</ele>
        <time>2020-02-07T09:42:24.000Z</time>
      </trkpt>
      <trkpt lat="44.73939" lon="5.04859">
        <ele>330</ele>
        <time>2020-02-07T09:42:25.000Z</time>
      </trkpt>
      <trkpt lat="44.73941" lon="5.04859">
        <ele>331</ele>
        <time>2020-02-07T09:42:26.000Z</time>
      </trkpt>
      <trkpt lat="44.73942" lon="5.04859">
        <ele>331</ele>
        <time>2020-02-07T09:42:27.000Z</time>
      </trkpt>
      <trkpt lat="44.73943" lon="5.0486">
        <ele>331</ele>
        <time>2020-02-07T09:42:28.000Z</time>
      </trkpt>
      <trkpt lat="44.73944" lon="5.0486">
        <ele>331</ele>
        <time>2020-02-07T09:42:29.000Z</time>
      </trkpt>
      <trkpt lat="44.73945" lon="5.04861">
        <ele>331</ele>
        <time>2020-02-07T09:42:30.000Z</time>
      </trkpt>
      <trkpt lat="44.73946" lon="5.04861">
        <ele>331</ele>
        <time>2020-02-07T09:42:31.000Z</time>
      </trkpt>
      <trkpt lat="44.73947" lon="5.04861">
        <ele>331</ele>
        <time>2020-02-07T09:42:32.000Z</time>
      </trkpt>
      <trkpt lat="44.73948" lon="5.04861">
        <ele>331</ele>
        <time>2020-02-07T09:42:33.000Z</time>
      </trkpt>
      <trkpt lat="44.73949" lon="5.04861">
        <ele>331</ele>
        <time>2020-02-07T09:42:34.000Z</time>
      </trkpt>
      <trkpt lat="44.7395" lon="5.04861">
        <ele>331</ele>
        <time>2020-02-07T09:42:35.000Z</time>
      </trkpt>
      <trkpt lat="44.73951" lon="5.04861">
        <ele>332</ele>
        <time>2020-02-07T09:42:36.000Z</time>
      </trkpt>
      <trkpt lat="44.73952" lon="5.04861">
        <ele>332</ele>
        <time>2020-02-07T09:42:37.000Z</time>
      </trkpt>
      <trkpt lat="44.73953" lon="5.04861">
        <ele>332</ele>
        <time>2020-02-07T09:42:38.000Z</time>
      </trkpt>
      <trkpt lat="44.73954" lon="5.04861">
        <ele>332</ele>
        <time>2020-02-07T09:42:39.000Z</time>
      </trkpt>
      <trkpt lat="44.73955" lon="5.04861">
        <ele>332</ele>
        <time>2020-02-07T09:42:40.000Z</time>
      </trkpt>
      <trkpt lat="44.73956" lon="5.04861">
        <ele>332</ele>
        <time>2020-02-07T09:42:41.000Z</time>
      </trkpt>
      <trkpt lat="44.73957" lon="5.04861">
        <ele>332</ele>
        <time>2020-02-07T09:42:42.000Z</time>
      </trkpt>
      <trkpt lat="44.73958" lon="5.04861">
        <ele>333</ele>
        <time>2020-02-07T09:42:43.000Z</time>
      </trkpt>
      <trkpt lat="44.73959" lon="5.04861">
        <ele>333</ele>
        <time>2020-02-07T09:42:44.000Z</time>
      </trkpt>
      <trkpt lat="44.7396" lon="5.04861">
        <ele>333</ele>
        <time>2020-02-07T09:42:45.000Z</time>
      </trkpt>
      <trkpt lat="44.73961" lon="5.0486">
        <ele>333</ele>
        <time>2020-02-07T09:42:46.000Z</time>
      </trkpt>
      <trkpt lat="44.73962" lon="5.0486">
        <ele>333</ele>
        <time>2020-02-07T09:42:47.000Z</time>
      </trkpt>
      <trkpt lat="44.73963" lon="5.0486">
        <ele>333</ele>
        <time>2020-02-07T09:42:48.000Z</time>
      </trkpt>
      <trkpt lat="44.73964" lon="5.0486">
        <ele>334</ele>
        <time>2020-02-07T09:42:49.000Z</time>
      </trkpt>
      <trkpt lat="44.73965" lon="5.0486">
        <ele>334</ele>
        <time>2020-02-07T09:42:50.000Z</time>
      </trkpt>
      <trkpt lat="44.73966" lon="5.0486">
        <ele>334</ele>
        <time>2020-02-07T09:42:51.000Z</time>
      </trkpt>
      <trkpt lat="44.73967" lon="5.04861">
        <ele>334</ele>
        <time>2020-02-07T09:42:52.000Z</time>
      </trkpt>
      <trkpt lat="44.73968" lon="5.04861">
        <ele>334</ele>
        <time>2020-02-07T09:42:53.000Z</time>
      </trkpt>
      <trkpt lat="44.73969" lon="5.0486">
        <ele>334</ele>
        <time>2020-02-07T09:42:54.000Z</time>
      </trkpt>
      <trkpt lat="44.7397" lon="5.0486">
        <ele>334</ele>
        <time>2020-02-07T09:42:55.000Z</time>
      </trkpt>
      <trkpt lat="44.73971" lon="5.0486">
        <ele>334</ele>
        <time>2020-02-07T09:42:56.000Z</time>
      </trkpt>
      <trkpt lat="44.73972" lon="5.0486">
        <ele>334</ele>
        <time>2020-02-07T09:42:57.000Z</time>
      </trkpt>
      <trkpt lat="44.73972" lon="5.0486">
        <ele>334</ele>
        <time>2020-02-07T09:42:58.000Z</time>
      </trkpt>
      <trkpt lat="44.73973" lon="5.0486">
        <ele>334</ele>
        <time>2020-02-07T09:42:59.000Z</time>
      </trkpt>
      <trkpt lat="44.73974" lon="5.04859">
        <ele>334</ele>
        <time>2020-02-07T09:43:00.000Z</time>
      </trkpt>
      <trkpt lat="44.73975" lon="5.04859">
        <ele>334</ele>
        <time>2020-02-07T09:43:01.000Z</time>
      </trkpt>
      <trkpt lat="44.73976" lon="5.04858">
        <ele>334</ele>
        <time>2020-02-07T09:43:02.000Z</time>
      </trkpt>
      <trkpt lat="44.73977" lon="5.04858">
        <ele>335</ele>
        <time>2020-02-07T09:43:03.000Z</time>
      </trkpt>
      <trkpt lat="44.73978" lon="5.04858">
        <ele>335</ele>
        <time>2020-02-07T09:43:04.000Z</time>
      </trkpt>
      <trkpt lat="44.73979" lon="5.04858">
        <ele>335</ele>
        <time>2020-02-07T09:43:05.000Z</time>
      </trkpt>
      <trkpt lat="44.7398" lon="5.04858">
        <ele>335</ele>
        <time>2020-02-07T09:43:06.000Z</time>
      </trkpt>
      <trkpt lat="44.73981" lon="5.04858">
        <ele>335</ele>
        <time>2020-02-07T09:43:07.000Z</time>
      </trkpt>
      <trkpt lat="44.73982" lon="5.04858">
        <ele>335</ele>
        <time>2020-02-07T09:43:08.000Z</time>
      </trkpt>
      <trkpt lat="44.73983" lon="5.04857">
        <ele>335</ele>
        <time>2020-02-07T09:43:09.000Z</time>
      </trkpt>
      <trkpt lat="44.73984" lon="5.04857">
        <ele>335</ele>
        <time>2020-02-07T09:43:10.000Z</time>
      </trkpt>
      <trkpt lat="44.73985" lon="5.04857">
        <ele>335</ele>
        <time>2020-02-07T09:43:11.000Z</time>
      </trkpt>
      <trkpt lat="44.73987" lon="5.04857">
        <ele>335</ele>
        <time>2020-02-07T09:43:12.000Z</time>
      </trkpt>
      <trkpt lat="44.73988" lon="5.04857">
        <ele>335</ele>
        <time>2020-02-07T09:43:13.000Z</time>
      </trkpt>
      <trkpt lat="44.73989" lon="5.04857">
        <ele>335</ele>
        <time>2020-02-07T09:43:14.000Z</time>
      </trkpt>
      <trkpt lat="44.7399" lon="5.04857">
        <ele>335</ele>
        <time>2020-02-07T09:43:15.000Z</time>
      </trkpt>
      <trkpt lat="44.7399" lon="5.04857">
        <ele>335</ele>
        <time>2020-02-07T09:43:16.000Z</time>
      </trkpt>
      <trkpt lat="44.73991" lon="5.04857">
        <ele>335</ele>
        <time>2020-02-07T09:43:17.000Z</time>
      </trkpt>
      <trkpt lat="44.73992" lon="5.04858">
        <ele>335</ele>
        <time>2020-02-07T09:43:18.000Z</time>
      </trkpt>
      <trkpt lat="44.73993" lon="5.04858">
        <ele>335</ele>
        <time>2020-02-07T09:43:19.000Z</time>
      </trkpt>
      <trkpt lat="44.73994" lon="5.04858">
        <ele>335</ele>
        <time>2020-02-07T09:43:20.000Z</time>
      </trkpt>
      <trkpt lat="44.73995" lon="5.04858">
        <ele>335</ele>
        <time>2020-02-07T09:43:21.000Z</time>
      </trkpt>
      <trkpt lat="44.73996" lon="5.04858">
        <ele>335</ele>
        <time>2020-02-07T09:43:22.000Z</time>
      </trkpt>
      <trkpt lat="44.73997" lon="5.04858">
        <ele>335</ele>
        <time>2020-02-07T09:43:23.000Z</time>
      </trkpt>
      <trkpt lat="44.73999" lon="5.04857">
        <ele>335</ele>
        <time>2020-02-07T09:43:24.000Z</time>
      </trkpt>
      <trkpt lat="44.74" lon="5.04857">
        <ele>335</ele>
        <time>2020-02-07T09:43:25.000Z</time>
      </trkpt>
      <trkpt lat="44.74001" lon="5.04857">
        <ele>335</ele>
        <time>2020-02-07T09:43:26.000Z</time>
      </trkpt>
      <trkpt lat="44.74003" lon="5.04858">
        <ele>335</ele>
        <time>2020-02-07T09:43:27.000Z</time>
      </trkpt>
      <trkpt lat="44.74004" lon="5.04858">
        <ele>335</ele>
        <time>2020-02-07T09:43:28.000Z</time>
      </trkpt>
      <trkpt lat="44.74005" lon="5.04858">
        <ele>335</ele>
        <time>2020-02-07T09:43:29.000Z</time>
      </trkpt>
      <trkpt lat="44.74006" lon="5.04858">
        <ele>335</ele>
        <time>2020-02-07T09:43:30.000Z</time>
      </trkpt>
      <trkpt lat="44.74007" lon="5.04858">
        <ele>335</ele>
        <time>2020-02-07T09:43:31.000Z</time>
      </trkpt>
      <trkpt lat="44.74008" lon="5.04858">
        <ele>334</ele>
        <time>2020-02-07T09:43:32.000Z</time>
      </trkpt>
      <trkpt lat="44.7401" lon="5.04858">
        <ele>334</ele>
        <time>2020-02-07T09:43:33.000Z</time>
      </trkpt>
      <trkpt lat="44.74011" lon="5.04858">
        <ele>334</ele>
        <time>2020-02-07T09:43:34.000Z</time>
      </trkpt>
      <trkpt lat="44.74012" lon="5.04857">
        <ele>334</ele>
        <time>2020-02-07T09:43:35.000Z</time>
      </trkpt>
      <trkpt lat="44.74013" lon="5.04857">
        <ele>334</ele>
        <time>2020-02-07T09:43:36.000Z</time>
      </trkpt>
      <trkpt lat="44.74014" lon="5.04857">
        <ele>334</ele>
        <time>2020-02-07T09:43:37.000Z</time>
      </trkpt>
      <trkpt lat="44.74015" lon="5.04857">
        <ele>334</ele>
        <time>2020-02-07T09:43:38.000Z</time>
      </trkpt>
      <trkpt lat="44.74016" lon="5.04858">
        <ele>334</ele>
        <time>2020-02-07T09:43:39.000Z</time>
      </trkpt>
      <trkpt lat="44.74017" lon="5.04858">
        <ele>334</ele>
        <time>2020-02-07T09:43:40.000Z</time>
      </trkpt>
      <trkpt lat="44.74018" lon="5.04858">
        <ele>334</ele>
        <time>2020-02-07T09:43:41.000Z</time>
      </trkpt>
      <trkpt lat="44.74019" lon="5.04858">
        <ele>334</ele>
        <time>2020-02-07T09:43:42.000Z</time>
      </trkpt>
      <trkpt lat="44.7402" lon="5.04858">
        <ele>334</ele>
        <time>2020-02-07T09:43:43.000Z</time>
      </trkpt>
      <trkpt lat="44.74021" lon="5.04859">
        <ele>334</ele>
        <time>2020-02-07T09:43:44.000Z</time>
      </trkpt>
      <trkpt lat="44.74022" lon="5.04859">
        <ele>334</ele>
        <time>2020-02-07T09:43:45.000Z</time>
      </trkpt>
      <trkpt lat="44.74023" lon="5.04859">
        <ele>334</ele>
        <time>2020-02-07T09:43:46.000Z</time>
      </trkpt>
      <trkpt lat="44.74024" lon="5.04859">
        <ele>334</ele>
        <time>2020-02-07T09:43:47.000Z</time>
      </trkpt>
      <trkpt lat="44.74025" lon="5.04859">
        <ele>334</ele>
        <time>2020-02-07T09:43:48.000Z</time>
      </trkpt>
      <trkpt lat="44.74026" lon="5.04859">
        <ele>334</ele>
        <time>2020-02-07T09:43:49.000Z</time>
      </trkpt>
      <trkpt lat="44.74027" lon="5.0486">
        <ele>334</ele>
        <time>2020-02-07T09:43:50.000Z</time>
      </trkpt>
      <trkpt lat="44.74029" lon="5.0486">
        <ele>334</ele>
        <time>2020-02-07T09:43:51.000Z</time>
      </trkpt>
      <trkpt lat="44.7403" lon="5.0486">
        <ele>334</ele>
        <time>2020-02-07T09:43:52.000Z</time>
      </trkpt>
      <trkpt lat="44.74031" lon="5.0486">
        <ele>334</ele>
        <time>2020-02-07T09:43:53.000Z</time>
      </trkpt>
      <trkpt lat="44.74032" lon="5.0486">
        <ele>334</ele>
        <time>2020-02-07T09:43:54.000Z</time>
      </trkpt>
      <trkpt lat="44.74033" lon="5.04861">
        <ele>334</ele>
        <time>2020-02-07T09:43:55.000Z</time>
      </trkpt>
      <trkpt lat="44.74034" lon="5.04861">
        <ele>335</ele>
        <time>2020-02-07T09:43:56.000Z</time>
      </trkpt>
      <trkpt lat="44.74035" lon="5.04861">
        <ele>335</ele>
        <time>2020-02-07T09:43:57.000Z</time>
      </trkpt>
      <trkpt lat="44.74037" lon="5.04861">
        <ele>335</ele>
        <time>2020-02-07T09:43:58.000Z</time>
      </trkpt>
      <trkpt lat="44.74038" lon="5.04861">
        <ele>335</ele>
        <time>2020-02-07T09:43:59.000Z</time>
      </trkpt>
      <trkpt lat="44.74039" lon="5.04861">
        <ele>335</ele>
        <time>2020-02-07T09:44:00.000Z</time>
      </trkpt>
      <trkpt lat="44.7404" lon="5.04861">
        <ele>335</ele>
        <time>2020-02-07T09:44:01.000Z</time>
      </trkpt>
      <trkpt lat="44.74041" lon="5.04861">
        <ele>335</ele>
        <time>2020-02-07T09:44:02.000Z</time>
      </trkpt>
      <trkpt lat="44.74042" lon="5.04861">
        <ele>335</ele>
        <time>2020-02-07T09:44:03.000Z</time>
      </trkpt>
      <trkpt lat="44.74043" lon="5.04861">
        <ele>336</ele>
        <time>2020-02-07T09:44:04.000Z</time>
      </trkpt>
      <trkpt lat="44.74044" lon="5.04862">
        <ele>336</ele>
        <time>2020-02-07T09:44:05.000Z</time>
      </trkpt>
      <trkpt lat="44.74045" lon="5.04862">
        <ele>336</ele>
        <time>2020-02-07T09:44:06.000Z</time>
      </trkpt>
      <trkpt lat="44.74046" lon="5.04862">
        <ele>336</ele>
        <time>2020-02-07T09:44:07.000Z</time>
      </trkpt>
      <trkpt lat="44.74047" lon="5.04862">
        <ele>336</ele>
        <time>2020-02-07T09:44:08.000Z</time>
      </trkpt>
      <trkpt lat="44.74048" lon="5.04862">
        <ele>336</ele>
        <time>2020-02-07T09:44:09.000Z</time>
      </trkpt>
      <trkpt lat="44.74049" lon="5.04862">
        <ele>336</ele>
        <time>2020-02-07T09:44:10.000Z</time>
      </trkpt>
      <trkpt lat="44.7405" lon="5.04862">
        <ele>336</ele>
        <time>2020-02-07T09:44:11.000Z</time>
      </trkpt>
      <trkpt lat="44.74051" lon="5.04862">
        <ele>336</ele>
        <time>2020-02-07T09:44:12.000Z</time>
      </trkpt>
      <trkpt lat="44.74052" lon="5.04863">
        <ele>336</ele>
        <time>2020-02-07T09:44:13.000Z</time>
      </trkpt>
      <trkpt lat="44.74054" lon="5.04863">
        <ele>336</ele>
        <time>2020-02-07T09:44:14.000Z</time>
      </trkpt>
      <trkpt lat="44.74055" lon="5.04863">
        <ele>336</ele>
        <time>2020-02-07T09:44:15.000Z</time>
      </trkpt>
      <trkpt lat="44.74056" lon="5.04863">
        <ele>336</ele>
        <time>2020-02-07T09:44:16.000Z</time>
      </trkpt>
      <trkpt lat="44.74057" lon="5.04863">
        <ele>336</ele>
        <time>2020-02-07T09:44:17.000Z</time>
      </trkpt>
      <trkpt lat="44.74058" lon="5.04864">
        <ele>336</ele>
        <time>2020-02-07T09:44:18.000Z</time>
      </trkpt>
      <trkpt lat="44.74059" lon="5.04864">
        <ele>336</ele>
        <time>2020-02-07T09:44:19.000Z</time>
      </trkpt>
      <trkpt lat="44.74061" lon="5.04864">
        <ele>336</ele>
        <time>2020-02-07T09:44:20.000Z</time>
      </trkpt>
      <trkpt lat="44.74062" lon="5.04864">
        <ele>336</ele>
        <time>2020-02-07T09:44:21.000Z</time>
      </trkpt>
      <trkpt lat="44.74063" lon="5.04864">
        <ele>336</ele>
        <time>2020-02-07T09:44:22.000Z</time>
      </trkpt>
      <trkpt lat="44.74064" lon="5.04864">
        <ele>336</ele>
        <time>2020-02-07T09:44:23.000Z</time>
      </trkpt>
      <trkpt lat="44.74065" lon="5.04864">
        <ele>336</ele>
        <time>2020-02-07T09:44:24.000Z</time>
      </trkpt>
      <trkpt lat="44.74066" lon="5.04864">
        <ele>336</ele>
        <time>2020-02-07T09:44:25.000Z</time>
      </trkpt>
      <trkpt lat="44.74067" lon="5.04864">
        <ele>336</ele>
        <time>2020-02-07T09:44:26.000Z</time>
      </trkpt>
      <trkpt lat="44.74069" lon="5.04865">
        <ele>336</ele>
        <time>2020-02-07T09:44:27.000Z</time>
      </trkpt>
      <trkpt lat="44.7407" lon="5.04865">
        <ele>336</ele>
        <time>2020-02-07T09:44:28.000Z</time>
      </trkpt>
      <trkpt lat="44.74071" lon="5.04865">
        <ele>336</ele>
        <time>2020-02-07T09:44:29.000Z</time>
      </trkpt>
      <trkpt lat="44.74072" lon="5.04865">
        <ele>336</ele>
        <time>2020-02-07T09:44:30.000Z</time>
      </trkpt>
      <trkpt lat="44.74073" lon="5.04866">
        <ele>336</ele>
        <time>2020-02-07T09:44:31.000Z</time>
      </trkpt>
      <trkpt lat="44.74074" lon="5.04866">
        <ele>336</ele>
        <time>2020-02-07T09:44:32.000Z</time>
      </trkpt>
      <trkpt lat="44.74075" lon="5.04866">
        <ele>336</ele>
        <time>2020-02-07T09:44:33.000Z</time>
      </trkpt>
      <trkpt lat="44.74077" lon="5.04865">
        <ele>336</ele>
        <time>2020-02-07T09:44:34.000Z</time>
      </trkpt>
      <trkpt lat="44.74077" lon="5.04865">
        <ele>336</ele>
        <time>2020-02-07T09:44:35.000Z</time>
      </trkpt>
      <trkpt lat="44.74078" lon="5.04865">
        <ele>336</ele>
        <time>2020-02-07T09:44:36.000Z</time>
      </trkpt>
      <trkpt lat="44.74078" lon="5.04865">
        <ele>337</ele>
        <time>2020-02-07T09:44:37.000Z</time>
      </trkpt>
      <trkpt lat="44.74078" lon="5.04864">
        <ele>337</ele>
        <time>2020-02-07T09:44:38.000Z</time>
      </trkpt>
      <trkpt lat="44.74078" lon="5.04864">
        <ele>336</ele>
        <time>2020-02-07T09:44:39.000Z</time>
      </trkpt>
      <trkpt lat="44.74078" lon="5.04862">
        <ele>336</ele>
        <time>2020-02-07T09:44:40.000Z</time>
      </trkpt>
      <trkpt lat="44.74078" lon="5.04861">
        <ele>336</ele>
        <time>2020-02-07T09:44:41.000Z</time>
      </trkpt>
      <trkpt lat="44.74079" lon="5.0486">
        <ele>336</ele>
        <time>2020-02-07T09:44:42.000Z</time>
      </trkpt>
      <trkpt lat="44.74079" lon="5.04859">
        <ele>336</ele>
        <time>2020-02-07T09:44:43.000Z</time>
      </trkpt>
      <trkpt lat="44.7408" lon="5.04859">
        <ele>336</ele>
        <time>2020-02-07T09:44:44.000Z</time>
      </trkpt>
      <trkpt lat="44.7408" lon="5.04858">
        <ele>336</ele>
        <time>2020-02-07T09:44:45.000Z</time>
      </trkpt>
      <trkpt lat="44.74081" lon="5.04857">
        <ele>336</ele>
        <time>2020-02-07T09:44:46.000Z</time>
      </trkpt>
      <trkpt lat="44.74082" lon="5.04857">
        <ele>336</ele>
        <time>2020-02-07T09:44:47.000Z</time>
      </trkpt>
      <trkpt lat="44.74082" lon="5.04857">
        <ele>336</ele>
        <time>2020-02-07T09:44:48.000Z</time>
      </trkpt>
      <trkpt lat="44.74083" lon="5.04856">
        <ele>336</ele>
        <time>2020-02-07T09:44:49.000Z</time>
      </trkpt>
      <trkpt lat="44.74084" lon="5.04855">
        <ele>336</ele>
        <time>2020-02-07T09:44:50.000Z</time>
      </trkpt>
      <trkpt lat="44.74084" lon="5.04855">
        <ele>336</ele>
        <time>2020-02-07T09:44:51.000Z</time>
      </trkpt>
      <trkpt lat="44.74085" lon="5.04855">
        <ele>336</ele>
        <time>2020-02-07T09:44:52.000Z</time>
      </trkpt>
      <trkpt lat="44.74086" lon="5.04854">
        <ele>336</ele>
        <time>2020-02-07T09:44:53.000Z</time>
      </trkpt>
      <trkpt lat="44.74087" lon="5.04854">
        <ele>336</ele>
        <time>2020-02-07T09:44:54.000Z</time>
      </trkpt>
      <trkpt lat="44.74087" lon="5.04854">
        <ele>335</ele>
        <time>2020-02-07T09:44:55.000Z</time>
      </trkpt>
      <trkpt lat="44.74088" lon="5.04853">
        <ele>335</ele>
        <time>2020-02-07T09:44:56.000Z</time>
      </trkpt>
      <trkpt lat="44.74089" lon="5.04853">
        <ele>335</ele>
        <time>2020-02-07T09:44:57.000Z</time>
      </trkpt>
      <trkpt lat="44.7409" lon="5.04853">
        <ele>335</ele>
        <time>2020-02-07T09:44:58.000Z</time>
      </trkpt>
      <trkpt lat="44.74091" lon="5.04852">
        <ele>335</ele>
        <time>2020-02-07T09:44:59.000Z</time>
      </trkpt>
      <trkpt lat="44.74092" lon="5.04852">
        <ele>335</ele>
        <time>2020-02-07T09:45:00.000Z</time>
      </trkpt>
      <trkpt lat="44.74093" lon="5.04851">
        <ele>335</ele>
        <time>2020-02-07T09:45:01.000Z</time>
      </trkpt>
      <trkpt lat="44.74094" lon="5.04851">
        <ele>335</ele>
        <time>2020-02-07T09:45:02.000Z</time>
      </trkpt>
      <trkpt lat="44.74095" lon="5.0485">
        <ele>335</ele>
        <time>2020-02-07T09:45:03.000Z</time>
      </trkpt>
      <trkpt lat="44.74095" lon="5.04849">
        <ele>335</ele>
        <time>2020-02-07T09:45:04.000Z</time>
      </trkpt>
      <trkpt lat="44.74096" lon="5.04848">
        <ele>336</ele>
        <time>2020-02-07T09:45:05.000Z</time>
      </trkpt>
      <trkpt lat="44.74097" lon="5.04847">
        <ele>336</ele>
        <time>2020-02-07T09:45:06.000Z</time>
      </trkpt>
      <trkpt lat="44.74098" lon="5.04846">
        <ele>336</ele>
        <time>2020-02-07T09:45:07.000Z</time>
      </trkpt>
      <trkpt lat="44.74099" lon="5.04846">
        <ele>336</ele>
        <time>2020-02-07T09:45:08.000Z</time>
      </trkpt>
      <trkpt lat="44.741" lon="5.04845">
        <ele>336</ele>
        <time>2020-02-07T09:45:09.000Z</time>
      </trkpt>
      <trkpt lat="44.741" lon="5.04845">
        <ele>336</ele>
        <time>2020-02-07T09:45:10.000Z</time>
      </trkpt>
      <trkpt lat="44.74101" lon="5.04844">
        <ele>336</ele>
        <time>2020-02-07T09:45:11.000Z</time>
      </trkpt>
      <trkpt lat="44.74101" lon="5.04844">
        <ele>336</ele>
        <time>2020-02-07T09:45:12.000Z</time>
      </trkpt>
      <trkpt lat="44.74102" lon="5.04843">
        <ele>336</ele>
        <time>2020-02-07T09:45:13.000Z</time>
      </trkpt>
      <trkpt lat="44.74103" lon="5.04842">
        <ele>336</ele>
        <time>2020-02-07T09:45:14.000Z</time>
      </trkpt>
      <trkpt lat="44.74103" lon="5.04842">
        <ele>336</ele>
        <time>2020-02-07T09:45:15.000Z</time>
      </trkpt>
      <trkpt lat="44.74104" lon="5.04841">
        <ele>336</ele>
        <time>2020-02-07T09:45:16.000Z</time>
      </trkpt>
      <trkpt lat="44.74105" lon="5.0484">
        <ele>337</ele>
        <time>2020-02-07T09:45:17.000Z</time>
      </trkpt>
      <trkpt lat="44.74105" lon="5.0484">
        <ele>337</ele>
        <time>2020-02-07T09:45:18.000Z</time>
      </trkpt>
      <trkpt lat="44.74106" lon="5.0484">
        <ele>337</ele>
        <time>2020-02-07T09:45:19.000Z</time>
      </trkpt>
      <trkpt lat="44.74107" lon="5.04839">
        <ele>337</ele>
        <time>2020-02-07T09:45:20.000Z</time>
      </trkpt>
      <trkpt lat="44.74107" lon="5.04838">
        <ele>337</ele>
        <time>2020-02-07T09:45:21.000Z</time>
      </trkpt>
      <trkpt lat="44.74108" lon="5.04838">
        <ele>337</ele>
        <time>2020-02-07T09:45:22.000Z</time>
      </trkpt>
      <trkpt lat="44.74108" lon="5.04837">
        <ele>338</ele>
        <time>2020-02-07T09:45:23.000Z</time>
      </trkpt>
      <trkpt lat="44.74109" lon="5.04837">
        <ele>338</ele>
        <time>2020-02-07T09:45:24.000Z</time>
      </trkpt>
      <trkpt lat="44.7411" lon="5.04836">
        <ele>338</ele>
        <time>2020-02-07T09:45:25.000Z</time>
      </trkpt>
      <trkpt lat="44.74111" lon="5.04836">
        <ele>338</ele>
        <time>2020-02-07T09:45:26.000Z</time>
      </trkpt>
      <trkpt lat="44.74112" lon="5.04835">
        <ele>338</ele>
        <time>2020-02-07T09:45:27.000Z</time>
      </trkpt>
      <trkpt lat="44.74113" lon="5.04835">
        <ele>338</ele>
        <time>2020-02-07T09:45:28.000Z</time>
      </trkpt>
      <trkpt lat="44.74114" lon="5.04835">
        <ele>339</ele>
        <time>2020-02-07T09:45:29.000Z</time>
      </trkpt>
      <trkpt lat="44.74115" lon="5.04834">
        <ele>339</ele>
        <time>2020-02-07T09:45:30.000Z</time>
      </trkpt>
      <trkpt lat="44.74115" lon="5.04833">
        <ele>339</ele>
        <time>2020-02-07T09:45:31.000Z</time>
      </trkpt>
      <trkpt lat="44.74116" lon="5.04833">
        <ele>339</ele>
        <time>2020-02-07T09:45:32.000Z</time>
      </trkpt>
      <trkpt lat="44.74117" lon="5.04832">
        <ele>339</ele>
        <time>2020-02-07T09:45:33.000Z</time>
      </trkpt>
      <trkpt lat="44.74118" lon="5.04832">
        <ele>340</ele>
        <time>2020-02-07T09:45:34.000Z</time>
      </trkpt>
      <trkpt lat="44.74119" lon="5.04831">
        <ele>340</ele>
        <time>2020-02-07T09:45:35.000Z</time>
      </trkpt>
      <trkpt lat="44.74119" lon="5.04831">
        <ele>340</ele>
        <time>2020-02-07T09:45:36.000Z</time>
      </trkpt>
      <trkpt lat="44.7412" lon="5.0483">
        <ele>340</ele>
        <time>2020-02-07T09:45:37.000Z</time>
      </trkpt>
      <trkpt lat="44.74121" lon="5.04829">
        <ele>340</ele>
        <time>2020-02-07T09:45:38.000Z</time>
      </trkpt>
      <trkpt lat="44.74122" lon="5.04828">
        <ele>340</ele>
        <time>2020-02-07T09:45:39.000Z</time>
      </trkpt>
      <trkpt lat="44.74123" lon="5.04827">
        <ele>340</ele>
        <time>2020-02-07T09:45:40.000Z</time>
      </trkpt>
      <trkpt lat="44.74124" lon="5.04827">
        <ele>340</ele>
        <time>2020-02-07T09:45:41.000Z</time>
      </trkpt>
      <trkpt lat="44.74125" lon="5.04827">
        <ele>341</ele>
        <time>2020-02-07T09:45:42.000Z</time>
      </trkpt>
      <trkpt lat="44.74126" lon="5.04827">
        <ele>341</ele>
        <time>2020-02-07T09:45:43.000Z</time>
      </trkpt>
      <trkpt lat="44.74126" lon="5.04826">
        <ele>341</ele>
        <time>2020-02-07T09:45:44.000Z</time>
      </trkpt>
      <trkpt lat="44.74127" lon="5.04826">
        <ele>341</ele>
        <time>2020-02-07T09:45:45.000Z</time>
      </trkpt>
      <trkpt lat="44.74128" lon="5.04825">
        <ele>341</ele>
        <time>2020-02-07T09:45:46.000Z</time>
      </trkpt>
      <trkpt lat="44.74129" lon="5.04825">
        <ele>341</ele>
        <time>2020-02-07T09:45:47.000Z</time>
      </trkpt>
      <trkpt lat="44.74129" lon="5.04825">
        <ele>341</ele>
        <time>2020-02-07T09:45:48.000Z</time>
      </trkpt>
      <trkpt lat="44.7413" lon="5.04824">
        <ele>341</ele>
        <time>2020-02-07T09:45:49.000Z</time>
      </trkpt>
      <trkpt lat="44.74131" lon="5.04823">
        <ele>341</ele>
        <time>2020-02-07T09:45:50.000Z</time>
      </trkpt>
      <trkpt lat="44.74133" lon="5.04822">
        <ele>341</ele>
        <time>2020-02-07T09:45:51.000Z</time>
      </trkpt>
      <trkpt lat="44.74134" lon="5.04822">
        <ele>341</ele>
        <time>2020-02-07T09:45:52.000Z</time>
      </trkpt>
      <trkpt lat="44.74134" lon="5.04821">
        <ele>341</ele>
        <time>2020-02-07T09:45:53.000Z</time>
      </trkpt>
      <trkpt lat="44.74136" lon="5.04821">
        <ele>341</ele>
        <time>2020-02-07T09:45:54.000Z</time>
      </trkpt>
      <trkpt lat="44.74136" lon="5.0482">
        <ele>341</ele>
        <time>2020-02-07T09:45:55.000Z</time>
      </trkpt>
      <trkpt lat="44.74137" lon="5.04819">
        <ele>341</ele>
        <time>2020-02-07T09:45:56.000Z</time>
      </trkpt>
      <trkpt lat="44.74138" lon="5.04819">
        <ele>341</ele>
        <time>2020-02-07T09:45:57.000Z</time>
      </trkpt>
      <trkpt lat="44.74139" lon="5.04819">
        <ele>342</ele>
        <time>2020-02-07T09:45:58.000Z</time>
      </trkpt>
      <trkpt lat="44.7414" lon="5.04819">
        <ele>342</ele>
        <time>2020-02-07T09:45:59.000Z</time>
      </trkpt>
      <trkpt lat="44.7414" lon="5.04818">
        <ele>342</ele>
        <time>2020-02-07T09:46:00.000Z</time>
      </trkpt>
      <trkpt lat="44.74141" lon="5.04817">
        <ele>342</ele>
        <time>2020-02-07T09:46:01.000Z</time>
      </trkpt>
      <trkpt lat="44.74142" lon="5.04817">
        <ele>342</ele>
        <time>2020-02-07T09:46:02.000Z</time>
      </trkpt>
      <trkpt lat="44.74143" lon="5.04816">
        <ele>342</ele>
        <time>2020-02-07T09:46:03.000Z</time>
      </trkpt>
      <trkpt lat="44.74143" lon="5.04815">
        <ele>341</ele>
        <time>2020-02-07T09:46:04.000Z</time>
      </trkpt>
      <trkpt lat="44.74144" lon="5.04815">
        <ele>341</ele>
        <time>2020-02-07T09:46:05.000Z</time>
      </trkpt>
      <trkpt lat="44.74145" lon="5.04814">
        <ele>341</ele>
        <time>2020-02-07T09:46:06.000Z</time>
      </trkpt>
      <trkpt lat="44.74145" lon="5.04814">
        <ele>341</ele>
        <time>2020-02-07T09:46:07.000Z</time>
      </trkpt>
      <trkpt lat="44.74146" lon="5.04813">
        <ele>342</ele>
        <time>2020-02-07T09:46:08.000Z</time>
      </trkpt>
      <trkpt lat="44.74147" lon="5.04813">
        <ele>342</ele>
        <time>2020-02-07T09:46:09.000Z</time>
      </trkpt>
      <trkpt lat="44.74147" lon="5.04813">
        <ele>342</ele>
        <time>2020-02-07T09:46:10.000Z</time>
      </trkpt>
      <trkpt lat="44.74148" lon="5.04812">
        <ele>342</ele>
        <time>2020-02-07T09:46:11.000Z</time>
      </trkpt>
      <trkpt lat="44.74149" lon="5.04811">
        <ele>342</ele>
        <time>2020-02-07T09:46:12.000Z</time>
      </trkpt>
      <trkpt lat="44.7415" lon="5.0481">
        <ele>343</ele>
        <time>2020-02-07T09:46:13.000Z</time>
      </trkpt>
      <trkpt lat="44.74151" lon="5.0481">
        <ele>343</ele>
        <time>2020-02-07T09:46:14.000Z</time>
      </trkpt>
      <trkpt lat="44.74152" lon="5.04808">
        <ele>343</ele>
        <time>2020-02-07T09:46:15.000Z</time>
      </trkpt>
      <trkpt lat="44.74153" lon="5.04808">
        <ele>343</ele>
        <time>2020-02-07T09:46:16.000Z</time>
      </trkpt>
      <trkpt lat="44.74154" lon="5.04807">
        <ele>343</ele>
        <time>2020-02-07T09:46:17.000Z</time>
      </trkpt>
      <trkpt lat="44.74154" lon="5.04807">
        <ele>343</ele>
        <time>2020-02-07T09:46:18.000Z</time>
      </trkpt>
      <trkpt lat="44.74154" lon="5.04807">
        <ele>343</ele>
        <time>2020-02-07T09:46:19.000Z</time>
      </trkpt>
      <trkpt lat="44.74155" lon="5.04807">
        <ele>344</ele>
        <time>2020-02-07T09:46:20.000Z</time>
      </trkpt>
      <trkpt lat="44.74155" lon="5.04806">
        <ele>344</ele>
        <time>2020-02-07T09:46:21.000Z</time>
      </trkpt>
      <trkpt lat="44.74156" lon="5.04806">
        <ele>344</ele>
        <time>2020-02-07T09:46:22.000Z</time>
      </trkpt>
      <trkpt lat="44.74157" lon="5.04805">
        <ele>344</ele>
        <time>2020-02-07T09:46:23.000Z</time>
      </trkpt>
      <trkpt lat="44.74158" lon="5.04804">
        <ele>344</ele>
        <time>2020-02-07T09:46:24.000Z</time>
      </trkpt>
      <trkpt lat="44.74159" lon="5.04803">
        <ele>344</ele>
        <time>2020-02-07T09:46:25.000Z</time>
      </trkpt>
      <trkpt lat="44.7416" lon="5.04802">
        <ele>345</ele>
        <time>2020-02-07T09:46:26.000Z</time>
      </trkpt>
      <trkpt lat="44.74161" lon="5.04801">
        <ele>345</ele>
        <time>2020-02-07T09:46:27.000Z</time>
      </trkpt>
      <trkpt lat="44.74161" lon="5.048">
        <ele>345</ele>
        <time>2020-02-07T09:46:28.000Z</time>
      </trkpt>
      <trkpt lat="44.74162" lon="5.048">
        <ele>345</ele>
        <time>2020-02-07T09:46:29.000Z</time>
      </trkpt>
      <trkpt lat="44.74163" lon="5.04799">
        <ele>345</ele>
        <time>2020-02-07T09:46:30.000Z</time>
      </trkpt>
      <trkpt lat="44.74164" lon="5.04798">
        <ele>345</ele>
        <time>2020-02-07T09:46:31.000Z</time>
      </trkpt>
      <trkpt lat="44.74165" lon="5.04797">
        <ele>346</ele>
        <time>2020-02-07T09:46:32.000Z</time>
      </trkpt>
      <trkpt lat="44.74165" lon="5.04796">
        <ele>346</ele>
        <time>2020-02-07T09:46:33.000Z</time>
      </trkpt>
      <trkpt lat="44.74166" lon="5.04796">
        <ele>346</ele>
        <time>2020-02-07T09:46:34.000Z</time>
      </trkpt>
      <trkpt lat="44.74167" lon="5.04795">
        <ele>346</ele>
        <time>2020-02-07T09:46:35.000Z</time>
      </trkpt>
      <trkpt lat="44.74168" lon="5.04794">
        <ele>346</ele>
        <time>2020-02-07T09:46:36.000Z</time>
      </trkpt>
      <trkpt lat="44.74169" lon="5.04793">
        <ele>346</ele>
        <time>2020-02-07T09:46:37.000Z</time>
      </trkpt>
      <trkpt lat="44.7417" lon="5.04792">
        <ele>347</ele>
        <time>2020-02-07T09:46:38.000Z</time>
      </trkpt>
      <trkpt lat="44.74171" lon="5.04791">
        <ele>347</ele>
        <time>2020-02-07T09:46:39.000Z</time>
      </trkpt>
      <trkpt lat="44.74172" lon="5.0479">
        <ele>347</ele>
        <time>2020-02-07T09:46:40.000Z</time>
      </trkpt>
      <trkpt lat="44.74172" lon="5.04789">
        <ele>346</ele>
        <time>2020-02-07T09:46:41.000Z</time>
      </trkpt>
      <trkpt lat="44.74173" lon="5.04788">
        <ele>346</ele>
        <time>2020-02-07T09:46:42.000Z</time>
      </trkpt>
      <trkpt lat="44.74174" lon="5.04787">
        <ele>346</ele>
        <time>2020-02-07T09:46:43.000Z</time>
      </trkpt>
      <trkpt lat="44.74175" lon="5.04786">
        <ele>346</ele>
        <time>2020-02-07T09:46:44.000Z</time>
      </trkpt>
      <trkpt lat="44.74176" lon="5.04785">
        <ele>346</ele>
        <time>2020-02-07T09:46:45.000Z</time>
      </trkpt>
      <trkpt lat="44.74177" lon="5.04784">
        <ele>346</ele>
        <time>2020-02-07T09:46:46.000Z</time>
      </trkpt>
      <trkpt lat="44.74177" lon="5.04784">
        <ele>346</ele>
        <time>2020-02-07T09:46:47.000Z</time>
      </trkpt>
      <trkpt lat="44.74178" lon="5.04783">
        <ele>346</ele>
        <time>2020-02-07T09:46:48.000Z</time>
      </trkpt>
      <trkpt lat="44.74179" lon="5.04782">
        <ele>346</ele>
        <time>2020-02-07T09:46:49.000Z</time>
      </trkpt>
      <trkpt lat="44.74179" lon="5.04781">
        <ele>347</ele>
        <time>2020-02-07T09:46:50.000Z</time>
      </trkpt>
      <trkpt lat="44.7418" lon="5.0478">
        <ele>347</ele>
        <time>2020-02-07T09:46:51.000Z</time>
      </trkpt>
      <trkpt lat="44.7418" lon="5.04779">
        <ele>347</ele>
        <time>2020-02-07T09:46:52.000Z</time>
      </trkpt>
      <trkpt lat="44.74181" lon="5.04779">
        <ele>347</ele>
        <time>2020-02-07T09:46:53.000Z</time>
      </trkpt>
      <trkpt lat="44.74181" lon="5.04778">
        <ele>347</ele>
        <time>2020-02-07T09:46:54.000Z</time>
      </trkpt>
      <trkpt lat="44.74182" lon="5.04777">
        <ele>347</ele>
        <time>2020-02-07T09:46:55.000Z</time>
      </trkpt>
      <trkpt lat="44.74183" lon="5.04776">
        <ele>347</ele>
        <time>2020-02-07T09:46:56.000Z</time>
      </trkpt>
      <trkpt lat="44.74183" lon="5.04776">
        <ele>347</ele>
        <time>2020-02-07T09:46:57.000Z</time>
      </trkpt>
      <trkpt lat="44.74184" lon="5.04775">
        <ele>347</ele>
        <time>2020-02-07T09:46:58.000Z</time>
      </trkpt>
      <trkpt lat="44.74184" lon="5.04775">
        <ele>347</ele>
        <time>2020-02-07T09:46:59.000Z</time>
      </trkpt>
      <trkpt lat="44.74184" lon="5.04774">
        <ele>347</ele>
        <time>2020-02-07T09:47:00.000Z</time>
      </trkpt>
      <trkpt lat="44.74185" lon="5.04773">
        <ele>347</ele>
        <time>2020-02-07T09:47:01.000Z</time>
      </trkpt>
      <trkpt lat="44.74185" lon="5.04772">
        <ele>347</ele>
        <time>2020-02-07T09:47:02.000Z</time>
      </trkpt>
      <trkpt lat="44.74185" lon="5.04771">
        <ele>347</ele>
        <time>2020-02-07T09:47:03.000Z</time>
      </trkpt>
      <trkpt lat="44.74186" lon="5.0477">
        <ele>347</ele>
        <time>2020-02-07T09:47:04.000Z</time>
      </trkpt>
      <trkpt lat="44.74186" lon="5.04768">
        <ele>347</ele>
        <time>2020-02-07T09:47:05.000Z</time>
      </trkpt>
      <trkpt lat="44.74186" lon="5.04767">
        <ele>347</ele>
        <time>2020-02-07T09:47:06.000Z</time>
      </trkpt>
      <trkpt lat="44.74187" lon="5.04767">
        <ele>347</ele>
        <time>2020-02-07T09:47:07.000Z</time>
      </trkpt>
      <trkpt lat="44.74187" lon="5.04766">
        <ele>348</ele>
        <time>2020-02-07T09:47:08.000Z</time>
      </trkpt>
      <trkpt lat="44.74188" lon="5.04765">
        <ele>348</ele>
        <time>2020-02-07T09:47:09.000Z</time>
      </trkpt>
      <trkpt lat="44.74188" lon="5.04764">
        <ele>348</ele>
        <time>2020-02-07T09:47:10.000Z</time>
      </trkpt>
      <trkpt lat="44.74189" lon="5.04763">
        <ele>348</ele>
        <time>2020-02-07T09:47:11.000Z</time>
      </trkpt>
      <trkpt lat="44.74189" lon="5.04763">
        <ele>349</ele>
        <time>2020-02-07T09:47:12.000Z</time>
      </trkpt>
      <trkpt lat="44.7419" lon="5.04762">
        <ele>349</ele>
        <time>2020-02-07T09:47:13.000Z</time>
      </trkpt>
      <trkpt lat="44.7419" lon="5.04761">
        <ele>349</ele>
        <time>2020-02-07T09:47:14.000Z</time>
      </trkpt>
      <trkpt lat="44.74191" lon="5.04761">
        <ele>349</ele>
        <time>2020-02-07T09:47:15.000Z</time>
      </trkpt>
      <trkpt lat="44.74191" lon="5.0476">
        <ele>349</ele>
        <time>2020-02-07T09:47:16.000Z</time>
      </trkpt>
      <trkpt lat="44.74192" lon="5.0476">
        <ele>349</ele>
        <time>2020-02-07T09:47:17.000Z</time>
      </trkpt>
      <trkpt lat="44.74192" lon="5.04759">
        <ele>350</ele>
        <time>2020-02-07T09:47:18.000Z</time>
      </trkpt>
      <trkpt lat="44.74193" lon="5.04759">
        <ele>350</ele>
        <time>2020-02-07T09:47:19.000Z</time>
      </trkpt>
      <trkpt lat="44.74193" lon="5.04758">
        <ele>350</ele>
        <time>2020-02-07T09:47:20.000Z</time>
      </trkpt>
      <trkpt lat="44.74194" lon="5.04758">
        <ele>350</ele>
        <time>2020-02-07T09:47:21.000Z</time>
      </trkpt>
      <trkpt lat="44.74194" lon="5.04757">
        <ele>350</ele>
        <time>2020-02-07T09:47:22.000Z</time>
      </trkpt>
      <trkpt lat="44.74195" lon="5.04757">
        <ele>350</ele>
        <time>2020-02-07T09:47:23.000Z</time>
      </trkpt>
      <trkpt lat="44.74195" lon="5.04756">
        <ele>351</ele>
        <time>2020-02-07T09:47:24.000Z</time>
      </trkpt>
      <trkpt lat="44.74196" lon="5.04756">
        <ele>351</ele>
        <time>2020-02-07T09:47:25.000Z</time>
      </trkpt>
      <trkpt lat="44.74196" lon="5.04755">
        <ele>351</ele>
        <time>2020-02-07T09:47:26.000Z</time>
      </trkpt>
      <trkpt lat="44.74197" lon="5.04754">
        <ele>351</ele>
        <time>2020-02-07T09:47:27.000Z</time>
      </trkpt>
      <trkpt lat="44.74197" lon="5.04754">
        <ele>351</ele>
        <time>2020-02-07T09:47:28.000Z</time>
      </trkpt>
      <trkpt lat="44.74197" lon="5.04753">
        <ele>351</ele>
        <time>2020-02-07T09:47:29.000Z</time>
      </trkpt>
      <trkpt lat="44.74198" lon="5.04752">
        <ele>351</ele>
        <time>2020-02-07T09:47:30.000Z</time>
      </trkpt>
      <trkpt lat="44.74198" lon="5.04752">
        <ele>352</ele>
        <time>2020-02-07T09:47:31.000Z</time>
      </trkpt>
      <trkpt lat="44.74199" lon="5.04751">
        <ele>352</ele>
        <time>2020-02-07T09:47:32.000Z</time>
      </trkpt>
      <trkpt lat="44.74199" lon="5.04751">
        <ele>352</ele>
        <time>2020-02-07T09:47:33.000Z</time>
      </trkpt>
      <trkpt lat="44.742" lon="5.0475">
        <ele>352</ele>
        <time>2020-02-07T09:47:34.000Z</time>
      </trkpt>
      <trkpt lat="44.742" lon="5.0475">
        <ele>352</ele>
        <time>2020-02-07T09:47:35.000Z</time>
      </trkpt>
      <trkpt lat="44.74201" lon="5.04749">
        <ele>352</ele>
        <time>2020-02-07T09:47:36.000Z</time>
      </trkpt>
      <trkpt lat="44.74201" lon="5.04749">
        <ele>352</ele>
        <time>2020-02-07T09:47:37.000Z</time>
      </trkpt>
      <trkpt lat="44.74202" lon="5.04749">
        <ele>352</ele>
        <time>2020-02-07T09:47:38.000Z</time>
      </trkpt>
      <trkpt lat="44.74202" lon="5.04748">
        <ele>353</ele>
        <time>2020-02-07T09:47:39.000Z</time>
      </trkpt>
      <trkpt lat="44.74203" lon="5.04747">
        <ele>353</ele>
        <time>2020-02-07T09:47:40.000Z</time>
      </trkpt>
      <trkpt lat="44.74203" lon="5.04747">
        <ele>353</ele>
        <time>2020-02-07T09:47:41.000Z</time>
      </trkpt>
      <trkpt lat="44.74203" lon="5.04746">
        <ele>353</ele>
        <time>2020-02-07T09:47:42.000Z</time>
      </trkpt>
      <trkpt lat="44.74204" lon="5.04746">
        <ele>353</ele>
        <time>2020-02-07T09:47:43.000Z</time>
      </trkpt>
      <trkpt lat="44.74204" lon="5.04746">
        <ele>353</ele>
        <time>2020-02-07T09:47:44.000Z</time>
      </trkpt>
      <trkpt lat="44.74205" lon="5.04745">
        <ele>353</ele>
        <time>2020-02-07T09:47:45.000Z</time>
      </trkpt>
      <trkpt lat="44.74205" lon="5.04745">
        <ele>353</ele>
        <time>2020-02-07T09:47:46.000Z</time>
      </trkpt>
      <trkpt lat="44.74206" lon="5.04744">
        <ele>353</ele>
        <time>2020-02-07T09:47:47.000Z</time>
      </trkpt>
      <trkpt lat="44.74206" lon="5.04743">
        <ele>354</ele>
        <time>2020-02-07T09:47:48.000Z</time>
      </trkpt>
      <trkpt lat="44.74206" lon="5.04742">
        <ele>354</ele>
        <time>2020-02-07T09:47:49.000Z</time>
      </trkpt>
      <trkpt lat="44.74207" lon="5.04742">
        <ele>354</ele>
        <time>2020-02-07T09:47:50.000Z</time>
      </trkpt>
      <trkpt lat="44.74207" lon="5.04741">
        <ele>354</ele>
        <time>2020-02-07T09:47:51.000Z</time>
      </trkpt>
      <trkpt lat="44.74208" lon="5.0474">
        <ele>354</ele>
        <time>2020-02-07T09:47:52.000Z</time>
      </trkpt>
      <trkpt lat="44.74208" lon="5.0474">
        <ele>354</ele>
        <time>2020-02-07T09:47:53.000Z</time>
      </trkpt>
      <trkpt lat="44.74209" lon="5.04739">
        <ele>355</ele>
        <time>2020-02-07T09:47:54.000Z</time>
      </trkpt>
      <trkpt lat="44.74209" lon="5.04739">
        <ele>355</ele>
        <time>2020-02-07T09:47:55.000Z</time>
      </trkpt>
      <trkpt lat="44.7421" lon="5.04738">
        <ele>355</ele>
        <time>2020-02-07T09:47:56.000Z</time>
      </trkpt>
      <trkpt lat="44.74211" lon="5.04738">
        <ele>355</ele>
        <time>2020-02-07T09:47:57.000Z</time>
      </trkpt>
      <trkpt lat="44.74211" lon="5.04738">
        <ele>355</ele>
        <time>2020-02-07T09:47:58.000Z</time>
      </trkpt>
      <trkpt lat="44.74212" lon="5.04737">
        <ele>355</ele>
        <time>2020-02-07T09:47:59.000Z</time>
      </trkpt>
      <trkpt lat="44.74212" lon="5.04737">
        <ele>356</ele>
        <time>2020-02-07T09:48:00.000Z</time>
      </trkpt>
      <trkpt lat="44.74213" lon="5.04736">
        <ele>356</ele>
        <time>2020-02-07T09:48:01.000Z</time>
      </trkpt>
      <trkpt lat="44.74213" lon="5.04736">
        <ele>356</ele>
        <time>2020-02-07T09:48:02.000Z</time>
      </trkpt>
      <trkpt lat="44.74214" lon="5.04735">
        <ele>356</ele>
        <time>2020-02-07T09:48:03.000Z</time>
      </trkpt>
      <trkpt lat="44.74214" lon="5.04735">
        <ele>356</ele>
        <time>2020-02-07T09:48:04.000Z</time>
      </trkpt>
      <trkpt lat="44.74214" lon="5.04734">
        <ele>356</ele>
        <time>2020-02-07T09:48:05.000Z</time>
      </trkpt>
      <trkpt lat="44.74215" lon="5.04733">
        <ele>356</ele>
        <time>2020-02-07T09:48:06.000Z</time>
      </trkpt>
      <trkpt lat="44.74215" lon="5.04732">
        <ele>357</ele>
        <time>2020-02-07T09:48:07.000Z</time>
      </trkpt>
      <trkpt lat="44.74216" lon="5.04732">
        <ele>357</ele>
        <time>2020-02-07T09:48:08.000Z</time>
      </trkpt>
      <trkpt lat="44.74216" lon="5.04731">
        <ele>357</ele>
        <time>2020-02-07T09:48:09.000Z</time>
      </trkpt>
      <trkpt lat="44.74217" lon="5.0473">
        <ele>357</ele>
        <time>2020-02-07T09:48:10.000Z</time>
      </trkpt>
      <trkpt lat="44.74218" lon="5.0473">
        <ele>358</ele>
        <time>2020-02-07T09:48:11.000Z</time>
      </trkpt>
      <trkpt lat="44.74218" lon="5.04729">
        <ele>358</ele>
        <time>2020-02-07T09:48:12.000Z</time>
      </trkpt>
      <trkpt lat="44.74219" lon="5.04729">
        <ele>358</ele>
        <time>2020-02-07T09:48:13.000Z</time>
      </trkpt>
      <trkpt lat="44.74219" lon="5.04728">
        <ele>358</ele>
        <time>2020-02-07T09:48:14.000Z</time>
      </trkpt>
      <trkpt lat="44.7422" lon="5.04728">
        <ele>358</ele>
        <time>2020-02-07T09:48:15.000Z</time>
      </trkpt>
      <trkpt lat="44.74221" lon="5.04728">
        <ele>358</ele>
        <time>2020-02-07T09:48:16.000Z</time>
      </trkpt>
      <trkpt lat="44.74222" lon="5.04727">
        <ele>359</ele>
        <time>2020-02-07T09:48:17.000Z</time>
      </trkpt>
      <trkpt lat="44.74222" lon="5.04727">
        <ele>359</ele>
        <time>2020-02-07T09:48:18.000Z</time>
      </trkpt>
      <trkpt lat="44.74223" lon="5.04727">
        <ele>359</ele>
        <time>2020-02-07T09:48:19.000Z</time>
      </trkpt>
      <trkpt lat="44.74223" lon="5.04726">
        <ele>359</ele>
        <time>2020-02-07T09:48:20.000Z</time>
      </trkpt>
      <trkpt lat="44.74224" lon="5.04726">
        <ele>359</ele>
        <time>2020-02-07T09:48:21.000Z</time>
      </trkpt>
      <trkpt lat="44.74224" lon="5.04726">
        <ele>360</ele>
        <time>2020-02-07T09:48:22.000Z</time>
      </trkpt>
      <trkpt lat="44.74225" lon="5.04725">
        <ele>360</ele>
        <time>2020-02-07T09:48:23.000Z</time>
      </trkpt>
      <trkpt lat="44.74226" lon="5.04724">
        <ele>360</ele>
        <time>2020-02-07T09:48:24.000Z</time>
      </trkpt>
      <trkpt lat="44.74226" lon="5.04724">
        <ele>361</ele>
        <time>2020-02-07T09:48:25.000Z</time>
      </trkpt>
      <trkpt lat="44.74227" lon="5.04723">
        <ele>361</ele>
        <time>2020-02-07T09:48:26.000Z</time>
      </trkpt>
      <trkpt lat="44.74228" lon="5.04723">
        <ele>361</ele>
        <time>2020-02-07T09:48:27.000Z</time>
      </trkpt>
      <trkpt lat="44.74228" lon="5.04723">
        <ele>361</ele>
        <time>2020-02-07T09:48:28.000Z</time>
      </trkpt>
      <trkpt lat="44.74229" lon="5.04723">
        <ele>362</ele>
        <time>2020-02-07T09:48:29.000Z</time>
      </trkpt>
      <trkpt lat="44.7423" lon="5.04722">
        <ele>362</ele>
        <time>2020-02-07T09:48:30.000Z</time>
      </trkpt>
      <trkpt lat="44.7423" lon="5.04722">
        <ele>362</ele>
        <time>2020-02-07T09:48:31.000Z</time>
      </trkpt>
      <trkpt lat="44.74231" lon="5.04722">
        <ele>362</ele>
        <time>2020-02-07T09:48:32.000Z</time>
      </trkpt>
      <trkpt lat="44.74232" lon="5.04721">
        <ele>363</ele>
        <time>2020-02-07T09:48:33.000Z</time>
      </trkpt>
      <trkpt lat="44.74232" lon="5.04721">
        <ele>363</ele>
        <time>2020-02-07T09:48:34.000Z</time>
      </trkpt>
      <trkpt lat="44.74233" lon="5.04721">
        <ele>363</ele>
        <time>2020-02-07T09:48:35.000Z</time>
      </trkpt>
      <trkpt lat="44.74233" lon="5.04721">
        <ele>363</ele>
        <time>2020-02-07T09:48:36.000Z</time>
      </trkpt>
      <trkpt lat="44.74233" lon="5.04721">
        <ele>364</ele>
        <time>2020-02-07T09:48:37.000Z</time>
      </trkpt>
      <trkpt lat="44.74233" lon="5.0472">
        <ele>364</ele>
        <time>2020-02-07T09:48:38.000Z</time>
      </trkpt>
      <trkpt lat="44.74233" lon="5.0472">
        <ele>364</ele>
        <time>2020-02-07T09:48:39.000Z</time>
      </trkpt>
      <trkpt lat="44.74234" lon="5.0472">
        <ele>364</ele>
        <time>2020-02-07T09:48:40.000Z</time>
      </trkpt>
      <trkpt lat="44.74235" lon="5.0472">
        <ele>365</ele>
        <time>2020-02-07T09:48:41.000Z</time>
      </trkpt>
      <trkpt lat="44.74235" lon="5.0472">
        <ele>365</ele>
        <time>2020-02-07T09:48:42.000Z</time>
      </trkpt>
      <trkpt lat="44.74236" lon="5.0472">
        <ele>365</ele>
        <time>2020-02-07T09:48:43.000Z</time>
      </trkpt>
      <trkpt lat="44.74237" lon="5.0472">
        <ele>365</ele>
        <time>2020-02-07T09:48:44.000Z</time>
      </trkpt>
      <trkpt lat="44.74237" lon="5.0472">
        <ele>365</ele>
        <time>2020-02-07T09:48:45.000Z</time>
      </trkpt>
      <trkpt lat="44.74238" lon="5.0472">
        <ele>365</ele>
        <time>2020-02-07T09:48:46.000Z</time>
      </trkpt>
      <trkpt lat="44.74238" lon="5.04719">
        <ele>365</ele>
        <time>2020-02-07T09:48:47.000Z</time>
      </trkpt>
      <trkpt lat="44.74239" lon="5.04719">
        <ele>366</ele>
        <time>2020-02-07T09:48:48.000Z</time>
      </trkpt>
      <trkpt lat="44.74239" lon="5.04718">
        <ele>366</ele>
        <time>2020-02-07T09:48:49.000Z</time>
      </trkpt>
      <trkpt lat="44.7424" lon="5.04718">
        <ele>366</ele>
        <time>2020-02-07T09:48:50.000Z</time>
      </trkpt>
      <trkpt lat="44.74241" lon="5.04717">
        <ele>366</ele>
        <time>2020-02-07T09:48:51.000Z</time>
      </trkpt>
      <trkpt lat="44.74241" lon="5.04717">
        <ele>367</ele>
        <time>2020-02-07T09:48:52.000Z</time>
      </trkpt>
      <trkpt lat="44.74242" lon="5.04718">
        <ele>367</ele>
        <time>2020-02-07T09:48:53.000Z</time>
      </trkpt>
      <trkpt lat="44.74243" lon="5.04718">
        <ele>367</ele>
        <time>2020-02-07T09:48:54.000Z</time>
      </trkpt>
      <trkpt lat="44.74243" lon="5.04718">
        <ele>367</ele>
        <time>2020-02-07T09:48:55.000Z</time>
      </trkpt>
      <trkpt lat="44.74245" lon="5.04719">
        <ele>367</ele>
        <time>2020-02-07T09:48:56.000Z</time>
      </trkpt>
      <trkpt lat="44.74245" lon="5.04719">
        <ele>368</ele>
        <time>2020-02-07T09:48:57.000Z</time>
      </trkpt>
      <trkpt lat="44.74246" lon="5.04719">
        <ele>368</ele>
        <time>2020-02-07T09:48:58.000Z</time>
      </trkpt>
      <trkpt lat="44.74247" lon="5.0472">
        <ele>368</ele>
        <time>2020-02-07T09:48:59.000Z</time>
      </trkpt>
      <trkpt lat="44.74248" lon="5.0472">
        <ele>369</ele>
        <time>2020-02-07T09:49:00.000Z</time>
      </trkpt>
      <trkpt lat="44.74249" lon="5.04721">
        <ele>369</ele>
        <time>2020-02-07T09:49:01.000Z</time>
      </trkpt>
      <trkpt lat="44.7425" lon="5.04722">
        <ele>369</ele>
        <time>2020-02-07T09:49:02.000Z</time>
      </trkpt>
      <trkpt lat="44.74251" lon="5.04723">
        <ele>369</ele>
        <time>2020-02-07T09:49:03.000Z</time>
      </trkpt>
      <trkpt lat="44.74251" lon="5.04723">
        <ele>370</ele>
        <time>2020-02-07T09:49:04.000Z</time>
      </trkpt>
      <trkpt lat="44.74252" lon="5.04724">
        <ele>370</ele>
        <time>2020-02-07T09:49:05.000Z</time>
      </trkpt>
      <trkpt lat="44.74253" lon="5.04724">
        <ele>370</ele>
        <time>2020-02-07T09:49:06.000Z</time>
      </trkpt>
      <trkpt lat="44.74253" lon="5.04724">
        <ele>370</ele>
        <time>2020-02-07T09:49:07.000Z</time>
      </trkpt>
      <trkpt lat="44.74254" lon="5.04724">
        <ele>371</ele>
        <time>2020-02-07T09:49:08.000Z</time>
      </trkpt>
      <trkpt lat="44.74255" lon="5.04725">
        <ele>371</ele>
        <time>2020-02-07T09:49:09.000Z</time>
      </trkpt>
      <trkpt lat="44.74256" lon="5.04725">
        <ele>371</ele>
        <time>2020-02-07T09:49:10.000Z</time>
      </trkpt>
      <trkpt lat="44.74256" lon="5.04725">
        <ele>371</ele>
        <time>2020-02-07T09:49:11.000Z</time>
      </trkpt>
      <trkpt lat="44.74257" lon="5.04725">
        <ele>371</ele>
        <time>2020-02-07T09:49:12.000Z</time>
      </trkpt>
      <trkpt lat="44.74258" lon="5.04726">
        <ele>372</ele>
        <time>2020-02-07T09:49:13.000Z</time>
      </trkpt>
      <trkpt lat="44.74259" lon="5.04726">
        <ele>372</ele>
        <time>2020-02-07T09:49:14.000Z</time>
      </trkpt>
      <trkpt lat="44.7426" lon="5.04727">
        <ele>372</ele>
        <time>2020-02-07T09:49:15.000Z</time>
      </trkpt>
      <trkpt lat="44.74261" lon="5.04727">
        <ele>372</ele>
        <time>2020-02-07T09:49:16.000Z</time>
      </trkpt>
      <trkpt lat="44.74262" lon="5.04728">
        <ele>372</ele>
        <time>2020-02-07T09:49:17.000Z</time>
      </trkpt>
      <trkpt lat="44.74263" lon="5.04729">
        <ele>372</ele>
        <time>2020-02-07T09:49:18.000Z</time>
      </trkpt>
      <trkpt lat="44.74264" lon="5.04729">
        <ele>373</ele>
        <time>2020-02-07T09:49:19.000Z</time>
      </trkpt>
      <trkpt lat="44.74265" lon="5.0473">
        <ele>373</ele>
        <time>2020-02-07T09:49:20.000Z</time>
      </trkpt>
      <trkpt lat="44.74266" lon="5.0473">
        <ele>373</ele>
        <time>2020-02-07T09:49:21.000Z</time>
      </trkpt>
      <trkpt lat="44.74267" lon="5.04731">
        <ele>373</ele>
        <time>2020-02-07T09:49:22.000Z</time>
      </trkpt>
      <trkpt lat="44.74268" lon="5.04732">
        <ele>373</ele>
        <time>2020-02-07T09:49:23.000Z</time>
      </trkpt>
      <trkpt lat="44.74269" lon="5.04732">
        <ele>373</ele>
        <time>2020-02-07T09:49:24.000Z</time>
      </trkpt>
      <trkpt lat="44.7427" lon="5.04733">
        <ele>373</ele>
        <time>2020-02-07T09:49:25.000Z</time>
      </trkpt>
      <trkpt lat="44.74271" lon="5.04734">
        <ele>373</ele>
        <time>2020-02-07T09:49:26.000Z</time>
      </trkpt>
      <trkpt lat="44.74273" lon="5.04735">
        <ele>373</ele>
        <time>2020-02-07T09:49:27.000Z</time>
      </trkpt>
      <trkpt lat="44.74274" lon="5.04736">
        <ele>373</ele>
        <time>2020-02-07T09:49:28.000Z</time>
      </trkpt>
      <trkpt lat="44.74275" lon="5.04737">
        <ele>373</ele>
        <time>2020-02-07T09:49:29.000Z</time>
      </trkpt>
      <trkpt lat="44.74276" lon="5.04738">
        <ele>373</ele>
        <time>2020-02-07T09:49:30.000Z</time>
      </trkpt>
      <trkpt lat="44.74277" lon="5.04739">
        <ele>374</ele>
        <time>2020-02-07T09:49:31.000Z</time>
      </trkpt>
      <trkpt lat="44.74278" lon="5.0474">
        <ele>374</ele>
        <time>2020-02-07T09:49:32.000Z</time>
      </trkpt>
      <trkpt lat="44.74279" lon="5.04741">
        <ele>374</ele>
        <time>2020-02-07T09:49:33.000Z</time>
      </trkpt>
      <trkpt lat="44.74279" lon="5.04743">
        <ele>374</ele>
        <time>2020-02-07T09:49:34.000Z</time>
      </trkpt>
      <trkpt lat="44.7428" lon="5.04744">
        <ele>374</ele>
        <time>2020-02-07T09:49:35.000Z</time>
      </trkpt>
      <trkpt lat="44.74281" lon="5.04744">
        <ele>374</ele>
        <time>2020-02-07T09:49:36.000Z</time>
      </trkpt>
      <trkpt lat="44.74282" lon="5.04745">
        <ele>374</ele>
        <time>2020-02-07T09:49:37.000Z</time>
      </trkpt>
      <trkpt lat="44.74284" lon="5.04746">
        <ele>375</ele>
        <time>2020-02-07T09:49:38.000Z</time>
      </trkpt>
      <trkpt lat="44.74285" lon="5.04746">
        <ele>375</ele>
        <time>2020-02-07T09:49:39.000Z</time>
      </trkpt>
      <trkpt lat="44.74286" lon="5.04746">
        <ele>375</ele>
        <time>2020-02-07T09:49:40.000Z</time>
      </trkpt>
      <trkpt lat="44.74286" lon="5.04747">
        <ele>375</ele>
        <time>2020-02-07T09:49:41.000Z</time>
      </trkpt>
      <trkpt lat="44.74287" lon="5.04747">
        <ele>375</ele>
        <time>2020-02-07T09:49:42.000Z</time>
      </trkpt>
      <trkpt lat="44.74288" lon="5.04747">
        <ele>375</ele>
        <time>2020-02-07T09:49:43.000Z</time>
      </trkpt>
      <trkpt lat="44.74289" lon="5.04748">
        <ele>375</ele>
        <time>2020-02-07T09:49:44.000Z</time>
      </trkpt>
      <trkpt lat="44.7429" lon="5.04748">
        <ele>376</ele>
        <time>2020-02-07T09:49:45.000Z</time>
      </trkpt>
      <trkpt lat="44.74291" lon="5.04749">
        <ele>376</ele>
        <time>2020-02-07T09:49:46.000Z</time>
      </trkpt>
      <trkpt lat="44.74291" lon="5.0475">
        <ele>376</ele>
        <time>2020-02-07T09:49:47.000Z</time>
      </trkpt>
      <trkpt lat="44.74292" lon="5.0475">
        <ele>377</ele>
        <time>2020-02-07T09:49:48.000Z</time>
      </trkpt>
      <trkpt lat="44.74292" lon="5.0475">
        <ele>377</ele>
        <time>2020-02-07T09:49:49.000Z</time>
      </trkpt>
      <trkpt lat="44.74293" lon="5.0475">
        <ele>377</ele>
        <time>2020-02-07T09:49:50.000Z</time>
      </trkpt>
      <trkpt lat="44.74294" lon="5.0475">
        <ele>378</ele>
        <time>2020-02-07T09:49:51.000Z</time>
      </trkpt>
      <trkpt lat="44.74295" lon="5.0475">
        <ele>378</ele>
        <time>2020-02-07T09:49:52.000Z</time>
      </trkpt>
      <trkpt lat="44.74296" lon="5.04751">
        <ele>378</ele>
        <time>2020-02-07T09:49:53.000Z</time>
      </trkpt>
      <trkpt lat="44.74297" lon="5.04751">
        <ele>378</ele>
        <time>2020-02-07T09:49:54.000Z</time>
      </trkpt>
      <trkpt lat="44.74297" lon="5.0475">
        <ele>379</ele>
        <time>2020-02-07T09:49:55.000Z</time>
      </trkpt>
      <trkpt lat="44.74298" lon="5.04751">
        <ele>379</ele>
        <time>2020-02-07T09:49:56.000Z</time>
      </trkpt>
      <trkpt lat="44.74299" lon="5.04751">
        <ele>379</ele>
        <time>2020-02-07T09:49:57.000Z</time>
      </trkpt>
      <trkpt lat="44.743" lon="5.04751">
        <ele>379</ele>
        <time>2020-02-07T09:49:58.000Z</time>
      </trkpt>
      <trkpt lat="44.74301" lon="5.04751">
        <ele>379</ele>
        <time>2020-02-07T09:49:59.000Z</time>
      </trkpt>
      <trkpt lat="44.74302" lon="5.04752">
        <ele>380</ele>
        <time>2020-02-07T09:50:00.000Z</time>
      </trkpt>
      <trkpt lat="44.74303" lon="5.04752">
        <ele>380</ele>
        <time>2020-02-07T09:50:01.000Z</time>
      </trkpt>
      <trkpt lat="44.74304" lon="5.04752">
        <ele>380</ele>
        <time>2020-02-07T09:50:02.000Z</time>
      </trkpt>
      <trkpt lat="44.74305" lon="5.04752">
        <ele>380</ele>
        <time>2020-02-07T09:50:03.000Z</time>
      </trkpt>
      <trkpt lat="44.74305" lon="5.04752">
        <ele>381</ele>
        <time>2020-02-07T09:50:04.000Z</time>
      </trkpt>
      <trkpt lat="44.74306" lon="5.04753">
        <ele>381</ele>
        <time>2020-02-07T09:50:05.000Z</time>
      </trkpt>
      <trkpt lat="44.74307" lon="5.04754">
        <ele>381</ele>
        <time>2020-02-07T09:50:06.000Z</time>
      </trkpt>
      <trkpt lat="44.74308" lon="5.04754">
        <ele>382</ele>
        <time>2020-02-07T09:50:07.000Z</time>
      </trkpt>
      <trkpt lat="44.74309" lon="5.04755">
        <ele>382</ele>
        <time>2020-02-07T09:50:08.000Z</time>
      </trkpt>
      <trkpt lat="44.74311" lon="5.04755">
        <ele>382</ele>
        <time>2020-02-07T09:50:09.000Z</time>
      </trkpt>
      <trkpt lat="44.74312" lon="5.04756">
        <ele>382</ele>
        <time>2020-02-07T09:50:10.000Z</time>
      </trkpt>
      <trkpt lat="44.74313" lon="5.04756">
        <ele>382</ele>
        <time>2020-02-07T09:50:11.000Z</time>
      </trkpt>
      <trkpt lat="44.74314" lon="5.04757">
        <ele>382</ele>
        <time>2020-02-07T09:50:12.000Z</time>
      </trkpt>
      <trkpt lat="44.74315" lon="5.04757">
        <ele>382</ele>
        <time>2020-02-07T09:50:13.000Z</time>
      </trkpt>
      <trkpt lat="44.74316" lon="5.04758">
        <ele>383</ele>
        <time>2020-02-07T09:50:14.000Z</time>
      </trkpt>
      <trkpt lat="44.74317" lon="5.04758">
        <ele>383</ele>
        <time>2020-02-07T09:50:15.000Z</time>
      </trkpt>
      <trkpt lat="44.74318" lon="5.04758">
        <ele>383</ele>
        <time>2020-02-07T09:50:16.000Z</time>
      </trkpt>
      <trkpt lat="44.74319" lon="5.04758">
        <ele>383</ele>
        <time>2020-02-07T09:50:17.000Z</time>
      </trkpt>
      <trkpt lat="44.74319" lon="5.04759">
        <ele>383</ele>
        <time>2020-02-07T09:50:18.000Z</time>
      </trkpt>
      <trkpt lat="44.7432" lon="5.04759">
        <ele>383</ele>
        <time>2020-02-07T09:50:19.000Z</time>
      </trkpt>
      <trkpt lat="44.74321" lon="5.04758">
        <ele>383</ele>
        <time>2020-02-07T09:50:20.000Z</time>
      </trkpt>
      <trkpt lat="44.74322" lon="5.04758">
        <ele>383</ele>
        <time>2020-02-07T09:50:21.000Z</time>
      </trkpt>
      <trkpt lat="44.74322" lon="5.04757">
        <ele>383</ele>
        <time>2020-02-07T09:50:22.000Z</time>
      </trkpt>
      <trkpt lat="44.74323" lon="5.04757">
        <ele>383</ele>
        <time>2020-02-07T09:50:23.000Z</time>
      </trkpt>
      <trkpt lat="44.74324" lon="5.04756">
        <ele>383</ele>
        <time>2020-02-07T09:50:24.000Z</time>
      </trkpt>
      <trkpt lat="44.74325" lon="5.04756">
        <ele>383</ele>
        <time>2020-02-07T09:50:25.000Z</time>
      </trkpt>
      <trkpt lat="44.74326" lon="5.04756">
        <ele>383</ele>
        <time>2020-02-07T09:50:26.000Z</time>
      </trkpt>
      <trkpt lat="44.74327" lon="5.04756">
        <ele>383</ele>
        <time>2020-02-07T09:50:27.000Z</time>
      </trkpt>
      <trkpt lat="44.74328" lon="5.04756">
        <ele>383</ele>
        <time>2020-02-07T09:50:28.000Z</time>
      </trkpt>
      <trkpt lat="44.74329" lon="5.04756">
        <ele>383</ele>
        <time>2020-02-07T09:50:29.000Z</time>
      </trkpt>
      <trkpt lat="44.7433" lon="5.04756">
        <ele>383</ele>
        <time>2020-02-07T09:50:30.000Z</time>
      </trkpt>
      <trkpt lat="44.74331" lon="5.04756">
        <ele>383</ele>
        <time>2020-02-07T09:50:31.000Z</time>
      </trkpt>
      <trkpt lat="44.74332" lon="5.04757">
        <ele>382</ele>
        <time>2020-02-07T09:50:32.000Z</time>
      </trkpt>
      <trkpt lat="44.74333" lon="5.04757">
        <ele>382</ele>
        <time>2020-02-07T09:50:33.000Z</time>
      </trkpt>
      <trkpt lat="44.74334" lon="5.04757">
        <ele>382</ele>
        <time>2020-02-07T09:50:34.000Z</time>
      </trkpt>
      <trkpt lat="44.74335" lon="5.04757">
        <ele>382</ele>
        <time>2020-02-07T09:50:35.000Z</time>
      </trkpt>
      <trkpt lat="44.74336" lon="5.04758">
        <ele>382</ele>
        <time>2020-02-07T09:50:36.000Z</time>
      </trkpt>
      <trkpt lat="44.74337" lon="5.04758">
        <ele>382</ele>
        <time>2020-02-07T09:50:37.000Z</time>
      </trkpt>
      <trkpt lat="44.74338" lon="5.04758">
        <ele>383</ele>
        <time>2020-02-07T09:50:38.000Z</time>
      </trkpt>
      <trkpt lat="44.74339" lon="5.04757">
        <ele>383</ele>
        <time>2020-02-07T09:50:39.000Z</time>
      </trkpt>
      <trkpt lat="44.7434" lon="5.04757">
        <ele>383</ele>
        <time>2020-02-07T09:50:40.000Z</time>
      </trkpt>
      <trkpt lat="44.74341" lon="5.04756">
        <ele>383</ele>
        <time>2020-02-07T09:50:41.000Z</time>
      </trkpt>
      <trkpt lat="44.74342" lon="5.04756">
        <ele>383</ele>
        <time>2020-02-07T09:50:42.000Z</time>
      </trkpt>
      <trkpt lat="44.74342" lon="5.04755">
        <ele>383</ele>
        <time>2020-02-07T09:50:43.000Z</time>
      </trkpt>
      <trkpt lat="44.74343" lon="5.04755">
        <ele>383</ele>
        <time>2020-02-07T09:50:44.000Z</time>
      </trkpt>
      <trkpt lat="44.74344" lon="5.04755">
        <ele>383</ele>
        <time>2020-02-07T09:50:45.000Z</time>
      </trkpt>
      <trkpt lat="44.74345" lon="5.04755">
        <ele>383</ele>
        <time>2020-02-07T09:50:46.000Z</time>
      </trkpt>
      <trkpt lat="44.74347" lon="5.04755">
        <ele>383</ele>
        <time>2020-02-07T09:50:47.000Z</time>
      </trkpt>
      <trkpt lat="44.74348" lon="5.04755">
        <ele>383</ele>
        <time>2020-02-07T09:50:48.000Z</time>
      </trkpt>
      <trkpt lat="44.74349" lon="5.04755">
        <ele>383</ele>
        <time>2020-02-07T09:50:49.000Z</time>
      </trkpt>
      <trkpt lat="44.7435" lon="5.04756">
        <ele>383</ele>
        <time>2020-02-07T09:50:50.000Z</time>
      </trkpt>
      <trkpt lat="44.74352" lon="5.04757">
        <ele>383</ele>
        <time>2020-02-07T09:50:51.000Z</time>
      </trkpt>
      <trkpt lat="44.74353" lon="5.04757">
        <ele>383</ele>
        <time>2020-02-07T09:50:52.000Z</time>
      </trkpt>
      <trkpt lat="44.74354" lon="5.04757">
        <ele>383</ele>
        <time>2020-02-07T09:50:53.000Z</time>
      </trkpt>
      <trkpt lat="44.74355" lon="5.04758">
        <ele>383</ele>
        <time>2020-02-07T09:50:54.000Z</time>
      </trkpt>
      <trkpt lat="44.74356" lon="5.04758">
        <ele>383</ele>
        <time>2020-02-07T09:50:55.000Z</time>
      </trkpt>
      <trkpt lat="44.74358" lon="5.04759">
        <ele>383</ele>
        <time>2020-02-07T09:50:56.000Z</time>
      </trkpt>
      <trkpt lat="44.74359" lon="5.0476">
        <ele>383</ele>
        <time>2020-02-07T09:50:57.000Z</time>
      </trkpt>
      <trkpt lat="44.7436" lon="5.04761">
        <ele>383</ele>
        <time>2020-02-07T09:50:58.000Z</time>
      </trkpt>
      <trkpt lat="44.74361" lon="5.04762">
        <ele>383</ele>
        <time>2020-02-07T09:50:59.000Z</time>
      </trkpt>
      <trkpt lat="44.74363" lon="5.04763">
        <ele>383</ele>
        <time>2020-02-07T09:51:00.000Z</time>
      </trkpt>
      <trkpt lat="44.74364" lon="5.04764">
        <ele>383</ele>
        <time>2020-02-07T09:51:01.000Z</time>
      </trkpt>
      <trkpt lat="44.74365" lon="5.04765">
        <ele>383</ele>
        <time>2020-02-07T09:51:02.000Z</time>
      </trkpt>
      <trkpt lat="44.74366" lon="5.04765">
        <ele>383</ele>
        <time>2020-02-07T09:51:03.000Z</time>
      </trkpt>
      <trkpt lat="44.74367" lon="5.04766">
        <ele>384</ele>
        <time>2020-02-07T09:51:04.000Z</time>
      </trkpt>
      <trkpt lat="44.74368" lon="5.04767">
        <ele>384</ele>
        <time>2020-02-07T09:51:05.000Z</time>
      </trkpt>
      <trkpt lat="44.74369" lon="5.04767">
        <ele>384</ele>
        <time>2020-02-07T09:51:06.000Z</time>
      </trkpt>
      <trkpt lat="44.7437" lon="5.04767">
        <ele>384</ele>
        <time>2020-02-07T09:51:07.000Z</time>
      </trkpt>
      <trkpt lat="44.74371" lon="5.04768">
        <ele>384</ele>
        <time>2020-02-07T09:51:08.000Z</time>
      </trkpt>
      <trkpt lat="44.74373" lon="5.04768">
        <ele>384</ele>
        <time>2020-02-07T09:51:09.000Z</time>
      </trkpt>
      <trkpt lat="44.74374" lon="5.04769">
        <ele>384</ele>
        <time>2020-02-07T09:51:10.000Z</time>
      </trkpt>
      <trkpt lat="44.74374" lon="5.04769">
        <ele>384</ele>
        <time>2020-02-07T09:51:11.000Z</time>
      </trkpt>
      <trkpt lat="44.74375" lon="5.0477">
        <ele>384</ele>
        <time>2020-02-07T09:51:12.000Z</time>
      </trkpt>
      <trkpt lat="44.74375" lon="5.0477">
        <ele>384</ele>
        <time>2020-02-07T09:51:13.000Z</time>
      </trkpt>
      <trkpt lat="44.74375" lon="5.0477">
        <ele>385</ele>
        <time>2020-02-07T09:51:14.000Z</time>
      </trkpt>
      <trkpt lat="44.74376" lon="5.0477">
        <ele>385</ele>
        <time>2020-02-07T09:51:15.000Z</time>
      </trkpt>
      <trkpt lat="44.74376" lon="5.0477">
        <ele>385</ele>
        <time>2020-02-07T09:51:16.000Z</time>
      </trkpt>
      <trkpt lat="44.74376" lon="5.0477">
        <ele>385</ele>
        <time>2020-02-07T09:51:17.000Z</time>
      </trkpt>
      <trkpt lat="44.74376" lon="5.0477">
        <ele>385</ele>
        <time>2020-02-07T09:51:18.000Z</time>
      </trkpt>
      <trkpt lat="44.74376" lon="5.0477">
        <ele>385</ele>
        <time>2020-02-07T09:51:19.000Z</time>
      </trkpt>
      <trkpt lat="44.74376" lon="5.04771">
        <ele>385</ele>
        <time>2020-02-07T09:51:20.000Z</time>
      </trkpt>
      <trkpt lat="44.74376" lon="5.04771">
        <ele>385</ele>
        <time>2020-02-07T09:51:21.000Z</time>
      </trkpt>
      <trkpt lat="44.74376" lon="5.04771">
        <ele>385</ele>
        <time>2020-02-07T09:51:22.000Z</time>
      </trkpt>
      <trkpt lat="44.74376" lon="5.04771">
        <ele>385</ele>
        <time>2020-02-07T09:51:23.000Z</time>
      </trkpt>
      <trkpt lat="44.74377" lon="5.04771">
        <ele>385</ele>
        <time>2020-02-07T09:51:24.000Z</time>
      </trkpt>
      <trkpt lat="44.74377" lon="5.04771">
        <ele>385</ele>
        <time>2020-02-07T09:51:25.000Z</time>
      </trkpt>
      <trkpt lat="44.74377" lon="5.04771">
        <ele>386</ele>
        <time>2020-02-07T09:51:26.000Z</time>
      </trkpt>
      <trkpt lat="44.74378" lon="5.04772">
        <ele>386</ele>
        <time>2020-02-07T09:51:27.000Z</time>
      </trkpt>
      <trkpt lat="44.74378" lon="5.04772">
        <ele>386</ele>
        <time>2020-02-07T09:51:28.000Z</time>
      </trkpt>
      <trkpt lat="44.74379" lon="5.04772">
        <ele>386</ele>
        <time>2020-02-07T09:51:29.000Z</time>
      </trkpt>
      <trkpt lat="44.74379" lon="5.04773">
        <ele>386</ele>
        <time>2020-02-07T09:51:30.000Z</time>
      </trkpt>
      <trkpt lat="44.7438" lon="5.04773">
        <ele>386</ele>
        <time>2020-02-07T09:51:31.000Z</time>
      </trkpt>
      <trkpt lat="44.7438" lon="5.04773">
        <ele>386</ele>
        <time>2020-02-07T09:51:32.000Z</time>
      </trkpt>
      <trkpt lat="44.7438" lon="5.04773">
        <ele>386</ele>
        <time>2020-02-07T09:51:33.000Z</time>
      </trkpt>
      <trkpt lat="44.7438" lon="5.04773">
        <ele>386</ele>
        <time>2020-02-07T09:51:34.000Z</time>
      </trkpt>
      <trkpt lat="44.74381" lon="5.04773">
        <ele>386</ele>
        <time>2020-02-07T09:51:35.000Z</time>
      </trkpt>
      <trkpt lat="44.74381" lon="5.04773">
        <ele>386</ele>
        <time>2020-02-07T09:51:36.000Z</time>
      </trkpt>
      <trkpt lat="44.74382" lon="5.04773">
        <ele>386</ele>
        <time>2020-02-07T09:51:37.000Z</time>
      </trkpt>
      <trkpt lat="44.74383" lon="5.04773">
        <ele>387</ele>
        <time>2020-02-07T09:51:38.000Z</time>
      </trkpt>
      <trkpt lat="44.74384" lon="5.04773">
        <ele>387</ele>
        <time>2020-02-07T09:51:39.000Z</time>
      </trkpt>
      <trkpt lat="44.74384" lon="5.04773">
        <ele>387</ele>
        <time>2020-02-07T09:51:40.000Z</time>
      </trkpt>
      <trkpt lat="44.74385" lon="5.04773">
        <ele>387</ele>
        <time>2020-02-07T09:51:41.000Z</time>
      </trkpt>
      <trkpt lat="44.74385" lon="5.04773">
        <ele>387</ele>
        <time>2020-02-07T09:51:42.000Z</time>
      </trkpt>
      <trkpt lat="44.74386" lon="5.04774">
        <ele>387</ele>
        <time>2020-02-07T09:51:43.000Z</time>
      </trkpt>
      <trkpt lat="44.74387" lon="5.04774">
        <ele>387</ele>
        <time>2020-02-07T09:51:44.000Z</time>
      </trkpt>
      <trkpt lat="44.74388" lon="5.04774">
        <ele>387</ele>
        <time>2020-02-07T09:51:45.000Z</time>
      </trkpt>
      <trkpt lat="44.74388" lon="5.04775">
        <ele>387</ele>
        <time>2020-02-07T09:51:46.000Z</time>
      </trkpt>
      <trkpt lat="44.74389" lon="5.04775">
        <ele>387</ele>
        <time>2020-02-07T09:51:47.000Z</time>
      </trkpt>
      <trkpt lat="44.7439" lon="5.04775">
        <ele>387</ele>
        <time>2020-02-07T09:51:48.000Z</time>
      </trkpt>
      <trkpt lat="44.7439" lon="5.04775">
        <ele>387</ele>
        <time>2020-02-07T09:51:49.000Z</time>
      </trkpt>
      <trkpt lat="44.74391" lon="5.04776">
        <ele>387</ele>
        <time>2020-02-07T09:51:50.000Z</time>
      </trkpt>
      <trkpt lat="44.74392" lon="5.04776">
        <ele>387</ele>
        <time>2020-02-07T09:51:51.000Z</time>
      </trkpt>
      <trkpt lat="44.74393" lon="5.04776">
        <ele>386</ele>
        <time>2020-02-07T09:51:52.000Z</time>
      </trkpt>
      <trkpt lat="44.74393" lon="5.04776">
        <ele>386</ele>
        <time>2020-02-07T09:51:53.000Z</time>
      </trkpt>
      <trkpt lat="44.74393" lon="5.04776">
        <ele>386</ele>
        <time>2020-02-07T09:51:54.000Z</time>
      </trkpt>
      <trkpt lat="44.74393" lon="5.04776">
        <ele>386</ele>
        <time>2020-02-07T09:51:55.000Z</time>
      </trkpt>
      <trkpt lat="44.74393" lon="5.04776">
        <ele>386</ele>
        <time>2020-02-07T09:51:56.000Z</time>
      </trkpt>
      <trkpt lat="44.74393" lon="5.04776">
        <ele>386</ele>
        <time>2020-02-07T09:51:57.000Z</time>
      </trkpt>
      <trkpt lat="44.74394" lon="5.04777">
        <ele>386</ele>
        <time>2020-02-07T09:51:58.000Z</time>
      </trkpt>
      <trkpt lat="44.74394" lon="5.04777">
        <ele>386</ele>
        <time>2020-02-07T09:51:59.000Z</time>
      </trkpt>
      <trkpt lat="44.74394" lon="5.04776">
        <ele>385</ele>
        <time>2020-02-07T09:52:00.000Z</time>
      </trkpt>
      <trkpt lat="44.74394" lon="5.04777">
        <ele>385</ele>
        <time>2020-02-07T09:52:01.000Z</time>
      </trkpt>
      <trkpt lat="44.74394" lon="5.04777">
        <ele>385</ele>
        <time>2020-02-07T09:52:02.000Z</time>
      </trkpt>
      <trkpt lat="44.74395" lon="5.04777">
        <ele>385</ele>
        <time>2020-02-07T09:52:03.000Z</time>
      </trkpt>
      <trkpt lat="44.74396" lon="5.04777">
        <ele>385</ele>
        <time>2020-02-07T09:52:04.000Z</time>
      </trkpt>
      <trkpt lat="44.74397" lon="5.04777">
        <ele>385</ele>
        <time>2020-02-07T09:52:05.000Z</time>
      </trkpt>
      <trkpt lat="44.74397" lon="5.04777">
        <ele>385</ele>
        <time>2020-02-07T09:52:06.000Z</time>
      </trkpt>
      <trkpt lat="44.74398" lon="5.04777">
        <ele>385</ele>
        <time>2020-02-07T09:52:07.000Z</time>
      </trkpt>
      <trkpt lat="44.74399" lon="5.04777">
        <ele>385</ele>
        <time>2020-02-07T09:52:08.000Z</time>
      </trkpt>
      <trkpt lat="44.74401" lon="5.04777">
        <ele>385</ele>
        <time>2020-02-07T09:52:09.000Z</time>
      </trkpt>
      <trkpt lat="44.74402" lon="5.04778">
        <ele>385</ele>
        <time>2020-02-07T09:52:10.000Z</time>
      </trkpt>
      <trkpt lat="44.74402" lon="5.04778">
        <ele>385</ele>
        <time>2020-02-07T09:52:11.000Z</time>
      </trkpt>
      <trkpt lat="44.74404" lon="5.04778">
        <ele>385</ele>
        <time>2020-02-07T09:52:12.000Z</time>
      </trkpt>
      <trkpt lat="44.74405" lon="5.04779">
        <ele>384</ele>
        <time>2020-02-07T09:52:13.000Z</time>
      </trkpt>
      <trkpt lat="44.74406" lon="5.04779">
        <ele>384</ele>
        <time>2020-02-07T09:52:14.000Z</time>
      </trkpt>
      <trkpt lat="44.74407" lon="5.0478">
        <ele>384</ele>
        <time>2020-02-07T09:52:15.000Z</time>
      </trkpt>
      <trkpt lat="44.74408" lon="5.0478">
        <ele>384</ele>
        <time>2020-02-07T09:52:16.000Z</time>
      </trkpt>
      <trkpt lat="44.74409" lon="5.04781">
        <ele>384</ele>
        <time>2020-02-07T09:52:17.000Z</time>
      </trkpt>
      <trkpt lat="44.7441" lon="5.04781">
        <ele>384</ele>
        <time>2020-02-07T09:52:18.000Z</time>
      </trkpt>
      <trkpt lat="44.74411" lon="5.04782">
        <ele>384</ele>
        <time>2020-02-07T09:52:19.000Z</time>
      </trkpt>
      <trkpt lat="44.74411" lon="5.04782">
        <ele>384</ele>
        <time>2020-02-07T09:52:20.000Z</time>
      </trkpt>
      <trkpt lat="44.74411" lon="5.04782">
        <ele>384</ele>
        <time>2020-02-07T09:52:21.000Z</time>
      </trkpt>
      <trkpt lat="44.74411" lon="5.04782">
        <ele>383</ele>
        <time>2020-02-07T09:52:22.000Z</time>
      </trkpt>
      <trkpt lat="44.74412" lon="5.04782">
        <ele>383</ele>
        <time>2020-02-07T09:52:23.000Z</time>
      </trkpt>
      <trkpt lat="44.74412" lon="5.04782">
        <ele>383</ele>
        <time>2020-02-07T09:52:24.000Z</time>
      </trkpt>
      <trkpt lat="44.74412" lon="5.04782">
        <ele>383</ele>
        <time>2020-02-07T09:52:25.000Z</time>
      </trkpt>
      <trkpt lat="44.74412" lon="5.04782">
        <ele>383</ele>
        <time>2020-02-07T09:52:26.000Z</time>
      </trkpt>
      <trkpt lat="44.74413" lon="5.04782">
        <ele>383</ele>
        <time>2020-02-07T09:52:27.000Z</time>
      </trkpt>
      <trkpt lat="44.74413" lon="5.04783">
        <ele>383</ele>
        <time>2020-02-07T09:52:28.000Z</time>
      </trkpt>
      <trkpt lat="44.74414" lon="5.04783">
        <ele>383</ele>
        <time>2020-02-07T09:52:29.000Z</time>
      </trkpt>
      <trkpt lat="44.74414" lon="5.04784">
        <ele>383</ele>
        <time>2020-02-07T09:52:30.000Z</time>
      </trkpt>
      <trkpt lat="44.74415" lon="5.04784">
        <ele>383</ele>
        <time>2020-02-07T09:52:31.000Z</time>
      </trkpt>
      <trkpt lat="44.74416" lon="5.04784">
        <ele>382</ele>
        <time>2020-02-07T09:52:32.000Z</time>
      </trkpt>
      <trkpt lat="44.74416" lon="5.04783">
        <ele>382</ele>
        <time>2020-02-07T09:52:33.000Z</time>
      </trkpt>
      <trkpt lat="44.74417" lon="5.04783">
        <ele>382</ele>
        <time>2020-02-07T09:52:34.000Z</time>
      </trkpt>
      <trkpt lat="44.74418" lon="5.04783">
        <ele>382</ele>
        <time>2020-02-07T09:52:35.000Z</time>
      </trkpt>
      <trkpt lat="44.74419" lon="5.04783">
        <ele>382</ele>
        <time>2020-02-07T09:52:36.000Z</time>
      </trkpt>
      <trkpt lat="44.7442" lon="5.04784">
        <ele>382</ele>
        <time>2020-02-07T09:52:37.000Z</time>
      </trkpt>
      <trkpt lat="44.7442" lon="5.04784">
        <ele>382</ele>
        <time>2020-02-07T09:52:38.000Z</time>
      </trkpt>
      <trkpt lat="44.7442" lon="5.04784">
        <ele>382</ele>
        <time>2020-02-07T09:52:39.000Z</time>
      </trkpt>
      <trkpt lat="44.7442" lon="5.04784">
        <ele>382</ele>
        <time>2020-02-07T09:52:40.000Z</time>
      </trkpt>
      <trkpt lat="44.74421" lon="5.04784">
        <ele>382</ele>
        <time>2020-02-07T09:52:41.000Z</time>
      </trkpt>
      <trkpt lat="44.74421" lon="5.04784">
        <ele>382</ele>
        <time>2020-02-07T09:52:42.000Z</time>
      </trkpt>
      <trkpt lat="44.74422" lon="5.04784">
        <ele>382</ele>
        <time>2020-02-07T09:52:43.000Z</time>
      </trkpt>
      <trkpt lat="44.74422" lon="5.04784">
        <ele>382</ele>
        <time>2020-02-07T09:52:44.000Z</time>
      </trkpt>
      <trkpt lat="44.74422" lon="5.04784">
        <ele>382</ele>
        <time>2020-02-07T09:52:45.000Z</time>
      </trkpt>
      <trkpt lat="44.74422" lon="5.04784">
        <ele>382</ele>
        <time>2020-02-07T09:52:46.000Z</time>
      </trkpt>
      <trkpt lat="44.74422" lon="5.04784">
        <ele>382</ele>
        <time>2020-02-07T09:52:47.000Z</time>
      </trkpt>
      <trkpt lat="44.74423" lon="5.04783">
        <ele>382</ele>
        <time>2020-02-07T09:52:48.000Z</time>
      </trkpt>
      <trkpt lat="44.74424" lon="5.04783">
        <ele>382</ele>
        <time>2020-02-07T09:52:49.000Z</time>
      </trkpt>
      <trkpt lat="44.74425" lon="5.04783">
        <ele>382</ele>
        <time>2020-02-07T09:52:50.000Z</time>
      </trkpt>
      <trkpt lat="44.74426" lon="5.04783">
        <ele>382</ele>
        <time>2020-02-07T09:52:51.000Z</time>
      </trkpt>
      <trkpt lat="44.74427" lon="5.04783">
        <ele>382</ele>
        <time>2020-02-07T09:52:52.000Z</time>
      </trkpt>
      <trkpt lat="44.74428" lon="5.04783">
        <ele>382</ele>
        <time>2020-02-07T09:52:53.000Z</time>
      </trkpt>
      <trkpt lat="44.74429" lon="5.04782">
        <ele>382</ele>
        <time>2020-02-07T09:52:54.000Z</time>
      </trkpt>
      <trkpt lat="44.7443" lon="5.04782">
        <ele>382</ele>
        <time>2020-02-07T09:52:55.000Z</time>
      </trkpt>
      <trkpt lat="44.74431" lon="5.04781">
        <ele>381</ele>
        <time>2020-02-07T09:52:56.000Z</time>
      </trkpt>
      <trkpt lat="44.74432" lon="5.04781">
        <ele>381</ele>
        <time>2020-02-07T09:52:57.000Z</time>
      </trkpt>
      <trkpt lat="44.74433" lon="5.04781">
        <ele>381</ele>
        <time>2020-02-07T09:52:58.000Z</time>
      </trkpt>
      <trkpt lat="44.74434" lon="5.04781">
        <ele>381</ele>
        <time>2020-02-07T09:52:59.000Z</time>
      </trkpt>
      <trkpt lat="44.74435" lon="5.04781">
        <ele>381</ele>
        <time>2020-02-07T09:53:00.000Z</time>
      </trkpt>
      <trkpt lat="44.74436" lon="5.04781">
        <ele>381</ele>
        <time>2020-02-07T09:53:01.000Z</time>
      </trkpt>
      <trkpt lat="44.74437" lon="5.04781">
        <ele>381</ele>
        <time>2020-02-07T09:53:02.000Z</time>
      </trkpt>
      <trkpt lat="44.74439" lon="5.04781">
        <ele>381</ele>
        <time>2020-02-07T09:53:03.000Z</time>
      </trkpt>
      <trkpt lat="44.7444" lon="5.04782">
        <ele>381</ele>
        <time>2020-02-07T09:53:04.000Z</time>
      </trkpt>
      <trkpt lat="44.74441" lon="5.04782">
        <ele>381</ele>
        <time>2020-02-07T09:53:05.000Z</time>
      </trkpt>
      <trkpt lat="44.74442" lon="5.04782">
        <ele>381</ele>
        <time>2020-02-07T09:53:06.000Z</time>
      </trkpt>
      <trkpt lat="44.74444" lon="5.04783">
        <ele>381</ele>
        <time>2020-02-07T09:53:07.000Z</time>
      </trkpt>
      <trkpt lat="44.74445" lon="5.04783">
        <ele>381</ele>
        <time>2020-02-07T09:53:08.000Z</time>
      </trkpt>
      <trkpt lat="44.74446" lon="5.04783">
        <ele>381</ele>
        <time>2020-02-07T09:53:09.000Z</time>
      </trkpt>
      <trkpt lat="44.74448" lon="5.04783">
        <ele>381</ele>
        <time>2020-02-07T09:53:10.000Z</time>
      </trkpt>
      <trkpt lat="44.74449" lon="5.04784">
        <ele>381</ele>
        <time>2020-02-07T09:53:11.000Z</time>
      </trkpt>
      <trkpt lat="44.7445" lon="5.04784">
        <ele>381</ele>
        <time>2020-02-07T09:53:12.000Z</time>
      </trkpt>
      <trkpt lat="44.74451" lon="5.04785">
        <ele>381</ele>
        <time>2020-02-07T09:53:13.000Z</time>
      </trkpt>
      <trkpt lat="44.74452" lon="5.04785">
        <ele>380</ele>
        <time>2020-02-07T09:53:14.000Z</time>
      </trkpt>
      <trkpt lat="44.74453" lon="5.04785">
        <ele>380</ele>
        <time>2020-02-07T09:53:15.000Z</time>
      </trkpt>
      <trkpt lat="44.74454" lon="5.04785">
        <ele>380</ele>
        <time>2020-02-07T09:53:16.000Z</time>
      </trkpt>
      <trkpt lat="44.74455" lon="5.04785">
        <ele>380</ele>
        <time>2020-02-07T09:53:17.000Z</time>
      </trkpt>
      <trkpt lat="44.74456" lon="5.04785">
        <ele>380</ele>
        <time>2020-02-07T09:53:18.000Z</time>
      </trkpt>
      <trkpt lat="44.74457" lon="5.04786">
        <ele>380</ele>
        <time>2020-02-07T09:53:19.000Z</time>
      </trkpt>
      <trkpt lat="44.74458" lon="5.04786">
        <ele>380</ele>
        <time>2020-02-07T09:53:20.000Z</time>
      </trkpt>
      <trkpt lat="44.74459" lon="5.04785">
        <ele>380</ele>
        <time>2020-02-07T09:53:21.000Z</time>
      </trkpt>
      <trkpt lat="44.74461" lon="5.04785">
        <ele>380</ele>
        <time>2020-02-07T09:53:22.000Z</time>
      </trkpt>
      <trkpt lat="44.74462" lon="5.04785">
        <ele>379</ele>
        <time>2020-02-07T09:53:23.000Z</time>
      </trkpt>
      <trkpt lat="44.74463" lon="5.04785">
        <ele>379</ele>
        <time>2020-02-07T09:53:24.000Z</time>
      </trkpt>
      <trkpt lat="44.74464" lon="5.04786">
        <ele>379</ele>
        <time>2020-02-07T09:53:25.000Z</time>
      </trkpt>
      <trkpt lat="44.74465" lon="5.04786">
        <ele>379</ele>
        <time>2020-02-07T09:53:26.000Z</time>
      </trkpt>
      <trkpt lat="44.74466" lon="5.04786">
        <ele>379</ele>
        <time>2020-02-07T09:53:27.000Z</time>
      </trkpt>
      <trkpt lat="44.74467" lon="5.04786">
        <ele>379</ele>
        <time>2020-02-07T09:53:28.000Z</time>
      </trkpt>
      <trkpt lat="44.74469" lon="5.04786">
        <ele>379</ele>
        <time>2020-02-07T09:53:29.000Z</time>
      </trkpt>
      <trkpt lat="44.7447" lon="5.04787">
        <ele>379</ele>
        <time>2020-02-07T09:53:30.000Z</time>
      </trkpt>
      <trkpt lat="44.74471" lon="5.04787">
        <ele>379</ele>
        <time>2020-02-07T09:53:31.000Z</time>
      </trkpt>
      <trkpt lat="44.74472" lon="5.04787">
        <ele>379</ele>
        <time>2020-02-07T09:53:32.000Z</time>
      </trkpt>
      <trkpt lat="44.74472" lon="5.04787">
        <ele>379</ele>
        <time>2020-02-07T09:53:33.000Z</time>
      </trkpt>
      <trkpt lat="44.74473" lon="5.04787">
        <ele>379</ele>
        <time>2020-02-07T09:53:34.000Z</time>
      </trkpt>
      <trkpt lat="44.74474" lon="5.04787">
        <ele>379</ele>
        <time>2020-02-07T09:53:35.000Z</time>
      </trkpt>
      <trkpt lat="44.74475" lon="5.04787">
        <ele>379</ele>
        <time>2020-02-07T09:53:36.000Z</time>
      </trkpt>
      <trkpt lat="44.74476" lon="5.04788">
        <ele>379</ele>
        <time>2020-02-07T09:53:37.000Z</time>
      </trkpt>
      <trkpt lat="44.74477" lon="5.04788">
        <ele>379</ele>
        <time>2020-02-07T09:53:38.000Z</time>
      </trkpt>
      <trkpt lat="44.74478" lon="5.04788">
        <ele>379</ele>
        <time>2020-02-07T09:53:39.000Z</time>
      </trkpt>
      <trkpt lat="44.74479" lon="5.04789">
        <ele>379</ele>
        <time>2020-02-07T09:53:40.000Z</time>
      </trkpt>
      <trkpt lat="44.7448" lon="5.04789">
        <ele>379</ele>
        <time>2020-02-07T09:53:41.000Z</time>
      </trkpt>
      <trkpt lat="44.7448" lon="5.04789">
        <ele>379</ele>
        <time>2020-02-07T09:53:42.000Z</time>
      </trkpt>
      <trkpt lat="44.74481" lon="5.0479">
        <ele>379</ele>
        <time>2020-02-07T09:53:43.000Z</time>
      </trkpt>
      <trkpt lat="44.74482" lon="5.0479">
        <ele>379</ele>
        <time>2020-02-07T09:53:44.000Z</time>
      </trkpt>
      <trkpt lat="44.74483" lon="5.0479">
        <ele>379</ele>
        <time>2020-02-07T09:53:45.000Z</time>
      </trkpt>
      <trkpt lat="44.74485" lon="5.04791">
        <ele>379</ele>
        <time>2020-02-07T09:53:46.000Z</time>
      </trkpt>
      <trkpt lat="44.74486" lon="5.04791">
        <ele>379</ele>
        <time>2020-02-07T09:53:47.000Z</time>
      </trkpt>
      <trkpt lat="44.74487" lon="5.04791">
        <ele>379</ele>
        <time>2020-02-07T09:53:48.000Z</time>
      </trkpt>
      <trkpt lat="44.74489" lon="5.04791">
        <ele>379</ele>
        <time>2020-02-07T09:53:49.000Z</time>
      </trkpt>
      <trkpt lat="44.7449" lon="5.04791">
        <ele>379</ele>
        <time>2020-02-07T09:53:50.000Z</time>
      </trkpt>
      <trkpt lat="44.74492" lon="5.04791">
        <ele>379</ele>
        <time>2020-02-07T09:53:51.000Z</time>
      </trkpt>
      <trkpt lat="44.74493" lon="5.04791">
        <ele>379</ele>
        <time>2020-02-07T09:53:52.000Z</time>
      </trkpt>
      <trkpt lat="44.74494" lon="5.04792">
        <ele>379</ele>
        <time>2020-02-07T09:53:53.000Z</time>
      </trkpt>
      <trkpt lat="44.74496" lon="5.04792">
        <ele>379</ele>
        <time>2020-02-07T09:53:54.000Z</time>
      </trkpt>
      <trkpt lat="44.74497" lon="5.04792">
        <ele>379</ele>
        <time>2020-02-07T09:53:55.000Z</time>
      </trkpt>
      <trkpt lat="44.74498" lon="5.04792">
        <ele>379</ele>
        <time>2020-02-07T09:53:56.000Z</time>
      </trkpt>
      <trkpt lat="44.745" lon="5.04792">
        <ele>379</ele>
        <time>2020-02-07T09:53:57.000Z</time>
      </trkpt>
      <trkpt lat="44.74501" lon="5.04792">
        <ele>379</ele>
        <time>2020-02-07T09:53:58.000Z</time>
      </trkpt>
      <trkpt lat="44.74502" lon="5.04792">
        <ele>379</ele>
        <time>2020-02-07T09:53:59.000Z</time>
      </trkpt>
      <trkpt lat="44.74503" lon="5.04792">
        <ele>379</ele>
        <time>2020-02-07T09:54:00.000Z</time>
      </trkpt>
      <trkpt lat="44.74504" lon="5.04792">
        <ele>379</ele>
        <time>2020-02-07T09:54:01.000Z</time>
      </trkpt>
      <trkpt lat="44.74506" lon="5.04792">
        <ele>379</ele>
        <time>2020-02-07T09:54:02.000Z</time>
      </trkpt>
      <trkpt lat="44.74507" lon="5.04792">
        <ele>379</ele>
        <time>2020-02-07T09:54:03.000Z</time>
      </trkpt>
      <trkpt lat="44.74508" lon="5.04792">
        <ele>379</ele>
        <time>2020-02-07T09:54:04.000Z</time>
      </trkpt>
      <trkpt lat="44.74509" lon="5.04793">
        <ele>379</ele>
        <time>2020-02-07T09:54:05.000Z</time>
      </trkpt>
      <trkpt lat="44.7451" lon="5.04793">
        <ele>379</ele>
        <time>2020-02-07T09:54:06.000Z</time>
      </trkpt>
      <trkpt lat="44.74512" lon="5.04793">
        <ele>378</ele>
        <time>2020-02-07T09:54:07.000Z</time>
      </trkpt>
      <trkpt lat="44.74513" lon="5.04794">
        <ele>378</ele>
        <time>2020-02-07T09:54:08.000Z</time>
      </trkpt>
      <trkpt lat="44.74514" lon="5.04794">
        <ele>378</ele>
        <time>2020-02-07T09:54:09.000Z</time>
      </trkpt>
      <trkpt lat="44.74514" lon="5.04794">
        <ele>378</ele>
        <time>2020-02-07T09:54:10.000Z</time>
      </trkpt>
      <trkpt lat="44.74515" lon="5.04795">
        <ele>378</ele>
        <time>2020-02-07T09:54:11.000Z</time>
      </trkpt>
      <trkpt lat="44.74516" lon="5.04795">
        <ele>378</ele>
        <time>2020-02-07T09:54:12.000Z</time>
      </trkpt>
      <trkpt lat="44.74517" lon="5.04795">
        <ele>378</ele>
        <time>2020-02-07T09:54:13.000Z</time>
      </trkpt>
      <trkpt lat="44.74518" lon="5.04795">
        <ele>378</ele>
        <time>2020-02-07T09:54:14.000Z</time>
      </trkpt>
      <trkpt lat="44.74519" lon="5.04795">
        <ele>378</ele>
        <time>2020-02-07T09:54:15.000Z</time>
      </trkpt>
      <trkpt lat="44.7452" lon="5.04795">
        <ele>378</ele>
        <time>2020-02-07T09:54:16.000Z</time>
      </trkpt>
      <trkpt lat="44.7452" lon="5.04795">
        <ele>378</ele>
        <time>2020-02-07T09:54:17.000Z</time>
      </trkpt>
      <trkpt lat="44.74521" lon="5.04796">
        <ele>378</ele>
        <time>2020-02-07T09:54:18.000Z</time>
      </trkpt>
      <trkpt lat="44.74521" lon="5.04796">
        <ele>378</ele>
        <time>2020-02-07T09:54:19.000Z</time>
      </trkpt>
      <trkpt lat="44.74522" lon="5.04796">
        <ele>378</ele>
        <time>2020-02-07T09:54:20.000Z</time>
      </trkpt>
      <trkpt lat="44.74523" lon="5.04796">
        <ele>378</ele>
        <time>2020-02-07T09:54:21.000Z</time>
      </trkpt>
      <trkpt lat="44.74524" lon="5.04795">
        <ele>378</ele>
        <time>2020-02-07T09:54:22.000Z</time>
      </trkpt>
      <trkpt lat="44.74525" lon="5.04795">
        <ele>378</ele>
        <time>2020-02-07T09:54:23.000Z</time>
      </trkpt>
      <trkpt lat="44.74526" lon="5.04795">
        <ele>378</ele>
        <time>2020-02-07T09:54:24.000Z</time>
      </trkpt>
      <trkpt lat="44.74527" lon="5.04794">
        <ele>378</ele>
        <time>2020-02-07T09:54:25.000Z</time>
      </trkpt>
      <trkpt lat="44.74529" lon="5.04794">
        <ele>378</ele>
        <time>2020-02-07T09:54:26.000Z</time>
      </trkpt>
      <trkpt lat="44.7453" lon="5.04794">
        <ele>378</ele>
        <time>2020-02-07T09:54:27.000Z</time>
      </trkpt>
      <trkpt lat="44.74531" lon="5.04794">
        <ele>378</ele>
        <time>2020-02-07T09:54:28.000Z</time>
      </trkpt>
      <trkpt lat="44.74532" lon="5.04794">
        <ele>379</ele>
        <time>2020-02-07T09:54:29.000Z</time>
      </trkpt>
      <trkpt lat="44.74533" lon="5.04793">
        <ele>379</ele>
        <time>2020-02-07T09:54:30.000Z</time>
      </trkpt>
      <trkpt lat="44.74534" lon="5.04793">
        <ele>379</ele>
        <time>2020-02-07T09:54:31.000Z</time>
      </trkpt>
      <trkpt lat="44.74536" lon="5.04793">
        <ele>379</ele>
        <time>2020-02-07T09:54:32.000Z</time>
      </trkpt>
      <trkpt lat="44.74537" lon="5.04793">
        <ele>379</ele>
        <time>2020-02-07T09:54:33.000Z</time>
      </trkpt>
      <trkpt lat="44.74538" lon="5.04793">
        <ele>379</ele>
        <time>2020-02-07T09:54:34.000Z</time>
      </trkpt>
      <trkpt lat="44.74539" lon="5.04792">
        <ele>379</ele>
        <time>2020-02-07T09:54:35.000Z</time>
      </trkpt>
      <trkpt lat="44.7454" lon="5.04793">
        <ele>379</ele>
        <time>2020-02-07T09:54:36.000Z</time>
      </trkpt>
      <trkpt lat="44.74541" lon="5.04792">
        <ele>379</ele>
        <time>2020-02-07T09:54:37.000Z</time>
      </trkpt>
      <trkpt lat="44.74542" lon="5.04792">
        <ele>379</ele>
        <time>2020-02-07T09:54:38.000Z</time>
      </trkpt>
      <trkpt lat="44.74543" lon="5.04792">
        <ele>379</ele>
        <time>2020-02-07T09:54:39.000Z</time>
      </trkpt>
      <trkpt lat="44.74544" lon="5.04792">
        <ele>380</ele>
        <time>2020-02-07T09:54:40.000Z</time>
      </trkpt>
      <trkpt lat="44.74545" lon="5.04791">
        <ele>380</ele>
        <time>2020-02-07T09:54:41.000Z</time>
      </trkpt>
      <trkpt lat="44.74546" lon="5.04791">
        <ele>380</ele>
        <time>2020-02-07T09:54:42.000Z</time>
      </trkpt>
      <trkpt lat="44.74547" lon="5.04791">
        <ele>380</ele>
        <time>2020-02-07T09:54:43.000Z</time>
      </trkpt>
      <trkpt lat="44.74548" lon="5.04791">
        <ele>380</ele>
        <time>2020-02-07T09:54:44.000Z</time>
      </trkpt>
      <trkpt lat="44.74549" lon="5.04791">
        <ele>380</ele>
        <time>2020-02-07T09:54:45.000Z</time>
      </trkpt>
      <trkpt lat="44.7455" lon="5.04791">
        <ele>380</ele>
        <time>2020-02-07T09:54:46.000Z</time>
      </trkpt>
      <trkpt lat="44.74552" lon="5.0479">
        <ele>381</ele>
        <time>2020-02-07T09:54:47.000Z</time>
      </trkpt>
      <trkpt lat="44.74553" lon="5.0479">
        <ele>381</ele>
        <time>2020-02-07T09:54:48.000Z</time>
      </trkpt>
      <trkpt lat="44.74554" lon="5.0479">
        <ele>381</ele>
        <time>2020-02-07T09:54:49.000Z</time>
      </trkpt>
      <trkpt lat="44.74556" lon="5.04789">
        <ele>381</ele>
        <time>2020-02-07T09:54:50.000Z</time>
      </trkpt>
      <trkpt lat="44.74557" lon="5.04789">
        <ele>381</ele>
        <time>2020-02-07T09:54:51.000Z</time>
      </trkpt>
      <trkpt lat="44.74558" lon="5.04789">
        <ele>381</ele>
        <time>2020-02-07T09:54:52.000Z</time>
      </trkpt>
      <trkpt lat="44.74559" lon="5.04788">
        <ele>381</ele>
        <time>2020-02-07T09:54:53.000Z</time>
      </trkpt>
      <trkpt lat="44.7456" lon="5.04788">
        <ele>381</ele>
        <time>2020-02-07T09:54:54.000Z</time>
      </trkpt>
      <trkpt lat="44.74561" lon="5.04788">
        <ele>381</ele>
        <time>2020-02-07T09:54:55.000Z</time>
      </trkpt>
      <trkpt lat="44.74562" lon="5.04788">
        <ele>381</ele>
        <time>2020-02-07T09:54:56.000Z</time>
      </trkpt>
      <trkpt lat="44.74564" lon="5.04788">
        <ele>382</ele>
        <time>2020-02-07T09:54:57.000Z</time>
      </trkpt>
      <trkpt lat="44.74565" lon="5.04788">
        <ele>382</ele>
        <time>2020-02-07T09:54:58.000Z</time>
      </trkpt>
      <trkpt lat="44.74566" lon="5.04788">
        <ele>382</ele>
        <time>2020-02-07T09:54:59.000Z</time>
      </trkpt>
      <trkpt lat="44.74567" lon="5.04788">
        <ele>382</ele>
        <time>2020-02-07T09:55:00.000Z</time>
      </trkpt>
      <trkpt lat="44.74568" lon="5.04789">
        <ele>382</ele>
        <time>2020-02-07T09:55:01.000Z</time>
      </trkpt>
      <trkpt lat="44.74569" lon="5.04789">
        <ele>382</ele>
        <time>2020-02-07T09:55:02.000Z</time>
      </trkpt>
      <trkpt lat="44.7457" lon="5.04789">
        <ele>382</ele>
        <time>2020-02-07T09:55:03.000Z</time>
      </trkpt>
      <trkpt lat="44.74571" lon="5.04789">
        <ele>382</ele>
        <time>2020-02-07T09:55:04.000Z</time>
      </trkpt>
      <trkpt lat="44.74572" lon="5.04789">
        <ele>382</ele>
        <time>2020-02-07T09:55:05.000Z</time>
      </trkpt>
      <trkpt lat="44.74574" lon="5.04789">
        <ele>382</ele>
        <time>2020-02-07T09:55:06.000Z</time>
      </trkpt>
      <trkpt lat="44.74575" lon="5.0479">
        <ele>382</ele>
        <time>2020-02-07T09:55:07.000Z</time>
      </trkpt>
      <trkpt lat="44.74576" lon="5.04791">
        <ele>382</ele>
        <time>2020-02-07T09:55:08.000Z</time>
      </trkpt>
      <trkpt lat="44.74577" lon="5.04791">
        <ele>382</ele>
        <time>2020-02-07T09:55:09.000Z</time>
      </trkpt>
      <trkpt lat="44.74579" lon="5.04791">
        <ele>382</ele>
        <time>2020-02-07T09:55:10.000Z</time>
      </trkpt>
      <trkpt lat="44.7458" lon="5.04791">
        <ele>382</ele>
        <time>2020-02-07T09:55:11.000Z</time>
      </trkpt>
      <trkpt lat="44.74581" lon="5.04791">
        <ele>381</ele>
        <time>2020-02-07T09:55:12.000Z</time>
      </trkpt>
      <trkpt lat="44.74583" lon="5.04791">
        <ele>381</ele>
        <time>2020-02-07T09:55:13.000Z</time>
      </trkpt>
      <trkpt lat="44.74584" lon="5.04791">
        <ele>381</ele>
        <time>2020-02-07T09:55:14.000Z</time>
      </trkpt>
      <trkpt lat="44.74586" lon="5.04791">
        <ele>381</ele>
        <time>2020-02-07T09:55:15.000Z</time>
      </trkpt>
      <trkpt lat="44.74587" lon="5.04792">
        <ele>380</ele>
        <time>2020-02-07T09:55:16.000Z</time>
      </trkpt>
      <trkpt lat="44.74588" lon="5.04793">
        <ele>380</ele>
        <time>2020-02-07T09:55:17.000Z</time>
      </trkpt>
      <trkpt lat="44.74589" lon="5.04793">
        <ele>380</ele>
        <time>2020-02-07T09:55:18.000Z</time>
      </trkpt>
      <trkpt lat="44.7459" lon="5.04794">
        <ele>380</ele>
        <time>2020-02-07T09:55:19.000Z</time>
      </trkpt>
      <trkpt lat="44.74591" lon="5.04795">
        <ele>380</ele>
        <time>2020-02-07T09:55:20.000Z</time>
      </trkpt>
      <trkpt lat="44.74592" lon="5.04795">
        <ele>380</ele>
        <time>2020-02-07T09:55:21.000Z</time>
      </trkpt>
      <trkpt lat="44.74593" lon="5.04795">
        <ele>380</ele>
        <time>2020-02-07T09:55:22.000Z</time>
      </trkpt>
      <trkpt lat="44.74594" lon="5.04795">
        <ele>380</ele>
        <time>2020-02-07T09:55:23.000Z</time>
      </trkpt>
      <trkpt lat="44.74595" lon="5.04795">
        <ele>380</ele>
        <time>2020-02-07T09:55:24.000Z</time>
      </trkpt>
      <trkpt lat="44.74597" lon="5.04795">
        <ele>380</ele>
        <time>2020-02-07T09:55:25.000Z</time>
      </trkpt>
      <trkpt lat="44.74598" lon="5.04795">
        <ele>380</ele>
        <time>2020-02-07T09:55:26.000Z</time>
      </trkpt>
      <trkpt lat="44.74599" lon="5.04795">
        <ele>381</ele>
        <time>2020-02-07T09:55:27.000Z</time>
      </trkpt>
      <trkpt lat="44.746" lon="5.04795">
        <ele>381</ele>
        <time>2020-02-07T09:55:28.000Z</time>
      </trkpt>
      <trkpt lat="44.74601" lon="5.04795">
        <ele>381</ele>
        <time>2020-02-07T09:55:29.000Z</time>
      </trkpt>
      <trkpt lat="44.74602" lon="5.04795">
        <ele>381</ele>
        <time>2020-02-07T09:55:30.000Z</time>
      </trkpt>
      <trkpt lat="44.74603" lon="5.04795">
        <ele>381</ele>
        <time>2020-02-07T09:55:31.000Z</time>
      </trkpt>
      <trkpt lat="44.74604" lon="5.04795">
        <ele>381</ele>
        <time>2020-02-07T09:55:32.000Z</time>
      </trkpt>
      <trkpt lat="44.74605" lon="5.04795">
        <ele>381</ele>
        <time>2020-02-07T09:55:33.000Z</time>
      </trkpt>
      <trkpt lat="44.74607" lon="5.04795">
        <ele>381</ele>
        <time>2020-02-07T09:55:34.000Z</time>
      </trkpt>
      <trkpt lat="44.74608" lon="5.04795">
        <ele>381</ele>
        <time>2020-02-07T09:55:35.000Z</time>
      </trkpt>
      <trkpt lat="44.74609" lon="5.04795">
        <ele>381</ele>
        <time>2020-02-07T09:55:36.000Z</time>
      </trkpt>
      <trkpt lat="44.7461" lon="5.04795">
        <ele>381</ele>
        <time>2020-02-07T09:55:37.000Z</time>
      </trkpt>
      <trkpt lat="44.74611" lon="5.04795">
        <ele>381</ele>
        <time>2020-02-07T09:55:38.000Z</time>
      </trkpt>
      <trkpt lat="44.74612" lon="5.04795">
        <ele>381</ele>
        <time>2020-02-07T09:55:39.000Z</time>
      </trkpt>
      <trkpt lat="44.74613" lon="5.04795">
        <ele>381</ele>
        <time>2020-02-07T09:55:40.000Z</time>
      </trkpt>
      <trkpt lat="44.74614" lon="5.04795">
        <ele>381</ele>
        <time>2020-02-07T09:55:41.000Z</time>
      </trkpt>
      <trkpt lat="44.74615" lon="5.04795">
        <ele>381</ele>
        <time>2020-02-07T09:55:42.000Z</time>
      </trkpt>
      <trkpt lat="44.74617" lon="5.04794">
        <ele>381</ele>
        <time>2020-02-07T09:55:43.000Z</time>
      </trkpt>
      <trkpt lat="44.74618" lon="5.04794">
        <ele>382</ele>
        <time>2020-02-07T09:55:44.000Z</time>
      </trkpt>
      <trkpt lat="44.74619" lon="5.04793">
        <ele>382</ele>
        <time>2020-02-07T09:55:45.000Z</time>
      </trkpt>
      <trkpt lat="44.7462" lon="5.04793">
        <ele>382</ele>
        <time>2020-02-07T09:55:46.000Z</time>
      </trkpt>
      <trkpt lat="44.7462" lon="5.04793">
        <ele>382</ele>
        <time>2020-02-07T09:55:47.000Z</time>
      </trkpt>
      <trkpt lat="44.74621" lon="5.04792">
        <ele>382</ele>
        <time>2020-02-07T09:55:48.000Z</time>
      </trkpt>
      <trkpt lat="44.74622" lon="5.04792">
        <ele>382</ele>
        <time>2020-02-07T09:55:49.000Z</time>
      </trkpt>
      <trkpt lat="44.74622" lon="5.04792">
        <ele>382</ele>
        <time>2020-02-07T09:55:50.000Z</time>
      </trkpt>
      <trkpt lat="44.74622" lon="5.04792">
        <ele>382</ele>
        <time>2020-02-07T09:55:51.000Z</time>
      </trkpt>
      <trkpt lat="44.74622" lon="5.04792">
        <ele>382</ele>
        <time>2020-02-07T09:55:52.000Z</time>
      </trkpt>
      <trkpt lat="44.74623" lon="5.04792">
        <ele>382</ele>
        <time>2020-02-07T09:55:53.000Z</time>
      </trkpt>
      <trkpt lat="44.74623" lon="5.04792">
        <ele>382</ele>
        <time>2020-02-07T09:55:54.000Z</time>
      </trkpt>
      <trkpt lat="44.74623" lon="5.04792">
        <ele>382</ele>
        <time>2020-02-07T09:55:55.000Z</time>
      </trkpt>
      <trkpt lat="44.74623" lon="5.04792">
        <ele>382</ele>
        <time>2020-02-07T09:55:56.000Z</time>
      </trkpt>
      <trkpt lat="44.74623" lon="5.04792">
        <ele>382</ele>
        <time>2020-02-07T09:55:57.000Z</time>
      </trkpt>
      <trkpt lat="44.74623" lon="5.04792">
        <ele>382</ele>
        <time>2020-02-07T09:55:58.000Z</time>
      </trkpt>
      <trkpt lat="44.74623" lon="5.04792">
        <ele>382</ele>
        <time>2020-02-07T09:55:59.000Z</time>
      </trkpt>
      <trkpt lat="44.74623" lon="5.04793">
        <ele>382</ele>
        <time>2020-02-07T09:56:00.000Z</time>
      </trkpt>
      <trkpt lat="44.74624" lon="5.04793">
        <ele>382</ele>
        <time>2020-02-07T09:56:01.000Z</time>
      </trkpt>
      <trkpt lat="44.74624" lon="5.04794">
        <ele>382</ele>
        <time>2020-02-07T09:56:02.000Z</time>
      </trkpt>
      <trkpt lat="44.74624" lon="5.04795">
        <ele>382</ele>
        <time>2020-02-07T09:56:03.000Z</time>
      </trkpt>
      <trkpt lat="44.74625" lon="5.04796">
        <ele>382</ele>
        <time>2020-02-07T09:56:04.000Z</time>
      </trkpt>
      <trkpt lat="44.74625" lon="5.04797">
        <ele>382</ele>
        <time>2020-02-07T09:56:05.000Z</time>
      </trkpt>
      <trkpt lat="44.74626" lon="5.04797">
        <ele>382</ele>
        <time>2020-02-07T09:56:06.000Z</time>
      </trkpt>
      <trkpt lat="44.74626" lon="5.04798">
        <ele>382</ele>
        <time>2020-02-07T09:56:07.000Z</time>
      </trkpt>
      <trkpt lat="44.74626" lon="5.04798">
        <ele>382</ele>
        <time>2020-02-07T09:56:08.000Z</time>
      </trkpt>
      <trkpt lat="44.74627" lon="5.04799">
        <ele>382</ele>
        <time>2020-02-07T09:56:09.000Z</time>
      </trkpt>
      <trkpt lat="44.74627" lon="5.04799">
        <ele>382</ele>
        <time>2020-02-07T09:56:10.000Z</time>
      </trkpt>
      <trkpt lat="44.74627" lon="5.04799">
        <ele>382</ele>
        <time>2020-02-07T09:56:11.000Z</time>
      </trkpt>
      <trkpt lat="44.74628" lon="5.04799">
        <ele>381</ele>
        <time>2020-02-07T09:56:12.000Z</time>
      </trkpt>
      <trkpt lat="44.74628" lon="5.04799">
        <ele>381</ele>
        <time>2020-02-07T09:56:13.000Z</time>
      </trkpt>
      <trkpt lat="44.74628" lon="5.04799">
        <ele>381</ele>
        <time>2020-02-07T09:56:14.000Z</time>
      </trkpt>
      <trkpt lat="44.74628" lon="5.04799">
        <ele>381</ele>
        <time>2020-02-07T09:56:15.000Z</time>
      </trkpt>
      <trkpt lat="44.74628" lon="5.04799">
        <ele>381</ele>
        <time>2020-02-07T09:56:16.000Z</time>
      </trkpt>
      <trkpt lat="44.74629" lon="5.04799">
        <ele>381</ele>
        <time>2020-02-07T09:56:17.000Z</time>
      </trkpt>
      <trkpt lat="44.74629" lon="5.04799">
        <ele>381</ele>
        <time>2020-02-07T09:56:18.000Z</time>
      </trkpt>
      <trkpt lat="44.7463" lon="5.04799">
        <ele>381</ele>
        <time>2020-02-07T09:56:19.000Z</time>
      </trkpt>
      <trkpt lat="44.74631" lon="5.04798">
        <ele>381</ele>
        <time>2020-02-07T09:56:20.000Z</time>
      </trkpt>
      <trkpt lat="44.74631" lon="5.04798">
        <ele>381</ele>
        <time>2020-02-07T09:56:21.000Z</time>
      </trkpt>
      <trkpt lat="44.74632" lon="5.04798">
        <ele>381</ele>
        <time>2020-02-07T09:56:22.000Z</time>
      </trkpt>
      <trkpt lat="44.74633" lon="5.04798">
        <ele>381</ele>
        <time>2020-02-07T09:56:23.000Z</time>
      </trkpt>
      <trkpt lat="44.74633" lon="5.04799">
        <ele>381</ele>
        <time>2020-02-07T09:56:24.000Z</time>
      </trkpt>
      <trkpt lat="44.74634" lon="5.048">
        <ele>381</ele>
        <time>2020-02-07T09:56:25.000Z</time>
      </trkpt>
      <trkpt lat="44.74634" lon="5.048">
        <ele>381</ele>
        <time>2020-02-07T09:56:26.000Z</time>
      </trkpt>
      <trkpt lat="44.74634" lon="5.048">
        <ele>381</ele>
        <time>2020-02-07T09:56:27.000Z</time>
      </trkpt>
      <trkpt lat="44.74634" lon="5.048">
        <ele>381</ele>
        <time>2020-02-07T09:56:28.000Z</time>
      </trkpt>
      <trkpt lat="44.74634" lon="5.048">
        <ele>381</ele>
        <time>2020-02-07T09:56:29.000Z</time>
      </trkpt>
      <trkpt lat="44.74634" lon="5.048">
        <ele>381</ele>
        <time>2020-02-07T09:56:30.000Z</time>
      </trkpt>
      <trkpt lat="44.74634" lon="5.048">
        <ele>381</ele>
        <time>2020-02-07T09:56:31.000Z</time>
      </trkpt>
      <trkpt lat="44.74634" lon="5.048">
        <ele>381</ele>
        <time>2020-02-07T09:56:32.000Z</time>
      </trkpt>
      <trkpt lat="44.74634" lon="5.048">
        <ele>381</ele>
        <time>2020-02-07T09:56:33.000Z</time>
      </trkpt>
      <trkpt lat="44.74634" lon="5.048">
        <ele>381</ele>
        <time>2020-02-07T09:56:34.000Z</time>
      </trkpt>
      <trkpt lat="44.74634" lon="5.048">
        <ele>382</ele>
        <time>2020-02-07T09:56:35.000Z</time>
      </trkpt>
      <trkpt lat="44.74634" lon="5.04801">
        <ele>382</ele>
        <time>2020-02-07T09:56:36.000Z</time>
      </trkpt>
      <trkpt lat="44.74634" lon="5.04801">
        <ele>382</ele>
        <time>2020-02-07T09:56:37.000Z</time>
      </trkpt>
      <trkpt lat="44.74634" lon="5.04801">
        <ele>382</ele>
        <time>2020-02-07T09:56:38.000Z</time>
      </trkpt>
      <trkpt lat="44.74634" lon="5.04801">
        <ele>382</ele>
        <time>2020-02-07T09:56:39.000Z</time>
      </trkpt>
      <trkpt lat="44.74634" lon="5.04801">
        <ele>382</ele>
        <time>2020-02-07T09:56:40.000Z</time>
      </trkpt>
      <trkpt lat="44.74634" lon="5.04801">
        <ele>382</ele>
        <time>2020-02-07T09:56:41.000Z</time>
      </trkpt>
      <trkpt lat="44.74634" lon="5.04801">
        <ele>382</ele>
        <time>2020-02-07T09:56:42.000Z</time>
      </trkpt>
      <trkpt lat="44.74634" lon="5.04801">
        <ele>382</ele>
        <time>2020-02-07T09:56:43.000Z</time>
      </trkpt>
      <trkpt lat="44.74635" lon="5.04801">
        <ele>382</ele>
        <time>2020-02-07T09:56:44.000Z</time>
      </trkpt>
      <trkpt lat="44.74635" lon="5.04801">
        <ele>382</ele>
        <time>2020-02-07T09:56:45.000Z</time>
      </trkpt>
      <trkpt lat="44.74635" lon="5.04801">
        <ele>382</ele>
        <time>2020-02-07T09:56:46.000Z</time>
      </trkpt>
      <trkpt lat="44.74635" lon="5.04801">
        <ele>382</ele>
        <time>2020-02-07T09:56:47.000Z</time>
      </trkpt>
      <trkpt lat="44.74635" lon="5.04801">
        <ele>382</ele>
        <time>2020-02-07T09:56:48.000Z</time>
      </trkpt>
      <trkpt lat="44.74635" lon="5.04801">
        <ele>382</ele>
        <time>2020-02-07T09:56:49.000Z</time>
      </trkpt>
      <trkpt lat="44.74635" lon="5.04801">
        <ele>382</ele>
        <time>2020-02-07T09:56:50.000Z</time>
      </trkpt>
      <trkpt lat="44.74635" lon="5.04801">
        <ele>382</ele>
        <time>2020-02-07T09:56:51.000Z</time>
      </trkpt>
      <trkpt lat="44.74635" lon="5.04801">
        <ele>382</ele>
        <time>2020-02-07T09:56:52.000Z</time>
      </trkpt>
      <trkpt lat="44.74635" lon="5.04801">
        <ele>382</ele>
        <time>2020-02-07T09:56:53.000Z</time>
      </trkpt>
      <trkpt lat="44.74635" lon="5.04801">
        <ele>383</ele>
        <time>2020-02-07T09:56:54.000Z</time>
      </trkpt>
      <trkpt lat="44.74635" lon="5.04801">
        <ele>383</ele>
        <time>2020-02-07T09:56:55.000Z</time>
      </trkpt>
      <trkpt lat="44.74635" lon="5.04801">
        <ele>383</ele>
        <time>2020-02-07T09:56:56.000Z</time>
      </trkpt>
      <trkpt lat="44.74635" lon="5.04801">
        <ele>383</ele>
        <time>2020-02-07T09:56:57.000Z</time>
      </trkpt>
      <trkpt lat="44.74635" lon="5.04801">
        <ele>383</ele>
        <time>2020-02-07T09:56:58.000Z</time>
      </trkpt>
      <trkpt lat="44.74635" lon="5.04801">
        <ele>383</ele>
        <time>2020-02-07T09:56:59.000Z</time>
      </trkpt>
      <trkpt lat="44.74635" lon="5.04801">
        <ele>383</ele>
        <time>2020-02-07T09:57:00.000Z</time>
      </trkpt>
      <trkpt lat="44.74634" lon="5.04801">
        <ele>383</ele>
        <time>2020-02-07T09:57:01.000Z</time>
      </trkpt>
      <trkpt lat="44.74634" lon="5.04801">
        <ele>383</ele>
        <time>2020-02-07T09:57:02.000Z</time>
      </trkpt>
      <trkpt lat="44.74634" lon="5.04801">
        <ele>383</ele>
        <time>2020-02-07T09:57:03.000Z</time>
      </trkpt>
      <trkpt lat="44.74634" lon="5.04801">
        <ele>383</ele>
        <time>2020-02-07T09:57:04.000Z</time>
      </trkpt>
      <trkpt lat="44.74634" lon="5.04801">
        <ele>383</ele>
        <time>2020-02-07T09:57:05.000Z</time>
      </trkpt>
      <trkpt lat="44.74634" lon="5.04801">
        <ele>383</ele>
        <time>2020-02-07T09:57:06.000Z</time>
      </trkpt>
      <trkpt lat="44.74634" lon="5.04801">
        <ele>383</ele>
        <time>2020-02-07T09:57:07.000Z</time>
      </trkpt>
      <trkpt lat="44.74634" lon="5.04801">
        <ele>383</ele>
        <time>2020-02-07T09:57:08.000Z</time>
      </trkpt>
      <trkpt lat="44.74634" lon="5.04801">
        <ele>383</ele>
        <time>2020-02-07T09:57:09.000Z</time>
      </trkpt>
      <trkpt lat="44.74634" lon="5.04801">
        <ele>383</ele>
        <time>2020-02-07T09:57:10.000Z</time>
      </trkpt>
      <trkpt lat="44.74634" lon="5.04801">
        <ele>383</ele>
        <time>2020-02-07T09:57:11.000Z</time>
      </trkpt>
      <trkpt lat="44.74634" lon="5.04801">
        <ele>383</ele>
        <time>2020-02-07T09:57:12.000Z</time>
      </trkpt>
      <trkpt lat="44.74634" lon="5.04801">
        <ele>383</ele>
        <time>2020-02-07T09:57:13.000Z</time>
      </trkpt>
      <trkpt lat="44.74634" lon="5.04801">
        <ele>383</ele>
        <time>2020-02-07T09:57:14.000Z</time>
      </trkpt>
      <trkpt lat="44.74634" lon="5.04801">
        <ele>383</ele>
        <time>2020-02-07T09:57:15.000Z</time>
      </trkpt>
      <trkpt lat="44.74634" lon="5.04801">
        <ele>383</ele>
        <time>2020-02-07T09:57:16.000Z</time>
      </trkpt>
      <trkpt lat="44.74634" lon="5.04801">
        <ele>383</ele>
        <time>2020-02-07T09:57:17.000Z</time>
      </trkpt>
      <trkpt lat="44.74634" lon="5.048">
        <ele>383</ele>
        <time>2020-02-07T09:57:18.000Z</time>
      </trkpt>
      <trkpt lat="44.74634" lon="5.048">
        <ele>383</ele>
        <time>2020-02-07T09:57:19.000Z</time>
      </trkpt>
      <trkpt lat="44.74634" lon="5.04799">
        <ele>383</ele>
        <time>2020-02-07T09:57:20.000Z</time>
      </trkpt>
      <trkpt lat="44.74635" lon="5.04798">
        <ele>382</ele>
        <time>2020-02-07T09:57:21.000Z</time>
      </trkpt>
      <trkpt lat="44.74635" lon="5.04798">
        <ele>382</ele>
        <time>2020-02-07T09:57:22.000Z</time>
      </trkpt>
      <trkpt lat="44.74636" lon="5.04798">
        <ele>382</ele>
        <time>2020-02-07T09:57:23.000Z</time>
      </trkpt>
      <trkpt lat="44.74636" lon="5.04797">
        <ele>382</ele>
        <time>2020-02-07T09:57:24.000Z</time>
      </trkpt>
      <trkpt lat="44.74637" lon="5.04797">
        <ele>382</ele>
        <time>2020-02-07T09:57:25.000Z</time>
      </trkpt>
      <trkpt lat="44.74638" lon="5.04798">
        <ele>382</ele>
        <time>2020-02-07T09:57:26.000Z</time>
      </trkpt>
      <trkpt lat="44.74638" lon="5.04798">
        <ele>382</ele>
        <time>2020-02-07T09:57:27.000Z</time>
      </trkpt>
      <trkpt lat="44.74638" lon="5.04798">
        <ele>382</ele>
        <time>2020-02-07T09:57:28.000Z</time>
      </trkpt>
      <trkpt lat="44.74638" lon="5.04798">
        <ele>382</ele>
        <time>2020-02-07T09:57:29.000Z</time>
      </trkpt>
      <trkpt lat="44.74638" lon="5.04798">
        <ele>382</ele>
        <time>2020-02-07T09:57:30.000Z</time>
      </trkpt>
      <trkpt lat="44.74638" lon="5.04798">
        <ele>382</ele>
        <time>2020-02-07T09:57:31.000Z</time>
      </trkpt>
      <trkpt lat="44.74638" lon="5.04798">
        <ele>382</ele>
        <time>2020-02-07T09:57:32.000Z</time>
      </trkpt>
      <trkpt lat="44.74638" lon="5.04798">
        <ele>382</ele>
        <time>2020-02-07T09:57:33.000Z</time>
      </trkpt>
      <trkpt lat="44.74638" lon="5.04798">
        <ele>382</ele>
        <time>2020-02-07T09:57:34.000Z</time>
      </trkpt>
      <trkpt lat="44.74639" lon="5.04798">
        <ele>382</ele>
        <time>2020-02-07T09:57:35.000Z</time>
      </trkpt>
      <trkpt lat="44.74639" lon="5.04799">
        <ele>382</ele>
        <time>2020-02-07T09:57:36.000Z</time>
      </trkpt>
      <trkpt lat="44.74639" lon="5.04799">
        <ele>382</ele>
        <time>2020-02-07T09:57:37.000Z</time>
      </trkpt>
      <trkpt lat="44.74639" lon="5.04799">
        <ele>382</ele>
        <time>2020-02-07T09:57:38.000Z</time>
      </trkpt>
      <trkpt lat="44.74639" lon="5.04798">
        <ele>382</ele>
        <time>2020-02-07T09:57:39.000Z</time>
      </trkpt>
      <trkpt lat="44.74639" lon="5.04798">
        <ele>382</ele>
        <time>2020-02-07T09:57:40.000Z</time>
      </trkpt>
      <trkpt lat="44.74639" lon="5.04798">
        <ele>382</ele>
        <time>2020-02-07T09:57:41.000Z</time>
      </trkpt>
      <trkpt lat="44.74639" lon="5.04798">
        <ele>382</ele>
        <time>2020-02-07T09:57:42.000Z</time>
      </trkpt>
      <trkpt lat="44.74639" lon="5.04798">
        <ele>382</ele>
        <time>2020-02-07T09:57:43.000Z</time>
      </trkpt>
      <trkpt lat="44.74639" lon="5.04798">
        <ele>382</ele>
        <time>2020-02-07T09:57:44.000Z</time>
      </trkpt>
      <trkpt lat="44.74639" lon="5.04799">
        <ele>382</ele>
        <time>2020-02-07T09:57:45.000Z</time>
      </trkpt>
      <trkpt lat="44.74639" lon="5.04799">
        <ele>382</ele>
        <time>2020-02-07T09:57:46.000Z</time>
      </trkpt>
      <trkpt lat="44.74639" lon="5.04799">
        <ele>382</ele>
        <time>2020-02-07T09:57:47.000Z</time>
      </trkpt>
      <trkpt lat="44.74639" lon="5.04799">
        <ele>382</ele>
        <time>2020-02-07T09:57:48.000Z</time>
      </trkpt>
      <trkpt lat="44.74639" lon="5.04798">
        <ele>382</ele>
        <time>2020-02-07T09:57:49.000Z</time>
      </trkpt>
      <trkpt lat="44.74639" lon="5.04798">
        <ele>382</ele>
        <time>2020-02-07T09:57:50.000Z</time>
      </trkpt>
      <trkpt lat="44.74639" lon="5.04798">
        <ele>382</ele>
        <time>2020-02-07T09:57:51.000Z</time>
      </trkpt>
      <trkpt lat="44.74639" lon="5.04798">
        <ele>382</ele>
        <time>2020-02-07T09:57:52.000Z</time>
      </trkpt>
      <trkpt lat="44.74639" lon="5.04798">
        <ele>382</ele>
        <time>2020-02-07T09:57:53.000Z</time>
      </trkpt>
      <trkpt lat="44.74639" lon="5.04798">
        <ele>382</ele>
        <time>2020-02-07T09:57:54.000Z</time>
      </trkpt>
      <trkpt lat="44.74639" lon="5.04798">
        <ele>382</ele>
        <time>2020-02-07T09:57:55.000Z</time>
      </trkpt>
      <trkpt lat="44.74639" lon="5.04798">
        <ele>382</ele>
        <time>2020-02-07T09:57:56.000Z</time>
      </trkpt>
      <trkpt lat="44.74639" lon="5.04798">
        <ele>382</ele>
        <time>2020-02-07T09:57:57.000Z</time>
      </trkpt>
      <trkpt lat="44.74639" lon="5.04798">
        <ele>382</ele>
        <time>2020-02-07T09:57:58.000Z</time>
      </trkpt>
      <trkpt lat="44.74639" lon="5.04798">
        <ele>382</ele>
        <time>2020-02-07T09:57:59.000Z</time>
      </trkpt>
      <trkpt lat="44.74639" lon="5.04798">
        <ele>382</ele>
        <time>2020-02-07T09:58:00.000Z</time>
      </trkpt>
      <trkpt lat="44.74639" lon="5.04798">
        <ele>382</ele>
        <time>2020-02-07T09:58:01.000Z</time>
      </trkpt>
      <trkpt lat="44.74639" lon="5.04798">
        <ele>382</ele>
        <time>2020-02-07T09:58:02.000Z</time>
      </trkpt>
      <trkpt lat="44.74639" lon="5.04798">
        <ele>382</ele>
        <time>2020-02-07T09:58:03.000Z</time>
      </trkpt>
      <trkpt lat="44.7464" lon="5.04798">
        <ele>382</ele>
        <time>2020-02-07T09:58:04.000Z</time>
      </trkpt>
      <trkpt lat="44.74639" lon="5.04799">
        <ele>382</ele>
        <time>2020-02-07T09:58:05.000Z</time>
      </trkpt>
      <trkpt lat="44.74639" lon="5.04799">
        <ele>382</ele>
        <time>2020-02-07T09:58:06.000Z</time>
      </trkpt>
      <trkpt lat="44.74639" lon="5.04799">
        <ele>382</ele>
        <time>2020-02-07T09:58:07.000Z</time>
      </trkpt>
      <trkpt lat="44.74639" lon="5.04799">
        <ele>382</ele>
        <time>2020-02-07T09:58:08.000Z</time>
      </trkpt>
      <trkpt lat="44.74639" lon="5.04799">
        <ele>382</ele>
        <time>2020-02-07T09:58:09.000Z</time>
      </trkpt>
      <trkpt lat="44.74639" lon="5.04799">
        <ele>382</ele>
        <time>2020-02-07T09:58:10.000Z</time>
      </trkpt>
      <trkpt lat="44.74639" lon="5.048">
        <ele>382</ele>
        <time>2020-02-07T09:58:11.000Z</time>
      </trkpt>
      <trkpt lat="44.74639" lon="5.048">
        <ele>382</ele>
        <time>2020-02-07T09:58:12.000Z</time>
      </trkpt>
      <trkpt lat="44.7464" lon="5.04799">
        <ele>382</ele>
        <time>2020-02-07T09:58:13.000Z</time>
      </trkpt>
      <trkpt lat="44.74639" lon="5.04799">
        <ele>382</ele>
        <time>2020-02-07T09:58:14.000Z</time>
      </trkpt>
      <trkpt lat="44.74639" lon="5.048">
        <ele>382</ele>
        <time>2020-02-07T09:58:15.000Z</time>
      </trkpt>
      <trkpt lat="44.74639" lon="5.048">
        <ele>382</ele>
        <time>2020-02-07T09:58:16.000Z</time>
      </trkpt>
      <trkpt lat="44.74639" lon="5.048">
        <ele>382</ele>
        <time>2020-02-07T09:58:17.000Z</time>
      </trkpt>
      <trkpt lat="44.7464" lon="5.04799">
        <ele>382</ele>
        <time>2020-02-07T09:58:18.000Z</time>
      </trkpt>
      <trkpt lat="44.7464" lon="5.04799">
        <ele>382</ele>
        <time>2020-02-07T09:58:19.000Z</time>
      </trkpt>
      <trkpt lat="44.7464" lon="5.04799">
        <ele>382</ele>
        <time>2020-02-07T09:58:20.000Z</time>
      </trkpt>
      <trkpt lat="44.7464" lon="5.048">
        <ele>382</ele>
        <time>2020-02-07T09:58:21.000Z</time>
      </trkpt>
      <trkpt lat="44.7464" lon="5.048">
        <ele>382</ele>
        <time>2020-02-07T09:58:22.000Z</time>
      </trkpt>
      <trkpt lat="44.74639" lon="5.048">
        <ele>382</ele>
        <time>2020-02-07T09:58:23.000Z</time>
      </trkpt>
      <trkpt lat="44.74639" lon="5.048">
        <ele>382</ele>
        <time>2020-02-07T09:58:24.000Z</time>
      </trkpt>
      <trkpt lat="44.74639" lon="5.048">
        <ele>382</ele>
        <time>2020-02-07T09:58:25.000Z</time>
      </trkpt>
      <trkpt lat="44.74639" lon="5.048">
        <ele>382</ele>
        <time>2020-02-07T09:58:26.000Z</time>
      </trkpt>
      <trkpt lat="44.74639" lon="5.048">
        <ele>382</ele>
        <time>2020-02-07T09:58:27.000Z</time>
      </trkpt>
      <trkpt lat="44.74639" lon="5.048">
        <ele>382</ele>
        <time>2020-02-07T09:58:28.000Z</time>
      </trkpt>
      <trkpt lat="44.74639" lon="5.048">
        <ele>382</ele>
        <time>2020-02-07T09:58:29.000Z</time>
      </trkpt>
      <trkpt lat="44.74639" lon="5.048">
        <ele>383</ele>
        <time>2020-02-07T09:58:30.000Z</time>
      </trkpt>
      <trkpt lat="44.74639" lon="5.048">
        <ele>383</ele>
        <time>2020-02-07T09:58:31.000Z</time>
      </trkpt>
      <trkpt lat="44.74639" lon="5.048">
        <ele>383</ele>
        <time>2020-02-07T09:58:32.000Z</time>
      </trkpt>
      <trkpt lat="44.74639" lon="5.048">
        <ele>383</ele>
        <time>2020-02-07T09:58:33.000Z</time>
      </trkpt>
      <trkpt lat="44.74639" lon="5.048">
        <ele>383</ele>
        <time>2020-02-07T09:58:34.000Z</time>
      </trkpt>
      <trkpt lat="44.74639" lon="5.048">
        <ele>383</ele>
        <time>2020-02-07T09:58:35.000Z</time>
      </trkpt>
      <trkpt lat="44.74639" lon="5.04801">
        <ele>383</ele>
        <time>2020-02-07T09:58:36.000Z</time>
      </trkpt>
      <trkpt lat="44.74639" lon="5.04801">
        <ele>383</ele>
        <time>2020-02-07T09:58:37.000Z</time>
      </trkpt>
      <trkpt lat="44.74639" lon="5.04802">
        <ele>383</ele>
        <time>2020-02-07T09:58:38.000Z</time>
      </trkpt>
      <trkpt lat="44.74639" lon="5.04802">
        <ele>383</ele>
        <time>2020-02-07T09:58:39.000Z</time>
      </trkpt>
      <trkpt lat="44.7464" lon="5.04802">
        <ele>383</ele>
        <time>2020-02-07T09:58:40.000Z</time>
      </trkpt>
      <trkpt lat="44.7464" lon="5.04802">
        <ele>383</ele>
        <time>2020-02-07T09:58:41.000Z</time>
      </trkpt>
      <trkpt lat="44.7464" lon="5.04802">
        <ele>383</ele>
        <time>2020-02-07T09:58:42.000Z</time>
      </trkpt>
      <trkpt lat="44.7464" lon="5.04802">
        <ele>383</ele>
        <time>2020-02-07T09:58:43.000Z</time>
      </trkpt>
      <trkpt lat="44.7464" lon="5.04803">
        <ele>383</ele>
        <time>2020-02-07T09:58:44.000Z</time>
      </trkpt>
      <trkpt lat="44.7464" lon="5.04803">
        <ele>383</ele>
        <time>2020-02-07T09:58:45.000Z</time>
      </trkpt>
      <trkpt lat="44.7464" lon="5.04803">
        <ele>383</ele>
        <time>2020-02-07T09:58:46.000Z</time>
      </trkpt>
      <trkpt lat="44.7464" lon="5.04803">
        <ele>383</ele>
        <time>2020-02-07T09:58:47.000Z</time>
      </trkpt>
      <trkpt lat="44.7464" lon="5.04803">
        <ele>383</ele>
        <time>2020-02-07T09:58:48.000Z</time>
      </trkpt>
      <trkpt lat="44.7464" lon="5.04803">
        <ele>383</ele>
        <time>2020-02-07T09:58:49.000Z</time>
      </trkpt>
      <trkpt lat="44.7464" lon="5.04803">
        <ele>383</ele>
        <time>2020-02-07T09:58:50.000Z</time>
      </trkpt>
      <trkpt lat="44.7464" lon="5.04803">
        <ele>383</ele>
        <time>2020-02-07T09:58:51.000Z</time>
      </trkpt>
      <trkpt lat="44.7464" lon="5.04803">
        <ele>383</ele>
        <time>2020-02-07T09:58:52.000Z</time>
      </trkpt>
      <trkpt lat="44.7464" lon="5.04803">
        <ele>383</ele>
        <time>2020-02-07T09:58:53.000Z</time>
      </trkpt>
      <trkpt lat="44.7464" lon="5.04803">
        <ele>383</ele>
        <time>2020-02-07T09:58:54.000Z</time>
      </trkpt>
      <trkpt lat="44.7464" lon="5.04803">
        <ele>383</ele>
        <time>2020-02-07T09:58:55.000Z</time>
      </trkpt>
      <trkpt lat="44.7464" lon="5.04803">
        <ele>383</ele>
        <time>2020-02-07T09:58:56.000Z</time>
      </trkpt>
      <trkpt lat="44.7464" lon="5.04803">
        <ele>383</ele>
        <time>2020-02-07T09:58:57.000Z</time>
      </trkpt>
      <trkpt lat="44.7464" lon="5.04803">
        <ele>383</ele>
        <time>2020-02-07T09:58:58.000Z</time>
      </trkpt>
      <trkpt lat="44.7464" lon="5.04803">
        <ele>383</ele>
        <time>2020-02-07T09:58:59.000Z</time>
      </trkpt>
      <trkpt lat="44.7464" lon="5.04803">
        <ele>383</ele>
        <time>2020-02-07T09:59:00.000Z</time>
      </trkpt>
      <trkpt lat="44.7464" lon="5.04803">
        <ele>383</ele>
        <time>2020-02-07T09:59:01.000Z</time>
      </trkpt>
      <trkpt lat="44.7464" lon="5.04802">
        <ele>383</ele>
        <time>2020-02-07T09:59:02.000Z</time>
      </trkpt>
      <trkpt lat="44.7464" lon="5.04802">
        <ele>383</ele>
        <time>2020-02-07T09:59:03.000Z</time>
      </trkpt>
      <trkpt lat="44.7464" lon="5.04802">
        <ele>383</ele>
        <time>2020-02-07T09:59:04.000Z</time>
      </trkpt>
      <trkpt lat="44.7464" lon="5.04802">
        <ele>383</ele>
        <time>2020-02-07T09:59:05.000Z</time>
      </trkpt>
      <trkpt lat="44.7464" lon="5.04801">
        <ele>383</ele>
        <time>2020-02-07T09:59:06.000Z</time>
      </trkpt>
      <trkpt lat="44.7464" lon="5.04801">
        <ele>383</ele>
        <time>2020-02-07T09:59:07.000Z</time>
      </trkpt>
      <trkpt lat="44.7464" lon="5.04801">
        <ele>383</ele>
        <time>2020-02-07T09:59:08.000Z</time>
      </trkpt>
      <trkpt lat="44.7464" lon="5.04801">
        <ele>383</ele>
        <time>2020-02-07T09:59:09.000Z</time>
      </trkpt>
      <trkpt lat="44.7464" lon="5.04801">
        <ele>383</ele>
        <time>2020-02-07T09:59:10.000Z</time>
      </trkpt>
      <trkpt lat="44.7464" lon="5.04801">
        <ele>383</ele>
        <time>2020-02-07T09:59:11.000Z</time>
      </trkpt>
      <trkpt lat="44.7464" lon="5.048">
        <ele>383</ele>
        <time>2020-02-07T09:59:12.000Z</time>
      </trkpt>
      <trkpt lat="44.7464" lon="5.048">
        <ele>383</ele>
        <time>2020-02-07T09:59:13.000Z</time>
      </trkpt>
      <trkpt lat="44.7464" lon="5.048">
        <ele>383</ele>
        <time>2020-02-07T09:59:14.000Z</time>
      </trkpt>
      <trkpt lat="44.7464" lon="5.048">
        <ele>383</ele>
        <time>2020-02-07T09:59:15.000Z</time>
      </trkpt>
      <trkpt lat="44.7464" lon="5.048">
        <ele>382</ele>
        <time>2020-02-07T09:59:16.000Z</time>
      </trkpt>
      <trkpt lat="44.7464" lon="5.048">
        <ele>382</ele>
        <time>2020-02-07T09:59:17.000Z</time>
      </trkpt>
      <trkpt lat="44.7464" lon="5.048">
        <ele>382</ele>
        <time>2020-02-07T09:59:18.000Z</time>
      </trkpt>
      <trkpt lat="44.7464" lon="5.048">
        <ele>382</ele>
        <time>2020-02-07T09:59:19.000Z</time>
      </trkpt>
      <trkpt lat="44.7464" lon="5.048">
        <ele>382</ele>
        <time>2020-02-07T09:59:20.000Z</time>
      </trkpt>
      <trkpt lat="44.7464" lon="5.04799">
        <ele>382</ele>
        <time>2020-02-07T09:59:21.000Z</time>
      </trkpt>
      <trkpt lat="44.7464" lon="5.04799">
        <ele>382</ele>
        <time>2020-02-07T09:59:22.000Z</time>
      </trkpt>
      <trkpt lat="44.7464" lon="5.04799">
        <ele>382</ele>
        <time>2020-02-07T09:59:23.000Z</time>
      </trkpt>
      <trkpt lat="44.7464" lon="5.04799">
        <ele>382</ele>
        <time>2020-02-07T09:59:24.000Z</time>
      </trkpt>
      <trkpt lat="44.74639" lon="5.04799">
        <ele>382</ele>
        <time>2020-02-07T09:59:25.000Z</time>
      </trkpt>
      <trkpt lat="44.74639" lon="5.04799">
        <ele>382</ele>
        <time>2020-02-07T09:59:26.000Z</time>
      </trkpt>
      <trkpt lat="44.74639" lon="5.04799">
        <ele>382</ele>
        <time>2020-02-07T09:59:27.000Z</time>
      </trkpt>
      <trkpt lat="44.74639" lon="5.04799">
        <ele>382</ele>
        <time>2020-02-07T09:59:28.000Z</time>
      </trkpt>
      <trkpt lat="44.74639" lon="5.04799">
        <ele>382</ele>
        <time>2020-02-07T09:59:29.000Z</time>
      </trkpt>
      <trkpt lat="44.74639" lon="5.04799">
        <ele>382</ele>
        <time>2020-02-07T09:59:30.000Z</time>
      </trkpt>
      <trkpt lat="44.74638" lon="5.04799">
        <ele>382</ele>
        <time>2020-02-07T09:59:31.000Z</time>
      </trkpt>
      <trkpt lat="44.74638" lon="5.04799">
        <ele>382</ele>
        <time>2020-02-07T09:59:32.000Z</time>
      </trkpt>
      <trkpt lat="44.74638" lon="5.04799">
        <ele>382</ele>
        <time>2020-02-07T09:59:33.000Z</time>
      </trkpt>
      <trkpt lat="44.74638" lon="5.04798">
        <ele>382</ele>
        <time>2020-02-07T09:59:34.000Z</time>
      </trkpt>
      <trkpt lat="44.74638" lon="5.04799">
        <ele>382</ele>
        <time>2020-02-07T09:59:35.000Z</time>
      </trkpt>
      <trkpt lat="44.74638" lon="5.04799">
        <ele>382</ele>
        <time>2020-02-07T09:59:36.000Z</time>
      </trkpt>
      <trkpt lat="44.74638" lon="5.04799">
        <ele>383</ele>
        <time>2020-02-07T09:59:37.000Z</time>
      </trkpt>
      <trkpt lat="44.74637" lon="5.04799">
        <ele>383</ele>
        <time>2020-02-07T09:59:38.000Z</time>
      </trkpt>
      <trkpt lat="44.74637" lon="5.04799">
        <ele>383</ele>
        <time>2020-02-07T09:59:39.000Z</time>
      </trkpt>
      <trkpt lat="44.74637" lon="5.04799">
        <ele>383</ele>
        <time>2020-02-07T09:59:40.000Z</time>
      </trkpt>
      <trkpt lat="44.74637" lon="5.04799">
        <ele>383</ele>
        <time>2020-02-07T09:59:41.000Z</time>
      </trkpt>
      <trkpt lat="44.74637" lon="5.04799">
        <ele>383</ele>
        <time>2020-02-07T09:59:42.000Z</time>
      </trkpt>
      <trkpt lat="44.74637" lon="5.04799">
        <ele>383</ele>
        <time>2020-02-07T09:59:43.000Z</time>
      </trkpt>
      <trkpt lat="44.74637" lon="5.04799">
        <ele>383</ele>
        <time>2020-02-07T09:59:44.000Z</time>
      </trkpt>
      <trkpt lat="44.74637" lon="5.04799">
        <ele>383</ele>
        <time>2020-02-07T09:59:45.000Z</time>
      </trkpt>
      <trkpt lat="44.74637" lon="5.04799">
        <ele>383</ele>
        <time>2020-02-07T09:59:46.000Z</time>
      </trkpt>
      <trkpt lat="44.74636" lon="5.04799">
        <ele>383</ele>
        <time>2020-02-07T09:59:47.000Z</time>
      </trkpt>
      <trkpt lat="44.74636" lon="5.04799">
        <ele>383</ele>
        <time>2020-02-07T09:59:48.000Z</time>
      </trkpt>
      <trkpt lat="44.74636" lon="5.04799">
        <ele>383</ele>
        <time>2020-02-07T09:59:49.000Z</time>
      </trkpt>
      <trkpt lat="44.74636" lon="5.04799">
        <ele>383</ele>
        <time>2020-02-07T09:59:50.000Z</time>
      </trkpt>
      <trkpt lat="44.74636" lon="5.04799">
        <ele>383</ele>
        <time>2020-02-07T09:59:51.000Z</time>
      </trkpt>
      <trkpt lat="44.74637" lon="5.04799">
        <ele>383</ele>
        <time>2020-02-07T09:59:52.000Z</time>
      </trkpt>
      <trkpt lat="44.74637" lon="5.04799">
        <ele>383</ele>
        <time>2020-02-07T09:59:53.000Z</time>
      </trkpt>
      <trkpt lat="44.74638" lon="5.04799">
        <ele>383</ele>
        <time>2020-02-07T09:59:54.000Z</time>
      </trkpt>
      <trkpt lat="44.74638" lon="5.04799">
        <ele>383</ele>
        <time>2020-02-07T09:59:55.000Z</time>
      </trkpt>
      <trkpt lat="44.74639" lon="5.04799">
        <ele>383</ele>
        <time>2020-02-07T09:59:56.000Z</time>
      </trkpt>
      <trkpt lat="44.7464" lon="5.04799">
        <ele>383</ele>
        <time>2020-02-07T09:59:57.000Z</time>
      </trkpt>
      <trkpt lat="44.7464" lon="5.04799">
        <ele>383</ele>
        <time>2020-02-07T09:59:58.000Z</time>
      </trkpt>
      <trkpt lat="44.74641" lon="5.04799">
        <ele>383</ele>
        <time>2020-02-07T09:59:59.000Z</time>
      </trkpt>
      <trkpt lat="44.74642" lon="5.04799">
        <ele>383</ele>
        <time>2020-02-07T10:00:00.000Z</time>
      </trkpt>
      <trkpt lat="44.74643" lon="5.04799">
        <ele>383</ele>
        <time>2020-02-07T10:00:01.000Z</time>
      </trkpt>
      <trkpt lat="44.74644" lon="5.04799">
        <ele>383</ele>
        <time>2020-02-07T10:00:02.000Z</time>
      </trkpt>
      <trkpt lat="44.74645" lon="5.04799">
        <ele>383</ele>
        <time>2020-02-07T10:00:03.000Z</time>
      </trkpt>
      <trkpt lat="44.74646" lon="5.04799">
        <ele>383</ele>
        <time>2020-02-07T10:00:04.000Z</time>
      </trkpt>
      <trkpt lat="44.74647" lon="5.04799">
        <ele>384</ele>
        <time>2020-02-07T10:00:05.000Z</time>
      </trkpt>
      <trkpt lat="44.74648" lon="5.04799">
        <ele>384</ele>
        <time>2020-02-07T10:00:06.000Z</time>
      </trkpt>
      <trkpt lat="44.74649" lon="5.04799">
        <ele>384</ele>
        <time>2020-02-07T10:00:07.000Z</time>
      </trkpt>
      <trkpt lat="44.7465" lon="5.048">
        <ele>384</ele>
        <time>2020-02-07T10:00:08.000Z</time>
      </trkpt>
      <trkpt lat="44.74651" lon="5.048">
        <ele>384</ele>
        <time>2020-02-07T10:00:09.000Z</time>
      </trkpt>
      <trkpt lat="44.74652" lon="5.048">
        <ele>384</ele>
        <time>2020-02-07T10:00:10.000Z</time>
      </trkpt>
      <trkpt lat="44.74652" lon="5.04801">
        <ele>384</ele>
        <time>2020-02-07T10:00:11.000Z</time>
      </trkpt>
      <trkpt lat="44.74653" lon="5.04801">
        <ele>384</ele>
        <time>2020-02-07T10:00:12.000Z</time>
      </trkpt>
      <trkpt lat="44.74654" lon="5.04802">
        <ele>385</ele>
        <time>2020-02-07T10:00:13.000Z</time>
      </trkpt>
      <trkpt lat="44.74655" lon="5.04802">
        <ele>385</ele>
        <time>2020-02-07T10:00:14.000Z</time>
      </trkpt>
      <trkpt lat="44.74656" lon="5.04802">
        <ele>385</ele>
        <time>2020-02-07T10:00:15.000Z</time>
      </trkpt>
      <trkpt lat="44.74657" lon="5.04802">
        <ele>385</ele>
        <time>2020-02-07T10:00:16.000Z</time>
      </trkpt>
      <trkpt lat="44.74658" lon="5.04802">
        <ele>385</ele>
        <time>2020-02-07T10:00:17.000Z</time>
      </trkpt>
      <trkpt lat="44.74658" lon="5.04802">
        <ele>385</ele>
        <time>2020-02-07T10:00:18.000Z</time>
      </trkpt>
      <trkpt lat="44.74659" lon="5.04802">
        <ele>385</ele>
        <time>2020-02-07T10:00:19.000Z</time>
      </trkpt>
      <trkpt lat="44.7466" lon="5.04802">
        <ele>385</ele>
        <time>2020-02-07T10:00:20.000Z</time>
      </trkpt>
      <trkpt lat="44.74661" lon="5.04802">
        <ele>385</ele>
        <time>2020-02-07T10:00:21.000Z</time>
      </trkpt>
      <trkpt lat="44.74662" lon="5.04802">
        <ele>385</ele>
        <time>2020-02-07T10:00:22.000Z</time>
      </trkpt>
      <trkpt lat="44.74663" lon="5.04802">
        <ele>385</ele>
        <time>2020-02-07T10:00:23.000Z</time>
      </trkpt>
      <trkpt lat="44.74664" lon="5.04802">
        <ele>385</ele>
        <time>2020-02-07T10:00:24.000Z</time>
      </trkpt>
      <trkpt lat="44.74664" lon="5.04803">
        <ele>385</ele>
        <time>2020-02-07T10:00:25.000Z</time>
      </trkpt>
      <trkpt lat="44.74665" lon="5.04803">
        <ele>385</ele>
        <time>2020-02-07T10:00:26.000Z</time>
      </trkpt>
      <trkpt lat="44.74666" lon="5.04803">
        <ele>385</ele>
        <time>2020-02-07T10:00:27.000Z</time>
      </trkpt>
      <trkpt lat="44.74667" lon="5.04802">
        <ele>385</ele>
        <time>2020-02-07T10:00:28.000Z</time>
      </trkpt>
      <trkpt lat="44.74668" lon="5.04802">
        <ele>385</ele>
        <time>2020-02-07T10:00:29.000Z</time>
      </trkpt>
      <trkpt lat="44.74669" lon="5.04803">
        <ele>385</ele>
        <time>2020-02-07T10:00:30.000Z</time>
      </trkpt>
      <trkpt lat="44.7467" lon="5.04803">
        <ele>385</ele>
        <time>2020-02-07T10:00:31.000Z</time>
      </trkpt>
      <trkpt lat="44.74671" lon="5.04803">
        <ele>386</ele>
        <time>2020-02-07T10:00:32.000Z</time>
      </trkpt>
      <trkpt lat="44.74672" lon="5.04803">
        <ele>386</ele>
        <time>2020-02-07T10:00:33.000Z</time>
      </trkpt>
      <trkpt lat="44.74673" lon="5.04803">
        <ele>386</ele>
        <time>2020-02-07T10:00:34.000Z</time>
      </trkpt>
      <trkpt lat="44.74674" lon="5.04802">
        <ele>386</ele>
        <time>2020-02-07T10:00:35.000Z</time>
      </trkpt>
      <trkpt lat="44.74675" lon="5.04802">
        <ele>386</ele>
        <time>2020-02-07T10:00:36.000Z</time>
      </trkpt>
      <trkpt lat="44.74676" lon="5.04802">
        <ele>386</ele>
        <time>2020-02-07T10:00:37.000Z</time>
      </trkpt>
      <trkpt lat="44.74677" lon="5.04802">
        <ele>386</ele>
        <time>2020-02-07T10:00:38.000Z</time>
      </trkpt>
      <trkpt lat="44.74678" lon="5.04802">
        <ele>386</ele>
        <time>2020-02-07T10:00:39.000Z</time>
      </trkpt>
      <trkpt lat="44.74679" lon="5.04802">
        <ele>386</ele>
        <time>2020-02-07T10:00:40.000Z</time>
      </trkpt>
      <trkpt lat="44.7468" lon="5.04802">
        <ele>386</ele>
        <time>2020-02-07T10:00:41.000Z</time>
      </trkpt>
      <trkpt lat="44.74682" lon="5.04802">
        <ele>386</ele>
        <time>2020-02-07T10:00:42.000Z</time>
      </trkpt>
      <trkpt lat="44.74683" lon="5.04802">
        <ele>386</ele>
        <time>2020-02-07T10:00:43.000Z</time>
      </trkpt>
      <trkpt lat="44.74683" lon="5.04802">
        <ele>386</ele>
        <time>2020-02-07T10:00:44.000Z</time>
      </trkpt>
      <trkpt lat="44.74684" lon="5.04802">
        <ele>386</ele>
        <time>2020-02-07T10:00:45.000Z</time>
      </trkpt>
      <trkpt lat="44.74685" lon="5.04802">
        <ele>386</ele>
        <time>2020-02-07T10:00:46.000Z</time>
      </trkpt>
      <trkpt lat="44.74686" lon="5.04802">
        <ele>386</ele>
        <time>2020-02-07T10:00:47.000Z</time>
      </trkpt>
      <trkpt lat="44.74687" lon="5.04803">
        <ele>386</ele>
        <time>2020-02-07T10:00:48.000Z</time>
      </trkpt>
      <trkpt lat="44.74688" lon="5.04803">
        <ele>386</ele>
        <time>2020-02-07T10:00:49.000Z</time>
      </trkpt>
      <trkpt lat="44.74689" lon="5.04803">
        <ele>386</ele>
        <time>2020-02-07T10:00:50.000Z</time>
      </trkpt>
      <trkpt lat="44.74689" lon="5.04803">
        <ele>386</ele>
        <time>2020-02-07T10:00:51.000Z</time>
      </trkpt>
      <trkpt lat="44.7469" lon="5.04804">
        <ele>387</ele>
        <time>2020-02-07T10:00:52.000Z</time>
      </trkpt>
      <trkpt lat="44.74691" lon="5.04804">
        <ele>387</ele>
        <time>2020-02-07T10:00:53.000Z</time>
      </trkpt>
      <trkpt lat="44.74692" lon="5.04805">
        <ele>387</ele>
        <time>2020-02-07T10:00:54.000Z</time>
      </trkpt>
      <trkpt lat="44.74693" lon="5.04805">
        <ele>387</ele>
        <time>2020-02-07T10:00:55.000Z</time>
      </trkpt>
      <trkpt lat="44.74694" lon="5.04806">
        <ele>387</ele>
        <time>2020-02-07T10:00:56.000Z</time>
      </trkpt>
      <trkpt lat="44.74695" lon="5.04806">
        <ele>387</ele>
        <time>2020-02-07T10:00:57.000Z</time>
      </trkpt>
      <trkpt lat="44.74696" lon="5.04806">
        <ele>387</ele>
        <time>2020-02-07T10:00:58.000Z</time>
      </trkpt>
      <trkpt lat="44.74698" lon="5.04806">
        <ele>388</ele>
        <time>2020-02-07T10:00:59.000Z</time>
      </trkpt>
      <trkpt lat="44.74699" lon="5.04806">
        <ele>388</ele>
        <time>2020-02-07T10:01:00.000Z</time>
      </trkpt>
      <trkpt lat="44.747" lon="5.04806">
        <ele>388</ele>
        <time>2020-02-07T10:01:01.000Z</time>
      </trkpt>
      <trkpt lat="44.74701" lon="5.04807">
        <ele>388</ele>
        <time>2020-02-07T10:01:02.000Z</time>
      </trkpt>
      <trkpt lat="44.74702" lon="5.04807">
        <ele>388</ele>
        <time>2020-02-07T10:01:03.000Z</time>
      </trkpt>
      <trkpt lat="44.74703" lon="5.04807">
        <ele>388</ele>
        <time>2020-02-07T10:01:04.000Z</time>
      </trkpt>
      <trkpt lat="44.74704" lon="5.04807">
        <ele>388</ele>
        <time>2020-02-07T10:01:05.000Z</time>
      </trkpt>
      <trkpt lat="44.74705" lon="5.04807">
        <ele>388</ele>
        <time>2020-02-07T10:01:06.000Z</time>
      </trkpt>
      <trkpt lat="44.74706" lon="5.04806">
        <ele>388</ele>
        <time>2020-02-07T10:01:07.000Z</time>
      </trkpt>
      <trkpt lat="44.74707" lon="5.04807">
        <ele>388</ele>
        <time>2020-02-07T10:01:08.000Z</time>
      </trkpt>
      <trkpt lat="44.74708" lon="5.04807">
        <ele>388</ele>
        <time>2020-02-07T10:01:09.000Z</time>
      </trkpt>
      <trkpt lat="44.74709" lon="5.04807">
        <ele>388</ele>
        <time>2020-02-07T10:01:10.000Z</time>
      </trkpt>
      <trkpt lat="44.7471" lon="5.04807">
        <ele>388</ele>
        <time>2020-02-07T10:01:11.000Z</time>
      </trkpt>
      <trkpt lat="44.74711" lon="5.04807">
        <ele>388</ele>
        <time>2020-02-07T10:01:12.000Z</time>
      </trkpt>
      <trkpt lat="44.74712" lon="5.04807">
        <ele>389</ele>
        <time>2020-02-07T10:01:13.000Z</time>
      </trkpt>
      <trkpt lat="44.74713" lon="5.04808">
        <ele>389</ele>
        <time>2020-02-07T10:01:14.000Z</time>
      </trkpt>
      <trkpt lat="44.74714" lon="5.04808">
        <ele>389</ele>
        <time>2020-02-07T10:01:15.000Z</time>
      </trkpt>
      <trkpt lat="44.74714" lon="5.04807">
        <ele>389</ele>
        <time>2020-02-07T10:01:16.000Z</time>
      </trkpt>
      <trkpt lat="44.74715" lon="5.04807">
        <ele>388</ele>
        <time>2020-02-07T10:01:17.000Z</time>
      </trkpt>
      <trkpt lat="44.74716" lon="5.04807">
        <ele>388</ele>
        <time>2020-02-07T10:01:18.000Z</time>
      </trkpt>
      <trkpt lat="44.74717" lon="5.04807">
        <ele>388</ele>
        <time>2020-02-07T10:01:19.000Z</time>
      </trkpt>
      <trkpt lat="44.74717" lon="5.04808">
        <ele>388</ele>
        <time>2020-02-07T10:01:20.000Z</time>
      </trkpt>
      <trkpt lat="44.74718" lon="5.04807">
        <ele>388</ele>
        <time>2020-02-07T10:01:21.000Z</time>
      </trkpt>
      <trkpt lat="44.74719" lon="5.04808">
        <ele>388</ele>
        <time>2020-02-07T10:01:22.000Z</time>
      </trkpt>
      <trkpt lat="44.7472" lon="5.04807">
        <ele>388</ele>
        <time>2020-02-07T10:01:23.000Z</time>
      </trkpt>
      <trkpt lat="44.7472" lon="5.04807">
        <ele>388</ele>
        <time>2020-02-07T10:01:24.000Z</time>
      </trkpt>
      <trkpt lat="44.74721" lon="5.04807">
        <ele>388</ele>
        <time>2020-02-07T10:01:25.000Z</time>
      </trkpt>
      <trkpt lat="44.74722" lon="5.04807">
        <ele>388</ele>
        <time>2020-02-07T10:01:26.000Z</time>
      </trkpt>
      <trkpt lat="44.74723" lon="5.04807">
        <ele>388</ele>
        <time>2020-02-07T10:01:27.000Z</time>
      </trkpt>
      <trkpt lat="44.74724" lon="5.04807">
        <ele>388</ele>
        <time>2020-02-07T10:01:28.000Z</time>
      </trkpt>
      <trkpt lat="44.74725" lon="5.04806">
        <ele>388</ele>
        <time>2020-02-07T10:01:29.000Z</time>
      </trkpt>
      <trkpt lat="44.74727" lon="5.04806">
        <ele>388</ele>
        <time>2020-02-07T10:01:30.000Z</time>
      </trkpt>
      <trkpt lat="44.74728" lon="5.04805">
        <ele>388</ele>
        <time>2020-02-07T10:01:31.000Z</time>
      </trkpt>
      <trkpt lat="44.74729" lon="5.04806">
        <ele>388</ele>
        <time>2020-02-07T10:01:32.000Z</time>
      </trkpt>
      <trkpt lat="44.7473" lon="5.04806">
        <ele>387</ele>
        <time>2020-02-07T10:01:33.000Z</time>
      </trkpt>
      <trkpt lat="44.74732" lon="5.04806">
        <ele>387</ele>
        <time>2020-02-07T10:01:34.000Z</time>
      </trkpt>
      <trkpt lat="44.74733" lon="5.04806">
        <ele>387</ele>
        <time>2020-02-07T10:01:35.000Z</time>
      </trkpt>
      <trkpt lat="44.74734" lon="5.04806">
        <ele>387</ele>
        <time>2020-02-07T10:01:36.000Z</time>
      </trkpt>
      <trkpt lat="44.74735" lon="5.04806">
        <ele>387</ele>
        <time>2020-02-07T10:01:37.000Z</time>
      </trkpt>
      <trkpt lat="44.74736" lon="5.04806">
        <ele>387</ele>
        <time>2020-02-07T10:01:38.000Z</time>
      </trkpt>
      <trkpt lat="44.74737" lon="5.04806">
        <ele>387</ele>
        <time>2020-02-07T10:01:39.000Z</time>
      </trkpt>
      <trkpt lat="44.74738" lon="5.04806">
        <ele>387</ele>
        <time>2020-02-07T10:01:40.000Z</time>
      </trkpt>
      <trkpt lat="44.74739" lon="5.04806">
        <ele>387</ele>
        <time>2020-02-07T10:01:41.000Z</time>
      </trkpt>
      <trkpt lat="44.74741" lon="5.04806">
        <ele>387</ele>
        <time>2020-02-07T10:01:42.000Z</time>
      </trkpt>
      <trkpt lat="44.74742" lon="5.04806">
        <ele>387</ele>
        <time>2020-02-07T10:01:43.000Z</time>
      </trkpt>
      <trkpt lat="44.74743" lon="5.04807">
        <ele>388</ele>
        <time>2020-02-07T10:01:44.000Z</time>
      </trkpt>
      <trkpt lat="44.74744" lon="5.04807">
        <ele>388</ele>
        <time>2020-02-07T10:01:45.000Z</time>
      </trkpt>
      <trkpt lat="44.74745" lon="5.04807">
        <ele>388</ele>
        <time>2020-02-07T10:01:46.000Z</time>
      </trkpt>
      <trkpt lat="44.74745" lon="5.04807">
        <ele>388</ele>
        <time>2020-02-07T10:01:47.000Z</time>
      </trkpt>
      <trkpt lat="44.74746" lon="5.04807">
        <ele>388</ele>
        <time>2020-02-07T10:01:48.000Z</time>
      </trkpt>
      <trkpt lat="44.74747" lon="5.04807">
        <ele>388</ele>
        <time>2020-02-07T10:01:49.000Z</time>
      </trkpt>
      <trkpt lat="44.74748" lon="5.04807">
        <ele>388</ele>
        <time>2020-02-07T10:01:50.000Z</time>
      </trkpt>
      <trkpt lat="44.74749" lon="5.04807">
        <ele>388</ele>
        <time>2020-02-07T10:01:51.000Z</time>
      </trkpt>
      <trkpt lat="44.7475" lon="5.04808">
        <ele>388</ele>
        <time>2020-02-07T10:01:52.000Z</time>
      </trkpt>
      <trkpt lat="44.74751" lon="5.04808">
        <ele>388</ele>
        <time>2020-02-07T10:01:53.000Z</time>
      </trkpt>
      <trkpt lat="44.74752" lon="5.04807">
        <ele>389</ele>
        <time>2020-02-07T10:01:54.000Z</time>
      </trkpt>
      <trkpt lat="44.74754" lon="5.04808">
        <ele>389</ele>
        <time>2020-02-07T10:01:55.000Z</time>
      </trkpt>
      <trkpt lat="44.74755" lon="5.04808">
        <ele>389</ele>
        <time>2020-02-07T10:01:56.000Z</time>
      </trkpt>
      <trkpt lat="44.74756" lon="5.04808">
        <ele>389</ele>
        <time>2020-02-07T10:01:57.000Z</time>
      </trkpt>
      <trkpt lat="44.74757" lon="5.04808">
        <ele>389</ele>
        <time>2020-02-07T10:01:58.000Z</time>
      </trkpt>
      <trkpt lat="44.74758" lon="5.04808">
        <ele>389</ele>
        <time>2020-02-07T10:01:59.000Z</time>
      </trkpt>
      <trkpt lat="44.74759" lon="5.04809">
        <ele>389</ele>
        <time>2020-02-07T10:02:00.000Z</time>
      </trkpt>
      <trkpt lat="44.7476" lon="5.04809">
        <ele>389</ele>
        <time>2020-02-07T10:02:01.000Z</time>
      </trkpt>
      <trkpt lat="44.74761" lon="5.04809">
        <ele>389</ele>
        <time>2020-02-07T10:02:02.000Z</time>
      </trkpt>
      <trkpt lat="44.74762" lon="5.04809">
        <ele>389</ele>
        <time>2020-02-07T10:02:03.000Z</time>
      </trkpt>
      <trkpt lat="44.74763" lon="5.0481">
        <ele>389</ele>
        <time>2020-02-07T10:02:04.000Z</time>
      </trkpt>
      <trkpt lat="44.74765" lon="5.0481">
        <ele>389</ele>
        <time>2020-02-07T10:02:05.000Z</time>
      </trkpt>
      <trkpt lat="44.74766" lon="5.0481">
        <ele>389</ele>
        <time>2020-02-07T10:02:06.000Z</time>
      </trkpt>
      <trkpt lat="44.74767" lon="5.0481">
        <ele>389</ele>
        <time>2020-02-07T10:02:07.000Z</time>
      </trkpt>
      <trkpt lat="44.74768" lon="5.0481">
        <ele>389</ele>
        <time>2020-02-07T10:02:08.000Z</time>
      </trkpt>
      <trkpt lat="44.74769" lon="5.0481">
        <ele>389</ele>
        <time>2020-02-07T10:02:09.000Z</time>
      </trkpt>
      <trkpt lat="44.7477" lon="5.0481">
        <ele>390</ele>
        <time>2020-02-07T10:02:10.000Z</time>
      </trkpt>
      <trkpt lat="44.74771" lon="5.04811">
        <ele>390</ele>
        <time>2020-02-07T10:02:11.000Z</time>
      </trkpt>
      <trkpt lat="44.74772" lon="5.04811">
        <ele>390</ele>
        <time>2020-02-07T10:02:12.000Z</time>
      </trkpt>
      <trkpt lat="44.74773" lon="5.04811">
        <ele>390</ele>
        <time>2020-02-07T10:02:13.000Z</time>
      </trkpt>
      <trkpt lat="44.74774" lon="5.04811">
        <ele>390</ele>
        <time>2020-02-07T10:02:14.000Z</time>
      </trkpt>
      <trkpt lat="44.74775" lon="5.04811">
        <ele>390</ele>
        <time>2020-02-07T10:02:15.000Z</time>
      </trkpt>
      <trkpt lat="44.74776" lon="5.04811">
        <ele>390</ele>
        <time>2020-02-07T10:02:16.000Z</time>
      </trkpt>
      <trkpt lat="44.74777" lon="5.04811">
        <ele>390</ele>
        <time>2020-02-07T10:02:17.000Z</time>
      </trkpt>
      <trkpt lat="44.74778" lon="5.04811">
        <ele>390</ele>
        <time>2020-02-07T10:02:18.000Z</time>
      </trkpt>
      <trkpt lat="44.74779" lon="5.04811">
        <ele>390</ele>
        <time>2020-02-07T10:02:19.000Z</time>
      </trkpt>
      <trkpt lat="44.74781" lon="5.04811">
        <ele>390</ele>
        <time>2020-02-07T10:02:20.000Z</time>
      </trkpt>
      <trkpt lat="44.74782" lon="5.04811">
        <ele>390</ele>
        <time>2020-02-07T10:02:21.000Z</time>
      </trkpt>
      <trkpt lat="44.74783" lon="5.04811">
        <ele>390</ele>
        <time>2020-02-07T10:02:22.000Z</time>
      </trkpt>
      <trkpt lat="44.74784" lon="5.04811">
        <ele>390</ele>
        <time>2020-02-07T10:02:23.000Z</time>
      </trkpt>
      <trkpt lat="44.74785" lon="5.04811">
        <ele>390</ele>
        <time>2020-02-07T10:02:24.000Z</time>
      </trkpt>
      <trkpt lat="44.74786" lon="5.04811">
        <ele>390</ele>
        <time>2020-02-07T10:02:25.000Z</time>
      </trkpt>
      <trkpt lat="44.74787" lon="5.0481">
        <ele>390</ele>
        <time>2020-02-07T10:02:26.000Z</time>
      </trkpt>
      <trkpt lat="44.74788" lon="5.0481">
        <ele>390</ele>
        <time>2020-02-07T10:02:27.000Z</time>
      </trkpt>
      <trkpt lat="44.74789" lon="5.0481">
        <ele>390</ele>
        <time>2020-02-07T10:02:28.000Z</time>
      </trkpt>
      <trkpt lat="44.7479" lon="5.04811">
        <ele>391</ele>
        <time>2020-02-07T10:02:29.000Z</time>
      </trkpt>
      <trkpt lat="44.74791" lon="5.0481">
        <ele>391</ele>
        <time>2020-02-07T10:02:30.000Z</time>
      </trkpt>
      <trkpt lat="44.74792" lon="5.04811">
        <ele>391</ele>
        <time>2020-02-07T10:02:31.000Z</time>
      </trkpt>
      <trkpt lat="44.74793" lon="5.04811">
        <ele>391</ele>
        <time>2020-02-07T10:02:32.000Z</time>
      </trkpt>
      <trkpt lat="44.74794" lon="5.0481">
        <ele>391</ele>
        <time>2020-02-07T10:02:33.000Z</time>
      </trkpt>
      <trkpt lat="44.74795" lon="5.0481">
        <ele>391</ele>
        <time>2020-02-07T10:02:34.000Z</time>
      </trkpt>
      <trkpt lat="44.74796" lon="5.0481">
        <ele>391</ele>
        <time>2020-02-07T10:02:35.000Z</time>
      </trkpt>
      <trkpt lat="44.74797" lon="5.04809">
        <ele>391</ele>
        <time>2020-02-07T10:02:36.000Z</time>
      </trkpt>
      <trkpt lat="44.74798" lon="5.04809">
        <ele>391</ele>
        <time>2020-02-07T10:02:37.000Z</time>
      </trkpt>
      <trkpt lat="44.74799" lon="5.04809">
        <ele>391</ele>
        <time>2020-02-07T10:02:38.000Z</time>
      </trkpt>
      <trkpt lat="44.74801" lon="5.04809">
        <ele>391</ele>
        <time>2020-02-07T10:02:39.000Z</time>
      </trkpt>
      <trkpt lat="44.74802" lon="5.04809">
        <ele>391</ele>
        <time>2020-02-07T10:02:40.000Z</time>
      </trkpt>
      <trkpt lat="44.74803" lon="5.04809">
        <ele>391</ele>
        <time>2020-02-07T10:02:41.000Z</time>
      </trkpt>
      <trkpt lat="44.74804" lon="5.0481">
        <ele>391</ele>
        <time>2020-02-07T10:02:42.000Z</time>
      </trkpt>
      <trkpt lat="44.74805" lon="5.0481">
        <ele>391</ele>
        <time>2020-02-07T10:02:43.000Z</time>
      </trkpt>
      <trkpt lat="44.74807" lon="5.0481">
        <ele>391</ele>
        <time>2020-02-07T10:02:44.000Z</time>
      </trkpt>
      <trkpt lat="44.74808" lon="5.0481">
        <ele>391</ele>
        <time>2020-02-07T10:02:45.000Z</time>
      </trkpt>
      <trkpt lat="44.74809" lon="5.04809">
        <ele>391</ele>
        <time>2020-02-07T10:02:46.000Z</time>
      </trkpt>
      <trkpt lat="44.7481" lon="5.04809">
        <ele>391</ele>
        <time>2020-02-07T10:02:47.000Z</time>
      </trkpt>
      <trkpt lat="44.74811" lon="5.04809">
        <ele>392</ele>
        <time>2020-02-07T10:02:48.000Z</time>
      </trkpt>
      <trkpt lat="44.74812" lon="5.04809">
        <ele>392</ele>
        <time>2020-02-07T10:02:49.000Z</time>
      </trkpt>
      <trkpt lat="44.74813" lon="5.04809">
        <ele>392</ele>
        <time>2020-02-07T10:02:50.000Z</time>
      </trkpt>
      <trkpt lat="44.74814" lon="5.04809">
        <ele>392</ele>
        <time>2020-02-07T10:02:51.000Z</time>
      </trkpt>
      <trkpt lat="44.74815" lon="5.04809">
        <ele>392</ele>
        <time>2020-02-07T10:02:52.000Z</time>
      </trkpt>
      <trkpt lat="44.74816" lon="5.04809">
        <ele>392</ele>
        <time>2020-02-07T10:02:53.000Z</time>
      </trkpt>
      <trkpt lat="44.74818" lon="5.04809">
        <ele>392</ele>
        <time>2020-02-07T10:02:54.000Z</time>
      </trkpt>
      <trkpt lat="44.74819" lon="5.04809">
        <ele>393</ele>
        <time>2020-02-07T10:02:55.000Z</time>
      </trkpt>
      <trkpt lat="44.74819" lon="5.04809">
        <ele>393</ele>
        <time>2020-02-07T10:02:56.000Z</time>
      </trkpt>
      <trkpt lat="44.7482" lon="5.0481">
        <ele>393</ele>
        <time>2020-02-07T10:02:57.000Z</time>
      </trkpt>
      <trkpt lat="44.74821" lon="5.0481">
        <ele>393</ele>
        <time>2020-02-07T10:02:58.000Z</time>
      </trkpt>
      <trkpt lat="44.74822" lon="5.0481">
        <ele>393</ele>
        <time>2020-02-07T10:02:59.000Z</time>
      </trkpt>
      <trkpt lat="44.74823" lon="5.0481">
        <ele>393</ele>
        <time>2020-02-07T10:03:00.000Z</time>
      </trkpt>
      <trkpt lat="44.74824" lon="5.0481">
        <ele>394</ele>
        <time>2020-02-07T10:03:01.000Z</time>
      </trkpt>
      <trkpt lat="44.74825" lon="5.0481">
        <ele>394</ele>
        <time>2020-02-07T10:03:02.000Z</time>
      </trkpt>
      <trkpt lat="44.74826" lon="5.0481">
        <ele>394</ele>
        <time>2020-02-07T10:03:03.000Z</time>
      </trkpt>
      <trkpt lat="44.74827" lon="5.0481">
        <ele>394</ele>
        <time>2020-02-07T10:03:04.000Z</time>
      </trkpt>
      <trkpt lat="44.74828" lon="5.0481">
        <ele>394</ele>
        <time>2020-02-07T10:03:05.000Z</time>
      </trkpt>
      <trkpt lat="44.74829" lon="5.0481">
        <ele>395</ele>
        <time>2020-02-07T10:03:06.000Z</time>
      </trkpt>
      <trkpt lat="44.7483" lon="5.0481">
        <ele>395</ele>
        <time>2020-02-07T10:03:07.000Z</time>
      </trkpt>
      <trkpt lat="44.74831" lon="5.0481">
        <ele>395</ele>
        <time>2020-02-07T10:03:08.000Z</time>
      </trkpt>
      <trkpt lat="44.74832" lon="5.0481">
        <ele>395</ele>
        <time>2020-02-07T10:03:09.000Z</time>
      </trkpt>
      <trkpt lat="44.74833" lon="5.0481">
        <ele>395</ele>
        <time>2020-02-07T10:03:10.000Z</time>
      </trkpt>
      <trkpt lat="44.74834" lon="5.0481">
        <ele>395</ele>
        <time>2020-02-07T10:03:11.000Z</time>
      </trkpt>
      <trkpt lat="44.74835" lon="5.04809">
        <ele>395</ele>
        <time>2020-02-07T10:03:12.000Z</time>
      </trkpt>
      <trkpt lat="44.74836" lon="5.04809">
        <ele>395</ele>
        <time>2020-02-07T10:03:13.000Z</time>
      </trkpt>
      <trkpt lat="44.74837" lon="5.04808">
        <ele>396</ele>
        <time>2020-02-07T10:03:14.000Z</time>
      </trkpt>
      <trkpt lat="44.74838" lon="5.04808">
        <ele>396</ele>
        <time>2020-02-07T10:03:15.000Z</time>
      </trkpt>
      <trkpt lat="44.74839" lon="5.04808">
        <ele>396</ele>
        <time>2020-02-07T10:03:16.000Z</time>
      </trkpt>
      <trkpt lat="44.7484" lon="5.04808">
        <ele>396</ele>
        <time>2020-02-07T10:03:17.000Z</time>
      </trkpt>
      <trkpt lat="44.74842" lon="5.04808">
        <ele>396</ele>
        <time>2020-02-07T10:03:18.000Z</time>
      </trkpt>
      <trkpt lat="44.74842" lon="5.04808">
        <ele>396</ele>
        <time>2020-02-07T10:03:19.000Z</time>
      </trkpt>
      <trkpt lat="44.74843" lon="5.04808">
        <ele>396</ele>
        <time>2020-02-07T10:03:20.000Z</time>
      </trkpt>
      <trkpt lat="44.74844" lon="5.04808">
        <ele>396</ele>
        <time>2020-02-07T10:03:21.000Z</time>
      </trkpt>
      <trkpt lat="44.74845" lon="5.04808">
        <ele>396</ele>
        <time>2020-02-07T10:03:22.000Z</time>
      </trkpt>
      <trkpt lat="44.74846" lon="5.04808">
        <ele>396</ele>
        <time>2020-02-07T10:03:23.000Z</time>
      </trkpt>
      <trkpt lat="44.74847" lon="5.04808">
        <ele>397</ele>
        <time>2020-02-07T10:03:24.000Z</time>
      </trkpt>
      <trkpt lat="44.74848" lon="5.04807">
        <ele>397</ele>
        <time>2020-02-07T10:03:25.000Z</time>
      </trkpt>
      <trkpt lat="44.74849" lon="5.04807">
        <ele>397</ele>
        <time>2020-02-07T10:03:26.000Z</time>
      </trkpt>
      <trkpt lat="44.7485" lon="5.04807">
        <ele>397</ele>
        <time>2020-02-07T10:03:27.000Z</time>
      </trkpt>
      <trkpt lat="44.74851" lon="5.04806">
        <ele>396</ele>
        <time>2020-02-07T10:03:28.000Z</time>
      </trkpt>
      <trkpt lat="44.74852" lon="5.04806">
        <ele>396</ele>
        <time>2020-02-07T10:03:29.000Z</time>
      </trkpt>
      <trkpt lat="44.74853" lon="5.04806">
        <ele>397</ele>
        <time>2020-02-07T10:03:30.000Z</time>
      </trkpt>
      <trkpt lat="44.74855" lon="5.04806">
        <ele>396</ele>
        <time>2020-02-07T10:03:31.000Z</time>
      </trkpt>
      <trkpt lat="44.74856" lon="5.04805">
        <ele>397</ele>
        <time>2020-02-07T10:03:32.000Z</time>
      </trkpt>
      <trkpt lat="44.74857" lon="5.04805">
        <ele>397</ele>
        <time>2020-02-07T10:03:33.000Z</time>
      </trkpt>
      <trkpt lat="44.74857" lon="5.04805">
        <ele>397</ele>
        <time>2020-02-07T10:03:34.000Z</time>
      </trkpt>
      <trkpt lat="44.74858" lon="5.04805">
        <ele>397</ele>
        <time>2020-02-07T10:03:35.000Z</time>
      </trkpt>
      <trkpt lat="44.7486" lon="5.04805">
        <ele>397</ele>
        <time>2020-02-07T10:03:36.000Z</time>
      </trkpt>
      <trkpt lat="44.74861" lon="5.04805">
        <ele>397</ele>
        <time>2020-02-07T10:03:37.000Z</time>
      </trkpt>
      <trkpt lat="44.74861" lon="5.04805">
        <ele>397</ele>
        <time>2020-02-07T10:03:38.000Z</time>
      </trkpt>
      <trkpt lat="44.74862" lon="5.04805">
        <ele>397</ele>
        <time>2020-02-07T10:03:39.000Z</time>
      </trkpt>
      <trkpt lat="44.74863" lon="5.04805">
        <ele>397</ele>
        <time>2020-02-07T10:03:40.000Z</time>
      </trkpt>
      <trkpt lat="44.74864" lon="5.04805">
        <ele>397</ele>
        <time>2020-02-07T10:03:41.000Z</time>
      </trkpt>
      <trkpt lat="44.74865" lon="5.04805">
        <ele>397</ele>
        <time>2020-02-07T10:03:42.000Z</time>
      </trkpt>
      <trkpt lat="44.74866" lon="5.04805">
        <ele>398</ele>
        <time>2020-02-07T10:03:43.000Z</time>
      </trkpt>
      <trkpt lat="44.74867" lon="5.04805">
        <ele>398</ele>
        <time>2020-02-07T10:03:44.000Z</time>
      </trkpt>
      <trkpt lat="44.74868" lon="5.04805">
        <ele>398</ele>
        <time>2020-02-07T10:03:45.000Z</time>
      </trkpt>
      <trkpt lat="44.74869" lon="5.04805">
        <ele>398</ele>
        <time>2020-02-07T10:03:46.000Z</time>
      </trkpt>
      <trkpt lat="44.7487" lon="5.04805">
        <ele>398</ele>
        <time>2020-02-07T10:03:47.000Z</time>
      </trkpt>
      <trkpt lat="44.74872" lon="5.04805">
        <ele>398</ele>
        <time>2020-02-07T10:03:48.000Z</time>
      </trkpt>
      <trkpt lat="44.74873" lon="5.04805">
        <ele>398</ele>
        <time>2020-02-07T10:03:49.000Z</time>
      </trkpt>
      <trkpt lat="44.74875" lon="5.04805">
        <ele>398</ele>
        <time>2020-02-07T10:03:50.000Z</time>
      </trkpt>
      <trkpt lat="44.74876" lon="5.04805">
        <ele>398</ele>
        <time>2020-02-07T10:03:51.000Z</time>
      </trkpt>
      <trkpt lat="44.74877" lon="5.04805">
        <ele>399</ele>
        <time>2020-02-07T10:03:52.000Z</time>
      </trkpt>
      <trkpt lat="44.74879" lon="5.04805">
        <ele>399</ele>
        <time>2020-02-07T10:03:53.000Z</time>
      </trkpt>
      <trkpt lat="44.7488" lon="5.04805">
        <ele>399</ele>
        <time>2020-02-07T10:03:54.000Z</time>
      </trkpt>
      <trkpt lat="44.74881" lon="5.04805">
        <ele>399</ele>
        <time>2020-02-07T10:03:55.000Z</time>
      </trkpt>
      <trkpt lat="44.74883" lon="5.04805">
        <ele>399</ele>
        <time>2020-02-07T10:03:56.000Z</time>
      </trkpt>
      <trkpt lat="44.74884" lon="5.04805">
        <ele>399</ele>
        <time>2020-02-07T10:03:57.000Z</time>
      </trkpt>
      <trkpt lat="44.74885" lon="5.04805">
        <ele>398</ele>
        <time>2020-02-07T10:03:58.000Z</time>
      </trkpt>
      <trkpt lat="44.74886" lon="5.04805">
        <ele>398</ele>
        <time>2020-02-07T10:03:59.000Z</time>
      </trkpt>
      <trkpt lat="44.74888" lon="5.04805">
        <ele>398</ele>
        <time>2020-02-07T10:04:00.000Z</time>
      </trkpt>
      <trkpt lat="44.74889" lon="5.04805">
        <ele>398</ele>
        <time>2020-02-07T10:04:01.000Z</time>
      </trkpt>
      <trkpt lat="44.7489" lon="5.04806">
        <ele>398</ele>
        <time>2020-02-07T10:04:02.000Z</time>
      </trkpt>
      <trkpt lat="44.74892" lon="5.04806">
        <ele>398</ele>
        <time>2020-02-07T10:04:03.000Z</time>
      </trkpt>
      <trkpt lat="44.74893" lon="5.04806">
        <ele>398</ele>
        <time>2020-02-07T10:04:04.000Z</time>
      </trkpt>
      <trkpt lat="44.74894" lon="5.04805">
        <ele>398</ele>
        <time>2020-02-07T10:04:05.000Z</time>
      </trkpt>
      <trkpt lat="44.74895" lon="5.04805">
        <ele>398</ele>
        <time>2020-02-07T10:04:06.000Z</time>
      </trkpt>
      <trkpt lat="44.74896" lon="5.04805">
        <ele>398</ele>
        <time>2020-02-07T10:04:07.000Z</time>
      </trkpt>
      <trkpt lat="44.74897" lon="5.04805">
        <ele>398</ele>
        <time>2020-02-07T10:04:08.000Z</time>
      </trkpt>
      <trkpt lat="44.74899" lon="5.04805">
        <ele>398</ele>
        <time>2020-02-07T10:04:09.000Z</time>
      </trkpt>
      <trkpt lat="44.749" lon="5.04804">
        <ele>398</ele>
        <time>2020-02-07T10:04:10.000Z</time>
      </trkpt>
      <trkpt lat="44.74902" lon="5.04804">
        <ele>398</ele>
        <time>2020-02-07T10:04:11.000Z</time>
      </trkpt>
      <trkpt lat="44.74903" lon="5.04804">
        <ele>398</ele>
        <time>2020-02-07T10:04:12.000Z</time>
      </trkpt>
      <trkpt lat="44.74904" lon="5.04804">
        <ele>398</ele>
        <time>2020-02-07T10:04:13.000Z</time>
      </trkpt>
      <trkpt lat="44.74906" lon="5.04804">
        <ele>398</ele>
        <time>2020-02-07T10:04:14.000Z</time>
      </trkpt>
      <trkpt lat="44.74907" lon="5.04803">
        <ele>398</ele>
        <time>2020-02-07T10:04:15.000Z</time>
      </trkpt>
      <trkpt lat="44.74908" lon="5.04803">
        <ele>398</ele>
        <time>2020-02-07T10:04:16.000Z</time>
      </trkpt>
      <trkpt lat="44.7491" lon="5.04802">
        <ele>399</ele>
        <time>2020-02-07T10:04:17.000Z</time>
      </trkpt>
      <trkpt lat="44.74911" lon="5.04802">
        <ele>399</ele>
        <time>2020-02-07T10:04:18.000Z</time>
      </trkpt>
      <trkpt lat="44.74912" lon="5.04802">
        <ele>399</ele>
        <time>2020-02-07T10:04:19.000Z</time>
      </trkpt>
      <trkpt lat="44.74913" lon="5.04801">
        <ele>399</ele>
        <time>2020-02-07T10:04:20.000Z</time>
      </trkpt>
      <trkpt lat="44.74914" lon="5.04801">
        <ele>399</ele>
        <time>2020-02-07T10:04:21.000Z</time>
      </trkpt>
      <trkpt lat="44.74915" lon="5.04801">
        <ele>399</ele>
        <time>2020-02-07T10:04:22.000Z</time>
      </trkpt>
      <trkpt lat="44.74916" lon="5.048">
        <ele>399</ele>
        <time>2020-02-07T10:04:23.000Z</time>
      </trkpt>
      <trkpt lat="44.74917" lon="5.048">
        <ele>399</ele>
        <time>2020-02-07T10:04:24.000Z</time>
      </trkpt>
      <trkpt lat="44.74919" lon="5.04799">
        <ele>399</ele>
        <time>2020-02-07T10:04:25.000Z</time>
      </trkpt>
      <trkpt lat="44.7492" lon="5.04799">
        <ele>399</ele>
        <time>2020-02-07T10:04:26.000Z</time>
      </trkpt>
      <trkpt lat="44.74921" lon="5.04799">
        <ele>399</ele>
        <time>2020-02-07T10:04:27.000Z</time>
      </trkpt>
      <trkpt lat="44.74922" lon="5.04798">
        <ele>399</ele>
        <time>2020-02-07T10:04:28.000Z</time>
      </trkpt>
      <trkpt lat="44.74923" lon="5.04798">
        <ele>399</ele>
        <time>2020-02-07T10:04:29.000Z</time>
      </trkpt>
      <trkpt lat="44.74924" lon="5.04797">
        <ele>399</ele>
        <time>2020-02-07T10:04:30.000Z</time>
      </trkpt>
      <trkpt lat="44.74925" lon="5.04797">
        <ele>399</ele>
        <time>2020-02-07T10:04:31.000Z</time>
      </trkpt>
      <trkpt lat="44.74926" lon="5.04797">
        <ele>399</ele>
        <time>2020-02-07T10:04:32.000Z</time>
      </trkpt>
      <trkpt lat="44.74927" lon="5.04796">
        <ele>399</ele>
        <time>2020-02-07T10:04:33.000Z</time>
      </trkpt>
      <trkpt lat="44.74928" lon="5.04796">
        <ele>399</ele>
        <time>2020-02-07T10:04:34.000Z</time>
      </trkpt>
      <trkpt lat="44.74929" lon="5.04796">
        <ele>399</ele>
        <time>2020-02-07T10:04:35.000Z</time>
      </trkpt>
      <trkpt lat="44.7493" lon="5.04795">
        <ele>399</ele>
        <time>2020-02-07T10:04:36.000Z</time>
      </trkpt>
      <trkpt lat="44.74931" lon="5.04795">
        <ele>400</ele>
        <time>2020-02-07T10:04:37.000Z</time>
      </trkpt>
      <trkpt lat="44.74932" lon="5.04795">
        <ele>399</ele>
        <time>2020-02-07T10:04:38.000Z</time>
      </trkpt>
      <trkpt lat="44.74932" lon="5.04794">
        <ele>399</ele>
        <time>2020-02-07T10:04:39.000Z</time>
      </trkpt>
      <trkpt lat="44.74933" lon="5.04793">
        <ele>399</ele>
        <time>2020-02-07T10:04:40.000Z</time>
      </trkpt>
      <trkpt lat="44.74934" lon="5.04792">
        <ele>399</ele>
        <time>2020-02-07T10:04:41.000Z</time>
      </trkpt>
      <trkpt lat="44.74935" lon="5.04792">
        <ele>400</ele>
        <time>2020-02-07T10:04:42.000Z</time>
      </trkpt>
      <trkpt lat="44.74936" lon="5.04791">
        <ele>400</ele>
        <time>2020-02-07T10:04:43.000Z</time>
      </trkpt>
      <trkpt lat="44.74937" lon="5.04791">
        <ele>400</ele>
        <time>2020-02-07T10:04:44.000Z</time>
      </trkpt>
      <trkpt lat="44.74938" lon="5.0479">
        <ele>399</ele>
        <time>2020-02-07T10:04:45.000Z</time>
      </trkpt>
      <trkpt lat="44.74939" lon="5.0479">
        <ele>399</ele>
        <time>2020-02-07T10:04:46.000Z</time>
      </trkpt>
      <trkpt lat="44.7494" lon="5.04789">
        <ele>399</ele>
        <time>2020-02-07T10:04:47.000Z</time>
      </trkpt>
      <trkpt lat="44.74941" lon="5.04788">
        <ele>399</ele>
        <time>2020-02-07T10:04:48.000Z</time>
      </trkpt>
      <trkpt lat="44.74942" lon="5.04788">
        <ele>399</ele>
        <time>2020-02-07T10:04:49.000Z</time>
      </trkpt>
      <trkpt lat="44.74942" lon="5.04787">
        <ele>399</ele>
        <time>2020-02-07T10:04:50.000Z</time>
      </trkpt>
      <trkpt lat="44.74943" lon="5.04786">
        <ele>399</ele>
        <time>2020-02-07T10:04:51.000Z</time>
      </trkpt>
      <trkpt lat="44.74944" lon="5.04786">
        <ele>399</ele>
        <time>2020-02-07T10:04:52.000Z</time>
      </trkpt>
      <trkpt lat="44.74945" lon="5.04785">
        <ele>399</ele>
        <time>2020-02-07T10:04:53.000Z</time>
      </trkpt>
      <trkpt lat="44.74946" lon="5.04785">
        <ele>399</ele>
        <time>2020-02-07T10:04:54.000Z</time>
      </trkpt>
      <trkpt lat="44.74946" lon="5.04784">
        <ele>399</ele>
        <time>2020-02-07T10:04:55.000Z</time>
      </trkpt>
      <trkpt lat="44.74947" lon="5.04783">
        <ele>399</ele>
        <time>2020-02-07T10:04:56.000Z</time>
      </trkpt>
      <trkpt lat="44.74948" lon="5.04783">
        <ele>399</ele>
        <time>2020-02-07T10:04:57.000Z</time>
      </trkpt>
      <trkpt lat="44.74949" lon="5.04782">
        <ele>399</ele>
        <time>2020-02-07T10:04:58.000Z</time>
      </trkpt>
      <trkpt lat="44.7495" lon="5.04781">
        <ele>399</ele>
        <time>2020-02-07T10:04:59.000Z</time>
      </trkpt>
      <trkpt lat="44.7495" lon="5.0478">
        <ele>399</ele>
        <time>2020-02-07T10:05:00.000Z</time>
      </trkpt>
      <trkpt lat="44.74951" lon="5.0478">
        <ele>399</ele>
        <time>2020-02-07T10:05:01.000Z</time>
      </trkpt>
      <trkpt lat="44.74952" lon="5.04779">
        <ele>399</ele>
        <time>2020-02-07T10:05:02.000Z</time>
      </trkpt>
      <trkpt lat="44.74953" lon="5.04778">
        <ele>398</ele>
        <time>2020-02-07T10:05:03.000Z</time>
      </trkpt>
      <trkpt lat="44.74954" lon="5.04777">
        <ele>398</ele>
        <time>2020-02-07T10:05:04.000Z</time>
      </trkpt>
      <trkpt lat="44.74954" lon="5.04776">
        <ele>398</ele>
        <time>2020-02-07T10:05:05.000Z</time>
      </trkpt>
      <trkpt lat="44.74955" lon="5.04775">
        <ele>399</ele>
        <time>2020-02-07T10:05:06.000Z</time>
      </trkpt>
      <trkpt lat="44.74956" lon="5.04774">
        <ele>399</ele>
        <time>2020-02-07T10:05:07.000Z</time>
      </trkpt>
      <trkpt lat="44.74957" lon="5.04773">
        <ele>399</ele>
        <time>2020-02-07T10:05:08.000Z</time>
      </trkpt>
      <trkpt lat="44.74958" lon="5.04772">
        <ele>399</ele>
        <time>2020-02-07T10:05:09.000Z</time>
      </trkpt>
      <trkpt lat="44.74959" lon="5.04771">
        <ele>399</ele>
        <time>2020-02-07T10:05:10.000Z</time>
      </trkpt>
      <trkpt lat="44.7496" lon="5.04771">
        <ele>399</ele>
        <time>2020-02-07T10:05:11.000Z</time>
      </trkpt>
      <trkpt lat="44.74961" lon="5.0477">
        <ele>399</ele>
        <time>2020-02-07T10:05:12.000Z</time>
      </trkpt>
      <trkpt lat="44.74962" lon="5.04769">
        <ele>399</ele>
        <time>2020-02-07T10:05:13.000Z</time>
      </trkpt>
      <trkpt lat="44.74963" lon="5.04768">
        <ele>399</ele>
        <time>2020-02-07T10:05:14.000Z</time>
      </trkpt>
      <trkpt lat="44.74964" lon="5.04768">
        <ele>399</ele>
        <time>2020-02-07T10:05:15.000Z</time>
      </trkpt>
      <trkpt lat="44.74965" lon="5.04767">
        <ele>399</ele>
        <time>2020-02-07T10:05:16.000Z</time>
      </trkpt>
      <trkpt lat="44.74966" lon="5.04766">
        <ele>399</ele>
        <time>2020-02-07T10:05:17.000Z</time>
      </trkpt>
      <trkpt lat="44.74966" lon="5.04766">
        <ele>399</ele>
        <time>2020-02-07T10:05:18.000Z</time>
      </trkpt>
      <trkpt lat="44.74967" lon="5.04766">
        <ele>399</ele>
        <time>2020-02-07T10:05:19.000Z</time>
      </trkpt>
      <trkpt lat="44.74968" lon="5.04765">
        <ele>399</ele>
        <time>2020-02-07T10:05:20.000Z</time>
      </trkpt>
      <trkpt lat="44.74969" lon="5.04764">
        <ele>399</ele>
        <time>2020-02-07T10:05:21.000Z</time>
      </trkpt>
      <trkpt lat="44.7497" lon="5.04763">
        <ele>399</ele>
        <time>2020-02-07T10:05:22.000Z</time>
      </trkpt>
      <trkpt lat="44.7497" lon="5.04763">
        <ele>399</ele>
        <time>2020-02-07T10:05:23.000Z</time>
      </trkpt>
      <trkpt lat="44.74971" lon="5.04762">
        <ele>398</ele>
        <time>2020-02-07T10:05:24.000Z</time>
      </trkpt>
      <trkpt lat="44.74972" lon="5.04761">
        <ele>398</ele>
        <time>2020-02-07T10:05:25.000Z</time>
      </trkpt>
      <trkpt lat="44.74973" lon="5.04761">
        <ele>398</ele>
        <time>2020-02-07T10:05:26.000Z</time>
      </trkpt>
      <trkpt lat="44.74973" lon="5.0476">
        <ele>398</ele>
        <time>2020-02-07T10:05:27.000Z</time>
      </trkpt>
      <trkpt lat="44.74975" lon="5.0476">
        <ele>398</ele>
        <time>2020-02-07T10:05:28.000Z</time>
      </trkpt>
      <trkpt lat="44.74976" lon="5.0476">
        <ele>398</ele>
        <time>2020-02-07T10:05:29.000Z</time>
      </trkpt>
      <trkpt lat="44.74977" lon="5.0476">
        <ele>398</ele>
        <time>2020-02-07T10:05:30.000Z</time>
      </trkpt>
      <trkpt lat="44.74978" lon="5.0476">
        <ele>398</ele>
        <time>2020-02-07T10:05:31.000Z</time>
      </trkpt>
      <trkpt lat="44.74979" lon="5.0476">
        <ele>398</ele>
        <time>2020-02-07T10:05:32.000Z</time>
      </trkpt>
      <trkpt lat="44.7498" lon="5.04759">
        <ele>398</ele>
        <time>2020-02-07T10:05:33.000Z</time>
      </trkpt>
      <trkpt lat="44.74981" lon="5.04759">
        <ele>398</ele>
        <time>2020-02-07T10:05:34.000Z</time>
      </trkpt>
      <trkpt lat="44.74982" lon="5.04759">
        <ele>398</ele>
        <time>2020-02-07T10:05:35.000Z</time>
      </trkpt>
      <trkpt lat="44.74983" lon="5.04759">
        <ele>398</ele>
        <time>2020-02-07T10:05:36.000Z</time>
      </trkpt>
      <trkpt lat="44.74985" lon="5.04759">
        <ele>398</ele>
        <time>2020-02-07T10:05:37.000Z</time>
      </trkpt>
      <trkpt lat="44.74986" lon="5.04759">
        <ele>398</ele>
        <time>2020-02-07T10:05:38.000Z</time>
      </trkpt>
      <trkpt lat="44.74987" lon="5.04759">
        <ele>398</ele>
        <time>2020-02-07T10:05:39.000Z</time>
      </trkpt>
      <trkpt lat="44.74988" lon="5.04759">
        <ele>397</ele>
        <time>2020-02-07T10:05:40.000Z</time>
      </trkpt>
      <trkpt lat="44.74989" lon="5.04759">
        <ele>397</ele>
        <time>2020-02-07T10:05:41.000Z</time>
      </trkpt>
      <trkpt lat="44.7499" lon="5.04758">
        <ele>397</ele>
        <time>2020-02-07T10:05:42.000Z</time>
      </trkpt>
      <trkpt lat="44.74991" lon="5.04758">
        <ele>397</ele>
        <time>2020-02-07T10:05:43.000Z</time>
      </trkpt>
      <trkpt lat="44.74992" lon="5.04758">
        <ele>397</ele>
        <time>2020-02-07T10:05:44.000Z</time>
      </trkpt>
      <trkpt lat="44.74993" lon="5.04757">
        <ele>397</ele>
        <time>2020-02-07T10:05:45.000Z</time>
      </trkpt>
      <trkpt lat="44.74994" lon="5.04757">
        <ele>396</ele>
        <time>2020-02-07T10:05:46.000Z</time>
      </trkpt>
      <trkpt lat="44.74995" lon="5.04757">
        <ele>396</ele>
        <time>2020-02-07T10:05:47.000Z</time>
      </trkpt>
      <trkpt lat="44.74996" lon="5.04756">
        <ele>396</ele>
        <time>2020-02-07T10:05:48.000Z</time>
      </trkpt>
      <trkpt lat="44.74997" lon="5.04755">
        <ele>396</ele>
        <time>2020-02-07T10:05:49.000Z</time>
      </trkpt>
      <trkpt lat="44.74998" lon="5.04755">
        <ele>396</ele>
        <time>2020-02-07T10:05:50.000Z</time>
      </trkpt>
      <trkpt lat="44.75" lon="5.04755">
        <ele>395</ele>
        <time>2020-02-07T10:05:51.000Z</time>
      </trkpt>
      <trkpt lat="44.75001" lon="5.04755">
        <ele>395</ele>
        <time>2020-02-07T10:05:52.000Z</time>
      </trkpt>
      <trkpt lat="44.75001" lon="5.04754">
        <ele>395</ele>
        <time>2020-02-07T10:05:53.000Z</time>
      </trkpt>
      <trkpt lat="44.75003" lon="5.04754">
        <ele>395</ele>
        <time>2020-02-07T10:05:54.000Z</time>
      </trkpt>
      <trkpt lat="44.75004" lon="5.04754">
        <ele>395</ele>
        <time>2020-02-07T10:05:55.000Z</time>
      </trkpt>
      <trkpt lat="44.75005" lon="5.04753">
        <ele>395</ele>
        <time>2020-02-07T10:05:56.000Z</time>
      </trkpt>
      <trkpt lat="44.75006" lon="5.04753">
        <ele>395</ele>
        <time>2020-02-07T10:05:57.000Z</time>
      </trkpt>
      <trkpt lat="44.75007" lon="5.04752">
        <ele>395</ele>
        <time>2020-02-07T10:05:58.000Z</time>
      </trkpt>
      <trkpt lat="44.75009" lon="5.04752">
        <ele>395</ele>
        <time>2020-02-07T10:05:59.000Z</time>
      </trkpt>
      <trkpt lat="44.7501" lon="5.04752">
        <ele>395</ele>
        <time>2020-02-07T10:06:00.000Z</time>
      </trkpt>
      <trkpt lat="44.75011" lon="5.04751">
        <ele>395</ele>
        <time>2020-02-07T10:06:01.000Z</time>
      </trkpt>
      <trkpt lat="44.75012" lon="5.04751">
        <ele>395</ele>
        <time>2020-02-07T10:06:02.000Z</time>
      </trkpt>
      <trkpt lat="44.75013" lon="5.0475">
        <ele>394</ele>
        <time>2020-02-07T10:06:03.000Z</time>
      </trkpt>
      <trkpt lat="44.75014" lon="5.04749">
        <ele>394</ele>
        <time>2020-02-07T10:06:04.000Z</time>
      </trkpt>
      <trkpt lat="44.75015" lon="5.04749">
        <ele>394</ele>
        <time>2020-02-07T10:06:05.000Z</time>
      </trkpt>
      <trkpt lat="44.75016" lon="5.04748">
        <ele>395</ele>
        <time>2020-02-07T10:06:06.000Z</time>
      </trkpt>
      <trkpt lat="44.75017" lon="5.04748">
        <ele>395</ele>
        <time>2020-02-07T10:06:07.000Z</time>
      </trkpt>
      <trkpt lat="44.75018" lon="5.04747">
        <ele>395</ele>
        <time>2020-02-07T10:06:08.000Z</time>
      </trkpt>
      <trkpt lat="44.75019" lon="5.04746">
        <ele>395</ele>
        <time>2020-02-07T10:06:09.000Z</time>
      </trkpt>
      <trkpt lat="44.7502" lon="5.04746">
        <ele>395</ele>
        <time>2020-02-07T10:06:10.000Z</time>
      </trkpt>
      <trkpt lat="44.75021" lon="5.04745">
        <ele>395</ele>
        <time>2020-02-07T10:06:11.000Z</time>
      </trkpt>
      <trkpt lat="44.75022" lon="5.04745">
        <ele>395</ele>
        <time>2020-02-07T10:06:12.000Z</time>
      </trkpt>
      <trkpt lat="44.75023" lon="5.04744">
        <ele>395</ele>
        <time>2020-02-07T10:06:13.000Z</time>
      </trkpt>
      <trkpt lat="44.75024" lon="5.04744">
        <ele>395</ele>
        <time>2020-02-07T10:06:14.000Z</time>
      </trkpt>
      <trkpt lat="44.75026" lon="5.04743">
        <ele>395</ele>
        <time>2020-02-07T10:06:15.000Z</time>
      </trkpt>
      <trkpt lat="44.75027" lon="5.04742">
        <ele>395</ele>
        <time>2020-02-07T10:06:16.000Z</time>
      </trkpt>
      <trkpt lat="44.75027" lon="5.04741">
        <ele>395</ele>
        <time>2020-02-07T10:06:17.000Z</time>
      </trkpt>
      <trkpt lat="44.75028" lon="5.0474">
        <ele>395</ele>
        <time>2020-02-07T10:06:18.000Z</time>
      </trkpt>
      <trkpt lat="44.75029" lon="5.04739">
        <ele>395</ele>
        <time>2020-02-07T10:06:19.000Z</time>
      </trkpt>
      <trkpt lat="44.7503" lon="5.04739">
        <ele>395</ele>
        <time>2020-02-07T10:06:20.000Z</time>
      </trkpt>
      <trkpt lat="44.75031" lon="5.04738">
        <ele>395</ele>
        <time>2020-02-07T10:06:21.000Z</time>
      </trkpt>
      <trkpt lat="44.75032" lon="5.04738">
        <ele>396</ele>
        <time>2020-02-07T10:06:22.000Z</time>
      </trkpt>
      <trkpt lat="44.75033" lon="5.04738">
        <ele>396</ele>
        <time>2020-02-07T10:06:23.000Z</time>
      </trkpt>
      <trkpt lat="44.75034" lon="5.04737">
        <ele>396</ele>
        <time>2020-02-07T10:06:24.000Z</time>
      </trkpt>
      <trkpt lat="44.75036" lon="5.04737">
        <ele>396</ele>
        <time>2020-02-07T10:06:25.000Z</time>
      </trkpt>
      <trkpt lat="44.75037" lon="5.04736">
        <ele>396</ele>
        <time>2020-02-07T10:06:26.000Z</time>
      </trkpt>
      <trkpt lat="44.75038" lon="5.04735">
        <ele>396</ele>
        <time>2020-02-07T10:06:27.000Z</time>
      </trkpt>
      <trkpt lat="44.75039" lon="5.04735">
        <ele>396</ele>
        <time>2020-02-07T10:06:28.000Z</time>
      </trkpt>
      <trkpt lat="44.75039" lon="5.04735">
        <ele>396</ele>
        <time>2020-02-07T10:06:29.000Z</time>
      </trkpt>
      <trkpt lat="44.7504" lon="5.04734">
        <ele>396</ele>
        <time>2020-02-07T10:06:30.000Z</time>
      </trkpt>
      <trkpt lat="44.75041" lon="5.04734">
        <ele>396</ele>
        <time>2020-02-07T10:06:31.000Z</time>
      </trkpt>
      <trkpt lat="44.75042" lon="5.04733">
        <ele>396</ele>
        <time>2020-02-07T10:06:32.000Z</time>
      </trkpt>
      <trkpt lat="44.75043" lon="5.04733">
        <ele>396</ele>
        <time>2020-02-07T10:06:33.000Z</time>
      </trkpt>
      <trkpt lat="44.75045" lon="5.04732">
        <ele>396</ele>
        <time>2020-02-07T10:06:34.000Z</time>
      </trkpt>
      <trkpt lat="44.75046" lon="5.04731">
        <ele>396</ele>
        <time>2020-02-07T10:06:35.000Z</time>
      </trkpt>
      <trkpt lat="44.75047" lon="5.0473">
        <ele>395</ele>
        <time>2020-02-07T10:06:36.000Z</time>
      </trkpt>
      <trkpt lat="44.75048" lon="5.04729">
        <ele>395</ele>
        <time>2020-02-07T10:06:37.000Z</time>
      </trkpt>
      <trkpt lat="44.75049" lon="5.04728">
        <ele>395</ele>
        <time>2020-02-07T10:06:38.000Z</time>
      </trkpt>
      <trkpt lat="44.7505" lon="5.04728">
        <ele>395</ele>
        <time>2020-02-07T10:06:39.000Z</time>
      </trkpt>
      <trkpt lat="44.75051" lon="5.04727">
        <ele>395</ele>
        <time>2020-02-07T10:06:40.000Z</time>
      </trkpt>
      <trkpt lat="44.75053" lon="5.04727">
        <ele>395</ele>
        <time>2020-02-07T10:06:41.000Z</time>
      </trkpt>
      <trkpt lat="44.75053" lon="5.04726">
        <ele>395</ele>
        <time>2020-02-07T10:06:42.000Z</time>
      </trkpt>
      <trkpt lat="44.75054" lon="5.04726">
        <ele>395</ele>
        <time>2020-02-07T10:06:43.000Z</time>
      </trkpt>
      <trkpt lat="44.75055" lon="5.04725">
        <ele>395</ele>
        <time>2020-02-07T10:06:44.000Z</time>
      </trkpt>
      <trkpt lat="44.75056" lon="5.04724">
        <ele>395</ele>
        <time>2020-02-07T10:06:45.000Z</time>
      </trkpt>
      <trkpt lat="44.75057" lon="5.04723">
        <ele>395</ele>
        <time>2020-02-07T10:06:46.000Z</time>
      </trkpt>
      <trkpt lat="44.75058" lon="5.04722">
        <ele>395</ele>
        <time>2020-02-07T10:06:47.000Z</time>
      </trkpt>
      <trkpt lat="44.75059" lon="5.04722">
        <ele>396</ele>
        <time>2020-02-07T10:06:48.000Z</time>
      </trkpt>
      <trkpt lat="44.7506" lon="5.04722">
        <ele>396</ele>
        <time>2020-02-07T10:06:49.000Z</time>
      </trkpt>
      <trkpt lat="44.75062" lon="5.04721">
        <ele>396</ele>
        <time>2020-02-07T10:06:50.000Z</time>
      </trkpt>
      <trkpt lat="44.75063" lon="5.0472">
        <ele>396</ele>
        <time>2020-02-07T10:06:51.000Z</time>
      </trkpt>
      <trkpt lat="44.75064" lon="5.0472">
        <ele>396</ele>
        <time>2020-02-07T10:06:52.000Z</time>
      </trkpt>
      <trkpt lat="44.75065" lon="5.0472">
        <ele>396</ele>
        <time>2020-02-07T10:06:53.000Z</time>
      </trkpt>
      <trkpt lat="44.75066" lon="5.04719">
        <ele>396</ele>
        <time>2020-02-07T10:06:54.000Z</time>
      </trkpt>
      <trkpt lat="44.75067" lon="5.04718">
        <ele>396</ele>
        <time>2020-02-07T10:06:55.000Z</time>
      </trkpt>
      <trkpt lat="44.75068" lon="5.04718">
        <ele>396</ele>
        <time>2020-02-07T10:06:56.000Z</time>
      </trkpt>
      <trkpt lat="44.75069" lon="5.04718">
        <ele>396</ele>
        <time>2020-02-07T10:06:57.000Z</time>
      </trkpt>
      <trkpt lat="44.7507" lon="5.04717">
        <ele>396</ele>
        <time>2020-02-07T10:06:58.000Z</time>
      </trkpt>
      <trkpt lat="44.7507" lon="5.04717">
        <ele>396</ele>
        <time>2020-02-07T10:06:59.000Z</time>
      </trkpt>
      <trkpt lat="44.75071" lon="5.04716">
        <ele>396</ele>
        <time>2020-02-07T10:07:00.000Z</time>
      </trkpt>
      <trkpt lat="44.75072" lon="5.04716">
        <ele>396</ele>
        <time>2020-02-07T10:07:01.000Z</time>
      </trkpt>
      <trkpt lat="44.75073" lon="5.04715">
        <ele>396</ele>
        <time>2020-02-07T10:07:02.000Z</time>
      </trkpt>
      <trkpt lat="44.75074" lon="5.04714">
        <ele>396</ele>
        <time>2020-02-07T10:07:03.000Z</time>
      </trkpt>
      <trkpt lat="44.75075" lon="5.04713">
        <ele>396</ele>
        <time>2020-02-07T10:07:04.000Z</time>
      </trkpt>
      <trkpt lat="44.75077" lon="5.04712">
        <ele>396</ele>
        <time>2020-02-07T10:07:05.000Z</time>
      </trkpt>
      <trkpt lat="44.75078" lon="5.04712">
        <ele>396</ele>
        <time>2020-02-07T10:07:06.000Z</time>
      </trkpt>
      <trkpt lat="44.75079" lon="5.04711">
        <ele>396</ele>
        <time>2020-02-07T10:07:07.000Z</time>
      </trkpt>
      <trkpt lat="44.7508" lon="5.0471">
        <ele>396</ele>
        <time>2020-02-07T10:07:08.000Z</time>
      </trkpt>
      <trkpt lat="44.75081" lon="5.0471">
        <ele>396</ele>
        <time>2020-02-07T10:07:09.000Z</time>
      </trkpt>
      <trkpt lat="44.75082" lon="5.04709">
        <ele>396</ele>
        <time>2020-02-07T10:07:10.000Z</time>
      </trkpt>
      <trkpt lat="44.75083" lon="5.04709">
        <ele>396</ele>
        <time>2020-02-07T10:07:11.000Z</time>
      </trkpt>
      <trkpt lat="44.75085" lon="5.04708">
        <ele>396</ele>
        <time>2020-02-07T10:07:12.000Z</time>
      </trkpt>
      <trkpt lat="44.75086" lon="5.04708">
        <ele>396</ele>
        <time>2020-02-07T10:07:13.000Z</time>
      </trkpt>
      <trkpt lat="44.75087" lon="5.04708">
        <ele>396</ele>
        <time>2020-02-07T10:07:14.000Z</time>
      </trkpt>
      <trkpt lat="44.75088" lon="5.04708">
        <ele>396</ele>
        <time>2020-02-07T10:07:15.000Z</time>
      </trkpt>
      <trkpt lat="44.75089" lon="5.04707">
        <ele>396</ele>
        <time>2020-02-07T10:07:16.000Z</time>
      </trkpt>
      <trkpt lat="44.7509" lon="5.04707">
        <ele>396</ele>
        <time>2020-02-07T10:07:17.000Z</time>
      </trkpt>
      <trkpt lat="44.75091" lon="5.04706">
        <ele>396</ele>
        <time>2020-02-07T10:07:18.000Z</time>
      </trkpt>
      <trkpt lat="44.75092" lon="5.04705">
        <ele>396</ele>
        <time>2020-02-07T10:07:19.000Z</time>
      </trkpt>
      <trkpt lat="44.75093" lon="5.04705">
        <ele>396</ele>
        <time>2020-02-07T10:07:20.000Z</time>
      </trkpt>
      <trkpt lat="44.75094" lon="5.04704">
        <ele>395</ele>
        <time>2020-02-07T10:07:21.000Z</time>
      </trkpt>
      <trkpt lat="44.75095" lon="5.04704">
        <ele>395</ele>
        <time>2020-02-07T10:07:22.000Z</time>
      </trkpt>
      <trkpt lat="44.75096" lon="5.04704">
        <ele>395</ele>
        <time>2020-02-07T10:07:23.000Z</time>
      </trkpt>
      <trkpt lat="44.75097" lon="5.04704">
        <ele>395</ele>
        <time>2020-02-07T10:07:24.000Z</time>
      </trkpt>
      <trkpt lat="44.75098" lon="5.04703">
        <ele>396</ele>
        <time>2020-02-07T10:07:25.000Z</time>
      </trkpt>
      <trkpt lat="44.751" lon="5.04703">
        <ele>396</ele>
        <time>2020-02-07T10:07:26.000Z</time>
      </trkpt>
      <trkpt lat="44.75101" lon="5.04703">
        <ele>396</ele>
        <time>2020-02-07T10:07:27.000Z</time>
      </trkpt>
      <trkpt lat="44.75102" lon="5.04703">
        <ele>396</ele>
        <time>2020-02-07T10:07:28.000Z</time>
      </trkpt>
      <trkpt lat="44.75104" lon="5.04702">
        <ele>396</ele>
        <time>2020-02-07T10:07:29.000Z</time>
      </trkpt>
      <trkpt lat="44.75105" lon="5.04702">
        <ele>396</ele>
        <time>2020-02-07T10:07:30.000Z</time>
      </trkpt>
      <trkpt lat="44.75106" lon="5.04702">
        <ele>396</ele>
        <time>2020-02-07T10:07:31.000Z</time>
      </trkpt>
      <trkpt lat="44.75107" lon="5.04702">
        <ele>396</ele>
        <time>2020-02-07T10:07:32.000Z</time>
      </trkpt>
      <trkpt lat="44.75109" lon="5.04702">
        <ele>396</ele>
        <time>2020-02-07T10:07:33.000Z</time>
      </trkpt>
      <trkpt lat="44.7511" lon="5.04701">
        <ele>396</ele>
        <time>2020-02-07T10:07:34.000Z</time>
      </trkpt>
      <trkpt lat="44.75111" lon="5.04701">
        <ele>396</ele>
        <time>2020-02-07T10:07:35.000Z</time>
      </trkpt>
      <trkpt lat="44.75112" lon="5.04701">
        <ele>396</ele>
        <time>2020-02-07T10:07:36.000Z</time>
      </trkpt>
      <trkpt lat="44.75114" lon="5.04701">
        <ele>396</ele>
        <time>2020-02-07T10:07:37.000Z</time>
      </trkpt>
      <trkpt lat="44.75115" lon="5.04701">
        <ele>396</ele>
        <time>2020-02-07T10:07:38.000Z</time>
      </trkpt>
      <trkpt lat="44.75116" lon="5.04701">
        <ele>397</ele>
        <time>2020-02-07T10:07:39.000Z</time>
      </trkpt>
      <trkpt lat="44.75117" lon="5.04701">
        <ele>397</ele>
        <time>2020-02-07T10:07:40.000Z</time>
      </trkpt>
      <trkpt lat="44.75118" lon="5.047">
        <ele>397</ele>
        <time>2020-02-07T10:07:41.000Z</time>
      </trkpt>
      <trkpt lat="44.75119" lon="5.047">
        <ele>397</ele>
        <time>2020-02-07T10:07:42.000Z</time>
      </trkpt>
      <trkpt lat="44.7512" lon="5.047">
        <ele>397</ele>
        <time>2020-02-07T10:07:43.000Z</time>
      </trkpt>
      <trkpt lat="44.75121" lon="5.04699">
        <ele>397</ele>
        <time>2020-02-07T10:07:44.000Z</time>
      </trkpt>
      <trkpt lat="44.75123" lon="5.04699">
        <ele>397</ele>
        <time>2020-02-07T10:07:45.000Z</time>
      </trkpt>
      <trkpt lat="44.75124" lon="5.04699">
        <ele>397</ele>
        <time>2020-02-07T10:07:46.000Z</time>
      </trkpt>
      <trkpt lat="44.75125" lon="5.04698">
        <ele>397</ele>
        <time>2020-02-07T10:07:47.000Z</time>
      </trkpt>
      <trkpt lat="44.75126" lon="5.04698">
        <ele>397</ele>
        <time>2020-02-07T10:07:48.000Z</time>
      </trkpt>
      <trkpt lat="44.75127" lon="5.04698">
        <ele>397</ele>
        <time>2020-02-07T10:07:49.000Z</time>
      </trkpt>
      <trkpt lat="44.75128" lon="5.04697">
        <ele>397</ele>
        <time>2020-02-07T10:07:50.000Z</time>
      </trkpt>
      <trkpt lat="44.75129" lon="5.04697">
        <ele>397</ele>
        <time>2020-02-07T10:07:51.000Z</time>
      </trkpt>
      <trkpt lat="44.7513" lon="5.04697">
        <ele>397</ele>
        <time>2020-02-07T10:07:52.000Z</time>
      </trkpt>
      <trkpt lat="44.75131" lon="5.04697">
        <ele>397</ele>
        <time>2020-02-07T10:07:53.000Z</time>
      </trkpt>
      <trkpt lat="44.75133" lon="5.04697">
        <ele>397</ele>
        <time>2020-02-07T10:07:54.000Z</time>
      </trkpt>
      <trkpt lat="44.75134" lon="5.04697">
        <ele>397</ele>
        <time>2020-02-07T10:07:55.000Z</time>
      </trkpt>
      <trkpt lat="44.75134" lon="5.04697">
        <ele>397</ele>
        <time>2020-02-07T10:07:56.000Z</time>
      </trkpt>
      <trkpt lat="44.75135" lon="5.04697">
        <ele>397</ele>
        <time>2020-02-07T10:07:57.000Z</time>
      </trkpt>
      <trkpt lat="44.75136" lon="5.04697">
        <ele>397</ele>
        <time>2020-02-07T10:07:58.000Z</time>
      </trkpt>
      <trkpt lat="44.75138" lon="5.04697">
        <ele>397</ele>
        <time>2020-02-07T10:07:59.000Z</time>
      </trkpt>
      <trkpt lat="44.75139" lon="5.04697">
        <ele>397</ele>
        <time>2020-02-07T10:08:00.000Z</time>
      </trkpt>
      <trkpt lat="44.7514" lon="5.04698">
        <ele>397</ele>
        <time>2020-02-07T10:08:01.000Z</time>
      </trkpt>
      <trkpt lat="44.75141" lon="5.04698">
        <ele>397</ele>
        <time>2020-02-07T10:08:02.000Z</time>
      </trkpt>
      <trkpt lat="44.75142" lon="5.04698">
        <ele>397</ele>
        <time>2020-02-07T10:08:03.000Z</time>
      </trkpt>
      <trkpt lat="44.75143" lon="5.04698">
        <ele>397</ele>
        <time>2020-02-07T10:08:04.000Z</time>
      </trkpt>
      <trkpt lat="44.75144" lon="5.04698">
        <ele>397</ele>
        <time>2020-02-07T10:08:05.000Z</time>
      </trkpt>
      <trkpt lat="44.75145" lon="5.04698">
        <ele>397</ele>
        <time>2020-02-07T10:08:06.000Z</time>
      </trkpt>
      <trkpt lat="44.75146" lon="5.04698">
        <ele>398</ele>
        <time>2020-02-07T10:08:07.000Z</time>
      </trkpt>
      <trkpt lat="44.75147" lon="5.04698">
        <ele>398</ele>
        <time>2020-02-07T10:08:08.000Z</time>
      </trkpt>
      <trkpt lat="44.75149" lon="5.04699">
        <ele>398</ele>
        <time>2020-02-07T10:08:09.000Z</time>
      </trkpt>
      <trkpt lat="44.7515" lon="5.04699">
        <ele>398</ele>
        <time>2020-02-07T10:08:10.000Z</time>
      </trkpt>
      <trkpt lat="44.75151" lon="5.047">
        <ele>398</ele>
        <time>2020-02-07T10:08:11.000Z</time>
      </trkpt>
      <trkpt lat="44.75152" lon="5.047">
        <ele>398</ele>
        <time>2020-02-07T10:08:12.000Z</time>
      </trkpt>
      <trkpt lat="44.75153" lon="5.047">
        <ele>398</ele>
        <time>2020-02-07T10:08:13.000Z</time>
      </trkpt>
      <trkpt lat="44.75154" lon="5.047">
        <ele>398</ele>
        <time>2020-02-07T10:08:14.000Z</time>
      </trkpt>
      <trkpt lat="44.75155" lon="5.04701">
        <ele>398</ele>
        <time>2020-02-07T10:08:15.000Z</time>
      </trkpt>
      <trkpt lat="44.75156" lon="5.04701">
        <ele>398</ele>
        <time>2020-02-07T10:08:16.000Z</time>
      </trkpt>
      <trkpt lat="44.75157" lon="5.04701">
        <ele>398</ele>
        <time>2020-02-07T10:08:17.000Z</time>
      </trkpt>
      <trkpt lat="44.75158" lon="5.04701">
        <ele>399</ele>
        <time>2020-02-07T10:08:18.000Z</time>
      </trkpt>
      <trkpt lat="44.75159" lon="5.04702">
        <ele>399</ele>
        <time>2020-02-07T10:08:19.000Z</time>
      </trkpt>
      <trkpt lat="44.7516" lon="5.04702">
        <ele>399</ele>
        <time>2020-02-07T10:08:20.000Z</time>
      </trkpt>
      <trkpt lat="44.75161" lon="5.04703">
        <ele>399</ele>
        <time>2020-02-07T10:08:21.000Z</time>
      </trkpt>
      <trkpt lat="44.75162" lon="5.04703">
        <ele>399</ele>
        <time>2020-02-07T10:08:22.000Z</time>
      </trkpt>
      <trkpt lat="44.75163" lon="5.04703">
        <ele>399</ele>
        <time>2020-02-07T10:08:23.000Z</time>
      </trkpt>
      <trkpt lat="44.75164" lon="5.04704">
        <ele>399</ele>
        <time>2020-02-07T10:08:24.000Z</time>
      </trkpt>
      <trkpt lat="44.75165" lon="5.04704">
        <ele>399</ele>
        <time>2020-02-07T10:08:25.000Z</time>
      </trkpt>
      <trkpt lat="44.75165" lon="5.04705">
        <ele>400</ele>
        <time>2020-02-07T10:08:26.000Z</time>
      </trkpt>
      <trkpt lat="44.75166" lon="5.04705">
        <ele>400</ele>
        <time>2020-02-07T10:08:27.000Z</time>
      </trkpt>
      <trkpt lat="44.75167" lon="5.04705">
        <ele>400</ele>
        <time>2020-02-07T10:08:28.000Z</time>
      </trkpt>
      <trkpt lat="44.75168" lon="5.04705">
        <ele>400</ele>
        <time>2020-02-07T10:08:29.000Z</time>
      </trkpt>
      <trkpt lat="44.75169" lon="5.04705">
        <ele>400</ele>
        <time>2020-02-07T10:08:30.000Z</time>
      </trkpt>
      <trkpt lat="44.7517" lon="5.04705">
        <ele>400</ele>
        <time>2020-02-07T10:08:31.000Z</time>
      </trkpt>
      <trkpt lat="44.75171" lon="5.04705">
        <ele>400</ele>
        <time>2020-02-07T10:08:32.000Z</time>
      </trkpt>
      <trkpt lat="44.75172" lon="5.04706">
        <ele>400</ele>
        <time>2020-02-07T10:08:33.000Z</time>
      </trkpt>
      <trkpt lat="44.75173" lon="5.04706">
        <ele>400</ele>
        <time>2020-02-07T10:08:34.000Z</time>
      </trkpt>
      <trkpt lat="44.75174" lon="5.04706">
        <ele>400</ele>
        <time>2020-02-07T10:08:35.000Z</time>
      </trkpt>
      <trkpt lat="44.75176" lon="5.04707">
        <ele>401</ele>
        <time>2020-02-07T10:08:36.000Z</time>
      </trkpt>
      <trkpt lat="44.75177" lon="5.04707">
        <ele>401</ele>
        <time>2020-02-07T10:08:37.000Z</time>
      </trkpt>
      <trkpt lat="44.75177" lon="5.04707">
        <ele>401</ele>
        <time>2020-02-07T10:08:38.000Z</time>
      </trkpt>
      <trkpt lat="44.75178" lon="5.04708">
        <ele>401</ele>
        <time>2020-02-07T10:08:39.000Z</time>
      </trkpt>
      <trkpt lat="44.75179" lon="5.04708">
        <ele>401</ele>
        <time>2020-02-07T10:08:40.000Z</time>
      </trkpt>
      <trkpt lat="44.7518" lon="5.04708">
        <ele>401</ele>
        <time>2020-02-07T10:08:41.000Z</time>
      </trkpt>
      <trkpt lat="44.75181" lon="5.04708">
        <ele>401</ele>
        <time>2020-02-07T10:08:42.000Z</time>
      </trkpt>
      <trkpt lat="44.75182" lon="5.04709">
        <ele>400</ele>
        <time>2020-02-07T10:08:43.000Z</time>
      </trkpt>
      <trkpt lat="44.75183" lon="5.04709">
        <ele>400</ele>
        <time>2020-02-07T10:08:44.000Z</time>
      </trkpt>
      <trkpt lat="44.75184" lon="5.0471">
        <ele>400</ele>
        <time>2020-02-07T10:08:45.000Z</time>
      </trkpt>
      <trkpt lat="44.75185" lon="5.0471">
        <ele>400</ele>
        <time>2020-02-07T10:08:46.000Z</time>
      </trkpt>
      <trkpt lat="44.75186" lon="5.0471">
        <ele>400</ele>
        <time>2020-02-07T10:08:47.000Z</time>
      </trkpt>
      <trkpt lat="44.75187" lon="5.04711">
        <ele>400</ele>
        <time>2020-02-07T10:08:48.000Z</time>
      </trkpt>
      <trkpt lat="44.75188" lon="5.04711">
        <ele>400</ele>
        <time>2020-02-07T10:08:49.000Z</time>
      </trkpt>
      <trkpt lat="44.75189" lon="5.04711">
        <ele>399</ele>
        <time>2020-02-07T10:08:50.000Z</time>
      </trkpt>
      <trkpt lat="44.7519" lon="5.04711">
        <ele>399</ele>
        <time>2020-02-07T10:08:51.000Z</time>
      </trkpt>
      <trkpt lat="44.75192" lon="5.04711">
        <ele>399</ele>
        <time>2020-02-07T10:08:52.000Z</time>
      </trkpt>
      <trkpt lat="44.75193" lon="5.04711">
        <ele>399</ele>
        <time>2020-02-07T10:08:53.000Z</time>
      </trkpt>
      <trkpt lat="44.75194" lon="5.04712">
        <ele>399</ele>
        <time>2020-02-07T10:08:54.000Z</time>
      </trkpt>
      <trkpt lat="44.75195" lon="5.04712">
        <ele>399</ele>
        <time>2020-02-07T10:08:55.000Z</time>
      </trkpt>
      <trkpt lat="44.75196" lon="5.04712">
        <ele>399</ele>
        <time>2020-02-07T10:08:56.000Z</time>
      </trkpt>
      <trkpt lat="44.75197" lon="5.04712">
        <ele>399</ele>
        <time>2020-02-07T10:08:57.000Z</time>
      </trkpt>
      <trkpt lat="44.75198" lon="5.04712">
        <ele>399</ele>
        <time>2020-02-07T10:08:58.000Z</time>
      </trkpt>
      <trkpt lat="44.75199" lon="5.04712">
        <ele>399</ele>
        <time>2020-02-07T10:08:59.000Z</time>
      </trkpt>
      <trkpt lat="44.752" lon="5.04712">
        <ele>399</ele>
        <time>2020-02-07T10:09:00.000Z</time>
      </trkpt>
      <trkpt lat="44.75202" lon="5.04712">
        <ele>399</ele>
        <time>2020-02-07T10:09:01.000Z</time>
      </trkpt>
      <trkpt lat="44.75203" lon="5.04712">
        <ele>399</ele>
        <time>2020-02-07T10:09:02.000Z</time>
      </trkpt>
      <trkpt lat="44.75203" lon="5.04712">
        <ele>399</ele>
        <time>2020-02-07T10:09:03.000Z</time>
      </trkpt>
      <trkpt lat="44.75204" lon="5.04712">
        <ele>399</ele>
        <time>2020-02-07T10:09:04.000Z</time>
      </trkpt>
      <trkpt lat="44.75205" lon="5.04712">
        <ele>399</ele>
        <time>2020-02-07T10:09:05.000Z</time>
      </trkpt>
      <trkpt lat="44.75206" lon="5.04711">
        <ele>399</ele>
        <time>2020-02-07T10:09:06.000Z</time>
      </trkpt>
      <trkpt lat="44.75208" lon="5.04711">
        <ele>399</ele>
        <time>2020-02-07T10:09:07.000Z</time>
      </trkpt>
      <trkpt lat="44.75209" lon="5.04711">
        <ele>399</ele>
        <time>2020-02-07T10:09:08.000Z</time>
      </trkpt>
      <trkpt lat="44.7521" lon="5.0471">
        <ele>399</ele>
        <time>2020-02-07T10:09:09.000Z</time>
      </trkpt>
      <trkpt lat="44.75211" lon="5.0471">
        <ele>399</ele>
        <time>2020-02-07T10:09:10.000Z</time>
      </trkpt>
      <trkpt lat="44.75212" lon="5.0471">
        <ele>399</ele>
        <time>2020-02-07T10:09:11.000Z</time>
      </trkpt>
      <trkpt lat="44.75213" lon="5.04709">
        <ele>399</ele>
        <time>2020-02-07T10:09:12.000Z</time>
      </trkpt>
      <trkpt lat="44.75214" lon="5.04709">
        <ele>399</ele>
        <time>2020-02-07T10:09:13.000Z</time>
      </trkpt>
      <trkpt lat="44.75215" lon="5.04708">
        <ele>399</ele>
        <time>2020-02-07T10:09:14.000Z</time>
      </trkpt>
      <trkpt lat="44.75216" lon="5.04708">
        <ele>399</ele>
        <time>2020-02-07T10:09:15.000Z</time>
      </trkpt>
      <trkpt lat="44.75217" lon="5.04707">
        <ele>399</ele>
        <time>2020-02-07T10:09:16.000Z</time>
      </trkpt>
      <trkpt lat="44.75217" lon="5.04707">
        <ele>399</ele>
        <time>2020-02-07T10:09:17.000Z</time>
      </trkpt>
      <trkpt lat="44.75218" lon="5.04706">
        <ele>399</ele>
        <time>2020-02-07T10:09:18.000Z</time>
      </trkpt>
      <trkpt lat="44.75219" lon="5.04705">
        <ele>399</ele>
        <time>2020-02-07T10:09:19.000Z</time>
      </trkpt>
      <trkpt lat="44.7522" lon="5.04705">
        <ele>399</ele>
        <time>2020-02-07T10:09:20.000Z</time>
      </trkpt>
      <trkpt lat="44.75221" lon="5.04704">
        <ele>400</ele>
        <time>2020-02-07T10:09:21.000Z</time>
      </trkpt>
      <trkpt lat="44.75222" lon="5.04704">
        <ele>400</ele>
        <time>2020-02-07T10:09:22.000Z</time>
      </trkpt>
      <trkpt lat="44.75223" lon="5.04703">
        <ele>400</ele>
        <time>2020-02-07T10:09:23.000Z</time>
      </trkpt>
      <trkpt lat="44.75223" lon="5.04703">
        <ele>400</ele>
        <time>2020-02-07T10:09:24.000Z</time>
      </trkpt>
      <trkpt lat="44.75224" lon="5.04702">
        <ele>400</ele>
        <time>2020-02-07T10:09:25.000Z</time>
      </trkpt>
      <trkpt lat="44.75225" lon="5.04702">
        <ele>400</ele>
        <time>2020-02-07T10:09:26.000Z</time>
      </trkpt>
      <trkpt lat="44.75226" lon="5.04701">
        <ele>400</ele>
        <time>2020-02-07T10:09:27.000Z</time>
      </trkpt>
      <trkpt lat="44.75227" lon="5.04701">
        <ele>401</ele>
        <time>2020-02-07T10:09:28.000Z</time>
      </trkpt>
      <trkpt lat="44.75228" lon="5.047">
        <ele>401</ele>
        <time>2020-02-07T10:09:29.000Z</time>
      </trkpt>
      <trkpt lat="44.75229" lon="5.04699">
        <ele>401</ele>
        <time>2020-02-07T10:09:30.000Z</time>
      </trkpt>
      <trkpt lat="44.75229" lon="5.04699">
        <ele>401</ele>
        <time>2020-02-07T10:09:31.000Z</time>
      </trkpt>
      <trkpt lat="44.7523" lon="5.04698">
        <ele>401</ele>
        <time>2020-02-07T10:09:32.000Z</time>
      </trkpt>
      <trkpt lat="44.75231" lon="5.04697">
        <ele>401</ele>
        <time>2020-02-07T10:09:33.000Z</time>
      </trkpt>
      <trkpt lat="44.75232" lon="5.04696">
        <ele>401</ele>
        <time>2020-02-07T10:09:34.000Z</time>
      </trkpt>
      <trkpt lat="44.75233" lon="5.04695">
        <ele>401</ele>
        <time>2020-02-07T10:09:35.000Z</time>
      </trkpt>
      <trkpt lat="44.75234" lon="5.04695">
        <ele>402</ele>
        <time>2020-02-07T10:09:36.000Z</time>
      </trkpt>
      <trkpt lat="44.75235" lon="5.04694">
        <ele>402</ele>
        <time>2020-02-07T10:09:37.000Z</time>
      </trkpt>
      <trkpt lat="44.75236" lon="5.04694">
        <ele>402</ele>
        <time>2020-02-07T10:09:38.000Z</time>
      </trkpt>
      <trkpt lat="44.75236" lon="5.04693">
        <ele>402</ele>
        <time>2020-02-07T10:09:39.000Z</time>
      </trkpt>
      <trkpt lat="44.75237" lon="5.04692">
        <ele>402</ele>
        <time>2020-02-07T10:09:40.000Z</time>
      </trkpt>
      <trkpt lat="44.75238" lon="5.04692">
        <ele>402</ele>
        <time>2020-02-07T10:09:41.000Z</time>
      </trkpt>
      <trkpt lat="44.75239" lon="5.04691">
        <ele>402</ele>
        <time>2020-02-07T10:09:42.000Z</time>
      </trkpt>
      <trkpt lat="44.7524" lon="5.0469">
        <ele>402</ele>
        <time>2020-02-07T10:09:43.000Z</time>
      </trkpt>
      <trkpt lat="44.75241" lon="5.04689">
        <ele>402</ele>
        <time>2020-02-07T10:09:44.000Z</time>
      </trkpt>
      <trkpt lat="44.75241" lon="5.04689">
        <ele>403</ele>
        <time>2020-02-07T10:09:45.000Z</time>
      </trkpt>
      <trkpt lat="44.75242" lon="5.04688">
        <ele>403</ele>
        <time>2020-02-07T10:09:46.000Z</time>
      </trkpt>
      <trkpt lat="44.75243" lon="5.04687">
        <ele>403</ele>
        <time>2020-02-07T10:09:47.000Z</time>
      </trkpt>
      <trkpt lat="44.75244" lon="5.04686">
        <ele>403</ele>
        <time>2020-02-07T10:09:48.000Z</time>
      </trkpt>
      <trkpt lat="44.75246" lon="5.04685">
        <ele>403</ele>
        <time>2020-02-07T10:09:49.000Z</time>
      </trkpt>
      <trkpt lat="44.75247" lon="5.04684">
        <ele>403</ele>
        <time>2020-02-07T10:09:50.000Z</time>
      </trkpt>
      <trkpt lat="44.75248" lon="5.04683">
        <ele>403</ele>
        <time>2020-02-07T10:09:51.000Z</time>
      </trkpt>
      <trkpt lat="44.75249" lon="5.04682">
        <ele>403</ele>
        <time>2020-02-07T10:09:52.000Z</time>
      </trkpt>
      <trkpt lat="44.7525" lon="5.04681">
        <ele>403</ele>
        <time>2020-02-07T10:09:53.000Z</time>
      </trkpt>
      <trkpt lat="44.75251" lon="5.0468">
        <ele>403</ele>
        <time>2020-02-07T10:09:54.000Z</time>
      </trkpt>
      <trkpt lat="44.75252" lon="5.04679">
        <ele>403</ele>
        <time>2020-02-07T10:09:55.000Z</time>
      </trkpt>
      <trkpt lat="44.75252" lon="5.04678">
        <ele>404</ele>
        <time>2020-02-07T10:09:56.000Z</time>
      </trkpt>
      <trkpt lat="44.75253" lon="5.04677">
        <ele>404</ele>
        <time>2020-02-07T10:09:57.000Z</time>
      </trkpt>
      <trkpt lat="44.75254" lon="5.04676">
        <ele>404</ele>
        <time>2020-02-07T10:09:58.000Z</time>
      </trkpt>
      <trkpt lat="44.75255" lon="5.04675">
        <ele>404</ele>
        <time>2020-02-07T10:09:59.000Z</time>
      </trkpt>
      <trkpt lat="44.75255" lon="5.04675">
        <ele>404</ele>
        <time>2020-02-07T10:10:00.000Z</time>
      </trkpt>
      <trkpt lat="44.75256" lon="5.04673">
        <ele>404</ele>
        <time>2020-02-07T10:10:01.000Z</time>
      </trkpt>
      <trkpt lat="44.75257" lon="5.04672">
        <ele>404</ele>
        <time>2020-02-07T10:10:02.000Z</time>
      </trkpt>
      <trkpt lat="44.75257" lon="5.04671">
        <ele>404</ele>
        <time>2020-02-07T10:10:03.000Z</time>
      </trkpt>
      <trkpt lat="44.75258" lon="5.04671">
        <ele>404</ele>
        <time>2020-02-07T10:10:04.000Z</time>
      </trkpt>
      <trkpt lat="44.75259" lon="5.0467">
        <ele>404</ele>
        <time>2020-02-07T10:10:05.000Z</time>
      </trkpt>
      <trkpt lat="44.7526" lon="5.04669">
        <ele>404</ele>
        <time>2020-02-07T10:10:06.000Z</time>
      </trkpt>
      <trkpt lat="44.7526" lon="5.04668">
        <ele>404</ele>
        <time>2020-02-07T10:10:07.000Z</time>
      </trkpt>
      <trkpt lat="44.75261" lon="5.04668">
        <ele>404</ele>
        <time>2020-02-07T10:10:08.000Z</time>
      </trkpt>
      <trkpt lat="44.75262" lon="5.04667">
        <ele>405</ele>
        <time>2020-02-07T10:10:09.000Z</time>
      </trkpt>
      <trkpt lat="44.75263" lon="5.04666">
        <ele>405</ele>
        <time>2020-02-07T10:10:10.000Z</time>
      </trkpt>
      <trkpt lat="44.75263" lon="5.04665">
        <ele>405</ele>
        <time>2020-02-07T10:10:11.000Z</time>
      </trkpt>
      <trkpt lat="44.75264" lon="5.04664">
        <ele>405</ele>
        <time>2020-02-07T10:10:12.000Z</time>
      </trkpt>
      <trkpt lat="44.75265" lon="5.04663">
        <ele>405</ele>
        <time>2020-02-07T10:10:13.000Z</time>
      </trkpt>
      <trkpt lat="44.75266" lon="5.04662">
        <ele>405</ele>
        <time>2020-02-07T10:10:14.000Z</time>
      </trkpt>
      <trkpt lat="44.75267" lon="5.04661">
        <ele>405</ele>
        <time>2020-02-07T10:10:15.000Z</time>
      </trkpt>
      <trkpt lat="44.75268" lon="5.0466">
        <ele>405</ele>
        <time>2020-02-07T10:10:16.000Z</time>
      </trkpt>
      <trkpt lat="44.75269" lon="5.04659">
        <ele>405</ele>
        <time>2020-02-07T10:10:17.000Z</time>
      </trkpt>
      <trkpt lat="44.7527" lon="5.04658">
        <ele>405</ele>
        <time>2020-02-07T10:10:18.000Z</time>
      </trkpt>
      <trkpt lat="44.75271" lon="5.04658">
        <ele>405</ele>
        <time>2020-02-07T10:10:19.000Z</time>
      </trkpt>
      <trkpt lat="44.75272" lon="5.04657">
        <ele>405</ele>
        <time>2020-02-07T10:10:20.000Z</time>
      </trkpt>
      <trkpt lat="44.75273" lon="5.04656">
        <ele>405</ele>
        <time>2020-02-07T10:10:21.000Z</time>
      </trkpt>
      <trkpt lat="44.75274" lon="5.04655">
        <ele>405</ele>
        <time>2020-02-07T10:10:22.000Z</time>
      </trkpt>
      <trkpt lat="44.75275" lon="5.04655">
        <ele>405</ele>
        <time>2020-02-07T10:10:23.000Z</time>
      </trkpt>
      <trkpt lat="44.75276" lon="5.04654">
        <ele>405</ele>
        <time>2020-02-07T10:10:24.000Z</time>
      </trkpt>
      <trkpt lat="44.75277" lon="5.04654">
        <ele>405</ele>
        <time>2020-02-07T10:10:25.000Z</time>
      </trkpt>
      <trkpt lat="44.75278" lon="5.04654">
        <ele>405</ele>
        <time>2020-02-07T10:10:26.000Z</time>
      </trkpt>
      <trkpt lat="44.75279" lon="5.04653">
        <ele>405</ele>
        <time>2020-02-07T10:10:27.000Z</time>
      </trkpt>
      <trkpt lat="44.7528" lon="5.04653">
        <ele>405</ele>
        <time>2020-02-07T10:10:28.000Z</time>
      </trkpt>
      <trkpt lat="44.75281" lon="5.04653">
        <ele>405</ele>
        <time>2020-02-07T10:10:29.000Z</time>
      </trkpt>
      <trkpt lat="44.75282" lon="5.04652">
        <ele>405</ele>
        <time>2020-02-07T10:10:30.000Z</time>
      </trkpt>
      <trkpt lat="44.75283" lon="5.04652">
        <ele>405</ele>
        <time>2020-02-07T10:10:31.000Z</time>
      </trkpt>
      <trkpt lat="44.75284" lon="5.04651">
        <ele>406</ele>
        <time>2020-02-07T10:10:32.000Z</time>
      </trkpt>
      <trkpt lat="44.75285" lon="5.0465">
        <ele>406</ele>
        <time>2020-02-07T10:10:33.000Z</time>
      </trkpt>
      <trkpt lat="44.75286" lon="5.0465">
        <ele>406</ele>
        <time>2020-02-07T10:10:34.000Z</time>
      </trkpt>
      <trkpt lat="44.75287" lon="5.04649">
        <ele>406</ele>
        <time>2020-02-07T10:10:35.000Z</time>
      </trkpt>
      <trkpt lat="44.75288" lon="5.04648">
        <ele>406</ele>
        <time>2020-02-07T10:10:36.000Z</time>
      </trkpt>
      <trkpt lat="44.75289" lon="5.04648">
        <ele>406</ele>
        <time>2020-02-07T10:10:37.000Z</time>
      </trkpt>
      <trkpt lat="44.7529" lon="5.04647">
        <ele>406</ele>
        <time>2020-02-07T10:10:38.000Z</time>
      </trkpt>
      <trkpt lat="44.75291" lon="5.04646">
        <ele>406</ele>
        <time>2020-02-07T10:10:39.000Z</time>
      </trkpt>
      <trkpt lat="44.75292" lon="5.04645">
        <ele>406</ele>
        <time>2020-02-07T10:10:40.000Z</time>
      </trkpt>
      <trkpt lat="44.75293" lon="5.04645">
        <ele>406</ele>
        <time>2020-02-07T10:10:41.000Z</time>
      </trkpt>
      <trkpt lat="44.75294" lon="5.04644">
        <ele>406</ele>
        <time>2020-02-07T10:10:42.000Z</time>
      </trkpt>
      <trkpt lat="44.75295" lon="5.04644">
        <ele>406</ele>
        <time>2020-02-07T10:10:43.000Z</time>
      </trkpt>
      <trkpt lat="44.75295" lon="5.04643">
        <ele>406</ele>
        <time>2020-02-07T10:10:44.000Z</time>
      </trkpt>
      <trkpt lat="44.75296" lon="5.04642">
        <ele>406</ele>
        <time>2020-02-07T10:10:45.000Z</time>
      </trkpt>
      <trkpt lat="44.75297" lon="5.04642">
        <ele>406</ele>
        <time>2020-02-07T10:10:46.000Z</time>
      </trkpt>
      <trkpt lat="44.75298" lon="5.04641">
        <ele>406</ele>
        <time>2020-02-07T10:10:47.000Z</time>
      </trkpt>
      <trkpt lat="44.75299" lon="5.04641">
        <ele>406</ele>
        <time>2020-02-07T10:10:48.000Z</time>
      </trkpt>
      <trkpt lat="44.75299" lon="5.0464">
        <ele>406</ele>
        <time>2020-02-07T10:10:49.000Z</time>
      </trkpt>
      <trkpt lat="44.75301" lon="5.0464">
        <ele>406</ele>
        <time>2020-02-07T10:10:50.000Z</time>
      </trkpt>
      <trkpt lat="44.75302" lon="5.04639">
        <ele>406</ele>
        <time>2020-02-07T10:10:51.000Z</time>
      </trkpt>
      <trkpt lat="44.75303" lon="5.04639">
        <ele>406</ele>
        <time>2020-02-07T10:10:52.000Z</time>
      </trkpt>
      <trkpt lat="44.75304" lon="5.04638">
        <ele>407</ele>
        <time>2020-02-07T10:10:53.000Z</time>
      </trkpt>
      <trkpt lat="44.75305" lon="5.04638">
        <ele>407</ele>
        <time>2020-02-07T10:10:54.000Z</time>
      </trkpt>
      <trkpt lat="44.75305" lon="5.04637">
        <ele>407</ele>
        <time>2020-02-07T10:10:55.000Z</time>
      </trkpt>
      <trkpt lat="44.75306" lon="5.04636">
        <ele>407</ele>
        <time>2020-02-07T10:10:56.000Z</time>
      </trkpt>
      <trkpt lat="44.75308" lon="5.04636">
        <ele>407</ele>
        <time>2020-02-07T10:10:57.000Z</time>
      </trkpt>
      <trkpt lat="44.75309" lon="5.04635">
        <ele>407</ele>
        <time>2020-02-07T10:10:58.000Z</time>
      </trkpt>
      <trkpt lat="44.7531" lon="5.04634">
        <ele>407</ele>
        <time>2020-02-07T10:10:59.000Z</time>
      </trkpt>
      <trkpt lat="44.75311" lon="5.04634">
        <ele>407</ele>
        <time>2020-02-07T10:11:00.000Z</time>
      </trkpt>
      <trkpt lat="44.75312" lon="5.04633">
        <ele>407</ele>
        <time>2020-02-07T10:11:01.000Z</time>
      </trkpt>
      <trkpt lat="44.75313" lon="5.04633">
        <ele>407</ele>
        <time>2020-02-07T10:11:02.000Z</time>
      </trkpt>
      <trkpt lat="44.75314" lon="5.04633">
        <ele>407</ele>
        <time>2020-02-07T10:11:03.000Z</time>
      </trkpt>
      <trkpt lat="44.75314" lon="5.04632">
        <ele>407</ele>
        <time>2020-02-07T10:11:04.000Z</time>
      </trkpt>
      <trkpt lat="44.75315" lon="5.04632">
        <ele>407</ele>
        <time>2020-02-07T10:11:05.000Z</time>
      </trkpt>
      <trkpt lat="44.75316" lon="5.04632">
        <ele>408</ele>
        <time>2020-02-07T10:11:06.000Z</time>
      </trkpt>
      <trkpt lat="44.75317" lon="5.04631">
        <ele>408</ele>
        <time>2020-02-07T10:11:07.000Z</time>
      </trkpt>
      <trkpt lat="44.75318" lon="5.04631">
        <ele>408</ele>
        <time>2020-02-07T10:11:08.000Z</time>
      </trkpt>
      <trkpt lat="44.75319" lon="5.04631">
        <ele>408</ele>
        <time>2020-02-07T10:11:09.000Z</time>
      </trkpt>
      <trkpt lat="44.7532" lon="5.04631">
        <ele>408</ele>
        <time>2020-02-07T10:11:10.000Z</time>
      </trkpt>
      <trkpt lat="44.75321" lon="5.04631">
        <ele>408</ele>
        <time>2020-02-07T10:11:11.000Z</time>
      </trkpt>
      <trkpt lat="44.75323" lon="5.0463">
        <ele>409</ele>
        <time>2020-02-07T10:11:12.000Z</time>
      </trkpt>
      <trkpt lat="44.75324" lon="5.0463">
        <ele>409</ele>
        <time>2020-02-07T10:11:13.000Z</time>
      </trkpt>
      <trkpt lat="44.75325" lon="5.0463">
        <ele>409</ele>
        <time>2020-02-07T10:11:14.000Z</time>
      </trkpt>
      <trkpt lat="44.75327" lon="5.0463">
        <ele>409</ele>
        <time>2020-02-07T10:11:15.000Z</time>
      </trkpt>
      <trkpt lat="44.75328" lon="5.0463">
        <ele>409</ele>
        <time>2020-02-07T10:11:16.000Z</time>
      </trkpt>
      <trkpt lat="44.75329" lon="5.04629">
        <ele>409</ele>
        <time>2020-02-07T10:11:17.000Z</time>
      </trkpt>
      <trkpt lat="44.7533" lon="5.04629">
        <ele>409</ele>
        <time>2020-02-07T10:11:18.000Z</time>
      </trkpt>
      <trkpt lat="44.75331" lon="5.04629">
        <ele>409</ele>
        <time>2020-02-07T10:11:19.000Z</time>
      </trkpt>
      <trkpt lat="44.75332" lon="5.04629">
        <ele>410</ele>
        <time>2020-02-07T10:11:20.000Z</time>
      </trkpt>
      <trkpt lat="44.75333" lon="5.04629">
        <ele>410</ele>
        <time>2020-02-07T10:11:21.000Z</time>
      </trkpt>
      <trkpt lat="44.75334" lon="5.04629">
        <ele>410</ele>
        <time>2020-02-07T10:11:22.000Z</time>
      </trkpt>
      <trkpt lat="44.75335" lon="5.04629">
        <ele>410</ele>
        <time>2020-02-07T10:11:23.000Z</time>
      </trkpt>
      <trkpt lat="44.75336" lon="5.04628">
        <ele>410</ele>
        <time>2020-02-07T10:11:24.000Z</time>
      </trkpt>
      <trkpt lat="44.75337" lon="5.04628">
        <ele>410</ele>
        <time>2020-02-07T10:11:25.000Z</time>
      </trkpt>
      <trkpt lat="44.75338" lon="5.04628">
        <ele>410</ele>
        <time>2020-02-07T10:11:26.000Z</time>
      </trkpt>
      <trkpt lat="44.75339" lon="5.04628">
        <ele>410</ele>
        <time>2020-02-07T10:11:27.000Z</time>
      </trkpt>
      <trkpt lat="44.7534" lon="5.04628">
        <ele>410</ele>
        <time>2020-02-07T10:11:28.000Z</time>
      </trkpt>
      <trkpt lat="44.75341" lon="5.04628">
        <ele>410</ele>
        <time>2020-02-07T10:11:29.000Z</time>
      </trkpt>
      <trkpt lat="44.75342" lon="5.04628">
        <ele>410</ele>
        <time>2020-02-07T10:11:30.000Z</time>
      </trkpt>
      <trkpt lat="44.75343" lon="5.04628">
        <ele>410</ele>
        <time>2020-02-07T10:11:31.000Z</time>
      </trkpt>
      <trkpt lat="44.75344" lon="5.04628">
        <ele>411</ele>
        <time>2020-02-07T10:11:32.000Z</time>
      </trkpt>
      <trkpt lat="44.75345" lon="5.04628">
        <ele>411</ele>
        <time>2020-02-07T10:11:33.000Z</time>
      </trkpt>
      <trkpt lat="44.75346" lon="5.04627">
        <ele>411</ele>
        <time>2020-02-07T10:11:34.000Z</time>
      </trkpt>
      <trkpt lat="44.75347" lon="5.04627">
        <ele>411</ele>
        <time>2020-02-07T10:11:35.000Z</time>
      </trkpt>
      <trkpt lat="44.75348" lon="5.04626">
        <ele>411</ele>
        <time>2020-02-07T10:11:36.000Z</time>
      </trkpt>
      <trkpt lat="44.75349" lon="5.04626">
        <ele>411</ele>
        <time>2020-02-07T10:11:37.000Z</time>
      </trkpt>
      <trkpt lat="44.7535" lon="5.04626">
        <ele>411</ele>
        <time>2020-02-07T10:11:38.000Z</time>
      </trkpt>
      <trkpt lat="44.75351" lon="5.04625">
        <ele>411</ele>
        <time>2020-02-07T10:11:39.000Z</time>
      </trkpt>
      <trkpt lat="44.75352" lon="5.04625">
        <ele>411</ele>
        <time>2020-02-07T10:11:40.000Z</time>
      </trkpt>
      <trkpt lat="44.75353" lon="5.04625">
        <ele>411</ele>
        <time>2020-02-07T10:11:41.000Z</time>
      </trkpt>
      <trkpt lat="44.75355" lon="5.04625">
        <ele>411</ele>
        <time>2020-02-07T10:11:42.000Z</time>
      </trkpt>
      <trkpt lat="44.75356" lon="5.04625">
        <ele>412</ele>
        <time>2020-02-07T10:11:43.000Z</time>
      </trkpt>
      <trkpt lat="44.75357" lon="5.04625">
        <ele>412</ele>
        <time>2020-02-07T10:11:44.000Z</time>
      </trkpt>
      <trkpt lat="44.75358" lon="5.04625">
        <ele>412</ele>
        <time>2020-02-07T10:11:45.000Z</time>
      </trkpt>
      <trkpt lat="44.75359" lon="5.04624">
        <ele>412</ele>
        <time>2020-02-07T10:11:46.000Z</time>
      </trkpt>
      <trkpt lat="44.7536" lon="5.04624">
        <ele>412</ele>
        <time>2020-02-07T10:11:47.000Z</time>
      </trkpt>
      <trkpt lat="44.75361" lon="5.04624">
        <ele>413</ele>
        <time>2020-02-07T10:11:48.000Z</time>
      </trkpt>
      <trkpt lat="44.75362" lon="5.04624">
        <ele>413</ele>
        <time>2020-02-07T10:11:49.000Z</time>
      </trkpt>
      <trkpt lat="44.75363" lon="5.04623">
        <ele>413</ele>
        <time>2020-02-07T10:11:50.000Z</time>
      </trkpt>
      <trkpt lat="44.75364" lon="5.04623">
        <ele>413</ele>
        <time>2020-02-07T10:11:51.000Z</time>
      </trkpt>
      <trkpt lat="44.75365" lon="5.04622">
        <ele>413</ele>
        <time>2020-02-07T10:11:52.000Z</time>
      </trkpt>
      <trkpt lat="44.75366" lon="5.04622">
        <ele>413</ele>
        <time>2020-02-07T10:11:53.000Z</time>
      </trkpt>
      <trkpt lat="44.75367" lon="5.04622">
        <ele>413</ele>
        <time>2020-02-07T10:11:54.000Z</time>
      </trkpt>
      <trkpt lat="44.75369" lon="5.04622">
        <ele>413</ele>
        <time>2020-02-07T10:11:55.000Z</time>
      </trkpt>
      <trkpt lat="44.7537" lon="5.04622">
        <ele>414</ele>
        <time>2020-02-07T10:11:56.000Z</time>
      </trkpt>
      <trkpt lat="44.75371" lon="5.04621">
        <ele>414</ele>
        <time>2020-02-07T10:11:57.000Z</time>
      </trkpt>
      <trkpt lat="44.75372" lon="5.04621">
        <ele>414</ele>
        <time>2020-02-07T10:11:58.000Z</time>
      </trkpt>
      <trkpt lat="44.75373" lon="5.04622">
        <ele>414</ele>
        <time>2020-02-07T10:11:59.000Z</time>
      </trkpt>
      <trkpt lat="44.75374" lon="5.04622">
        <ele>414</ele>
        <time>2020-02-07T10:12:00.000Z</time>
      </trkpt>
      <trkpt lat="44.75375" lon="5.04622">
        <ele>414</ele>
        <time>2020-02-07T10:12:01.000Z</time>
      </trkpt>
      <trkpt lat="44.75376" lon="5.04622">
        <ele>414</ele>
        <time>2020-02-07T10:12:02.000Z</time>
      </trkpt>
      <trkpt lat="44.75377" lon="5.04621">
        <ele>414</ele>
        <time>2020-02-07T10:12:03.000Z</time>
      </trkpt>
      <trkpt lat="44.75378" lon="5.04621">
        <ele>414</ele>
        <time>2020-02-07T10:12:04.000Z</time>
      </trkpt>
      <trkpt lat="44.75379" lon="5.0462">
        <ele>414</ele>
        <time>2020-02-07T10:12:05.000Z</time>
      </trkpt>
      <trkpt lat="44.7538" lon="5.0462">
        <ele>414</ele>
        <time>2020-02-07T10:12:06.000Z</time>
      </trkpt>
      <trkpt lat="44.75381" lon="5.04619">
        <ele>414</ele>
        <time>2020-02-07T10:12:07.000Z</time>
      </trkpt>
      <trkpt lat="44.75382" lon="5.04619">
        <ele>414</ele>
        <time>2020-02-07T10:12:08.000Z</time>
      </trkpt>
      <trkpt lat="44.75383" lon="5.04618">
        <ele>415</ele>
        <time>2020-02-07T10:12:09.000Z</time>
      </trkpt>
      <trkpt lat="44.75384" lon="5.04617">
        <ele>415</ele>
        <time>2020-02-07T10:12:10.000Z</time>
      </trkpt>
      <trkpt lat="44.75384" lon="5.04616">
        <ele>415</ele>
        <time>2020-02-07T10:12:11.000Z</time>
      </trkpt>
      <trkpt lat="44.75385" lon="5.04616">
        <ele>415</ele>
        <time>2020-02-07T10:12:12.000Z</time>
      </trkpt>
      <trkpt lat="44.75386" lon="5.04615">
        <ele>415</ele>
        <time>2020-02-07T10:12:13.000Z</time>
      </trkpt>
      <trkpt lat="44.75387" lon="5.04614">
        <ele>415</ele>
        <time>2020-02-07T10:12:14.000Z</time>
      </trkpt>
      <trkpt lat="44.75388" lon="5.04614">
        <ele>415</ele>
        <time>2020-02-07T10:12:15.000Z</time>
      </trkpt>
      <trkpt lat="44.75389" lon="5.04613">
        <ele>415</ele>
        <time>2020-02-07T10:12:16.000Z</time>
      </trkpt>
      <trkpt lat="44.75389" lon="5.04612">
        <ele>415</ele>
        <time>2020-02-07T10:12:17.000Z</time>
      </trkpt>
      <trkpt lat="44.7539" lon="5.04612">
        <ele>415</ele>
        <time>2020-02-07T10:12:18.000Z</time>
      </trkpt>
      <trkpt lat="44.75391" lon="5.04611">
        <ele>415</ele>
        <time>2020-02-07T10:12:19.000Z</time>
      </trkpt>
      <trkpt lat="44.75391" lon="5.0461">
        <ele>414</ele>
        <time>2020-02-07T10:12:20.000Z</time>
      </trkpt>
      <trkpt lat="44.75391" lon="5.04609">
        <ele>414</ele>
        <time>2020-02-07T10:12:21.000Z</time>
      </trkpt>
      <trkpt lat="44.75391" lon="5.04608">
        <ele>414</ele>
        <time>2020-02-07T10:12:22.000Z</time>
      </trkpt>
      <trkpt lat="44.75392" lon="5.04607">
        <ele>414</ele>
        <time>2020-02-07T10:12:23.000Z</time>
      </trkpt>
      <trkpt lat="44.75392" lon="5.04607">
        <ele>414</ele>
        <time>2020-02-07T10:12:24.000Z</time>
      </trkpt>
      <trkpt lat="44.75392" lon="5.04606">
        <ele>414</ele>
        <time>2020-02-07T10:12:25.000Z</time>
      </trkpt>
      <trkpt lat="44.75392" lon="5.04606">
        <ele>414</ele>
        <time>2020-02-07T10:12:26.000Z</time>
      </trkpt>
      <trkpt lat="44.75392" lon="5.04606">
        <ele>414</ele>
        <time>2020-02-07T10:12:27.000Z</time>
      </trkpt>
      <trkpt lat="44.75392" lon="5.04606">
        <ele>414</ele>
        <time>2020-02-07T10:12:28.000Z</time>
      </trkpt>
      <trkpt lat="44.75392" lon="5.04605">
        <ele>414</ele>
        <time>2020-02-07T10:12:29.000Z</time>
      </trkpt>
      <trkpt lat="44.75393" lon="5.04605">
        <ele>414</ele>
        <time>2020-02-07T10:12:30.000Z</time>
      </trkpt>
      <trkpt lat="44.75393" lon="5.04605">
        <ele>414</ele>
        <time>2020-02-07T10:12:31.000Z</time>
      </trkpt>
      <trkpt lat="44.75393" lon="5.04605">
        <ele>414</ele>
        <time>2020-02-07T10:12:32.000Z</time>
      </trkpt>
      <trkpt lat="44.75393" lon="5.04605">
        <ele>414</ele>
        <time>2020-02-07T10:12:33.000Z</time>
      </trkpt>
      <trkpt lat="44.75393" lon="5.04604">
        <ele>414</ele>
        <time>2020-02-07T10:12:34.000Z</time>
      </trkpt>
      <trkpt lat="44.75393" lon="5.04604">
        <ele>414</ele>
        <time>2020-02-07T10:12:35.000Z</time>
      </trkpt>
      <trkpt lat="44.75393" lon="5.04604">
        <ele>414</ele>
        <time>2020-02-07T10:12:36.000Z</time>
      </trkpt>
      <trkpt lat="44.75393" lon="5.04604">
        <ele>414</ele>
        <time>2020-02-07T10:12:37.000Z</time>
      </trkpt>
      <trkpt lat="44.75393" lon="5.04604">
        <ele>414</ele>
        <time>2020-02-07T10:12:38.000Z</time>
      </trkpt>
      <trkpt lat="44.75393" lon="5.04604">
        <ele>414</ele>
        <time>2020-02-07T10:12:39.000Z</time>
      </trkpt>
      <trkpt lat="44.75393" lon="5.04604">
        <ele>414</ele>
        <time>2020-02-07T10:12:40.000Z</time>
      </trkpt>
      <trkpt lat="44.75393" lon="5.04604">
        <ele>414</ele>
        <time>2020-02-07T10:12:41.000Z</time>
      </trkpt>
      <trkpt lat="44.75393" lon="5.04604">
        <ele>414</ele>
        <time>2020-02-07T10:12:42.000Z</time>
      </trkpt>
      <trkpt lat="44.75393" lon="5.04604">
        <ele>414</ele>
        <time>2020-02-07T10:12:43.000Z</time>
      </trkpt>
      <trkpt lat="44.75393" lon="5.04604">
        <ele>414</ele>
        <time>2020-02-07T10:12:44.000Z</time>
      </trkpt>
      <trkpt lat="44.75393" lon="5.04604">
        <ele>414</ele>
        <time>2020-02-07T10:12:45.000Z</time>
      </trkpt>
      <trkpt lat="44.75393" lon="5.04604">
        <ele>414</ele>
        <time>2020-02-07T10:12:46.000Z</time>
      </trkpt>
      <trkpt lat="44.75393" lon="5.04604">
        <ele>414</ele>
        <time>2020-02-07T10:12:47.000Z</time>
      </trkpt>
      <trkpt lat="44.75393" lon="5.04604">
        <ele>415</ele>
        <time>2020-02-07T10:12:48.000Z</time>
      </trkpt>
      <trkpt lat="44.75393" lon="5.04604">
        <ele>415</ele>
        <time>2020-02-07T10:12:49.000Z</time>
      </trkpt>
      <trkpt lat="44.75393" lon="5.04604">
        <ele>415</ele>
        <time>2020-02-07T10:12:50.000Z</time>
      </trkpt>
      <trkpt lat="44.75393" lon="5.04604">
        <ele>415</ele>
        <time>2020-02-07T10:12:51.000Z</time>
      </trkpt>
      <trkpt lat="44.75393" lon="5.04604">
        <ele>415</ele>
        <time>2020-02-07T10:12:52.000Z</time>
      </trkpt>
      <trkpt lat="44.75394" lon="5.04604">
        <ele>415</ele>
        <time>2020-02-07T10:12:53.000Z</time>
      </trkpt>
      <trkpt lat="44.75394" lon="5.04604">
        <ele>415</ele>
        <time>2020-02-07T10:12:54.000Z</time>
      </trkpt>
      <trkpt lat="44.75394" lon="5.04604">
        <ele>415</ele>
        <time>2020-02-07T10:12:55.000Z</time>
      </trkpt>
      <trkpt lat="44.75394" lon="5.04604">
        <ele>415</ele>
        <time>2020-02-07T10:12:56.000Z</time>
      </trkpt>
      <trkpt lat="44.75394" lon="5.04604">
        <ele>415</ele>
        <time>2020-02-07T10:12:57.000Z</time>
      </trkpt>
      <trkpt lat="44.75394" lon="5.04604">
        <ele>415</ele>
        <time>2020-02-07T10:12:58.000Z</time>
      </trkpt>
      <trkpt lat="44.75394" lon="5.04604">
        <ele>415</ele>
        <time>2020-02-07T10:12:59.000Z</time>
      </trkpt>
      <trkpt lat="44.75394" lon="5.04604">
        <ele>415</ele>
        <time>2020-02-07T10:13:00.000Z</time>
      </trkpt>
      <trkpt lat="44.75393" lon="5.04604">
        <ele>415</ele>
        <time>2020-02-07T10:13:01.000Z</time>
      </trkpt>
      <trkpt lat="44.75393" lon="5.04604">
        <ele>415</ele>
        <time>2020-02-07T10:13:02.000Z</time>
      </trkpt>
      <trkpt lat="44.75393" lon="5.04604">
        <ele>415</ele>
        <time>2020-02-07T10:13:03.000Z</time>
      </trkpt>
      <trkpt lat="44.75393" lon="5.04604">
        <ele>415</ele>
        <time>2020-02-07T10:13:04.000Z</time>
      </trkpt>
      <trkpt lat="44.75393" lon="5.04604">
        <ele>415</ele>
        <time>2020-02-07T10:13:05.000Z</time>
      </trkpt>
      <trkpt lat="44.75394" lon="5.04604">
        <ele>415</ele>
        <time>2020-02-07T10:13:06.000Z</time>
      </trkpt>
      <trkpt lat="44.75394" lon="5.04604">
        <ele>415</ele>
        <time>2020-02-07T10:13:07.000Z</time>
      </trkpt>
      <trkpt lat="44.75393" lon="5.04604">
        <ele>415</ele>
        <time>2020-02-07T10:13:08.000Z</time>
      </trkpt>
      <trkpt lat="44.75393" lon="5.04604">
        <ele>415</ele>
        <time>2020-02-07T10:13:09.000Z</time>
      </trkpt>
      <trkpt lat="44.75394" lon="5.04604">
        <ele>415</ele>
        <time>2020-02-07T10:13:10.000Z</time>
      </trkpt>
      <trkpt lat="44.75394" lon="5.04605">
        <ele>415</ele>
        <time>2020-02-07T10:13:11.000Z</time>
      </trkpt>
      <trkpt lat="44.75394" lon="5.04605">
        <ele>415</ele>
        <time>2020-02-07T10:13:12.000Z</time>
      </trkpt>
      <trkpt lat="44.75394" lon="5.04606">
        <ele>415</ele>
        <time>2020-02-07T10:13:13.000Z</time>
      </trkpt>
      <trkpt lat="44.75393" lon="5.04607">
        <ele>415</ele>
        <time>2020-02-07T10:13:14.000Z</time>
      </trkpt>
      <trkpt lat="44.75393" lon="5.04608">
        <ele>414</ele>
        <time>2020-02-07T10:13:15.000Z</time>
      </trkpt>
      <trkpt lat="44.75393" lon="5.0461">
        <ele>414</ele>
        <time>2020-02-07T10:13:16.000Z</time>
      </trkpt>
      <trkpt lat="44.75393" lon="5.0461">
        <ele>414</ele>
        <time>2020-02-07T10:13:17.000Z</time>
      </trkpt>
      <trkpt lat="44.75393" lon="5.04611">
        <ele>414</ele>
        <time>2020-02-07T10:13:18.000Z</time>
      </trkpt>
      <trkpt lat="44.75393" lon="5.04612">
        <ele>414</ele>
        <time>2020-02-07T10:13:19.000Z</time>
      </trkpt>
      <trkpt lat="44.75393" lon="5.04612">
        <ele>414</ele>
        <time>2020-02-07T10:13:20.000Z</time>
      </trkpt>
      <trkpt lat="44.75393" lon="5.04612">
        <ele>414</ele>
        <time>2020-02-07T10:13:21.000Z</time>
      </trkpt>
      <trkpt lat="44.75393" lon="5.04612">
        <ele>414</ele>
        <time>2020-02-07T10:13:22.000Z</time>
      </trkpt>
      <trkpt lat="44.75393" lon="5.04612">
        <ele>414</ele>
        <time>2020-02-07T10:13:23.000Z</time>
      </trkpt>
      <trkpt lat="44.75393" lon="5.04612">
        <ele>414</ele>
        <time>2020-02-07T10:13:24.000Z</time>
      </trkpt>
      <trkpt lat="44.75394" lon="5.04612">
        <ele>414</ele>
        <time>2020-02-07T10:13:25.000Z</time>
      </trkpt>
      <trkpt lat="44.75394" lon="5.04612">
        <ele>414</ele>
        <time>2020-02-07T10:13:26.000Z</time>
      </trkpt>
      <trkpt lat="44.75394" lon="5.04612">
        <ele>413</ele>
        <time>2020-02-07T10:13:27.000Z</time>
      </trkpt>
      <trkpt lat="44.75394" lon="5.04612">
        <ele>413</ele>
        <time>2020-02-07T10:13:28.000Z</time>
      </trkpt>
      <trkpt lat="44.75393" lon="5.04613">
        <ele>413</ele>
        <time>2020-02-07T10:13:29.000Z</time>
      </trkpt>
      <trkpt lat="44.75393" lon="5.04614">
        <ele>413</ele>
        <time>2020-02-07T10:13:30.000Z</time>
      </trkpt>
      <trkpt lat="44.75392" lon="5.04614">
        <ele>413</ele>
        <time>2020-02-07T10:13:31.000Z</time>
      </trkpt>
      <trkpt lat="44.75392" lon="5.04615">
        <ele>413</ele>
        <time>2020-02-07T10:13:32.000Z</time>
      </trkpt>
      <trkpt lat="44.75391" lon="5.04615">
        <ele>413</ele>
        <time>2020-02-07T10:13:33.000Z</time>
      </trkpt>
      <trkpt lat="44.7539" lon="5.04616">
        <ele>412</ele>
        <time>2020-02-07T10:13:34.000Z</time>
      </trkpt>
      <trkpt lat="44.7539" lon="5.04616">
        <ele>412</ele>
        <time>2020-02-07T10:13:35.000Z</time>
      </trkpt>
      <trkpt lat="44.7539" lon="5.04616">
        <ele>412</ele>
        <time>2020-02-07T10:13:36.000Z</time>
      </trkpt>
      <trkpt lat="44.7539" lon="5.04617">
        <ele>412</ele>
        <time>2020-02-07T10:13:37.000Z</time>
      </trkpt>
      <trkpt lat="44.7539" lon="5.04617">
        <ele>412</ele>
        <time>2020-02-07T10:13:38.000Z</time>
      </trkpt>
      <trkpt lat="44.75391" lon="5.04617">
        <ele>412</ele>
        <time>2020-02-07T10:13:39.000Z</time>
      </trkpt>
      <trkpt lat="44.75392" lon="5.04617">
        <ele>412</ele>
        <time>2020-02-07T10:13:40.000Z</time>
      </trkpt>
      <trkpt lat="44.75392" lon="5.04617">
        <ele>412</ele>
        <time>2020-02-07T10:13:41.000Z</time>
      </trkpt>
      <trkpt lat="44.75392" lon="5.04618">
        <ele>412</ele>
        <time>2020-02-07T10:13:42.000Z</time>
      </trkpt>
      <trkpt lat="44.75393" lon="5.04618">
        <ele>412</ele>
        <time>2020-02-07T10:13:43.000Z</time>
      </trkpt>
      <trkpt lat="44.75393" lon="5.04618">
        <ele>412</ele>
        <time>2020-02-07T10:13:44.000Z</time>
      </trkpt>
      <trkpt lat="44.75393" lon="5.04618">
        <ele>412</ele>
        <time>2020-02-07T10:13:45.000Z</time>
      </trkpt>
      <trkpt lat="44.75393" lon="5.04618">
        <ele>412</ele>
        <time>2020-02-07T10:13:46.000Z</time>
      </trkpt>
      <trkpt lat="44.75393" lon="5.04618">
        <ele>412</ele>
        <time>2020-02-07T10:13:47.000Z</time>
      </trkpt>
      <trkpt lat="44.75393" lon="5.04618">
        <ele>412</ele>
        <time>2020-02-07T10:13:48.000Z</time>
      </trkpt>
      <trkpt lat="44.75393" lon="5.04618">
        <ele>412</ele>
        <time>2020-02-07T10:13:49.000Z</time>
      </trkpt>
      <trkpt lat="44.75393" lon="5.04618">
        <ele>412</ele>
        <time>2020-02-07T10:13:50.000Z</time>
      </trkpt>
      <trkpt lat="44.75393" lon="5.04618">
        <ele>412</ele>
        <time>2020-02-07T10:13:51.000Z</time>
      </trkpt>
      <trkpt lat="44.75393" lon="5.04618">
        <ele>412</ele>
        <time>2020-02-07T10:13:52.000Z</time>
      </trkpt>
      <trkpt lat="44.75393" lon="5.04617">
        <ele>412</ele>
        <time>2020-02-07T10:13:53.000Z</time>
      </trkpt>
      <trkpt lat="44.75393" lon="5.04617">
        <ele>413</ele>
        <time>2020-02-07T10:13:54.000Z</time>
      </trkpt>
      <trkpt lat="44.75392" lon="5.04617">
        <ele>413</ele>
        <time>2020-02-07T10:13:55.000Z</time>
      </trkpt>
      <trkpt lat="44.75392" lon="5.04616">
        <ele>413</ele>
        <time>2020-02-07T10:13:56.000Z</time>
      </trkpt>
      <trkpt lat="44.75392" lon="5.04615">
        <ele>413</ele>
        <time>2020-02-07T10:13:57.000Z</time>
      </trkpt>
      <trkpt lat="44.75392" lon="5.04615">
        <ele>413</ele>
        <time>2020-02-07T10:13:58.000Z</time>
      </trkpt>
      <trkpt lat="44.75392" lon="5.04615">
        <ele>413</ele>
        <time>2020-02-07T10:13:59.000Z</time>
      </trkpt>
      <trkpt lat="44.75392" lon="5.04615">
        <ele>413</ele>
        <time>2020-02-07T10:14:00.000Z</time>
      </trkpt>
      <trkpt lat="44.75392" lon="5.04615">
        <ele>413</ele>
        <time>2020-02-07T10:14:01.000Z</time>
      </trkpt>
      <trkpt lat="44.75392" lon="5.04615">
        <ele>413</ele>
        <time>2020-02-07T10:14:02.000Z</time>
      </trkpt>
      <trkpt lat="44.75392" lon="5.04615">
        <ele>413</ele>
        <time>2020-02-07T10:14:03.000Z</time>
      </trkpt>
      <trkpt lat="44.75392" lon="5.04615">
        <ele>413</ele>
        <time>2020-02-07T10:14:04.000Z</time>
      </trkpt>
      <trkpt lat="44.75392" lon="5.04615">
        <ele>413</ele>
        <time>2020-02-07T10:14:05.000Z</time>
      </trkpt>
      <trkpt lat="44.75392" lon="5.04615">
        <ele>413</ele>
        <time>2020-02-07T10:14:06.000Z</time>
      </trkpt>
      <trkpt lat="44.75392" lon="5.04615">
        <ele>412</ele>
        <time>2020-02-07T10:14:07.000Z</time>
      </trkpt>
      <trkpt lat="44.75392" lon="5.04615">
        <ele>412</ele>
        <time>2020-02-07T10:14:08.000Z</time>
      </trkpt>
      <trkpt lat="44.75392" lon="5.04615">
        <ele>412</ele>
        <time>2020-02-07T10:14:09.000Z</time>
      </trkpt>
      <trkpt lat="44.75392" lon="5.04615">
        <ele>412</ele>
        <time>2020-02-07T10:14:10.000Z</time>
      </trkpt>
      <trkpt lat="44.75392" lon="5.04615">
        <ele>412</ele>
        <time>2020-02-07T10:14:11.000Z</time>
      </trkpt>
      <trkpt lat="44.75393" lon="5.04615">
        <ele>413</ele>
        <time>2020-02-07T10:14:12.000Z</time>
      </trkpt>
      <trkpt lat="44.75393" lon="5.04615">
        <ele>413</ele>
        <time>2020-02-07T10:14:13.000Z</time>
      </trkpt>
      <trkpt lat="44.75393" lon="5.04615">
        <ele>413</ele>
        <time>2020-02-07T10:14:14.000Z</time>
      </trkpt>
      <trkpt lat="44.75393" lon="5.04616">
        <ele>413</ele>
        <time>2020-02-07T10:14:15.000Z</time>
      </trkpt>
      <trkpt lat="44.75393" lon="5.04616">
        <ele>413</ele>
        <time>2020-02-07T10:14:16.000Z</time>
      </trkpt>
      <trkpt lat="44.75393" lon="5.04616">
        <ele>413</ele>
        <time>2020-02-07T10:14:17.000Z</time>
      </trkpt>
      <trkpt lat="44.75393" lon="5.04616">
        <ele>413</ele>
        <time>2020-02-07T10:14:18.000Z</time>
      </trkpt>
      <trkpt lat="44.75393" lon="5.04616">
        <ele>413</ele>
        <time>2020-02-07T10:14:19.000Z</time>
      </trkpt>
      <trkpt lat="44.75393" lon="5.04616">
        <ele>413</ele>
        <time>2020-02-07T10:14:20.000Z</time>
      </trkpt>
      <trkpt lat="44.75393" lon="5.04616">
        <ele>413</ele>
        <time>2020-02-07T10:14:21.000Z</time>
      </trkpt>
      <trkpt lat="44.75393" lon="5.04616">
        <ele>413</ele>
        <time>2020-02-07T10:14:22.000Z</time>
      </trkpt>
      <trkpt lat="44.75393" lon="5.04616">
        <ele>413</ele>
        <time>2020-02-07T10:14:23.000Z</time>
      </trkpt>
      <trkpt lat="44.75393" lon="5.04616">
        <ele>413</ele>
        <time>2020-02-07T10:14:24.000Z</time>
      </trkpt>
      <trkpt lat="44.75393" lon="5.04616">
        <ele>413</ele>
        <time>2020-02-07T10:14:25.000Z</time>
      </trkpt>
      <trkpt lat="44.75393" lon="5.04616">
        <ele>413</ele>
        <time>2020-02-07T10:14:26.000Z</time>
      </trkpt>
      <trkpt lat="44.75393" lon="5.04616">
        <ele>413</ele>
        <time>2020-02-07T10:14:27.000Z</time>
      </trkpt>
      <trkpt lat="44.75393" lon="5.04616">
        <ele>413</ele>
        <time>2020-02-07T10:14:28.000Z</time>
      </trkpt>
      <trkpt lat="44.75394" lon="5.04616">
        <ele>413</ele>
        <time>2020-02-07T10:14:29.000Z</time>
      </trkpt>
      <trkpt lat="44.75394" lon="5.04616">
        <ele>413</ele>
        <time>2020-02-07T10:14:30.000Z</time>
      </trkpt>
      <trkpt lat="44.75394" lon="5.04616">
        <ele>413</ele>
        <time>2020-02-07T10:14:31.000Z</time>
      </trkpt>
      <trkpt lat="44.75394" lon="5.04616">
        <ele>413</ele>
        <time>2020-02-07T10:14:32.000Z</time>
      </trkpt>
      <trkpt lat="44.75394" lon="5.04616">
        <ele>413</ele>
        <time>2020-02-07T10:14:33.000Z</time>
      </trkpt>
      <trkpt lat="44.75394" lon="5.04616">
        <ele>413</ele>
        <time>2020-02-07T10:14:34.000Z</time>
      </trkpt>
      <trkpt lat="44.75394" lon="5.04616">
        <ele>413</ele>
        <time>2020-02-07T10:14:35.000Z</time>
      </trkpt>
      <trkpt lat="44.75394" lon="5.04616">
        <ele>413</ele>
        <time>2020-02-07T10:14:36.000Z</time>
      </trkpt>
      <trkpt lat="44.75394" lon="5.04616">
        <ele>413</ele>
        <time>2020-02-07T10:14:37.000Z</time>
      </trkpt>
      <trkpt lat="44.75394" lon="5.04616">
        <ele>413</ele>
        <time>2020-02-07T10:14:38.000Z</time>
      </trkpt>
      <trkpt lat="44.75394" lon="5.04616">
        <ele>413</ele>
        <time>2020-02-07T10:14:39.000Z</time>
      </trkpt>
      <trkpt lat="44.75394" lon="5.04616">
        <ele>413</ele>
        <time>2020-02-07T10:14:40.000Z</time>
      </trkpt>
      <trkpt lat="44.75394" lon="5.04616">
        <ele>413</ele>
        <time>2020-02-07T10:14:41.000Z</time>
      </trkpt>
      <trkpt lat="44.75394" lon="5.04616">
        <ele>413</ele>
        <time>2020-02-07T10:14:42.000Z</time>
      </trkpt>
      <trkpt lat="44.75394" lon="5.04616">
        <ele>413</ele>
        <time>2020-02-07T10:14:43.000Z</time>
      </trkpt>
      <trkpt lat="44.75394" lon="5.04616">
        <ele>413</ele>
        <time>2020-02-07T10:14:44.000Z</time>
      </trkpt>
      <trkpt lat="44.75394" lon="5.04616">
        <ele>413</ele>
        <time>2020-02-07T10:14:45.000Z</time>
      </trkpt>
      <trkpt lat="44.75393" lon="5.04615">
        <ele>413</ele>
        <time>2020-02-07T10:14:46.000Z</time>
      </trkpt>
      <trkpt lat="44.75393" lon="5.04615">
        <ele>413</ele>
        <time>2020-02-07T10:14:47.000Z</time>
      </trkpt>
      <trkpt lat="44.75393" lon="5.04615">
        <ele>413</ele>
        <time>2020-02-07T10:14:48.000Z</time>
      </trkpt>
      <trkpt lat="44.75393" lon="5.04615">
        <ele>413</ele>
        <time>2020-02-07T10:14:49.000Z</time>
      </trkpt>
      <trkpt lat="44.75394" lon="5.04616">
        <ele>413</ele>
        <time>2020-02-07T10:14:50.000Z</time>
      </trkpt>
      <trkpt lat="44.75393" lon="5.04616">
        <ele>413</ele>
        <time>2020-02-07T10:14:51.000Z</time>
      </trkpt>
      <trkpt lat="44.75393" lon="5.04616">
        <ele>413</ele>
        <time>2020-02-07T10:14:52.000Z</time>
      </trkpt>
      <trkpt lat="44.75393" lon="5.04616">
        <ele>413</ele>
        <time>2020-02-07T10:14:53.000Z</time>
      </trkpt>
      <trkpt lat="44.75393" lon="5.04616">
        <ele>413</ele>
        <time>2020-02-07T10:14:54.000Z</time>
      </trkpt>
      <trkpt lat="44.75393" lon="5.04616">
        <ele>413</ele>
        <time>2020-02-07T10:14:55.000Z</time>
      </trkpt>
      <trkpt lat="44.75393" lon="5.04616">
        <ele>413</ele>
        <time>2020-02-07T10:14:56.000Z</time>
      </trkpt>
      <trkpt lat="44.75393" lon="5.04616">
        <ele>413</ele>
        <time>2020-02-07T10:14:57.000Z</time>
      </trkpt>
      <trkpt lat="44.75393" lon="5.04616">
        <ele>413</ele>
        <time>2020-02-07T10:14:58.000Z</time>
      </trkpt>
      <trkpt lat="44.75393" lon="5.04616">
        <ele>413</ele>
        <time>2020-02-07T10:14:59.000Z</time>
      </trkpt>
      <trkpt lat="44.75393" lon="5.04616">
        <ele>413</ele>
        <time>2020-02-07T10:15:00.000Z</time>
      </trkpt>
      <trkpt lat="44.75393" lon="5.04616">
        <ele>413</ele>
        <time>2020-02-07T10:15:01.000Z</time>
      </trkpt>
      <trkpt lat="44.75393" lon="5.04616">
        <ele>413</ele>
        <time>2020-02-07T10:15:02.000Z</time>
      </trkpt>
      <trkpt lat="44.75393" lon="5.04616">
        <ele>413</ele>
        <time>2020-02-07T10:15:03.000Z</time>
      </trkpt>
      <trkpt lat="44.75394" lon="5.04615">
        <ele>413</ele>
        <time>2020-02-07T10:15:04.000Z</time>
      </trkpt>
      <trkpt lat="44.75394" lon="5.04615">
        <ele>413</ele>
        <time>2020-02-07T10:15:05.000Z</time>
      </trkpt>
      <trkpt lat="44.75394" lon="5.04615">
        <ele>413</ele>
        <time>2020-02-07T10:15:06.000Z</time>
      </trkpt>
      <trkpt lat="44.75395" lon="5.04615">
        <ele>413</ele>
        <time>2020-02-07T10:15:07.000Z</time>
      </trkpt>
      <trkpt lat="44.75395" lon="5.04615">
        <ele>413</ele>
        <time>2020-02-07T10:15:08.000Z</time>
      </trkpt>
      <trkpt lat="44.75396" lon="5.04614">
        <ele>413</ele>
        <time>2020-02-07T10:15:09.000Z</time>
      </trkpt>
      <trkpt lat="44.75396" lon="5.04614">
        <ele>413</ele>
        <time>2020-02-07T10:15:10.000Z</time>
      </trkpt>
      <trkpt lat="44.75397" lon="5.04613">
        <ele>413</ele>
        <time>2020-02-07T10:15:11.000Z</time>
      </trkpt>
      <trkpt lat="44.75397" lon="5.04613">
        <ele>413</ele>
        <time>2020-02-07T10:15:12.000Z</time>
      </trkpt>
      <trkpt lat="44.75397" lon="5.04613">
        <ele>413</ele>
        <time>2020-02-07T10:15:13.000Z</time>
      </trkpt>
      <trkpt lat="44.75397" lon="5.04613">
        <ele>413</ele>
        <time>2020-02-07T10:15:14.000Z</time>
      </trkpt>
      <trkpt lat="44.75397" lon="5.04613">
        <ele>413</ele>
        <time>2020-02-07T10:15:15.000Z</time>
      </trkpt>
      <trkpt lat="44.75397" lon="5.04613">
        <ele>413</ele>
        <time>2020-02-07T10:15:16.000Z</time>
      </trkpt>
      <trkpt lat="44.75397" lon="5.04613">
        <ele>413</ele>
        <time>2020-02-07T10:15:17.000Z</time>
      </trkpt>
      <trkpt lat="44.75397" lon="5.04613">
        <ele>413</ele>
        <time>2020-02-07T10:15:18.000Z</time>
      </trkpt>
      <trkpt lat="44.75397" lon="5.04613">
        <ele>413</ele>
        <time>2020-02-07T10:15:19.000Z</time>
      </trkpt>
      <trkpt lat="44.75397" lon="5.04613">
        <ele>413</ele>
        <time>2020-02-07T10:15:20.000Z</time>
      </trkpt>
      <trkpt lat="44.75397" lon="5.04613">
        <ele>413</ele>
        <time>2020-02-07T10:15:21.000Z</time>
      </trkpt>
      <trkpt lat="44.75397" lon="5.04613">
        <ele>413</ele>
        <time>2020-02-07T10:15:22.000Z</time>
      </trkpt>
      <trkpt lat="44.75397" lon="5.04613">
        <ele>413</ele>
        <time>2020-02-07T10:15:23.000Z</time>
      </trkpt>
      <trkpt lat="44.75397" lon="5.04613">
        <ele>413</ele>
        <time>2020-02-07T10:15:24.000Z</time>
      </trkpt>
      <trkpt lat="44.75396" lon="5.04614">
        <ele>413</ele>
        <time>2020-02-07T10:15:25.000Z</time>
      </trkpt>
      <trkpt lat="44.75396" lon="5.04614">
        <ele>413</ele>
        <time>2020-02-07T10:15:26.000Z</time>
      </trkpt>
      <trkpt lat="44.75396" lon="5.04613">
        <ele>413</ele>
        <time>2020-02-07T10:15:27.000Z</time>
      </trkpt>
      <trkpt lat="44.75396" lon="5.04614">
        <ele>413</ele>
        <time>2020-02-07T10:15:28.000Z</time>
      </trkpt>
      <trkpt lat="44.75396" lon="5.04614">
        <ele>413</ele>
        <time>2020-02-07T10:15:29.000Z</time>
      </trkpt>
      <trkpt lat="44.75396" lon="5.04614">
        <ele>413</ele>
        <time>2020-02-07T10:15:30.000Z</time>
      </trkpt>
      <trkpt lat="44.75396" lon="5.04614">
        <ele>413</ele>
        <time>2020-02-07T10:15:31.000Z</time>
      </trkpt>
      <trkpt lat="44.75396" lon="5.04614">
        <ele>413</ele>
        <time>2020-02-07T10:15:32.000Z</time>
      </trkpt>
      <trkpt lat="44.75396" lon="5.04614">
        <ele>413</ele>
        <time>2020-02-07T10:15:33.000Z</time>
      </trkpt>
      <trkpt lat="44.75396" lon="5.04614">
        <ele>413</ele>
        <time>2020-02-07T10:15:34.000Z</time>
      </trkpt>
      <trkpt lat="44.75396" lon="5.04614">
        <ele>413</ele>
        <time>2020-02-07T10:15:35.000Z</time>
      </trkpt>
      <trkpt lat="44.75396" lon="5.04614">
        <ele>413</ele>
        <time>2020-02-07T10:15:36.000Z</time>
      </trkpt>
      <trkpt lat="44.75397" lon="5.04614">
        <ele>413</ele>
        <time>2020-02-07T10:15:37.000Z</time>
      </trkpt>
      <trkpt lat="44.75397" lon="5.04614">
        <ele>413</ele>
        <time>2020-02-07T10:15:38.000Z</time>
      </trkpt>
      <trkpt lat="44.75397" lon="5.04613">
        <ele>413</ele>
        <time>2020-02-07T10:15:39.000Z</time>
      </trkpt>
      <trkpt lat="44.75397" lon="5.04613">
        <ele>413</ele>
        <time>2020-02-07T10:15:40.000Z</time>
      </trkpt>
      <trkpt lat="44.75397" lon="5.04613">
        <ele>413</ele>
        <time>2020-02-07T10:15:41.000Z</time>
      </trkpt>
      <trkpt lat="44.75397" lon="5.04613">
        <ele>413</ele>
        <time>2020-02-07T10:15:42.000Z</time>
      </trkpt>
      <trkpt lat="44.75397" lon="5.04613">
        <ele>413</ele>
        <time>2020-02-07T10:15:43.000Z</time>
      </trkpt>
      <trkpt lat="44.75397" lon="5.04613">
        <ele>413</ele>
        <time>2020-02-07T10:15:44.000Z</time>
      </trkpt>
      <trkpt lat="44.75397" lon="5.04613">
        <ele>413</ele>
        <time>2020-02-07T10:15:45.000Z</time>
      </trkpt>
      <trkpt lat="44.75398" lon="5.04613">
        <ele>413</ele>
        <time>2020-02-07T10:15:46.000Z</time>
      </trkpt>
      <trkpt lat="44.75398" lon="5.04613">
        <ele>413</ele>
        <time>2020-02-07T10:15:47.000Z</time>
      </trkpt>
      <trkpt lat="44.75398" lon="5.04613">
        <ele>413</ele>
        <time>2020-02-07T10:15:48.000Z</time>
      </trkpt>
      <trkpt lat="44.75398" lon="5.04613">
        <ele>413</ele>
        <time>2020-02-07T10:15:49.000Z</time>
      </trkpt>
      <trkpt lat="44.75398" lon="5.04613">
        <ele>413</ele>
        <time>2020-02-07T10:15:50.000Z</time>
      </trkpt>
      <trkpt lat="44.75398" lon="5.04613">
        <ele>413</ele>
        <time>2020-02-07T10:15:51.000Z</time>
      </trkpt>
      <trkpt lat="44.75398" lon="5.04613">
        <ele>413</ele>
        <time>2020-02-07T10:15:52.000Z</time>
      </trkpt>
      <trkpt lat="44.75398" lon="5.04613">
        <ele>413</ele>
        <time>2020-02-07T10:15:53.000Z</time>
      </trkpt>
      <trkpt lat="44.75398" lon="5.04613">
        <ele>413</ele>
        <time>2020-02-07T10:15:54.000Z</time>
      </trkpt>
      <trkpt lat="44.75398" lon="5.04613">
        <ele>412</ele>
        <time>2020-02-07T10:15:55.000Z</time>
      </trkpt>
      <trkpt lat="44.75398" lon="5.04613">
        <ele>412</ele>
        <time>2020-02-07T10:15:56.000Z</time>
      </trkpt>
      <trkpt lat="44.75398" lon="5.04613">
        <ele>412</ele>
        <time>2020-02-07T10:15:57.000Z</time>
      </trkpt>
      <trkpt lat="44.75398" lon="5.04613">
        <ele>412</ele>
        <time>2020-02-07T10:15:58.000Z</time>
      </trkpt>
      <trkpt lat="44.75398" lon="5.04613">
        <ele>412</ele>
        <time>2020-02-07T10:15:59.000Z</time>
      </trkpt>
      <trkpt lat="44.75398" lon="5.04613">
        <ele>412</ele>
        <time>2020-02-07T10:16:00.000Z</time>
      </trkpt>
      <trkpt lat="44.75398" lon="5.04613">
        <ele>412</ele>
        <time>2020-02-07T10:16:01.000Z</time>
      </trkpt>
      <trkpt lat="44.75398" lon="5.04613">
        <ele>412</ele>
        <time>2020-02-07T10:16:02.000Z</time>
      </trkpt>
      <trkpt lat="44.75398" lon="5.04613">
        <ele>412</ele>
        <time>2020-02-07T10:16:03.000Z</time>
      </trkpt>
      <trkpt lat="44.75398" lon="5.04613">
        <ele>412</ele>
        <time>2020-02-07T10:16:04.000Z</time>
      </trkpt>
      <trkpt lat="44.75398" lon="5.04613">
        <ele>412</ele>
        <time>2020-02-07T10:16:05.000Z</time>
      </trkpt>
      <trkpt lat="44.75398" lon="5.04613">
        <ele>412</ele>
        <time>2020-02-07T10:16:06.000Z</time>
      </trkpt>
      <trkpt lat="44.75398" lon="5.04613">
        <ele>412</ele>
        <time>2020-02-07T10:16:07.000Z</time>
      </trkpt>
      <trkpt lat="44.75398" lon="5.04613">
        <ele>412</ele>
        <time>2020-02-07T10:16:08.000Z</time>
      </trkpt>
      <trkpt lat="44.75398" lon="5.04613">
        <ele>412</ele>
        <time>2020-02-07T10:16:09.000Z</time>
      </trkpt>
      <trkpt lat="44.75398" lon="5.04613">
        <ele>412</ele>
        <time>2020-02-07T10:16:10.000Z</time>
      </trkpt>
      <trkpt lat="44.75398" lon="5.04613">
        <ele>412</ele>
        <time>2020-02-07T10:16:11.000Z</time>
      </trkpt>
      <trkpt lat="44.75398" lon="5.04613">
        <ele>412</ele>
        <time>2020-02-07T10:16:12.000Z</time>
      </trkpt>
      <trkpt lat="44.75398" lon="5.04613">
        <ele>412</ele>
        <time>2020-02-07T10:16:13.000Z</time>
      </trkpt>
      <trkpt lat="44.75398" lon="5.04613">
        <ele>412</ele>
        <time>2020-02-07T10:16:14.000Z</time>
      </trkpt>
      <trkpt lat="44.75398" lon="5.04613">
        <ele>412</ele>
        <time>2020-02-07T10:16:15.000Z</time>
      </trkpt>
      <trkpt lat="44.75398" lon="5.04613">
        <ele>412</ele>
        <time>2020-02-07T10:16:16.000Z</time>
      </trkpt>
      <trkpt lat="44.75398" lon="5.04613">
        <ele>412</ele>
        <time>2020-02-07T10:16:17.000Z</time>
      </trkpt>
      <trkpt lat="44.75398" lon="5.04613">
        <ele>412</ele>
        <time>2020-02-07T10:16:18.000Z</time>
      </trkpt>
      <trkpt lat="44.75398" lon="5.04613">
        <ele>412</ele>
        <time>2020-02-07T10:16:19.000Z</time>
      </trkpt>
      <trkpt lat="44.75399" lon="5.04613">
        <ele>413</ele>
        <time>2020-02-07T10:16:20.000Z</time>
      </trkpt>
      <trkpt lat="44.75399" lon="5.04613">
        <ele>413</ele>
        <time>2020-02-07T10:16:21.000Z</time>
      </trkpt>
      <trkpt lat="44.75399" lon="5.04612">
        <ele>413</ele>
        <time>2020-02-07T10:16:22.000Z</time>
      </trkpt>
      <trkpt lat="44.75399" lon="5.04612">
        <ele>413</ele>
        <time>2020-02-07T10:16:23.000Z</time>
      </trkpt>
      <trkpt lat="44.75399" lon="5.04612">
        <ele>413</ele>
        <time>2020-02-07T10:16:24.000Z</time>
      </trkpt>
      <trkpt lat="44.75399" lon="5.04612">
        <ele>413</ele>
        <time>2020-02-07T10:16:25.000Z</time>
      </trkpt>
      <trkpt lat="44.75399" lon="5.04612">
        <ele>413</ele>
        <time>2020-02-07T10:16:26.000Z</time>
      </trkpt>
      <trkpt lat="44.75399" lon="5.04612">
        <ele>413</ele>
        <time>2020-02-07T10:16:27.000Z</time>
      </trkpt>
      <trkpt lat="44.75399" lon="5.04612">
        <ele>413</ele>
        <time>2020-02-07T10:16:28.000Z</time>
      </trkpt>
      <trkpt lat="44.75399" lon="5.04612">
        <ele>413</ele>
        <time>2020-02-07T10:16:29.000Z</time>
      </trkpt>
      <trkpt lat="44.75399" lon="5.04612">
        <ele>413</ele>
        <time>2020-02-07T10:16:30.000Z</time>
      </trkpt>
      <trkpt lat="44.75399" lon="5.04612">
        <ele>413</ele>
        <time>2020-02-07T10:16:31.000Z</time>
      </trkpt>
      <trkpt lat="44.75399" lon="5.04612">
        <ele>413</ele>
        <time>2020-02-07T10:16:32.000Z</time>
      </trkpt>
      <trkpt lat="44.75399" lon="5.04612">
        <ele>413</ele>
        <time>2020-02-07T10:16:33.000Z</time>
      </trkpt>
      <trkpt lat="44.75399" lon="5.04612">
        <ele>413</ele>
        <time>2020-02-07T10:16:34.000Z</time>
      </trkpt>
      <trkpt lat="44.75399" lon="5.04612">
        <ele>413</ele>
        <time>2020-02-07T10:16:35.000Z</time>
      </trkpt>
      <trkpt lat="44.75399" lon="5.04612">
        <ele>413</ele>
        <time>2020-02-07T10:16:36.000Z</time>
      </trkpt>
      <trkpt lat="44.75399" lon="5.04612">
        <ele>413</ele>
        <time>2020-02-07T10:16:37.000Z</time>
      </trkpt>
      <trkpt lat="44.75399" lon="5.04612">
        <ele>413</ele>
        <time>2020-02-07T10:16:38.000Z</time>
      </trkpt>
      <trkpt lat="44.75399" lon="5.04612">
        <ele>413</ele>
        <time>2020-02-07T10:16:39.000Z</time>
      </trkpt>
      <trkpt lat="44.75399" lon="5.04612">
        <ele>413</ele>
        <time>2020-02-07T10:16:40.000Z</time>
      </trkpt>
      <trkpt lat="44.75399" lon="5.04612">
        <ele>413</ele>
        <time>2020-02-07T10:16:41.000Z</time>
      </trkpt>
      <trkpt lat="44.75399" lon="5.04612">
        <ele>413</ele>
        <time>2020-02-07T10:16:42.000Z</time>
      </trkpt>
      <trkpt lat="44.75399" lon="5.04612">
        <ele>413</ele>
        <time>2020-02-07T10:16:43.000Z</time>
      </trkpt>
      <trkpt lat="44.75399" lon="5.04611">
        <ele>413</ele>
        <time>2020-02-07T10:16:44.000Z</time>
      </trkpt>
      <trkpt lat="44.75399" lon="5.04611">
        <ele>413</ele>
        <time>2020-02-07T10:16:45.000Z</time>
      </trkpt>
      <trkpt lat="44.75399" lon="5.04611">
        <ele>413</ele>
        <time>2020-02-07T10:16:46.000Z</time>
      </trkpt>
      <trkpt lat="44.75399" lon="5.04611">
        <ele>413</ele>
        <time>2020-02-07T10:16:47.000Z</time>
      </trkpt>
      <trkpt lat="44.75399" lon="5.04611">
        <ele>413</ele>
        <time>2020-02-07T10:16:48.000Z</time>
      </trkpt>
      <trkpt lat="44.75399" lon="5.04611">
        <ele>413</ele>
        <time>2020-02-07T10:16:49.000Z</time>
      </trkpt>
      <trkpt lat="44.75399" lon="5.04611">
        <ele>413</ele>
        <time>2020-02-07T10:16:50.000Z</time>
      </trkpt>
      <trkpt lat="44.75399" lon="5.04611">
        <ele>413</ele>
        <time>2020-02-07T10:16:51.000Z</time>
      </trkpt>
      <trkpt lat="44.75399" lon="5.04611">
        <ele>413</ele>
        <time>2020-02-07T10:16:52.000Z</time>
      </trkpt>
      <trkpt lat="44.75399" lon="5.04611">
        <ele>413</ele>
        <time>2020-02-07T10:16:53.000Z</time>
      </trkpt>
      <trkpt lat="44.75399" lon="5.04611">
        <ele>413</ele>
        <time>2020-02-07T10:16:54.000Z</time>
      </trkpt>
      <trkpt lat="44.75399" lon="5.04611">
        <ele>413</ele>
        <time>2020-02-07T10:16:55.000Z</time>
      </trkpt>
      <trkpt lat="44.75399" lon="5.04611">
        <ele>413</ele>
        <time>2020-02-07T10:16:56.000Z</time>
      </trkpt>
      <trkpt lat="44.75399" lon="5.04611">
        <ele>413</ele>
        <time>2020-02-07T10:16:57.000Z</time>
      </trkpt>
      <trkpt lat="44.75399" lon="5.04611">
        <ele>413</ele>
        <time>2020-02-07T10:16:58.000Z</time>
      </trkpt>
      <trkpt lat="44.75399" lon="5.04611">
        <ele>413</ele>
        <time>2020-02-07T10:16:59.000Z</time>
      </trkpt>
      <trkpt lat="44.75399" lon="5.04611">
        <ele>413</ele>
        <time>2020-02-07T10:17:00.000Z</time>
      </trkpt>
      <trkpt lat="44.75399" lon="5.04611">
        <ele>413</ele>
        <time>2020-02-07T10:17:01.000Z</time>
      </trkpt>
      <trkpt lat="44.75399" lon="5.04611">
        <ele>413</ele>
        <time>2020-02-07T10:17:02.000Z</time>
      </trkpt>
      <trkpt lat="44.75399" lon="5.04611">
        <ele>413</ele>
        <time>2020-02-07T10:17:03.000Z</time>
      </trkpt>
      <trkpt lat="44.75399" lon="5.04611">
        <ele>413</ele>
        <time>2020-02-07T10:17:04.000Z</time>
      </trkpt>
      <trkpt lat="44.75399" lon="5.04611">
        <ele>413</ele>
        <time>2020-02-07T10:17:05.000Z</time>
      </trkpt>
      <trkpt lat="44.75399" lon="5.04611">
        <ele>413</ele>
        <time>2020-02-07T10:17:06.000Z</time>
      </trkpt>
      <trkpt lat="44.75399" lon="5.04611">
        <ele>413</ele>
        <time>2020-02-07T10:17:07.000Z</time>
      </trkpt>
      <trkpt lat="44.75399" lon="5.04611">
        <ele>413</ele>
        <time>2020-02-07T10:17:08.000Z</time>
      </trkpt>
      <trkpt lat="44.75399" lon="5.04611">
        <ele>413</ele>
        <time>2020-02-07T10:17:09.000Z</time>
      </trkpt>
      <trkpt lat="44.75399" lon="5.04611">
        <ele>413</ele>
        <time>2020-02-07T10:17:10.000Z</time>
      </trkpt>
      <trkpt lat="44.75399" lon="5.04611">
        <ele>413</ele>
        <time>2020-02-07T10:17:11.000Z</time>
      </trkpt>
      <trkpt lat="44.75399" lon="5.04611">
        <ele>413</ele>
        <time>2020-02-07T10:17:12.000Z</time>
      </trkpt>
      <trkpt lat="44.75398" lon="5.04611">
        <ele>413</ele>
        <time>2020-02-07T10:17:13.000Z</time>
      </trkpt>
      <trkpt lat="44.75398" lon="5.04611">
        <ele>413</ele>
        <time>2020-02-07T10:17:14.000Z</time>
      </trkpt>
      <trkpt lat="44.75398" lon="5.04611">
        <ele>413</ele>
        <time>2020-02-07T10:17:15.000Z</time>
      </trkpt>
      <trkpt lat="44.75398" lon="5.04611">
        <ele>413</ele>
        <time>2020-02-07T10:17:16.000Z</time>
      </trkpt>
      <trkpt lat="44.75398" lon="5.04611">
        <ele>413</ele>
        <time>2020-02-07T10:17:17.000Z</time>
      </trkpt>
      <trkpt lat="44.75398" lon="5.04611">
        <ele>413</ele>
        <time>2020-02-07T10:17:18.000Z</time>
      </trkpt>
      <trkpt lat="44.75398" lon="5.04611">
        <ele>413</ele>
        <time>2020-02-07T10:17:19.000Z</time>
      </trkpt>
      <trkpt lat="44.75398" lon="5.04611">
        <ele>413</ele>
        <time>2020-02-07T10:17:20.000Z</time>
      </trkpt>
      <trkpt lat="44.75398" lon="5.04611">
        <ele>413</ele>
        <time>2020-02-07T10:17:21.000Z</time>
      </trkpt>
      <trkpt lat="44.75398" lon="5.04611">
        <ele>413</ele>
        <time>2020-02-07T10:17:22.000Z</time>
      </trkpt>
      <trkpt lat="44.75398" lon="5.04611">
        <ele>413</ele>
        <time>2020-02-07T10:17:23.000Z</time>
      </trkpt>
      <trkpt lat="44.75398" lon="5.04612">
        <ele>413</ele>
        <time>2020-02-07T10:17:24.000Z</time>
      </trkpt>
      <trkpt lat="44.75398" lon="5.04612">
        <ele>413</ele>
        <time>2020-02-07T10:17:25.000Z</time>
      </trkpt>
      <trkpt lat="44.75397" lon="5.04612">
        <ele>413</ele>
        <time>2020-02-07T10:17:26.000Z</time>
      </trkpt>
      <trkpt lat="44.75397" lon="5.04612">
        <ele>413</ele>
        <time>2020-02-07T10:17:27.000Z</time>
      </trkpt>
      <trkpt lat="44.75397" lon="5.04612">
        <ele>413</ele>
        <time>2020-02-07T10:17:28.000Z</time>
      </trkpt>
      <trkpt lat="44.75397" lon="5.04612">
        <ele>413</ele>
        <time>2020-02-07T10:17:29.000Z</time>
      </trkpt>
      <trkpt lat="44.75397" lon="5.04612">
        <ele>413</ele>
        <time>2020-02-07T10:17:30.000Z</time>
      </trkpt>
      <trkpt lat="44.75397" lon="5.04612">
        <ele>413</ele>
        <time>2020-02-07T10:17:31.000Z</time>
      </trkpt>
      <trkpt lat="44.75396" lon="5.04612">
        <ele>413</ele>
        <time>2020-02-07T10:17:32.000Z</time>
      </trkpt>
      <trkpt lat="44.75396" lon="5.04612">
        <ele>413</ele>
        <time>2020-02-07T10:17:33.000Z</time>
      </trkpt>
      <trkpt lat="44.75396" lon="5.04612">
        <ele>413</ele>
        <time>2020-02-07T10:17:34.000Z</time>
      </trkpt>
      <trkpt lat="44.75396" lon="5.04612">
        <ele>413</ele>
        <time>2020-02-07T10:17:35.000Z</time>
      </trkpt>
      <trkpt lat="44.75396" lon="5.04613">
        <ele>413</ele>
        <time>2020-02-07T10:17:36.000Z</time>
      </trkpt>
      <trkpt lat="44.75396" lon="5.04613">
        <ele>413</ele>
        <time>2020-02-07T10:17:37.000Z</time>
      </trkpt>
      <trkpt lat="44.75396" lon="5.04613">
        <ele>413</ele>
        <time>2020-02-07T10:17:38.000Z</time>
      </trkpt>
      <trkpt lat="44.75396" lon="5.04613">
        <ele>413</ele>
        <time>2020-02-07T10:17:39.000Z</time>
      </trkpt>
      <trkpt lat="44.75396" lon="5.04613">
        <ele>413</ele>
        <time>2020-02-07T10:17:40.000Z</time>
      </trkpt>
      <trkpt lat="44.75396" lon="5.04612">
        <ele>413</ele>
        <time>2020-02-07T10:17:41.000Z</time>
      </trkpt>
      <trkpt lat="44.75396" lon="5.04612">
        <ele>413</ele>
        <time>2020-02-07T10:17:42.000Z</time>
      </trkpt>
      <trkpt lat="44.75396" lon="5.04612">
        <ele>413</ele>
        <time>2020-02-07T10:17:43.000Z</time>
      </trkpt>
      <trkpt lat="44.75396" lon="5.04612">
        <ele>413</ele>
        <time>2020-02-07T10:17:44.000Z</time>
      </trkpt>
      <trkpt lat="44.75396" lon="5.04612">
        <ele>413</ele>
        <time>2020-02-07T10:17:45.000Z</time>
      </trkpt>
      <trkpt lat="44.75396" lon="5.04612">
        <ele>413</ele>
        <time>2020-02-07T10:17:46.000Z</time>
      </trkpt>
      <trkpt lat="44.75396" lon="5.04612">
        <ele>413</ele>
        <time>2020-02-07T10:17:47.000Z</time>
      </trkpt>
      <trkpt lat="44.75396" lon="5.04612">
        <ele>413</ele>
        <time>2020-02-07T10:17:48.000Z</time>
      </trkpt>
      <trkpt lat="44.75396" lon="5.04612">
        <ele>413</ele>
        <time>2020-02-07T10:17:49.000Z</time>
      </trkpt>
      <trkpt lat="44.75396" lon="5.04612">
        <ele>413</ele>
        <time>2020-02-07T10:17:50.000Z</time>
      </trkpt>
      <trkpt lat="44.75396" lon="5.04612">
        <ele>413</ele>
        <time>2020-02-07T10:17:51.000Z</time>
      </trkpt>
      <trkpt lat="44.75396" lon="5.04612">
        <ele>413</ele>
        <time>2020-02-07T10:17:52.000Z</time>
      </trkpt>
      <trkpt lat="44.75396" lon="5.04612">
        <ele>413</ele>
        <time>2020-02-07T10:17:53.000Z</time>
      </trkpt>
      <trkpt lat="44.75396" lon="5.04612">
        <ele>413</ele>
        <time>2020-02-07T10:17:54.000Z</time>
      </trkpt>
      <trkpt lat="44.75396" lon="5.04612">
        <ele>413</ele>
        <time>2020-02-07T10:17:55.000Z</time>
      </trkpt>
      <trkpt lat="44.75396" lon="5.04612">
        <ele>413</ele>
        <time>2020-02-07T10:17:56.000Z</time>
      </trkpt>
      <trkpt lat="44.75396" lon="5.04612">
        <ele>413</ele>
        <time>2020-02-07T10:17:57.000Z</time>
      </trkpt>
      <trkpt lat="44.75396" lon="5.04612">
        <ele>413</ele>
        <time>2020-02-07T10:17:58.000Z</time>
      </trkpt>
      <trkpt lat="44.75396" lon="5.04612">
        <ele>413</ele>
        <time>2020-02-07T10:17:59.000Z</time>
      </trkpt>
      <trkpt lat="44.75396" lon="5.04612">
        <ele>413</ele>
        <time>2020-02-07T10:18:00.000Z</time>
      </trkpt>
      <trkpt lat="44.75396" lon="5.04612">
        <ele>413</ele>
        <time>2020-02-07T10:18:01.000Z</time>
      </trkpt>
      <trkpt lat="44.75396" lon="5.04612">
        <ele>413</ele>
        <time>2020-02-07T10:18:02.000Z</time>
      </trkpt>
      <trkpt lat="44.75396" lon="5.04612">
        <ele>413</ele>
        <time>2020-02-07T10:18:03.000Z</time>
      </trkpt>
      <trkpt lat="44.75396" lon="5.04612">
        <ele>413</ele>
        <time>2020-02-07T10:18:04.000Z</time>
      </trkpt>
      <trkpt lat="44.75396" lon="5.04612">
        <ele>413</ele>
        <time>2020-02-07T10:18:05.000Z</time>
      </trkpt>
      <trkpt lat="44.75396" lon="5.04612">
        <ele>413</ele>
        <time>2020-02-07T10:18:06.000Z</time>
      </trkpt>
      <trkpt lat="44.75396" lon="5.04612">
        <ele>413</ele>
        <time>2020-02-07T10:18:07.000Z</time>
      </trkpt>
      <trkpt lat="44.75396" lon="5.04612">
        <ele>413</ele>
        <time>2020-02-07T10:18:08.000Z</time>
      </trkpt>
      <trkpt lat="44.75396" lon="5.04612">
        <ele>413</ele>
        <time>2020-02-07T10:18:09.000Z</time>
      </trkpt>
      <trkpt lat="44.75396" lon="5.04612">
        <ele>413</ele>
        <time>2020-02-07T10:18:10.000Z</time>
      </trkpt>
      <trkpt lat="44.75396" lon="5.04612">
        <ele>413</ele>
        <time>2020-02-07T10:18:11.000Z</time>
      </trkpt>
      <trkpt lat="44.75396" lon="5.04612">
        <ele>413</ele>
        <time>2020-02-07T10:18:12.000Z</time>
      </trkpt>
      <trkpt lat="44.75396" lon="5.04612">
        <ele>413</ele>
        <time>2020-02-07T10:18:13.000Z</time>
      </trkpt>
      <trkpt lat="44.75396" lon="5.04612">
        <ele>414</ele>
        <time>2020-02-07T10:18:14.000Z</time>
      </trkpt>
      <trkpt lat="44.75396" lon="5.04611">
        <ele>414</ele>
        <time>2020-02-07T10:18:15.000Z</time>
      </trkpt>
      <trkpt lat="44.75396" lon="5.04611">
        <ele>414</ele>
        <time>2020-02-07T10:18:16.000Z</time>
      </trkpt>
      <trkpt lat="44.75396" lon="5.04611">
        <ele>414</ele>
        <time>2020-02-07T10:18:17.000Z</time>
      </trkpt>
      <trkpt lat="44.75396" lon="5.04611">
        <ele>414</ele>
        <time>2020-02-07T10:18:18.000Z</time>
      </trkpt>
      <trkpt lat="44.75396" lon="5.04611">
        <ele>414</ele>
        <time>2020-02-07T10:18:19.000Z</time>
      </trkpt>
      <trkpt lat="44.75397" lon="5.04612">
        <ele>414</ele>
        <time>2020-02-07T10:18:20.000Z</time>
      </trkpt>
      <trkpt lat="44.75397" lon="5.04612">
        <ele>414</ele>
        <time>2020-02-07T10:18:21.000Z</time>
      </trkpt>
      <trkpt lat="44.75397" lon="5.04612">
        <ele>414</ele>
        <time>2020-02-07T10:18:22.000Z</time>
      </trkpt>
      <trkpt lat="44.75397" lon="5.04612">
        <ele>414</ele>
        <time>2020-02-07T10:18:23.000Z</time>
      </trkpt>
      <trkpt lat="44.75397" lon="5.04612">
        <ele>414</ele>
        <time>2020-02-07T10:18:24.000Z</time>
      </trkpt>
      <trkpt lat="44.75397" lon="5.04612">
        <ele>414</ele>
        <time>2020-02-07T10:18:25.000Z</time>
      </trkpt>
      <trkpt lat="44.75397" lon="5.04612">
        <ele>414</ele>
        <time>2020-02-07T10:18:26.000Z</time>
      </trkpt>
      <trkpt lat="44.75397" lon="5.04611">
        <ele>414</ele>
        <time>2020-02-07T10:18:27.000Z</time>
      </trkpt>
      <trkpt lat="44.75397" lon="5.04611">
        <ele>414</ele>
        <time>2020-02-07T10:18:28.000Z</time>
      </trkpt>
      <trkpt lat="44.75397" lon="5.04611">
        <ele>414</ele>
        <time>2020-02-07T10:18:29.000Z</time>
      </trkpt>
      <trkpt lat="44.75397" lon="5.04611">
        <ele>414</ele>
        <time>2020-02-07T10:18:30.000Z</time>
      </trkpt>
      <trkpt lat="44.75397" lon="5.04611">
        <ele>414</ele>
        <time>2020-02-07T10:18:31.000Z</time>
      </trkpt>
      <trkpt lat="44.75397" lon="5.04611">
        <ele>414</ele>
        <time>2020-02-07T10:18:32.000Z</time>
      </trkpt>
      <trkpt lat="44.75397" lon="5.04611">
        <ele>414</ele>
        <time>2020-02-07T10:18:33.000Z</time>
      </trkpt>
      <trkpt lat="44.75397" lon="5.04611">
        <ele>414</ele>
        <time>2020-02-07T10:18:34.000Z</time>
      </trkpt>
      <trkpt lat="44.75397" lon="5.04611">
        <ele>414</ele>
        <time>2020-02-07T10:18:35.000Z</time>
      </trkpt>
      <trkpt lat="44.75397" lon="5.04611">
        <ele>414</ele>
        <time>2020-02-07T10:18:36.000Z</time>
      </trkpt>
      <trkpt lat="44.75397" lon="5.04611">
        <ele>414</ele>
        <time>2020-02-07T10:18:37.000Z</time>
      </trkpt>
      <trkpt lat="44.75397" lon="5.04611">
        <ele>414</ele>
        <time>2020-02-07T10:18:38.000Z</time>
      </trkpt>
      <trkpt lat="44.75397" lon="5.04612">
        <ele>414</ele>
        <time>2020-02-07T10:18:39.000Z</time>
      </trkpt>
      <trkpt lat="44.75397" lon="5.04612">
        <ele>414</ele>
        <time>2020-02-07T10:18:40.000Z</time>
      </trkpt>
      <trkpt lat="44.75397" lon="5.04612">
        <ele>414</ele>
        <time>2020-02-07T10:18:41.000Z</time>
      </trkpt>
      <trkpt lat="44.75398" lon="5.04612">
        <ele>414</ele>
        <time>2020-02-07T10:18:42.000Z</time>
      </trkpt>
      <trkpt lat="44.75398" lon="5.04612">
        <ele>414</ele>
        <time>2020-02-07T10:18:43.000Z</time>
      </trkpt>
      <trkpt lat="44.75398" lon="5.04612">
        <ele>414</ele>
        <time>2020-02-07T10:18:44.000Z</time>
      </trkpt>
      <trkpt lat="44.75398" lon="5.04612">
        <ele>414</ele>
        <time>2020-02-07T10:18:45.000Z</time>
      </trkpt>
      <trkpt lat="44.75398" lon="5.04612">
        <ele>414</ele>
        <time>2020-02-07T10:18:46.000Z</time>
      </trkpt>
      <trkpt lat="44.75398" lon="5.04612">
        <ele>414</ele>
        <time>2020-02-07T10:18:47.000Z</time>
      </trkpt>
      <trkpt lat="44.75398" lon="5.04612">
        <ele>414</ele>
        <time>2020-02-07T10:18:48.000Z</time>
      </trkpt>
      <trkpt lat="44.75398" lon="5.04612">
        <ele>414</ele>
        <time>2020-02-07T10:18:49.000Z</time>
      </trkpt>
      <trkpt lat="44.75398" lon="5.04612">
        <ele>414</ele>
        <time>2020-02-07T10:18:50.000Z</time>
      </trkpt>
      <trkpt lat="44.75398" lon="5.04612">
        <ele>414</ele>
        <time>2020-02-07T10:18:51.000Z</time>
      </trkpt>
      <trkpt lat="44.75398" lon="5.04612">
        <ele>414</ele>
        <time>2020-02-07T10:18:52.000Z</time>
      </trkpt>
      <trkpt lat="44.75398" lon="5.04612">
        <ele>414</ele>
        <time>2020-02-07T10:18:53.000Z</time>
      </trkpt>
      <trkpt lat="44.75398" lon="5.04612">
        <ele>414</ele>
        <time>2020-02-07T10:18:54.000Z</time>
      </trkpt>
      <trkpt lat="44.75397" lon="5.04612">
        <ele>414</ele>
        <time>2020-02-07T10:18:55.000Z</time>
      </trkpt>
      <trkpt lat="44.75397" lon="5.04612">
        <ele>414</ele>
        <time>2020-02-07T10:18:56.000Z</time>
      </trkpt>
      <trkpt lat="44.75397" lon="5.04612">
        <ele>414</ele>
        <time>2020-02-07T10:18:57.000Z</time>
      </trkpt>
      <trkpt lat="44.75397" lon="5.04612">
        <ele>414</ele>
        <time>2020-02-07T10:18:58.000Z</time>
      </trkpt>
      <trkpt lat="44.75397" lon="5.04612">
        <ele>414</ele>
        <time>2020-02-07T10:18:59.000Z</time>
      </trkpt>
      <trkpt lat="44.75397" lon="5.04612">
        <ele>414</ele>
        <time>2020-02-07T10:19:00.000Z</time>
      </trkpt>
      <trkpt lat="44.75397" lon="5.04612">
        <ele>414</ele>
        <time>2020-02-07T10:19:01.000Z</time>
      </trkpt>
      <trkpt lat="44.75397" lon="5.04612">
        <ele>414</ele>
        <time>2020-02-07T10:19:02.000Z</time>
      </trkpt>
      <trkpt lat="44.75397" lon="5.04611">
        <ele>414</ele>
        <time>2020-02-07T10:19:03.000Z</time>
      </trkpt>
      <trkpt lat="44.75397" lon="5.04611">
        <ele>414</ele>
        <time>2020-02-07T10:19:04.000Z</time>
      </trkpt>
      <trkpt lat="44.75397" lon="5.04611">
        <ele>414</ele>
        <time>2020-02-07T10:19:05.000Z</time>
      </trkpt>
      <trkpt lat="44.75397" lon="5.04611">
        <ele>414</ele>
        <time>2020-02-07T10:19:06.000Z</time>
      </trkpt>
      <trkpt lat="44.75397" lon="5.04611">
        <ele>414</ele>
        <time>2020-02-07T10:19:07.000Z</time>
      </trkpt>
      <trkpt lat="44.75397" lon="5.04611">
        <ele>414</ele>
        <time>2020-02-07T10:19:08.000Z</time>
      </trkpt>
      <trkpt lat="44.75397" lon="5.04611">
        <ele>414</ele>
        <time>2020-02-07T10:19:09.000Z</time>
      </trkpt>
      <trkpt lat="44.75397" lon="5.04611">
        <ele>414</ele>
        <time>2020-02-07T10:19:10.000Z</time>
      </trkpt>
      <trkpt lat="44.75397" lon="5.04611">
        <ele>414</ele>
        <time>2020-02-07T10:19:11.000Z</time>
      </trkpt>
      <trkpt lat="44.75396" lon="5.04611">
        <ele>414</ele>
        <time>2020-02-07T10:19:12.000Z</time>
      </trkpt>
      <trkpt lat="44.75396" lon="5.04611">
        <ele>414</ele>
        <time>2020-02-07T10:19:13.000Z</time>
      </trkpt>
      <trkpt lat="44.75396" lon="5.04611">
        <ele>414</ele>
        <time>2020-02-07T10:19:14.000Z</time>
      </trkpt>
      <trkpt lat="44.75396" lon="5.04611">
        <ele>414</ele>
        <time>2020-02-07T10:19:15.000Z</time>
      </trkpt>
      <trkpt lat="44.75396" lon="5.04611">
        <ele>414</ele>
        <time>2020-02-07T10:19:16.000Z</time>
      </trkpt>
      <trkpt lat="44.75396" lon="5.04611">
        <ele>414</ele>
        <time>2020-02-07T10:19:17.000Z</time>
      </trkpt>
      <trkpt lat="44.75396" lon="5.04611">
        <ele>414</ele>
        <time>2020-02-07T10:19:18.000Z</time>
      </trkpt>
      <trkpt lat="44.75396" lon="5.04611">
        <ele>414</ele>
        <time>2020-02-07T10:19:19.000Z</time>
      </trkpt>
      <trkpt lat="44.75396" lon="5.04611">
        <ele>414</ele>
        <time>2020-02-07T10:19:20.000Z</time>
      </trkpt>
      <trkpt lat="44.75396" lon="5.04611">
        <ele>414</ele>
        <time>2020-02-07T10:19:21.000Z</time>
      </trkpt>
      <trkpt lat="44.75396" lon="5.04611">
        <ele>414</ele>
        <time>2020-02-07T10:19:22.000Z</time>
      </trkpt>
      <trkpt lat="44.75396" lon="5.04611">
        <ele>414</ele>
        <time>2020-02-07T10:19:23.000Z</time>
      </trkpt>
      <trkpt lat="44.75396" lon="5.04611">
        <ele>414</ele>
        <time>2020-02-07T10:19:24.000Z</time>
      </trkpt>
      <trkpt lat="44.75396" lon="5.04611">
        <ele>414</ele>
        <time>2020-02-07T10:19:25.000Z</time>
      </trkpt>
      <trkpt lat="44.75396" lon="5.04611">
        <ele>414</ele>
        <time>2020-02-07T10:19:26.000Z</time>
      </trkpt>
      <trkpt lat="44.75395" lon="5.04611">
        <ele>414</ele>
        <time>2020-02-07T10:19:27.000Z</time>
      </trkpt>
      <trkpt lat="44.75395" lon="5.04611">
        <ele>413</ele>
        <time>2020-02-07T10:19:28.000Z</time>
      </trkpt>
      <trkpt lat="44.75394" lon="5.04611">
        <ele>413</ele>
        <time>2020-02-07T10:19:29.000Z</time>
      </trkpt>
      <trkpt lat="44.75394" lon="5.04611">
        <ele>413</ele>
        <time>2020-02-07T10:19:30.000Z</time>
      </trkpt>
      <trkpt lat="44.75394" lon="5.04611">
        <ele>413</ele>
        <time>2020-02-07T10:19:31.000Z</time>
      </trkpt>
      <trkpt lat="44.75394" lon="5.0461">
        <ele>413</ele>
        <time>2020-02-07T10:19:32.000Z</time>
      </trkpt>
      <trkpt lat="44.75394" lon="5.0461">
        <ele>413</ele>
        <time>2020-02-07T10:19:33.000Z</time>
      </trkpt>
      <trkpt lat="44.75394" lon="5.0461">
        <ele>412</ele>
        <time>2020-02-07T10:19:34.000Z</time>
      </trkpt>
      <trkpt lat="44.75394" lon="5.0461">
        <ele>412</ele>
        <time>2020-02-07T10:19:35.000Z</time>
      </trkpt>
      <trkpt lat="44.75394" lon="5.0461">
        <ele>412</ele>
        <time>2020-02-07T10:19:36.000Z</time>
      </trkpt>
      <trkpt lat="44.75394" lon="5.0461">
        <ele>412</ele>
        <time>2020-02-07T10:19:37.000Z</time>
      </trkpt>
      <trkpt lat="44.75394" lon="5.0461">
        <ele>412</ele>
        <time>2020-02-07T10:19:38.000Z</time>
      </trkpt>
      <trkpt lat="44.75394" lon="5.0461">
        <ele>412</ele>
        <time>2020-02-07T10:19:39.000Z</time>
      </trkpt>
      <trkpt lat="44.75394" lon="5.0461">
        <ele>412</ele>
        <time>2020-02-07T10:19:40.000Z</time>
      </trkpt>
      <trkpt lat="44.75395" lon="5.04611">
        <ele>411</ele>
        <time>2020-02-07T10:19:41.000Z</time>
      </trkpt>
      <trkpt lat="44.75395" lon="5.04611">
        <ele>411</ele>
        <time>2020-02-07T10:19:42.000Z</time>
      </trkpt>
      <trkpt lat="44.75395" lon="5.04611">
        <ele>411</ele>
        <time>2020-02-07T10:19:43.000Z</time>
      </trkpt>
      <trkpt lat="44.75395" lon="5.0461">
        <ele>411</ele>
        <time>2020-02-07T10:19:44.000Z</time>
      </trkpt>
      <trkpt lat="44.75395" lon="5.0461">
        <ele>411</ele>
        <time>2020-02-07T10:19:45.000Z</time>
      </trkpt>
      <trkpt lat="44.75395" lon="5.0461">
        <ele>411</ele>
        <time>2020-02-07T10:19:46.000Z</time>
      </trkpt>
      <trkpt lat="44.75395" lon="5.0461">
        <ele>411</ele>
        <time>2020-02-07T10:19:47.000Z</time>
      </trkpt>
      <trkpt lat="44.75395" lon="5.0461">
        <ele>411</ele>
        <time>2020-02-07T10:19:48.000Z</time>
      </trkpt>
      <trkpt lat="44.75395" lon="5.0461">
        <ele>411</ele>
        <time>2020-02-07T10:19:49.000Z</time>
      </trkpt>
      <trkpt lat="44.75395" lon="5.0461">
        <ele>411</ele>
        <time>2020-02-07T10:19:50.000Z</time>
      </trkpt>
      <trkpt lat="44.75395" lon="5.0461">
        <ele>411</ele>
        <time>2020-02-07T10:19:51.000Z</time>
      </trkpt>
      <trkpt lat="44.75395" lon="5.04611">
        <ele>410</ele>
        <time>2020-02-07T10:19:52.000Z</time>
      </trkpt>
      <trkpt lat="44.75396" lon="5.04611">
        <ele>410</ele>
        <time>2020-02-07T10:19:53.000Z</time>
      </trkpt>
      <trkpt lat="44.75396" lon="5.0461">
        <ele>410</ele>
        <time>2020-02-07T10:19:54.000Z</time>
      </trkpt>
      <trkpt lat="44.75395" lon="5.04611">
        <ele>410</ele>
        <time>2020-02-07T10:19:55.000Z</time>
      </trkpt>
      <trkpt lat="44.75395" lon="5.04611">
        <ele>410</ele>
        <time>2020-02-07T10:19:56.000Z</time>
      </trkpt>
      <trkpt lat="44.75394" lon="5.04611">
        <ele>409</ele>
        <time>2020-02-07T10:19:57.000Z</time>
      </trkpt>
      <trkpt lat="44.75394" lon="5.04611">
        <ele>409</ele>
        <time>2020-02-07T10:19:58.000Z</time>
      </trkpt>
      <trkpt lat="44.75393" lon="5.04611">
        <ele>409</ele>
        <time>2020-02-07T10:19:59.000Z</time>
      </trkpt>
      <trkpt lat="44.75393" lon="5.04611">
        <ele>409</ele>
        <time>2020-02-07T10:20:00.000Z</time>
      </trkpt>
      <trkpt lat="44.75393" lon="5.04611">
        <ele>408</ele>
        <time>2020-02-07T10:20:01.000Z</time>
      </trkpt>
      <trkpt lat="44.75393" lon="5.04611">
        <ele>408</ele>
        <time>2020-02-07T10:20:02.000Z</time>
      </trkpt>
      <trkpt lat="44.75393" lon="5.04611">
        <ele>408</ele>
        <time>2020-02-07T10:20:03.000Z</time>
      </trkpt>
      <trkpt lat="44.75393" lon="5.04611">
        <ele>407</ele>
        <time>2020-02-07T10:20:04.000Z</time>
      </trkpt>
      <trkpt lat="44.75393" lon="5.04611">
        <ele>407</ele>
        <time>2020-02-07T10:20:05.000Z</time>
      </trkpt>
      <trkpt lat="44.75392" lon="5.04611">
        <ele>407</ele>
        <time>2020-02-07T10:20:06.000Z</time>
      </trkpt>
      <trkpt lat="44.75392" lon="5.04611">
        <ele>407</ele>
        <time>2020-02-07T10:20:07.000Z</time>
      </trkpt>
      <trkpt lat="44.75392" lon="5.04611">
        <ele>407</ele>
        <time>2020-02-07T10:20:08.000Z</time>
      </trkpt>
      <trkpt lat="44.75392" lon="5.04611">
        <ele>407</ele>
        <time>2020-02-07T10:20:09.000Z</time>
      </trkpt>
      <trkpt lat="44.75392" lon="5.04611">
        <ele>406</ele>
        <time>2020-02-07T10:20:10.000Z</time>
      </trkpt>
      <trkpt lat="44.75392" lon="5.04611">
        <ele>406</ele>
        <time>2020-02-07T10:20:11.000Z</time>
      </trkpt>
      <trkpt lat="44.75392" lon="5.04611">
        <ele>406</ele>
        <time>2020-02-07T10:20:12.000Z</time>
      </trkpt>
      <trkpt lat="44.75392" lon="5.04611">
        <ele>406</ele>
        <time>2020-02-07T10:20:13.000Z</time>
      </trkpt>
      <trkpt lat="44.75392" lon="5.04611">
        <ele>406</ele>
        <time>2020-02-07T10:20:14.000Z</time>
      </trkpt>
      <trkpt lat="44.75392" lon="5.04611">
        <ele>406</ele>
        <time>2020-02-07T10:20:15.000Z</time>
      </trkpt>
      <trkpt lat="44.75392" lon="5.04611">
        <ele>406</ele>
        <time>2020-02-07T10:20:16.000Z</time>
      </trkpt>
      <trkpt lat="44.75392" lon="5.04611">
        <ele>406</ele>
        <time>2020-02-07T10:20:17.000Z</time>
      </trkpt>
      <trkpt lat="44.75392" lon="5.04611">
        <ele>405</ele>
        <time>2020-02-07T10:20:18.000Z</time>
      </trkpt>
      <trkpt lat="44.75392" lon="5.04611">
        <ele>405</ele>
        <time>2020-02-07T10:20:19.000Z</time>
      </trkpt>
      <trkpt lat="44.75392" lon="5.04611">
        <ele>405</ele>
        <time>2020-02-07T10:20:20.000Z</time>
      </trkpt>
      <trkpt lat="44.75392" lon="5.04611">
        <ele>405</ele>
        <time>2020-02-07T10:20:21.000Z</time>
      </trkpt>
      <trkpt lat="44.75392" lon="5.04611">
        <ele>405</ele>
        <time>2020-02-07T10:20:22.000Z</time>
      </trkpt>
      <trkpt lat="44.75392" lon="5.04611">
        <ele>405</ele>
        <time>2020-02-07T10:20:23.000Z</time>
      </trkpt>
      <trkpt lat="44.75392" lon="5.04611">
        <ele>405</ele>
        <time>2020-02-07T10:20:24.000Z</time>
      </trkpt>
      <trkpt lat="44.75392" lon="5.04611">
        <ele>405</ele>
        <time>2020-02-07T10:20:25.000Z</time>
      </trkpt>
      <trkpt lat="44.75392" lon="5.0461">
        <ele>405</ele>
        <time>2020-02-07T10:20:26.000Z</time>
      </trkpt>
      <trkpt lat="44.75392" lon="5.0461">
        <ele>405</ele>
        <time>2020-02-07T10:20:27.000Z</time>
      </trkpt>
      <trkpt lat="44.75392" lon="5.04609">
        <ele>405</ele>
        <time>2020-02-07T10:20:28.000Z</time>
      </trkpt>
      <trkpt lat="44.75393" lon="5.04609">
        <ele>405</ele>
        <time>2020-02-07T10:20:29.000Z</time>
      </trkpt>
      <trkpt lat="44.75393" lon="5.04608">
        <ele>405</ele>
        <time>2020-02-07T10:20:30.000Z</time>
      </trkpt>
      <trkpt lat="44.75393" lon="5.04608">
        <ele>405</ele>
        <time>2020-02-07T10:20:31.000Z</time>
      </trkpt>
      <trkpt lat="44.75394" lon="5.04607">
        <ele>405</ele>
        <time>2020-02-07T10:20:32.000Z</time>
      </trkpt>
      <trkpt lat="44.75394" lon="5.04607">
        <ele>405</ele>
        <time>2020-02-07T10:20:33.000Z</time>
      </trkpt>
      <trkpt lat="44.75395" lon="5.04606">
        <ele>405</ele>
        <time>2020-02-07T10:20:34.000Z</time>
      </trkpt>
      <trkpt lat="44.75396" lon="5.04605">
        <ele>405</ele>
        <time>2020-02-07T10:20:35.000Z</time>
      </trkpt>
      <trkpt lat="44.75397" lon="5.04605">
        <ele>405</ele>
        <time>2020-02-07T10:20:36.000Z</time>
      </trkpt>
      <trkpt lat="44.75397" lon="5.04605">
        <ele>405</ele>
        <time>2020-02-07T10:20:37.000Z</time>
      </trkpt>
      <trkpt lat="44.75397" lon="5.04605">
        <ele>405</ele>
        <time>2020-02-07T10:20:38.000Z</time>
      </trkpt>
      <trkpt lat="44.75397" lon="5.04604">
        <ele>405</ele>
        <time>2020-02-07T10:20:39.000Z</time>
      </trkpt>
      <trkpt lat="44.75397" lon="5.04604">
        <ele>405</ele>
        <time>2020-02-07T10:20:40.000Z</time>
      </trkpt>
      <trkpt lat="44.75397" lon="5.04604">
        <ele>405</ele>
        <time>2020-02-07T10:20:41.000Z</time>
      </trkpt>
      <trkpt lat="44.75397" lon="5.04604">
        <ele>405</ele>
        <time>2020-02-07T10:20:42.000Z</time>
      </trkpt>
      <trkpt lat="44.75397" lon="5.04604">
        <ele>405</ele>
        <time>2020-02-07T10:20:43.000Z</time>
      </trkpt>
      <trkpt lat="44.75397" lon="5.04604">
        <ele>405</ele>
        <time>2020-02-07T10:20:44.000Z</time>
      </trkpt>
      <trkpt lat="44.75397" lon="5.04604">
        <ele>405</ele>
        <time>2020-02-07T10:20:45.000Z</time>
      </trkpt>
      <trkpt lat="44.75398" lon="5.04603">
        <ele>405</ele>
        <time>2020-02-07T10:20:46.000Z</time>
      </trkpt>
      <trkpt lat="44.75398" lon="5.04602">
        <ele>406</ele>
        <time>2020-02-07T10:20:47.000Z</time>
      </trkpt>
      <trkpt lat="44.75399" lon="5.04602">
        <ele>406</ele>
        <time>2020-02-07T10:20:48.000Z</time>
      </trkpt>
      <trkpt lat="44.75399" lon="5.04601">
        <ele>406</ele>
        <time>2020-02-07T10:20:49.000Z</time>
      </trkpt>
      <trkpt lat="44.754" lon="5.04601">
        <ele>406</ele>
        <time>2020-02-07T10:20:50.000Z</time>
      </trkpt>
      <trkpt lat="44.754" lon="5.04601">
        <ele>406</ele>
        <time>2020-02-07T10:20:51.000Z</time>
      </trkpt>
      <trkpt lat="44.75401" lon="5.046">
        <ele>406</ele>
        <time>2020-02-07T10:20:52.000Z</time>
      </trkpt>
      <trkpt lat="44.75401" lon="5.04599">
        <ele>406</ele>
        <time>2020-02-07T10:20:53.000Z</time>
      </trkpt>
      <trkpt lat="44.75402" lon="5.04599">
        <ele>406</ele>
        <time>2020-02-07T10:20:54.000Z</time>
      </trkpt>
      <trkpt lat="44.75403" lon="5.04598">
        <ele>406</ele>
        <time>2020-02-07T10:20:55.000Z</time>
      </trkpt>
      <trkpt lat="44.75404" lon="5.04598">
        <ele>406</ele>
        <time>2020-02-07T10:20:56.000Z</time>
      </trkpt>
      <trkpt lat="44.75404" lon="5.04598">
        <ele>406</ele>
        <time>2020-02-07T10:20:57.000Z</time>
      </trkpt>
      <trkpt lat="44.75405" lon="5.04598">
        <ele>407</ele>
        <time>2020-02-07T10:20:58.000Z</time>
      </trkpt>
      <trkpt lat="44.75405" lon="5.04597">
        <ele>407</ele>
        <time>2020-02-07T10:20:59.000Z</time>
      </trkpt>
      <trkpt lat="44.75406" lon="5.04596">
        <ele>407</ele>
        <time>2020-02-07T10:21:00.000Z</time>
      </trkpt>
      <trkpt lat="44.75406" lon="5.04596">
        <ele>407</ele>
        <time>2020-02-07T10:21:01.000Z</time>
      </trkpt>
      <trkpt lat="44.75406" lon="5.04596">
        <ele>407</ele>
        <time>2020-02-07T10:21:02.000Z</time>
      </trkpt>
      <trkpt lat="44.75407" lon="5.04596">
        <ele>407</ele>
        <time>2020-02-07T10:21:03.000Z</time>
      </trkpt>
      <trkpt lat="44.75408" lon="5.04596">
        <ele>408</ele>
        <time>2020-02-07T10:21:04.000Z</time>
      </trkpt>
      <trkpt lat="44.75409" lon="5.04596">
        <ele>408</ele>
        <time>2020-02-07T10:21:05.000Z</time>
      </trkpt>
      <trkpt lat="44.7541" lon="5.04596">
        <ele>408</ele>
        <time>2020-02-07T10:21:06.000Z</time>
      </trkpt>
      <trkpt lat="44.75411" lon="5.04595">
        <ele>408</ele>
        <time>2020-02-07T10:21:07.000Z</time>
      </trkpt>
      <trkpt lat="44.75412" lon="5.04594">
        <ele>408</ele>
        <time>2020-02-07T10:21:08.000Z</time>
      </trkpt>
      <trkpt lat="44.75413" lon="5.04593">
        <ele>409</ele>
        <time>2020-02-07T10:21:09.000Z</time>
      </trkpt>
      <trkpt lat="44.75414" lon="5.04593">
        <ele>409</ele>
        <time>2020-02-07T10:21:10.000Z</time>
      </trkpt>
      <trkpt lat="44.75415" lon="5.04592">
        <ele>409</ele>
        <time>2020-02-07T10:21:11.000Z</time>
      </trkpt>
      <trkpt lat="44.75416" lon="5.04591">
        <ele>409</ele>
        <time>2020-02-07T10:21:12.000Z</time>
      </trkpt>
      <trkpt lat="44.75417" lon="5.0459">
        <ele>409</ele>
        <time>2020-02-07T10:21:13.000Z</time>
      </trkpt>
      <trkpt lat="44.75418" lon="5.04589">
        <ele>410</ele>
        <time>2020-02-07T10:21:14.000Z</time>
      </trkpt>
      <trkpt lat="44.75419" lon="5.04589">
        <ele>410</ele>
        <time>2020-02-07T10:21:15.000Z</time>
      </trkpt>
      <trkpt lat="44.7542" lon="5.04589">
        <ele>410</ele>
        <time>2020-02-07T10:21:16.000Z</time>
      </trkpt>
      <trkpt lat="44.75421" lon="5.04589">
        <ele>410</ele>
        <time>2020-02-07T10:21:17.000Z</time>
      </trkpt>
      <trkpt lat="44.75422" lon="5.04589">
        <ele>410</ele>
        <time>2020-02-07T10:21:18.000Z</time>
      </trkpt>
      <trkpt lat="44.75423" lon="5.04589">
        <ele>410</ele>
        <time>2020-02-07T10:21:19.000Z</time>
      </trkpt>
      <trkpt lat="44.75424" lon="5.04589">
        <ele>410</ele>
        <time>2020-02-07T10:21:20.000Z</time>
      </trkpt>
      <trkpt lat="44.75425" lon="5.04589">
        <ele>411</ele>
        <time>2020-02-07T10:21:21.000Z</time>
      </trkpt>
      <trkpt lat="44.75426" lon="5.04589">
        <ele>411</ele>
        <time>2020-02-07T10:21:22.000Z</time>
      </trkpt>
      <trkpt lat="44.75427" lon="5.04589">
        <ele>411</ele>
        <time>2020-02-07T10:21:23.000Z</time>
      </trkpt>
      <trkpt lat="44.75428" lon="5.04589">
        <ele>411</ele>
        <time>2020-02-07T10:21:24.000Z</time>
      </trkpt>
      <trkpt lat="44.75428" lon="5.04589">
        <ele>411</ele>
        <time>2020-02-07T10:21:25.000Z</time>
      </trkpt>
      <trkpt lat="44.75429" lon="5.04588">
        <ele>412</ele>
        <time>2020-02-07T10:21:26.000Z</time>
      </trkpt>
      <trkpt lat="44.7543" lon="5.04588">
        <ele>412</ele>
        <time>2020-02-07T10:21:27.000Z</time>
      </trkpt>
      <trkpt lat="44.75431" lon="5.04587">
        <ele>412</ele>
        <time>2020-02-07T10:21:28.000Z</time>
      </trkpt>
      <trkpt lat="44.75432" lon="5.04587">
        <ele>412</ele>
        <time>2020-02-07T10:21:29.000Z</time>
      </trkpt>
      <trkpt lat="44.75433" lon="5.04587">
        <ele>412</ele>
        <time>2020-02-07T10:21:30.000Z</time>
      </trkpt>
      <trkpt lat="44.75434" lon="5.04587">
        <ele>412</ele>
        <time>2020-02-07T10:21:31.000Z</time>
      </trkpt>
      <trkpt lat="44.75435" lon="5.04587">
        <ele>412</ele>
        <time>2020-02-07T10:21:32.000Z</time>
      </trkpt>
      <trkpt lat="44.75436" lon="5.04587">
        <ele>413</ele>
        <time>2020-02-07T10:21:33.000Z</time>
      </trkpt>
      <trkpt lat="44.75437" lon="5.04586">
        <ele>413</ele>
        <time>2020-02-07T10:21:34.000Z</time>
      </trkpt>
      <trkpt lat="44.75438" lon="5.04586">
        <ele>413</ele>
        <time>2020-02-07T10:21:35.000Z</time>
      </trkpt>
      <trkpt lat="44.75439" lon="5.04586">
        <ele>413</ele>
        <time>2020-02-07T10:21:36.000Z</time>
      </trkpt>
      <trkpt lat="44.7544" lon="5.04586">
        <ele>413</ele>
        <time>2020-02-07T10:21:37.000Z</time>
      </trkpt>
      <trkpt lat="44.7544" lon="5.04586">
        <ele>413</ele>
        <time>2020-02-07T10:21:38.000Z</time>
      </trkpt>
      <trkpt lat="44.75441" lon="5.04585">
        <ele>414</ele>
        <time>2020-02-07T10:21:39.000Z</time>
      </trkpt>
      <trkpt lat="44.75442" lon="5.04585">
        <ele>414</ele>
        <time>2020-02-07T10:21:40.000Z</time>
      </trkpt>
      <trkpt lat="44.75443" lon="5.04585">
        <ele>414</ele>
        <time>2020-02-07T10:21:41.000Z</time>
      </trkpt>
      <trkpt lat="44.75444" lon="5.04584">
        <ele>414</ele>
        <time>2020-02-07T10:21:42.000Z</time>
      </trkpt>
      <trkpt lat="44.75445" lon="5.04584">
        <ele>415</ele>
        <time>2020-02-07T10:21:43.000Z</time>
      </trkpt>
      <trkpt lat="44.75446" lon="5.04584">
        <ele>415</ele>
        <time>2020-02-07T10:21:44.000Z</time>
      </trkpt>
      <trkpt lat="44.75447" lon="5.04584">
        <ele>415</ele>
        <time>2020-02-07T10:21:45.000Z</time>
      </trkpt>
      <trkpt lat="44.75448" lon="5.04583">
        <ele>415</ele>
        <time>2020-02-07T10:21:46.000Z</time>
      </trkpt>
      <trkpt lat="44.75449" lon="5.04583">
        <ele>415</ele>
        <time>2020-02-07T10:21:47.000Z</time>
      </trkpt>
      <trkpt lat="44.7545" lon="5.04583">
        <ele>416</ele>
        <time>2020-02-07T10:21:48.000Z</time>
      </trkpt>
      <trkpt lat="44.75451" lon="5.04583">
        <ele>416</ele>
        <time>2020-02-07T10:21:49.000Z</time>
      </trkpt>
      <trkpt lat="44.75452" lon="5.04582">
        <ele>416</ele>
        <time>2020-02-07T10:21:50.000Z</time>
      </trkpt>
      <trkpt lat="44.75453" lon="5.04582">
        <ele>416</ele>
        <time>2020-02-07T10:21:51.000Z</time>
      </trkpt>
      <trkpt lat="44.75454" lon="5.04582">
        <ele>417</ele>
        <time>2020-02-07T10:21:52.000Z</time>
      </trkpt>
      <trkpt lat="44.75455" lon="5.04582">
        <ele>417</ele>
        <time>2020-02-07T10:21:53.000Z</time>
      </trkpt>
      <trkpt lat="44.75456" lon="5.04582">
        <ele>417</ele>
        <time>2020-02-07T10:21:54.000Z</time>
      </trkpt>
      <trkpt lat="44.75457" lon="5.04581">
        <ele>417</ele>
        <time>2020-02-07T10:21:55.000Z</time>
      </trkpt>
      <trkpt lat="44.75458" lon="5.04581">
        <ele>417</ele>
        <time>2020-02-07T10:21:56.000Z</time>
      </trkpt>
      <trkpt lat="44.75459" lon="5.04581">
        <ele>418</ele>
        <time>2020-02-07T10:21:57.000Z</time>
      </trkpt>
      <trkpt lat="44.75459" lon="5.04581">
        <ele>418</ele>
        <time>2020-02-07T10:21:58.000Z</time>
      </trkpt>
      <trkpt lat="44.7546" lon="5.04581">
        <ele>418</ele>
        <time>2020-02-07T10:21:59.000Z</time>
      </trkpt>
      <trkpt lat="44.75461" lon="5.04581">
        <ele>418</ele>
        <time>2020-02-07T10:22:00.000Z</time>
      </trkpt>
      <trkpt lat="44.75462" lon="5.04581">
        <ele>418</ele>
        <time>2020-02-07T10:22:01.000Z</time>
      </trkpt>
      <trkpt lat="44.75463" lon="5.04581">
        <ele>419</ele>
        <time>2020-02-07T10:22:02.000Z</time>
      </trkpt>
      <trkpt lat="44.75464" lon="5.04581">
        <ele>419</ele>
        <time>2020-02-07T10:22:03.000Z</time>
      </trkpt>
      <trkpt lat="44.75465" lon="5.04581">
        <ele>419</ele>
        <time>2020-02-07T10:22:04.000Z</time>
      </trkpt>
      <trkpt lat="44.75465" lon="5.04582">
        <ele>419</ele>
        <time>2020-02-07T10:22:05.000Z</time>
      </trkpt>
      <trkpt lat="44.75466" lon="5.04581">
        <ele>419</ele>
        <time>2020-02-07T10:22:06.000Z</time>
      </trkpt>
      <trkpt lat="44.75467" lon="5.04581">
        <ele>419</ele>
        <time>2020-02-07T10:22:07.000Z</time>
      </trkpt>
      <trkpt lat="44.75468" lon="5.04581">
        <ele>419</ele>
        <time>2020-02-07T10:22:08.000Z</time>
      </trkpt>
      <trkpt lat="44.75469" lon="5.0458">
        <ele>420</ele>
        <time>2020-02-07T10:22:09.000Z</time>
      </trkpt>
      <trkpt lat="44.7547" lon="5.0458">
        <ele>420</ele>
        <time>2020-02-07T10:22:10.000Z</time>
      </trkpt>
      <trkpt lat="44.7547" lon="5.0458">
        <ele>420</ele>
        <time>2020-02-07T10:22:11.000Z</time>
      </trkpt>
      <trkpt lat="44.75471" lon="5.0458">
        <ele>420</ele>
        <time>2020-02-07T10:22:12.000Z</time>
      </trkpt>
      <trkpt lat="44.75472" lon="5.0458">
        <ele>420</ele>
        <time>2020-02-07T10:22:13.000Z</time>
      </trkpt>
      <trkpt lat="44.75473" lon="5.04579">
        <ele>420</ele>
        <time>2020-02-07T10:22:14.000Z</time>
      </trkpt>
      <trkpt lat="44.75474" lon="5.04579">
        <ele>420</ele>
        <time>2020-02-07T10:22:15.000Z</time>
      </trkpt>
      <trkpt lat="44.75475" lon="5.04579">
        <ele>420</ele>
        <time>2020-02-07T10:22:16.000Z</time>
      </trkpt>
      <trkpt lat="44.75476" lon="5.04579">
        <ele>420</ele>
        <time>2020-02-07T10:22:17.000Z</time>
      </trkpt>
      <trkpt lat="44.75477" lon="5.04579">
        <ele>420</ele>
        <time>2020-02-07T10:22:18.000Z</time>
      </trkpt>
      <trkpt lat="44.75478" lon="5.04578">
        <ele>421</ele>
        <time>2020-02-07T10:22:19.000Z</time>
      </trkpt>
      <trkpt lat="44.75479" lon="5.04578">
        <ele>421</ele>
        <time>2020-02-07T10:22:20.000Z</time>
      </trkpt>
      <trkpt lat="44.7548" lon="5.04578">
        <ele>421</ele>
        <time>2020-02-07T10:22:21.000Z</time>
      </trkpt>
      <trkpt lat="44.75481" lon="5.04578">
        <ele>421</ele>
        <time>2020-02-07T10:22:22.000Z</time>
      </trkpt>
      <trkpt lat="44.75482" lon="5.04578">
        <ele>421</ele>
        <time>2020-02-07T10:22:23.000Z</time>
      </trkpt>
      <trkpt lat="44.75483" lon="5.04578">
        <ele>422</ele>
        <time>2020-02-07T10:22:24.000Z</time>
      </trkpt>
      <trkpt lat="44.75483" lon="5.04578">
        <ele>422</ele>
        <time>2020-02-07T10:22:25.000Z</time>
      </trkpt>
      <trkpt lat="44.75484" lon="5.04578">
        <ele>422</ele>
        <time>2020-02-07T10:22:26.000Z</time>
      </trkpt>
      <trkpt lat="44.75485" lon="5.04577">
        <ele>422</ele>
        <time>2020-02-07T10:22:27.000Z</time>
      </trkpt>
      <trkpt lat="44.75486" lon="5.04577">
        <ele>422</ele>
        <time>2020-02-07T10:22:28.000Z</time>
      </trkpt>
      <trkpt lat="44.75487" lon="5.04577">
        <ele>422</ele>
        <time>2020-02-07T10:22:29.000Z</time>
      </trkpt>
      <trkpt lat="44.75488" lon="5.04576">
        <ele>423</ele>
        <time>2020-02-07T10:22:30.000Z</time>
      </trkpt>
      <trkpt lat="44.75489" lon="5.04576">
        <ele>423</ele>
        <time>2020-02-07T10:22:31.000Z</time>
      </trkpt>
      <trkpt lat="44.7549" lon="5.04575">
        <ele>423</ele>
        <time>2020-02-07T10:22:32.000Z</time>
      </trkpt>
      <trkpt lat="44.75491" lon="5.04575">
        <ele>423</ele>
        <time>2020-02-07T10:22:33.000Z</time>
      </trkpt>
      <trkpt lat="44.75492" lon="5.04574">
        <ele>423</ele>
        <time>2020-02-07T10:22:34.000Z</time>
      </trkpt>
      <trkpt lat="44.75492" lon="5.04574">
        <ele>424</ele>
        <time>2020-02-07T10:22:35.000Z</time>
      </trkpt>
      <trkpt lat="44.75493" lon="5.04573">
        <ele>424</ele>
        <time>2020-02-07T10:22:36.000Z</time>
      </trkpt>
      <trkpt lat="44.75494" lon="5.04573">
        <ele>424</ele>
        <time>2020-02-07T10:22:37.000Z</time>
      </trkpt>
      <trkpt lat="44.75495" lon="5.04572">
        <ele>424</ele>
        <time>2020-02-07T10:22:38.000Z</time>
      </trkpt>
      <trkpt lat="44.75496" lon="5.04572">
        <ele>424</ele>
        <time>2020-02-07T10:22:39.000Z</time>
      </trkpt>
      <trkpt lat="44.75497" lon="5.04572">
        <ele>424</ele>
        <time>2020-02-07T10:22:40.000Z</time>
      </trkpt>
      <trkpt lat="44.75498" lon="5.04572">
        <ele>425</ele>
        <time>2020-02-07T10:22:41.000Z</time>
      </trkpt>
      <trkpt lat="44.75499" lon="5.04571">
        <ele>425</ele>
        <time>2020-02-07T10:22:42.000Z</time>
      </trkpt>
      <trkpt lat="44.755" lon="5.0457">
        <ele>425</ele>
        <time>2020-02-07T10:22:43.000Z</time>
      </trkpt>
      <trkpt lat="44.75501" lon="5.0457">
        <ele>425</ele>
        <time>2020-02-07T10:22:44.000Z</time>
      </trkpt>
      <trkpt lat="44.75502" lon="5.04569">
        <ele>426</ele>
        <time>2020-02-07T10:22:45.000Z</time>
      </trkpt>
      <trkpt lat="44.75503" lon="5.04568">
        <ele>426</ele>
        <time>2020-02-07T10:22:46.000Z</time>
      </trkpt>
      <trkpt lat="44.75503" lon="5.04568">
        <ele>426</ele>
        <time>2020-02-07T10:22:47.000Z</time>
      </trkpt>
      <trkpt lat="44.75504" lon="5.04566">
        <ele>426</ele>
        <time>2020-02-07T10:22:48.000Z</time>
      </trkpt>
      <trkpt lat="44.75505" lon="5.04565">
        <ele>426</ele>
        <time>2020-02-07T10:22:49.000Z</time>
      </trkpt>
      <trkpt lat="44.75506" lon="5.04565">
        <ele>426</ele>
        <time>2020-02-07T10:22:50.000Z</time>
      </trkpt>
      <trkpt lat="44.75507" lon="5.04564">
        <ele>427</ele>
        <time>2020-02-07T10:22:51.000Z</time>
      </trkpt>
      <trkpt lat="44.75509" lon="5.04563">
        <ele>427</ele>
        <time>2020-02-07T10:22:52.000Z</time>
      </trkpt>
      <trkpt lat="44.7551" lon="5.04563">
        <ele>427</ele>
        <time>2020-02-07T10:22:53.000Z</time>
      </trkpt>
      <trkpt lat="44.75511" lon="5.04562">
        <ele>427</ele>
        <time>2020-02-07T10:22:54.000Z</time>
      </trkpt>
      <trkpt lat="44.75512" lon="5.04562">
        <ele>427</ele>
        <time>2020-02-07T10:22:55.000Z</time>
      </trkpt>
      <trkpt lat="44.75513" lon="5.04562">
        <ele>428</ele>
        <time>2020-02-07T10:22:56.000Z</time>
      </trkpt>
      <trkpt lat="44.75514" lon="5.04562">
        <ele>428</ele>
        <time>2020-02-07T10:22:57.000Z</time>
      </trkpt>
      <trkpt lat="44.75515" lon="5.04561">
        <ele>428</ele>
        <time>2020-02-07T10:22:58.000Z</time>
      </trkpt>
      <trkpt lat="44.75516" lon="5.04561">
        <ele>428</ele>
        <time>2020-02-07T10:22:59.000Z</time>
      </trkpt>
      <trkpt lat="44.75517" lon="5.04561">
        <ele>428</ele>
        <time>2020-02-07T10:23:00.000Z</time>
      </trkpt>
      <trkpt lat="44.75518" lon="5.04561">
        <ele>428</ele>
        <time>2020-02-07T10:23:01.000Z</time>
      </trkpt>
      <trkpt lat="44.75519" lon="5.04561">
        <ele>429</ele>
        <time>2020-02-07T10:23:02.000Z</time>
      </trkpt>
      <trkpt lat="44.7552" lon="5.04561">
        <ele>429</ele>
        <time>2020-02-07T10:23:03.000Z</time>
      </trkpt>
      <trkpt lat="44.75521" lon="5.04561">
        <ele>429</ele>
        <time>2020-02-07T10:23:04.000Z</time>
      </trkpt>
      <trkpt lat="44.75522" lon="5.04561">
        <ele>429</ele>
        <time>2020-02-07T10:23:05.000Z</time>
      </trkpt>
      <trkpt lat="44.75523" lon="5.04561">
        <ele>429</ele>
        <time>2020-02-07T10:23:06.000Z</time>
      </trkpt>
      <trkpt lat="44.75524" lon="5.04561">
        <ele>429</ele>
        <time>2020-02-07T10:23:07.000Z</time>
      </trkpt>
      <trkpt lat="44.75524" lon="5.04561">
        <ele>429</ele>
        <time>2020-02-07T10:23:08.000Z</time>
      </trkpt>
      <trkpt lat="44.75525" lon="5.0456">
        <ele>429</ele>
        <time>2020-02-07T10:23:09.000Z</time>
      </trkpt>
      <trkpt lat="44.75526" lon="5.0456">
        <ele>430</ele>
        <time>2020-02-07T10:23:10.000Z</time>
      </trkpt>
      <trkpt lat="44.75527" lon="5.0456">
        <ele>430</ele>
        <time>2020-02-07T10:23:11.000Z</time>
      </trkpt>
      <trkpt lat="44.75528" lon="5.0456">
        <ele>430</ele>
        <time>2020-02-07T10:23:12.000Z</time>
      </trkpt>
      <trkpt lat="44.75529" lon="5.0456">
        <ele>430</ele>
        <time>2020-02-07T10:23:13.000Z</time>
      </trkpt>
      <trkpt lat="44.7553" lon="5.04559">
        <ele>430</ele>
        <time>2020-02-07T10:23:14.000Z</time>
      </trkpt>
      <trkpt lat="44.7553" lon="5.04559">
        <ele>430</ele>
        <time>2020-02-07T10:23:15.000Z</time>
      </trkpt>
      <trkpt lat="44.75531" lon="5.04559">
        <ele>430</ele>
        <time>2020-02-07T10:23:16.000Z</time>
      </trkpt>
      <trkpt lat="44.75532" lon="5.04559">
        <ele>430</ele>
        <time>2020-02-07T10:23:17.000Z</time>
      </trkpt>
      <trkpt lat="44.75533" lon="5.04559">
        <ele>430</ele>
        <time>2020-02-07T10:23:18.000Z</time>
      </trkpt>
      <trkpt lat="44.75534" lon="5.04559">
        <ele>430</ele>
        <time>2020-02-07T10:23:19.000Z</time>
      </trkpt>
      <trkpt lat="44.75535" lon="5.04559">
        <ele>430</ele>
        <time>2020-02-07T10:23:20.000Z</time>
      </trkpt>
      <trkpt lat="44.75536" lon="5.04559">
        <ele>431</ele>
        <time>2020-02-07T10:23:21.000Z</time>
      </trkpt>
      <trkpt lat="44.75536" lon="5.04559">
        <ele>431</ele>
        <time>2020-02-07T10:23:22.000Z</time>
      </trkpt>
      <trkpt lat="44.75537" lon="5.04559">
        <ele>431</ele>
        <time>2020-02-07T10:23:23.000Z</time>
      </trkpt>
      <trkpt lat="44.75538" lon="5.04558">
        <ele>431</ele>
        <time>2020-02-07T10:23:24.000Z</time>
      </trkpt>
      <trkpt lat="44.75538" lon="5.04558">
        <ele>431</ele>
        <time>2020-02-07T10:23:25.000Z</time>
      </trkpt>
      <trkpt lat="44.75539" lon="5.04557">
        <ele>431</ele>
        <time>2020-02-07T10:23:26.000Z</time>
      </trkpt>
      <trkpt lat="44.7554" lon="5.04557">
        <ele>431</ele>
        <time>2020-02-07T10:23:27.000Z</time>
      </trkpt>
      <trkpt lat="44.75541" lon="5.04556">
        <ele>431</ele>
        <time>2020-02-07T10:23:28.000Z</time>
      </trkpt>
      <trkpt lat="44.75541" lon="5.04556">
        <ele>431</ele>
        <time>2020-02-07T10:23:29.000Z</time>
      </trkpt>
      <trkpt lat="44.75542" lon="5.04556">
        <ele>431</ele>
        <time>2020-02-07T10:23:30.000Z</time>
      </trkpt>
      <trkpt lat="44.75543" lon="5.04555">
        <ele>431</ele>
        <time>2020-02-07T10:23:31.000Z</time>
      </trkpt>
      <trkpt lat="44.75543" lon="5.04554">
        <ele>431</ele>
        <time>2020-02-07T10:23:32.000Z</time>
      </trkpt>
      <trkpt lat="44.75544" lon="5.04553">
        <ele>431</ele>
        <time>2020-02-07T10:23:33.000Z</time>
      </trkpt>
      <trkpt lat="44.75545" lon="5.04553">
        <ele>431</ele>
        <time>2020-02-07T10:23:34.000Z</time>
      </trkpt>
      <trkpt lat="44.75546" lon="5.04552">
        <ele>431</ele>
        <time>2020-02-07T10:23:35.000Z</time>
      </trkpt>
      <trkpt lat="44.75546" lon="5.04552">
        <ele>431</ele>
        <time>2020-02-07T10:23:36.000Z</time>
      </trkpt>
      <trkpt lat="44.75547" lon="5.04551">
        <ele>431</ele>
        <time>2020-02-07T10:23:37.000Z</time>
      </trkpt>
      <trkpt lat="44.75547" lon="5.04551">
        <ele>431</ele>
        <time>2020-02-07T10:23:38.000Z</time>
      </trkpt>
      <trkpt lat="44.75548" lon="5.0455">
        <ele>431</ele>
        <time>2020-02-07T10:23:39.000Z</time>
      </trkpt>
      <trkpt lat="44.75549" lon="5.0455">
        <ele>431</ele>
        <time>2020-02-07T10:23:40.000Z</time>
      </trkpt>
      <trkpt lat="44.75549" lon="5.04549">
        <ele>431</ele>
        <time>2020-02-07T10:23:41.000Z</time>
      </trkpt>
      <trkpt lat="44.7555" lon="5.04549">
        <ele>431</ele>
        <time>2020-02-07T10:23:42.000Z</time>
      </trkpt>
      <trkpt lat="44.75551" lon="5.04548">
        <ele>431</ele>
        <time>2020-02-07T10:23:43.000Z</time>
      </trkpt>
      <trkpt lat="44.75552" lon="5.04547">
        <ele>432</ele>
        <time>2020-02-07T10:23:44.000Z</time>
      </trkpt>
      <trkpt lat="44.75553" lon="5.04547">
        <ele>432</ele>
        <time>2020-02-07T10:23:45.000Z</time>
      </trkpt>
      <trkpt lat="44.75553" lon="5.04547">
        <ele>432</ele>
        <time>2020-02-07T10:23:46.000Z</time>
      </trkpt>
      <trkpt lat="44.75554" lon="5.04546">
        <ele>432</ele>
        <time>2020-02-07T10:23:47.000Z</time>
      </trkpt>
      <trkpt lat="44.75555" lon="5.04545">
        <ele>432</ele>
        <time>2020-02-07T10:23:48.000Z</time>
      </trkpt>
      <trkpt lat="44.75555" lon="5.04545">
        <ele>432</ele>
        <time>2020-02-07T10:23:49.000Z</time>
      </trkpt>
      <trkpt lat="44.75556" lon="5.04545">
        <ele>433</ele>
        <time>2020-02-07T10:23:50.000Z</time>
      </trkpt>
      <trkpt lat="44.75557" lon="5.04544">
        <ele>433</ele>
        <time>2020-02-07T10:23:51.000Z</time>
      </trkpt>
      <trkpt lat="44.75558" lon="5.04543">
        <ele>433</ele>
        <time>2020-02-07T10:23:52.000Z</time>
      </trkpt>
      <trkpt lat="44.75559" lon="5.04543">
        <ele>433</ele>
        <time>2020-02-07T10:23:53.000Z</time>
      </trkpt>
      <trkpt lat="44.7556" lon="5.04542">
        <ele>433</ele>
        <time>2020-02-07T10:23:54.000Z</time>
      </trkpt>
      <trkpt lat="44.75561" lon="5.04542">
        <ele>434</ele>
        <time>2020-02-07T10:23:55.000Z</time>
      </trkpt>
      <trkpt lat="44.75562" lon="5.04542">
        <ele>434</ele>
        <time>2020-02-07T10:23:56.000Z</time>
      </trkpt>
      <trkpt lat="44.75562" lon="5.04542">
        <ele>434</ele>
        <time>2020-02-07T10:23:57.000Z</time>
      </trkpt>
      <trkpt lat="44.75563" lon="5.04542">
        <ele>434</ele>
        <time>2020-02-07T10:23:58.000Z</time>
      </trkpt>
      <trkpt lat="44.75564" lon="5.04542">
        <ele>434</ele>
        <time>2020-02-07T10:23:59.000Z</time>
      </trkpt>
      <trkpt lat="44.75565" lon="5.04542">
        <ele>435</ele>
        <time>2020-02-07T10:24:00.000Z</time>
      </trkpt>
      <trkpt lat="44.75566" lon="5.04542">
        <ele>435</ele>
        <time>2020-02-07T10:24:01.000Z</time>
      </trkpt>
      <trkpt lat="44.75567" lon="5.04542">
        <ele>435</ele>
        <time>2020-02-07T10:24:02.000Z</time>
      </trkpt>
      <trkpt lat="44.75568" lon="5.04542">
        <ele>435</ele>
        <time>2020-02-07T10:24:03.000Z</time>
      </trkpt>
      <trkpt lat="44.75569" lon="5.04542">
        <ele>435</ele>
        <time>2020-02-07T10:24:04.000Z</time>
      </trkpt>
      <trkpt lat="44.7557" lon="5.04543">
        <ele>435</ele>
        <time>2020-02-07T10:24:05.000Z</time>
      </trkpt>
      <trkpt lat="44.7557" lon="5.04543">
        <ele>435</ele>
        <time>2020-02-07T10:24:06.000Z</time>
      </trkpt>
      <trkpt lat="44.75571" lon="5.04543">
        <ele>435</ele>
        <time>2020-02-07T10:24:07.000Z</time>
      </trkpt>
      <trkpt lat="44.75572" lon="5.04543">
        <ele>435</ele>
        <time>2020-02-07T10:24:08.000Z</time>
      </trkpt>
      <trkpt lat="44.75573" lon="5.04543">
        <ele>435</ele>
        <time>2020-02-07T10:24:09.000Z</time>
      </trkpt>
      <trkpt lat="44.75574" lon="5.04543">
        <ele>435</ele>
        <time>2020-02-07T10:24:10.000Z</time>
      </trkpt>
      <trkpt lat="44.75575" lon="5.04544">
        <ele>435</ele>
        <time>2020-02-07T10:24:11.000Z</time>
      </trkpt>
      <trkpt lat="44.75576" lon="5.04544">
        <ele>435</ele>
        <time>2020-02-07T10:24:12.000Z</time>
      </trkpt>
      <trkpt lat="44.75577" lon="5.04545">
        <ele>435</ele>
        <time>2020-02-07T10:24:13.000Z</time>
      </trkpt>
      <trkpt lat="44.75578" lon="5.04545">
        <ele>435</ele>
        <time>2020-02-07T10:24:14.000Z</time>
      </trkpt>
      <trkpt lat="44.75579" lon="5.04546">
        <ele>436</ele>
        <time>2020-02-07T10:24:15.000Z</time>
      </trkpt>
      <trkpt lat="44.7558" lon="5.04546">
        <ele>436</ele>
        <time>2020-02-07T10:24:16.000Z</time>
      </trkpt>
      <trkpt lat="44.75581" lon="5.04547">
        <ele>436</ele>
        <time>2020-02-07T10:24:17.000Z</time>
      </trkpt>
      <trkpt lat="44.75582" lon="5.04547">
        <ele>436</ele>
        <time>2020-02-07T10:24:18.000Z</time>
      </trkpt>
      <trkpt lat="44.75584" lon="5.04548">
        <ele>436</ele>
        <time>2020-02-07T10:24:19.000Z</time>
      </trkpt>
      <trkpt lat="44.75584" lon="5.04548">
        <ele>436</ele>
        <time>2020-02-07T10:24:20.000Z</time>
      </trkpt>
      <trkpt lat="44.75585" lon="5.04548">
        <ele>436</ele>
        <time>2020-02-07T10:24:21.000Z</time>
      </trkpt>
      <trkpt lat="44.75586" lon="5.04548">
        <ele>436</ele>
        <time>2020-02-07T10:24:22.000Z</time>
      </trkpt>
      <trkpt lat="44.75587" lon="5.04549">
        <ele>436</ele>
        <time>2020-02-07T10:24:23.000Z</time>
      </trkpt>
      <trkpt lat="44.75588" lon="5.04549">
        <ele>437</ele>
        <time>2020-02-07T10:24:24.000Z</time>
      </trkpt>
      <trkpt lat="44.75589" lon="5.04549">
        <ele>437</ele>
        <time>2020-02-07T10:24:25.000Z</time>
      </trkpt>
      <trkpt lat="44.75591" lon="5.0455">
        <ele>437</ele>
        <time>2020-02-07T10:24:26.000Z</time>
      </trkpt>
      <trkpt lat="44.75591" lon="5.0455">
        <ele>437</ele>
        <time>2020-02-07T10:24:27.000Z</time>
      </trkpt>
      <trkpt lat="44.75593" lon="5.0455">
        <ele>437</ele>
        <time>2020-02-07T10:24:28.000Z</time>
      </trkpt>
      <trkpt lat="44.75594" lon="5.0455">
        <ele>437</ele>
        <time>2020-02-07T10:24:29.000Z</time>
      </trkpt>
      <trkpt lat="44.75595" lon="5.04551">
        <ele>437</ele>
        <time>2020-02-07T10:24:30.000Z</time>
      </trkpt>
      <trkpt lat="44.75596" lon="5.04551">
        <ele>438</ele>
        <time>2020-02-07T10:24:31.000Z</time>
      </trkpt>
      <trkpt lat="44.75596" lon="5.04552">
        <ele>438</ele>
        <time>2020-02-07T10:24:32.000Z</time>
      </trkpt>
      <trkpt lat="44.75597" lon="5.04552">
        <ele>438</ele>
        <time>2020-02-07T10:24:33.000Z</time>
      </trkpt>
      <trkpt lat="44.75598" lon="5.04552">
        <ele>438</ele>
        <time>2020-02-07T10:24:34.000Z</time>
      </trkpt>
      <trkpt lat="44.75599" lon="5.04553">
        <ele>438</ele>
        <time>2020-02-07T10:24:35.000Z</time>
      </trkpt>
      <trkpt lat="44.756" lon="5.04553">
        <ele>438</ele>
        <time>2020-02-07T10:24:36.000Z</time>
      </trkpt>
      <trkpt lat="44.75601" lon="5.04553">
        <ele>439</ele>
        <time>2020-02-07T10:24:37.000Z</time>
      </trkpt>
      <trkpt lat="44.75602" lon="5.04554">
        <ele>439</ele>
        <time>2020-02-07T10:24:38.000Z</time>
      </trkpt>
      <trkpt lat="44.75603" lon="5.04554">
        <ele>439</ele>
        <time>2020-02-07T10:24:39.000Z</time>
      </trkpt>
      <trkpt lat="44.75604" lon="5.04555">
        <ele>439</ele>
        <time>2020-02-07T10:24:40.000Z</time>
      </trkpt>
      <trkpt lat="44.75605" lon="5.04555">
        <ele>439</ele>
        <time>2020-02-07T10:24:41.000Z</time>
      </trkpt>
      <trkpt lat="44.75605" lon="5.04555">
        <ele>440</ele>
        <time>2020-02-07T10:24:42.000Z</time>
      </trkpt>
      <trkpt lat="44.75606" lon="5.04556">
        <ele>440</ele>
        <time>2020-02-07T10:24:43.000Z</time>
      </trkpt>
      <trkpt lat="44.75607" lon="5.04556">
        <ele>440</ele>
        <time>2020-02-07T10:24:44.000Z</time>
      </trkpt>
      <trkpt lat="44.75608" lon="5.04557">
        <ele>440</ele>
        <time>2020-02-07T10:24:45.000Z</time>
      </trkpt>
      <trkpt lat="44.75609" lon="5.04557">
        <ele>440</ele>
        <time>2020-02-07T10:24:46.000Z</time>
      </trkpt>
      <trkpt lat="44.7561" lon="5.04557">
        <ele>440</ele>
        <time>2020-02-07T10:24:47.000Z</time>
      </trkpt>
      <trkpt lat="44.7561" lon="5.04558">
        <ele>440</ele>
        <time>2020-02-07T10:24:48.000Z</time>
      </trkpt>
      <trkpt lat="44.75611" lon="5.04558">
        <ele>440</ele>
        <time>2020-02-07T10:24:49.000Z</time>
      </trkpt>
      <trkpt lat="44.75612" lon="5.04558">
        <ele>440</ele>
        <time>2020-02-07T10:24:50.000Z</time>
      </trkpt>
      <trkpt lat="44.75613" lon="5.04559">
        <ele>441</ele>
        <time>2020-02-07T10:24:51.000Z</time>
      </trkpt>
      <trkpt lat="44.75614" lon="5.04559">
        <ele>441</ele>
        <time>2020-02-07T10:24:52.000Z</time>
      </trkpt>
      <trkpt lat="44.75614" lon="5.04559">
        <ele>441</ele>
        <time>2020-02-07T10:24:53.000Z</time>
      </trkpt>
      <trkpt lat="44.75615" lon="5.04559">
        <ele>441</ele>
        <time>2020-02-07T10:24:54.000Z</time>
      </trkpt>
      <trkpt lat="44.75616" lon="5.04559">
        <ele>441</ele>
        <time>2020-02-07T10:24:55.000Z</time>
      </trkpt>
      <trkpt lat="44.75617" lon="5.04559">
        <ele>441</ele>
        <time>2020-02-07T10:24:56.000Z</time>
      </trkpt>
      <trkpt lat="44.75617" lon="5.04559">
        <ele>441</ele>
        <time>2020-02-07T10:24:57.000Z</time>
      </trkpt>
      <trkpt lat="44.75618" lon="5.0456">
        <ele>442</ele>
        <time>2020-02-07T10:24:58.000Z</time>
      </trkpt>
      <trkpt lat="44.75619" lon="5.0456">
        <ele>442</ele>
        <time>2020-02-07T10:24:59.000Z</time>
      </trkpt>
      <trkpt lat="44.7562" lon="5.0456">
        <ele>442</ele>
        <time>2020-02-07T10:25:00.000Z</time>
      </trkpt>
      <trkpt lat="44.75621" lon="5.0456">
        <ele>442</ele>
        <time>2020-02-07T10:25:01.000Z</time>
      </trkpt>
      <trkpt lat="44.75622" lon="5.0456">
        <ele>442</ele>
        <time>2020-02-07T10:25:02.000Z</time>
      </trkpt>
      <trkpt lat="44.75623" lon="5.0456">
        <ele>442</ele>
        <time>2020-02-07T10:25:03.000Z</time>
      </trkpt>
      <trkpt lat="44.75623" lon="5.04561">
        <ele>442</ele>
        <time>2020-02-07T10:25:04.000Z</time>
      </trkpt>
      <trkpt lat="44.75624" lon="5.04561">
        <ele>442</ele>
        <time>2020-02-07T10:25:05.000Z</time>
      </trkpt>
      <trkpt lat="44.75625" lon="5.04561">
        <ele>443</ele>
        <time>2020-02-07T10:25:06.000Z</time>
      </trkpt>
      <trkpt lat="44.75626" lon="5.04562">
        <ele>443</ele>
        <time>2020-02-07T10:25:07.000Z</time>
      </trkpt>
      <trkpt lat="44.75627" lon="5.04562">
        <ele>443</ele>
        <time>2020-02-07T10:25:08.000Z</time>
      </trkpt>
      <trkpt lat="44.75628" lon="5.04562">
        <ele>443</ele>
        <time>2020-02-07T10:25:09.000Z</time>
      </trkpt>
      <trkpt lat="44.75629" lon="5.04562">
        <ele>443</ele>
        <time>2020-02-07T10:25:10.000Z</time>
      </trkpt>
      <trkpt lat="44.75629" lon="5.04563">
        <ele>443</ele>
        <time>2020-02-07T10:25:11.000Z</time>
      </trkpt>
      <trkpt lat="44.7563" lon="5.04563">
        <ele>444</ele>
        <time>2020-02-07T10:25:12.000Z</time>
      </trkpt>
      <trkpt lat="44.75631" lon="5.04562">
        <ele>444</ele>
        <time>2020-02-07T10:25:13.000Z</time>
      </trkpt>
      <trkpt lat="44.75632" lon="5.04562">
        <ele>444</ele>
        <time>2020-02-07T10:25:14.000Z</time>
      </trkpt>
      <trkpt lat="44.75633" lon="5.04562">
        <ele>444</ele>
        <time>2020-02-07T10:25:15.000Z</time>
      </trkpt>
      <trkpt lat="44.75634" lon="5.04563">
        <ele>444</ele>
        <time>2020-02-07T10:25:16.000Z</time>
      </trkpt>
      <trkpt lat="44.75634" lon="5.04563">
        <ele>444</ele>
        <time>2020-02-07T10:25:17.000Z</time>
      </trkpt>
      <trkpt lat="44.75635" lon="5.04563">
        <ele>445</ele>
        <time>2020-02-07T10:25:18.000Z</time>
      </trkpt>
      <trkpt lat="44.75636" lon="5.04563">
        <ele>445</ele>
        <time>2020-02-07T10:25:19.000Z</time>
      </trkpt>
      <trkpt lat="44.75637" lon="5.04563">
        <ele>445</ele>
        <time>2020-02-07T10:25:20.000Z</time>
      </trkpt>
      <trkpt lat="44.75638" lon="5.04563">
        <ele>445</ele>
        <time>2020-02-07T10:25:21.000Z</time>
      </trkpt>
      <trkpt lat="44.75638" lon="5.04563">
        <ele>445</ele>
        <time>2020-02-07T10:25:22.000Z</time>
      </trkpt>
      <trkpt lat="44.75639" lon="5.04563">
        <ele>445</ele>
        <time>2020-02-07T10:25:23.000Z</time>
      </trkpt>
      <trkpt lat="44.7564" lon="5.04563">
        <ele>446</ele>
        <time>2020-02-07T10:25:24.000Z</time>
      </trkpt>
      <trkpt lat="44.75641" lon="5.04563">
        <ele>446</ele>
        <time>2020-02-07T10:25:25.000Z</time>
      </trkpt>
      <trkpt lat="44.75642" lon="5.04563">
        <ele>446</ele>
        <time>2020-02-07T10:25:26.000Z</time>
      </trkpt>
      <trkpt lat="44.75643" lon="5.04563">
        <ele>446</ele>
        <time>2020-02-07T10:25:27.000Z</time>
      </trkpt>
      <trkpt lat="44.75643" lon="5.04563">
        <ele>446</ele>
        <time>2020-02-07T10:25:28.000Z</time>
      </trkpt>
      <trkpt lat="44.75644" lon="5.04563">
        <ele>446</ele>
        <time>2020-02-07T10:25:29.000Z</time>
      </trkpt>
      <trkpt lat="44.75645" lon="5.04563">
        <ele>447</ele>
        <time>2020-02-07T10:25:30.000Z</time>
      </trkpt>
      <trkpt lat="44.75646" lon="5.04563">
        <ele>447</ele>
        <time>2020-02-07T10:25:31.000Z</time>
      </trkpt>
      <trkpt lat="44.75647" lon="5.04563">
        <ele>447</ele>
        <time>2020-02-07T10:25:32.000Z</time>
      </trkpt>
      <trkpt lat="44.75647" lon="5.04564">
        <ele>447</ele>
        <time>2020-02-07T10:25:33.000Z</time>
      </trkpt>
      <trkpt lat="44.75648" lon="5.04564">
        <ele>447</ele>
        <time>2020-02-07T10:25:34.000Z</time>
      </trkpt>
      <trkpt lat="44.75649" lon="5.04564">
        <ele>447</ele>
        <time>2020-02-07T10:25:35.000Z</time>
      </trkpt>
      <trkpt lat="44.7565" lon="5.04564">
        <ele>447</ele>
        <time>2020-02-07T10:25:36.000Z</time>
      </trkpt>
      <trkpt lat="44.75651" lon="5.04564">
        <ele>447</ele>
        <time>2020-02-07T10:25:37.000Z</time>
      </trkpt>
      <trkpt lat="44.75652" lon="5.04564">
        <ele>447</ele>
        <time>2020-02-07T10:25:38.000Z</time>
      </trkpt>
      <trkpt lat="44.75653" lon="5.04564">
        <ele>448</ele>
        <time>2020-02-07T10:25:39.000Z</time>
      </trkpt>
      <trkpt lat="44.75653" lon="5.04564">
        <ele>448</ele>
        <time>2020-02-07T10:25:40.000Z</time>
      </trkpt>
      <trkpt lat="44.75654" lon="5.04564">
        <ele>448</ele>
        <time>2020-02-07T10:25:41.000Z</time>
      </trkpt>
      <trkpt lat="44.75655" lon="5.04564">
        <ele>448</ele>
        <time>2020-02-07T10:25:42.000Z</time>
      </trkpt>
      <trkpt lat="44.75657" lon="5.04565">
        <ele>448</ele>
        <time>2020-02-07T10:25:43.000Z</time>
      </trkpt>
      <trkpt lat="44.75657" lon="5.04566">
        <ele>449</ele>
        <time>2020-02-07T10:25:44.000Z</time>
      </trkpt>
      <trkpt lat="44.75658" lon="5.04567">
        <ele>449</ele>
        <time>2020-02-07T10:25:45.000Z</time>
      </trkpt>
      <trkpt lat="44.75659" lon="5.04567">
        <ele>449</ele>
        <time>2020-02-07T10:25:46.000Z</time>
      </trkpt>
      <trkpt lat="44.7566" lon="5.04568">
        <ele>449</ele>
        <time>2020-02-07T10:25:47.000Z</time>
      </trkpt>
      <trkpt lat="44.75661" lon="5.04568">
        <ele>449</ele>
        <time>2020-02-07T10:25:48.000Z</time>
      </trkpt>
      <trkpt lat="44.75662" lon="5.04569">
        <ele>449</ele>
        <time>2020-02-07T10:25:49.000Z</time>
      </trkpt>
      <trkpt lat="44.75663" lon="5.04569">
        <ele>449</ele>
        <time>2020-02-07T10:25:50.000Z</time>
      </trkpt>
      <trkpt lat="44.75664" lon="5.0457">
        <ele>450</ele>
        <time>2020-02-07T10:25:51.000Z</time>
      </trkpt>
      <trkpt lat="44.75665" lon="5.04571">
        <ele>450</ele>
        <time>2020-02-07T10:25:52.000Z</time>
      </trkpt>
      <trkpt lat="44.75666" lon="5.04571">
        <ele>450</ele>
        <time>2020-02-07T10:25:53.000Z</time>
      </trkpt>
      <trkpt lat="44.75667" lon="5.04572">
        <ele>450</ele>
        <time>2020-02-07T10:25:54.000Z</time>
      </trkpt>
      <trkpt lat="44.75668" lon="5.04573">
        <ele>450</ele>
        <time>2020-02-07T10:25:55.000Z</time>
      </trkpt>
      <trkpt lat="44.75668" lon="5.04574">
        <ele>450</ele>
        <time>2020-02-07T10:25:56.000Z</time>
      </trkpt>
      <trkpt lat="44.75669" lon="5.04574">
        <ele>450</ele>
        <time>2020-02-07T10:25:57.000Z</time>
      </trkpt>
      <trkpt lat="44.7567" lon="5.04575">
        <ele>450</ele>
        <time>2020-02-07T10:25:58.000Z</time>
      </trkpt>
      <trkpt lat="44.75671" lon="5.04575">
        <ele>450</ele>
        <time>2020-02-07T10:25:59.000Z</time>
      </trkpt>
      <trkpt lat="44.75672" lon="5.04576">
        <ele>450</ele>
        <time>2020-02-07T10:26:00.000Z</time>
      </trkpt>
      <trkpt lat="44.75673" lon="5.04577">
        <ele>450</ele>
        <time>2020-02-07T10:26:01.000Z</time>
      </trkpt>
      <trkpt lat="44.75674" lon="5.04578">
        <ele>450</ele>
        <time>2020-02-07T10:26:02.000Z</time>
      </trkpt>
      <trkpt lat="44.75675" lon="5.04579">
        <ele>450</ele>
        <time>2020-02-07T10:26:03.000Z</time>
      </trkpt>
      <trkpt lat="44.75676" lon="5.0458">
        <ele>450</ele>
        <time>2020-02-07T10:26:04.000Z</time>
      </trkpt>
      <trkpt lat="44.75676" lon="5.04581">
        <ele>450</ele>
        <time>2020-02-07T10:26:05.000Z</time>
      </trkpt>
      <trkpt lat="44.75677" lon="5.04582">
        <ele>450</ele>
        <time>2020-02-07T10:26:06.000Z</time>
      </trkpt>
      <trkpt lat="44.75678" lon="5.04583">
        <ele>450</ele>
        <time>2020-02-07T10:26:07.000Z</time>
      </trkpt>
      <trkpt lat="44.75679" lon="5.04584">
        <ele>450</ele>
        <time>2020-02-07T10:26:08.000Z</time>
      </trkpt>
      <trkpt lat="44.7568" lon="5.04586">
        <ele>450</ele>
        <time>2020-02-07T10:26:09.000Z</time>
      </trkpt>
      <trkpt lat="44.75681" lon="5.04586">
        <ele>450</ele>
        <time>2020-02-07T10:26:10.000Z</time>
      </trkpt>
      <trkpt lat="44.75682" lon="5.04587">
        <ele>450</ele>
        <time>2020-02-07T10:26:11.000Z</time>
      </trkpt>
      <trkpt lat="44.75683" lon="5.04588">
        <ele>450</ele>
        <time>2020-02-07T10:26:12.000Z</time>
      </trkpt>
      <trkpt lat="44.75684" lon="5.04589">
        <ele>450</ele>
        <time>2020-02-07T10:26:13.000Z</time>
      </trkpt>
      <trkpt lat="44.75684" lon="5.0459">
        <ele>450</ele>
        <time>2020-02-07T10:26:14.000Z</time>
      </trkpt>
      <trkpt lat="44.75685" lon="5.04591">
        <ele>451</ele>
        <time>2020-02-07T10:26:15.000Z</time>
      </trkpt>
      <trkpt lat="44.75687" lon="5.04591">
        <ele>451</ele>
        <time>2020-02-07T10:26:16.000Z</time>
      </trkpt>
      <trkpt lat="44.75688" lon="5.04592">
        <ele>451</ele>
        <time>2020-02-07T10:26:17.000Z</time>
      </trkpt>
      <trkpt lat="44.75688" lon="5.04592">
        <ele>451</ele>
        <time>2020-02-07T10:26:18.000Z</time>
      </trkpt>
      <trkpt lat="44.75689" lon="5.04593">
        <ele>451</ele>
        <time>2020-02-07T10:26:19.000Z</time>
      </trkpt>
      <trkpt lat="44.7569" lon="5.04593">
        <ele>451</ele>
        <time>2020-02-07T10:26:20.000Z</time>
      </trkpt>
      <trkpt lat="44.75691" lon="5.04593">
        <ele>451</ele>
        <time>2020-02-07T10:26:21.000Z</time>
      </trkpt>
      <trkpt lat="44.75692" lon="5.04593">
        <ele>451</ele>
        <time>2020-02-07T10:26:22.000Z</time>
      </trkpt>
      <trkpt lat="44.75693" lon="5.04593">
        <ele>451</ele>
        <time>2020-02-07T10:26:23.000Z</time>
      </trkpt>
      <trkpt lat="44.75694" lon="5.04593">
        <ele>451</ele>
        <time>2020-02-07T10:26:24.000Z</time>
      </trkpt>
      <trkpt lat="44.75695" lon="5.04593">
        <ele>452</ele>
        <time>2020-02-07T10:26:25.000Z</time>
      </trkpt>
      <trkpt lat="44.75696" lon="5.04593">
        <ele>452</ele>
        <time>2020-02-07T10:26:26.000Z</time>
      </trkpt>
      <trkpt lat="44.75697" lon="5.04594">
        <ele>452</ele>
        <time>2020-02-07T10:26:27.000Z</time>
      </trkpt>
      <trkpt lat="44.75698" lon="5.04594">
        <ele>452</ele>
        <time>2020-02-07T10:26:28.000Z</time>
      </trkpt>
      <trkpt lat="44.75699" lon="5.04595">
        <ele>452</ele>
        <time>2020-02-07T10:26:29.000Z</time>
      </trkpt>
      <trkpt lat="44.75699" lon="5.04596">
        <ele>452</ele>
        <time>2020-02-07T10:26:30.000Z</time>
      </trkpt>
      <trkpt lat="44.757" lon="5.04596">
        <ele>452</ele>
        <time>2020-02-07T10:26:31.000Z</time>
      </trkpt>
      <trkpt lat="44.75701" lon="5.04597">
        <ele>452</ele>
        <time>2020-02-07T10:26:32.000Z</time>
      </trkpt>
      <trkpt lat="44.75702" lon="5.04597">
        <ele>453</ele>
        <time>2020-02-07T10:26:33.000Z</time>
      </trkpt>
      <trkpt lat="44.75703" lon="5.04598">
        <ele>453</ele>
        <time>2020-02-07T10:26:34.000Z</time>
      </trkpt>
      <trkpt lat="44.75704" lon="5.04599">
        <ele>453</ele>
        <time>2020-02-07T10:26:35.000Z</time>
      </trkpt>
      <trkpt lat="44.75705" lon="5.04599">
        <ele>453</ele>
        <time>2020-02-07T10:26:36.000Z</time>
      </trkpt>
      <trkpt lat="44.75706" lon="5.046">
        <ele>453</ele>
        <time>2020-02-07T10:26:37.000Z</time>
      </trkpt>
      <trkpt lat="44.75707" lon="5.046">
        <ele>454</ele>
        <time>2020-02-07T10:26:38.000Z</time>
      </trkpt>
      <trkpt lat="44.75708" lon="5.04601">
        <ele>454</ele>
        <time>2020-02-07T10:26:39.000Z</time>
      </trkpt>
      <trkpt lat="44.75708" lon="5.04601">
        <ele>454</ele>
        <time>2020-02-07T10:26:40.000Z</time>
      </trkpt>
      <trkpt lat="44.75709" lon="5.04602">
        <ele>454</ele>
        <time>2020-02-07T10:26:41.000Z</time>
      </trkpt>
      <trkpt lat="44.7571" lon="5.04602">
        <ele>455</ele>
        <time>2020-02-07T10:26:42.000Z</time>
      </trkpt>
      <trkpt lat="44.75711" lon="5.04603">
        <ele>455</ele>
        <time>2020-02-07T10:26:43.000Z</time>
      </trkpt>
      <trkpt lat="44.75712" lon="5.04603">
        <ele>455</ele>
        <time>2020-02-07T10:26:44.000Z</time>
      </trkpt>
      <trkpt lat="44.75713" lon="5.04604">
        <ele>455</ele>
        <time>2020-02-07T10:26:45.000Z</time>
      </trkpt>
      <trkpt lat="44.75714" lon="5.04605">
        <ele>455</ele>
        <time>2020-02-07T10:26:46.000Z</time>
      </trkpt>
      <trkpt lat="44.75715" lon="5.04605">
        <ele>455</ele>
        <time>2020-02-07T10:26:47.000Z</time>
      </trkpt>
      <trkpt lat="44.75716" lon="5.04606">
        <ele>456</ele>
        <time>2020-02-07T10:26:48.000Z</time>
      </trkpt>
      <trkpt lat="44.75717" lon="5.04607">
        <ele>456</ele>
        <time>2020-02-07T10:26:49.000Z</time>
      </trkpt>
      <trkpt lat="44.75718" lon="5.04608">
        <ele>456</ele>
        <time>2020-02-07T10:26:50.000Z</time>
      </trkpt>
      <trkpt lat="44.75719" lon="5.04609">
        <ele>456</ele>
        <time>2020-02-07T10:26:51.000Z</time>
      </trkpt>
      <trkpt lat="44.75719" lon="5.0461">
        <ele>456</ele>
        <time>2020-02-07T10:26:52.000Z</time>
      </trkpt>
      <trkpt lat="44.7572" lon="5.04611">
        <ele>456</ele>
        <time>2020-02-07T10:26:53.000Z</time>
      </trkpt>
      <trkpt lat="44.75721" lon="5.04612">
        <ele>456</ele>
        <time>2020-02-07T10:26:54.000Z</time>
      </trkpt>
      <trkpt lat="44.75722" lon="5.04613">
        <ele>456</ele>
        <time>2020-02-07T10:26:55.000Z</time>
      </trkpt>
      <trkpt lat="44.75723" lon="5.04614">
        <ele>456</ele>
        <time>2020-02-07T10:26:56.000Z</time>
      </trkpt>
      <trkpt lat="44.75723" lon="5.04615">
        <ele>456</ele>
        <time>2020-02-07T10:26:57.000Z</time>
      </trkpt>
      <trkpt lat="44.75724" lon="5.04616">
        <ele>456</ele>
        <time>2020-02-07T10:26:58.000Z</time>
      </trkpt>
      <trkpt lat="44.75725" lon="5.04617">
        <ele>457</ele>
        <time>2020-02-07T10:26:59.000Z</time>
      </trkpt>
      <trkpt lat="44.75726" lon="5.04618">
        <ele>457</ele>
        <time>2020-02-07T10:27:00.000Z</time>
      </trkpt>
      <trkpt lat="44.75727" lon="5.04618">
        <ele>457</ele>
        <time>2020-02-07T10:27:01.000Z</time>
      </trkpt>
      <trkpt lat="44.75727" lon="5.0462">
        <ele>457</ele>
        <time>2020-02-07T10:27:02.000Z</time>
      </trkpt>
      <trkpt lat="44.75728" lon="5.04621">
        <ele>457</ele>
        <time>2020-02-07T10:27:03.000Z</time>
      </trkpt>
      <trkpt lat="44.75729" lon="5.04622">
        <ele>457</ele>
        <time>2020-02-07T10:27:04.000Z</time>
      </trkpt>
      <trkpt lat="44.75729" lon="5.04623">
        <ele>457</ele>
        <time>2020-02-07T10:27:05.000Z</time>
      </trkpt>
      <trkpt lat="44.7573" lon="5.04624">
        <ele>457</ele>
        <time>2020-02-07T10:27:06.000Z</time>
      </trkpt>
      <trkpt lat="44.75731" lon="5.04625">
        <ele>457</ele>
        <time>2020-02-07T10:27:07.000Z</time>
      </trkpt>
      <trkpt lat="44.75731" lon="5.04626">
        <ele>457</ele>
        <time>2020-02-07T10:27:08.000Z</time>
      </trkpt>
      <trkpt lat="44.75732" lon="5.04627">
        <ele>457</ele>
        <time>2020-02-07T10:27:09.000Z</time>
      </trkpt>
      <trkpt lat="44.75733" lon="5.04628">
        <ele>458</ele>
        <time>2020-02-07T10:27:10.000Z</time>
      </trkpt>
      <trkpt lat="44.75733" lon="5.04629">
        <ele>458</ele>
        <time>2020-02-07T10:27:11.000Z</time>
      </trkpt>
      <trkpt lat="44.75734" lon="5.04631">
        <ele>458</ele>
        <time>2020-02-07T10:27:12.000Z</time>
      </trkpt>
      <trkpt lat="44.75735" lon="5.04632">
        <ele>458</ele>
        <time>2020-02-07T10:27:13.000Z</time>
      </trkpt>
      <trkpt lat="44.75736" lon="5.04633">
        <ele>458</ele>
        <time>2020-02-07T10:27:14.000Z</time>
      </trkpt>
      <trkpt lat="44.75736" lon="5.04634">
        <ele>458</ele>
        <time>2020-02-07T10:27:15.000Z</time>
      </trkpt>
      <trkpt lat="44.75737" lon="5.04635">
        <ele>458</ele>
        <time>2020-02-07T10:27:16.000Z</time>
      </trkpt>
      <trkpt lat="44.75738" lon="5.04637">
        <ele>458</ele>
        <time>2020-02-07T10:27:17.000Z</time>
      </trkpt>
      <trkpt lat="44.75739" lon="5.04638">
        <ele>458</ele>
        <time>2020-02-07T10:27:18.000Z</time>
      </trkpt>
      <trkpt lat="44.7574" lon="5.0464">
        <ele>458</ele>
        <time>2020-02-07T10:27:19.000Z</time>
      </trkpt>
      <trkpt lat="44.75741" lon="5.04641">
        <ele>459</ele>
        <time>2020-02-07T10:27:20.000Z</time>
      </trkpt>
      <trkpt lat="44.75741" lon="5.04642">
        <ele>459</ele>
        <time>2020-02-07T10:27:21.000Z</time>
      </trkpt>
      <trkpt lat="44.75742" lon="5.04643">
        <ele>459</ele>
        <time>2020-02-07T10:27:22.000Z</time>
      </trkpt>
      <trkpt lat="44.75743" lon="5.04644">
        <ele>459</ele>
        <time>2020-02-07T10:27:23.000Z</time>
      </trkpt>
      <trkpt lat="44.75743" lon="5.04645">
        <ele>459</ele>
        <time>2020-02-07T10:27:24.000Z</time>
      </trkpt>
      <trkpt lat="44.75744" lon="5.04646">
        <ele>459</ele>
        <time>2020-02-07T10:27:25.000Z</time>
      </trkpt>
      <trkpt lat="44.75745" lon="5.04647">
        <ele>459</ele>
        <time>2020-02-07T10:27:26.000Z</time>
      </trkpt>
      <trkpt lat="44.75746" lon="5.04648">
        <ele>459</ele>
        <time>2020-02-07T10:27:27.000Z</time>
      </trkpt>
      <trkpt lat="44.75746" lon="5.0465">
        <ele>460</ele>
        <time>2020-02-07T10:27:28.000Z</time>
      </trkpt>
      <trkpt lat="44.75747" lon="5.0465">
        <ele>460</ele>
        <time>2020-02-07T10:27:29.000Z</time>
      </trkpt>
      <trkpt lat="44.75748" lon="5.04651">
        <ele>460</ele>
        <time>2020-02-07T10:27:30.000Z</time>
      </trkpt>
      <trkpt lat="44.75749" lon="5.04652">
        <ele>460</ele>
        <time>2020-02-07T10:27:31.000Z</time>
      </trkpt>
      <trkpt lat="44.7575" lon="5.04653">
        <ele>460</ele>
        <time>2020-02-07T10:27:32.000Z</time>
      </trkpt>
      <trkpt lat="44.75751" lon="5.04654">
        <ele>460</ele>
        <time>2020-02-07T10:27:33.000Z</time>
      </trkpt>
      <trkpt lat="44.75752" lon="5.04655">
        <ele>460</ele>
        <time>2020-02-07T10:27:34.000Z</time>
      </trkpt>
      <trkpt lat="44.75753" lon="5.04656">
        <ele>460</ele>
        <time>2020-02-07T10:27:35.000Z</time>
      </trkpt>
      <trkpt lat="44.75753" lon="5.04657">
        <ele>460</ele>
        <time>2020-02-07T10:27:36.000Z</time>
      </trkpt>
      <trkpt lat="44.75754" lon="5.04658">
        <ele>460</ele>
        <time>2020-02-07T10:27:37.000Z</time>
      </trkpt>
      <trkpt lat="44.75755" lon="5.04659">
        <ele>460</ele>
        <time>2020-02-07T10:27:38.000Z</time>
      </trkpt>
      <trkpt lat="44.75757" lon="5.0466">
        <ele>460</ele>
        <time>2020-02-07T10:27:39.000Z</time>
      </trkpt>
      <trkpt lat="44.75758" lon="5.0466">
        <ele>460</ele>
        <time>2020-02-07T10:27:40.000Z</time>
      </trkpt>
      <trkpt lat="44.75759" lon="5.04661">
        <ele>460</ele>
        <time>2020-02-07T10:27:41.000Z</time>
      </trkpt>
      <trkpt lat="44.7576" lon="5.04662">
        <ele>460</ele>
        <time>2020-02-07T10:27:42.000Z</time>
      </trkpt>
      <trkpt lat="44.7576" lon="5.04662">
        <ele>461</ele>
        <time>2020-02-07T10:27:43.000Z</time>
      </trkpt>
      <trkpt lat="44.75761" lon="5.04663">
        <ele>461</ele>
        <time>2020-02-07T10:27:44.000Z</time>
      </trkpt>
      <trkpt lat="44.75762" lon="5.04664">
        <ele>461</ele>
        <time>2020-02-07T10:27:45.000Z</time>
      </trkpt>
      <trkpt lat="44.75763" lon="5.04665">
        <ele>461</ele>
        <time>2020-02-07T10:27:46.000Z</time>
      </trkpt>
      <trkpt lat="44.75764" lon="5.04666">
        <ele>461</ele>
        <time>2020-02-07T10:27:47.000Z</time>
      </trkpt>
      <trkpt lat="44.75765" lon="5.04667">
        <ele>461</ele>
        <time>2020-02-07T10:27:48.000Z</time>
      </trkpt>
      <trkpt lat="44.75766" lon="5.04667">
        <ele>461</ele>
        <time>2020-02-07T10:27:49.000Z</time>
      </trkpt>
      <trkpt lat="44.75767" lon="5.04668">
        <ele>461</ele>
        <time>2020-02-07T10:27:50.000Z</time>
      </trkpt>
      <trkpt lat="44.75768" lon="5.04669">
        <ele>461</ele>
        <time>2020-02-07T10:27:51.000Z</time>
      </trkpt>
      <trkpt lat="44.75768" lon="5.04669">
        <ele>461</ele>
        <time>2020-02-07T10:27:52.000Z</time>
      </trkpt>
      <trkpt lat="44.75769" lon="5.0467">
        <ele>461</ele>
        <time>2020-02-07T10:27:53.000Z</time>
      </trkpt>
      <trkpt lat="44.7577" lon="5.04671">
        <ele>461</ele>
        <time>2020-02-07T10:27:54.000Z</time>
      </trkpt>
      <trkpt lat="44.75771" lon="5.04672">
        <ele>461</ele>
        <time>2020-02-07T10:27:55.000Z</time>
      </trkpt>
      <trkpt lat="44.75772" lon="5.04673">
        <ele>461</ele>
        <time>2020-02-07T10:27:56.000Z</time>
      </trkpt>
      <trkpt lat="44.75773" lon="5.04675">
        <ele>461</ele>
        <time>2020-02-07T10:27:57.000Z</time>
      </trkpt>
      <trkpt lat="44.75774" lon="5.04676">
        <ele>461</ele>
        <time>2020-02-07T10:27:58.000Z</time>
      </trkpt>
      <trkpt lat="44.75774" lon="5.04677">
        <ele>461</ele>
        <time>2020-02-07T10:27:59.000Z</time>
      </trkpt>
      <trkpt lat="44.75775" lon="5.04678">
        <ele>461</ele>
        <time>2020-02-07T10:28:00.000Z</time>
      </trkpt>
      <trkpt lat="44.75775" lon="5.0468">
        <ele>461</ele>
        <time>2020-02-07T10:28:01.000Z</time>
      </trkpt>
      <trkpt lat="44.75776" lon="5.04681">
        <ele>460</ele>
        <time>2020-02-07T10:28:02.000Z</time>
      </trkpt>
      <trkpt lat="44.75777" lon="5.04682">
        <ele>460</ele>
        <time>2020-02-07T10:28:03.000Z</time>
      </trkpt>
      <trkpt lat="44.75777" lon="5.04684">
        <ele>460</ele>
        <time>2020-02-07T10:28:04.000Z</time>
      </trkpt>
      <trkpt lat="44.75778" lon="5.04685">
        <ele>460</ele>
        <time>2020-02-07T10:28:05.000Z</time>
      </trkpt>
      <trkpt lat="44.75779" lon="5.04686">
        <ele>460</ele>
        <time>2020-02-07T10:28:06.000Z</time>
      </trkpt>
      <trkpt lat="44.7578" lon="5.04687">
        <ele>460</ele>
        <time>2020-02-07T10:28:07.000Z</time>
      </trkpt>
      <trkpt lat="44.75781" lon="5.04688">
        <ele>460</ele>
        <time>2020-02-07T10:28:08.000Z</time>
      </trkpt>
      <trkpt lat="44.75781" lon="5.04689">
        <ele>460</ele>
        <time>2020-02-07T10:28:09.000Z</time>
      </trkpt>
      <trkpt lat="44.75782" lon="5.0469">
        <ele>460</ele>
        <time>2020-02-07T10:28:10.000Z</time>
      </trkpt>
      <trkpt lat="44.75782" lon="5.04691">
        <ele>460</ele>
        <time>2020-02-07T10:28:11.000Z</time>
      </trkpt>
      <trkpt lat="44.75783" lon="5.04692">
        <ele>460</ele>
        <time>2020-02-07T10:28:12.000Z</time>
      </trkpt>
      <trkpt lat="44.75783" lon="5.04693">
        <ele>460</ele>
        <time>2020-02-07T10:28:13.000Z</time>
      </trkpt>
      <trkpt lat="44.75784" lon="5.04695">
        <ele>460</ele>
        <time>2020-02-07T10:28:14.000Z</time>
      </trkpt>
      <trkpt lat="44.75784" lon="5.04695">
        <ele>460</ele>
        <time>2020-02-07T10:28:15.000Z</time>
      </trkpt>
      <trkpt lat="44.75784" lon="5.04697">
        <ele>460</ele>
        <time>2020-02-07T10:28:16.000Z</time>
      </trkpt>
      <trkpt lat="44.75785" lon="5.04699">
        <ele>460</ele>
        <time>2020-02-07T10:28:17.000Z</time>
      </trkpt>
      <trkpt lat="44.75785" lon="5.047">
        <ele>460</ele>
        <time>2020-02-07T10:28:18.000Z</time>
      </trkpt>
      <trkpt lat="44.75785" lon="5.04702">
        <ele>460</ele>
        <time>2020-02-07T10:28:19.000Z</time>
      </trkpt>
      <trkpt lat="44.75786" lon="5.04703">
        <ele>460</ele>
        <time>2020-02-07T10:28:20.000Z</time>
      </trkpt>
      <trkpt lat="44.75786" lon="5.04704">
        <ele>460</ele>
        <time>2020-02-07T10:28:21.000Z</time>
      </trkpt>
      <trkpt lat="44.75786" lon="5.04705">
        <ele>460</ele>
        <time>2020-02-07T10:28:22.000Z</time>
      </trkpt>
      <trkpt lat="44.75786" lon="5.04707">
        <ele>460</ele>
        <time>2020-02-07T10:28:23.000Z</time>
      </trkpt>
      <trkpt lat="44.75787" lon="5.04708">
        <ele>460</ele>
        <time>2020-02-07T10:28:24.000Z</time>
      </trkpt>
      <trkpt lat="44.75787" lon="5.04709">
        <ele>460</ele>
        <time>2020-02-07T10:28:25.000Z</time>
      </trkpt>
      <trkpt lat="44.75787" lon="5.0471">
        <ele>460</ele>
        <time>2020-02-07T10:28:26.000Z</time>
      </trkpt>
      <trkpt lat="44.75787" lon="5.04712">
        <ele>460</ele>
        <time>2020-02-07T10:28:27.000Z</time>
      </trkpt>
      <trkpt lat="44.75788" lon="5.04713">
        <ele>460</ele>
        <time>2020-02-07T10:28:28.000Z</time>
      </trkpt>
      <trkpt lat="44.75788" lon="5.04715">
        <ele>460</ele>
        <time>2020-02-07T10:28:29.000Z</time>
      </trkpt>
      <trkpt lat="44.75788" lon="5.04716">
        <ele>460</ele>
        <time>2020-02-07T10:28:30.000Z</time>
      </trkpt>
      <trkpt lat="44.75789" lon="5.04717">
        <ele>460</ele>
        <time>2020-02-07T10:28:31.000Z</time>
      </trkpt>
      <trkpt lat="44.7579" lon="5.04719">
        <ele>460</ele>
        <time>2020-02-07T10:28:32.000Z</time>
      </trkpt>
      <trkpt lat="44.75791" lon="5.04721">
        <ele>460</ele>
        <time>2020-02-07T10:28:33.000Z</time>
      </trkpt>
      <trkpt lat="44.75792" lon="5.04722">
        <ele>460</ele>
        <time>2020-02-07T10:28:34.000Z</time>
      </trkpt>
      <trkpt lat="44.75792" lon="5.04723">
        <ele>461</ele>
        <time>2020-02-07T10:28:35.000Z</time>
      </trkpt>
      <trkpt lat="44.75793" lon="5.04725">
        <ele>461</ele>
        <time>2020-02-07T10:28:36.000Z</time>
      </trkpt>
      <trkpt lat="44.75793" lon="5.04726">
        <ele>461</ele>
        <time>2020-02-07T10:28:37.000Z</time>
      </trkpt>
      <trkpt lat="44.75793" lon="5.04728">
        <ele>461</ele>
        <time>2020-02-07T10:28:38.000Z</time>
      </trkpt>
      <trkpt lat="44.75794" lon="5.04729">
        <ele>461</ele>
        <time>2020-02-07T10:28:39.000Z</time>
      </trkpt>
      <trkpt lat="44.75795" lon="5.04731">
        <ele>461</ele>
        <time>2020-02-07T10:28:40.000Z</time>
      </trkpt>
      <trkpt lat="44.75795" lon="5.04732">
        <ele>461</ele>
        <time>2020-02-07T10:28:41.000Z</time>
      </trkpt>
      <trkpt lat="44.75796" lon="5.04734">
        <ele>461</ele>
        <time>2020-02-07T10:28:42.000Z</time>
      </trkpt>
      <trkpt lat="44.75796" lon="5.04736">
        <ele>461</ele>
        <time>2020-02-07T10:28:43.000Z</time>
      </trkpt>
      <trkpt lat="44.75797" lon="5.04737">
        <ele>461</ele>
        <time>2020-02-07T10:28:44.000Z</time>
      </trkpt>
      <trkpt lat="44.75797" lon="5.04739">
        <ele>461</ele>
        <time>2020-02-07T10:28:45.000Z</time>
      </trkpt>
      <trkpt lat="44.75797" lon="5.0474">
        <ele>461</ele>
        <time>2020-02-07T10:28:46.000Z</time>
      </trkpt>
      <trkpt lat="44.75797" lon="5.04741">
        <ele>461</ele>
        <time>2020-02-07T10:28:47.000Z</time>
      </trkpt>
      <trkpt lat="44.75797" lon="5.04743">
        <ele>461</ele>
        <time>2020-02-07T10:28:48.000Z</time>
      </trkpt>
      <trkpt lat="44.75798" lon="5.04744">
        <ele>461</ele>
        <time>2020-02-07T10:28:49.000Z</time>
      </trkpt>
      <trkpt lat="44.75798" lon="5.04745">
        <ele>461</ele>
        <time>2020-02-07T10:28:50.000Z</time>
      </trkpt>
      <trkpt lat="44.75799" lon="5.04747">
        <ele>461</ele>
        <time>2020-02-07T10:28:51.000Z</time>
      </trkpt>
      <trkpt lat="44.758" lon="5.04748">
        <ele>462</ele>
        <time>2020-02-07T10:28:52.000Z</time>
      </trkpt>
      <trkpt lat="44.758" lon="5.04749">
        <ele>462</ele>
        <time>2020-02-07T10:28:53.000Z</time>
      </trkpt>
      <trkpt lat="44.75801" lon="5.04751">
        <ele>462</ele>
        <time>2020-02-07T10:28:54.000Z</time>
      </trkpt>
      <trkpt lat="44.75801" lon="5.04752">
        <ele>462</ele>
        <time>2020-02-07T10:28:55.000Z</time>
      </trkpt>
      <trkpt lat="44.75802" lon="5.04754">
        <ele>462</ele>
        <time>2020-02-07T10:28:56.000Z</time>
      </trkpt>
      <trkpt lat="44.75802" lon="5.04755">
        <ele>462</ele>
        <time>2020-02-07T10:28:57.000Z</time>
      </trkpt>
      <trkpt lat="44.75803" lon="5.04757">
        <ele>462</ele>
        <time>2020-02-07T10:28:58.000Z</time>
      </trkpt>
      <trkpt lat="44.75803" lon="5.04758">
        <ele>462</ele>
        <time>2020-02-07T10:28:59.000Z</time>
      </trkpt>
      <trkpt lat="44.75804" lon="5.04759">
        <ele>462</ele>
        <time>2020-02-07T10:29:00.000Z</time>
      </trkpt>
      <trkpt lat="44.75804" lon="5.0476">
        <ele>462</ele>
        <time>2020-02-07T10:29:01.000Z</time>
      </trkpt>
      <trkpt lat="44.75804" lon="5.04761">
        <ele>462</ele>
        <time>2020-02-07T10:29:02.000Z</time>
      </trkpt>
      <trkpt lat="44.75805" lon="5.04762">
        <ele>462</ele>
        <time>2020-02-07T10:29:03.000Z</time>
      </trkpt>
      <trkpt lat="44.75805" lon="5.04763">
        <ele>462</ele>
        <time>2020-02-07T10:29:04.000Z</time>
      </trkpt>
      <trkpt lat="44.75806" lon="5.04764">
        <ele>462</ele>
        <time>2020-02-07T10:29:05.000Z</time>
      </trkpt>
      <trkpt lat="44.75806" lon="5.04765">
        <ele>462</ele>
        <time>2020-02-07T10:29:06.000Z</time>
      </trkpt>
      <trkpt lat="44.75807" lon="5.04766">
        <ele>462</ele>
        <time>2020-02-07T10:29:07.000Z</time>
      </trkpt>
      <trkpt lat="44.75807" lon="5.04767">
        <ele>462</ele>
        <time>2020-02-07T10:29:08.000Z</time>
      </trkpt>
      <trkpt lat="44.75808" lon="5.04768">
        <ele>462</ele>
        <time>2020-02-07T10:29:09.000Z</time>
      </trkpt>
      <trkpt lat="44.75809" lon="5.04769">
        <ele>462</ele>
        <time>2020-02-07T10:29:10.000Z</time>
      </trkpt>
      <trkpt lat="44.75809" lon="5.0477">
        <ele>462</ele>
        <time>2020-02-07T10:29:11.000Z</time>
      </trkpt>
      <trkpt lat="44.7581" lon="5.04772">
        <ele>463</ele>
        <time>2020-02-07T10:29:12.000Z</time>
      </trkpt>
      <trkpt lat="44.75811" lon="5.04773">
        <ele>463</ele>
        <time>2020-02-07T10:29:13.000Z</time>
      </trkpt>
      <trkpt lat="44.75811" lon="5.04774">
        <ele>463</ele>
        <time>2020-02-07T10:29:14.000Z</time>
      </trkpt>
      <trkpt lat="44.75812" lon="5.04774">
        <ele>463</ele>
        <time>2020-02-07T10:29:15.000Z</time>
      </trkpt>
      <trkpt lat="44.75813" lon="5.04775">
        <ele>463</ele>
        <time>2020-02-07T10:29:16.000Z</time>
      </trkpt>
      <trkpt lat="44.75813" lon="5.04776">
        <ele>463</ele>
        <time>2020-02-07T10:29:17.000Z</time>
      </trkpt>
      <trkpt lat="44.75814" lon="5.04777">
        <ele>463</ele>
        <time>2020-02-07T10:29:18.000Z</time>
      </trkpt>
      <trkpt lat="44.75814" lon="5.04779">
        <ele>463</ele>
        <time>2020-02-07T10:29:19.000Z</time>
      </trkpt>
      <trkpt lat="44.75815" lon="5.0478">
        <ele>464</ele>
        <time>2020-02-07T10:29:20.000Z</time>
      </trkpt>
      <trkpt lat="44.75815" lon="5.0478">
        <ele>464</ele>
        <time>2020-02-07T10:29:21.000Z</time>
      </trkpt>
      <trkpt lat="44.75816" lon="5.04781">
        <ele>464</ele>
        <time>2020-02-07T10:29:22.000Z</time>
      </trkpt>
      <trkpt lat="44.75816" lon="5.04782">
        <ele>464</ele>
        <time>2020-02-07T10:29:23.000Z</time>
      </trkpt>
      <trkpt lat="44.75817" lon="5.04783">
        <ele>464</ele>
        <time>2020-02-07T10:29:24.000Z</time>
      </trkpt>
      <trkpt lat="44.75818" lon="5.04784">
        <ele>464</ele>
        <time>2020-02-07T10:29:25.000Z</time>
      </trkpt>
      <trkpt lat="44.75818" lon="5.04785">
        <ele>464</ele>
        <time>2020-02-07T10:29:26.000Z</time>
      </trkpt>
      <trkpt lat="44.75819" lon="5.04786">
        <ele>464</ele>
        <time>2020-02-07T10:29:27.000Z</time>
      </trkpt>
      <trkpt lat="44.7582" lon="5.04787">
        <ele>464</ele>
        <time>2020-02-07T10:29:28.000Z</time>
      </trkpt>
      <trkpt lat="44.7582" lon="5.04787">
        <ele>464</ele>
        <time>2020-02-07T10:29:29.000Z</time>
      </trkpt>
      <trkpt lat="44.7582" lon="5.04787">
        <ele>464</ele>
        <time>2020-02-07T10:29:30.000Z</time>
      </trkpt>
      <trkpt lat="44.7582" lon="5.04787">
        <ele>464</ele>
        <time>2020-02-07T10:29:31.000Z</time>
      </trkpt>
      <trkpt lat="44.75821" lon="5.04788">
        <ele>464</ele>
        <time>2020-02-07T10:29:32.000Z</time>
      </trkpt>
      <trkpt lat="44.75822" lon="5.04788">
        <ele>464</ele>
        <time>2020-02-07T10:29:33.000Z</time>
      </trkpt>
      <trkpt lat="44.75823" lon="5.04789">
        <ele>464</ele>
        <time>2020-02-07T10:29:34.000Z</time>
      </trkpt>
      <trkpt lat="44.75823" lon="5.04789">
        <ele>464</ele>
        <time>2020-02-07T10:29:35.000Z</time>
      </trkpt>
      <trkpt lat="44.75824" lon="5.0479">
        <ele>464</ele>
        <time>2020-02-07T10:29:36.000Z</time>
      </trkpt>
      <trkpt lat="44.75825" lon="5.0479">
        <ele>464</ele>
        <time>2020-02-07T10:29:37.000Z</time>
      </trkpt>
      <trkpt lat="44.75826" lon="5.04791">
        <ele>464</ele>
        <time>2020-02-07T10:29:38.000Z</time>
      </trkpt>
      <trkpt lat="44.75827" lon="5.04791">
        <ele>465</ele>
        <time>2020-02-07T10:29:39.000Z</time>
      </trkpt>
      <trkpt lat="44.75828" lon="5.04792">
        <ele>465</ele>
        <time>2020-02-07T10:29:40.000Z</time>
      </trkpt>
      <trkpt lat="44.75829" lon="5.04793">
        <ele>465</ele>
        <time>2020-02-07T10:29:41.000Z</time>
      </trkpt>
      <trkpt lat="44.75829" lon="5.04793">
        <ele>465</ele>
        <time>2020-02-07T10:29:42.000Z</time>
      </trkpt>
      <trkpt lat="44.7583" lon="5.04794">
        <ele>465</ele>
        <time>2020-02-07T10:29:43.000Z</time>
      </trkpt>
      <trkpt lat="44.75831" lon="5.04795">
        <ele>465</ele>
        <time>2020-02-07T10:29:44.000Z</time>
      </trkpt>
      <trkpt lat="44.75832" lon="5.04796">
        <ele>465</ele>
        <time>2020-02-07T10:29:45.000Z</time>
      </trkpt>
      <trkpt lat="44.75833" lon="5.04796">
        <ele>465</ele>
        <time>2020-02-07T10:29:46.000Z</time>
      </trkpt>
      <trkpt lat="44.75834" lon="5.04797">
        <ele>466</ele>
        <time>2020-02-07T10:29:47.000Z</time>
      </trkpt>
      <trkpt lat="44.75834" lon="5.04798">
        <ele>466</ele>
        <time>2020-02-07T10:29:48.000Z</time>
      </trkpt>
      <trkpt lat="44.75834" lon="5.04798">
        <ele>466</ele>
        <time>2020-02-07T10:29:49.000Z</time>
      </trkpt>
      <trkpt lat="44.75835" lon="5.04798">
        <ele>466</ele>
        <time>2020-02-07T10:29:50.000Z</time>
      </trkpt>
      <trkpt lat="44.75836" lon="5.04798">
        <ele>466</ele>
        <time>2020-02-07T10:29:51.000Z</time>
      </trkpt>
      <trkpt lat="44.75836" lon="5.04798">
        <ele>466</ele>
        <time>2020-02-07T10:29:52.000Z</time>
      </trkpt>
      <trkpt lat="44.75837" lon="5.04798">
        <ele>466</ele>
        <time>2020-02-07T10:29:53.000Z</time>
      </trkpt>
      <trkpt lat="44.75837" lon="5.04798">
        <ele>467</ele>
        <time>2020-02-07T10:29:54.000Z</time>
      </trkpt>
      <trkpt lat="44.75838" lon="5.04799">
        <ele>467</ele>
        <time>2020-02-07T10:29:55.000Z</time>
      </trkpt>
      <trkpt lat="44.75839" lon="5.04799">
        <ele>467</ele>
        <time>2020-02-07T10:29:56.000Z</time>
      </trkpt>
      <trkpt lat="44.7584" lon="5.04799">
        <ele>467</ele>
        <time>2020-02-07T10:29:57.000Z</time>
      </trkpt>
      <trkpt lat="44.75841" lon="5.048">
        <ele>467</ele>
        <time>2020-02-07T10:29:58.000Z</time>
      </trkpt>
      <trkpt lat="44.75842" lon="5.048">
        <ele>467</ele>
        <time>2020-02-07T10:29:59.000Z</time>
      </trkpt>
      <trkpt lat="44.75842" lon="5.04802">
        <ele>468</ele>
        <time>2020-02-07T10:30:00.000Z</time>
      </trkpt>
      <trkpt lat="44.75843" lon="5.04802">
        <ele>468</ele>
        <time>2020-02-07T10:30:01.000Z</time>
      </trkpt>
      <trkpt lat="44.75843" lon="5.04803">
        <ele>468</ele>
        <time>2020-02-07T10:30:02.000Z</time>
      </trkpt>
      <trkpt lat="44.75844" lon="5.04804">
        <ele>468</ele>
        <time>2020-02-07T10:30:03.000Z</time>
      </trkpt>
      <trkpt lat="44.75845" lon="5.04805">
        <ele>468</ele>
        <time>2020-02-07T10:30:04.000Z</time>
      </trkpt>
      <trkpt lat="44.75845" lon="5.04806">
        <ele>468</ele>
        <time>2020-02-07T10:30:05.000Z</time>
      </trkpt>
      <trkpt lat="44.75846" lon="5.04807">
        <ele>468</ele>
        <time>2020-02-07T10:30:06.000Z</time>
      </trkpt>
      <trkpt lat="44.75846" lon="5.04808">
        <ele>468</ele>
        <time>2020-02-07T10:30:07.000Z</time>
      </trkpt>
      <trkpt lat="44.75846" lon="5.04809">
        <ele>468</ele>
        <time>2020-02-07T10:30:08.000Z</time>
      </trkpt>
      <trkpt lat="44.75847" lon="5.0481">
        <ele>469</ele>
        <time>2020-02-07T10:30:09.000Z</time>
      </trkpt>
      <trkpt lat="44.75848" lon="5.04811">
        <ele>469</ele>
        <time>2020-02-07T10:30:10.000Z</time>
      </trkpt>
      <trkpt lat="44.75849" lon="5.04812">
        <ele>469</ele>
        <time>2020-02-07T10:30:11.000Z</time>
      </trkpt>
      <trkpt lat="44.7585" lon="5.04813">
        <ele>469</ele>
        <time>2020-02-07T10:30:12.000Z</time>
      </trkpt>
      <trkpt lat="44.75851" lon="5.04813">
        <ele>469</ele>
        <time>2020-02-07T10:30:13.000Z</time>
      </trkpt>
      <trkpt lat="44.75851" lon="5.04814">
        <ele>470</ele>
        <time>2020-02-07T10:30:14.000Z</time>
      </trkpt>
      <trkpt lat="44.75852" lon="5.04815">
        <ele>470</ele>
        <time>2020-02-07T10:30:15.000Z</time>
      </trkpt>
      <trkpt lat="44.75853" lon="5.04815">
        <ele>470</ele>
        <time>2020-02-07T10:30:16.000Z</time>
      </trkpt>
      <trkpt lat="44.75854" lon="5.04816">
        <ele>470</ele>
        <time>2020-02-07T10:30:17.000Z</time>
      </trkpt>
      <trkpt lat="44.75854" lon="5.04817">
        <ele>470</ele>
        <time>2020-02-07T10:30:18.000Z</time>
      </trkpt>
      <trkpt lat="44.75855" lon="5.04818">
        <ele>471</ele>
        <time>2020-02-07T10:30:19.000Z</time>
      </trkpt>
      <trkpt lat="44.75855" lon="5.04819">
        <ele>471</ele>
        <time>2020-02-07T10:30:20.000Z</time>
      </trkpt>
      <trkpt lat="44.75856" lon="5.0482">
        <ele>471</ele>
        <time>2020-02-07T10:30:21.000Z</time>
      </trkpt>
      <trkpt lat="44.75857" lon="5.04822">
        <ele>471</ele>
        <time>2020-02-07T10:30:22.000Z</time>
      </trkpt>
      <trkpt lat="44.75857" lon="5.04823">
        <ele>472</ele>
        <time>2020-02-07T10:30:23.000Z</time>
      </trkpt>
      <trkpt lat="44.75858" lon="5.04824">
        <ele>472</ele>
        <time>2020-02-07T10:30:24.000Z</time>
      </trkpt>
      <trkpt lat="44.75858" lon="5.04825">
        <ele>472</ele>
        <time>2020-02-07T10:30:25.000Z</time>
      </trkpt>
      <trkpt lat="44.75859" lon="5.04827">
        <ele>472</ele>
        <time>2020-02-07T10:30:26.000Z</time>
      </trkpt>
      <trkpt lat="44.75859" lon="5.04828">
        <ele>472</ele>
        <time>2020-02-07T10:30:27.000Z</time>
      </trkpt>
      <trkpt lat="44.75859" lon="5.04829">
        <ele>473</ele>
        <time>2020-02-07T10:30:28.000Z</time>
      </trkpt>
      <trkpt lat="44.7586" lon="5.04831">
        <ele>473</ele>
        <time>2020-02-07T10:30:29.000Z</time>
      </trkpt>
      <trkpt lat="44.7586" lon="5.04832">
        <ele>473</ele>
        <time>2020-02-07T10:30:30.000Z</time>
      </trkpt>
      <trkpt lat="44.7586" lon="5.04833">
        <ele>473</ele>
        <time>2020-02-07T10:30:31.000Z</time>
      </trkpt>
      <trkpt lat="44.75861" lon="5.04834">
        <ele>473</ele>
        <time>2020-02-07T10:30:32.000Z</time>
      </trkpt>
      <trkpt lat="44.75862" lon="5.04835">
        <ele>474</ele>
        <time>2020-02-07T10:30:33.000Z</time>
      </trkpt>
      <trkpt lat="44.75862" lon="5.04836">
        <ele>474</ele>
        <time>2020-02-07T10:30:34.000Z</time>
      </trkpt>
      <trkpt lat="44.75862" lon="5.04837">
        <ele>474</ele>
        <time>2020-02-07T10:30:35.000Z</time>
      </trkpt>
      <trkpt lat="44.75863" lon="5.04838">
        <ele>474</ele>
        <time>2020-02-07T10:30:36.000Z</time>
      </trkpt>
      <trkpt lat="44.75863" lon="5.04839">
        <ele>474</ele>
        <time>2020-02-07T10:30:37.000Z</time>
      </trkpt>
      <trkpt lat="44.75864" lon="5.0484">
        <ele>474</ele>
        <time>2020-02-07T10:30:38.000Z</time>
      </trkpt>
      <trkpt lat="44.75865" lon="5.04841">
        <ele>475</ele>
        <time>2020-02-07T10:30:39.000Z</time>
      </trkpt>
      <trkpt lat="44.75865" lon="5.04843">
        <ele>475</ele>
        <time>2020-02-07T10:30:40.000Z</time>
      </trkpt>
      <trkpt lat="44.75866" lon="5.04843">
        <ele>475</ele>
        <time>2020-02-07T10:30:41.000Z</time>
      </trkpt>
      <trkpt lat="44.75866" lon="5.04843">
        <ele>476</ele>
        <time>2020-02-07T10:30:42.000Z</time>
      </trkpt>
      <trkpt lat="44.75867" lon="5.04844">
        <ele>476</ele>
        <time>2020-02-07T10:30:43.000Z</time>
      </trkpt>
      <trkpt lat="44.75868" lon="5.04845">
        <ele>476</ele>
        <time>2020-02-07T10:30:44.000Z</time>
      </trkpt>
      <trkpt lat="44.75869" lon="5.04845">
        <ele>476</ele>
        <time>2020-02-07T10:30:45.000Z</time>
      </trkpt>
      <trkpt lat="44.75869" lon="5.04846">
        <ele>477</ele>
        <time>2020-02-07T10:30:46.000Z</time>
      </trkpt>
      <trkpt lat="44.7587" lon="5.04847">
        <ele>477</ele>
        <time>2020-02-07T10:30:47.000Z</time>
      </trkpt>
      <trkpt lat="44.75871" lon="5.04847">
        <ele>477</ele>
        <time>2020-02-07T10:30:48.000Z</time>
      </trkpt>
      <trkpt lat="44.75871" lon="5.04847">
        <ele>477</ele>
        <time>2020-02-07T10:30:49.000Z</time>
      </trkpt>
      <trkpt lat="44.75872" lon="5.04848">
        <ele>478</ele>
        <time>2020-02-07T10:30:50.000Z</time>
      </trkpt>
      <trkpt lat="44.75873" lon="5.04848">
        <ele>478</ele>
        <time>2020-02-07T10:30:51.000Z</time>
      </trkpt>
      <trkpt lat="44.75873" lon="5.04849">
        <ele>478</ele>
        <time>2020-02-07T10:30:52.000Z</time>
      </trkpt>
      <trkpt lat="44.75874" lon="5.04849">
        <ele>478</ele>
        <time>2020-02-07T10:30:53.000Z</time>
      </trkpt>
      <trkpt lat="44.75875" lon="5.0485">
        <ele>479</ele>
        <time>2020-02-07T10:30:54.000Z</time>
      </trkpt>
      <trkpt lat="44.75876" lon="5.0485">
        <ele>479</ele>
        <time>2020-02-07T10:30:55.000Z</time>
      </trkpt>
      <trkpt lat="44.75876" lon="5.04851">
        <ele>479</ele>
        <time>2020-02-07T10:30:56.000Z</time>
      </trkpt>
      <trkpt lat="44.75877" lon="5.04851">
        <ele>479</ele>
        <time>2020-02-07T10:30:57.000Z</time>
      </trkpt>
      <trkpt lat="44.75877" lon="5.04851">
        <ele>479</ele>
        <time>2020-02-07T10:30:58.000Z</time>
      </trkpt>
      <trkpt lat="44.75877" lon="5.04852">
        <ele>479</ele>
        <time>2020-02-07T10:30:59.000Z</time>
      </trkpt>
      <trkpt lat="44.75878" lon="5.04852">
        <ele>479</ele>
        <time>2020-02-07T10:31:00.000Z</time>
      </trkpt>
      <trkpt lat="44.75878" lon="5.04852">
        <ele>480</ele>
        <time>2020-02-07T10:31:01.000Z</time>
      </trkpt>
      <trkpt lat="44.75879" lon="5.04852">
        <ele>480</ele>
        <time>2020-02-07T10:31:02.000Z</time>
      </trkpt>
      <trkpt lat="44.7588" lon="5.04852">
        <ele>480</ele>
        <time>2020-02-07T10:31:03.000Z</time>
      </trkpt>
      <trkpt lat="44.75881" lon="5.04853">
        <ele>480</ele>
        <time>2020-02-07T10:31:04.000Z</time>
      </trkpt>
      <trkpt lat="44.75881" lon="5.04853">
        <ele>480</ele>
        <time>2020-02-07T10:31:05.000Z</time>
      </trkpt>
      <trkpt lat="44.75882" lon="5.04853">
        <ele>481</ele>
        <time>2020-02-07T10:31:06.000Z</time>
      </trkpt>
      <trkpt lat="44.75883" lon="5.04854">
        <ele>481</ele>
        <time>2020-02-07T10:31:07.000Z</time>
      </trkpt>
      <trkpt lat="44.75884" lon="5.04853">
        <ele>481</ele>
        <time>2020-02-07T10:31:08.000Z</time>
      </trkpt>
      <trkpt lat="44.75885" lon="5.04854">
        <ele>481</ele>
        <time>2020-02-07T10:31:09.000Z</time>
      </trkpt>
      <trkpt lat="44.75886" lon="5.04854">
        <ele>481</ele>
        <time>2020-02-07T10:31:10.000Z</time>
      </trkpt>
      <trkpt lat="44.75887" lon="5.04854">
        <ele>482</ele>
        <time>2020-02-07T10:31:11.000Z</time>
      </trkpt>
      <trkpt lat="44.75888" lon="5.04854">
        <ele>482</ele>
        <time>2020-02-07T10:31:12.000Z</time>
      </trkpt>
      <trkpt lat="44.75889" lon="5.04854">
        <ele>482</ele>
        <time>2020-02-07T10:31:13.000Z</time>
      </trkpt>
      <trkpt lat="44.7589" lon="5.04855">
        <ele>482</ele>
        <time>2020-02-07T10:31:14.000Z</time>
      </trkpt>
      <trkpt lat="44.75891" lon="5.04855">
        <ele>482</ele>
        <time>2020-02-07T10:31:15.000Z</time>
      </trkpt>
      <trkpt lat="44.75892" lon="5.04855">
        <ele>483</ele>
        <time>2020-02-07T10:31:16.000Z</time>
      </trkpt>
      <trkpt lat="44.75893" lon="5.04856">
        <ele>483</ele>
        <time>2020-02-07T10:31:17.000Z</time>
      </trkpt>
      <trkpt lat="44.75894" lon="5.04857">
        <ele>483</ele>
        <time>2020-02-07T10:31:18.000Z</time>
      </trkpt>
      <trkpt lat="44.75895" lon="5.04857">
        <ele>483</ele>
        <time>2020-02-07T10:31:19.000Z</time>
      </trkpt>
      <trkpt lat="44.75896" lon="5.04858">
        <ele>483</ele>
        <time>2020-02-07T10:31:20.000Z</time>
      </trkpt>
      <trkpt lat="44.75897" lon="5.04858">
        <ele>483</ele>
        <time>2020-02-07T10:31:21.000Z</time>
      </trkpt>
      <trkpt lat="44.75898" lon="5.04859">
        <ele>483</ele>
        <time>2020-02-07T10:31:22.000Z</time>
      </trkpt>
      <trkpt lat="44.75899" lon="5.0486">
        <ele>483</ele>
        <time>2020-02-07T10:31:23.000Z</time>
      </trkpt>
      <trkpt lat="44.759" lon="5.0486">
        <ele>483</ele>
        <time>2020-02-07T10:31:24.000Z</time>
      </trkpt>
      <trkpt lat="44.75902" lon="5.04861">
        <ele>483</ele>
        <time>2020-02-07T10:31:25.000Z</time>
      </trkpt>
      <trkpt lat="44.75903" lon="5.04862">
        <ele>483</ele>
        <time>2020-02-07T10:31:26.000Z</time>
      </trkpt>
      <trkpt lat="44.75904" lon="5.04863">
        <ele>483</ele>
        <time>2020-02-07T10:31:27.000Z</time>
      </trkpt>
      <trkpt lat="44.75905" lon="5.04863">
        <ele>483</ele>
        <time>2020-02-07T10:31:28.000Z</time>
      </trkpt>
      <trkpt lat="44.75906" lon="5.04864">
        <ele>483</ele>
        <time>2020-02-07T10:31:29.000Z</time>
      </trkpt>
      <trkpt lat="44.75907" lon="5.04864">
        <ele>483</ele>
        <time>2020-02-07T10:31:30.000Z</time>
      </trkpt>
      <trkpt lat="44.75908" lon="5.04865">
        <ele>483</ele>
        <time>2020-02-07T10:31:31.000Z</time>
      </trkpt>
      <trkpt lat="44.75909" lon="5.04865">
        <ele>483</ele>
        <time>2020-02-07T10:31:32.000Z</time>
      </trkpt>
      <trkpt lat="44.7591" lon="5.04865">
        <ele>483</ele>
        <time>2020-02-07T10:31:33.000Z</time>
      </trkpt>
      <trkpt lat="44.75911" lon="5.04865">
        <ele>483</ele>
        <time>2020-02-07T10:31:34.000Z</time>
      </trkpt>
      <trkpt lat="44.75913" lon="5.04865">
        <ele>483</ele>
        <time>2020-02-07T10:31:35.000Z</time>
      </trkpt>
      <trkpt lat="44.75913" lon="5.04865">
        <ele>483</ele>
        <time>2020-02-07T10:31:36.000Z</time>
      </trkpt>
      <trkpt lat="44.75914" lon="5.04865">
        <ele>483</ele>
        <time>2020-02-07T10:31:37.000Z</time>
      </trkpt>
      <trkpt lat="44.75915" lon="5.04865">
        <ele>483</ele>
        <time>2020-02-07T10:31:38.000Z</time>
      </trkpt>
      <trkpt lat="44.75916" lon="5.04866">
        <ele>483</ele>
        <time>2020-02-07T10:31:39.000Z</time>
      </trkpt>
      <trkpt lat="44.75917" lon="5.04866">
        <ele>483</ele>
        <time>2020-02-07T10:31:40.000Z</time>
      </trkpt>
      <trkpt lat="44.75919" lon="5.04866">
        <ele>483</ele>
        <time>2020-02-07T10:31:41.000Z</time>
      </trkpt>
      <trkpt lat="44.7592" lon="5.04866">
        <ele>483</ele>
        <time>2020-02-07T10:31:42.000Z</time>
      </trkpt>
      <trkpt lat="44.75921" lon="5.04867">
        <ele>483</ele>
        <time>2020-02-07T10:31:43.000Z</time>
      </trkpt>
      <trkpt lat="44.75921" lon="5.04867">
        <ele>483</ele>
        <time>2020-02-07T10:31:44.000Z</time>
      </trkpt>
      <trkpt lat="44.75923" lon="5.04867">
        <ele>483</ele>
        <time>2020-02-07T10:31:45.000Z</time>
      </trkpt>
      <trkpt lat="44.75924" lon="5.04868">
        <ele>483</ele>
        <time>2020-02-07T10:31:46.000Z</time>
      </trkpt>
      <trkpt lat="44.75925" lon="5.04869">
        <ele>483</ele>
        <time>2020-02-07T10:31:47.000Z</time>
      </trkpt>
      <trkpt lat="44.75926" lon="5.04869">
        <ele>483</ele>
        <time>2020-02-07T10:31:48.000Z</time>
      </trkpt>
      <trkpt lat="44.75927" lon="5.0487">
        <ele>482</ele>
        <time>2020-02-07T10:31:49.000Z</time>
      </trkpt>
      <trkpt lat="44.75928" lon="5.0487">
        <ele>482</ele>
        <time>2020-02-07T10:31:50.000Z</time>
      </trkpt>
      <trkpt lat="44.75929" lon="5.04871">
        <ele>483</ele>
        <time>2020-02-07T10:31:51.000Z</time>
      </trkpt>
      <trkpt lat="44.7593" lon="5.04872">
        <ele>483</ele>
        <time>2020-02-07T10:31:52.000Z</time>
      </trkpt>
      <trkpt lat="44.75931" lon="5.04873">
        <ele>483</ele>
        <time>2020-02-07T10:31:53.000Z</time>
      </trkpt>
      <trkpt lat="44.75932" lon="5.04874">
        <ele>483</ele>
        <time>2020-02-07T10:31:54.000Z</time>
      </trkpt>
      <trkpt lat="44.75933" lon="5.04875">
        <ele>483</ele>
        <time>2020-02-07T10:31:55.000Z</time>
      </trkpt>
      <trkpt lat="44.75934" lon="5.04875">
        <ele>482</ele>
        <time>2020-02-07T10:31:56.000Z</time>
      </trkpt>
      <trkpt lat="44.75934" lon="5.04876">
        <ele>483</ele>
        <time>2020-02-07T10:31:57.000Z</time>
      </trkpt>
      <trkpt lat="44.75936" lon="5.04877">
        <ele>483</ele>
        <time>2020-02-07T10:31:58.000Z</time>
      </trkpt>
      <trkpt lat="44.75937" lon="5.04877">
        <ele>483</ele>
        <time>2020-02-07T10:31:59.000Z</time>
      </trkpt>
      <trkpt lat="44.75938" lon="5.04877">
        <ele>483</ele>
        <time>2020-02-07T10:32:00.000Z</time>
      </trkpt>
      <trkpt lat="44.75939" lon="5.04877">
        <ele>483</ele>
        <time>2020-02-07T10:32:01.000Z</time>
      </trkpt>
      <trkpt lat="44.7594" lon="5.04877">
        <ele>483</ele>
        <time>2020-02-07T10:32:02.000Z</time>
      </trkpt>
      <trkpt lat="44.75941" lon="5.04877">
        <ele>483</ele>
        <time>2020-02-07T10:32:03.000Z</time>
      </trkpt>
      <trkpt lat="44.75942" lon="5.04877">
        <ele>483</ele>
        <time>2020-02-07T10:32:04.000Z</time>
      </trkpt>
      <trkpt lat="44.75943" lon="5.04877">
        <ele>483</ele>
        <time>2020-02-07T10:32:05.000Z</time>
      </trkpt>
      <trkpt lat="44.75944" lon="5.04878">
        <ele>483</ele>
        <time>2020-02-07T10:32:06.000Z</time>
      </trkpt>
      <trkpt lat="44.75945" lon="5.04878">
        <ele>483</ele>
        <time>2020-02-07T10:32:07.000Z</time>
      </trkpt>
      <trkpt lat="44.75946" lon="5.04878">
        <ele>483</ele>
        <time>2020-02-07T10:32:08.000Z</time>
      </trkpt>
      <trkpt lat="44.75948" lon="5.04878">
        <ele>483</ele>
        <time>2020-02-07T10:32:09.000Z</time>
      </trkpt>
      <trkpt lat="44.75949" lon="5.04879">
        <ele>483</ele>
        <time>2020-02-07T10:32:10.000Z</time>
      </trkpt>
      <trkpt lat="44.7595" lon="5.04879">
        <ele>483</ele>
        <time>2020-02-07T10:32:11.000Z</time>
      </trkpt>
      <trkpt lat="44.75951" lon="5.0488">
        <ele>483</ele>
        <time>2020-02-07T10:32:12.000Z</time>
      </trkpt>
      <trkpt lat="44.75952" lon="5.0488">
        <ele>483</ele>
        <time>2020-02-07T10:32:13.000Z</time>
      </trkpt>
      <trkpt lat="44.75953" lon="5.0488">
        <ele>483</ele>
        <time>2020-02-07T10:32:14.000Z</time>
      </trkpt>
      <trkpt lat="44.75954" lon="5.04881">
        <ele>482</ele>
        <time>2020-02-07T10:32:15.000Z</time>
      </trkpt>
      <trkpt lat="44.75956" lon="5.04881">
        <ele>482</ele>
        <time>2020-02-07T10:32:16.000Z</time>
      </trkpt>
      <trkpt lat="44.75957" lon="5.04882">
        <ele>482</ele>
        <time>2020-02-07T10:32:17.000Z</time>
      </trkpt>
      <trkpt lat="44.75958" lon="5.04882">
        <ele>482</ele>
        <time>2020-02-07T10:32:18.000Z</time>
      </trkpt>
      <trkpt lat="44.75959" lon="5.04883">
        <ele>482</ele>
        <time>2020-02-07T10:32:19.000Z</time>
      </trkpt>
      <trkpt lat="44.75959" lon="5.04883">
        <ele>482</ele>
        <time>2020-02-07T10:32:20.000Z</time>
      </trkpt>
      <trkpt lat="44.7596" lon="5.04883">
        <ele>482</ele>
        <time>2020-02-07T10:32:21.000Z</time>
      </trkpt>
      <trkpt lat="44.75961" lon="5.04883">
        <ele>482</ele>
        <time>2020-02-07T10:32:22.000Z</time>
      </trkpt>
      <trkpt lat="44.75963" lon="5.04884">
        <ele>482</ele>
        <time>2020-02-07T10:32:23.000Z</time>
      </trkpt>
      <trkpt lat="44.75964" lon="5.04884">
        <ele>482</ele>
        <time>2020-02-07T10:32:24.000Z</time>
      </trkpt>
      <trkpt lat="44.75965" lon="5.04884">
        <ele>482</ele>
        <time>2020-02-07T10:32:25.000Z</time>
      </trkpt>
      <trkpt lat="44.75966" lon="5.04884">
        <ele>482</ele>
        <time>2020-02-07T10:32:26.000Z</time>
      </trkpt>
      <trkpt lat="44.75967" lon="5.04885">
        <ele>482</ele>
        <time>2020-02-07T10:32:27.000Z</time>
      </trkpt>
      <trkpt lat="44.75968" lon="5.04886">
        <ele>482</ele>
        <time>2020-02-07T10:32:28.000Z</time>
      </trkpt>
      <trkpt lat="44.75969" lon="5.04886">
        <ele>481</ele>
        <time>2020-02-07T10:32:29.000Z</time>
      </trkpt>
      <trkpt lat="44.7597" lon="5.04887">
        <ele>481</ele>
        <time>2020-02-07T10:32:30.000Z</time>
      </trkpt>
      <trkpt lat="44.75971" lon="5.04888">
        <ele>481</ele>
        <time>2020-02-07T10:32:31.000Z</time>
      </trkpt>
      <trkpt lat="44.75971" lon="5.04888">
        <ele>481</ele>
        <time>2020-02-07T10:32:32.000Z</time>
      </trkpt>
      <trkpt lat="44.75973" lon="5.04889">
        <ele>481</ele>
        <time>2020-02-07T10:32:33.000Z</time>
      </trkpt>
      <trkpt lat="44.75973" lon="5.04889">
        <ele>481</ele>
        <time>2020-02-07T10:32:34.000Z</time>
      </trkpt>
      <trkpt lat="44.75974" lon="5.04889">
        <ele>481</ele>
        <time>2020-02-07T10:32:35.000Z</time>
      </trkpt>
      <trkpt lat="44.75976" lon="5.0489">
        <ele>481</ele>
        <time>2020-02-07T10:32:36.000Z</time>
      </trkpt>
      <trkpt lat="44.75977" lon="5.0489">
        <ele>481</ele>
        <time>2020-02-07T10:32:37.000Z</time>
      </trkpt>
      <trkpt lat="44.75978" lon="5.04892">
        <ele>481</ele>
        <time>2020-02-07T10:32:38.000Z</time>
      </trkpt>
      <trkpt lat="44.7598" lon="5.04893">
        <ele>481</ele>
        <time>2020-02-07T10:32:39.000Z</time>
      </trkpt>
      <trkpt lat="44.75981" lon="5.04893">
        <ele>481</ele>
        <time>2020-02-07T10:32:40.000Z</time>
      </trkpt>
      <trkpt lat="44.75982" lon="5.04894">
        <ele>481</ele>
        <time>2020-02-07T10:32:41.000Z</time>
      </trkpt>
      <trkpt lat="44.75983" lon="5.04895">
        <ele>481</ele>
        <time>2020-02-07T10:32:42.000Z</time>
      </trkpt>
      <trkpt lat="44.75984" lon="5.04895">
        <ele>481</ele>
        <time>2020-02-07T10:32:43.000Z</time>
      </trkpt>
      <trkpt lat="44.75985" lon="5.04895">
        <ele>481</ele>
        <time>2020-02-07T10:32:44.000Z</time>
      </trkpt>
      <trkpt lat="44.75986" lon="5.04896">
        <ele>481</ele>
        <time>2020-02-07T10:32:45.000Z</time>
      </trkpt>
      <trkpt lat="44.75987" lon="5.04896">
        <ele>481</ele>
        <time>2020-02-07T10:32:46.000Z</time>
      </trkpt>
      <trkpt lat="44.75988" lon="5.04896">
        <ele>481</ele>
        <time>2020-02-07T10:32:47.000Z</time>
      </trkpt>
      <trkpt lat="44.75989" lon="5.04897">
        <ele>480</ele>
        <time>2020-02-07T10:32:48.000Z</time>
      </trkpt>
      <trkpt lat="44.7599" lon="5.04898">
        <ele>480</ele>
        <time>2020-02-07T10:32:49.000Z</time>
      </trkpt>
      <trkpt lat="44.75991" lon="5.04898">
        <ele>480</ele>
        <time>2020-02-07T10:32:50.000Z</time>
      </trkpt>
      <trkpt lat="44.75993" lon="5.04899">
        <ele>480</ele>
        <time>2020-02-07T10:32:51.000Z</time>
      </trkpt>
      <trkpt lat="44.75994" lon="5.04899">
        <ele>480</ele>
        <time>2020-02-07T10:32:52.000Z</time>
      </trkpt>
      <trkpt lat="44.75995" lon="5.04899">
        <ele>480</ele>
        <time>2020-02-07T10:32:53.000Z</time>
      </trkpt>
      <trkpt lat="44.75996" lon="5.049">
        <ele>480</ele>
        <time>2020-02-07T10:32:54.000Z</time>
      </trkpt>
      <trkpt lat="44.75997" lon="5.049">
        <ele>480</ele>
        <time>2020-02-07T10:32:55.000Z</time>
      </trkpt>
      <trkpt lat="44.75998" lon="5.04901">
        <ele>480</ele>
        <time>2020-02-07T10:32:56.000Z</time>
      </trkpt>
      <trkpt lat="44.75999" lon="5.04901">
        <ele>480</ele>
        <time>2020-02-07T10:32:57.000Z</time>
      </trkpt>
      <trkpt lat="44.76001" lon="5.04902">
        <ele>480</ele>
        <time>2020-02-07T10:32:58.000Z</time>
      </trkpt>
      <trkpt lat="44.76002" lon="5.04903">
        <ele>480</ele>
        <time>2020-02-07T10:32:59.000Z</time>
      </trkpt>
      <trkpt lat="44.76003" lon="5.04903">
        <ele>480</ele>
        <time>2020-02-07T10:33:00.000Z</time>
      </trkpt>
      <trkpt lat="44.76004" lon="5.04904">
        <ele>480</ele>
        <time>2020-02-07T10:33:01.000Z</time>
      </trkpt>
      <trkpt lat="44.76005" lon="5.04904">
        <ele>480</ele>
        <time>2020-02-07T10:33:02.000Z</time>
      </trkpt>
      <trkpt lat="44.76006" lon="5.04905">
        <ele>480</ele>
        <time>2020-02-07T10:33:03.000Z</time>
      </trkpt>
      <trkpt lat="44.76008" lon="5.04906">
        <ele>479</ele>
        <time>2020-02-07T10:33:04.000Z</time>
      </trkpt>
      <trkpt lat="44.76009" lon="5.04906">
        <ele>479</ele>
        <time>2020-02-07T10:33:05.000Z</time>
      </trkpt>
      <trkpt lat="44.7601" lon="5.04907">
        <ele>479</ele>
        <time>2020-02-07T10:33:06.000Z</time>
      </trkpt>
      <trkpt lat="44.76011" lon="5.04907">
        <ele>479</ele>
        <time>2020-02-07T10:33:07.000Z</time>
      </trkpt>
      <trkpt lat="44.76012" lon="5.04908">
        <ele>479</ele>
        <time>2020-02-07T10:33:08.000Z</time>
      </trkpt>
      <trkpt lat="44.76013" lon="5.04909">
        <ele>479</ele>
        <time>2020-02-07T10:33:09.000Z</time>
      </trkpt>
      <trkpt lat="44.76014" lon="5.04909">
        <ele>479</ele>
        <time>2020-02-07T10:33:10.000Z</time>
      </trkpt>
      <trkpt lat="44.76015" lon="5.04909">
        <ele>479</ele>
        <time>2020-02-07T10:33:11.000Z</time>
      </trkpt>
      <trkpt lat="44.76016" lon="5.0491">
        <ele>479</ele>
        <time>2020-02-07T10:33:12.000Z</time>
      </trkpt>
      <trkpt lat="44.76017" lon="5.0491">
        <ele>478</ele>
        <time>2020-02-07T10:33:13.000Z</time>
      </trkpt>
      <trkpt lat="44.76018" lon="5.0491">
        <ele>478</ele>
        <time>2020-02-07T10:33:14.000Z</time>
      </trkpt>
      <trkpt lat="44.7602" lon="5.04911">
        <ele>478</ele>
        <time>2020-02-07T10:33:15.000Z</time>
      </trkpt>
      <trkpt lat="44.76021" lon="5.04911">
        <ele>478</ele>
        <time>2020-02-07T10:33:16.000Z</time>
      </trkpt>
      <trkpt lat="44.76022" lon="5.04912">
        <ele>478</ele>
        <time>2020-02-07T10:33:17.000Z</time>
      </trkpt>
      <trkpt lat="44.76023" lon="5.04912">
        <ele>477</ele>
        <time>2020-02-07T10:33:18.000Z</time>
      </trkpt>
      <trkpt lat="44.76024" lon="5.04913">
        <ele>477</ele>
        <time>2020-02-07T10:33:19.000Z</time>
      </trkpt>
      <trkpt lat="44.76026" lon="5.04913">
        <ele>477</ele>
        <time>2020-02-07T10:33:20.000Z</time>
      </trkpt>
      <trkpt lat="44.76027" lon="5.04913">
        <ele>477</ele>
        <time>2020-02-07T10:33:21.000Z</time>
      </trkpt>
      <trkpt lat="44.76028" lon="5.04914">
        <ele>476</ele>
        <time>2020-02-07T10:33:22.000Z</time>
      </trkpt>
      <trkpt lat="44.76029" lon="5.04914">
        <ele>476</ele>
        <time>2020-02-07T10:33:23.000Z</time>
      </trkpt>
      <trkpt lat="44.7603" lon="5.04914">
        <ele>476</ele>
        <time>2020-02-07T10:33:24.000Z</time>
      </trkpt>
      <trkpt lat="44.76031" lon="5.04915">
        <ele>476</ele>
        <time>2020-02-07T10:33:25.000Z</time>
      </trkpt>
      <trkpt lat="44.76032" lon="5.04915">
        <ele>476</ele>
        <time>2020-02-07T10:33:26.000Z</time>
      </trkpt>
      <trkpt lat="44.76034" lon="5.04915">
        <ele>475</ele>
        <time>2020-02-07T10:33:27.000Z</time>
      </trkpt>
      <trkpt lat="44.76035" lon="5.04916">
        <ele>475</ele>
        <time>2020-02-07T10:33:28.000Z</time>
      </trkpt>
      <trkpt lat="44.76036" lon="5.04916">
        <ele>475</ele>
        <time>2020-02-07T10:33:29.000Z</time>
      </trkpt>
      <trkpt lat="44.76037" lon="5.04917">
        <ele>475</ele>
        <time>2020-02-07T10:33:30.000Z</time>
      </trkpt>
      <trkpt lat="44.76038" lon="5.04917">
        <ele>474</ele>
        <time>2020-02-07T10:33:31.000Z</time>
      </trkpt>
      <trkpt lat="44.76039" lon="5.04918">
        <ele>474</ele>
        <time>2020-02-07T10:33:32.000Z</time>
      </trkpt>
      <trkpt lat="44.7604" lon="5.04918">
        <ele>474</ele>
        <time>2020-02-07T10:33:33.000Z</time>
      </trkpt>
      <trkpt lat="44.76041" lon="5.04919">
        <ele>474</ele>
        <time>2020-02-07T10:33:34.000Z</time>
      </trkpt>
      <trkpt lat="44.76043" lon="5.04919">
        <ele>473</ele>
        <time>2020-02-07T10:33:35.000Z</time>
      </trkpt>
      <trkpt lat="44.76044" lon="5.04919">
        <ele>473</ele>
        <time>2020-02-07T10:33:36.000Z</time>
      </trkpt>
      <trkpt lat="44.76045" lon="5.0492">
        <ele>473</ele>
        <time>2020-02-07T10:33:37.000Z</time>
      </trkpt>
      <trkpt lat="44.76046" lon="5.0492">
        <ele>473</ele>
        <time>2020-02-07T10:33:38.000Z</time>
      </trkpt>
      <trkpt lat="44.76047" lon="5.04921">
        <ele>473</ele>
        <time>2020-02-07T10:33:39.000Z</time>
      </trkpt>
      <trkpt lat="44.76048" lon="5.04921">
        <ele>473</ele>
        <time>2020-02-07T10:33:40.000Z</time>
      </trkpt>
      <trkpt lat="44.76049" lon="5.04922">
        <ele>473</ele>
        <time>2020-02-07T10:33:41.000Z</time>
      </trkpt>
      <trkpt lat="44.76051" lon="5.04922">
        <ele>472</ele>
        <time>2020-02-07T10:33:42.000Z</time>
      </trkpt>
      <trkpt lat="44.76052" lon="5.04923">
        <ele>472</ele>
        <time>2020-02-07T10:33:43.000Z</time>
      </trkpt>
      <trkpt lat="44.76053" lon="5.04924">
        <ele>472</ele>
        <time>2020-02-07T10:33:44.000Z</time>
      </trkpt>
      <trkpt lat="44.76054" lon="5.04924">
        <ele>472</ele>
        <time>2020-02-07T10:33:45.000Z</time>
      </trkpt>
      <trkpt lat="44.76054" lon="5.04925">
        <ele>472</ele>
        <time>2020-02-07T10:33:46.000Z</time>
      </trkpt>
      <trkpt lat="44.76056" lon="5.04925">
        <ele>472</ele>
        <time>2020-02-07T10:33:47.000Z</time>
      </trkpt>
      <trkpt lat="44.76057" lon="5.04926">
        <ele>472</ele>
        <time>2020-02-07T10:33:48.000Z</time>
      </trkpt>
      <trkpt lat="44.76058" lon="5.04926">
        <ele>472</ele>
        <time>2020-02-07T10:33:49.000Z</time>
      </trkpt>
      <trkpt lat="44.76059" lon="5.04927">
        <ele>472</ele>
        <time>2020-02-07T10:33:50.000Z</time>
      </trkpt>
      <trkpt lat="44.7606" lon="5.04927">
        <ele>471</ele>
        <time>2020-02-07T10:33:51.000Z</time>
      </trkpt>
      <trkpt lat="44.76061" lon="5.04927">
        <ele>471</ele>
        <time>2020-02-07T10:33:52.000Z</time>
      </trkpt>
      <trkpt lat="44.76062" lon="5.04928">
        <ele>471</ele>
        <time>2020-02-07T10:33:53.000Z</time>
      </trkpt>
      <trkpt lat="44.76063" lon="5.04928">
        <ele>471</ele>
        <time>2020-02-07T10:33:54.000Z</time>
      </trkpt>
      <trkpt lat="44.76064" lon="5.04929">
        <ele>471</ele>
        <time>2020-02-07T10:33:55.000Z</time>
      </trkpt>
      <trkpt lat="44.76066" lon="5.04929">
        <ele>471</ele>
        <time>2020-02-07T10:33:56.000Z</time>
      </trkpt>
      <trkpt lat="44.76067" lon="5.0493">
        <ele>471</ele>
        <time>2020-02-07T10:33:57.000Z</time>
      </trkpt>
      <trkpt lat="44.76068" lon="5.0493">
        <ele>471</ele>
        <time>2020-02-07T10:33:58.000Z</time>
      </trkpt>
      <trkpt lat="44.76069" lon="5.04929">
        <ele>471</ele>
        <time>2020-02-07T10:33:59.000Z</time>
      </trkpt>
      <trkpt lat="44.7607" lon="5.04929">
        <ele>471</ele>
        <time>2020-02-07T10:34:00.000Z</time>
      </trkpt>
      <trkpt lat="44.76071" lon="5.04929">
        <ele>471</ele>
        <time>2020-02-07T10:34:01.000Z</time>
      </trkpt>
      <trkpt lat="44.76072" lon="5.04929">
        <ele>471</ele>
        <time>2020-02-07T10:34:02.000Z</time>
      </trkpt>
      <trkpt lat="44.76073" lon="5.04929">
        <ele>471</ele>
        <time>2020-02-07T10:34:03.000Z</time>
      </trkpt>
      <trkpt lat="44.76074" lon="5.0493">
        <ele>472</ele>
        <time>2020-02-07T10:34:04.000Z</time>
      </trkpt>
      <trkpt lat="44.76075" lon="5.0493">
        <ele>472</ele>
        <time>2020-02-07T10:34:05.000Z</time>
      </trkpt>
      <trkpt lat="44.76076" lon="5.0493">
        <ele>471</ele>
        <time>2020-02-07T10:34:06.000Z</time>
      </trkpt>
      <trkpt lat="44.76077" lon="5.0493">
        <ele>471</ele>
        <time>2020-02-07T10:34:07.000Z</time>
      </trkpt>
      <trkpt lat="44.76078" lon="5.0493">
        <ele>471</ele>
        <time>2020-02-07T10:34:08.000Z</time>
      </trkpt>
      <trkpt lat="44.76079" lon="5.0493">
        <ele>471</ele>
        <time>2020-02-07T10:34:09.000Z</time>
      </trkpt>
      <trkpt lat="44.7608" lon="5.0493">
        <ele>471</ele>
        <time>2020-02-07T10:34:10.000Z</time>
      </trkpt>
      <trkpt lat="44.76081" lon="5.0493">
        <ele>471</ele>
        <time>2020-02-07T10:34:11.000Z</time>
      </trkpt>
      <trkpt lat="44.76082" lon="5.0493">
        <ele>471</ele>
        <time>2020-02-07T10:34:12.000Z</time>
      </trkpt>
      <trkpt lat="44.76083" lon="5.0493">
        <ele>471</ele>
        <time>2020-02-07T10:34:13.000Z</time>
      </trkpt>
      <trkpt lat="44.76084" lon="5.0493">
        <ele>471</ele>
        <time>2020-02-07T10:34:14.000Z</time>
      </trkpt>
      <trkpt lat="44.76085" lon="5.0493">
        <ele>471</ele>
        <time>2020-02-07T10:34:15.000Z</time>
      </trkpt>
      <trkpt lat="44.76086" lon="5.04931">
        <ele>471</ele>
        <time>2020-02-07T10:34:16.000Z</time>
      </trkpt>
      <trkpt lat="44.76087" lon="5.04931">
        <ele>471</ele>
        <time>2020-02-07T10:34:17.000Z</time>
      </trkpt>
      <trkpt lat="44.76088" lon="5.04932">
        <ele>471</ele>
        <time>2020-02-07T10:34:18.000Z</time>
      </trkpt>
      <trkpt lat="44.76089" lon="5.04932">
        <ele>471</ele>
        <time>2020-02-07T10:34:19.000Z</time>
      </trkpt>
      <trkpt lat="44.7609" lon="5.04932">
        <ele>471</ele>
        <time>2020-02-07T10:34:20.000Z</time>
      </trkpt>
      <trkpt lat="44.76091" lon="5.04933">
        <ele>471</ele>
        <time>2020-02-07T10:34:21.000Z</time>
      </trkpt>
      <trkpt lat="44.76092" lon="5.04933">
        <ele>471</ele>
        <time>2020-02-07T10:34:22.000Z</time>
      </trkpt>
      <trkpt lat="44.76093" lon="5.04933">
        <ele>471</ele>
        <time>2020-02-07T10:34:23.000Z</time>
      </trkpt>
      <trkpt lat="44.76094" lon="5.04934">
        <ele>471</ele>
        <time>2020-02-07T10:34:24.000Z</time>
      </trkpt>
      <trkpt lat="44.76095" lon="5.04934">
        <ele>471</ele>
        <time>2020-02-07T10:34:25.000Z</time>
      </trkpt>
      <trkpt lat="44.76096" lon="5.04934">
        <ele>471</ele>
        <time>2020-02-07T10:34:26.000Z</time>
      </trkpt>
      <trkpt lat="44.76097" lon="5.04935">
        <ele>471</ele>
        <time>2020-02-07T10:34:27.000Z</time>
      </trkpt>
      <trkpt lat="44.76098" lon="5.04935">
        <ele>471</ele>
        <time>2020-02-07T10:34:28.000Z</time>
      </trkpt>
      <trkpt lat="44.76098" lon="5.04935">
        <ele>471</ele>
        <time>2020-02-07T10:34:29.000Z</time>
      </trkpt>
      <trkpt lat="44.76099" lon="5.04935">
        <ele>471</ele>
        <time>2020-02-07T10:34:30.000Z</time>
      </trkpt>
      <trkpt lat="44.761" lon="5.04935">
        <ele>470</ele>
        <time>2020-02-07T10:34:31.000Z</time>
      </trkpt>
      <trkpt lat="44.76101" lon="5.04936">
        <ele>470</ele>
        <time>2020-02-07T10:34:32.000Z</time>
      </trkpt>
      <trkpt lat="44.76102" lon="5.04936">
        <ele>470</ele>
        <time>2020-02-07T10:34:33.000Z</time>
      </trkpt>
      <trkpt lat="44.76103" lon="5.04936">
        <ele>470</ele>
        <time>2020-02-07T10:34:34.000Z</time>
      </trkpt>
      <trkpt lat="44.76103" lon="5.04936">
        <ele>470</ele>
        <time>2020-02-07T10:34:35.000Z</time>
      </trkpt>
      <trkpt lat="44.76104" lon="5.04937">
        <ele>470</ele>
        <time>2020-02-07T10:34:36.000Z</time>
      </trkpt>
      <trkpt lat="44.76104" lon="5.04937">
        <ele>470</ele>
        <time>2020-02-07T10:34:37.000Z</time>
      </trkpt>
      <trkpt lat="44.76105" lon="5.04938">
        <ele>470</ele>
        <time>2020-02-07T10:34:38.000Z</time>
      </trkpt>
      <trkpt lat="44.76106" lon="5.04938">
        <ele>470</ele>
        <time>2020-02-07T10:34:39.000Z</time>
      </trkpt>
      <trkpt lat="44.76107" lon="5.04938">
        <ele>470</ele>
        <time>2020-02-07T10:34:40.000Z</time>
      </trkpt>
      <trkpt lat="44.76108" lon="5.04938">
        <ele>470</ele>
        <time>2020-02-07T10:34:41.000Z</time>
      </trkpt>
      <trkpt lat="44.7611" lon="5.04938">
        <ele>470</ele>
        <time>2020-02-07T10:34:42.000Z</time>
      </trkpt>
      <trkpt lat="44.7611" lon="5.04939">
        <ele>470</ele>
        <time>2020-02-07T10:34:43.000Z</time>
      </trkpt>
      <trkpt lat="44.76111" lon="5.04939">
        <ele>470</ele>
        <time>2020-02-07T10:34:44.000Z</time>
      </trkpt>
      <trkpt lat="44.76112" lon="5.04939">
        <ele>470</ele>
        <time>2020-02-07T10:34:45.000Z</time>
      </trkpt>
      <trkpt lat="44.76113" lon="5.04939">
        <ele>470</ele>
        <time>2020-02-07T10:34:46.000Z</time>
      </trkpt>
      <trkpt lat="44.76114" lon="5.0494">
        <ele>470</ele>
        <time>2020-02-07T10:34:47.000Z</time>
      </trkpt>
      <trkpt lat="44.76115" lon="5.0494">
        <ele>470</ele>
        <time>2020-02-07T10:34:48.000Z</time>
      </trkpt>
      <trkpt lat="44.76116" lon="5.0494">
        <ele>471</ele>
        <time>2020-02-07T10:34:49.000Z</time>
      </trkpt>
      <trkpt lat="44.76117" lon="5.0494">
        <ele>471</ele>
        <time>2020-02-07T10:34:50.000Z</time>
      </trkpt>
      <trkpt lat="44.76118" lon="5.0494">
        <ele>471</ele>
        <time>2020-02-07T10:34:51.000Z</time>
      </trkpt>
      <trkpt lat="44.76119" lon="5.0494">
        <ele>471</ele>
        <time>2020-02-07T10:34:52.000Z</time>
      </trkpt>
      <trkpt lat="44.7612" lon="5.0494">
        <ele>471</ele>
        <time>2020-02-07T10:34:53.000Z</time>
      </trkpt>
      <trkpt lat="44.76121" lon="5.0494">
        <ele>471</ele>
        <time>2020-02-07T10:34:54.000Z</time>
      </trkpt>
      <trkpt lat="44.76122" lon="5.0494">
        <ele>471</ele>
        <time>2020-02-07T10:34:55.000Z</time>
      </trkpt>
      <trkpt lat="44.76123" lon="5.0494">
        <ele>471</ele>
        <time>2020-02-07T10:34:56.000Z</time>
      </trkpt>
      <trkpt lat="44.76124" lon="5.0494">
        <ele>471</ele>
        <time>2020-02-07T10:34:57.000Z</time>
      </trkpt>
      <trkpt lat="44.76125" lon="5.0494">
        <ele>471</ele>
        <time>2020-02-07T10:34:58.000Z</time>
      </trkpt>
      <trkpt lat="44.76126" lon="5.0494">
        <ele>472</ele>
        <time>2020-02-07T10:34:59.000Z</time>
      </trkpt>
      <trkpt lat="44.76127" lon="5.0494">
        <ele>472</ele>
        <time>2020-02-07T10:35:00.000Z</time>
      </trkpt>
      <trkpt lat="44.76128" lon="5.0494">
        <ele>472</ele>
        <time>2020-02-07T10:35:01.000Z</time>
      </trkpt>
      <trkpt lat="44.76129" lon="5.0494">
        <ele>472</ele>
        <time>2020-02-07T10:35:02.000Z</time>
      </trkpt>
      <trkpt lat="44.7613" lon="5.0494">
        <ele>472</ele>
        <time>2020-02-07T10:35:03.000Z</time>
      </trkpt>
      <trkpt lat="44.76132" lon="5.0494">
        <ele>472</ele>
        <time>2020-02-07T10:35:04.000Z</time>
      </trkpt>
      <trkpt lat="44.76133" lon="5.0494">
        <ele>472</ele>
        <time>2020-02-07T10:35:05.000Z</time>
      </trkpt>
      <trkpt lat="44.76134" lon="5.0494">
        <ele>472</ele>
        <time>2020-02-07T10:35:06.000Z</time>
      </trkpt>
      <trkpt lat="44.76135" lon="5.0494">
        <ele>472</ele>
        <time>2020-02-07T10:35:07.000Z</time>
      </trkpt>
      <trkpt lat="44.76136" lon="5.0494">
        <ele>472</ele>
        <time>2020-02-07T10:35:08.000Z</time>
      </trkpt>
      <trkpt lat="44.76137" lon="5.04939">
        <ele>472</ele>
        <time>2020-02-07T10:35:09.000Z</time>
      </trkpt>
      <trkpt lat="44.76138" lon="5.04939">
        <ele>473</ele>
        <time>2020-02-07T10:35:10.000Z</time>
      </trkpt>
      <trkpt lat="44.76139" lon="5.0494">
        <ele>473</ele>
        <time>2020-02-07T10:35:11.000Z</time>
      </trkpt>
      <trkpt lat="44.7614" lon="5.0494">
        <ele>473</ele>
        <time>2020-02-07T10:35:12.000Z</time>
      </trkpt>
      <trkpt lat="44.76141" lon="5.0494">
        <ele>473</ele>
        <time>2020-02-07T10:35:13.000Z</time>
      </trkpt>
      <trkpt lat="44.76142" lon="5.0494">
        <ele>473</ele>
        <time>2020-02-07T10:35:14.000Z</time>
      </trkpt>
      <trkpt lat="44.76143" lon="5.0494">
        <ele>473</ele>
        <time>2020-02-07T10:35:15.000Z</time>
      </trkpt>
      <trkpt lat="44.76145" lon="5.0494">
        <ele>473</ele>
        <time>2020-02-07T10:35:16.000Z</time>
      </trkpt>
      <trkpt lat="44.76146" lon="5.0494">
        <ele>473</ele>
        <time>2020-02-07T10:35:17.000Z</time>
      </trkpt>
      <trkpt lat="44.76147" lon="5.0494">
        <ele>473</ele>
        <time>2020-02-07T10:35:18.000Z</time>
      </trkpt>
      <trkpt lat="44.76148" lon="5.04941">
        <ele>473</ele>
        <time>2020-02-07T10:35:19.000Z</time>
      </trkpt>
      <trkpt lat="44.76149" lon="5.04941">
        <ele>473</ele>
        <time>2020-02-07T10:35:20.000Z</time>
      </trkpt>
      <trkpt lat="44.7615" lon="5.04941">
        <ele>473</ele>
        <time>2020-02-07T10:35:21.000Z</time>
      </trkpt>
      <trkpt lat="44.76151" lon="5.04941">
        <ele>473</ele>
        <time>2020-02-07T10:35:22.000Z</time>
      </trkpt>
      <trkpt lat="44.76152" lon="5.04942">
        <ele>473</ele>
        <time>2020-02-07T10:35:23.000Z</time>
      </trkpt>
      <trkpt lat="44.76153" lon="5.04942">
        <ele>473</ele>
        <time>2020-02-07T10:35:24.000Z</time>
      </trkpt>
      <trkpt lat="44.76155" lon="5.04943">
        <ele>473</ele>
        <time>2020-02-07T10:35:25.000Z</time>
      </trkpt>
      <trkpt lat="44.76156" lon="5.04943">
        <ele>473</ele>
        <time>2020-02-07T10:35:26.000Z</time>
      </trkpt>
      <trkpt lat="44.76157" lon="5.04944">
        <ele>473</ele>
        <time>2020-02-07T10:35:27.000Z</time>
      </trkpt>
      <trkpt lat="44.76158" lon="5.04944">
        <ele>473</ele>
        <time>2020-02-07T10:35:28.000Z</time>
      </trkpt>
      <trkpt lat="44.76159" lon="5.04945">
        <ele>473</ele>
        <time>2020-02-07T10:35:29.000Z</time>
      </trkpt>
      <trkpt lat="44.7616" lon="5.04945">
        <ele>473</ele>
        <time>2020-02-07T10:35:30.000Z</time>
      </trkpt>
      <trkpt lat="44.76161" lon="5.04946">
        <ele>473</ele>
        <time>2020-02-07T10:35:31.000Z</time>
      </trkpt>
      <trkpt lat="44.76162" lon="5.04946">
        <ele>473</ele>
        <time>2020-02-07T10:35:32.000Z</time>
      </trkpt>
      <trkpt lat="44.76163" lon="5.04946">
        <ele>473</ele>
        <time>2020-02-07T10:35:33.000Z</time>
      </trkpt>
      <trkpt lat="44.76164" lon="5.04946">
        <ele>473</ele>
        <time>2020-02-07T10:35:34.000Z</time>
      </trkpt>
      <trkpt lat="44.76165" lon="5.04946">
        <ele>473</ele>
        <time>2020-02-07T10:35:35.000Z</time>
      </trkpt>
      <trkpt lat="44.76165" lon="5.04946">
        <ele>473</ele>
        <time>2020-02-07T10:35:36.000Z</time>
      </trkpt>
      <trkpt lat="44.76166" lon="5.04945">
        <ele>473</ele>
        <time>2020-02-07T10:35:37.000Z</time>
      </trkpt>
      <trkpt lat="44.76167" lon="5.04945">
        <ele>473</ele>
        <time>2020-02-07T10:35:38.000Z</time>
      </trkpt>
      <trkpt lat="44.76168" lon="5.04945">
        <ele>473</ele>
        <time>2020-02-07T10:35:39.000Z</time>
      </trkpt>
      <trkpt lat="44.76169" lon="5.04945">
        <ele>473</ele>
        <time>2020-02-07T10:35:40.000Z</time>
      </trkpt>
      <trkpt lat="44.7617" lon="5.04945">
        <ele>473</ele>
        <time>2020-02-07T10:35:41.000Z</time>
      </trkpt>
      <trkpt lat="44.76172" lon="5.04945">
        <ele>473</ele>
        <time>2020-02-07T10:35:42.000Z</time>
      </trkpt>
      <trkpt lat="44.76173" lon="5.04944">
        <ele>473</ele>
        <time>2020-02-07T10:35:43.000Z</time>
      </trkpt>
      <trkpt lat="44.76174" lon="5.04944">
        <ele>473</ele>
        <time>2020-02-07T10:35:44.000Z</time>
      </trkpt>
      <trkpt lat="44.76175" lon="5.04944">
        <ele>474</ele>
        <time>2020-02-07T10:35:45.000Z</time>
      </trkpt>
      <trkpt lat="44.76176" lon="5.04944">
        <ele>474</ele>
        <time>2020-02-07T10:35:46.000Z</time>
      </trkpt>
      <trkpt lat="44.76177" lon="5.04944">
        <ele>474</ele>
        <time>2020-02-07T10:35:47.000Z</time>
      </trkpt>
      <trkpt lat="44.76178" lon="5.04944">
        <ele>474</ele>
        <time>2020-02-07T10:35:48.000Z</time>
      </trkpt>
      <trkpt lat="44.76179" lon="5.04945">
        <ele>474</ele>
        <time>2020-02-07T10:35:49.000Z</time>
      </trkpt>
      <trkpt lat="44.7618" lon="5.04945">
        <ele>474</ele>
        <time>2020-02-07T10:35:50.000Z</time>
      </trkpt>
      <trkpt lat="44.76181" lon="5.04945">
        <ele>474</ele>
        <time>2020-02-07T10:35:51.000Z</time>
      </trkpt>
      <trkpt lat="44.76182" lon="5.04945">
        <ele>474</ele>
        <time>2020-02-07T10:35:52.000Z</time>
      </trkpt>
      <trkpt lat="44.76183" lon="5.04945">
        <ele>474</ele>
        <time>2020-02-07T10:35:53.000Z</time>
      </trkpt>
      <trkpt lat="44.76184" lon="5.04945">
        <ele>474</ele>
        <time>2020-02-07T10:35:54.000Z</time>
      </trkpt>
      <trkpt lat="44.76186" lon="5.04945">
        <ele>474</ele>
        <time>2020-02-07T10:35:55.000Z</time>
      </trkpt>
      <trkpt lat="44.76187" lon="5.04946">
        <ele>473</ele>
        <time>2020-02-07T10:35:56.000Z</time>
      </trkpt>
      <trkpt lat="44.76188" lon="5.04946">
        <ele>473</ele>
        <time>2020-02-07T10:35:57.000Z</time>
      </trkpt>
      <trkpt lat="44.76189" lon="5.04946">
        <ele>473</ele>
        <time>2020-02-07T10:35:58.000Z</time>
      </trkpt>
      <trkpt lat="44.7619" lon="5.04946">
        <ele>473</ele>
        <time>2020-02-07T10:35:59.000Z</time>
      </trkpt>
      <trkpt lat="44.76191" lon="5.04945">
        <ele>473</ele>
        <time>2020-02-07T10:36:00.000Z</time>
      </trkpt>
      <trkpt lat="44.76192" lon="5.04945">
        <ele>473</ele>
        <time>2020-02-07T10:36:01.000Z</time>
      </trkpt>
      <trkpt lat="44.76193" lon="5.04945">
        <ele>473</ele>
        <time>2020-02-07T10:36:02.000Z</time>
      </trkpt>
      <trkpt lat="44.76194" lon="5.04945">
        <ele>472</ele>
        <time>2020-02-07T10:36:03.000Z</time>
      </trkpt>
      <trkpt lat="44.76195" lon="5.04945">
        <ele>472</ele>
        <time>2020-02-07T10:36:04.000Z</time>
      </trkpt>
      <trkpt lat="44.76196" lon="5.04945">
        <ele>472</ele>
        <time>2020-02-07T10:36:05.000Z</time>
      </trkpt>
      <trkpt lat="44.76197" lon="5.04945">
        <ele>472</ele>
        <time>2020-02-07T10:36:06.000Z</time>
      </trkpt>
      <trkpt lat="44.76198" lon="5.04945">
        <ele>472</ele>
        <time>2020-02-07T10:36:07.000Z</time>
      </trkpt>
      <trkpt lat="44.76199" lon="5.04944">
        <ele>472</ele>
        <time>2020-02-07T10:36:08.000Z</time>
      </trkpt>
      <trkpt lat="44.762" lon="5.04944">
        <ele>472</ele>
        <time>2020-02-07T10:36:09.000Z</time>
      </trkpt>
      <trkpt lat="44.76202" lon="5.04944">
        <ele>472</ele>
        <time>2020-02-07T10:36:10.000Z</time>
      </trkpt>
      <trkpt lat="44.76203" lon="5.04944">
        <ele>472</ele>
        <time>2020-02-07T10:36:11.000Z</time>
      </trkpt>
      <trkpt lat="44.76204" lon="5.04944">
        <ele>472</ele>
        <time>2020-02-07T10:36:12.000Z</time>
      </trkpt>
      <trkpt lat="44.76205" lon="5.04944">
        <ele>472</ele>
        <time>2020-02-07T10:36:13.000Z</time>
      </trkpt>
      <trkpt lat="44.76205" lon="5.04944">
        <ele>472</ele>
        <time>2020-02-07T10:36:14.000Z</time>
      </trkpt>
      <trkpt lat="44.76206" lon="5.04944">
        <ele>472</ele>
        <time>2020-02-07T10:36:15.000Z</time>
      </trkpt>
      <trkpt lat="44.76207" lon="5.04945">
        <ele>472</ele>
        <time>2020-02-07T10:36:16.000Z</time>
      </trkpt>
      <trkpt lat="44.76208" lon="5.04945">
        <ele>472</ele>
        <time>2020-02-07T10:36:17.000Z</time>
      </trkpt>
      <trkpt lat="44.76209" lon="5.04945">
        <ele>472</ele>
        <time>2020-02-07T10:36:18.000Z</time>
      </trkpt>
      <trkpt lat="44.7621" lon="5.04946">
        <ele>472</ele>
        <time>2020-02-07T10:36:19.000Z</time>
      </trkpt>
      <trkpt lat="44.76211" lon="5.04946">
        <ele>472</ele>
        <time>2020-02-07T10:36:20.000Z</time>
      </trkpt>
      <trkpt lat="44.76212" lon="5.04947">
        <ele>471</ele>
        <time>2020-02-07T10:36:21.000Z</time>
      </trkpt>
      <trkpt lat="44.76213" lon="5.04947">
        <ele>471</ele>
        <time>2020-02-07T10:36:22.000Z</time>
      </trkpt>
      <trkpt lat="44.76214" lon="5.04948">
        <ele>471</ele>
        <time>2020-02-07T10:36:23.000Z</time>
      </trkpt>
      <trkpt lat="44.76214" lon="5.04949">
        <ele>471</ele>
        <time>2020-02-07T10:36:24.000Z</time>
      </trkpt>
      <trkpt lat="44.76215" lon="5.04949">
        <ele>471</ele>
        <time>2020-02-07T10:36:25.000Z</time>
      </trkpt>
      <trkpt lat="44.76215" lon="5.0495">
        <ele>471</ele>
        <time>2020-02-07T10:36:26.000Z</time>
      </trkpt>
      <trkpt lat="44.76215" lon="5.0495">
        <ele>471</ele>
        <time>2020-02-07T10:36:27.000Z</time>
      </trkpt>
      <trkpt lat="44.76215" lon="5.0495">
        <ele>471</ele>
        <time>2020-02-07T10:36:28.000Z</time>
      </trkpt>
      <trkpt lat="44.76215" lon="5.0495">
        <ele>471</ele>
        <time>2020-02-07T10:36:29.000Z</time>
      </trkpt>
      <trkpt lat="44.76215" lon="5.0495">
        <ele>471</ele>
        <time>2020-02-07T10:36:30.000Z</time>
      </trkpt>
      <trkpt lat="44.76215" lon="5.0495">
        <ele>471</ele>
        <time>2020-02-07T10:36:31.000Z</time>
      </trkpt>
      <trkpt lat="44.76216" lon="5.04951">
        <ele>471</ele>
        <time>2020-02-07T10:36:32.000Z</time>
      </trkpt>
      <trkpt lat="44.76216" lon="5.04951">
        <ele>471</ele>
        <time>2020-02-07T10:36:33.000Z</time>
      </trkpt>
      <trkpt lat="44.76216" lon="5.04951">
        <ele>471</ele>
        <time>2020-02-07T10:36:34.000Z</time>
      </trkpt>
      <trkpt lat="44.76215" lon="5.04951">
        <ele>471</ele>
        <time>2020-02-07T10:36:35.000Z</time>
      </trkpt>
      <trkpt lat="44.76216" lon="5.04952">
        <ele>470</ele>
        <time>2020-02-07T10:36:36.000Z</time>
      </trkpt>
      <trkpt lat="44.76215" lon="5.04952">
        <ele>470</ele>
        <time>2020-02-07T10:36:37.000Z</time>
      </trkpt>
      <trkpt lat="44.76215" lon="5.04953">
        <ele>470</ele>
        <time>2020-02-07T10:36:38.000Z</time>
      </trkpt>
      <trkpt lat="44.76215" lon="5.04953">
        <ele>470</ele>
        <time>2020-02-07T10:36:39.000Z</time>
      </trkpt>
      <trkpt lat="44.76215" lon="5.04953">
        <ele>470</ele>
        <time>2020-02-07T10:36:40.000Z</time>
      </trkpt>
      <trkpt lat="44.76215" lon="5.04953">
        <ele>470</ele>
        <time>2020-02-07T10:36:41.000Z</time>
      </trkpt>
      <trkpt lat="44.76216" lon="5.04953">
        <ele>470</ele>
        <time>2020-02-07T10:36:42.000Z</time>
      </trkpt>
      <trkpt lat="44.76215" lon="5.04954">
        <ele>470</ele>
        <time>2020-02-07T10:36:43.000Z</time>
      </trkpt>
      <trkpt lat="44.76215" lon="5.04954">
        <ele>470</ele>
        <time>2020-02-07T10:36:44.000Z</time>
      </trkpt>
      <trkpt lat="44.76215" lon="5.04954">
        <ele>470</ele>
        <time>2020-02-07T10:36:45.000Z</time>
      </trkpt>
      <trkpt lat="44.76215" lon="5.04954">
        <ele>470</ele>
        <time>2020-02-07T10:36:46.000Z</time>
      </trkpt>
      <trkpt lat="44.76215" lon="5.04954">
        <ele>470</ele>
        <time>2020-02-07T10:36:47.000Z</time>
      </trkpt>
      <trkpt lat="44.76215" lon="5.04954">
        <ele>470</ele>
        <time>2020-02-07T10:36:48.000Z</time>
      </trkpt>
      <trkpt lat="44.76215" lon="5.04954">
        <ele>470</ele>
        <time>2020-02-07T10:36:49.000Z</time>
      </trkpt>
      <trkpt lat="44.76216" lon="5.04954">
        <ele>470</ele>
        <time>2020-02-07T10:36:50.000Z</time>
      </trkpt>
      <trkpt lat="44.76216" lon="5.04954">
        <ele>470</ele>
        <time>2020-02-07T10:36:51.000Z</time>
      </trkpt>
      <trkpt lat="44.76216" lon="5.04955">
        <ele>470</ele>
        <time>2020-02-07T10:36:52.000Z</time>
      </trkpt>
      <trkpt lat="44.76216" lon="5.04955">
        <ele>469</ele>
        <time>2020-02-07T10:36:53.000Z</time>
      </trkpt>
      <trkpt lat="44.76216" lon="5.04955">
        <ele>469</ele>
        <time>2020-02-07T10:36:54.000Z</time>
      </trkpt>
      <trkpt lat="44.76216" lon="5.04955">
        <ele>469</ele>
        <time>2020-02-07T10:36:55.000Z</time>
      </trkpt>
      <trkpt lat="44.76216" lon="5.04955">
        <ele>469</ele>
        <time>2020-02-07T10:36:56.000Z</time>
      </trkpt>
      <trkpt lat="44.76216" lon="5.04955">
        <ele>469</ele>
        <time>2020-02-07T10:36:57.000Z</time>
      </trkpt>
      <trkpt lat="44.76216" lon="5.04955">
        <ele>469</ele>
        <time>2020-02-07T10:36:58.000Z</time>
      </trkpt>
      <trkpt lat="44.76216" lon="5.04955">
        <ele>469</ele>
        <time>2020-02-07T10:36:59.000Z</time>
      </trkpt>
      <trkpt lat="44.76216" lon="5.04955">
        <ele>469</ele>
        <time>2020-02-07T10:37:00.000Z</time>
      </trkpt>
      <trkpt lat="44.76216" lon="5.04955">
        <ele>469</ele>
        <time>2020-02-07T10:37:01.000Z</time>
      </trkpt>
      <trkpt lat="44.76216" lon="5.04955">
        <ele>469</ele>
        <time>2020-02-07T10:37:02.000Z</time>
      </trkpt>
      <trkpt lat="44.76216" lon="5.04955">
        <ele>469</ele>
        <time>2020-02-07T10:37:03.000Z</time>
      </trkpt>
      <trkpt lat="44.76216" lon="5.04955">
        <ele>469</ele>
        <time>2020-02-07T10:37:04.000Z</time>
      </trkpt>
      <trkpt lat="44.76216" lon="5.04955">
        <ele>469</ele>
        <time>2020-02-07T10:37:05.000Z</time>
      </trkpt>
      <trkpt lat="44.76216" lon="5.04955">
        <ele>469</ele>
        <time>2020-02-07T10:37:06.000Z</time>
      </trkpt>
      <trkpt lat="44.76216" lon="5.04955">
        <ele>469</ele>
        <time>2020-02-07T10:37:07.000Z</time>
      </trkpt>
      <trkpt lat="44.76216" lon="5.04955">
        <ele>469</ele>
        <time>2020-02-07T10:37:08.000Z</time>
      </trkpt>
      <trkpt lat="44.76216" lon="5.04955">
        <ele>469</ele>
        <time>2020-02-07T10:37:09.000Z</time>
      </trkpt>
      <trkpt lat="44.76216" lon="5.04955">
        <ele>469</ele>
        <time>2020-02-07T10:37:10.000Z</time>
      </trkpt>
      <trkpt lat="44.76216" lon="5.04956">
        <ele>469</ele>
        <time>2020-02-07T10:37:11.000Z</time>
      </trkpt>
      <trkpt lat="44.76216" lon="5.04956">
        <ele>469</ele>
        <time>2020-02-07T10:37:12.000Z</time>
      </trkpt>
      <trkpt lat="44.76216" lon="5.04956">
        <ele>469</ele>
        <time>2020-02-07T10:37:13.000Z</time>
      </trkpt>
      <trkpt lat="44.76216" lon="5.04956">
        <ele>469</ele>
        <time>2020-02-07T10:37:14.000Z</time>
      </trkpt>
      <trkpt lat="44.76216" lon="5.04956">
        <ele>469</ele>
        <time>2020-02-07T10:37:15.000Z</time>
      </trkpt>
      <trkpt lat="44.76216" lon="5.04956">
        <ele>469</ele>
        <time>2020-02-07T10:37:16.000Z</time>
      </trkpt>
      <trkpt lat="44.76216" lon="5.04956">
        <ele>469</ele>
        <time>2020-02-07T10:37:17.000Z</time>
      </trkpt>
      <trkpt lat="44.76216" lon="5.04957">
        <ele>469</ele>
        <time>2020-02-07T10:37:18.000Z</time>
      </trkpt>
      <trkpt lat="44.76216" lon="5.04957">
        <ele>469</ele>
        <time>2020-02-07T10:37:19.000Z</time>
      </trkpt>
      <trkpt lat="44.76216" lon="5.04957">
        <ele>469</ele>
        <time>2020-02-07T10:37:20.000Z</time>
      </trkpt>
      <trkpt lat="44.76216" lon="5.04957">
        <ele>469</ele>
        <time>2020-02-07T10:37:21.000Z</time>
      </trkpt>
      <trkpt lat="44.76216" lon="5.04957">
        <ele>469</ele>
        <time>2020-02-07T10:37:22.000Z</time>
      </trkpt>
      <trkpt lat="44.76216" lon="5.04957">
        <ele>469</ele>
        <time>2020-02-07T10:37:23.000Z</time>
      </trkpt>
      <trkpt lat="44.76216" lon="5.04957">
        <ele>469</ele>
        <time>2020-02-07T10:37:24.000Z</time>
      </trkpt>
      <trkpt lat="44.76216" lon="5.04957">
        <ele>469</ele>
        <time>2020-02-07T10:37:25.000Z</time>
      </trkpt>
      <trkpt lat="44.76216" lon="5.04957">
        <ele>469</ele>
        <time>2020-02-07T10:37:26.000Z</time>
      </trkpt>
      <trkpt lat="44.76216" lon="5.04957">
        <ele>469</ele>
        <time>2020-02-07T10:37:27.000Z</time>
      </trkpt>
      <trkpt lat="44.76216" lon="5.04957">
        <ele>469</ele>
        <time>2020-02-07T10:37:28.000Z</time>
      </trkpt>
      <trkpt lat="44.76216" lon="5.04957">
        <ele>469</ele>
        <time>2020-02-07T10:37:29.000Z</time>
      </trkpt>
      <trkpt lat="44.76216" lon="5.04957">
        <ele>469</ele>
        <time>2020-02-07T10:37:30.000Z</time>
      </trkpt>
      <trkpt lat="44.76216" lon="5.04957">
        <ele>469</ele>
        <time>2020-02-07T10:37:31.000Z</time>
      </trkpt>
      <trkpt lat="44.76216" lon="5.04957">
        <ele>468</ele>
        <time>2020-02-07T10:37:32.000Z</time>
      </trkpt>
      <trkpt lat="44.76216" lon="5.04957">
        <ele>468</ele>
        <time>2020-02-07T10:37:33.000Z</time>
      </trkpt>
      <trkpt lat="44.76216" lon="5.04957">
        <ele>468</ele>
        <time>2020-02-07T10:37:34.000Z</time>
      </trkpt>
      <trkpt lat="44.76216" lon="5.04957">
        <ele>468</ele>
        <time>2020-02-07T10:37:35.000Z</time>
      </trkpt>
      <trkpt lat="44.76216" lon="5.04958">
        <ele>468</ele>
        <time>2020-02-07T10:37:36.000Z</time>
      </trkpt>
      <trkpt lat="44.76216" lon="5.04958">
        <ele>468</ele>
        <time>2020-02-07T10:37:37.000Z</time>
      </trkpt>
      <trkpt lat="44.76216" lon="5.04958">
        <ele>468</ele>
        <time>2020-02-07T10:37:38.000Z</time>
      </trkpt>
      <trkpt lat="44.76216" lon="5.04958">
        <ele>468</ele>
        <time>2020-02-07T10:37:39.000Z</time>
      </trkpt>
      <trkpt lat="44.76216" lon="5.04958">
        <ele>468</ele>
        <time>2020-02-07T10:37:40.000Z</time>
      </trkpt>
      <trkpt lat="44.76216" lon="5.04958">
        <ele>468</ele>
        <time>2020-02-07T10:37:41.000Z</time>
      </trkpt>
      <trkpt lat="44.76216" lon="5.04958">
        <ele>468</ele>
        <time>2020-02-07T10:37:42.000Z</time>
      </trkpt>
      <trkpt lat="44.76217" lon="5.04958">
        <ele>468</ele>
        <time>2020-02-07T10:37:43.000Z</time>
      </trkpt>
      <trkpt lat="44.76217" lon="5.04958">
        <ele>468</ele>
        <time>2020-02-07T10:37:44.000Z</time>
      </trkpt>
      <trkpt lat="44.76217" lon="5.04958">
        <ele>468</ele>
        <time>2020-02-07T10:37:45.000Z</time>
      </trkpt>
      <trkpt lat="44.76217" lon="5.04958">
        <ele>468</ele>
        <time>2020-02-07T10:37:46.000Z</time>
      </trkpt>
      <trkpt lat="44.76216" lon="5.04958">
        <ele>468</ele>
        <time>2020-02-07T10:37:47.000Z</time>
      </trkpt>
      <trkpt lat="44.76216" lon="5.04958">
        <ele>468</ele>
        <time>2020-02-07T10:37:48.000Z</time>
      </trkpt>
      <trkpt lat="44.76216" lon="5.04958">
        <ele>468</ele>
        <time>2020-02-07T10:37:49.000Z</time>
      </trkpt>
      <trkpt lat="44.76216" lon="5.04958">
        <ele>468</ele>
        <time>2020-02-07T10:37:50.000Z</time>
      </trkpt>
      <trkpt lat="44.76216" lon="5.04958">
        <ele>468</ele>
        <time>2020-02-07T10:37:51.000Z</time>
      </trkpt>
      <trkpt lat="44.76216" lon="5.04958">
        <ele>468</ele>
        <time>2020-02-07T10:37:52.000Z</time>
      </trkpt>
      <trkpt lat="44.76217" lon="5.04958">
        <ele>468</ele>
        <time>2020-02-07T10:37:53.000Z</time>
      </trkpt>
      <trkpt lat="44.76217" lon="5.04959">
        <ele>468</ele>
        <time>2020-02-07T10:37:54.000Z</time>
      </trkpt>
      <trkpt lat="44.76217" lon="5.04959">
        <ele>468</ele>
        <time>2020-02-07T10:37:55.000Z</time>
      </trkpt>
      <trkpt lat="44.76217" lon="5.04959">
        <ele>468</ele>
        <time>2020-02-07T10:37:56.000Z</time>
      </trkpt>
      <trkpt lat="44.76217" lon="5.04959">
        <ele>468</ele>
        <time>2020-02-07T10:37:57.000Z</time>
      </trkpt>
      <trkpt lat="44.76217" lon="5.04959">
        <ele>468</ele>
        <time>2020-02-07T10:37:58.000Z</time>
      </trkpt>
      <trkpt lat="44.76217" lon="5.04959">
        <ele>468</ele>
        <time>2020-02-07T10:37:59.000Z</time>
      </trkpt>
      <trkpt lat="44.76217" lon="5.04959">
        <ele>468</ele>
        <time>2020-02-07T10:38:00.000Z</time>
      </trkpt>
      <trkpt lat="44.76217" lon="5.04959">
        <ele>468</ele>
        <time>2020-02-07T10:38:01.000Z</time>
      </trkpt>
      <trkpt lat="44.76217" lon="5.04959">
        <ele>468</ele>
        <time>2020-02-07T10:38:02.000Z</time>
      </trkpt>
      <trkpt lat="44.76217" lon="5.04959">
        <ele>468</ele>
        <time>2020-02-07T10:38:03.000Z</time>
      </trkpt>
      <trkpt lat="44.76217" lon="5.04959">
        <ele>468</ele>
        <time>2020-02-07T10:38:04.000Z</time>
      </trkpt>
      <trkpt lat="44.76217" lon="5.04959">
        <ele>468</ele>
        <time>2020-02-07T10:38:05.000Z</time>
      </trkpt>
      <trkpt lat="44.76217" lon="5.04959">
        <ele>468</ele>
        <time>2020-02-07T10:38:06.000Z</time>
      </trkpt>
      <trkpt lat="44.76217" lon="5.04959">
        <ele>468</ele>
        <time>2020-02-07T10:38:07.000Z</time>
      </trkpt>
      <trkpt lat="44.76217" lon="5.04959">
        <ele>468</ele>
        <time>2020-02-07T10:38:08.000Z</time>
      </trkpt>
      <trkpt lat="44.76217" lon="5.04959">
        <ele>468</ele>
        <time>2020-02-07T10:38:09.000Z</time>
      </trkpt>
      <trkpt lat="44.76217" lon="5.04959">
        <ele>468</ele>
        <time>2020-02-07T10:38:10.000Z</time>
      </trkpt>
      <trkpt lat="44.76217" lon="5.04959">
        <ele>468</ele>
        <time>2020-02-07T10:38:11.000Z</time>
      </trkpt>
      <trkpt lat="44.76217" lon="5.04959">
        <ele>468</ele>
        <time>2020-02-07T10:38:12.000Z</time>
      </trkpt>
      <trkpt lat="44.76217" lon="5.04959">
        <ele>468</ele>
        <time>2020-02-07T10:38:13.000Z</time>
      </trkpt>
      <trkpt lat="44.76217" lon="5.04959">
        <ele>468</ele>
        <time>2020-02-07T10:38:14.000Z</time>
      </trkpt>
      <trkpt lat="44.76217" lon="5.04959">
        <ele>468</ele>
        <time>2020-02-07T10:38:15.000Z</time>
      </trkpt>
      <trkpt lat="44.76217" lon="5.04959">
        <ele>468</ele>
        <time>2020-02-07T10:38:16.000Z</time>
      </trkpt>
      <trkpt lat="44.76217" lon="5.04959">
        <ele>468</ele>
        <time>2020-02-07T10:38:17.000Z</time>
      </trkpt>
      <trkpt lat="44.76217" lon="5.04959">
        <ele>468</ele>
        <time>2020-02-07T10:38:18.000Z</time>
      </trkpt>
      <trkpt lat="44.76217" lon="5.04959">
        <ele>468</ele>
        <time>2020-02-07T10:38:19.000Z</time>
      </trkpt>
      <trkpt lat="44.76217" lon="5.04959">
        <ele>468</ele>
        <time>2020-02-07T10:38:20.000Z</time>
      </trkpt>
      <trkpt lat="44.76217" lon="5.04959">
        <ele>468</ele>
        <time>2020-02-07T10:38:21.000Z</time>
      </trkpt>
      <trkpt lat="44.76217" lon="5.04959">
        <ele>468</ele>
        <time>2020-02-07T10:38:22.000Z</time>
      </trkpt>
      <trkpt lat="44.76217" lon="5.04959">
        <ele>468</ele>
        <time>2020-02-07T10:38:23.000Z</time>
      </trkpt>
      <trkpt lat="44.76217" lon="5.04959">
        <ele>468</ele>
        <time>2020-02-07T10:38:24.000Z</time>
      </trkpt>
      <trkpt lat="44.76217" lon="5.04959">
        <ele>468</ele>
        <time>2020-02-07T10:38:25.000Z</time>
      </trkpt>
      <trkpt lat="44.76217" lon="5.04959">
        <ele>468</ele>
        <time>2020-02-07T10:38:26.000Z</time>
      </trkpt>
      <trkpt lat="44.76217" lon="5.04959">
        <ele>468</ele>
        <time>2020-02-07T10:38:27.000Z</time>
      </trkpt>
      <trkpt lat="44.76217" lon="5.04959">
        <ele>468</ele>
        <time>2020-02-07T10:38:28.000Z</time>
      </trkpt>
      <trkpt lat="44.76217" lon="5.04959">
        <ele>468</ele>
        <time>2020-02-07T10:38:29.000Z</time>
      </trkpt>
      <trkpt lat="44.76217" lon="5.04959">
        <ele>468</ele>
        <time>2020-02-07T10:38:30.000Z</time>
      </trkpt>
      <trkpt lat="44.76217" lon="5.04959">
        <ele>468</ele>
        <time>2020-02-07T10:38:31.000Z</time>
      </trkpt>
      <trkpt lat="44.76217" lon="5.04959">
        <ele>469</ele>
        <time>2020-02-07T10:38:32.000Z</time>
      </trkpt>
      <trkpt lat="44.76217" lon="5.04959">
        <ele>469</ele>
        <time>2020-02-07T10:38:33.000Z</time>
      </trkpt>
      <trkpt lat="44.76217" lon="5.04959">
        <ele>469</ele>
        <time>2020-02-07T10:38:34.000Z</time>
      </trkpt>
      <trkpt lat="44.76217" lon="5.04959">
        <ele>469</ele>
        <time>2020-02-07T10:38:35.000Z</time>
      </trkpt>
      <trkpt lat="44.76217" lon="5.04959">
        <ele>469</ele>
        <time>2020-02-07T10:38:36.000Z</time>
      </trkpt>
      <trkpt lat="44.76217" lon="5.04959">
        <ele>469</ele>
        <time>2020-02-07T10:38:37.000Z</time>
      </trkpt>
      <trkpt lat="44.76217" lon="5.04959">
        <ele>469</ele>
        <time>2020-02-07T10:38:38.000Z</time>
      </trkpt>
      <trkpt lat="44.76217" lon="5.04959">
        <ele>469</ele>
        <time>2020-02-07T10:38:39.000Z</time>
      </trkpt>
      <trkpt lat="44.76217" lon="5.0496">
        <ele>469</ele>
        <time>2020-02-07T10:38:40.000Z</time>
      </trkpt>
      <trkpt lat="44.76217" lon="5.0496">
        <ele>469</ele>
        <time>2020-02-07T10:38:41.000Z</time>
      </trkpt>
      <trkpt lat="44.76217" lon="5.0496">
        <ele>469</ele>
        <time>2020-02-07T10:38:42.000Z</time>
      </trkpt>
      <trkpt lat="44.76217" lon="5.0496">
        <ele>469</ele>
        <time>2020-02-07T10:38:43.000Z</time>
      </trkpt>
      <trkpt lat="44.76217" lon="5.0496">
        <ele>469</ele>
        <time>2020-02-07T10:38:44.000Z</time>
      </trkpt>
      <trkpt lat="44.76217" lon="5.0496">
        <ele>469</ele>
        <time>2020-02-07T10:38:45.000Z</time>
      </trkpt>
      <trkpt lat="44.76217" lon="5.0496">
        <ele>469</ele>
        <time>2020-02-07T10:38:46.000Z</time>
      </trkpt>
      <trkpt lat="44.76217" lon="5.0496">
        <ele>469</ele>
        <time>2020-02-07T10:38:47.000Z</time>
      </trkpt>
      <trkpt lat="44.76218" lon="5.0496">
        <ele>469</ele>
        <time>2020-02-07T10:38:48.000Z</time>
      </trkpt>
      <trkpt lat="44.76218" lon="5.0496">
        <ele>469</ele>
        <time>2020-02-07T10:38:49.000Z</time>
      </trkpt>
      <trkpt lat="44.76218" lon="5.0496">
        <ele>469</ele>
        <time>2020-02-07T10:38:50.000Z</time>
      </trkpt>
      <trkpt lat="44.76218" lon="5.0496">
        <ele>469</ele>
        <time>2020-02-07T10:38:51.000Z</time>
      </trkpt>
      <trkpt lat="44.76218" lon="5.0496">
        <ele>469</ele>
        <time>2020-02-07T10:38:52.000Z</time>
      </trkpt>
      <trkpt lat="44.76218" lon="5.0496">
        <ele>469</ele>
        <time>2020-02-07T10:38:53.000Z</time>
      </trkpt>
      <trkpt lat="44.76218" lon="5.04961">
        <ele>469</ele>
        <time>2020-02-07T10:38:54.000Z</time>
      </trkpt>
      <trkpt lat="44.76218" lon="5.04961">
        <ele>469</ele>
        <time>2020-02-07T10:38:55.000Z</time>
      </trkpt>
      <trkpt lat="44.76218" lon="5.04961">
        <ele>470</ele>
        <time>2020-02-07T10:38:56.000Z</time>
      </trkpt>
      <trkpt lat="44.76218" lon="5.04961">
        <ele>470</ele>
        <time>2020-02-07T10:38:57.000Z</time>
      </trkpt>
      <trkpt lat="44.76218" lon="5.04961">
        <ele>470</ele>
        <time>2020-02-07T10:38:58.000Z</time>
      </trkpt>
      <trkpt lat="44.76218" lon="5.04961">
        <ele>470</ele>
        <time>2020-02-07T10:38:59.000Z</time>
      </trkpt>
      <trkpt lat="44.76218" lon="5.04961">
        <ele>470</ele>
        <time>2020-02-07T10:39:00.000Z</time>
      </trkpt>
      <trkpt lat="44.76218" lon="5.04961">
        <ele>470</ele>
        <time>2020-02-07T10:39:01.000Z</time>
      </trkpt>
      <trkpt lat="44.76218" lon="5.04961">
        <ele>470</ele>
        <time>2020-02-07T10:39:02.000Z</time>
      </trkpt>
      <trkpt lat="44.76218" lon="5.04961">
        <ele>470</ele>
        <time>2020-02-07T10:39:03.000Z</time>
      </trkpt>
      <trkpt lat="44.76218" lon="5.04961">
        <ele>470</ele>
        <time>2020-02-07T10:39:04.000Z</time>
      </trkpt>
      <trkpt lat="44.76218" lon="5.0496">
        <ele>470</ele>
        <time>2020-02-07T10:39:05.000Z</time>
      </trkpt>
      <trkpt lat="44.76218" lon="5.0496">
        <ele>470</ele>
        <time>2020-02-07T10:39:06.000Z</time>
      </trkpt>
      <trkpt lat="44.76218" lon="5.0496">
        <ele>470</ele>
        <time>2020-02-07T10:39:07.000Z</time>
      </trkpt>
      <trkpt lat="44.76218" lon="5.0496">
        <ele>470</ele>
        <time>2020-02-07T10:39:08.000Z</time>
      </trkpt>
      <trkpt lat="44.76218" lon="5.0496">
        <ele>470</ele>
        <time>2020-02-07T10:39:09.000Z</time>
      </trkpt>
      <trkpt lat="44.76218" lon="5.04961">
        <ele>470</ele>
        <time>2020-02-07T10:39:10.000Z</time>
      </trkpt>
      <trkpt lat="44.76218" lon="5.0496">
        <ele>470</ele>
        <time>2020-02-07T10:39:11.000Z</time>
      </trkpt>
      <trkpt lat="44.76218" lon="5.0496">
        <ele>470</ele>
        <time>2020-02-07T10:39:12.000Z</time>
      </trkpt>
      <trkpt lat="44.76218" lon="5.0496">
        <ele>470</ele>
        <time>2020-02-07T10:39:13.000Z</time>
      </trkpt>
      <trkpt lat="44.76218" lon="5.0496">
        <ele>470</ele>
        <time>2020-02-07T10:39:14.000Z</time>
      </trkpt>
      <trkpt lat="44.76218" lon="5.0496">
        <ele>470</ele>
        <time>2020-02-07T10:39:15.000Z</time>
      </trkpt>
      <trkpt lat="44.76218" lon="5.0496">
        <ele>470</ele>
        <time>2020-02-07T10:39:16.000Z</time>
      </trkpt>
      <trkpt lat="44.76218" lon="5.0496">
        <ele>470</ele>
        <time>2020-02-07T10:39:17.000Z</time>
      </trkpt>
      <trkpt lat="44.76218" lon="5.0496">
        <ele>470</ele>
        <time>2020-02-07T10:39:18.000Z</time>
      </trkpt>
      <trkpt lat="44.76218" lon="5.0496">
        <ele>470</ele>
        <time>2020-02-07T10:39:19.000Z</time>
      </trkpt>
      <trkpt lat="44.76218" lon="5.0496">
        <ele>470</ele>
        <time>2020-02-07T10:39:20.000Z</time>
      </trkpt>
      <trkpt lat="44.76218" lon="5.0496">
        <ele>470</ele>
        <time>2020-02-07T10:39:21.000Z</time>
      </trkpt>
      <trkpt lat="44.76218" lon="5.0496">
        <ele>470</ele>
        <time>2020-02-07T10:39:22.000Z</time>
      </trkpt>
      <trkpt lat="44.76218" lon="5.0496">
        <ele>470</ele>
        <time>2020-02-07T10:39:23.000Z</time>
      </trkpt>
      <trkpt lat="44.76218" lon="5.0496">
        <ele>470</ele>
        <time>2020-02-07T10:39:24.000Z</time>
      </trkpt>
      <trkpt lat="44.76218" lon="5.04959">
        <ele>470</ele>
        <time>2020-02-07T10:39:25.000Z</time>
      </trkpt>
      <trkpt lat="44.76218" lon="5.04959">
        <ele>470</ele>
        <time>2020-02-07T10:39:26.000Z</time>
      </trkpt>
      <trkpt lat="44.76218" lon="5.04959">
        <ele>470</ele>
        <time>2020-02-07T10:39:27.000Z</time>
      </trkpt>
      <trkpt lat="44.76218" lon="5.04959">
        <ele>470</ele>
        <time>2020-02-07T10:39:28.000Z</time>
      </trkpt>
      <trkpt lat="44.76218" lon="5.04959">
        <ele>470</ele>
        <time>2020-02-07T10:39:29.000Z</time>
      </trkpt>
      <trkpt lat="44.76218" lon="5.04959">
        <ele>470</ele>
        <time>2020-02-07T10:39:30.000Z</time>
      </trkpt>
      <trkpt lat="44.76218" lon="5.04959">
        <ele>470</ele>
        <time>2020-02-07T10:39:31.000Z</time>
      </trkpt>
      <trkpt lat="44.76218" lon="5.04959">
        <ele>470</ele>
        <time>2020-02-07T10:39:32.000Z</time>
      </trkpt>
      <trkpt lat="44.76218" lon="5.04959">
        <ele>470</ele>
        <time>2020-02-07T10:39:33.000Z</time>
      </trkpt>
      <trkpt lat="44.76218" lon="5.04959">
        <ele>470</ele>
        <time>2020-02-07T10:39:34.000Z</time>
      </trkpt>
      <trkpt lat="44.76218" lon="5.04959">
        <ele>470</ele>
        <time>2020-02-07T10:39:35.000Z</time>
      </trkpt>
      <trkpt lat="44.76217" lon="5.04959">
        <ele>470</ele>
        <time>2020-02-07T10:39:36.000Z</time>
      </trkpt>
      <trkpt lat="44.76217" lon="5.04959">
        <ele>470</ele>
        <time>2020-02-07T10:39:37.000Z</time>
      </trkpt>
      <trkpt lat="44.76217" lon="5.04959">
        <ele>470</ele>
        <time>2020-02-07T10:39:38.000Z</time>
      </trkpt>
      <trkpt lat="44.76217" lon="5.04959">
        <ele>470</ele>
        <time>2020-02-07T10:39:39.000Z</time>
      </trkpt>
      <trkpt lat="44.76217" lon="5.04959">
        <ele>470</ele>
        <time>2020-02-07T10:39:40.000Z</time>
      </trkpt>
      <trkpt lat="44.76217" lon="5.04959">
        <ele>470</ele>
        <time>2020-02-07T10:39:41.000Z</time>
      </trkpt>
      <trkpt lat="44.76217" lon="5.04959">
        <ele>470</ele>
        <time>2020-02-07T10:39:42.000Z</time>
      </trkpt>
      <trkpt lat="44.76217" lon="5.04959">
        <ele>470</ele>
        <time>2020-02-07T10:39:43.000Z</time>
      </trkpt>
      <trkpt lat="44.76217" lon="5.04959">
        <ele>470</ele>
        <time>2020-02-07T10:39:44.000Z</time>
      </trkpt>
      <trkpt lat="44.76217" lon="5.04959">
        <ele>470</ele>
        <time>2020-02-07T10:39:45.000Z</time>
      </trkpt>
      <trkpt lat="44.76217" lon="5.04959">
        <ele>470</ele>
        <time>2020-02-07T10:39:46.000Z</time>
      </trkpt>
      <trkpt lat="44.76217" lon="5.04959">
        <ele>470</ele>
        <time>2020-02-07T10:39:47.000Z</time>
      </trkpt>
      <trkpt lat="44.76217" lon="5.04959">
        <ele>470</ele>
        <time>2020-02-07T10:39:48.000Z</time>
      </trkpt>
      <trkpt lat="44.76217" lon="5.04959">
        <ele>470</ele>
        <time>2020-02-07T10:39:49.000Z</time>
      </trkpt>
      <trkpt lat="44.76217" lon="5.04959">
        <ele>470</ele>
        <time>2020-02-07T10:39:50.000Z</time>
      </trkpt>
      <trkpt lat="44.76217" lon="5.04959">
        <ele>470</ele>
        <time>2020-02-07T10:39:51.000Z</time>
      </trkpt>
      <trkpt lat="44.76217" lon="5.04959">
        <ele>470</ele>
        <time>2020-02-07T10:39:52.000Z</time>
      </trkpt>
      <trkpt lat="44.76217" lon="5.04958">
        <ele>470</ele>
        <time>2020-02-07T10:39:53.000Z</time>
      </trkpt>
      <trkpt lat="44.76217" lon="5.04958">
        <ele>470</ele>
        <time>2020-02-07T10:39:54.000Z</time>
      </trkpt>
      <trkpt lat="44.76217" lon="5.04958">
        <ele>470</ele>
        <time>2020-02-07T10:39:55.000Z</time>
      </trkpt>
      <trkpt lat="44.76217" lon="5.04958">
        <ele>470</ele>
        <time>2020-02-07T10:39:56.000Z</time>
      </trkpt>
      <trkpt lat="44.76217" lon="5.04958">
        <ele>470</ele>
        <time>2020-02-07T10:39:57.000Z</time>
      </trkpt>
      <trkpt lat="44.76217" lon="5.04958">
        <ele>470</ele>
        <time>2020-02-07T10:39:58.000Z</time>
      </trkpt>
      <trkpt lat="44.76217" lon="5.04958">
        <ele>470</ele>
        <time>2020-02-07T10:39:59.000Z</time>
      </trkpt>
      <trkpt lat="44.76217" lon="5.04958">
        <ele>470</ele>
        <time>2020-02-07T10:40:00.000Z</time>
      </trkpt>
      <trkpt lat="44.76217" lon="5.04958">
        <ele>470</ele>
        <time>2020-02-07T10:40:01.000Z</time>
      </trkpt>
      <trkpt lat="44.76217" lon="5.04958">
        <ele>470</ele>
        <time>2020-02-07T10:40:02.000Z</time>
      </trkpt>
      <trkpt lat="44.76217" lon="5.04958">
        <ele>470</ele>
        <time>2020-02-07T10:40:03.000Z</time>
      </trkpt>
      <trkpt lat="44.76217" lon="5.04958">
        <ele>470</ele>
        <time>2020-02-07T10:40:04.000Z</time>
      </trkpt>
      <trkpt lat="44.76217" lon="5.04958">
        <ele>470</ele>
        <time>2020-02-07T10:40:05.000Z</time>
      </trkpt>
      <trkpt lat="44.76217" lon="5.04958">
        <ele>470</ele>
        <time>2020-02-07T10:40:06.000Z</time>
      </trkpt>
      <trkpt lat="44.76217" lon="5.04958">
        <ele>470</ele>
        <time>2020-02-07T10:40:07.000Z</time>
      </trkpt>
      <trkpt lat="44.76217" lon="5.04958">
        <ele>470</ele>
        <time>2020-02-07T10:40:08.000Z</time>
      </trkpt>
      <trkpt lat="44.76217" lon="5.04958">
        <ele>470</ele>
        <time>2020-02-07T10:40:09.000Z</time>
      </trkpt>
      <trkpt lat="44.76217" lon="5.04958">
        <ele>470</ele>
        <time>2020-02-07T10:40:10.000Z</time>
      </trkpt>
      <trkpt lat="44.76217" lon="5.04958">
        <ele>470</ele>
        <time>2020-02-07T10:40:11.000Z</time>
      </trkpt>
      <trkpt lat="44.76217" lon="5.04958">
        <ele>470</ele>
        <time>2020-02-07T10:40:12.000Z</time>
      </trkpt>
      <trkpt lat="44.76217" lon="5.04958">
        <ele>470</ele>
        <time>2020-02-07T10:40:13.000Z</time>
      </trkpt>
      <trkpt lat="44.76216" lon="5.04958">
        <ele>470</ele>
        <time>2020-02-07T10:40:14.000Z</time>
      </trkpt>
      <trkpt lat="44.76216" lon="5.04958">
        <ele>470</ele>
        <time>2020-02-07T10:40:15.000Z</time>
      </trkpt>
      <trkpt lat="44.76217" lon="5.04959">
        <ele>469</ele>
        <time>2020-02-07T10:40:16.000Z</time>
      </trkpt>
      <trkpt lat="44.76216" lon="5.04959">
        <ele>469</ele>
        <time>2020-02-07T10:40:17.000Z</time>
      </trkpt>
      <trkpt lat="44.76216" lon="5.04959">
        <ele>469</ele>
        <time>2020-02-07T10:40:18.000Z</time>
      </trkpt>
      <trkpt lat="44.76216" lon="5.04959">
        <ele>469</ele>
        <time>2020-02-07T10:40:19.000Z</time>
      </trkpt>
      <trkpt lat="44.76216" lon="5.04959">
        <ele>469</ele>
        <time>2020-02-07T10:40:20.000Z</time>
      </trkpt>
      <trkpt lat="44.76216" lon="5.04959">
        <ele>469</ele>
        <time>2020-02-07T10:40:21.000Z</time>
      </trkpt>
      <trkpt lat="44.76215" lon="5.04959">
        <ele>469</ele>
        <time>2020-02-07T10:40:22.000Z</time>
      </trkpt>
      <trkpt lat="44.76215" lon="5.04959">
        <ele>469</ele>
        <time>2020-02-07T10:40:23.000Z</time>
      </trkpt>
      <trkpt lat="44.76216" lon="5.0496">
        <ele>469</ele>
        <time>2020-02-07T10:40:24.000Z</time>
      </trkpt>
      <trkpt lat="44.76216" lon="5.0496">
        <ele>469</ele>
        <time>2020-02-07T10:40:25.000Z</time>
      </trkpt>
      <trkpt lat="44.76217" lon="5.0496">
        <ele>469</ele>
        <time>2020-02-07T10:40:26.000Z</time>
      </trkpt>
      <trkpt lat="44.76217" lon="5.0496">
        <ele>469</ele>
        <time>2020-02-07T10:40:27.000Z</time>
      </trkpt>
      <trkpt lat="44.76217" lon="5.04961">
        <ele>469</ele>
        <time>2020-02-07T10:40:28.000Z</time>
      </trkpt>
      <trkpt lat="44.76217" lon="5.0496">
        <ele>469</ele>
        <time>2020-02-07T10:40:29.000Z</time>
      </trkpt>
      <trkpt lat="44.76217" lon="5.04961">
        <ele>469</ele>
        <time>2020-02-07T10:40:30.000Z</time>
      </trkpt>
      <trkpt lat="44.76217" lon="5.0496">
        <ele>469</ele>
        <time>2020-02-07T10:40:31.000Z</time>
      </trkpt>
      <trkpt lat="44.76217" lon="5.04961">
        <ele>469</ele>
        <time>2020-02-07T10:40:32.000Z</time>
      </trkpt>
      <trkpt lat="44.76218" lon="5.04961">
        <ele>469</ele>
        <time>2020-02-07T10:40:33.000Z</time>
      </trkpt>
      <trkpt lat="44.76218" lon="5.0496">
        <ele>469</ele>
        <time>2020-02-07T10:40:34.000Z</time>
      </trkpt>
      <trkpt lat="44.76219" lon="5.0496">
        <ele>469</ele>
        <time>2020-02-07T10:40:35.000Z</time>
      </trkpt>
      <trkpt lat="44.7622" lon="5.0496">
        <ele>469</ele>
        <time>2020-02-07T10:40:36.000Z</time>
      </trkpt>
      <trkpt lat="44.7622" lon="5.0496">
        <ele>469</ele>
        <time>2020-02-07T10:40:37.000Z</time>
      </trkpt>
      <trkpt lat="44.76221" lon="5.0496">
        <ele>469</ele>
        <time>2020-02-07T10:40:38.000Z</time>
      </trkpt>
      <trkpt lat="44.76222" lon="5.0496">
        <ele>469</ele>
        <time>2020-02-07T10:40:39.000Z</time>
      </trkpt>
      <trkpt lat="44.76223" lon="5.04961">
        <ele>469</ele>
        <time>2020-02-07T10:40:40.000Z</time>
      </trkpt>
      <trkpt lat="44.76223" lon="5.04961">
        <ele>469</ele>
        <time>2020-02-07T10:40:41.000Z</time>
      </trkpt>
      <trkpt lat="44.76224" lon="5.04961">
        <ele>470</ele>
        <time>2020-02-07T10:40:42.000Z</time>
      </trkpt>
      <trkpt lat="44.76225" lon="5.04961">
        <ele>470</ele>
        <time>2020-02-07T10:40:43.000Z</time>
      </trkpt>
      <trkpt lat="44.76226" lon="5.04961">
        <ele>470</ele>
        <time>2020-02-07T10:40:44.000Z</time>
      </trkpt>
      <trkpt lat="44.76227" lon="5.04961">
        <ele>470</ele>
        <time>2020-02-07T10:40:45.000Z</time>
      </trkpt>
      <trkpt lat="44.76228" lon="5.04961">
        <ele>470</ele>
        <time>2020-02-07T10:40:46.000Z</time>
      </trkpt>
      <trkpt lat="44.76229" lon="5.04962">
        <ele>470</ele>
        <time>2020-02-07T10:40:47.000Z</time>
      </trkpt>
      <trkpt lat="44.7623" lon="5.04962">
        <ele>470</ele>
        <time>2020-02-07T10:40:48.000Z</time>
      </trkpt>
      <trkpt lat="44.76231" lon="5.04962">
        <ele>470</ele>
        <time>2020-02-07T10:40:49.000Z</time>
      </trkpt>
      <trkpt lat="44.76232" lon="5.04962">
        <ele>470</ele>
        <time>2020-02-07T10:40:50.000Z</time>
      </trkpt>
      <trkpt lat="44.76233" lon="5.04963">
        <ele>471</ele>
        <time>2020-02-07T10:40:51.000Z</time>
      </trkpt>
      <trkpt lat="44.76234" lon="5.04963">
        <ele>471</ele>
        <time>2020-02-07T10:40:52.000Z</time>
      </trkpt>
      <trkpt lat="44.76235" lon="5.04964">
        <ele>471</ele>
        <time>2020-02-07T10:40:53.000Z</time>
      </trkpt>
      <trkpt lat="44.76236" lon="5.04964">
        <ele>471</ele>
        <time>2020-02-07T10:40:54.000Z</time>
      </trkpt>
      <trkpt lat="44.76236" lon="5.04965">
        <ele>471</ele>
        <time>2020-02-07T10:40:55.000Z</time>
      </trkpt>
      <trkpt lat="44.76237" lon="5.04965">
        <ele>471</ele>
        <time>2020-02-07T10:40:56.000Z</time>
      </trkpt>
      <trkpt lat="44.76238" lon="5.04965">
        <ele>471</ele>
        <time>2020-02-07T10:40:57.000Z</time>
      </trkpt>
      <trkpt lat="44.76239" lon="5.04965">
        <ele>472</ele>
        <time>2020-02-07T10:40:58.000Z</time>
      </trkpt>
      <trkpt lat="44.7624" lon="5.04966">
        <ele>472</ele>
        <time>2020-02-07T10:40:59.000Z</time>
      </trkpt>
      <trkpt lat="44.76241" lon="5.04966">
        <ele>472</ele>
        <time>2020-02-07T10:41:00.000Z</time>
      </trkpt>
      <trkpt lat="44.76241" lon="5.04967">
        <ele>472</ele>
        <time>2020-02-07T10:41:01.000Z</time>
      </trkpt>
      <trkpt lat="44.76242" lon="5.04968">
        <ele>472</ele>
        <time>2020-02-07T10:41:02.000Z</time>
      </trkpt>
      <trkpt lat="44.76243" lon="5.04968">
        <ele>472</ele>
        <time>2020-02-07T10:41:03.000Z</time>
      </trkpt>
      <trkpt lat="44.76245" lon="5.04969">
        <ele>472</ele>
        <time>2020-02-07T10:41:04.000Z</time>
      </trkpt>
      <trkpt lat="44.76246" lon="5.04969">
        <ele>472</ele>
        <time>2020-02-07T10:41:05.000Z</time>
      </trkpt>
      <trkpt lat="44.76247" lon="5.0497">
        <ele>472</ele>
        <time>2020-02-07T10:41:06.000Z</time>
      </trkpt>
      <trkpt lat="44.76248" lon="5.0497">
        <ele>473</ele>
        <time>2020-02-07T10:41:07.000Z</time>
      </trkpt>
      <trkpt lat="44.76249" lon="5.0497">
        <ele>473</ele>
        <time>2020-02-07T10:41:08.000Z</time>
      </trkpt>
      <trkpt lat="44.7625" lon="5.0497">
        <ele>473</ele>
        <time>2020-02-07T10:41:09.000Z</time>
      </trkpt>
      <trkpt lat="44.76251" lon="5.0497">
        <ele>473</ele>
        <time>2020-02-07T10:41:10.000Z</time>
      </trkpt>
      <trkpt lat="44.76252" lon="5.0497">
        <ele>473</ele>
        <time>2020-02-07T10:41:11.000Z</time>
      </trkpt>
      <trkpt lat="44.76253" lon="5.0497">
        <ele>473</ele>
        <time>2020-02-07T10:41:12.000Z</time>
      </trkpt>
      <trkpt lat="44.76254" lon="5.0497">
        <ele>473</ele>
        <time>2020-02-07T10:41:13.000Z</time>
      </trkpt>
      <trkpt lat="44.76255" lon="5.0497">
        <ele>473</ele>
        <time>2020-02-07T10:41:14.000Z</time>
      </trkpt>
      <trkpt lat="44.76256" lon="5.0497">
        <ele>473</ele>
        <time>2020-02-07T10:41:15.000Z</time>
      </trkpt>
      <trkpt lat="44.76257" lon="5.0497">
        <ele>473</ele>
        <time>2020-02-07T10:41:16.000Z</time>
      </trkpt>
      <trkpt lat="44.76258" lon="5.0497">
        <ele>473</ele>
        <time>2020-02-07T10:41:17.000Z</time>
      </trkpt>
      <trkpt lat="44.76259" lon="5.0497">
        <ele>473</ele>
        <time>2020-02-07T10:41:18.000Z</time>
      </trkpt>
      <trkpt lat="44.7626" lon="5.0497">
        <ele>473</ele>
        <time>2020-02-07T10:41:19.000Z</time>
      </trkpt>
      <trkpt lat="44.76261" lon="5.0497">
        <ele>473</ele>
        <time>2020-02-07T10:41:20.000Z</time>
      </trkpt>
      <trkpt lat="44.76263" lon="5.04971">
        <ele>473</ele>
        <time>2020-02-07T10:41:21.000Z</time>
      </trkpt>
      <trkpt lat="44.76264" lon="5.04971">
        <ele>473</ele>
        <time>2020-02-07T10:41:22.000Z</time>
      </trkpt>
      <trkpt lat="44.76265" lon="5.04971">
        <ele>473</ele>
        <time>2020-02-07T10:41:23.000Z</time>
      </trkpt>
      <trkpt lat="44.76266" lon="5.04971">
        <ele>473</ele>
        <time>2020-02-07T10:41:24.000Z</time>
      </trkpt>
      <trkpt lat="44.76267" lon="5.04972">
        <ele>473</ele>
        <time>2020-02-07T10:41:25.000Z</time>
      </trkpt>
      <trkpt lat="44.76268" lon="5.04972">
        <ele>473</ele>
        <time>2020-02-07T10:41:26.000Z</time>
      </trkpt>
      <trkpt lat="44.76269" lon="5.04972">
        <ele>474</ele>
        <time>2020-02-07T10:41:27.000Z</time>
      </trkpt>
      <trkpt lat="44.7627" lon="5.04972">
        <ele>474</ele>
        <time>2020-02-07T10:41:28.000Z</time>
      </trkpt>
      <trkpt lat="44.76271" lon="5.04972">
        <ele>474</ele>
        <time>2020-02-07T10:41:29.000Z</time>
      </trkpt>
      <trkpt lat="44.76272" lon="5.04972">
        <ele>474</ele>
        <time>2020-02-07T10:41:30.000Z</time>
      </trkpt>
      <trkpt lat="44.76274" lon="5.04973">
        <ele>474</ele>
        <time>2020-02-07T10:41:31.000Z</time>
      </trkpt>
      <trkpt lat="44.76275" lon="5.04974">
        <ele>474</ele>
        <time>2020-02-07T10:41:32.000Z</time>
      </trkpt>
      <trkpt lat="44.76276" lon="5.04974">
        <ele>474</ele>
        <time>2020-02-07T10:41:33.000Z</time>
      </trkpt>
      <trkpt lat="44.76277" lon="5.04974">
        <ele>474</ele>
        <time>2020-02-07T10:41:34.000Z</time>
      </trkpt>
      <trkpt lat="44.76278" lon="5.04975">
        <ele>474</ele>
        <time>2020-02-07T10:41:35.000Z</time>
      </trkpt>
      <trkpt lat="44.76279" lon="5.04975">
        <ele>474</ele>
        <time>2020-02-07T10:41:36.000Z</time>
      </trkpt>
      <trkpt lat="44.7628" lon="5.04976">
        <ele>474</ele>
        <time>2020-02-07T10:41:37.000Z</time>
      </trkpt>
      <trkpt lat="44.7628" lon="5.04977">
        <ele>474</ele>
        <time>2020-02-07T10:41:38.000Z</time>
      </trkpt>
      <trkpt lat="44.76281" lon="5.04977">
        <ele>474</ele>
        <time>2020-02-07T10:41:39.000Z</time>
      </trkpt>
      <trkpt lat="44.76281" lon="5.04978">
        <ele>474</ele>
        <time>2020-02-07T10:41:40.000Z</time>
      </trkpt>
      <trkpt lat="44.76282" lon="5.04979">
        <ele>474</ele>
        <time>2020-02-07T10:41:41.000Z</time>
      </trkpt>
      <trkpt lat="44.76283" lon="5.04979">
        <ele>474</ele>
        <time>2020-02-07T10:41:42.000Z</time>
      </trkpt>
      <trkpt lat="44.76284" lon="5.0498">
        <ele>474</ele>
        <time>2020-02-07T10:41:43.000Z</time>
      </trkpt>
      <trkpt lat="44.76285" lon="5.0498">
        <ele>474</ele>
        <time>2020-02-07T10:41:44.000Z</time>
      </trkpt>
      <trkpt lat="44.76286" lon="5.0498">
        <ele>474</ele>
        <time>2020-02-07T10:41:45.000Z</time>
      </trkpt>
      <trkpt lat="44.76287" lon="5.0498">
        <ele>474</ele>
        <time>2020-02-07T10:41:46.000Z</time>
      </trkpt>
      <trkpt lat="44.76288" lon="5.0498">
        <ele>474</ele>
        <time>2020-02-07T10:41:47.000Z</time>
      </trkpt>
      <trkpt lat="44.76288" lon="5.04981">
        <ele>474</ele>
        <time>2020-02-07T10:41:48.000Z</time>
      </trkpt>
      <trkpt lat="44.76289" lon="5.04981">
        <ele>474</ele>
        <time>2020-02-07T10:41:49.000Z</time>
      </trkpt>
      <trkpt lat="44.7629" lon="5.04982">
        <ele>474</ele>
        <time>2020-02-07T10:41:50.000Z</time>
      </trkpt>
      <trkpt lat="44.76291" lon="5.04982">
        <ele>474</ele>
        <time>2020-02-07T10:41:51.000Z</time>
      </trkpt>
      <trkpt lat="44.76291" lon="5.04983">
        <ele>474</ele>
        <time>2020-02-07T10:41:52.000Z</time>
      </trkpt>
      <trkpt lat="44.76291" lon="5.04984">
        <ele>474</ele>
        <time>2020-02-07T10:41:53.000Z</time>
      </trkpt>
      <trkpt lat="44.76292" lon="5.04984">
        <ele>475</ele>
        <time>2020-02-07T10:41:54.000Z</time>
      </trkpt>
      <trkpt lat="44.76293" lon="5.04985">
        <ele>475</ele>
        <time>2020-02-07T10:41:55.000Z</time>
      </trkpt>
      <trkpt lat="44.76294" lon="5.04985">
        <ele>475</ele>
        <time>2020-02-07T10:41:56.000Z</time>
      </trkpt>
      <trkpt lat="44.76294" lon="5.04986">
        <ele>475</ele>
        <time>2020-02-07T10:41:57.000Z</time>
      </trkpt>
      <trkpt lat="44.76296" lon="5.04986">
        <ele>475</ele>
        <time>2020-02-07T10:41:58.000Z</time>
      </trkpt>
      <trkpt lat="44.76297" lon="5.04987">
        <ele>475</ele>
        <time>2020-02-07T10:41:59.000Z</time>
      </trkpt>
      <trkpt lat="44.76298" lon="5.04987">
        <ele>475</ele>
        <time>2020-02-07T10:42:00.000Z</time>
      </trkpt>
      <trkpt lat="44.76299" lon="5.04987">
        <ele>475</ele>
        <time>2020-02-07T10:42:01.000Z</time>
      </trkpt>
      <trkpt lat="44.763" lon="5.04988">
        <ele>475</ele>
        <time>2020-02-07T10:42:02.000Z</time>
      </trkpt>
      <trkpt lat="44.76302" lon="5.04988">
        <ele>476</ele>
        <time>2020-02-07T10:42:03.000Z</time>
      </trkpt>
      <trkpt lat="44.76303" lon="5.04989">
        <ele>476</ele>
        <time>2020-02-07T10:42:04.000Z</time>
      </trkpt>
      <trkpt lat="44.76304" lon="5.0499">
        <ele>476</ele>
        <time>2020-02-07T10:42:05.000Z</time>
      </trkpt>
      <trkpt lat="44.76305" lon="5.04991">
        <ele>476</ele>
        <time>2020-02-07T10:42:06.000Z</time>
      </trkpt>
      <trkpt lat="44.76306" lon="5.04991">
        <ele>476</ele>
        <time>2020-02-07T10:42:07.000Z</time>
      </trkpt>
      <trkpt lat="44.76307" lon="5.04991">
        <ele>476</ele>
        <time>2020-02-07T10:42:08.000Z</time>
      </trkpt>
      <trkpt lat="44.76308" lon="5.04992">
        <ele>477</ele>
        <time>2020-02-07T10:42:09.000Z</time>
      </trkpt>
      <trkpt lat="44.76308" lon="5.04992">
        <ele>477</ele>
        <time>2020-02-07T10:42:10.000Z</time>
      </trkpt>
      <trkpt lat="44.76309" lon="5.04991">
        <ele>477</ele>
        <time>2020-02-07T10:42:11.000Z</time>
      </trkpt>
      <trkpt lat="44.7631" lon="5.04991">
        <ele>477</ele>
        <time>2020-02-07T10:42:12.000Z</time>
      </trkpt>
      <trkpt lat="44.7631" lon="5.04991">
        <ele>477</ele>
        <time>2020-02-07T10:42:13.000Z</time>
      </trkpt>
      <trkpt lat="44.76311" lon="5.0499">
        <ele>477</ele>
        <time>2020-02-07T10:42:14.000Z</time>
      </trkpt>
      <trkpt lat="44.76312" lon="5.0499">
        <ele>477</ele>
        <time>2020-02-07T10:42:15.000Z</time>
      </trkpt>
      <trkpt lat="44.76312" lon="5.0499">
        <ele>477</ele>
        <time>2020-02-07T10:42:16.000Z</time>
      </trkpt>
      <trkpt lat="44.76313" lon="5.04989">
        <ele>478</ele>
        <time>2020-02-07T10:42:17.000Z</time>
      </trkpt>
      <trkpt lat="44.76314" lon="5.0499">
        <ele>478</ele>
        <time>2020-02-07T10:42:18.000Z</time>
      </trkpt>
      <trkpt lat="44.76315" lon="5.0499">
        <ele>478</ele>
        <time>2020-02-07T10:42:19.000Z</time>
      </trkpt>
      <trkpt lat="44.76315" lon="5.04989">
        <ele>478</ele>
        <time>2020-02-07T10:42:20.000Z</time>
      </trkpt>
      <trkpt lat="44.76316" lon="5.04989">
        <ele>478</ele>
        <time>2020-02-07T10:42:21.000Z</time>
      </trkpt>
      <trkpt lat="44.76317" lon="5.04989">
        <ele>478</ele>
        <time>2020-02-07T10:42:22.000Z</time>
      </trkpt>
      <trkpt lat="44.76317" lon="5.04989">
        <ele>478</ele>
        <time>2020-02-07T10:42:23.000Z</time>
      </trkpt>
      <trkpt lat="44.76318" lon="5.04988">
        <ele>479</ele>
        <time>2020-02-07T10:42:24.000Z</time>
      </trkpt>
      <trkpt lat="44.76319" lon="5.04988">
        <ele>479</ele>
        <time>2020-02-07T10:42:25.000Z</time>
      </trkpt>
      <trkpt lat="44.7632" lon="5.04988">
        <ele>479</ele>
        <time>2020-02-07T10:42:26.000Z</time>
      </trkpt>
      <trkpt lat="44.76321" lon="5.04988">
        <ele>479</ele>
        <time>2020-02-07T10:42:27.000Z</time>
      </trkpt>
      <trkpt lat="44.76322" lon="5.04988">
        <ele>479</ele>
        <time>2020-02-07T10:42:28.000Z</time>
      </trkpt>
      <trkpt lat="44.76324" lon="5.04988">
        <ele>479</ele>
        <time>2020-02-07T10:42:29.000Z</time>
      </trkpt>
      <trkpt lat="44.76325" lon="5.04988">
        <ele>479</ele>
        <time>2020-02-07T10:42:30.000Z</time>
      </trkpt>
      <trkpt lat="44.76326" lon="5.04988">
        <ele>480</ele>
        <time>2020-02-07T10:42:31.000Z</time>
      </trkpt>
      <trkpt lat="44.76327" lon="5.04989">
        <ele>480</ele>
        <time>2020-02-07T10:42:32.000Z</time>
      </trkpt>
      <trkpt lat="44.76329" lon="5.04989">
        <ele>480</ele>
        <time>2020-02-07T10:42:33.000Z</time>
      </trkpt>
      <trkpt lat="44.7633" lon="5.0499">
        <ele>480</ele>
        <time>2020-02-07T10:42:34.000Z</time>
      </trkpt>
      <trkpt lat="44.76331" lon="5.04991">
        <ele>480</ele>
        <time>2020-02-07T10:42:35.000Z</time>
      </trkpt>
      <trkpt lat="44.76332" lon="5.04992">
        <ele>480</ele>
        <time>2020-02-07T10:42:36.000Z</time>
      </trkpt>
      <trkpt lat="44.76334" lon="5.04993">
        <ele>480</ele>
        <time>2020-02-07T10:42:37.000Z</time>
      </trkpt>
      <trkpt lat="44.76335" lon="5.04994">
        <ele>480</ele>
        <time>2020-02-07T10:42:38.000Z</time>
      </trkpt>
      <trkpt lat="44.76336" lon="5.04995">
        <ele>481</ele>
        <time>2020-02-07T10:42:39.000Z</time>
      </trkpt>
      <trkpt lat="44.76337" lon="5.04995">
        <ele>481</ele>
        <time>2020-02-07T10:42:40.000Z</time>
      </trkpt>
      <trkpt lat="44.76338" lon="5.04996">
        <ele>481</ele>
        <time>2020-02-07T10:42:41.000Z</time>
      </trkpt>
      <trkpt lat="44.76339" lon="5.04996">
        <ele>481</ele>
        <time>2020-02-07T10:42:42.000Z</time>
      </trkpt>
      <trkpt lat="44.7634" lon="5.04997">
        <ele>481</ele>
        <time>2020-02-07T10:42:43.000Z</time>
      </trkpt>
      <trkpt lat="44.76341" lon="5.04997">
        <ele>481</ele>
        <time>2020-02-07T10:42:44.000Z</time>
      </trkpt>
      <trkpt lat="44.76342" lon="5.04997">
        <ele>481</ele>
        <time>2020-02-07T10:42:45.000Z</time>
      </trkpt>
      <trkpt lat="44.76343" lon="5.04997">
        <ele>481</ele>
        <time>2020-02-07T10:42:46.000Z</time>
      </trkpt>
      <trkpt lat="44.76344" lon="5.04998">
        <ele>481</ele>
        <time>2020-02-07T10:42:47.000Z</time>
      </trkpt>
      <trkpt lat="44.76345" lon="5.04998">
        <ele>481</ele>
        <time>2020-02-07T10:42:48.000Z</time>
      </trkpt>
      <trkpt lat="44.76346" lon="5.04998">
        <ele>482</ele>
        <time>2020-02-07T10:42:49.000Z</time>
      </trkpt>
      <trkpt lat="44.76347" lon="5.04998">
        <ele>482</ele>
        <time>2020-02-07T10:42:50.000Z</time>
      </trkpt>
      <trkpt lat="44.76347" lon="5.04997">
        <ele>482</ele>
        <time>2020-02-07T10:42:51.000Z</time>
      </trkpt>
      <trkpt lat="44.76348" lon="5.04997">
        <ele>482</ele>
        <time>2020-02-07T10:42:52.000Z</time>
      </trkpt>
      <trkpt lat="44.76349" lon="5.04998">
        <ele>482</ele>
        <time>2020-02-07T10:42:53.000Z</time>
      </trkpt>
      <trkpt lat="44.76349" lon="5.04999">
        <ele>482</ele>
        <time>2020-02-07T10:42:54.000Z</time>
      </trkpt>
      <trkpt lat="44.7635" lon="5.04999">
        <ele>482</ele>
        <time>2020-02-07T10:42:55.000Z</time>
      </trkpt>
      <trkpt lat="44.76351" lon="5.05">
        <ele>482</ele>
        <time>2020-02-07T10:42:56.000Z</time>
      </trkpt>
      <trkpt lat="44.76352" lon="5.05">
        <ele>482</ele>
        <time>2020-02-07T10:42:57.000Z</time>
      </trkpt>
      <trkpt lat="44.76353" lon="5.05">
        <ele>482</ele>
        <time>2020-02-07T10:42:58.000Z</time>
      </trkpt>
      <trkpt lat="44.76354" lon="5.05001">
        <ele>482</ele>
        <time>2020-02-07T10:42:59.000Z</time>
      </trkpt>
      <trkpt lat="44.76355" lon="5.05001">
        <ele>482</ele>
        <time>2020-02-07T10:43:00.000Z</time>
      </trkpt>
      <trkpt lat="44.76356" lon="5.05001">
        <ele>482</ele>
        <time>2020-02-07T10:43:01.000Z</time>
      </trkpt>
      <trkpt lat="44.76357" lon="5.05002">
        <ele>482</ele>
        <time>2020-02-07T10:43:02.000Z</time>
      </trkpt>
      <trkpt lat="44.76358" lon="5.05002">
        <ele>482</ele>
        <time>2020-02-07T10:43:03.000Z</time>
      </trkpt>
      <trkpt lat="44.76358" lon="5.05002">
        <ele>482</ele>
        <time>2020-02-07T10:43:04.000Z</time>
      </trkpt>
      <trkpt lat="44.76359" lon="5.05003">
        <ele>482</ele>
        <time>2020-02-07T10:43:05.000Z</time>
      </trkpt>
      <trkpt lat="44.7636" lon="5.05003">
        <ele>482</ele>
        <time>2020-02-07T10:43:06.000Z</time>
      </trkpt>
      <trkpt lat="44.76361" lon="5.05003">
        <ele>483</ele>
        <time>2020-02-07T10:43:07.000Z</time>
      </trkpt>
      <trkpt lat="44.76362" lon="5.05004">
        <ele>483</ele>
        <time>2020-02-07T10:43:08.000Z</time>
      </trkpt>
      <trkpt lat="44.76363" lon="5.05004">
        <ele>483</ele>
        <time>2020-02-07T10:43:09.000Z</time>
      </trkpt>
      <trkpt lat="44.76364" lon="5.05004">
        <ele>483</ele>
        <time>2020-02-07T10:43:10.000Z</time>
      </trkpt>
      <trkpt lat="44.76365" lon="5.05004">
        <ele>483</ele>
        <time>2020-02-07T10:43:11.000Z</time>
      </trkpt>
      <trkpt lat="44.76366" lon="5.05004">
        <ele>483</ele>
        <time>2020-02-07T10:43:12.000Z</time>
      </trkpt>
      <trkpt lat="44.76367" lon="5.05003">
        <ele>483</ele>
        <time>2020-02-07T10:43:13.000Z</time>
      </trkpt>
      <trkpt lat="44.76367" lon="5.05003">
        <ele>483</ele>
        <time>2020-02-07T10:43:14.000Z</time>
      </trkpt>
      <trkpt lat="44.76368" lon="5.05003">
        <ele>483</ele>
        <time>2020-02-07T10:43:15.000Z</time>
      </trkpt>
      <trkpt lat="44.76369" lon="5.05003">
        <ele>483</ele>
        <time>2020-02-07T10:43:16.000Z</time>
      </trkpt>
      <trkpt lat="44.7637" lon="5.05003">
        <ele>483</ele>
        <time>2020-02-07T10:43:17.000Z</time>
      </trkpt>
      <trkpt lat="44.76371" lon="5.05003">
        <ele>484</ele>
        <time>2020-02-07T10:43:18.000Z</time>
      </trkpt>
      <trkpt lat="44.76372" lon="5.05003">
        <ele>484</ele>
        <time>2020-02-07T10:43:19.000Z</time>
      </trkpt>
      <trkpt lat="44.76373" lon="5.05003">
        <ele>484</ele>
        <time>2020-02-07T10:43:20.000Z</time>
      </trkpt>
      <trkpt lat="44.76374" lon="5.05003">
        <ele>484</ele>
        <time>2020-02-07T10:43:21.000Z</time>
      </trkpt>
      <trkpt lat="44.76375" lon="5.05002">
        <ele>484</ele>
        <time>2020-02-07T10:43:22.000Z</time>
      </trkpt>
      <trkpt lat="44.76376" lon="5.05002">
        <ele>484</ele>
        <time>2020-02-07T10:43:23.000Z</time>
      </trkpt>
      <trkpt lat="44.76377" lon="5.05002">
        <ele>484</ele>
        <time>2020-02-07T10:43:24.000Z</time>
      </trkpt>
      <trkpt lat="44.76378" lon="5.05002">
        <ele>484</ele>
        <time>2020-02-07T10:43:25.000Z</time>
      </trkpt>
      <trkpt lat="44.76379" lon="5.05002">
        <ele>485</ele>
        <time>2020-02-07T10:43:26.000Z</time>
      </trkpt>
      <trkpt lat="44.7638" lon="5.05002">
        <ele>485</ele>
        <time>2020-02-07T10:43:27.000Z</time>
      </trkpt>
      <trkpt lat="44.76381" lon="5.05002">
        <ele>485</ele>
        <time>2020-02-07T10:43:28.000Z</time>
      </trkpt>
      <trkpt lat="44.76382" lon="5.05001">
        <ele>485</ele>
        <time>2020-02-07T10:43:29.000Z</time>
      </trkpt>
      <trkpt lat="44.76383" lon="5.05001">
        <ele>486</ele>
        <time>2020-02-07T10:43:30.000Z</time>
      </trkpt>
      <trkpt lat="44.76385" lon="5.05001">
        <ele>486</ele>
        <time>2020-02-07T10:43:31.000Z</time>
      </trkpt>
      <trkpt lat="44.76386" lon="5.05">
        <ele>486</ele>
        <time>2020-02-07T10:43:32.000Z</time>
      </trkpt>
      <trkpt lat="44.76387" lon="5.05">
        <ele>486</ele>
        <time>2020-02-07T10:43:33.000Z</time>
      </trkpt>
      <trkpt lat="44.76388" lon="5.05">
        <ele>487</ele>
        <time>2020-02-07T10:43:34.000Z</time>
      </trkpt>
      <trkpt lat="44.76389" lon="5.05">
        <ele>487</ele>
        <time>2020-02-07T10:43:35.000Z</time>
      </trkpt>
      <trkpt lat="44.7639" lon="5.05">
        <ele>487</ele>
        <time>2020-02-07T10:43:36.000Z</time>
      </trkpt>
      <trkpt lat="44.76391" lon="5.05">
        <ele>487</ele>
        <time>2020-02-07T10:43:37.000Z</time>
      </trkpt>
      <trkpt lat="44.76392" lon="5.05">
        <ele>487</ele>
        <time>2020-02-07T10:43:38.000Z</time>
      </trkpt>
      <trkpt lat="44.76393" lon="5.05">
        <ele>488</ele>
        <time>2020-02-07T10:43:39.000Z</time>
      </trkpt>
      <trkpt lat="44.76393" lon="5.04999">
        <ele>488</ele>
        <time>2020-02-07T10:43:40.000Z</time>
      </trkpt>
      <trkpt lat="44.76394" lon="5.04999">
        <ele>488</ele>
        <time>2020-02-07T10:43:41.000Z</time>
      </trkpt>
      <trkpt lat="44.76395" lon="5.04999">
        <ele>488</ele>
        <time>2020-02-07T10:43:42.000Z</time>
      </trkpt>
      <trkpt lat="44.76396" lon="5.04999">
        <ele>488</ele>
        <time>2020-02-07T10:43:43.000Z</time>
      </trkpt>
      <trkpt lat="44.76397" lon="5.04999">
        <ele>488</ele>
        <time>2020-02-07T10:43:44.000Z</time>
      </trkpt>
      <trkpt lat="44.76398" lon="5.04999">
        <ele>489</ele>
        <time>2020-02-07T10:43:45.000Z</time>
      </trkpt>
      <trkpt lat="44.76399" lon="5.04999">
        <ele>489</ele>
        <time>2020-02-07T10:43:46.000Z</time>
      </trkpt>
      <trkpt lat="44.764" lon="5.04999">
        <ele>489</ele>
        <time>2020-02-07T10:43:47.000Z</time>
      </trkpt>
      <trkpt lat="44.76401" lon="5.04998">
        <ele>489</ele>
        <time>2020-02-07T10:43:48.000Z</time>
      </trkpt>
      <trkpt lat="44.76402" lon="5.04998">
        <ele>489</ele>
        <time>2020-02-07T10:43:49.000Z</time>
      </trkpt>
      <trkpt lat="44.76402" lon="5.04998">
        <ele>489</ele>
        <time>2020-02-07T10:43:50.000Z</time>
      </trkpt>
      <trkpt lat="44.76403" lon="5.04998">
        <ele>489</ele>
        <time>2020-02-07T10:43:51.000Z</time>
      </trkpt>
      <trkpt lat="44.76404" lon="5.04997">
        <ele>490</ele>
        <time>2020-02-07T10:43:52.000Z</time>
      </trkpt>
      <trkpt lat="44.76405" lon="5.04997">
        <ele>490</ele>
        <time>2020-02-07T10:43:53.000Z</time>
      </trkpt>
      <trkpt lat="44.76405" lon="5.04997">
        <ele>490</ele>
        <time>2020-02-07T10:43:54.000Z</time>
      </trkpt>
      <trkpt lat="44.76406" lon="5.04996">
        <ele>490</ele>
        <time>2020-02-07T10:43:55.000Z</time>
      </trkpt>
      <trkpt lat="44.76407" lon="5.04996">
        <ele>490</ele>
        <time>2020-02-07T10:43:56.000Z</time>
      </trkpt>
      <trkpt lat="44.76408" lon="5.04996">
        <ele>490</ele>
        <time>2020-02-07T10:43:57.000Z</time>
      </trkpt>
      <trkpt lat="44.76409" lon="5.04995">
        <ele>490</ele>
        <time>2020-02-07T10:43:58.000Z</time>
      </trkpt>
      <trkpt lat="44.7641" lon="5.04995">
        <ele>490</ele>
        <time>2020-02-07T10:43:59.000Z</time>
      </trkpt>
      <trkpt lat="44.76411" lon="5.04994">
        <ele>491</ele>
        <time>2020-02-07T10:44:00.000Z</time>
      </trkpt>
      <trkpt lat="44.76412" lon="5.04993">
        <ele>491</ele>
        <time>2020-02-07T10:44:01.000Z</time>
      </trkpt>
      <trkpt lat="44.76413" lon="5.04993">
        <ele>491</ele>
        <time>2020-02-07T10:44:02.000Z</time>
      </trkpt>
      <trkpt lat="44.76414" lon="5.04993">
        <ele>491</ele>
        <time>2020-02-07T10:44:03.000Z</time>
      </trkpt>
      <trkpt lat="44.76415" lon="5.04993">
        <ele>491</ele>
        <time>2020-02-07T10:44:04.000Z</time>
      </trkpt>
      <trkpt lat="44.76416" lon="5.04993">
        <ele>491</ele>
        <time>2020-02-07T10:44:05.000Z</time>
      </trkpt>
      <trkpt lat="44.76417" lon="5.04993">
        <ele>491</ele>
        <time>2020-02-07T10:44:06.000Z</time>
      </trkpt>
      <trkpt lat="44.76418" lon="5.04993">
        <ele>491</ele>
        <time>2020-02-07T10:44:07.000Z</time>
      </trkpt>
      <trkpt lat="44.76419" lon="5.04993">
        <ele>492</ele>
        <time>2020-02-07T10:44:08.000Z</time>
      </trkpt>
      <trkpt lat="44.7642" lon="5.04993">
        <ele>492</ele>
        <time>2020-02-07T10:44:09.000Z</time>
      </trkpt>
      <trkpt lat="44.76421" lon="5.04993">
        <ele>492</ele>
        <time>2020-02-07T10:44:10.000Z</time>
      </trkpt>
      <trkpt lat="44.76422" lon="5.04993">
        <ele>492</ele>
        <time>2020-02-07T10:44:11.000Z</time>
      </trkpt>
      <trkpt lat="44.76424" lon="5.04994">
        <ele>492</ele>
        <time>2020-02-07T10:44:12.000Z</time>
      </trkpt>
      <trkpt lat="44.76425" lon="5.04994">
        <ele>492</ele>
        <time>2020-02-07T10:44:13.000Z</time>
      </trkpt>
      <trkpt lat="44.76425" lon="5.04994">
        <ele>492</ele>
        <time>2020-02-07T10:44:14.000Z</time>
      </trkpt>
      <trkpt lat="44.76426" lon="5.04993">
        <ele>492</ele>
        <time>2020-02-07T10:44:15.000Z</time>
      </trkpt>
      <trkpt lat="44.76427" lon="5.04993">
        <ele>493</ele>
        <time>2020-02-07T10:44:16.000Z</time>
      </trkpt>
      <trkpt lat="44.76428" lon="5.04993">
        <ele>493</ele>
        <time>2020-02-07T10:44:17.000Z</time>
      </trkpt>
      <trkpt lat="44.76429" lon="5.04993">
        <ele>493</ele>
        <time>2020-02-07T10:44:18.000Z</time>
      </trkpt>
      <trkpt lat="44.7643" lon="5.04992">
        <ele>493</ele>
        <time>2020-02-07T10:44:19.000Z</time>
      </trkpt>
      <trkpt lat="44.76431" lon="5.04992">
        <ele>493</ele>
        <time>2020-02-07T10:44:20.000Z</time>
      </trkpt>
      <trkpt lat="44.76432" lon="5.04992">
        <ele>493</ele>
        <time>2020-02-07T10:44:21.000Z</time>
      </trkpt>
      <trkpt lat="44.76433" lon="5.04992">
        <ele>493</ele>
        <time>2020-02-07T10:44:22.000Z</time>
      </trkpt>
      <trkpt lat="44.76434" lon="5.04992">
        <ele>493</ele>
        <time>2020-02-07T10:44:23.000Z</time>
      </trkpt>
      <trkpt lat="44.76435" lon="5.04992">
        <ele>493</ele>
        <time>2020-02-07T10:44:24.000Z</time>
      </trkpt>
      <trkpt lat="44.76436" lon="5.04992">
        <ele>493</ele>
        <time>2020-02-07T10:44:25.000Z</time>
      </trkpt>
      <trkpt lat="44.76436" lon="5.04992">
        <ele>494</ele>
        <time>2020-02-07T10:44:26.000Z</time>
      </trkpt>
      <trkpt lat="44.76437" lon="5.04993">
        <ele>494</ele>
        <time>2020-02-07T10:44:27.000Z</time>
      </trkpt>
      <trkpt lat="44.76439" lon="5.04993">
        <ele>494</ele>
        <time>2020-02-07T10:44:28.000Z</time>
      </trkpt>
      <trkpt lat="44.7644" lon="5.04993">
        <ele>494</ele>
        <time>2020-02-07T10:44:29.000Z</time>
      </trkpt>
      <trkpt lat="44.76441" lon="5.04993">
        <ele>494</ele>
        <time>2020-02-07T10:44:30.000Z</time>
      </trkpt>
      <trkpt lat="44.76442" lon="5.04994">
        <ele>494</ele>
        <time>2020-02-07T10:44:31.000Z</time>
      </trkpt>
      <trkpt lat="44.76443" lon="5.04994">
        <ele>494</ele>
        <time>2020-02-07T10:44:32.000Z</time>
      </trkpt>
      <trkpt lat="44.76444" lon="5.04994">
        <ele>494</ele>
        <time>2020-02-07T10:44:33.000Z</time>
      </trkpt>
      <trkpt lat="44.76445" lon="5.04994">
        <ele>494</ele>
        <time>2020-02-07T10:44:34.000Z</time>
      </trkpt>
      <trkpt lat="44.76446" lon="5.04994">
        <ele>494</ele>
        <time>2020-02-07T10:44:35.000Z</time>
      </trkpt>
      <trkpt lat="44.76447" lon="5.04994">
        <ele>494</ele>
        <time>2020-02-07T10:44:36.000Z</time>
      </trkpt>
      <trkpt lat="44.76448" lon="5.04995">
        <ele>494</ele>
        <time>2020-02-07T10:44:37.000Z</time>
      </trkpt>
      <trkpt lat="44.76449" lon="5.04995">
        <ele>495</ele>
        <time>2020-02-07T10:44:38.000Z</time>
      </trkpt>
      <trkpt lat="44.7645" lon="5.04995">
        <ele>495</ele>
        <time>2020-02-07T10:44:39.000Z</time>
      </trkpt>
      <trkpt lat="44.76451" lon="5.04996">
        <ele>495</ele>
        <time>2020-02-07T10:44:40.000Z</time>
      </trkpt>
      <trkpt lat="44.76452" lon="5.04996">
        <ele>495</ele>
        <time>2020-02-07T10:44:41.000Z</time>
      </trkpt>
      <trkpt lat="44.76453" lon="5.04996">
        <ele>495</ele>
        <time>2020-02-07T10:44:42.000Z</time>
      </trkpt>
      <trkpt lat="44.76454" lon="5.04996">
        <ele>495</ele>
        <time>2020-02-07T10:44:43.000Z</time>
      </trkpt>
      <trkpt lat="44.76454" lon="5.04997">
        <ele>495</ele>
        <time>2020-02-07T10:44:44.000Z</time>
      </trkpt>
      <trkpt lat="44.76455" lon="5.04997">
        <ele>495</ele>
        <time>2020-02-07T10:44:45.000Z</time>
      </trkpt>
      <trkpt lat="44.76456" lon="5.04997">
        <ele>495</ele>
        <time>2020-02-07T10:44:46.000Z</time>
      </trkpt>
      <trkpt lat="44.76457" lon="5.04997">
        <ele>496</ele>
        <time>2020-02-07T10:44:47.000Z</time>
      </trkpt>
      <trkpt lat="44.76458" lon="5.04998">
        <ele>496</ele>
        <time>2020-02-07T10:44:48.000Z</time>
      </trkpt>
      <trkpt lat="44.76459" lon="5.04998">
        <ele>496</ele>
        <time>2020-02-07T10:44:49.000Z</time>
      </trkpt>
      <trkpt lat="44.7646" lon="5.04998">
        <ele>496</ele>
        <time>2020-02-07T10:44:50.000Z</time>
      </trkpt>
      <trkpt lat="44.76461" lon="5.04998">
        <ele>496</ele>
        <time>2020-02-07T10:44:51.000Z</time>
      </trkpt>
      <trkpt lat="44.76462" lon="5.04999">
        <ele>497</ele>
        <time>2020-02-07T10:44:52.000Z</time>
      </trkpt>
      <trkpt lat="44.76463" lon="5.04999">
        <ele>497</ele>
        <time>2020-02-07T10:44:53.000Z</time>
      </trkpt>
      <trkpt lat="44.76464" lon="5.04999">
        <ele>497</ele>
        <time>2020-02-07T10:44:54.000Z</time>
      </trkpt>
      <trkpt lat="44.76465" lon="5.04999">
        <ele>497</ele>
        <time>2020-02-07T10:44:55.000Z</time>
      </trkpt>
      <trkpt lat="44.76466" lon="5.05">
        <ele>497</ele>
        <time>2020-02-07T10:44:56.000Z</time>
      </trkpt>
      <trkpt lat="44.76467" lon="5.05">
        <ele>498</ele>
        <time>2020-02-07T10:44:57.000Z</time>
      </trkpt>
      <trkpt lat="44.76468" lon="5.05">
        <ele>498</ele>
        <time>2020-02-07T10:44:58.000Z</time>
      </trkpt>
      <trkpt lat="44.76469" lon="5.05001">
        <ele>498</ele>
        <time>2020-02-07T10:44:59.000Z</time>
      </trkpt>
      <trkpt lat="44.7647" lon="5.05001">
        <ele>498</ele>
        <time>2020-02-07T10:45:00.000Z</time>
      </trkpt>
      <trkpt lat="44.76471" lon="5.05001">
        <ele>498</ele>
        <time>2020-02-07T10:45:01.000Z</time>
      </trkpt>
      <trkpt lat="44.76472" lon="5.05002">
        <ele>498</ele>
        <time>2020-02-07T10:45:02.000Z</time>
      </trkpt>
      <trkpt lat="44.76473" lon="5.05002">
        <ele>498</ele>
        <time>2020-02-07T10:45:03.000Z</time>
      </trkpt>
      <trkpt lat="44.76474" lon="5.05002">
        <ele>499</ele>
        <time>2020-02-07T10:45:04.000Z</time>
      </trkpt>
      <trkpt lat="44.76476" lon="5.05002">
        <ele>499</ele>
        <time>2020-02-07T10:45:05.000Z</time>
      </trkpt>
      <trkpt lat="44.76477" lon="5.05002">
        <ele>499</ele>
        <time>2020-02-07T10:45:06.000Z</time>
      </trkpt>
      <trkpt lat="44.76477" lon="5.05001">
        <ele>499</ele>
        <time>2020-02-07T10:45:07.000Z</time>
      </trkpt>
      <trkpt lat="44.76478" lon="5.05001">
        <ele>500</ele>
        <time>2020-02-07T10:45:08.000Z</time>
      </trkpt>
      <trkpt lat="44.76479" lon="5.05001">
        <ele>500</ele>
        <time>2020-02-07T10:45:09.000Z</time>
      </trkpt>
      <trkpt lat="44.7648" lon="5.05001">
        <ele>500</ele>
        <time>2020-02-07T10:45:10.000Z</time>
      </trkpt>
      <trkpt lat="44.76481" lon="5.05001">
        <ele>500</ele>
        <time>2020-02-07T10:45:11.000Z</time>
      </trkpt>
      <trkpt lat="44.76482" lon="5.05001">
        <ele>501</ele>
        <time>2020-02-07T10:45:12.000Z</time>
      </trkpt>
      <trkpt lat="44.76483" lon="5.05001">
        <ele>501</ele>
        <time>2020-02-07T10:45:13.000Z</time>
      </trkpt>
      <trkpt lat="44.76484" lon="5.05002">
        <ele>501</ele>
        <time>2020-02-07T10:45:14.000Z</time>
      </trkpt>
      <trkpt lat="44.76485" lon="5.05002">
        <ele>501</ele>
        <time>2020-02-07T10:45:15.000Z</time>
      </trkpt>
      <trkpt lat="44.76486" lon="5.05002">
        <ele>501</ele>
        <time>2020-02-07T10:45:16.000Z</time>
      </trkpt>
      <trkpt lat="44.76487" lon="5.05002">
        <ele>502</ele>
        <time>2020-02-07T10:45:17.000Z</time>
      </trkpt>
      <trkpt lat="44.76488" lon="5.05002">
        <ele>502</ele>
        <time>2020-02-07T10:45:18.000Z</time>
      </trkpt>
      <trkpt lat="44.76489" lon="5.05002">
        <ele>502</ele>
        <time>2020-02-07T10:45:19.000Z</time>
      </trkpt>
      <trkpt lat="44.7649" lon="5.05003">
        <ele>502</ele>
        <time>2020-02-07T10:45:20.000Z</time>
      </trkpt>
      <trkpt lat="44.7649" lon="5.05003">
        <ele>502</ele>
        <time>2020-02-07T10:45:21.000Z</time>
      </trkpt>
      <trkpt lat="44.76491" lon="5.05003">
        <ele>502</ele>
        <time>2020-02-07T10:45:22.000Z</time>
      </trkpt>
      <trkpt lat="44.76493" lon="5.05003">
        <ele>502</ele>
        <time>2020-02-07T10:45:23.000Z</time>
      </trkpt>
      <trkpt lat="44.76494" lon="5.05003">
        <ele>502</ele>
        <time>2020-02-07T10:45:24.000Z</time>
      </trkpt>
      <trkpt lat="44.76495" lon="5.05003">
        <ele>502</ele>
        <time>2020-02-07T10:45:25.000Z</time>
      </trkpt>
      <trkpt lat="44.76495" lon="5.05003">
        <ele>502</ele>
        <time>2020-02-07T10:45:26.000Z</time>
      </trkpt>
      <trkpt lat="44.76496" lon="5.05004">
        <ele>502</ele>
        <time>2020-02-07T10:45:27.000Z</time>
      </trkpt>
      <trkpt lat="44.76497" lon="5.05004">
        <ele>502</ele>
        <time>2020-02-07T10:45:28.000Z</time>
      </trkpt>
      <trkpt lat="44.76498" lon="5.05004">
        <ele>503</ele>
        <time>2020-02-07T10:45:29.000Z</time>
      </trkpt>
      <trkpt lat="44.76499" lon="5.05004">
        <ele>503</ele>
        <time>2020-02-07T10:45:30.000Z</time>
      </trkpt>
      <trkpt lat="44.765" lon="5.05004">
        <ele>503</ele>
        <time>2020-02-07T10:45:31.000Z</time>
      </trkpt>
      <trkpt lat="44.76501" lon="5.05004">
        <ele>503</ele>
        <time>2020-02-07T10:45:32.000Z</time>
      </trkpt>
      <trkpt lat="44.76502" lon="5.05004">
        <ele>503</ele>
        <time>2020-02-07T10:45:33.000Z</time>
      </trkpt>
      <trkpt lat="44.76503" lon="5.05004">
        <ele>503</ele>
        <time>2020-02-07T10:45:34.000Z</time>
      </trkpt>
      <trkpt lat="44.76504" lon="5.05005">
        <ele>503</ele>
        <time>2020-02-07T10:45:35.000Z</time>
      </trkpt>
      <trkpt lat="44.76505" lon="5.05005">
        <ele>503</ele>
        <time>2020-02-07T10:45:36.000Z</time>
      </trkpt>
      <trkpt lat="44.76506" lon="5.05006">
        <ele>503</ele>
        <time>2020-02-07T10:45:37.000Z</time>
      </trkpt>
      <trkpt lat="44.76508" lon="5.05006">
        <ele>503</ele>
        <time>2020-02-07T10:45:38.000Z</time>
      </trkpt>
      <trkpt lat="44.76509" lon="5.05007">
        <ele>503</ele>
        <time>2020-02-07T10:45:39.000Z</time>
      </trkpt>
      <trkpt lat="44.7651" lon="5.05007">
        <ele>503</ele>
        <time>2020-02-07T10:45:40.000Z</time>
      </trkpt>
      <trkpt lat="44.76511" lon="5.05007">
        <ele>503</ele>
        <time>2020-02-07T10:45:41.000Z</time>
      </trkpt>
      <trkpt lat="44.76512" lon="5.05007">
        <ele>503</ele>
        <time>2020-02-07T10:45:42.000Z</time>
      </trkpt>
      <trkpt lat="44.76512" lon="5.05007">
        <ele>504</ele>
        <time>2020-02-07T10:45:43.000Z</time>
      </trkpt>
      <trkpt lat="44.76513" lon="5.05008">
        <ele>504</ele>
        <time>2020-02-07T10:45:44.000Z</time>
      </trkpt>
      <trkpt lat="44.76514" lon="5.05008">
        <ele>504</ele>
        <time>2020-02-07T10:45:45.000Z</time>
      </trkpt>
      <trkpt lat="44.76515" lon="5.05008">
        <ele>504</ele>
        <time>2020-02-07T10:45:46.000Z</time>
      </trkpt>
      <trkpt lat="44.76516" lon="5.05008">
        <ele>504</ele>
        <time>2020-02-07T10:45:47.000Z</time>
      </trkpt>
      <trkpt lat="44.76517" lon="5.05008">
        <ele>504</ele>
        <time>2020-02-07T10:45:48.000Z</time>
      </trkpt>
      <trkpt lat="44.76518" lon="5.05008">
        <ele>504</ele>
        <time>2020-02-07T10:45:49.000Z</time>
      </trkpt>
      <trkpt lat="44.7652" lon="5.05008">
        <ele>504</ele>
        <time>2020-02-07T10:45:50.000Z</time>
      </trkpt>
      <trkpt lat="44.76521" lon="5.05008">
        <ele>505</ele>
        <time>2020-02-07T10:45:51.000Z</time>
      </trkpt>
      <trkpt lat="44.76522" lon="5.05008">
        <ele>505</ele>
        <time>2020-02-07T10:45:52.000Z</time>
      </trkpt>
      <trkpt lat="44.76523" lon="5.05008">
        <ele>505</ele>
        <time>2020-02-07T10:45:53.000Z</time>
      </trkpt>
      <trkpt lat="44.76524" lon="5.05009">
        <ele>505</ele>
        <time>2020-02-07T10:45:54.000Z</time>
      </trkpt>
      <trkpt lat="44.76525" lon="5.05009">
        <ele>505</ele>
        <time>2020-02-07T10:45:55.000Z</time>
      </trkpt>
      <trkpt lat="44.76526" lon="5.05009">
        <ele>505</ele>
        <time>2020-02-07T10:45:56.000Z</time>
      </trkpt>
      <trkpt lat="44.76527" lon="5.0501">
        <ele>505</ele>
        <time>2020-02-07T10:45:57.000Z</time>
      </trkpt>
      <trkpt lat="44.76529" lon="5.0501">
        <ele>505</ele>
        <time>2020-02-07T10:45:58.000Z</time>
      </trkpt>
      <trkpt lat="44.7653" lon="5.05011">
        <ele>505</ele>
        <time>2020-02-07T10:45:59.000Z</time>
      </trkpt>
      <trkpt lat="44.76531" lon="5.05011">
        <ele>505</ele>
        <time>2020-02-07T10:46:00.000Z</time>
      </trkpt>
      <trkpt lat="44.76532" lon="5.05011">
        <ele>505</ele>
        <time>2020-02-07T10:46:01.000Z</time>
      </trkpt>
      <trkpt lat="44.76533" lon="5.05011">
        <ele>505</ele>
        <time>2020-02-07T10:46:02.000Z</time>
      </trkpt>
      <trkpt lat="44.76534" lon="5.05011">
        <ele>505</ele>
        <time>2020-02-07T10:46:03.000Z</time>
      </trkpt>
      <trkpt lat="44.76536" lon="5.05011">
        <ele>505</ele>
        <time>2020-02-07T10:46:04.000Z</time>
      </trkpt>
      <trkpt lat="44.76537" lon="5.0501">
        <ele>506</ele>
        <time>2020-02-07T10:46:05.000Z</time>
      </trkpt>
      <trkpt lat="44.76538" lon="5.0501">
        <ele>506</ele>
        <time>2020-02-07T10:46:06.000Z</time>
      </trkpt>
      <trkpt lat="44.76539" lon="5.0501">
        <ele>506</ele>
        <time>2020-02-07T10:46:07.000Z</time>
      </trkpt>
      <trkpt lat="44.7654" lon="5.0501">
        <ele>506</ele>
        <time>2020-02-07T10:46:08.000Z</time>
      </trkpt>
      <trkpt lat="44.76541" lon="5.0501">
        <ele>506</ele>
        <time>2020-02-07T10:46:09.000Z</time>
      </trkpt>
      <trkpt lat="44.76542" lon="5.05011">
        <ele>506</ele>
        <time>2020-02-07T10:46:10.000Z</time>
      </trkpt>
      <trkpt lat="44.76543" lon="5.05011">
        <ele>506</ele>
        <time>2020-02-07T10:46:11.000Z</time>
      </trkpt>
      <trkpt lat="44.76544" lon="5.05011">
        <ele>506</ele>
        <time>2020-02-07T10:46:12.000Z</time>
      </trkpt>
      <trkpt lat="44.76545" lon="5.05012">
        <ele>506</ele>
        <time>2020-02-07T10:46:13.000Z</time>
      </trkpt>
      <trkpt lat="44.76547" lon="5.05012">
        <ele>506</ele>
        <time>2020-02-07T10:46:14.000Z</time>
      </trkpt>
      <trkpt lat="44.76548" lon="5.05012">
        <ele>506</ele>
        <time>2020-02-07T10:46:15.000Z</time>
      </trkpt>
      <trkpt lat="44.76548" lon="5.05012">
        <ele>506</ele>
        <time>2020-02-07T10:46:16.000Z</time>
      </trkpt>
      <trkpt lat="44.76549" lon="5.05012">
        <ele>506</ele>
        <time>2020-02-07T10:46:17.000Z</time>
      </trkpt>
      <trkpt lat="44.7655" lon="5.05012">
        <ele>506</ele>
        <time>2020-02-07T10:46:18.000Z</time>
      </trkpt>
      <trkpt lat="44.76551" lon="5.05012">
        <ele>506</ele>
        <time>2020-02-07T10:46:19.000Z</time>
      </trkpt>
      <trkpt lat="44.76553" lon="5.05013">
        <ele>506</ele>
        <time>2020-02-07T10:46:20.000Z</time>
      </trkpt>
      <trkpt lat="44.76553" lon="5.05013">
        <ele>506</ele>
        <time>2020-02-07T10:46:21.000Z</time>
      </trkpt>
      <trkpt lat="44.76554" lon="5.05014">
        <ele>506</ele>
        <time>2020-02-07T10:46:22.000Z</time>
      </trkpt>
      <trkpt lat="44.76555" lon="5.05014">
        <ele>506</ele>
        <time>2020-02-07T10:46:23.000Z</time>
      </trkpt>
      <trkpt lat="44.76556" lon="5.05014">
        <ele>506</ele>
        <time>2020-02-07T10:46:24.000Z</time>
      </trkpt>
      <trkpt lat="44.76558" lon="5.05015">
        <ele>506</ele>
        <time>2020-02-07T10:46:25.000Z</time>
      </trkpt>
      <trkpt lat="44.76559" lon="5.05015">
        <ele>506</ele>
        <time>2020-02-07T10:46:26.000Z</time>
      </trkpt>
      <trkpt lat="44.7656" lon="5.05015">
        <ele>506</ele>
        <time>2020-02-07T10:46:27.000Z</time>
      </trkpt>
      <trkpt lat="44.76561" lon="5.05015">
        <ele>506</ele>
        <time>2020-02-07T10:46:28.000Z</time>
      </trkpt>
      <trkpt lat="44.76562" lon="5.05016">
        <ele>506</ele>
        <time>2020-02-07T10:46:29.000Z</time>
      </trkpt>
      <trkpt lat="44.76563" lon="5.05016">
        <ele>506</ele>
        <time>2020-02-07T10:46:30.000Z</time>
      </trkpt>
      <trkpt lat="44.76564" lon="5.05016">
        <ele>506</ele>
        <time>2020-02-07T10:46:31.000Z</time>
      </trkpt>
      <trkpt lat="44.76566" lon="5.05017">
        <ele>506</ele>
        <time>2020-02-07T10:46:32.000Z</time>
      </trkpt>
      <trkpt lat="44.76567" lon="5.05018">
        <ele>506</ele>
        <time>2020-02-07T10:46:33.000Z</time>
      </trkpt>
      <trkpt lat="44.76568" lon="5.05018">
        <ele>506</ele>
        <time>2020-02-07T10:46:34.000Z</time>
      </trkpt>
      <trkpt lat="44.76569" lon="5.05018">
        <ele>506</ele>
        <time>2020-02-07T10:46:35.000Z</time>
      </trkpt>
      <trkpt lat="44.7657" lon="5.05018">
        <ele>506</ele>
        <time>2020-02-07T10:46:36.000Z</time>
      </trkpt>
      <trkpt lat="44.76571" lon="5.05019">
        <ele>506</ele>
        <time>2020-02-07T10:46:37.000Z</time>
      </trkpt>
      <trkpt lat="44.76572" lon="5.05019">
        <ele>506</ele>
        <time>2020-02-07T10:46:38.000Z</time>
      </trkpt>
      <trkpt lat="44.76573" lon="5.0502">
        <ele>506</ele>
        <time>2020-02-07T10:46:39.000Z</time>
      </trkpt>
      <trkpt lat="44.76574" lon="5.0502">
        <ele>506</ele>
        <time>2020-02-07T10:46:40.000Z</time>
      </trkpt>
      <trkpt lat="44.76575" lon="5.0502">
        <ele>506</ele>
        <time>2020-02-07T10:46:41.000Z</time>
      </trkpt>
      <trkpt lat="44.76576" lon="5.0502">
        <ele>506</ele>
        <time>2020-02-07T10:46:42.000Z</time>
      </trkpt>
      <trkpt lat="44.76577" lon="5.05021">
        <ele>507</ele>
        <time>2020-02-07T10:46:43.000Z</time>
      </trkpt>
      <trkpt lat="44.76579" lon="5.05021">
        <ele>507</ele>
        <time>2020-02-07T10:46:44.000Z</time>
      </trkpt>
      <trkpt lat="44.7658" lon="5.05021">
        <ele>507</ele>
        <time>2020-02-07T10:46:45.000Z</time>
      </trkpt>
      <trkpt lat="44.7658" lon="5.05021">
        <ele>507</ele>
        <time>2020-02-07T10:46:46.000Z</time>
      </trkpt>
      <trkpt lat="44.76581" lon="5.05022">
        <ele>507</ele>
        <time>2020-02-07T10:46:47.000Z</time>
      </trkpt>
      <trkpt lat="44.76582" lon="5.05022">
        <ele>507</ele>
        <time>2020-02-07T10:46:48.000Z</time>
      </trkpt>
      <trkpt lat="44.76583" lon="5.05022">
        <ele>507</ele>
        <time>2020-02-07T10:46:49.000Z</time>
      </trkpt>
      <trkpt lat="44.76584" lon="5.05022">
        <ele>507</ele>
        <time>2020-02-07T10:46:50.000Z</time>
      </trkpt>
      <trkpt lat="44.76585" lon="5.05022">
        <ele>507</ele>
        <time>2020-02-07T10:46:51.000Z</time>
      </trkpt>
      <trkpt lat="44.76586" lon="5.05023">
        <ele>507</ele>
        <time>2020-02-07T10:46:52.000Z</time>
      </trkpt>
      <trkpt lat="44.76587" lon="5.05023">
        <ele>507</ele>
        <time>2020-02-07T10:46:53.000Z</time>
      </trkpt>
      <trkpt lat="44.76588" lon="5.05023">
        <ele>507</ele>
        <time>2020-02-07T10:46:54.000Z</time>
      </trkpt>
      <trkpt lat="44.76589" lon="5.05024">
        <ele>507</ele>
        <time>2020-02-07T10:46:55.000Z</time>
      </trkpt>
      <trkpt lat="44.7659" lon="5.05024">
        <ele>507</ele>
        <time>2020-02-07T10:46:56.000Z</time>
      </trkpt>
      <trkpt lat="44.76591" lon="5.05025">
        <ele>507</ele>
        <time>2020-02-07T10:46:57.000Z</time>
      </trkpt>
      <trkpt lat="44.76592" lon="5.05026">
        <ele>507</ele>
        <time>2020-02-07T10:46:58.000Z</time>
      </trkpt>
      <trkpt lat="44.76594" lon="5.05026">
        <ele>507</ele>
        <time>2020-02-07T10:46:59.000Z</time>
      </trkpt>
      <trkpt lat="44.76595" lon="5.05026">
        <ele>507</ele>
        <time>2020-02-07T10:47:00.000Z</time>
      </trkpt>
      <trkpt lat="44.76596" lon="5.05026">
        <ele>507</ele>
        <time>2020-02-07T10:47:01.000Z</time>
      </trkpt>
      <trkpt lat="44.76597" lon="5.05027">
        <ele>507</ele>
        <time>2020-02-07T10:47:02.000Z</time>
      </trkpt>
      <trkpt lat="44.76598" lon="5.05028">
        <ele>507</ele>
        <time>2020-02-07T10:47:03.000Z</time>
      </trkpt>
      <trkpt lat="44.76599" lon="5.05028">
        <ele>507</ele>
        <time>2020-02-07T10:47:04.000Z</time>
      </trkpt>
      <trkpt lat="44.766" lon="5.05029">
        <ele>507</ele>
        <time>2020-02-07T10:47:05.000Z</time>
      </trkpt>
      <trkpt lat="44.76602" lon="5.05029">
        <ele>507</ele>
        <time>2020-02-07T10:47:06.000Z</time>
      </trkpt>
      <trkpt lat="44.76603" lon="5.0503">
        <ele>507</ele>
        <time>2020-02-07T10:47:07.000Z</time>
      </trkpt>
      <trkpt lat="44.76604" lon="5.0503">
        <ele>507</ele>
        <time>2020-02-07T10:47:08.000Z</time>
      </trkpt>
      <trkpt lat="44.76605" lon="5.0503">
        <ele>508</ele>
        <time>2020-02-07T10:47:09.000Z</time>
      </trkpt>
      <trkpt lat="44.76606" lon="5.05031">
        <ele>508</ele>
        <time>2020-02-07T10:47:10.000Z</time>
      </trkpt>
      <trkpt lat="44.76607" lon="5.05031">
        <ele>508</ele>
        <time>2020-02-07T10:47:11.000Z</time>
      </trkpt>
      <trkpt lat="44.76608" lon="5.05032">
        <ele>508</ele>
        <time>2020-02-07T10:47:12.000Z</time>
      </trkpt>
      <trkpt lat="44.76609" lon="5.05032">
        <ele>508</ele>
        <time>2020-02-07T10:47:13.000Z</time>
      </trkpt>
      <trkpt lat="44.76611" lon="5.05032">
        <ele>508</ele>
        <time>2020-02-07T10:47:14.000Z</time>
      </trkpt>
      <trkpt lat="44.76612" lon="5.05033">
        <ele>508</ele>
        <time>2020-02-07T10:47:15.000Z</time>
      </trkpt>
      <trkpt lat="44.76613" lon="5.05033">
        <ele>508</ele>
        <time>2020-02-07T10:47:16.000Z</time>
      </trkpt>
      <trkpt lat="44.76614" lon="5.05033">
        <ele>508</ele>
        <time>2020-02-07T10:47:17.000Z</time>
      </trkpt>
      <trkpt lat="44.76615" lon="5.05034">
        <ele>509</ele>
        <time>2020-02-07T10:47:18.000Z</time>
      </trkpt>
      <trkpt lat="44.76616" lon="5.05034">
        <ele>509</ele>
        <time>2020-02-07T10:47:19.000Z</time>
      </trkpt>
      <trkpt lat="44.76617" lon="5.05033">
        <ele>509</ele>
        <time>2020-02-07T10:47:20.000Z</time>
      </trkpt>
      <trkpt lat="44.76618" lon="5.05033">
        <ele>509</ele>
        <time>2020-02-07T10:47:21.000Z</time>
      </trkpt>
      <trkpt lat="44.76619" lon="5.05033">
        <ele>509</ele>
        <time>2020-02-07T10:47:22.000Z</time>
      </trkpt>
      <trkpt lat="44.7662" lon="5.05033">
        <ele>509</ele>
        <time>2020-02-07T10:47:23.000Z</time>
      </trkpt>
      <trkpt lat="44.76621" lon="5.05033">
        <ele>509</ele>
        <time>2020-02-07T10:47:24.000Z</time>
      </trkpt>
      <trkpt lat="44.76623" lon="5.05033">
        <ele>509</ele>
        <time>2020-02-07T10:47:25.000Z</time>
      </trkpt>
      <trkpt lat="44.76624" lon="5.05033">
        <ele>509</ele>
        <time>2020-02-07T10:47:26.000Z</time>
      </trkpt>
      <trkpt lat="44.76625" lon="5.05033">
        <ele>509</ele>
        <time>2020-02-07T10:47:27.000Z</time>
      </trkpt>
      <trkpt lat="44.76626" lon="5.05033">
        <ele>509</ele>
        <time>2020-02-07T10:47:28.000Z</time>
      </trkpt>
      <trkpt lat="44.76627" lon="5.05033">
        <ele>509</ele>
        <time>2020-02-07T10:47:29.000Z</time>
      </trkpt>
      <trkpt lat="44.76628" lon="5.05033">
        <ele>509</ele>
        <time>2020-02-07T10:47:30.000Z</time>
      </trkpt>
      <trkpt lat="44.76629" lon="5.05033">
        <ele>510</ele>
        <time>2020-02-07T10:47:31.000Z</time>
      </trkpt>
      <trkpt lat="44.7663" lon="5.05034">
        <ele>510</ele>
        <time>2020-02-07T10:47:32.000Z</time>
      </trkpt>
      <trkpt lat="44.76631" lon="5.05034">
        <ele>510</ele>
        <time>2020-02-07T10:47:33.000Z</time>
      </trkpt>
      <trkpt lat="44.76632" lon="5.05034">
        <ele>510</ele>
        <time>2020-02-07T10:47:34.000Z</time>
      </trkpt>
      <trkpt lat="44.76633" lon="5.05034">
        <ele>510</ele>
        <time>2020-02-07T10:47:35.000Z</time>
      </trkpt>
      <trkpt lat="44.76634" lon="5.05034">
        <ele>510</ele>
        <time>2020-02-07T10:47:36.000Z</time>
      </trkpt>
      <trkpt lat="44.76635" lon="5.05033">
        <ele>510</ele>
        <time>2020-02-07T10:47:37.000Z</time>
      </trkpt>
      <trkpt lat="44.76636" lon="5.05033">
        <ele>510</ele>
        <time>2020-02-07T10:47:38.000Z</time>
      </trkpt>
      <trkpt lat="44.76637" lon="5.05033">
        <ele>510</ele>
        <time>2020-02-07T10:47:39.000Z</time>
      </trkpt>
      <trkpt lat="44.76638" lon="5.05033">
        <ele>510</ele>
        <time>2020-02-07T10:47:40.000Z</time>
      </trkpt>
      <trkpt lat="44.76639" lon="5.05033">
        <ele>510</ele>
        <time>2020-02-07T10:47:41.000Z</time>
      </trkpt>
      <trkpt lat="44.7664" lon="5.05033">
        <ele>511</ele>
        <time>2020-02-07T10:47:42.000Z</time>
      </trkpt>
      <trkpt lat="44.76641" lon="5.05034">
        <ele>511</ele>
        <time>2020-02-07T10:47:43.000Z</time>
      </trkpt>
      <trkpt lat="44.76642" lon="5.05034">
        <ele>511</ele>
        <time>2020-02-07T10:47:44.000Z</time>
      </trkpt>
      <trkpt lat="44.76642" lon="5.05034">
        <ele>511</ele>
        <time>2020-02-07T10:47:45.000Z</time>
      </trkpt>
      <trkpt lat="44.76643" lon="5.05034">
        <ele>511</ele>
        <time>2020-02-07T10:47:46.000Z</time>
      </trkpt>
      <trkpt lat="44.76644" lon="5.05034">
        <ele>511</ele>
        <time>2020-02-07T10:47:47.000Z</time>
      </trkpt>
      <trkpt lat="44.76644" lon="5.05034">
        <ele>511</ele>
        <time>2020-02-07T10:47:48.000Z</time>
      </trkpt>
      <trkpt lat="44.76645" lon="5.05034">
        <ele>511</ele>
        <time>2020-02-07T10:47:49.000Z</time>
      </trkpt>
      <trkpt lat="44.76645" lon="5.05035">
        <ele>512</ele>
        <time>2020-02-07T10:47:50.000Z</time>
      </trkpt>
      <trkpt lat="44.76646" lon="5.05035">
        <ele>512</ele>
        <time>2020-02-07T10:47:51.000Z</time>
      </trkpt>
      <trkpt lat="44.76646" lon="5.05035">
        <ele>512</ele>
        <time>2020-02-07T10:47:52.000Z</time>
      </trkpt>
      <trkpt lat="44.76647" lon="5.05036">
        <ele>512</ele>
        <time>2020-02-07T10:47:53.000Z</time>
      </trkpt>
      <trkpt lat="44.76648" lon="5.05036">
        <ele>512</ele>
        <time>2020-02-07T10:47:54.000Z</time>
      </trkpt>
      <trkpt lat="44.76649" lon="5.05037">
        <ele>512</ele>
        <time>2020-02-07T10:47:55.000Z</time>
      </trkpt>
      <trkpt lat="44.76649" lon="5.05037">
        <ele>512</ele>
        <time>2020-02-07T10:47:56.000Z</time>
      </trkpt>
      <trkpt lat="44.7665" lon="5.05038">
        <ele>512</ele>
        <time>2020-02-07T10:47:57.000Z</time>
      </trkpt>
      <trkpt lat="44.76651" lon="5.05038">
        <ele>512</ele>
        <time>2020-02-07T10:47:58.000Z</time>
      </trkpt>
      <trkpt lat="44.76652" lon="5.05039">
        <ele>512</ele>
        <time>2020-02-07T10:47:59.000Z</time>
      </trkpt>
      <trkpt lat="44.76653" lon="5.05039">
        <ele>512</ele>
        <time>2020-02-07T10:48:00.000Z</time>
      </trkpt>
      <trkpt lat="44.76654" lon="5.0504">
        <ele>512</ele>
        <time>2020-02-07T10:48:01.000Z</time>
      </trkpt>
      <trkpt lat="44.76655" lon="5.05041">
        <ele>512</ele>
        <time>2020-02-07T10:48:02.000Z</time>
      </trkpt>
      <trkpt lat="44.76656" lon="5.05041">
        <ele>512</ele>
        <time>2020-02-07T10:48:03.000Z</time>
      </trkpt>
      <trkpt lat="44.76657" lon="5.05042">
        <ele>512</ele>
        <time>2020-02-07T10:48:04.000Z</time>
      </trkpt>
      <trkpt lat="44.76658" lon="5.05043">
        <ele>512</ele>
        <time>2020-02-07T10:48:05.000Z</time>
      </trkpt>
      <trkpt lat="44.76659" lon="5.05044">
        <ele>512</ele>
        <time>2020-02-07T10:48:06.000Z</time>
      </trkpt>
      <trkpt lat="44.7666" lon="5.05044">
        <ele>512</ele>
        <time>2020-02-07T10:48:07.000Z</time>
      </trkpt>
      <trkpt lat="44.76661" lon="5.05045">
        <ele>512</ele>
        <time>2020-02-07T10:48:08.000Z</time>
      </trkpt>
      <trkpt lat="44.76662" lon="5.05045">
        <ele>512</ele>
        <time>2020-02-07T10:48:09.000Z</time>
      </trkpt>
      <trkpt lat="44.76663" lon="5.05046">
        <ele>512</ele>
        <time>2020-02-07T10:48:10.000Z</time>
      </trkpt>
      <trkpt lat="44.76664" lon="5.05046">
        <ele>513</ele>
        <time>2020-02-07T10:48:11.000Z</time>
      </trkpt>
      <trkpt lat="44.76665" lon="5.05046">
        <ele>513</ele>
        <time>2020-02-07T10:48:12.000Z</time>
      </trkpt>
      <trkpt lat="44.76665" lon="5.05047">
        <ele>513</ele>
        <time>2020-02-07T10:48:13.000Z</time>
      </trkpt>
      <trkpt lat="44.76666" lon="5.05047">
        <ele>513</ele>
        <time>2020-02-07T10:48:14.000Z</time>
      </trkpt>
      <trkpt lat="44.76667" lon="5.05048">
        <ele>513</ele>
        <time>2020-02-07T10:48:15.000Z</time>
      </trkpt>
      <trkpt lat="44.76668" lon="5.05048">
        <ele>513</ele>
        <time>2020-02-07T10:48:16.000Z</time>
      </trkpt>
      <trkpt lat="44.76669" lon="5.05049">
        <ele>513</ele>
        <time>2020-02-07T10:48:17.000Z</time>
      </trkpt>
      <trkpt lat="44.76671" lon="5.05049">
        <ele>513</ele>
        <time>2020-02-07T10:48:18.000Z</time>
      </trkpt>
      <trkpt lat="44.76672" lon="5.05049">
        <ele>514</ele>
        <time>2020-02-07T10:48:19.000Z</time>
      </trkpt>
      <trkpt lat="44.76672" lon="5.0505">
        <ele>514</ele>
        <time>2020-02-07T10:48:20.000Z</time>
      </trkpt>
      <trkpt lat="44.76673" lon="5.0505">
        <ele>514</ele>
        <time>2020-02-07T10:48:21.000Z</time>
      </trkpt>
      <trkpt lat="44.76674" lon="5.0505">
        <ele>514</ele>
        <time>2020-02-07T10:48:22.000Z</time>
      </trkpt>
      <trkpt lat="44.76675" lon="5.05051">
        <ele>514</ele>
        <time>2020-02-07T10:48:23.000Z</time>
      </trkpt>
      <trkpt lat="44.76676" lon="5.05051">
        <ele>514</ele>
        <time>2020-02-07T10:48:24.000Z</time>
      </trkpt>
      <trkpt lat="44.76677" lon="5.05052">
        <ele>514</ele>
        <time>2020-02-07T10:48:25.000Z</time>
      </trkpt>
      <trkpt lat="44.76678" lon="5.05052">
        <ele>515</ele>
        <time>2020-02-07T10:48:26.000Z</time>
      </trkpt>
      <trkpt lat="44.76679" lon="5.05052">
        <ele>515</ele>
        <time>2020-02-07T10:48:27.000Z</time>
      </trkpt>
      <trkpt lat="44.76679" lon="5.05052">
        <ele>515</ele>
        <time>2020-02-07T10:48:28.000Z</time>
      </trkpt>
      <trkpt lat="44.7668" lon="5.05053">
        <ele>515</ele>
        <time>2020-02-07T10:48:29.000Z</time>
      </trkpt>
      <trkpt lat="44.76681" lon="5.05053">
        <ele>515</ele>
        <time>2020-02-07T10:48:30.000Z</time>
      </trkpt>
      <trkpt lat="44.76682" lon="5.05054">
        <ele>515</ele>
        <time>2020-02-07T10:48:31.000Z</time>
      </trkpt>
      <trkpt lat="44.76683" lon="5.05054">
        <ele>515</ele>
        <time>2020-02-07T10:48:32.000Z</time>
      </trkpt>
      <trkpt lat="44.76684" lon="5.05055">
        <ele>515</ele>
        <time>2020-02-07T10:48:33.000Z</time>
      </trkpt>
      <trkpt lat="44.76684" lon="5.05055">
        <ele>515</ele>
        <time>2020-02-07T10:48:34.000Z</time>
      </trkpt>
      <trkpt lat="44.76685" lon="5.05055">
        <ele>516</ele>
        <time>2020-02-07T10:48:35.000Z</time>
      </trkpt>
      <trkpt lat="44.76686" lon="5.05056">
        <ele>516</ele>
        <time>2020-02-07T10:48:36.000Z</time>
      </trkpt>
      <trkpt lat="44.76686" lon="5.05056">
        <ele>516</ele>
        <time>2020-02-07T10:48:37.000Z</time>
      </trkpt>
      <trkpt lat="44.76687" lon="5.05057">
        <ele>516</ele>
        <time>2020-02-07T10:48:38.000Z</time>
      </trkpt>
      <trkpt lat="44.76688" lon="5.05058">
        <ele>516</ele>
        <time>2020-02-07T10:48:39.000Z</time>
      </trkpt>
      <trkpt lat="44.76689" lon="5.05059">
        <ele>516</ele>
        <time>2020-02-07T10:48:40.000Z</time>
      </trkpt>
      <trkpt lat="44.7669" lon="5.0506">
        <ele>516</ele>
        <time>2020-02-07T10:48:41.000Z</time>
      </trkpt>
      <trkpt lat="44.7669" lon="5.0506">
        <ele>516</ele>
        <time>2020-02-07T10:48:42.000Z</time>
      </trkpt>
      <trkpt lat="44.76691" lon="5.0506">
        <ele>517</ele>
        <time>2020-02-07T10:48:43.000Z</time>
      </trkpt>
      <trkpt lat="44.76692" lon="5.05061">
        <ele>517</ele>
        <time>2020-02-07T10:48:44.000Z</time>
      </trkpt>
      <trkpt lat="44.76693" lon="5.05062">
        <ele>517</ele>
        <time>2020-02-07T10:48:45.000Z</time>
      </trkpt>
      <trkpt lat="44.76694" lon="5.05063">
        <ele>517</ele>
        <time>2020-02-07T10:48:46.000Z</time>
      </trkpt>
      <trkpt lat="44.76695" lon="5.05064">
        <ele>517</ele>
        <time>2020-02-07T10:48:47.000Z</time>
      </trkpt>
      <trkpt lat="44.76696" lon="5.05065">
        <ele>517</ele>
        <time>2020-02-07T10:48:48.000Z</time>
      </trkpt>
      <trkpt lat="44.76696" lon="5.05065">
        <ele>517</ele>
        <time>2020-02-07T10:48:49.000Z</time>
      </trkpt>
      <trkpt lat="44.76697" lon="5.05066">
        <ele>517</ele>
        <time>2020-02-07T10:48:50.000Z</time>
      </trkpt>
      <trkpt lat="44.76697" lon="5.05067">
        <ele>517</ele>
        <time>2020-02-07T10:48:51.000Z</time>
      </trkpt>
      <trkpt lat="44.76698" lon="5.05067">
        <ele>517</ele>
        <time>2020-02-07T10:48:52.000Z</time>
      </trkpt>
      <trkpt lat="44.76699" lon="5.05068">
        <ele>517</ele>
        <time>2020-02-07T10:48:53.000Z</time>
      </trkpt>
      <trkpt lat="44.76699" lon="5.05068">
        <ele>517</ele>
        <time>2020-02-07T10:48:54.000Z</time>
      </trkpt>
      <trkpt lat="44.76699" lon="5.05068">
        <ele>517</ele>
        <time>2020-02-07T10:48:55.000Z</time>
      </trkpt>
      <trkpt lat="44.767" lon="5.05069">
        <ele>517</ele>
        <time>2020-02-07T10:48:56.000Z</time>
      </trkpt>
      <trkpt lat="44.767" lon="5.05069">
        <ele>517</ele>
        <time>2020-02-07T10:48:57.000Z</time>
      </trkpt>
      <trkpt lat="44.76701" lon="5.0507">
        <ele>517</ele>
        <time>2020-02-07T10:48:58.000Z</time>
      </trkpt>
      <trkpt lat="44.76702" lon="5.05071">
        <ele>517</ele>
        <time>2020-02-07T10:48:59.000Z</time>
      </trkpt>
      <trkpt lat="44.76702" lon="5.05071">
        <ele>517</ele>
        <time>2020-02-07T10:49:00.000Z</time>
      </trkpt>
      <trkpt lat="44.76702" lon="5.05072">
        <ele>517</ele>
        <time>2020-02-07T10:49:01.000Z</time>
      </trkpt>
      <trkpt lat="44.76702" lon="5.05073">
        <ele>517</ele>
        <time>2020-02-07T10:49:02.000Z</time>
      </trkpt>
      <trkpt lat="44.76703" lon="5.05073">
        <ele>517</ele>
        <time>2020-02-07T10:49:03.000Z</time>
      </trkpt>
      <trkpt lat="44.76703" lon="5.05073">
        <ele>517</ele>
        <time>2020-02-07T10:49:04.000Z</time>
      </trkpt>
      <trkpt lat="44.76703" lon="5.05073">
        <ele>517</ele>
        <time>2020-02-07T10:49:05.000Z</time>
      </trkpt>
      <trkpt lat="44.76703" lon="5.05073">
        <ele>517</ele>
        <time>2020-02-07T10:49:06.000Z</time>
      </trkpt>
      <trkpt lat="44.76703" lon="5.05073">
        <ele>517</ele>
        <time>2020-02-07T10:49:07.000Z</time>
      </trkpt>
      <trkpt lat="44.76703" lon="5.05073">
        <ele>517</ele>
        <time>2020-02-07T10:49:08.000Z</time>
      </trkpt>
      <trkpt lat="44.76703" lon="5.05073">
        <ele>517</ele>
        <time>2020-02-07T10:49:09.000Z</time>
      </trkpt>
      <trkpt lat="44.76703" lon="5.05073">
        <ele>517</ele>
        <time>2020-02-07T10:49:10.000Z</time>
      </trkpt>
      <trkpt lat="44.76703" lon="5.05073">
        <ele>517</ele>
        <time>2020-02-07T10:49:11.000Z</time>
      </trkpt>
      <trkpt lat="44.76703" lon="5.05073">
        <ele>517</ele>
        <time>2020-02-07T10:49:12.000Z</time>
      </trkpt>
      <trkpt lat="44.76703" lon="5.05073">
        <ele>517</ele>
        <time>2020-02-07T10:49:13.000Z</time>
      </trkpt>
      <trkpt lat="44.76703" lon="5.05074">
        <ele>517</ele>
        <time>2020-02-07T10:49:14.000Z</time>
      </trkpt>
      <trkpt lat="44.76703" lon="5.05074">
        <ele>517</ele>
        <time>2020-02-07T10:49:15.000Z</time>
      </trkpt>
      <trkpt lat="44.76703" lon="5.05074">
        <ele>517</ele>
        <time>2020-02-07T10:49:16.000Z</time>
      </trkpt>
      <trkpt lat="44.76703" lon="5.05074">
        <ele>517</ele>
        <time>2020-02-07T10:49:17.000Z</time>
      </trkpt>
      <trkpt lat="44.76703" lon="5.05074">
        <ele>517</ele>
        <time>2020-02-07T10:49:18.000Z</time>
      </trkpt>
      <trkpt lat="44.76703" lon="5.05074">
        <ele>518</ele>
        <time>2020-02-07T10:49:19.000Z</time>
      </trkpt>
      <trkpt lat="44.76704" lon="5.05075">
        <ele>518</ele>
        <time>2020-02-07T10:49:20.000Z</time>
      </trkpt>
      <trkpt lat="44.76704" lon="5.05075">
        <ele>518</ele>
        <time>2020-02-07T10:49:21.000Z</time>
      </trkpt>
      <trkpt lat="44.76704" lon="5.05075">
        <ele>518</ele>
        <time>2020-02-07T10:49:22.000Z</time>
      </trkpt>
      <trkpt lat="44.76704" lon="5.05075">
        <ele>518</ele>
        <time>2020-02-07T10:49:23.000Z</time>
      </trkpt>
      <trkpt lat="44.76704" lon="5.05075">
        <ele>518</ele>
        <time>2020-02-07T10:49:24.000Z</time>
      </trkpt>
      <trkpt lat="44.76704" lon="5.05075">
        <ele>518</ele>
        <time>2020-02-07T10:49:25.000Z</time>
      </trkpt>
      <trkpt lat="44.76704" lon="5.05075">
        <ele>518</ele>
        <time>2020-02-07T10:49:26.000Z</time>
      </trkpt>
      <trkpt lat="44.76704" lon="5.05075">
        <ele>518</ele>
        <time>2020-02-07T10:49:27.000Z</time>
      </trkpt>
      <trkpt lat="44.76704" lon="5.05075">
        <ele>518</ele>
        <time>2020-02-07T10:49:28.000Z</time>
      </trkpt>
      <trkpt lat="44.76704" lon="5.05075">
        <ele>518</ele>
        <time>2020-02-07T10:49:29.000Z</time>
      </trkpt>
      <trkpt lat="44.76704" lon="5.05075">
        <ele>518</ele>
        <time>2020-02-07T10:49:30.000Z</time>
      </trkpt>
      <trkpt lat="44.76704" lon="5.05075">
        <ele>518</ele>
        <time>2020-02-07T10:49:31.000Z</time>
      </trkpt>
      <trkpt lat="44.76704" lon="5.05075">
        <ele>518</ele>
        <time>2020-02-07T10:49:32.000Z</time>
      </trkpt>
      <trkpt lat="44.76704" lon="5.05075">
        <ele>519</ele>
        <time>2020-02-07T10:49:33.000Z</time>
      </trkpt>
      <trkpt lat="44.76704" lon="5.05075">
        <ele>519</ele>
        <time>2020-02-07T10:49:34.000Z</time>
      </trkpt>
      <trkpt lat="44.76704" lon="5.05076">
        <ele>519</ele>
        <time>2020-02-07T10:49:35.000Z</time>
      </trkpt>
      <trkpt lat="44.76704" lon="5.05076">
        <ele>519</ele>
        <time>2020-02-07T10:49:36.000Z</time>
      </trkpt>
      <trkpt lat="44.76704" lon="5.05076">
        <ele>519</ele>
        <time>2020-02-07T10:49:37.000Z</time>
      </trkpt>
      <trkpt lat="44.76704" lon="5.05076">
        <ele>519</ele>
        <time>2020-02-07T10:49:38.000Z</time>
      </trkpt>
      <trkpt lat="44.76704" lon="5.05076">
        <ele>519</ele>
        <time>2020-02-07T10:49:39.000Z</time>
      </trkpt>
      <trkpt lat="44.76704" lon="5.05076">
        <ele>519</ele>
        <time>2020-02-07T10:49:40.000Z</time>
      </trkpt>
      <trkpt lat="44.76704" lon="5.05076">
        <ele>519</ele>
        <time>2020-02-07T10:49:41.000Z</time>
      </trkpt>
      <trkpt lat="44.76704" lon="5.05076">
        <ele>519</ele>
        <time>2020-02-07T10:49:42.000Z</time>
      </trkpt>
      <trkpt lat="44.76704" lon="5.05076">
        <ele>519</ele>
        <time>2020-02-07T10:49:43.000Z</time>
      </trkpt>
      <trkpt lat="44.76704" lon="5.05076">
        <ele>518</ele>
        <time>2020-02-07T10:49:44.000Z</time>
      </trkpt>
      <trkpt lat="44.76704" lon="5.05076">
        <ele>518</ele>
        <time>2020-02-07T10:49:45.000Z</time>
      </trkpt>
      <trkpt lat="44.76704" lon="5.05076">
        <ele>518</ele>
        <time>2020-02-07T10:49:46.000Z</time>
      </trkpt>
      <trkpt lat="44.76703" lon="5.05076">
        <ele>518</ele>
        <time>2020-02-07T10:49:47.000Z</time>
      </trkpt>
      <trkpt lat="44.76704" lon="5.05076">
        <ele>518</ele>
        <time>2020-02-07T10:49:48.000Z</time>
      </trkpt>
      <trkpt lat="44.76704" lon="5.05076">
        <ele>518</ele>
        <time>2020-02-07T10:49:49.000Z</time>
      </trkpt>
      <trkpt lat="44.76703" lon="5.05076">
        <ele>518</ele>
        <time>2020-02-07T10:49:50.000Z</time>
      </trkpt>
      <trkpt lat="44.76703" lon="5.05076">
        <ele>518</ele>
        <time>2020-02-07T10:49:51.000Z</time>
      </trkpt>
      <trkpt lat="44.76703" lon="5.05076">
        <ele>518</ele>
        <time>2020-02-07T10:49:52.000Z</time>
      </trkpt>
      <trkpt lat="44.76703" lon="5.05076">
        <ele>518</ele>
        <time>2020-02-07T10:49:53.000Z</time>
      </trkpt>
      <trkpt lat="44.76703" lon="5.05076">
        <ele>518</ele>
        <time>2020-02-07T10:49:54.000Z</time>
      </trkpt>
      <trkpt lat="44.76703" lon="5.05076">
        <ele>518</ele>
        <time>2020-02-07T10:49:55.000Z</time>
      </trkpt>
      <trkpt lat="44.76703" lon="5.05076">
        <ele>518</ele>
        <time>2020-02-07T10:49:56.000Z</time>
      </trkpt>
      <trkpt lat="44.76703" lon="5.05076">
        <ele>518</ele>
        <time>2020-02-07T10:49:57.000Z</time>
      </trkpt>
      <trkpt lat="44.76703" lon="5.05076">
        <ele>518</ele>
        <time>2020-02-07T10:49:58.000Z</time>
      </trkpt>
      <trkpt lat="44.76703" lon="5.05076">
        <ele>518</ele>
        <time>2020-02-07T10:49:59.000Z</time>
      </trkpt>
      <trkpt lat="44.76703" lon="5.05076">
        <ele>518</ele>
        <time>2020-02-07T10:50:00.000Z</time>
      </trkpt>
      <trkpt lat="44.76703" lon="5.05076">
        <ele>518</ele>
        <time>2020-02-07T10:50:01.000Z</time>
      </trkpt>
      <trkpt lat="44.76703" lon="5.05076">
        <ele>518</ele>
        <time>2020-02-07T10:50:02.000Z</time>
      </trkpt>
      <trkpt lat="44.76703" lon="5.05077">
        <ele>518</ele>
        <time>2020-02-07T10:50:03.000Z</time>
      </trkpt>
      <trkpt lat="44.76703" lon="5.05077">
        <ele>518</ele>
        <time>2020-02-07T10:50:04.000Z</time>
      </trkpt>
      <trkpt lat="44.76703" lon="5.05077">
        <ele>518</ele>
        <time>2020-02-07T10:50:05.000Z</time>
      </trkpt>
      <trkpt lat="44.76703" lon="5.05077">
        <ele>518</ele>
        <time>2020-02-07T10:50:06.000Z</time>
      </trkpt>
      <trkpt lat="44.76703" lon="5.05077">
        <ele>518</ele>
        <time>2020-02-07T10:50:07.000Z</time>
      </trkpt>
      <trkpt lat="44.76703" lon="5.05077">
        <ele>518</ele>
        <time>2020-02-07T10:50:08.000Z</time>
      </trkpt>
      <trkpt lat="44.76703" lon="5.05077">
        <ele>518</ele>
        <time>2020-02-07T10:50:09.000Z</time>
      </trkpt>
      <trkpt lat="44.76703" lon="5.05077">
        <ele>518</ele>
        <time>2020-02-07T10:50:10.000Z</time>
      </trkpt>
      <trkpt lat="44.76703" lon="5.05078">
        <ele>518</ele>
        <time>2020-02-07T10:50:11.000Z</time>
      </trkpt>
      <trkpt lat="44.76703" lon="5.05078">
        <ele>518</ele>
        <time>2020-02-07T10:50:12.000Z</time>
      </trkpt>
      <trkpt lat="44.76703" lon="5.05078">
        <ele>518</ele>
        <time>2020-02-07T10:50:13.000Z</time>
      </trkpt>
      <trkpt lat="44.76702" lon="5.05078">
        <ele>518</ele>
        <time>2020-02-07T10:50:14.000Z</time>
      </trkpt>
      <trkpt lat="44.76702" lon="5.05078">
        <ele>518</ele>
        <time>2020-02-07T10:50:15.000Z</time>
      </trkpt>
      <trkpt lat="44.76702" lon="5.05078">
        <ele>518</ele>
        <time>2020-02-07T10:50:16.000Z</time>
      </trkpt>
      <trkpt lat="44.76702" lon="5.05078">
        <ele>518</ele>
        <time>2020-02-07T10:50:17.000Z</time>
      </trkpt>
      <trkpt lat="44.76702" lon="5.05078">
        <ele>518</ele>
        <time>2020-02-07T10:50:18.000Z</time>
      </trkpt>
      <trkpt lat="44.76702" lon="5.05078">
        <ele>518</ele>
        <time>2020-02-07T10:50:19.000Z</time>
      </trkpt>
      <trkpt lat="44.76702" lon="5.05078">
        <ele>518</ele>
        <time>2020-02-07T10:50:20.000Z</time>
      </trkpt>
      <trkpt lat="44.76702" lon="5.05078">
        <ele>518</ele>
        <time>2020-02-07T10:50:21.000Z</time>
      </trkpt>
      <trkpt lat="44.76702" lon="5.05078">
        <ele>517</ele>
        <time>2020-02-07T10:50:22.000Z</time>
      </trkpt>
      <trkpt lat="44.76702" lon="5.05078">
        <ele>517</ele>
        <time>2020-02-07T10:50:23.000Z</time>
      </trkpt>
      <trkpt lat="44.76702" lon="5.05078">
        <ele>517</ele>
        <time>2020-02-07T10:50:24.000Z</time>
      </trkpt>
      <trkpt lat="44.76702" lon="5.05078">
        <ele>517</ele>
        <time>2020-02-07T10:50:25.000Z</time>
      </trkpt>
      <trkpt lat="44.76702" lon="5.05078">
        <ele>517</ele>
        <time>2020-02-07T10:50:26.000Z</time>
      </trkpt>
      <trkpt lat="44.76702" lon="5.05078">
        <ele>517</ele>
        <time>2020-02-07T10:50:27.000Z</time>
      </trkpt>
      <trkpt lat="44.76702" lon="5.05078">
        <ele>517</ele>
        <time>2020-02-07T10:50:28.000Z</time>
      </trkpt>
      <trkpt lat="44.76702" lon="5.05078">
        <ele>517</ele>
        <time>2020-02-07T10:50:29.000Z</time>
      </trkpt>
      <trkpt lat="44.76702" lon="5.05078">
        <ele>517</ele>
        <time>2020-02-07T10:50:30.000Z</time>
      </trkpt>
      <trkpt lat="44.76702" lon="5.05078">
        <ele>517</ele>
        <time>2020-02-07T10:50:31.000Z</time>
      </trkpt>
      <trkpt lat="44.76702" lon="5.05078">
        <ele>517</ele>
        <time>2020-02-07T10:50:32.000Z</time>
      </trkpt>
      <trkpt lat="44.76702" lon="5.05078">
        <ele>517</ele>
        <time>2020-02-07T10:50:33.000Z</time>
      </trkpt>
      <trkpt lat="44.76702" lon="5.05078">
        <ele>517</ele>
        <time>2020-02-07T10:50:34.000Z</time>
      </trkpt>
      <trkpt lat="44.76702" lon="5.05078">
        <ele>517</ele>
        <time>2020-02-07T10:50:35.000Z</time>
      </trkpt>
      <trkpt lat="44.76702" lon="5.05078">
        <ele>517</ele>
        <time>2020-02-07T10:50:36.000Z</time>
      </trkpt>
      <trkpt lat="44.76702" lon="5.05078">
        <ele>517</ele>
        <time>2020-02-07T10:50:37.000Z</time>
      </trkpt>
      <trkpt lat="44.76702" lon="5.05078">
        <ele>517</ele>
        <time>2020-02-07T10:50:38.000Z</time>
      </trkpt>
      <trkpt lat="44.76702" lon="5.05078">
        <ele>517</ele>
        <time>2020-02-07T10:50:39.000Z</time>
      </trkpt>
      <trkpt lat="44.76703" lon="5.05078">
        <ele>517</ele>
        <time>2020-02-07T10:50:40.000Z</time>
      </trkpt>
      <trkpt lat="44.76703" lon="5.05078">
        <ele>517</ele>
        <time>2020-02-07T10:50:41.000Z</time>
      </trkpt>
      <trkpt lat="44.76703" lon="5.05078">
        <ele>517</ele>
        <time>2020-02-07T10:50:42.000Z</time>
      </trkpt>
      <trkpt lat="44.76703" lon="5.05078">
        <ele>517</ele>
        <time>2020-02-07T10:50:43.000Z</time>
      </trkpt>
      <trkpt lat="44.76703" lon="5.05078">
        <ele>517</ele>
        <time>2020-02-07T10:50:44.000Z</time>
      </trkpt>
      <trkpt lat="44.76703" lon="5.05078">
        <ele>517</ele>
        <time>2020-02-07T10:50:45.000Z</time>
      </trkpt>
      <trkpt lat="44.76703" lon="5.05078">
        <ele>517</ele>
        <time>2020-02-07T10:50:46.000Z</time>
      </trkpt>
      <trkpt lat="44.76703" lon="5.05079">
        <ele>517</ele>
        <time>2020-02-07T10:50:47.000Z</time>
      </trkpt>
      <trkpt lat="44.76703" lon="5.05079">
        <ele>517</ele>
        <time>2020-02-07T10:50:48.000Z</time>
      </trkpt>
      <trkpt lat="44.76703" lon="5.05079">
        <ele>517</ele>
        <time>2020-02-07T10:50:49.000Z</time>
      </trkpt>
      <trkpt lat="44.76703" lon="5.05079">
        <ele>517</ele>
        <time>2020-02-07T10:50:50.000Z</time>
      </trkpt>
      <trkpt lat="44.76703" lon="5.05079">
        <ele>517</ele>
        <time>2020-02-07T10:50:51.000Z</time>
      </trkpt>
      <trkpt lat="44.76703" lon="5.05079">
        <ele>517</ele>
        <time>2020-02-07T10:50:52.000Z</time>
      </trkpt>
      <trkpt lat="44.76703" lon="5.05079">
        <ele>517</ele>
        <time>2020-02-07T10:50:53.000Z</time>
      </trkpt>
      <trkpt lat="44.76703" lon="5.0508">
        <ele>517</ele>
        <time>2020-02-07T10:50:54.000Z</time>
      </trkpt>
      <trkpt lat="44.76703" lon="5.0508">
        <ele>517</ele>
        <time>2020-02-07T10:50:55.000Z</time>
      </trkpt>
      <trkpt lat="44.76703" lon="5.0508">
        <ele>517</ele>
        <time>2020-02-07T10:50:56.000Z</time>
      </trkpt>
      <trkpt lat="44.76703" lon="5.0508">
        <ele>517</ele>
        <time>2020-02-07T10:50:57.000Z</time>
      </trkpt>
      <trkpt lat="44.76703" lon="5.0508">
        <ele>517</ele>
        <time>2020-02-07T10:50:58.000Z</time>
      </trkpt>
      <trkpt lat="44.76703" lon="5.0508">
        <ele>517</ele>
        <time>2020-02-07T10:50:59.000Z</time>
      </trkpt>
      <trkpt lat="44.76703" lon="5.0508">
        <ele>517</ele>
        <time>2020-02-07T10:51:00.000Z</time>
      </trkpt>
      <trkpt lat="44.76703" lon="5.0508">
        <ele>517</ele>
        <time>2020-02-07T10:51:01.000Z</time>
      </trkpt>
      <trkpt lat="44.76703" lon="5.0508">
        <ele>517</ele>
        <time>2020-02-07T10:51:02.000Z</time>
      </trkpt>
      <trkpt lat="44.76703" lon="5.0508">
        <ele>517</ele>
        <time>2020-02-07T10:51:03.000Z</time>
      </trkpt>
      <trkpt lat="44.76703" lon="5.0508">
        <ele>517</ele>
        <time>2020-02-07T10:51:04.000Z</time>
      </trkpt>
      <trkpt lat="44.76703" lon="5.0508">
        <ele>517</ele>
        <time>2020-02-07T10:51:05.000Z</time>
      </trkpt>
      <trkpt lat="44.76703" lon="5.0508">
        <ele>517</ele>
        <time>2020-02-07T10:51:06.000Z</time>
      </trkpt>
      <trkpt lat="44.76703" lon="5.0508">
        <ele>517</ele>
        <time>2020-02-07T10:51:07.000Z</time>
      </trkpt>
      <trkpt lat="44.76703" lon="5.0508">
        <ele>517</ele>
        <time>2020-02-07T10:51:08.000Z</time>
      </trkpt>
      <trkpt lat="44.76703" lon="5.0508">
        <ele>517</ele>
        <time>2020-02-07T10:51:09.000Z</time>
      </trkpt>
      <trkpt lat="44.76703" lon="5.0508">
        <ele>517</ele>
        <time>2020-02-07T10:51:10.000Z</time>
      </trkpt>
      <trkpt lat="44.76703" lon="5.0508">
        <ele>517</ele>
        <time>2020-02-07T10:51:11.000Z</time>
      </trkpt>
      <trkpt lat="44.76703" lon="5.0508">
        <ele>517</ele>
        <time>2020-02-07T10:51:12.000Z</time>
      </trkpt>
      <trkpt lat="44.76703" lon="5.0508">
        <ele>517</ele>
        <time>2020-02-07T10:51:13.000Z</time>
      </trkpt>
      <trkpt lat="44.76703" lon="5.0508">
        <ele>517</ele>
        <time>2020-02-07T10:51:14.000Z</time>
      </trkpt>
      <trkpt lat="44.76703" lon="5.0508">
        <ele>517</ele>
        <time>2020-02-07T10:51:15.000Z</time>
      </trkpt>
      <trkpt lat="44.76703" lon="5.0508">
        <ele>517</ele>
        <time>2020-02-07T10:51:16.000Z</time>
      </trkpt>
      <trkpt lat="44.76703" lon="5.0508">
        <ele>517</ele>
        <time>2020-02-07T10:51:17.000Z</time>
      </trkpt>
      <trkpt lat="44.76703" lon="5.0508">
        <ele>517</ele>
        <time>2020-02-07T10:51:18.000Z</time>
      </trkpt>
      <trkpt lat="44.76703" lon="5.0508">
        <ele>517</ele>
        <time>2020-02-07T10:51:19.000Z</time>
      </trkpt>
      <trkpt lat="44.76703" lon="5.0508">
        <ele>517</ele>
        <time>2020-02-07T10:51:20.000Z</time>
      </trkpt>
      <trkpt lat="44.76703" lon="5.0508">
        <ele>517</ele>
        <time>2020-02-07T10:51:21.000Z</time>
      </trkpt>
      <trkpt lat="44.76703" lon="5.0508">
        <ele>517</ele>
        <time>2020-02-07T10:51:22.000Z</time>
      </trkpt>
      <trkpt lat="44.76703" lon="5.0508">
        <ele>517</ele>
        <time>2020-02-07T10:51:23.000Z</time>
      </trkpt>
      <trkpt lat="44.76703" lon="5.0508">
        <ele>517</ele>
        <time>2020-02-07T10:51:24.000Z</time>
      </trkpt>
      <trkpt lat="44.76703" lon="5.0508">
        <ele>517</ele>
        <time>2020-02-07T10:51:25.000Z</time>
      </trkpt>
      <trkpt lat="44.76703" lon="5.0508">
        <ele>517</ele>
        <time>2020-02-07T10:51:26.000Z</time>
      </trkpt>
      <trkpt lat="44.76703" lon="5.0508">
        <ele>517</ele>
        <time>2020-02-07T10:51:27.000Z</time>
      </trkpt>
      <trkpt lat="44.76703" lon="5.0508">
        <ele>517</ele>
        <time>2020-02-07T10:51:28.000Z</time>
      </trkpt>
      <trkpt lat="44.76703" lon="5.0508">
        <ele>517</ele>
        <time>2020-02-07T10:51:29.000Z</time>
      </trkpt>
      <trkpt lat="44.76703" lon="5.0508">
        <ele>517</ele>
        <time>2020-02-07T10:51:30.000Z</time>
      </trkpt>
      <trkpt lat="44.76703" lon="5.0508">
        <ele>518</ele>
        <time>2020-02-07T10:51:31.000Z</time>
      </trkpt>
      <trkpt lat="44.76703" lon="5.0508">
        <ele>518</ele>
        <time>2020-02-07T10:51:32.000Z</time>
      </trkpt>
      <trkpt lat="44.76704" lon="5.0508">
        <ele>518</ele>
        <time>2020-02-07T10:51:33.000Z</time>
      </trkpt>
      <trkpt lat="44.76704" lon="5.05081">
        <ele>518</ele>
        <time>2020-02-07T10:51:34.000Z</time>
      </trkpt>
      <trkpt lat="44.76705" lon="5.05081">
        <ele>518</ele>
        <time>2020-02-07T10:51:35.000Z</time>
      </trkpt>
      <trkpt lat="44.76705" lon="5.05082">
        <ele>518</ele>
        <time>2020-02-07T10:51:36.000Z</time>
      </trkpt>
      <trkpt lat="44.76706" lon="5.05082">
        <ele>518</ele>
        <time>2020-02-07T10:51:37.000Z</time>
      </trkpt>
      <trkpt lat="44.76707" lon="5.05083">
        <ele>518</ele>
        <time>2020-02-07T10:51:38.000Z</time>
      </trkpt>
      <trkpt lat="44.76707" lon="5.05084">
        <ele>518</ele>
        <time>2020-02-07T10:51:39.000Z</time>
      </trkpt>
      <trkpt lat="44.76708" lon="5.05085">
        <ele>518</ele>
        <time>2020-02-07T10:51:40.000Z</time>
      </trkpt>
      <trkpt lat="44.76709" lon="5.05085">
        <ele>518</ele>
        <time>2020-02-07T10:51:41.000Z</time>
      </trkpt>
      <trkpt lat="44.7671" lon="5.05086">
        <ele>518</ele>
        <time>2020-02-07T10:51:42.000Z</time>
      </trkpt>
      <trkpt lat="44.7671" lon="5.05086">
        <ele>518</ele>
        <time>2020-02-07T10:51:43.000Z</time>
      </trkpt>
      <trkpt lat="44.76711" lon="5.05087">
        <ele>518</ele>
        <time>2020-02-07T10:51:44.000Z</time>
      </trkpt>
      <trkpt lat="44.76711" lon="5.05088">
        <ele>518</ele>
        <time>2020-02-07T10:51:45.000Z</time>
      </trkpt>
      <trkpt lat="44.76712" lon="5.05089">
        <ele>518</ele>
        <time>2020-02-07T10:51:46.000Z</time>
      </trkpt>
      <trkpt lat="44.76713" lon="5.0509">
        <ele>517</ele>
        <time>2020-02-07T10:51:47.000Z</time>
      </trkpt>
      <trkpt lat="44.76714" lon="5.05091">
        <ele>517</ele>
        <time>2020-02-07T10:51:48.000Z</time>
      </trkpt>
      <trkpt lat="44.76714" lon="5.05091">
        <ele>517</ele>
        <time>2020-02-07T10:51:49.000Z</time>
      </trkpt>
      <trkpt lat="44.76715" lon="5.05093">
        <ele>517</ele>
        <time>2020-02-07T10:51:50.000Z</time>
      </trkpt>
      <trkpt lat="44.76716" lon="5.05094">
        <ele>517</ele>
        <time>2020-02-07T10:51:51.000Z</time>
      </trkpt>
      <trkpt lat="44.76716" lon="5.05095">
        <ele>517</ele>
        <time>2020-02-07T10:51:52.000Z</time>
      </trkpt>
      <trkpt lat="44.76717" lon="5.05095">
        <ele>517</ele>
        <time>2020-02-07T10:51:53.000Z</time>
      </trkpt>
      <trkpt lat="44.76718" lon="5.05096">
        <ele>517</ele>
        <time>2020-02-07T10:51:54.000Z</time>
      </trkpt>
      <trkpt lat="44.76719" lon="5.05097">
        <ele>517</ele>
        <time>2020-02-07T10:51:55.000Z</time>
      </trkpt>
      <trkpt lat="44.76719" lon="5.05098">
        <ele>517</ele>
        <time>2020-02-07T10:51:56.000Z</time>
      </trkpt>
      <trkpt lat="44.7672" lon="5.05099">
        <ele>517</ele>
        <time>2020-02-07T10:51:57.000Z</time>
      </trkpt>
      <trkpt lat="44.76721" lon="5.051">
        <ele>517</ele>
        <time>2020-02-07T10:51:58.000Z</time>
      </trkpt>
      <trkpt lat="44.76722" lon="5.05101">
        <ele>517</ele>
        <time>2020-02-07T10:51:59.000Z</time>
      </trkpt>
      <trkpt lat="44.76722" lon="5.05101">
        <ele>517</ele>
        <time>2020-02-07T10:52:00.000Z</time>
      </trkpt>
      <trkpt lat="44.76723" lon="5.05102">
        <ele>517</ele>
        <time>2020-02-07T10:52:01.000Z</time>
      </trkpt>
      <trkpt lat="44.76724" lon="5.05103">
        <ele>517</ele>
        <time>2020-02-07T10:52:02.000Z</time>
      </trkpt>
      <trkpt lat="44.76725" lon="5.05104">
        <ele>517</ele>
        <time>2020-02-07T10:52:03.000Z</time>
      </trkpt>
      <trkpt lat="44.76725" lon="5.05104">
        <ele>517</ele>
        <time>2020-02-07T10:52:04.000Z</time>
      </trkpt>
      <trkpt lat="44.76726" lon="5.05105">
        <ele>517</ele>
        <time>2020-02-07T10:52:05.000Z</time>
      </trkpt>
      <trkpt lat="44.76726" lon="5.05106">
        <ele>517</ele>
        <time>2020-02-07T10:52:06.000Z</time>
      </trkpt>
      <trkpt lat="44.76727" lon="5.05106">
        <ele>517</ele>
        <time>2020-02-07T10:52:07.000Z</time>
      </trkpt>
      <trkpt lat="44.76727" lon="5.05107">
        <ele>517</ele>
        <time>2020-02-07T10:52:08.000Z</time>
      </trkpt>
      <trkpt lat="44.76728" lon="5.05107">
        <ele>517</ele>
        <time>2020-02-07T10:52:09.000Z</time>
      </trkpt>
      <trkpt lat="44.76729" lon="5.05108">
        <ele>517</ele>
        <time>2020-02-07T10:52:10.000Z</time>
      </trkpt>
      <trkpt lat="44.76729" lon="5.05109">
        <ele>517</ele>
        <time>2020-02-07T10:52:11.000Z</time>
      </trkpt>
      <trkpt lat="44.7673" lon="5.05109">
        <ele>517</ele>
        <time>2020-02-07T10:52:12.000Z</time>
      </trkpt>
      <trkpt lat="44.76731" lon="5.0511">
        <ele>517</ele>
        <time>2020-02-07T10:52:13.000Z</time>
      </trkpt>
      <trkpt lat="44.76731" lon="5.05112">
        <ele>517</ele>
        <time>2020-02-07T10:52:14.000Z</time>
      </trkpt>
      <trkpt lat="44.76732" lon="5.05112">
        <ele>516</ele>
        <time>2020-02-07T10:52:15.000Z</time>
      </trkpt>
      <trkpt lat="44.76732" lon="5.05113">
        <ele>516</ele>
        <time>2020-02-07T10:52:16.000Z</time>
      </trkpt>
      <trkpt lat="44.76733" lon="5.05114">
        <ele>516</ele>
        <time>2020-02-07T10:52:17.000Z</time>
      </trkpt>
      <trkpt lat="44.76734" lon="5.05114">
        <ele>516</ele>
        <time>2020-02-07T10:52:18.000Z</time>
      </trkpt>
      <trkpt lat="44.76735" lon="5.05115">
        <ele>516</ele>
        <time>2020-02-07T10:52:19.000Z</time>
      </trkpt>
      <trkpt lat="44.76736" lon="5.05115">
        <ele>516</ele>
        <time>2020-02-07T10:52:20.000Z</time>
      </trkpt>
      <trkpt lat="44.76738" lon="5.05115">
        <ele>516</ele>
        <time>2020-02-07T10:52:21.000Z</time>
      </trkpt>
      <trkpt lat="44.76738" lon="5.05116">
        <ele>516</ele>
        <time>2020-02-07T10:52:22.000Z</time>
      </trkpt>
      <trkpt lat="44.76739" lon="5.05117">
        <ele>516</ele>
        <time>2020-02-07T10:52:23.000Z</time>
      </trkpt>
      <trkpt lat="44.7674" lon="5.05117">
        <ele>516</ele>
        <time>2020-02-07T10:52:24.000Z</time>
      </trkpt>
      <trkpt lat="44.76741" lon="5.05118">
        <ele>516</ele>
        <time>2020-02-07T10:52:25.000Z</time>
      </trkpt>
      <trkpt lat="44.76741" lon="5.05119">
        <ele>516</ele>
        <time>2020-02-07T10:52:26.000Z</time>
      </trkpt>
      <trkpt lat="44.76742" lon="5.0512">
        <ele>516</ele>
        <time>2020-02-07T10:52:27.000Z</time>
      </trkpt>
      <trkpt lat="44.76743" lon="5.05121">
        <ele>516</ele>
        <time>2020-02-07T10:52:28.000Z</time>
      </trkpt>
      <trkpt lat="44.76744" lon="5.05122">
        <ele>516</ele>
        <time>2020-02-07T10:52:29.000Z</time>
      </trkpt>
      <trkpt lat="44.76746" lon="5.05122">
        <ele>516</ele>
        <time>2020-02-07T10:52:30.000Z</time>
      </trkpt>
      <trkpt lat="44.76747" lon="5.05123">
        <ele>515</ele>
        <time>2020-02-07T10:52:31.000Z</time>
      </trkpt>
      <trkpt lat="44.76748" lon="5.05124">
        <ele>515</ele>
        <time>2020-02-07T10:52:32.000Z</time>
      </trkpt>
      <trkpt lat="44.76749" lon="5.05124">
        <ele>515</ele>
        <time>2020-02-07T10:52:33.000Z</time>
      </trkpt>
      <trkpt lat="44.7675" lon="5.05125">
        <ele>515</ele>
        <time>2020-02-07T10:52:34.000Z</time>
      </trkpt>
      <trkpt lat="44.76751" lon="5.05126">
        <ele>515</ele>
        <time>2020-02-07T10:52:35.000Z</time>
      </trkpt>
      <trkpt lat="44.76752" lon="5.05127">
        <ele>515</ele>
        <time>2020-02-07T10:52:36.000Z</time>
      </trkpt>
      <trkpt lat="44.76753" lon="5.05128">
        <ele>515</ele>
        <time>2020-02-07T10:52:37.000Z</time>
      </trkpt>
      <trkpt lat="44.76754" lon="5.05129">
        <ele>515</ele>
        <time>2020-02-07T10:52:38.000Z</time>
      </trkpt>
      <trkpt lat="44.76755" lon="5.05129">
        <ele>515</ele>
        <time>2020-02-07T10:52:39.000Z</time>
      </trkpt>
      <trkpt lat="44.76756" lon="5.0513">
        <ele>515</ele>
        <time>2020-02-07T10:52:40.000Z</time>
      </trkpt>
      <trkpt lat="44.76757" lon="5.05131">
        <ele>515</ele>
        <time>2020-02-07T10:52:41.000Z</time>
      </trkpt>
      <trkpt lat="44.76758" lon="5.05132">
        <ele>515</ele>
        <time>2020-02-07T10:52:42.000Z</time>
      </trkpt>
      <trkpt lat="44.76759" lon="5.05133">
        <ele>515</ele>
        <time>2020-02-07T10:52:43.000Z</time>
      </trkpt>
      <trkpt lat="44.76759" lon="5.05134">
        <ele>515</ele>
        <time>2020-02-07T10:52:44.000Z</time>
      </trkpt>
      <trkpt lat="44.7676" lon="5.05134">
        <ele>515</ele>
        <time>2020-02-07T10:52:45.000Z</time>
      </trkpt>
      <trkpt lat="44.76761" lon="5.05135">
        <ele>515</ele>
        <time>2020-02-07T10:52:46.000Z</time>
      </trkpt>
      <trkpt lat="44.76762" lon="5.05135">
        <ele>515</ele>
        <time>2020-02-07T10:52:47.000Z</time>
      </trkpt>
      <trkpt lat="44.76763" lon="5.05136">
        <ele>515</ele>
        <time>2020-02-07T10:52:48.000Z</time>
      </trkpt>
      <trkpt lat="44.76764" lon="5.05136">
        <ele>516</ele>
        <time>2020-02-07T10:52:49.000Z</time>
      </trkpt>
      <trkpt lat="44.76765" lon="5.05136">
        <ele>516</ele>
        <time>2020-02-07T10:52:50.000Z</time>
      </trkpt>
      <trkpt lat="44.76766" lon="5.05137">
        <ele>516</ele>
        <time>2020-02-07T10:52:51.000Z</time>
      </trkpt>
      <trkpt lat="44.76767" lon="5.05137">
        <ele>516</ele>
        <time>2020-02-07T10:52:52.000Z</time>
      </trkpt>
      <trkpt lat="44.76768" lon="5.05138">
        <ele>516</ele>
        <time>2020-02-07T10:52:53.000Z</time>
      </trkpt>
      <trkpt lat="44.76769" lon="5.05138">
        <ele>516</ele>
        <time>2020-02-07T10:52:54.000Z</time>
      </trkpt>
      <trkpt lat="44.7677" lon="5.05138">
        <ele>516</ele>
        <time>2020-02-07T10:52:55.000Z</time>
      </trkpt>
      <trkpt lat="44.76771" lon="5.05139">
        <ele>516</ele>
        <time>2020-02-07T10:52:56.000Z</time>
      </trkpt>
      <trkpt lat="44.76772" lon="5.05139">
        <ele>516</ele>
        <time>2020-02-07T10:52:57.000Z</time>
      </trkpt>
      <trkpt lat="44.76773" lon="5.05139">
        <ele>516</ele>
        <time>2020-02-07T10:52:58.000Z</time>
      </trkpt>
      <trkpt lat="44.76774" lon="5.0514">
        <ele>516</ele>
        <time>2020-02-07T10:52:59.000Z</time>
      </trkpt>
      <trkpt lat="44.76775" lon="5.0514">
        <ele>517</ele>
        <time>2020-02-07T10:53:00.000Z</time>
      </trkpt>
      <trkpt lat="44.76776" lon="5.05141">
        <ele>517</ele>
        <time>2020-02-07T10:53:01.000Z</time>
      </trkpt>
      <trkpt lat="44.76777" lon="5.05141">
        <ele>517</ele>
        <time>2020-02-07T10:53:02.000Z</time>
      </trkpt>
      <trkpt lat="44.76779" lon="5.05142">
        <ele>517</ele>
        <time>2020-02-07T10:53:03.000Z</time>
      </trkpt>
      <trkpt lat="44.7678" lon="5.05142">
        <ele>517</ele>
        <time>2020-02-07T10:53:04.000Z</time>
      </trkpt>
      <trkpt lat="44.76781" lon="5.05142">
        <ele>518</ele>
        <time>2020-02-07T10:53:05.000Z</time>
      </trkpt>
      <trkpt lat="44.76782" lon="5.05143">
        <ele>518</ele>
        <time>2020-02-07T10:53:06.000Z</time>
      </trkpt>
      <trkpt lat="44.76783" lon="5.05143">
        <ele>518</ele>
        <time>2020-02-07T10:53:07.000Z</time>
      </trkpt>
      <trkpt lat="44.76784" lon="5.05143">
        <ele>518</ele>
        <time>2020-02-07T10:53:08.000Z</time>
      </trkpt>
      <trkpt lat="44.76785" lon="5.05144">
        <ele>518</ele>
        <time>2020-02-07T10:53:09.000Z</time>
      </trkpt>
      <trkpt lat="44.76786" lon="5.05144">
        <ele>519</ele>
        <time>2020-02-07T10:53:10.000Z</time>
      </trkpt>
      <trkpt lat="44.76787" lon="5.05145">
        <ele>519</ele>
        <time>2020-02-07T10:53:11.000Z</time>
      </trkpt>
      <trkpt lat="44.76788" lon="5.05145">
        <ele>519</ele>
        <time>2020-02-07T10:53:12.000Z</time>
      </trkpt>
      <trkpt lat="44.76789" lon="5.05147">
        <ele>519</ele>
        <time>2020-02-07T10:53:13.000Z</time>
      </trkpt>
      <trkpt lat="44.7679" lon="5.05148">
        <ele>519</ele>
        <time>2020-02-07T10:53:14.000Z</time>
      </trkpt>
      <trkpt lat="44.76791" lon="5.05149">
        <ele>519</ele>
        <time>2020-02-07T10:53:15.000Z</time>
      </trkpt>
      <trkpt lat="44.76792" lon="5.05149">
        <ele>519</ele>
        <time>2020-02-07T10:53:16.000Z</time>
      </trkpt>
      <trkpt lat="44.76793" lon="5.0515">
        <ele>519</ele>
        <time>2020-02-07T10:53:17.000Z</time>
      </trkpt>
      <trkpt lat="44.76794" lon="5.05151">
        <ele>519</ele>
        <time>2020-02-07T10:53:18.000Z</time>
      </trkpt>
      <trkpt lat="44.76795" lon="5.05152">
        <ele>519</ele>
        <time>2020-02-07T10:53:19.000Z</time>
      </trkpt>
      <trkpt lat="44.76796" lon="5.05153">
        <ele>519</ele>
        <time>2020-02-07T10:53:20.000Z</time>
      </trkpt>
      <trkpt lat="44.76797" lon="5.05154">
        <ele>520</ele>
        <time>2020-02-07T10:53:21.000Z</time>
      </trkpt>
      <trkpt lat="44.76798" lon="5.05154">
        <ele>520</ele>
        <time>2020-02-07T10:53:22.000Z</time>
      </trkpt>
      <trkpt lat="44.76799" lon="5.05155">
        <ele>520</ele>
        <time>2020-02-07T10:53:23.000Z</time>
      </trkpt>
      <trkpt lat="44.768" lon="5.05155">
        <ele>520</ele>
        <time>2020-02-07T10:53:24.000Z</time>
      </trkpt>
      <trkpt lat="44.76801" lon="5.05156">
        <ele>520</ele>
        <time>2020-02-07T10:53:25.000Z</time>
      </trkpt>
      <trkpt lat="44.76801" lon="5.05157">
        <ele>520</ele>
        <time>2020-02-07T10:53:26.000Z</time>
      </trkpt>
      <trkpt lat="44.76802" lon="5.05158">
        <ele>520</ele>
        <time>2020-02-07T10:53:27.000Z</time>
      </trkpt>
      <trkpt lat="44.76803" lon="5.05159">
        <ele>520</ele>
        <time>2020-02-07T10:53:28.000Z</time>
      </trkpt>
      <trkpt lat="44.76804" lon="5.0516">
        <ele>520</ele>
        <time>2020-02-07T10:53:29.000Z</time>
      </trkpt>
      <trkpt lat="44.76805" lon="5.05161">
        <ele>520</ele>
        <time>2020-02-07T10:53:30.000Z</time>
      </trkpt>
      <trkpt lat="44.76807" lon="5.05162">
        <ele>520</ele>
        <time>2020-02-07T10:53:31.000Z</time>
      </trkpt>
      <trkpt lat="44.76808" lon="5.05163">
        <ele>520</ele>
        <time>2020-02-07T10:53:32.000Z</time>
      </trkpt>
      <trkpt lat="44.76809" lon="5.05164">
        <ele>521</ele>
        <time>2020-02-07T10:53:33.000Z</time>
      </trkpt>
      <trkpt lat="44.76809" lon="5.05165">
        <ele>521</ele>
        <time>2020-02-07T10:53:34.000Z</time>
      </trkpt>
      <trkpt lat="44.7681" lon="5.05167">
        <ele>521</ele>
        <time>2020-02-07T10:53:35.000Z</time>
      </trkpt>
      <trkpt lat="44.76811" lon="5.05168">
        <ele>521</ele>
        <time>2020-02-07T10:53:36.000Z</time>
      </trkpt>
      <trkpt lat="44.76812" lon="5.05169">
        <ele>521</ele>
        <time>2020-02-07T10:53:37.000Z</time>
      </trkpt>
      <trkpt lat="44.76813" lon="5.05171">
        <ele>521</ele>
        <time>2020-02-07T10:53:38.000Z</time>
      </trkpt>
      <trkpt lat="44.76813" lon="5.05172">
        <ele>520</ele>
        <time>2020-02-07T10:53:39.000Z</time>
      </trkpt>
      <trkpt lat="44.76814" lon="5.05173">
        <ele>520</ele>
        <time>2020-02-07T10:53:40.000Z</time>
      </trkpt>
      <trkpt lat="44.76815" lon="5.05173">
        <ele>520</ele>
        <time>2020-02-07T10:53:41.000Z</time>
      </trkpt>
      <trkpt lat="44.76815" lon="5.05174">
        <ele>520</ele>
        <time>2020-02-07T10:53:42.000Z</time>
      </trkpt>
      <trkpt lat="44.76816" lon="5.05174">
        <ele>520</ele>
        <time>2020-02-07T10:53:43.000Z</time>
      </trkpt>
      <trkpt lat="44.76817" lon="5.05175">
        <ele>520</ele>
        <time>2020-02-07T10:53:44.000Z</time>
      </trkpt>
      <trkpt lat="44.76818" lon="5.05176">
        <ele>520</ele>
        <time>2020-02-07T10:53:45.000Z</time>
      </trkpt>
      <trkpt lat="44.76819" lon="5.05176">
        <ele>521</ele>
        <time>2020-02-07T10:53:46.000Z</time>
      </trkpt>
      <trkpt lat="44.76819" lon="5.05177">
        <ele>521</ele>
        <time>2020-02-07T10:53:47.000Z</time>
      </trkpt>
      <trkpt lat="44.7682" lon="5.05177">
        <ele>521</ele>
        <time>2020-02-07T10:53:48.000Z</time>
      </trkpt>
      <trkpt lat="44.76821" lon="5.05178">
        <ele>521</ele>
        <time>2020-02-07T10:53:49.000Z</time>
      </trkpt>
      <trkpt lat="44.76822" lon="5.05178">
        <ele>521</ele>
        <time>2020-02-07T10:53:50.000Z</time>
      </trkpt>
      <trkpt lat="44.76823" lon="5.05178">
        <ele>521</ele>
        <time>2020-02-07T10:53:51.000Z</time>
      </trkpt>
      <trkpt lat="44.76824" lon="5.05178">
        <ele>522</ele>
        <time>2020-02-07T10:53:52.000Z</time>
      </trkpt>
      <trkpt lat="44.76825" lon="5.05178">
        <ele>522</ele>
        <time>2020-02-07T10:53:53.000Z</time>
      </trkpt>
      <trkpt lat="44.76826" lon="5.05178">
        <ele>522</ele>
        <time>2020-02-07T10:53:54.000Z</time>
      </trkpt>
      <trkpt lat="44.76827" lon="5.05178">
        <ele>522</ele>
        <time>2020-02-07T10:53:55.000Z</time>
      </trkpt>
      <trkpt lat="44.76828" lon="5.05178">
        <ele>522</ele>
        <time>2020-02-07T10:53:56.000Z</time>
      </trkpt>
      <trkpt lat="44.76829" lon="5.05178">
        <ele>522</ele>
        <time>2020-02-07T10:53:57.000Z</time>
      </trkpt>
      <trkpt lat="44.7683" lon="5.05178">
        <ele>522</ele>
        <time>2020-02-07T10:53:58.000Z</time>
      </trkpt>
      <trkpt lat="44.76832" lon="5.05178">
        <ele>522</ele>
        <time>2020-02-07T10:53:59.000Z</time>
      </trkpt>
      <trkpt lat="44.76833" lon="5.05179">
        <ele>522</ele>
        <time>2020-02-07T10:54:00.000Z</time>
      </trkpt>
      <trkpt lat="44.76834" lon="5.05179">
        <ele>522</ele>
        <time>2020-02-07T10:54:01.000Z</time>
      </trkpt>
      <trkpt lat="44.76835" lon="5.05179">
        <ele>521</ele>
        <time>2020-02-07T10:54:02.000Z</time>
      </trkpt>
      <trkpt lat="44.76836" lon="5.0518">
        <ele>521</ele>
        <time>2020-02-07T10:54:03.000Z</time>
      </trkpt>
      <trkpt lat="44.76837" lon="5.0518">
        <ele>521</ele>
        <time>2020-02-07T10:54:04.000Z</time>
      </trkpt>
      <trkpt lat="44.76838" lon="5.05181">
        <ele>521</ele>
        <time>2020-02-07T10:54:05.000Z</time>
      </trkpt>
      <trkpt lat="44.7684" lon="5.05182">
        <ele>521</ele>
        <time>2020-02-07T10:54:06.000Z</time>
      </trkpt>
      <trkpt lat="44.76841" lon="5.05183">
        <ele>521</ele>
        <time>2020-02-07T10:54:07.000Z</time>
      </trkpt>
      <trkpt lat="44.76842" lon="5.05183">
        <ele>521</ele>
        <time>2020-02-07T10:54:08.000Z</time>
      </trkpt>
      <trkpt lat="44.76843" lon="5.05184">
        <ele>521</ele>
        <time>2020-02-07T10:54:09.000Z</time>
      </trkpt>
      <trkpt lat="44.76844" lon="5.05185">
        <ele>521</ele>
        <time>2020-02-07T10:54:10.000Z</time>
      </trkpt>
      <trkpt lat="44.76845" lon="5.05186">
        <ele>521</ele>
        <time>2020-02-07T10:54:11.000Z</time>
      </trkpt>
      <trkpt lat="44.76846" lon="5.05187">
        <ele>521</ele>
        <time>2020-02-07T10:54:12.000Z</time>
      </trkpt>
      <trkpt lat="44.76847" lon="5.05188">
        <ele>521</ele>
        <time>2020-02-07T10:54:13.000Z</time>
      </trkpt>
      <trkpt lat="44.76848" lon="5.05189">
        <ele>521</ele>
        <time>2020-02-07T10:54:14.000Z</time>
      </trkpt>
      <trkpt lat="44.76849" lon="5.0519">
        <ele>521</ele>
        <time>2020-02-07T10:54:15.000Z</time>
      </trkpt>
      <trkpt lat="44.7685" lon="5.0519">
        <ele>521</ele>
        <time>2020-02-07T10:54:16.000Z</time>
      </trkpt>
      <trkpt lat="44.76851" lon="5.05191">
        <ele>521</ele>
        <time>2020-02-07T10:54:17.000Z</time>
      </trkpt>
      <trkpt lat="44.76852" lon="5.05192">
        <ele>521</ele>
        <time>2020-02-07T10:54:18.000Z</time>
      </trkpt>
      <trkpt lat="44.76853" lon="5.05193">
        <ele>521</ele>
        <time>2020-02-07T10:54:19.000Z</time>
      </trkpt>
      <trkpt lat="44.76854" lon="5.05194">
        <ele>521</ele>
        <time>2020-02-07T10:54:20.000Z</time>
      </trkpt>
      <trkpt lat="44.76854" lon="5.05194">
        <ele>521</ele>
        <time>2020-02-07T10:54:21.000Z</time>
      </trkpt>
      <trkpt lat="44.76855" lon="5.05195">
        <ele>521</ele>
        <time>2020-02-07T10:54:22.000Z</time>
      </trkpt>
      <trkpt lat="44.76856" lon="5.05196">
        <ele>521</ele>
        <time>2020-02-07T10:54:23.000Z</time>
      </trkpt>
      <trkpt lat="44.76857" lon="5.05196">
        <ele>521</ele>
        <time>2020-02-07T10:54:24.000Z</time>
      </trkpt>
      <trkpt lat="44.76858" lon="5.05197">
        <ele>521</ele>
        <time>2020-02-07T10:54:25.000Z</time>
      </trkpt>
      <trkpt lat="44.76859" lon="5.05198">
        <ele>521</ele>
        <time>2020-02-07T10:54:26.000Z</time>
      </trkpt>
      <trkpt lat="44.7686" lon="5.05198">
        <ele>521</ele>
        <time>2020-02-07T10:54:27.000Z</time>
      </trkpt>
      <trkpt lat="44.76861" lon="5.05199">
        <ele>521</ele>
        <time>2020-02-07T10:54:28.000Z</time>
      </trkpt>
      <trkpt lat="44.76862" lon="5.05199">
        <ele>521</ele>
        <time>2020-02-07T10:54:29.000Z</time>
      </trkpt>
      <trkpt lat="44.76863" lon="5.052">
        <ele>521</ele>
        <time>2020-02-07T10:54:30.000Z</time>
      </trkpt>
      <trkpt lat="44.76864" lon="5.052">
        <ele>522</ele>
        <time>2020-02-07T10:54:31.000Z</time>
      </trkpt>
      <trkpt lat="44.76864" lon="5.052">
        <ele>522</ele>
        <time>2020-02-07T10:54:32.000Z</time>
      </trkpt>
      <trkpt lat="44.76866" lon="5.05201">
        <ele>522</ele>
        <time>2020-02-07T10:54:33.000Z</time>
      </trkpt>
      <trkpt lat="44.76867" lon="5.05201">
        <ele>522</ele>
        <time>2020-02-07T10:54:34.000Z</time>
      </trkpt>
      <trkpt lat="44.76867" lon="5.05202">
        <ele>522</ele>
        <time>2020-02-07T10:54:35.000Z</time>
      </trkpt>
      <trkpt lat="44.76868" lon="5.05202">
        <ele>522</ele>
        <time>2020-02-07T10:54:36.000Z</time>
      </trkpt>
      <trkpt lat="44.76869" lon="5.05203">
        <ele>522</ele>
        <time>2020-02-07T10:54:37.000Z</time>
      </trkpt>
      <trkpt lat="44.7687" lon="5.05203">
        <ele>522</ele>
        <time>2020-02-07T10:54:38.000Z</time>
      </trkpt>
      <trkpt lat="44.76871" lon="5.05204">
        <ele>522</ele>
        <time>2020-02-07T10:54:39.000Z</time>
      </trkpt>
      <trkpt lat="44.76872" lon="5.05204">
        <ele>523</ele>
        <time>2020-02-07T10:54:40.000Z</time>
      </trkpt>
      <trkpt lat="44.76872" lon="5.05205">
        <ele>523</ele>
        <time>2020-02-07T10:54:41.000Z</time>
      </trkpt>
      <trkpt lat="44.76873" lon="5.05206">
        <ele>523</ele>
        <time>2020-02-07T10:54:42.000Z</time>
      </trkpt>
      <trkpt lat="44.76874" lon="5.05207">
        <ele>523</ele>
        <time>2020-02-07T10:54:43.000Z</time>
      </trkpt>
      <trkpt lat="44.76875" lon="5.05207">
        <ele>523</ele>
        <time>2020-02-07T10:54:44.000Z</time>
      </trkpt>
      <trkpt lat="44.76876" lon="5.05208">
        <ele>523</ele>
        <time>2020-02-07T10:54:45.000Z</time>
      </trkpt>
      <trkpt lat="44.76876" lon="5.05209">
        <ele>523</ele>
        <time>2020-02-07T10:54:46.000Z</time>
      </trkpt>
      <trkpt lat="44.76877" lon="5.0521">
        <ele>523</ele>
        <time>2020-02-07T10:54:47.000Z</time>
      </trkpt>
      <trkpt lat="44.76877" lon="5.05211">
        <ele>522</ele>
        <time>2020-02-07T10:54:48.000Z</time>
      </trkpt>
      <trkpt lat="44.76878" lon="5.05212">
        <ele>522</ele>
        <time>2020-02-07T10:54:49.000Z</time>
      </trkpt>
      <trkpt lat="44.76879" lon="5.05212">
        <ele>522</ele>
        <time>2020-02-07T10:54:50.000Z</time>
      </trkpt>
      <trkpt lat="44.7688" lon="5.05213">
        <ele>522</ele>
        <time>2020-02-07T10:54:51.000Z</time>
      </trkpt>
      <trkpt lat="44.76881" lon="5.05213">
        <ele>522</ele>
        <time>2020-02-07T10:54:52.000Z</time>
      </trkpt>
      <trkpt lat="44.76882" lon="5.05214">
        <ele>522</ele>
        <time>2020-02-07T10:54:53.000Z</time>
      </trkpt>
      <trkpt lat="44.76883" lon="5.05214">
        <ele>522</ele>
        <time>2020-02-07T10:54:54.000Z</time>
      </trkpt>
      <trkpt lat="44.76884" lon="5.05215">
        <ele>522</ele>
        <time>2020-02-07T10:54:55.000Z</time>
      </trkpt>
      <trkpt lat="44.76885" lon="5.05216">
        <ele>522</ele>
        <time>2020-02-07T10:54:56.000Z</time>
      </trkpt>
      <trkpt lat="44.76885" lon="5.05217">
        <ele>522</ele>
        <time>2020-02-07T10:54:57.000Z</time>
      </trkpt>
      <trkpt lat="44.76886" lon="5.05217">
        <ele>521</ele>
        <time>2020-02-07T10:54:58.000Z</time>
      </trkpt>
      <trkpt lat="44.76887" lon="5.05217">
        <ele>521</ele>
        <time>2020-02-07T10:54:59.000Z</time>
      </trkpt>
      <trkpt lat="44.76888" lon="5.05218">
        <ele>521</ele>
        <time>2020-02-07T10:55:00.000Z</time>
      </trkpt>
      <trkpt lat="44.76888" lon="5.05218">
        <ele>521</ele>
        <time>2020-02-07T10:55:01.000Z</time>
      </trkpt>
      <trkpt lat="44.76889" lon="5.05218">
        <ele>521</ele>
        <time>2020-02-07T10:55:02.000Z</time>
      </trkpt>
      <trkpt lat="44.76891" lon="5.05218">
        <ele>521</ele>
        <time>2020-02-07T10:55:03.000Z</time>
      </trkpt>
      <trkpt lat="44.76892" lon="5.05219">
        <ele>521</ele>
        <time>2020-02-07T10:55:04.000Z</time>
      </trkpt>
      <trkpt lat="44.76893" lon="5.05219">
        <ele>521</ele>
        <time>2020-02-07T10:55:05.000Z</time>
      </trkpt>
      <trkpt lat="44.76894" lon="5.0522">
        <ele>521</ele>
        <time>2020-02-07T10:55:06.000Z</time>
      </trkpt>
      <trkpt lat="44.76895" lon="5.0522">
        <ele>521</ele>
        <time>2020-02-07T10:55:07.000Z</time>
      </trkpt>
      <trkpt lat="44.76896" lon="5.05221">
        <ele>521</ele>
        <time>2020-02-07T10:55:08.000Z</time>
      </trkpt>
      <trkpt lat="44.76897" lon="5.05222">
        <ele>521</ele>
        <time>2020-02-07T10:55:09.000Z</time>
      </trkpt>
      <trkpt lat="44.76898" lon="5.05222">
        <ele>522</ele>
        <time>2020-02-07T10:55:10.000Z</time>
      </trkpt>
      <trkpt lat="44.76899" lon="5.05222">
        <ele>522</ele>
        <time>2020-02-07T10:55:11.000Z</time>
      </trkpt>
      <trkpt lat="44.769" lon="5.05223">
        <ele>522</ele>
        <time>2020-02-07T10:55:12.000Z</time>
      </trkpt>
      <trkpt lat="44.76901" lon="5.05223">
        <ele>522</ele>
        <time>2020-02-07T10:55:13.000Z</time>
      </trkpt>
      <trkpt lat="44.76902" lon="5.05224">
        <ele>522</ele>
        <time>2020-02-07T10:55:14.000Z</time>
      </trkpt>
      <trkpt lat="44.76903" lon="5.05224">
        <ele>522</ele>
        <time>2020-02-07T10:55:15.000Z</time>
      </trkpt>
      <trkpt lat="44.76904" lon="5.05225">
        <ele>522</ele>
        <time>2020-02-07T10:55:16.000Z</time>
      </trkpt>
      <trkpt lat="44.76904" lon="5.05225">
        <ele>522</ele>
        <time>2020-02-07T10:55:17.000Z</time>
      </trkpt>
      <trkpt lat="44.76905" lon="5.05226">
        <ele>522</ele>
        <time>2020-02-07T10:55:18.000Z</time>
      </trkpt>
      <trkpt lat="44.76906" lon="5.05226">
        <ele>522</ele>
        <time>2020-02-07T10:55:19.000Z</time>
      </trkpt>
      <trkpt lat="44.76906" lon="5.05226">
        <ele>522</ele>
        <time>2020-02-07T10:55:20.000Z</time>
      </trkpt>
      <trkpt lat="44.76907" lon="5.05226">
        <ele>522</ele>
        <time>2020-02-07T10:55:21.000Z</time>
      </trkpt>
      <trkpt lat="44.76908" lon="5.05226">
        <ele>522</ele>
        <time>2020-02-07T10:55:22.000Z</time>
      </trkpt>
      <trkpt lat="44.76909" lon="5.05226">
        <ele>522</ele>
        <time>2020-02-07T10:55:23.000Z</time>
      </trkpt>
      <trkpt lat="44.76911" lon="5.05226">
        <ele>522</ele>
        <time>2020-02-07T10:55:24.000Z</time>
      </trkpt>
      <trkpt lat="44.76912" lon="5.05226">
        <ele>522</ele>
        <time>2020-02-07T10:55:25.000Z</time>
      </trkpt>
      <trkpt lat="44.76913" lon="5.05227">
        <ele>522</ele>
        <time>2020-02-07T10:55:26.000Z</time>
      </trkpt>
      <trkpt lat="44.76914" lon="5.05227">
        <ele>522</ele>
        <time>2020-02-07T10:55:27.000Z</time>
      </trkpt>
      <trkpt lat="44.76916" lon="5.05226">
        <ele>522</ele>
        <time>2020-02-07T10:55:28.000Z</time>
      </trkpt>
      <trkpt lat="44.76917" lon="5.05226">
        <ele>522</ele>
        <time>2020-02-07T10:55:29.000Z</time>
      </trkpt>
      <trkpt lat="44.76918" lon="5.05226">
        <ele>522</ele>
        <time>2020-02-07T10:55:30.000Z</time>
      </trkpt>
      <trkpt lat="44.76919" lon="5.05226">
        <ele>522</ele>
        <time>2020-02-07T10:55:31.000Z</time>
      </trkpt>
      <trkpt lat="44.7692" lon="5.05226">
        <ele>522</ele>
        <time>2020-02-07T10:55:32.000Z</time>
      </trkpt>
      <trkpt lat="44.76921" lon="5.05226">
        <ele>522</ele>
        <time>2020-02-07T10:55:33.000Z</time>
      </trkpt>
      <trkpt lat="44.76922" lon="5.05226">
        <ele>522</ele>
        <time>2020-02-07T10:55:34.000Z</time>
      </trkpt>
      <trkpt lat="44.76923" lon="5.05226">
        <ele>522</ele>
        <time>2020-02-07T10:55:35.000Z</time>
      </trkpt>
      <trkpt lat="44.76924" lon="5.05227">
        <ele>522</ele>
        <time>2020-02-07T10:55:36.000Z</time>
      </trkpt>
      <trkpt lat="44.76925" lon="5.05227">
        <ele>522</ele>
        <time>2020-02-07T10:55:37.000Z</time>
      </trkpt>
      <trkpt lat="44.76926" lon="5.05228">
        <ele>522</ele>
        <time>2020-02-07T10:55:38.000Z</time>
      </trkpt>
      <trkpt lat="44.76927" lon="5.05229">
        <ele>522</ele>
        <time>2020-02-07T10:55:39.000Z</time>
      </trkpt>
      <trkpt lat="44.76927" lon="5.0523">
        <ele>522</ele>
        <time>2020-02-07T10:55:40.000Z</time>
      </trkpt>
      <trkpt lat="44.76928" lon="5.05231">
        <ele>522</ele>
        <time>2020-02-07T10:55:41.000Z</time>
      </trkpt>
      <trkpt lat="44.76928" lon="5.05232">
        <ele>522</ele>
        <time>2020-02-07T10:55:42.000Z</time>
      </trkpt>
      <trkpt lat="44.76929" lon="5.05234">
        <ele>522</ele>
        <time>2020-02-07T10:55:43.000Z</time>
      </trkpt>
      <trkpt lat="44.7693" lon="5.05235">
        <ele>522</ele>
        <time>2020-02-07T10:55:44.000Z</time>
      </trkpt>
      <trkpt lat="44.7693" lon="5.05236">
        <ele>521</ele>
        <time>2020-02-07T10:55:45.000Z</time>
      </trkpt>
      <trkpt lat="44.76931" lon="5.05238">
        <ele>521</ele>
        <time>2020-02-07T10:55:46.000Z</time>
      </trkpt>
      <trkpt lat="44.76931" lon="5.05239">
        <ele>521</ele>
        <time>2020-02-07T10:55:47.000Z</time>
      </trkpt>
      <trkpt lat="44.76931" lon="5.05241">
        <ele>521</ele>
        <time>2020-02-07T10:55:48.000Z</time>
      </trkpt>
      <trkpt lat="44.76932" lon="5.05242">
        <ele>521</ele>
        <time>2020-02-07T10:55:49.000Z</time>
      </trkpt>
      <trkpt lat="44.76932" lon="5.05243">
        <ele>520</ele>
        <time>2020-02-07T10:55:50.000Z</time>
      </trkpt>
      <trkpt lat="44.76933" lon="5.05244">
        <ele>520</ele>
        <time>2020-02-07T10:55:51.000Z</time>
      </trkpt>
      <trkpt lat="44.76934" lon="5.05246">
        <ele>520</ele>
        <time>2020-02-07T10:55:52.000Z</time>
      </trkpt>
      <trkpt lat="44.76934" lon="5.05246">
        <ele>520</ele>
        <time>2020-02-07T10:55:53.000Z</time>
      </trkpt>
      <trkpt lat="44.76934" lon="5.05248">
        <ele>520</ele>
        <time>2020-02-07T10:55:54.000Z</time>
      </trkpt>
      <trkpt lat="44.76935" lon="5.05249">
        <ele>520</ele>
        <time>2020-02-07T10:55:55.000Z</time>
      </trkpt>
      <trkpt lat="44.76935" lon="5.0525">
        <ele>520</ele>
        <time>2020-02-07T10:55:56.000Z</time>
      </trkpt>
      <trkpt lat="44.76936" lon="5.05252">
        <ele>519</ele>
        <time>2020-02-07T10:55:57.000Z</time>
      </trkpt>
      <trkpt lat="44.76936" lon="5.05253">
        <ele>519</ele>
        <time>2020-02-07T10:55:58.000Z</time>
      </trkpt>
      <trkpt lat="44.76937" lon="5.05255">
        <ele>519</ele>
        <time>2020-02-07T10:55:59.000Z</time>
      </trkpt>
      <trkpt lat="44.76938" lon="5.05256">
        <ele>519</ele>
        <time>2020-02-07T10:56:00.000Z</time>
      </trkpt>
      <trkpt lat="44.76938" lon="5.05258">
        <ele>519</ele>
        <time>2020-02-07T10:56:01.000Z</time>
      </trkpt>
      <trkpt lat="44.76939" lon="5.05259">
        <ele>519</ele>
        <time>2020-02-07T10:56:02.000Z</time>
      </trkpt>
      <trkpt lat="44.7694" lon="5.05261">
        <ele>519</ele>
        <time>2020-02-07T10:56:03.000Z</time>
      </trkpt>
      <trkpt lat="44.7694" lon="5.05262">
        <ele>519</ele>
        <time>2020-02-07T10:56:04.000Z</time>
      </trkpt>
      <trkpt lat="44.76941" lon="5.05263">
        <ele>519</ele>
        <time>2020-02-07T10:56:05.000Z</time>
      </trkpt>
      <trkpt lat="44.76941" lon="5.05264">
        <ele>519</ele>
        <time>2020-02-07T10:56:06.000Z</time>
      </trkpt>
      <trkpt lat="44.76942" lon="5.05266">
        <ele>519</ele>
        <time>2020-02-07T10:56:07.000Z</time>
      </trkpt>
      <trkpt lat="44.76943" lon="5.05267">
        <ele>519</ele>
        <time>2020-02-07T10:56:08.000Z</time>
      </trkpt>
      <trkpt lat="44.76943" lon="5.05268">
        <ele>519</ele>
        <time>2020-02-07T10:56:09.000Z</time>
      </trkpt>
      <trkpt lat="44.76944" lon="5.05269">
        <ele>519</ele>
        <time>2020-02-07T10:56:10.000Z</time>
      </trkpt>
      <trkpt lat="44.76945" lon="5.05271">
        <ele>519</ele>
        <time>2020-02-07T10:56:11.000Z</time>
      </trkpt>
      <trkpt lat="44.76945" lon="5.05272">
        <ele>520</ele>
        <time>2020-02-07T10:56:12.000Z</time>
      </trkpt>
      <trkpt lat="44.76946" lon="5.05273">
        <ele>520</ele>
        <time>2020-02-07T10:56:13.000Z</time>
      </trkpt>
      <trkpt lat="44.76947" lon="5.05275">
        <ele>520</ele>
        <time>2020-02-07T10:56:14.000Z</time>
      </trkpt>
      <trkpt lat="44.76947" lon="5.05276">
        <ele>520</ele>
        <time>2020-02-07T10:56:15.000Z</time>
      </trkpt>
      <trkpt lat="44.76948" lon="5.05277">
        <ele>520</ele>
        <time>2020-02-07T10:56:16.000Z</time>
      </trkpt>
      <trkpt lat="44.76948" lon="5.05279">
        <ele>520</ele>
        <time>2020-02-07T10:56:17.000Z</time>
      </trkpt>
      <trkpt lat="44.76949" lon="5.0528">
        <ele>520</ele>
        <time>2020-02-07T10:56:18.000Z</time>
      </trkpt>
      <trkpt lat="44.76949" lon="5.05281">
        <ele>520</ele>
        <time>2020-02-07T10:56:19.000Z</time>
      </trkpt>
      <trkpt lat="44.7695" lon="5.05283">
        <ele>520</ele>
        <time>2020-02-07T10:56:20.000Z</time>
      </trkpt>
      <trkpt lat="44.7695" lon="5.05284">
        <ele>520</ele>
        <time>2020-02-07T10:56:21.000Z</time>
      </trkpt>
      <trkpt lat="44.7695" lon="5.05285">
        <ele>520</ele>
        <time>2020-02-07T10:56:22.000Z</time>
      </trkpt>
      <trkpt lat="44.7695" lon="5.05287">
        <ele>520</ele>
        <time>2020-02-07T10:56:23.000Z</time>
      </trkpt>
      <trkpt lat="44.7695" lon="5.05288">
        <ele>520</ele>
        <time>2020-02-07T10:56:24.000Z</time>
      </trkpt>
      <trkpt lat="44.76951" lon="5.05289">
        <ele>520</ele>
        <time>2020-02-07T10:56:25.000Z</time>
      </trkpt>
      <trkpt lat="44.76951" lon="5.05289">
        <ele>521</ele>
        <time>2020-02-07T10:56:26.000Z</time>
      </trkpt>
      <trkpt lat="44.76951" lon="5.0529">
        <ele>521</ele>
        <time>2020-02-07T10:56:27.000Z</time>
      </trkpt>
      <trkpt lat="44.76952" lon="5.05292">
        <ele>521</ele>
        <time>2020-02-07T10:56:28.000Z</time>
      </trkpt>
      <trkpt lat="44.76952" lon="5.05293">
        <ele>521</ele>
        <time>2020-02-07T10:56:29.000Z</time>
      </trkpt>
      <trkpt lat="44.76952" lon="5.05294">
        <ele>521</ele>
        <time>2020-02-07T10:56:30.000Z</time>
      </trkpt>
      <trkpt lat="44.76953" lon="5.05296">
        <ele>521</ele>
        <time>2020-02-07T10:56:31.000Z</time>
      </trkpt>
      <trkpt lat="44.76953" lon="5.05297">
        <ele>521</ele>
        <time>2020-02-07T10:56:32.000Z</time>
      </trkpt>
      <trkpt lat="44.76953" lon="5.05298">
        <ele>522</ele>
        <time>2020-02-07T10:56:33.000Z</time>
      </trkpt>
      <trkpt lat="44.76954" lon="5.05299">
        <ele>522</ele>
        <time>2020-02-07T10:56:34.000Z</time>
      </trkpt>
      <trkpt lat="44.76954" lon="5.053">
        <ele>522</ele>
        <time>2020-02-07T10:56:35.000Z</time>
      </trkpt>
      <trkpt lat="44.76955" lon="5.05301">
        <ele>522</ele>
        <time>2020-02-07T10:56:36.000Z</time>
      </trkpt>
      <trkpt lat="44.76955" lon="5.05302">
        <ele>522</ele>
        <time>2020-02-07T10:56:37.000Z</time>
      </trkpt>
      <trkpt lat="44.76956" lon="5.05303">
        <ele>523</ele>
        <time>2020-02-07T10:56:38.000Z</time>
      </trkpt>
      <trkpt lat="44.76957" lon="5.05305">
        <ele>523</ele>
        <time>2020-02-07T10:56:39.000Z</time>
      </trkpt>
      <trkpt lat="44.76957" lon="5.05306">
        <ele>523</ele>
        <time>2020-02-07T10:56:40.000Z</time>
      </trkpt>
      <trkpt lat="44.76958" lon="5.05308">
        <ele>523</ele>
        <time>2020-02-07T10:56:41.000Z</time>
      </trkpt>
      <trkpt lat="44.76958" lon="5.05309">
        <ele>523</ele>
        <time>2020-02-07T10:56:42.000Z</time>
      </trkpt>
      <trkpt lat="44.76959" lon="5.05311">
        <ele>524</ele>
        <time>2020-02-07T10:56:43.000Z</time>
      </trkpt>
      <trkpt lat="44.76959" lon="5.05312">
        <ele>524</ele>
        <time>2020-02-07T10:56:44.000Z</time>
      </trkpt>
      <trkpt lat="44.7696" lon="5.05314">
        <ele>524</ele>
        <time>2020-02-07T10:56:45.000Z</time>
      </trkpt>
      <trkpt lat="44.7696" lon="5.05316">
        <ele>524</ele>
        <time>2020-02-07T10:56:46.000Z</time>
      </trkpt>
      <trkpt lat="44.7696" lon="5.05317">
        <ele>524</ele>
        <time>2020-02-07T10:56:47.000Z</time>
      </trkpt>
      <trkpt lat="44.7696" lon="5.05318">
        <ele>525</ele>
        <time>2020-02-07T10:56:48.000Z</time>
      </trkpt>
      <trkpt lat="44.7696" lon="5.0532">
        <ele>525</ele>
        <time>2020-02-07T10:56:49.000Z</time>
      </trkpt>
      <trkpt lat="44.7696" lon="5.05321">
        <ele>525</ele>
        <time>2020-02-07T10:56:50.000Z</time>
      </trkpt>
      <trkpt lat="44.7696" lon="5.05322">
        <ele>525</ele>
        <time>2020-02-07T10:56:51.000Z</time>
      </trkpt>
      <trkpt lat="44.76961" lon="5.05323">
        <ele>525</ele>
        <time>2020-02-07T10:56:52.000Z</time>
      </trkpt>
      <trkpt lat="44.76961" lon="5.05324">
        <ele>526</ele>
        <time>2020-02-07T10:56:53.000Z</time>
      </trkpt>
      <trkpt lat="44.7696" lon="5.05325">
        <ele>526</ele>
        <time>2020-02-07T10:56:54.000Z</time>
      </trkpt>
      <trkpt lat="44.7696" lon="5.05326">
        <ele>526</ele>
        <time>2020-02-07T10:56:55.000Z</time>
      </trkpt>
      <trkpt lat="44.76961" lon="5.05327">
        <ele>526</ele>
        <time>2020-02-07T10:56:56.000Z</time>
      </trkpt>
      <trkpt lat="44.7696" lon="5.05328">
        <ele>526</ele>
        <time>2020-02-07T10:56:57.000Z</time>
      </trkpt>
      <trkpt lat="44.7696" lon="5.05329">
        <ele>527</ele>
        <time>2020-02-07T10:56:58.000Z</time>
      </trkpt>
      <trkpt lat="44.7696" lon="5.0533">
        <ele>527</ele>
        <time>2020-02-07T10:56:59.000Z</time>
      </trkpt>
      <trkpt lat="44.7696" lon="5.05332">
        <ele>527</ele>
        <time>2020-02-07T10:57:00.000Z</time>
      </trkpt>
      <trkpt lat="44.7696" lon="5.05333">
        <ele>527</ele>
        <time>2020-02-07T10:57:01.000Z</time>
      </trkpt>
      <trkpt lat="44.7696" lon="5.05333">
        <ele>527</ele>
        <time>2020-02-07T10:57:02.000Z</time>
      </trkpt>
      <trkpt lat="44.7696" lon="5.05334">
        <ele>528</ele>
        <time>2020-02-07T10:57:03.000Z</time>
      </trkpt>
      <trkpt lat="44.7696" lon="5.05335">
        <ele>528</ele>
        <time>2020-02-07T10:57:04.000Z</time>
      </trkpt>
      <trkpt lat="44.7696" lon="5.05337">
        <ele>528</ele>
        <time>2020-02-07T10:57:05.000Z</time>
      </trkpt>
      <trkpt lat="44.7696" lon="5.05338">
        <ele>528</ele>
        <time>2020-02-07T10:57:06.000Z</time>
      </trkpt>
      <trkpt lat="44.7696" lon="5.05339">
        <ele>528</ele>
        <time>2020-02-07T10:57:07.000Z</time>
      </trkpt>
      <trkpt lat="44.7696" lon="5.05341">
        <ele>528</ele>
        <time>2020-02-07T10:57:08.000Z</time>
      </trkpt>
      <trkpt lat="44.7696" lon="5.05342">
        <ele>528</ele>
        <time>2020-02-07T10:57:09.000Z</time>
      </trkpt>
      <trkpt lat="44.7696" lon="5.05343">
        <ele>529</ele>
        <time>2020-02-07T10:57:10.000Z</time>
      </trkpt>
      <trkpt lat="44.7696" lon="5.05345">
        <ele>529</ele>
        <time>2020-02-07T10:57:11.000Z</time>
      </trkpt>
      <trkpt lat="44.7696" lon="5.05346">
        <ele>529</ele>
        <time>2020-02-07T10:57:12.000Z</time>
      </trkpt>
      <trkpt lat="44.7696" lon="5.05347">
        <ele>529</ele>
        <time>2020-02-07T10:57:13.000Z</time>
      </trkpt>
      <trkpt lat="44.7696" lon="5.05349">
        <ele>529</ele>
        <time>2020-02-07T10:57:14.000Z</time>
      </trkpt>
      <trkpt lat="44.76961" lon="5.0535">
        <ele>529</ele>
        <time>2020-02-07T10:57:15.000Z</time>
      </trkpt>
      <trkpt lat="44.76961" lon="5.05351">
        <ele>529</ele>
        <time>2020-02-07T10:57:16.000Z</time>
      </trkpt>
      <trkpt lat="44.76962" lon="5.05352">
        <ele>529</ele>
        <time>2020-02-07T10:57:17.000Z</time>
      </trkpt>
      <trkpt lat="44.76962" lon="5.05354">
        <ele>529</ele>
        <time>2020-02-07T10:57:18.000Z</time>
      </trkpt>
      <trkpt lat="44.76963" lon="5.05355">
        <ele>529</ele>
        <time>2020-02-07T10:57:19.000Z</time>
      </trkpt>
      <trkpt lat="44.76963" lon="5.05356">
        <ele>529</ele>
        <time>2020-02-07T10:57:20.000Z</time>
      </trkpt>
      <trkpt lat="44.76963" lon="5.05357">
        <ele>529</ele>
        <time>2020-02-07T10:57:21.000Z</time>
      </trkpt>
      <trkpt lat="44.76964" lon="5.05359">
        <ele>529</ele>
        <time>2020-02-07T10:57:22.000Z</time>
      </trkpt>
      <trkpt lat="44.76964" lon="5.0536">
        <ele>529</ele>
        <time>2020-02-07T10:57:23.000Z</time>
      </trkpt>
      <trkpt lat="44.76965" lon="5.05361">
        <ele>529</ele>
        <time>2020-02-07T10:57:24.000Z</time>
      </trkpt>
      <trkpt lat="44.76965" lon="5.05362">
        <ele>529</ele>
        <time>2020-02-07T10:57:25.000Z</time>
      </trkpt>
      <trkpt lat="44.76965" lon="5.05363">
        <ele>529</ele>
        <time>2020-02-07T10:57:26.000Z</time>
      </trkpt>
      <trkpt lat="44.76966" lon="5.05364">
        <ele>530</ele>
        <time>2020-02-07T10:57:27.000Z</time>
      </trkpt>
      <trkpt lat="44.76966" lon="5.05365">
        <ele>530</ele>
        <time>2020-02-07T10:57:28.000Z</time>
      </trkpt>
      <trkpt lat="44.76967" lon="5.05366">
        <ele>530</ele>
        <time>2020-02-07T10:57:29.000Z</time>
      </trkpt>
      <trkpt lat="44.76967" lon="5.05367">
        <ele>530</ele>
        <time>2020-02-07T10:57:30.000Z</time>
      </trkpt>
      <trkpt lat="44.76968" lon="5.05368">
        <ele>530</ele>
        <time>2020-02-07T10:57:31.000Z</time>
      </trkpt>
      <trkpt lat="44.76969" lon="5.05369">
        <ele>530</ele>
        <time>2020-02-07T10:57:32.000Z</time>
      </trkpt>
      <trkpt lat="44.76969" lon="5.0537">
        <ele>530</ele>
        <time>2020-02-07T10:57:33.000Z</time>
      </trkpt>
      <trkpt lat="44.7697" lon="5.05371">
        <ele>530</ele>
        <time>2020-02-07T10:57:34.000Z</time>
      </trkpt>
      <trkpt lat="44.76971" lon="5.05372">
        <ele>530</ele>
        <time>2020-02-07T10:57:35.000Z</time>
      </trkpt>
      <trkpt lat="44.76971" lon="5.05374">
        <ele>530</ele>
        <time>2020-02-07T10:57:36.000Z</time>
      </trkpt>
      <trkpt lat="44.76972" lon="5.05375">
        <ele>530</ele>
        <time>2020-02-07T10:57:37.000Z</time>
      </trkpt>
      <trkpt lat="44.76973" lon="5.05376">
        <ele>530</ele>
        <time>2020-02-07T10:57:38.000Z</time>
      </trkpt>
      <trkpt lat="44.76973" lon="5.05378">
        <ele>530</ele>
        <time>2020-02-07T10:57:39.000Z</time>
      </trkpt>
      <trkpt lat="44.76974" lon="5.05379">
        <ele>530</ele>
        <time>2020-02-07T10:57:40.000Z</time>
      </trkpt>
      <trkpt lat="44.76974" lon="5.0538">
        <ele>530</ele>
        <time>2020-02-07T10:57:41.000Z</time>
      </trkpt>
      <trkpt lat="44.76975" lon="5.05382">
        <ele>530</ele>
        <time>2020-02-07T10:57:42.000Z</time>
      </trkpt>
      <trkpt lat="44.76975" lon="5.05383">
        <ele>530</ele>
        <time>2020-02-07T10:57:43.000Z</time>
      </trkpt>
      <trkpt lat="44.76975" lon="5.05385">
        <ele>530</ele>
        <time>2020-02-07T10:57:44.000Z</time>
      </trkpt>
      <trkpt lat="44.76976" lon="5.05386">
        <ele>530</ele>
        <time>2020-02-07T10:57:45.000Z</time>
      </trkpt>
      <trkpt lat="44.76976" lon="5.05387">
        <ele>530</ele>
        <time>2020-02-07T10:57:46.000Z</time>
      </trkpt>
      <trkpt lat="44.76977" lon="5.05388">
        <ele>530</ele>
        <time>2020-02-07T10:57:47.000Z</time>
      </trkpt>
      <trkpt lat="44.76978" lon="5.05389">
        <ele>530</ele>
        <time>2020-02-07T10:57:48.000Z</time>
      </trkpt>
      <trkpt lat="44.76978" lon="5.0539">
        <ele>530</ele>
        <time>2020-02-07T10:57:49.000Z</time>
      </trkpt>
      <trkpt lat="44.76978" lon="5.05391">
        <ele>530</ele>
        <time>2020-02-07T10:57:50.000Z</time>
      </trkpt>
      <trkpt lat="44.76979" lon="5.05392">
        <ele>530</ele>
        <time>2020-02-07T10:57:51.000Z</time>
      </trkpt>
      <trkpt lat="44.7698" lon="5.05393">
        <ele>530</ele>
        <time>2020-02-07T10:57:52.000Z</time>
      </trkpt>
      <trkpt lat="44.7698" lon="5.05395">
        <ele>530</ele>
        <time>2020-02-07T10:57:53.000Z</time>
      </trkpt>
      <trkpt lat="44.7698" lon="5.05396">
        <ele>530</ele>
        <time>2020-02-07T10:57:54.000Z</time>
      </trkpt>
      <trkpt lat="44.76981" lon="5.05397">
        <ele>530</ele>
        <time>2020-02-07T10:57:55.000Z</time>
      </trkpt>
      <trkpt lat="44.76981" lon="5.05399">
        <ele>530</ele>
        <time>2020-02-07T10:57:56.000Z</time>
      </trkpt>
      <trkpt lat="44.76982" lon="5.05399">
        <ele>530</ele>
        <time>2020-02-07T10:57:57.000Z</time>
      </trkpt>
      <trkpt lat="44.76983" lon="5.05401">
        <ele>530</ele>
        <time>2020-02-07T10:57:58.000Z</time>
      </trkpt>
      <trkpt lat="44.76984" lon="5.05402">
        <ele>530</ele>
        <time>2020-02-07T10:57:59.000Z</time>
      </trkpt>
      <trkpt lat="44.76984" lon="5.05403">
        <ele>530</ele>
        <time>2020-02-07T10:58:00.000Z</time>
      </trkpt>
      <trkpt lat="44.76985" lon="5.05404">
        <ele>530</ele>
        <time>2020-02-07T10:58:01.000Z</time>
      </trkpt>
      <trkpt lat="44.76986" lon="5.05405">
        <ele>530</ele>
        <time>2020-02-07T10:58:02.000Z</time>
      </trkpt>
      <trkpt lat="44.76986" lon="5.05406">
        <ele>530</ele>
        <time>2020-02-07T10:58:03.000Z</time>
      </trkpt>
      <trkpt lat="44.76987" lon="5.05406">
        <ele>530</ele>
        <time>2020-02-07T10:58:04.000Z</time>
      </trkpt>
      <trkpt lat="44.76987" lon="5.05407">
        <ele>530</ele>
        <time>2020-02-07T10:58:05.000Z</time>
      </trkpt>
      <trkpt lat="44.76987" lon="5.05407">
        <ele>530</ele>
        <time>2020-02-07T10:58:06.000Z</time>
      </trkpt>
      <trkpt lat="44.76988" lon="5.05408">
        <ele>530</ele>
        <time>2020-02-07T10:58:07.000Z</time>
      </trkpt>
      <trkpt lat="44.76988" lon="5.05408">
        <ele>530</ele>
        <time>2020-02-07T10:58:08.000Z</time>
      </trkpt>
      <trkpt lat="44.76989" lon="5.05408">
        <ele>531</ele>
        <time>2020-02-07T10:58:09.000Z</time>
      </trkpt>
      <trkpt lat="44.7699" lon="5.05409">
        <ele>531</ele>
        <time>2020-02-07T10:58:10.000Z</time>
      </trkpt>
      <trkpt lat="44.76991" lon="5.0541">
        <ele>531</ele>
        <time>2020-02-07T10:58:11.000Z</time>
      </trkpt>
      <trkpt lat="44.76993" lon="5.05411">
        <ele>531</ele>
        <time>2020-02-07T10:58:12.000Z</time>
      </trkpt>
      <trkpt lat="44.76994" lon="5.05411">
        <ele>531</ele>
        <time>2020-02-07T10:58:13.000Z</time>
      </trkpt>
      <trkpt lat="44.76995" lon="5.05412">
        <ele>531</ele>
        <time>2020-02-07T10:58:14.000Z</time>
      </trkpt>
      <trkpt lat="44.76996" lon="5.05413">
        <ele>531</ele>
        <time>2020-02-07T10:58:15.000Z</time>
      </trkpt>
      <trkpt lat="44.76997" lon="5.05414">
        <ele>531</ele>
        <time>2020-02-07T10:58:16.000Z</time>
      </trkpt>
      <trkpt lat="44.76998" lon="5.05414">
        <ele>532</ele>
        <time>2020-02-07T10:58:17.000Z</time>
      </trkpt>
      <trkpt lat="44.76999" lon="5.05415">
        <ele>532</ele>
        <time>2020-02-07T10:58:18.000Z</time>
      </trkpt>
      <trkpt lat="44.77" lon="5.05415">
        <ele>532</ele>
        <time>2020-02-07T10:58:19.000Z</time>
      </trkpt>
      <trkpt lat="44.77001" lon="5.05416">
        <ele>532</ele>
        <time>2020-02-07T10:58:20.000Z</time>
      </trkpt>
      <trkpt lat="44.77002" lon="5.05416">
        <ele>532</ele>
        <time>2020-02-07T10:58:21.000Z</time>
      </trkpt>
      <trkpt lat="44.77003" lon="5.05417">
        <ele>532</ele>
        <time>2020-02-07T10:58:22.000Z</time>
      </trkpt>
      <trkpt lat="44.77004" lon="5.05417">
        <ele>532</ele>
        <time>2020-02-07T10:58:23.000Z</time>
      </trkpt>
      <trkpt lat="44.77005" lon="5.05418">
        <ele>532</ele>
        <time>2020-02-07T10:58:24.000Z</time>
      </trkpt>
      <trkpt lat="44.77005" lon="5.05419">
        <ele>532</ele>
        <time>2020-02-07T10:58:25.000Z</time>
      </trkpt>
      <trkpt lat="44.77006" lon="5.0542">
        <ele>533</ele>
        <time>2020-02-07T10:58:26.000Z</time>
      </trkpt>
      <trkpt lat="44.77007" lon="5.05421">
        <ele>533</ele>
        <time>2020-02-07T10:58:27.000Z</time>
      </trkpt>
      <trkpt lat="44.77008" lon="5.05422">
        <ele>533</ele>
        <time>2020-02-07T10:58:28.000Z</time>
      </trkpt>
      <trkpt lat="44.77008" lon="5.05423">
        <ele>533</ele>
        <time>2020-02-07T10:58:29.000Z</time>
      </trkpt>
      <trkpt lat="44.77009" lon="5.05424">
        <ele>533</ele>
        <time>2020-02-07T10:58:30.000Z</time>
      </trkpt>
      <trkpt lat="44.77009" lon="5.05425">
        <ele>533</ele>
        <time>2020-02-07T10:58:31.000Z</time>
      </trkpt>
      <trkpt lat="44.7701" lon="5.05426">
        <ele>533</ele>
        <time>2020-02-07T10:58:32.000Z</time>
      </trkpt>
      <trkpt lat="44.7701" lon="5.05427">
        <ele>534</ele>
        <time>2020-02-07T10:58:33.000Z</time>
      </trkpt>
      <trkpt lat="44.7701" lon="5.05428">
        <ele>534</ele>
        <time>2020-02-07T10:58:34.000Z</time>
      </trkpt>
      <trkpt lat="44.7701" lon="5.05429">
        <ele>534</ele>
        <time>2020-02-07T10:58:35.000Z</time>
      </trkpt>
      <trkpt lat="44.77011" lon="5.05429">
        <ele>534</ele>
        <time>2020-02-07T10:58:36.000Z</time>
      </trkpt>
      <trkpt lat="44.77012" lon="5.0543">
        <ele>534</ele>
        <time>2020-02-07T10:58:37.000Z</time>
      </trkpt>
      <trkpt lat="44.77013" lon="5.0543">
        <ele>534</ele>
        <time>2020-02-07T10:58:38.000Z</time>
      </trkpt>
      <trkpt lat="44.77014" lon="5.0543">
        <ele>534</ele>
        <time>2020-02-07T10:58:39.000Z</time>
      </trkpt>
      <trkpt lat="44.77015" lon="5.0543">
        <ele>534</ele>
        <time>2020-02-07T10:58:40.000Z</time>
      </trkpt>
      <trkpt lat="44.77016" lon="5.05431">
        <ele>535</ele>
        <time>2020-02-07T10:58:41.000Z</time>
      </trkpt>
      <trkpt lat="44.77018" lon="5.05431">
        <ele>535</ele>
        <time>2020-02-07T10:58:42.000Z</time>
      </trkpt>
      <trkpt lat="44.77019" lon="5.05432">
        <ele>535</ele>
        <time>2020-02-07T10:58:43.000Z</time>
      </trkpt>
      <trkpt lat="44.7702" lon="5.05433">
        <ele>535</ele>
        <time>2020-02-07T10:58:44.000Z</time>
      </trkpt>
      <trkpt lat="44.77022" lon="5.05433">
        <ele>535</ele>
        <time>2020-02-07T10:58:45.000Z</time>
      </trkpt>
      <trkpt lat="44.77023" lon="5.05434">
        <ele>535</ele>
        <time>2020-02-07T10:58:46.000Z</time>
      </trkpt>
      <trkpt lat="44.77024" lon="5.05435">
        <ele>535</ele>
        <time>2020-02-07T10:58:47.000Z</time>
      </trkpt>
      <trkpt lat="44.77025" lon="5.05436">
        <ele>535</ele>
        <time>2020-02-07T10:58:48.000Z</time>
      </trkpt>
      <trkpt lat="44.77026" lon="5.05437">
        <ele>535</ele>
        <time>2020-02-07T10:58:49.000Z</time>
      </trkpt>
      <trkpt lat="44.77027" lon="5.05437">
        <ele>535</ele>
        <time>2020-02-07T10:58:50.000Z</time>
      </trkpt>
      <trkpt lat="44.77028" lon="5.05438">
        <ele>535</ele>
        <time>2020-02-07T10:58:51.000Z</time>
      </trkpt>
      <trkpt lat="44.77029" lon="5.05439">
        <ele>535</ele>
        <time>2020-02-07T10:58:52.000Z</time>
      </trkpt>
      <trkpt lat="44.77029" lon="5.05439">
        <ele>535</ele>
        <time>2020-02-07T10:58:53.000Z</time>
      </trkpt>
      <trkpt lat="44.77031" lon="5.0544">
        <ele>536</ele>
        <time>2020-02-07T10:58:54.000Z</time>
      </trkpt>
      <trkpt lat="44.77032" lon="5.0544">
        <ele>536</ele>
        <time>2020-02-07T10:58:55.000Z</time>
      </trkpt>
      <trkpt lat="44.77033" lon="5.05441">
        <ele>536</ele>
        <time>2020-02-07T10:58:56.000Z</time>
      </trkpt>
      <trkpt lat="44.77034" lon="5.05441">
        <ele>536</ele>
        <time>2020-02-07T10:58:57.000Z</time>
      </trkpt>
      <trkpt lat="44.77035" lon="5.05442">
        <ele>536</ele>
        <time>2020-02-07T10:58:58.000Z</time>
      </trkpt>
      <trkpt lat="44.77037" lon="5.05443">
        <ele>536</ele>
        <time>2020-02-07T10:58:59.000Z</time>
      </trkpt>
      <trkpt lat="44.77038" lon="5.05443">
        <ele>536</ele>
        <time>2020-02-07T10:59:00.000Z</time>
      </trkpt>
      <trkpt lat="44.77039" lon="5.05444">
        <ele>536</ele>
        <time>2020-02-07T10:59:01.000Z</time>
      </trkpt>
      <trkpt lat="44.7704" lon="5.05446">
        <ele>536</ele>
        <time>2020-02-07T10:59:02.000Z</time>
      </trkpt>
      <trkpt lat="44.77041" lon="5.05447">
        <ele>536</ele>
        <time>2020-02-07T10:59:03.000Z</time>
      </trkpt>
      <trkpt lat="44.77042" lon="5.05448">
        <ele>536</ele>
        <time>2020-02-07T10:59:04.000Z</time>
      </trkpt>
      <trkpt lat="44.77043" lon="5.05449">
        <ele>536</ele>
        <time>2020-02-07T10:59:05.000Z</time>
      </trkpt>
      <trkpt lat="44.77044" lon="5.0545">
        <ele>536</ele>
        <time>2020-02-07T10:59:06.000Z</time>
      </trkpt>
      <trkpt lat="44.77044" lon="5.05451">
        <ele>536</ele>
        <time>2020-02-07T10:59:07.000Z</time>
      </trkpt>
      <trkpt lat="44.77046" lon="5.05451">
        <ele>536</ele>
        <time>2020-02-07T10:59:08.000Z</time>
      </trkpt>
      <trkpt lat="44.77047" lon="5.05452">
        <ele>537</ele>
        <time>2020-02-07T10:59:09.000Z</time>
      </trkpt>
      <trkpt lat="44.77048" lon="5.05453">
        <ele>537</ele>
        <time>2020-02-07T10:59:10.000Z</time>
      </trkpt>
      <trkpt lat="44.77049" lon="5.05453">
        <ele>537</ele>
        <time>2020-02-07T10:59:11.000Z</time>
      </trkpt>
      <trkpt lat="44.7705" lon="5.05453">
        <ele>537</ele>
        <time>2020-02-07T10:59:12.000Z</time>
      </trkpt>
      <trkpt lat="44.77051" lon="5.05453">
        <ele>537</ele>
        <time>2020-02-07T10:59:13.000Z</time>
      </trkpt>
      <trkpt lat="44.77052" lon="5.05453">
        <ele>537</ele>
        <time>2020-02-07T10:59:14.000Z</time>
      </trkpt>
      <trkpt lat="44.77053" lon="5.05453">
        <ele>537</ele>
        <time>2020-02-07T10:59:15.000Z</time>
      </trkpt>
      <trkpt lat="44.77054" lon="5.05453">
        <ele>537</ele>
        <time>2020-02-07T10:59:16.000Z</time>
      </trkpt>
      <trkpt lat="44.77055" lon="5.05453">
        <ele>537</ele>
        <time>2020-02-07T10:59:17.000Z</time>
      </trkpt>
      <trkpt lat="44.77056" lon="5.05453">
        <ele>537</ele>
        <time>2020-02-07T10:59:18.000Z</time>
      </trkpt>
      <trkpt lat="44.77057" lon="5.05453">
        <ele>538</ele>
        <time>2020-02-07T10:59:19.000Z</time>
      </trkpt>
      <trkpt lat="44.77058" lon="5.05453">
        <ele>538</ele>
        <time>2020-02-07T10:59:20.000Z</time>
      </trkpt>
      <trkpt lat="44.77059" lon="5.05453">
        <ele>538</ele>
        <time>2020-02-07T10:59:21.000Z</time>
      </trkpt>
      <trkpt lat="44.7706" lon="5.05453">
        <ele>538</ele>
        <time>2020-02-07T10:59:22.000Z</time>
      </trkpt>
      <trkpt lat="44.77061" lon="5.05454">
        <ele>538</ele>
        <time>2020-02-07T10:59:23.000Z</time>
      </trkpt>
      <trkpt lat="44.77062" lon="5.05455">
        <ele>538</ele>
        <time>2020-02-07T10:59:24.000Z</time>
      </trkpt>
      <trkpt lat="44.77063" lon="5.05455">
        <ele>538</ele>
        <time>2020-02-07T10:59:25.000Z</time>
      </trkpt>
      <trkpt lat="44.77064" lon="5.05455">
        <ele>538</ele>
        <time>2020-02-07T10:59:26.000Z</time>
      </trkpt>
      <trkpt lat="44.77065" lon="5.05455">
        <ele>539</ele>
        <time>2020-02-07T10:59:27.000Z</time>
      </trkpt>
      <trkpt lat="44.77066" lon="5.05455">
        <ele>539</ele>
        <time>2020-02-07T10:59:28.000Z</time>
      </trkpt>
      <trkpt lat="44.77068" lon="5.05454">
        <ele>539</ele>
        <time>2020-02-07T10:59:29.000Z</time>
      </trkpt>
      <trkpt lat="44.77069" lon="5.05454">
        <ele>539</ele>
        <time>2020-02-07T10:59:30.000Z</time>
      </trkpt>
      <trkpt lat="44.7707" lon="5.05454">
        <ele>539</ele>
        <time>2020-02-07T10:59:31.000Z</time>
      </trkpt>
      <trkpt lat="44.77071" lon="5.05454">
        <ele>539</ele>
        <time>2020-02-07T10:59:32.000Z</time>
      </trkpt>
      <trkpt lat="44.77073" lon="5.05454">
        <ele>539</ele>
        <time>2020-02-07T10:59:33.000Z</time>
      </trkpt>
      <trkpt lat="44.77074" lon="5.05454">
        <ele>539</ele>
        <time>2020-02-07T10:59:34.000Z</time>
      </trkpt>
      <trkpt lat="44.77075" lon="5.05454">
        <ele>539</ele>
        <time>2020-02-07T10:59:35.000Z</time>
      </trkpt>
      <trkpt lat="44.77076" lon="5.05455">
        <ele>539</ele>
        <time>2020-02-07T10:59:36.000Z</time>
      </trkpt>
      <trkpt lat="44.77077" lon="5.05455">
        <ele>539</ele>
        <time>2020-02-07T10:59:37.000Z</time>
      </trkpt>
      <trkpt lat="44.77078" lon="5.05455">
        <ele>539</ele>
        <time>2020-02-07T10:59:38.000Z</time>
      </trkpt>
      <trkpt lat="44.77079" lon="5.05455">
        <ele>539</ele>
        <time>2020-02-07T10:59:39.000Z</time>
      </trkpt>
      <trkpt lat="44.7708" lon="5.05456">
        <ele>539</ele>
        <time>2020-02-07T10:59:40.000Z</time>
      </trkpt>
      <trkpt lat="44.77081" lon="5.05456">
        <ele>539</ele>
        <time>2020-02-07T10:59:41.000Z</time>
      </trkpt>
      <trkpt lat="44.77081" lon="5.05456">
        <ele>539</ele>
        <time>2020-02-07T10:59:42.000Z</time>
      </trkpt>
      <trkpt lat="44.77082" lon="5.05456">
        <ele>540</ele>
        <time>2020-02-07T10:59:43.000Z</time>
      </trkpt>
      <trkpt lat="44.77083" lon="5.05456">
        <ele>540</ele>
        <time>2020-02-07T10:59:44.000Z</time>
      </trkpt>
      <trkpt lat="44.77084" lon="5.05457">
        <ele>540</ele>
        <time>2020-02-07T10:59:45.000Z</time>
      </trkpt>
      <trkpt lat="44.77085" lon="5.05457">
        <ele>540</ele>
        <time>2020-02-07T10:59:46.000Z</time>
      </trkpt>
      <trkpt lat="44.77086" lon="5.05457">
        <ele>540</ele>
        <time>2020-02-07T10:59:47.000Z</time>
      </trkpt>
      <trkpt lat="44.77087" lon="5.05456">
        <ele>540</ele>
        <time>2020-02-07T10:59:48.000Z</time>
      </trkpt>
      <trkpt lat="44.77087" lon="5.05456">
        <ele>540</ele>
        <time>2020-02-07T10:59:49.000Z</time>
      </trkpt>
      <trkpt lat="44.77088" lon="5.05456">
        <ele>540</ele>
        <time>2020-02-07T10:59:50.000Z</time>
      </trkpt>
      <trkpt lat="44.77089" lon="5.05455">
        <ele>540</ele>
        <time>2020-02-07T10:59:51.000Z</time>
      </trkpt>
      <trkpt lat="44.77089" lon="5.05455">
        <ele>540</ele>
        <time>2020-02-07T10:59:52.000Z</time>
      </trkpt>
      <trkpt lat="44.7709" lon="5.05455">
        <ele>540</ele>
        <time>2020-02-07T10:59:53.000Z</time>
      </trkpt>
      <trkpt lat="44.77091" lon="5.05455">
        <ele>540</ele>
        <time>2020-02-07T10:59:54.000Z</time>
      </trkpt>
      <trkpt lat="44.77092" lon="5.05455">
        <ele>540</ele>
        <time>2020-02-07T10:59:55.000Z</time>
      </trkpt>
      <trkpt lat="44.77093" lon="5.05454">
        <ele>540</ele>
        <time>2020-02-07T10:59:56.000Z</time>
      </trkpt>
      <trkpt lat="44.77095" lon="5.05454">
        <ele>540</ele>
        <time>2020-02-07T10:59:57.000Z</time>
      </trkpt>
      <trkpt lat="44.77096" lon="5.05454">
        <ele>540</ele>
        <time>2020-02-07T10:59:58.000Z</time>
      </trkpt>
      <trkpt lat="44.77097" lon="5.05455">
        <ele>540</ele>
        <time>2020-02-07T10:59:59.000Z</time>
      </trkpt>
      <trkpt lat="44.77098" lon="5.05455">
        <ele>540</ele>
        <time>2020-02-07T11:00:00.000Z</time>
      </trkpt>
      <trkpt lat="44.77099" lon="5.05456">
        <ele>540</ele>
        <time>2020-02-07T11:00:01.000Z</time>
      </trkpt>
      <trkpt lat="44.771" lon="5.05456">
        <ele>540</ele>
        <time>2020-02-07T11:00:02.000Z</time>
      </trkpt>
      <trkpt lat="44.77101" lon="5.05457">
        <ele>540</ele>
        <time>2020-02-07T11:00:03.000Z</time>
      </trkpt>
      <trkpt lat="44.77102" lon="5.05457">
        <ele>540</ele>
        <time>2020-02-07T11:00:04.000Z</time>
      </trkpt>
      <trkpt lat="44.77103" lon="5.05458">
        <ele>540</ele>
        <time>2020-02-07T11:00:05.000Z</time>
      </trkpt>
      <trkpt lat="44.77104" lon="5.05459">
        <ele>540</ele>
        <time>2020-02-07T11:00:06.000Z</time>
      </trkpt>
      <trkpt lat="44.77105" lon="5.05459">
        <ele>540</ele>
        <time>2020-02-07T11:00:07.000Z</time>
      </trkpt>
      <trkpt lat="44.77106" lon="5.05459">
        <ele>540</ele>
        <time>2020-02-07T11:00:08.000Z</time>
      </trkpt>
      <trkpt lat="44.77107" lon="5.05459">
        <ele>540</ele>
        <time>2020-02-07T11:00:09.000Z</time>
      </trkpt>
      <trkpt lat="44.77108" lon="5.0546">
        <ele>541</ele>
        <time>2020-02-07T11:00:10.000Z</time>
      </trkpt>
      <trkpt lat="44.77109" lon="5.0546">
        <ele>541</ele>
        <time>2020-02-07T11:00:11.000Z</time>
      </trkpt>
      <trkpt lat="44.7711" lon="5.0546">
        <ele>541</ele>
        <time>2020-02-07T11:00:12.000Z</time>
      </trkpt>
      <trkpt lat="44.77111" lon="5.0546">
        <ele>541</ele>
        <time>2020-02-07T11:00:13.000Z</time>
      </trkpt>
      <trkpt lat="44.77112" lon="5.0546">
        <ele>541</ele>
        <time>2020-02-07T11:00:14.000Z</time>
      </trkpt>
      <trkpt lat="44.77113" lon="5.0546">
        <ele>541</ele>
        <time>2020-02-07T11:00:15.000Z</time>
      </trkpt>
      <trkpt lat="44.77114" lon="5.0546">
        <ele>541</ele>
        <time>2020-02-07T11:00:16.000Z</time>
      </trkpt>
      <trkpt lat="44.77115" lon="5.0546">
        <ele>541</ele>
        <time>2020-02-07T11:00:17.000Z</time>
      </trkpt>
      <trkpt lat="44.77116" lon="5.05461">
        <ele>542</ele>
        <time>2020-02-07T11:00:18.000Z</time>
      </trkpt>
      <trkpt lat="44.77117" lon="5.0546">
        <ele>542</ele>
        <time>2020-02-07T11:00:19.000Z</time>
      </trkpt>
      <trkpt lat="44.77118" lon="5.0546">
        <ele>542</ele>
        <time>2020-02-07T11:00:20.000Z</time>
      </trkpt>
      <trkpt lat="44.77119" lon="5.0546">
        <ele>542</ele>
        <time>2020-02-07T11:00:21.000Z</time>
      </trkpt>
      <trkpt lat="44.7712" lon="5.05459">
        <ele>542</ele>
        <time>2020-02-07T11:00:22.000Z</time>
      </trkpt>
      <trkpt lat="44.77122" lon="5.05459">
        <ele>542</ele>
        <time>2020-02-07T11:00:23.000Z</time>
      </trkpt>
      <trkpt lat="44.77123" lon="5.05459">
        <ele>542</ele>
        <time>2020-02-07T11:00:24.000Z</time>
      </trkpt>
      <trkpt lat="44.77124" lon="5.05459">
        <ele>542</ele>
        <time>2020-02-07T11:00:25.000Z</time>
      </trkpt>
      <trkpt lat="44.77125" lon="5.05459">
        <ele>542</ele>
        <time>2020-02-07T11:00:26.000Z</time>
      </trkpt>
      <trkpt lat="44.77126" lon="5.0546">
        <ele>542</ele>
        <time>2020-02-07T11:00:27.000Z</time>
      </trkpt>
      <trkpt lat="44.77126" lon="5.0546">
        <ele>542</ele>
        <time>2020-02-07T11:00:28.000Z</time>
      </trkpt>
      <trkpt lat="44.77127" lon="5.05461">
        <ele>542</ele>
        <time>2020-02-07T11:00:29.000Z</time>
      </trkpt>
      <trkpt lat="44.77128" lon="5.05461">
        <ele>542</ele>
        <time>2020-02-07T11:00:30.000Z</time>
      </trkpt>
      <trkpt lat="44.77129" lon="5.05462">
        <ele>542</ele>
        <time>2020-02-07T11:00:31.000Z</time>
      </trkpt>
      <trkpt lat="44.7713" lon="5.05462">
        <ele>542</ele>
        <time>2020-02-07T11:00:32.000Z</time>
      </trkpt>
      <trkpt lat="44.77131" lon="5.05463">
        <ele>542</ele>
        <time>2020-02-07T11:00:33.000Z</time>
      </trkpt>
      <trkpt lat="44.77132" lon="5.05464">
        <ele>542</ele>
        <time>2020-02-07T11:00:34.000Z</time>
      </trkpt>
      <trkpt lat="44.77132" lon="5.05465">
        <ele>542</ele>
        <time>2020-02-07T11:00:35.000Z</time>
      </trkpt>
      <trkpt lat="44.77133" lon="5.05465">
        <ele>542</ele>
        <time>2020-02-07T11:00:36.000Z</time>
      </trkpt>
      <trkpt lat="44.77134" lon="5.05466">
        <ele>542</ele>
        <time>2020-02-07T11:00:37.000Z</time>
      </trkpt>
      <trkpt lat="44.77135" lon="5.05466">
        <ele>542</ele>
        <time>2020-02-07T11:00:38.000Z</time>
      </trkpt>
      <trkpt lat="44.77135" lon="5.05467">
        <ele>542</ele>
        <time>2020-02-07T11:00:39.000Z</time>
      </trkpt>
      <trkpt lat="44.77135" lon="5.05467">
        <ele>542</ele>
        <time>2020-02-07T11:00:40.000Z</time>
      </trkpt>
      <trkpt lat="44.77136" lon="5.05468">
        <ele>542</ele>
        <time>2020-02-07T11:00:41.000Z</time>
      </trkpt>
      <trkpt lat="44.77137" lon="5.05468">
        <ele>542</ele>
        <time>2020-02-07T11:00:42.000Z</time>
      </trkpt>
      <trkpt lat="44.77138" lon="5.05469">
        <ele>542</ele>
        <time>2020-02-07T11:00:43.000Z</time>
      </trkpt>
      <trkpt lat="44.77138" lon="5.05469">
        <ele>542</ele>
        <time>2020-02-07T11:00:44.000Z</time>
      </trkpt>
      <trkpt lat="44.77139" lon="5.0547">
        <ele>542</ele>
        <time>2020-02-07T11:00:45.000Z</time>
      </trkpt>
      <trkpt lat="44.7714" lon="5.0547">
        <ele>542</ele>
        <time>2020-02-07T11:00:46.000Z</time>
      </trkpt>
      <trkpt lat="44.7714" lon="5.05471">
        <ele>542</ele>
        <time>2020-02-07T11:00:47.000Z</time>
      </trkpt>
      <trkpt lat="44.77141" lon="5.05471">
        <ele>542</ele>
        <time>2020-02-07T11:00:48.000Z</time>
      </trkpt>
      <trkpt lat="44.77142" lon="5.05472">
        <ele>542</ele>
        <time>2020-02-07T11:00:49.000Z</time>
      </trkpt>
      <trkpt lat="44.77143" lon="5.05472">
        <ele>542</ele>
        <time>2020-02-07T11:00:50.000Z</time>
      </trkpt>
      <trkpt lat="44.77144" lon="5.05472">
        <ele>542</ele>
        <time>2020-02-07T11:00:51.000Z</time>
      </trkpt>
      <trkpt lat="44.77144" lon="5.05472">
        <ele>542</ele>
        <time>2020-02-07T11:00:52.000Z</time>
      </trkpt>
      <trkpt lat="44.77145" lon="5.05472">
        <ele>542</ele>
        <time>2020-02-07T11:00:53.000Z</time>
      </trkpt>
      <trkpt lat="44.77147" lon="5.05472">
        <ele>542</ele>
        <time>2020-02-07T11:00:54.000Z</time>
      </trkpt>
      <trkpt lat="44.77148" lon="5.05472">
        <ele>542</ele>
        <time>2020-02-07T11:00:55.000Z</time>
      </trkpt>
      <trkpt lat="44.77149" lon="5.05473">
        <ele>542</ele>
        <time>2020-02-07T11:00:56.000Z</time>
      </trkpt>
      <trkpt lat="44.7715" lon="5.05474">
        <ele>542</ele>
        <time>2020-02-07T11:00:57.000Z</time>
      </trkpt>
      <trkpt lat="44.77151" lon="5.05475">
        <ele>542</ele>
        <time>2020-02-07T11:00:58.000Z</time>
      </trkpt>
      <trkpt lat="44.77152" lon="5.05476">
        <ele>542</ele>
        <time>2020-02-07T11:00:59.000Z</time>
      </trkpt>
      <trkpt lat="44.77153" lon="5.05477">
        <ele>542</ele>
        <time>2020-02-07T11:01:00.000Z</time>
      </trkpt>
      <trkpt lat="44.77154" lon="5.05478">
        <ele>542</ele>
        <time>2020-02-07T11:01:01.000Z</time>
      </trkpt>
      <trkpt lat="44.77154" lon="5.05479">
        <ele>542</ele>
        <time>2020-02-07T11:01:02.000Z</time>
      </trkpt>
      <trkpt lat="44.77155" lon="5.0548">
        <ele>543</ele>
        <time>2020-02-07T11:01:03.000Z</time>
      </trkpt>
      <trkpt lat="44.77155" lon="5.05481">
        <ele>543</ele>
        <time>2020-02-07T11:01:04.000Z</time>
      </trkpt>
      <trkpt lat="44.77156" lon="5.05482">
        <ele>543</ele>
        <time>2020-02-07T11:01:05.000Z</time>
      </trkpt>
      <trkpt lat="44.77156" lon="5.05483">
        <ele>543</ele>
        <time>2020-02-07T11:01:06.000Z</time>
      </trkpt>
      <trkpt lat="44.77157" lon="5.05484">
        <ele>543</ele>
        <time>2020-02-07T11:01:07.000Z</time>
      </trkpt>
      <trkpt lat="44.77158" lon="5.05486">
        <ele>543</ele>
        <time>2020-02-07T11:01:08.000Z</time>
      </trkpt>
      <trkpt lat="44.77159" lon="5.05486">
        <ele>543</ele>
        <time>2020-02-07T11:01:09.000Z</time>
      </trkpt>
      <trkpt lat="44.77159" lon="5.05487">
        <ele>543</ele>
        <time>2020-02-07T11:01:10.000Z</time>
      </trkpt>
      <trkpt lat="44.7716" lon="5.05488">
        <ele>543</ele>
        <time>2020-02-07T11:01:11.000Z</time>
      </trkpt>
      <trkpt lat="44.7716" lon="5.05488">
        <ele>543</ele>
        <time>2020-02-07T11:01:12.000Z</time>
      </trkpt>
      <trkpt lat="44.77161" lon="5.05488">
        <ele>543</ele>
        <time>2020-02-07T11:01:13.000Z</time>
      </trkpt>
      <trkpt lat="44.77162" lon="5.05489">
        <ele>543</ele>
        <time>2020-02-07T11:01:14.000Z</time>
      </trkpt>
      <trkpt lat="44.77163" lon="5.05489">
        <ele>543</ele>
        <time>2020-02-07T11:01:15.000Z</time>
      </trkpt>
      <trkpt lat="44.77164" lon="5.0549">
        <ele>543</ele>
        <time>2020-02-07T11:01:16.000Z</time>
      </trkpt>
      <trkpt lat="44.77164" lon="5.0549">
        <ele>543</ele>
        <time>2020-02-07T11:01:17.000Z</time>
      </trkpt>
      <trkpt lat="44.77165" lon="5.0549">
        <ele>544</ele>
        <time>2020-02-07T11:01:18.000Z</time>
      </trkpt>
      <trkpt lat="44.77166" lon="5.05491">
        <ele>544</ele>
        <time>2020-02-07T11:01:19.000Z</time>
      </trkpt>
      <trkpt lat="44.77166" lon="5.05492">
        <ele>544</ele>
        <time>2020-02-07T11:01:20.000Z</time>
      </trkpt>
      <trkpt lat="44.77167" lon="5.05492">
        <ele>544</ele>
        <time>2020-02-07T11:01:21.000Z</time>
      </trkpt>
      <trkpt lat="44.77168" lon="5.05493">
        <ele>544</ele>
        <time>2020-02-07T11:01:22.000Z</time>
      </trkpt>
      <trkpt lat="44.77168" lon="5.05494">
        <ele>544</ele>
        <time>2020-02-07T11:01:23.000Z</time>
      </trkpt>
      <trkpt lat="44.77169" lon="5.05494">
        <ele>544</ele>
        <time>2020-02-07T11:01:24.000Z</time>
      </trkpt>
      <trkpt lat="44.77169" lon="5.05495">
        <ele>544</ele>
        <time>2020-02-07T11:01:25.000Z</time>
      </trkpt>
      <trkpt lat="44.7717" lon="5.05495">
        <ele>544</ele>
        <time>2020-02-07T11:01:26.000Z</time>
      </trkpt>
      <trkpt lat="44.77171" lon="5.05495">
        <ele>544</ele>
        <time>2020-02-07T11:01:27.000Z</time>
      </trkpt>
      <trkpt lat="44.77172" lon="5.05495">
        <ele>544</ele>
        <time>2020-02-07T11:01:28.000Z</time>
      </trkpt>
      <trkpt lat="44.77173" lon="5.05495">
        <ele>544</ele>
        <time>2020-02-07T11:01:29.000Z</time>
      </trkpt>
      <trkpt lat="44.77174" lon="5.05495">
        <ele>544</ele>
        <time>2020-02-07T11:01:30.000Z</time>
      </trkpt>
      <trkpt lat="44.77175" lon="5.05496">
        <ele>544</ele>
        <time>2020-02-07T11:01:31.000Z</time>
      </trkpt>
      <trkpt lat="44.77176" lon="5.05496">
        <ele>544</ele>
        <time>2020-02-07T11:01:32.000Z</time>
      </trkpt>
      <trkpt lat="44.77176" lon="5.05496">
        <ele>544</ele>
        <time>2020-02-07T11:01:33.000Z</time>
      </trkpt>
      <trkpt lat="44.77177" lon="5.05497">
        <ele>545</ele>
        <time>2020-02-07T11:01:34.000Z</time>
      </trkpt>
      <trkpt lat="44.77178" lon="5.05497">
        <ele>545</ele>
        <time>2020-02-07T11:01:35.000Z</time>
      </trkpt>
      <trkpt lat="44.77179" lon="5.05498">
        <ele>545</ele>
        <time>2020-02-07T11:01:36.000Z</time>
      </trkpt>
      <trkpt lat="44.7718" lon="5.05498">
        <ele>545</ele>
        <time>2020-02-07T11:01:37.000Z</time>
      </trkpt>
      <trkpt lat="44.77181" lon="5.05499">
        <ele>545</ele>
        <time>2020-02-07T11:01:38.000Z</time>
      </trkpt>
      <trkpt lat="44.77182" lon="5.055">
        <ele>545</ele>
        <time>2020-02-07T11:01:39.000Z</time>
      </trkpt>
      <trkpt lat="44.77183" lon="5.05501">
        <ele>545</ele>
        <time>2020-02-07T11:01:40.000Z</time>
      </trkpt>
      <trkpt lat="44.77184" lon="5.05501">
        <ele>546</ele>
        <time>2020-02-07T11:01:41.000Z</time>
      </trkpt>
      <trkpt lat="44.77185" lon="5.05502">
        <ele>546</ele>
        <time>2020-02-07T11:01:42.000Z</time>
      </trkpt>
      <trkpt lat="44.77186" lon="5.05502">
        <ele>546</ele>
        <time>2020-02-07T11:01:43.000Z</time>
      </trkpt>
      <trkpt lat="44.77187" lon="5.05502">
        <ele>546</ele>
        <time>2020-02-07T11:01:44.000Z</time>
      </trkpt>
      <trkpt lat="44.77188" lon="5.05502">
        <ele>546</ele>
        <time>2020-02-07T11:01:45.000Z</time>
      </trkpt>
      <trkpt lat="44.77189" lon="5.05503">
        <ele>546</ele>
        <time>2020-02-07T11:01:46.000Z</time>
      </trkpt>
      <trkpt lat="44.7719" lon="5.05503">
        <ele>546</ele>
        <time>2020-02-07T11:01:47.000Z</time>
      </trkpt>
      <trkpt lat="44.77191" lon="5.05504">
        <ele>546</ele>
        <time>2020-02-07T11:01:48.000Z</time>
      </trkpt>
      <trkpt lat="44.77192" lon="5.05505">
        <ele>546</ele>
        <time>2020-02-07T11:01:49.000Z</time>
      </trkpt>
      <trkpt lat="44.77192" lon="5.05506">
        <ele>546</ele>
        <time>2020-02-07T11:01:50.000Z</time>
      </trkpt>
      <trkpt lat="44.77193" lon="5.05507">
        <ele>546</ele>
        <time>2020-02-07T11:01:51.000Z</time>
      </trkpt>
      <trkpt lat="44.77194" lon="5.05508">
        <ele>547</ele>
        <time>2020-02-07T11:01:52.000Z</time>
      </trkpt>
      <trkpt lat="44.77195" lon="5.05509">
        <ele>547</ele>
        <time>2020-02-07T11:01:53.000Z</time>
      </trkpt>
      <trkpt lat="44.77195" lon="5.0551">
        <ele>547</ele>
        <time>2020-02-07T11:01:54.000Z</time>
      </trkpt>
      <trkpt lat="44.77196" lon="5.05511">
        <ele>547</ele>
        <time>2020-02-07T11:01:55.000Z</time>
      </trkpt>
      <trkpt lat="44.77196" lon="5.05511">
        <ele>547</ele>
        <time>2020-02-07T11:01:56.000Z</time>
      </trkpt>
      <trkpt lat="44.77197" lon="5.05511">
        <ele>547</ele>
        <time>2020-02-07T11:01:57.000Z</time>
      </trkpt>
      <trkpt lat="44.77197" lon="5.05511">
        <ele>547</ele>
        <time>2020-02-07T11:01:58.000Z</time>
      </trkpt>
      <trkpt lat="44.77197" lon="5.05512">
        <ele>547</ele>
        <time>2020-02-07T11:01:59.000Z</time>
      </trkpt>
      <trkpt lat="44.77197" lon="5.05512">
        <ele>547</ele>
        <time>2020-02-07T11:02:00.000Z</time>
      </trkpt>
      <trkpt lat="44.77197" lon="5.05512">
        <ele>548</ele>
        <time>2020-02-07T11:02:01.000Z</time>
      </trkpt>
      <trkpt lat="44.77197" lon="5.05513">
        <ele>548</ele>
        <time>2020-02-07T11:02:02.000Z</time>
      </trkpt>
      <trkpt lat="44.77197" lon="5.05513">
        <ele>548</ele>
        <time>2020-02-07T11:02:03.000Z</time>
      </trkpt>
      <trkpt lat="44.77197" lon="5.05513">
        <ele>548</ele>
        <time>2020-02-07T11:02:04.000Z</time>
      </trkpt>
      <trkpt lat="44.77197" lon="5.05513">
        <ele>548</ele>
        <time>2020-02-07T11:02:05.000Z</time>
      </trkpt>
      <trkpt lat="44.77197" lon="5.05513">
        <ele>548</ele>
        <time>2020-02-07T11:02:06.000Z</time>
      </trkpt>
      <trkpt lat="44.77197" lon="5.05514">
        <ele>548</ele>
        <time>2020-02-07T11:02:07.000Z</time>
      </trkpt>
      <trkpt lat="44.77197" lon="5.05514">
        <ele>548</ele>
        <time>2020-02-07T11:02:08.000Z</time>
      </trkpt>
      <trkpt lat="44.77197" lon="5.05514">
        <ele>548</ele>
        <time>2020-02-07T11:02:09.000Z</time>
      </trkpt>
      <trkpt lat="44.77197" lon="5.05514">
        <ele>549</ele>
        <time>2020-02-07T11:02:10.000Z</time>
      </trkpt>
      <trkpt lat="44.77197" lon="5.05515">
        <ele>549</ele>
        <time>2020-02-07T11:02:11.000Z</time>
      </trkpt>
      <trkpt lat="44.77197" lon="5.05515">
        <ele>549</ele>
        <time>2020-02-07T11:02:12.000Z</time>
      </trkpt>
      <trkpt lat="44.77197" lon="5.05515">
        <ele>549</ele>
        <time>2020-02-07T11:02:13.000Z</time>
      </trkpt>
      <trkpt lat="44.77197" lon="5.05515">
        <ele>549</ele>
        <time>2020-02-07T11:02:14.000Z</time>
      </trkpt>
      <trkpt lat="44.77197" lon="5.05515">
        <ele>549</ele>
        <time>2020-02-07T11:02:15.000Z</time>
      </trkpt>
      <trkpt lat="44.77197" lon="5.05515">
        <ele>549</ele>
        <time>2020-02-07T11:02:16.000Z</time>
      </trkpt>
      <trkpt lat="44.77197" lon="5.05515">
        <ele>549</ele>
        <time>2020-02-07T11:02:17.000Z</time>
      </trkpt>
      <trkpt lat="44.77197" lon="5.05515">
        <ele>549</ele>
        <time>2020-02-07T11:02:18.000Z</time>
      </trkpt>
      <trkpt lat="44.77197" lon="5.05516">
        <ele>549</ele>
        <time>2020-02-07T11:02:19.000Z</time>
      </trkpt>
      <trkpt lat="44.77197" lon="5.05516">
        <ele>549</ele>
        <time>2020-02-07T11:02:20.000Z</time>
      </trkpt>
      <trkpt lat="44.77197" lon="5.05516">
        <ele>549</ele>
        <time>2020-02-07T11:02:21.000Z</time>
      </trkpt>
      <trkpt lat="44.77197" lon="5.05516">
        <ele>550</ele>
        <time>2020-02-07T11:02:22.000Z</time>
      </trkpt>
      <trkpt lat="44.77197" lon="5.05516">
        <ele>550</ele>
        <time>2020-02-07T11:02:23.000Z</time>
      </trkpt>
      <trkpt lat="44.77197" lon="5.05517">
        <ele>550</ele>
        <time>2020-02-07T11:02:24.000Z</time>
      </trkpt>
      <trkpt lat="44.77198" lon="5.05517">
        <ele>550</ele>
        <time>2020-02-07T11:02:25.000Z</time>
      </trkpt>
      <trkpt lat="44.77199" lon="5.05517">
        <ele>550</ele>
        <time>2020-02-07T11:02:26.000Z</time>
      </trkpt>
      <trkpt lat="44.772" lon="5.05517">
        <ele>550</ele>
        <time>2020-02-07T11:02:27.000Z</time>
      </trkpt>
      <trkpt lat="44.77201" lon="5.05517">
        <ele>550</ele>
        <time>2020-02-07T11:02:28.000Z</time>
      </trkpt>
      <trkpt lat="44.77202" lon="5.05517">
        <ele>550</ele>
        <time>2020-02-07T11:02:29.000Z</time>
      </trkpt>
      <trkpt lat="44.77203" lon="5.05517">
        <ele>550</ele>
        <time>2020-02-07T11:02:30.000Z</time>
      </trkpt>
      <trkpt lat="44.77203" lon="5.05518">
        <ele>550</ele>
        <time>2020-02-07T11:02:31.000Z</time>
      </trkpt>
      <trkpt lat="44.77204" lon="5.05518">
        <ele>550</ele>
        <time>2020-02-07T11:02:32.000Z</time>
      </trkpt>
      <trkpt lat="44.77205" lon="5.05518">
        <ele>550</ele>
        <time>2020-02-07T11:02:33.000Z</time>
      </trkpt>
      <trkpt lat="44.77206" lon="5.05519">
        <ele>550</ele>
        <time>2020-02-07T11:02:34.000Z</time>
      </trkpt>
      <trkpt lat="44.77207" lon="5.0552">
        <ele>550</ele>
        <time>2020-02-07T11:02:35.000Z</time>
      </trkpt>
      <trkpt lat="44.77207" lon="5.05521">
        <ele>550</ele>
        <time>2020-02-07T11:02:36.000Z</time>
      </trkpt>
      <trkpt lat="44.77208" lon="5.05521">
        <ele>550</ele>
        <time>2020-02-07T11:02:37.000Z</time>
      </trkpt>
      <trkpt lat="44.77208" lon="5.05522">
        <ele>550</ele>
        <time>2020-02-07T11:02:38.000Z</time>
      </trkpt>
      <trkpt lat="44.77209" lon="5.05523">
        <ele>550</ele>
        <time>2020-02-07T11:02:39.000Z</time>
      </trkpt>
      <trkpt lat="44.77209" lon="5.05524">
        <ele>550</ele>
        <time>2020-02-07T11:02:40.000Z</time>
      </trkpt>
      <trkpt lat="44.7721" lon="5.05526">
        <ele>550</ele>
        <time>2020-02-07T11:02:41.000Z</time>
      </trkpt>
      <trkpt lat="44.7721" lon="5.05527">
        <ele>550</ele>
        <time>2020-02-07T11:02:42.000Z</time>
      </trkpt>
      <trkpt lat="44.77211" lon="5.05529">
        <ele>550</ele>
        <time>2020-02-07T11:02:43.000Z</time>
      </trkpt>
      <trkpt lat="44.77212" lon="5.0553">
        <ele>550</ele>
        <time>2020-02-07T11:02:44.000Z</time>
      </trkpt>
      <trkpt lat="44.77212" lon="5.05532">
        <ele>550</ele>
        <time>2020-02-07T11:02:45.000Z</time>
      </trkpt>
      <trkpt lat="44.77212" lon="5.05533">
        <ele>550</ele>
        <time>2020-02-07T11:02:46.000Z</time>
      </trkpt>
      <trkpt lat="44.77212" lon="5.05534">
        <ele>551</ele>
        <time>2020-02-07T11:02:47.000Z</time>
      </trkpt>
      <trkpt lat="44.77212" lon="5.05535">
        <ele>551</ele>
        <time>2020-02-07T11:02:48.000Z</time>
      </trkpt>
      <trkpt lat="44.77213" lon="5.05536">
        <ele>551</ele>
        <time>2020-02-07T11:02:49.000Z</time>
      </trkpt>
      <trkpt lat="44.77213" lon="5.05537">
        <ele>551</ele>
        <time>2020-02-07T11:02:50.000Z</time>
      </trkpt>
      <trkpt lat="44.77214" lon="5.05538">
        <ele>552</ele>
        <time>2020-02-07T11:02:51.000Z</time>
      </trkpt>
      <trkpt lat="44.77215" lon="5.05539">
        <ele>552</ele>
        <time>2020-02-07T11:02:52.000Z</time>
      </trkpt>
      <trkpt lat="44.77216" lon="5.0554">
        <ele>552</ele>
        <time>2020-02-07T11:02:53.000Z</time>
      </trkpt>
      <trkpt lat="44.77217" lon="5.05541">
        <ele>552</ele>
        <time>2020-02-07T11:02:54.000Z</time>
      </trkpt>
      <trkpt lat="44.77218" lon="5.05543">
        <ele>552</ele>
        <time>2020-02-07T11:02:55.000Z</time>
      </trkpt>
      <trkpt lat="44.77219" lon="5.05544">
        <ele>552</ele>
        <time>2020-02-07T11:02:56.000Z</time>
      </trkpt>
      <trkpt lat="44.7722" lon="5.05545">
        <ele>552</ele>
        <time>2020-02-07T11:02:57.000Z</time>
      </trkpt>
      <trkpt lat="44.77221" lon="5.05546">
        <ele>552</ele>
        <time>2020-02-07T11:02:58.000Z</time>
      </trkpt>
      <trkpt lat="44.77222" lon="5.05546">
        <ele>553</ele>
        <time>2020-02-07T11:02:59.000Z</time>
      </trkpt>
      <trkpt lat="44.77223" lon="5.05547">
        <ele>553</ele>
        <time>2020-02-07T11:03:00.000Z</time>
      </trkpt>
      <trkpt lat="44.77224" lon="5.05548">
        <ele>553</ele>
        <time>2020-02-07T11:03:01.000Z</time>
      </trkpt>
      <trkpt lat="44.77225" lon="5.05549">
        <ele>553</ele>
        <time>2020-02-07T11:03:02.000Z</time>
      </trkpt>
      <trkpt lat="44.77226" lon="5.0555">
        <ele>553</ele>
        <time>2020-02-07T11:03:03.000Z</time>
      </trkpt>
      <trkpt lat="44.77227" lon="5.05551">
        <ele>553</ele>
        <time>2020-02-07T11:03:04.000Z</time>
      </trkpt>
      <trkpt lat="44.77228" lon="5.05552">
        <ele>553</ele>
        <time>2020-02-07T11:03:05.000Z</time>
      </trkpt>
      <trkpt lat="44.77229" lon="5.05553">
        <ele>553</ele>
        <time>2020-02-07T11:03:06.000Z</time>
      </trkpt>
      <trkpt lat="44.7723" lon="5.05554">
        <ele>553</ele>
        <time>2020-02-07T11:03:07.000Z</time>
      </trkpt>
      <trkpt lat="44.77231" lon="5.05555">
        <ele>553</ele>
        <time>2020-02-07T11:03:08.000Z</time>
      </trkpt>
      <trkpt lat="44.77232" lon="5.05557">
        <ele>553</ele>
        <time>2020-02-07T11:03:09.000Z</time>
      </trkpt>
      <trkpt lat="44.77233" lon="5.05558">
        <ele>553</ele>
        <time>2020-02-07T11:03:10.000Z</time>
      </trkpt>
      <trkpt lat="44.77234" lon="5.0556">
        <ele>553</ele>
        <time>2020-02-07T11:03:11.000Z</time>
      </trkpt>
      <trkpt lat="44.77235" lon="5.05561">
        <ele>553</ele>
        <time>2020-02-07T11:03:12.000Z</time>
      </trkpt>
      <trkpt lat="44.77237" lon="5.05562">
        <ele>553</ele>
        <time>2020-02-07T11:03:13.000Z</time>
      </trkpt>
      <trkpt lat="44.77238" lon="5.05563">
        <ele>553</ele>
        <time>2020-02-07T11:03:14.000Z</time>
      </trkpt>
      <trkpt lat="44.77239" lon="5.05564">
        <ele>553</ele>
        <time>2020-02-07T11:03:15.000Z</time>
      </trkpt>
      <trkpt lat="44.7724" lon="5.05565">
        <ele>552</ele>
        <time>2020-02-07T11:03:16.000Z</time>
      </trkpt>
      <trkpt lat="44.77241" lon="5.05566">
        <ele>552</ele>
        <time>2020-02-07T11:03:17.000Z</time>
      </trkpt>
      <trkpt lat="44.77242" lon="5.05566">
        <ele>552</ele>
        <time>2020-02-07T11:03:18.000Z</time>
      </trkpt>
      <trkpt lat="44.77243" lon="5.05567">
        <ele>552</ele>
        <time>2020-02-07T11:03:19.000Z</time>
      </trkpt>
      <trkpt lat="44.77245" lon="5.05567">
        <ele>552</ele>
        <time>2020-02-07T11:03:20.000Z</time>
      </trkpt>
      <trkpt lat="44.77246" lon="5.05568">
        <ele>552</ele>
        <time>2020-02-07T11:03:21.000Z</time>
      </trkpt>
      <trkpt lat="44.77247" lon="5.05568">
        <ele>552</ele>
        <time>2020-02-07T11:03:22.000Z</time>
      </trkpt>
      <trkpt lat="44.77249" lon="5.05569">
        <ele>552</ele>
        <time>2020-02-07T11:03:23.000Z</time>
      </trkpt>
      <trkpt lat="44.7725" lon="5.05569">
        <ele>552</ele>
        <time>2020-02-07T11:03:24.000Z</time>
      </trkpt>
      <trkpt lat="44.77251" lon="5.05569">
        <ele>552</ele>
        <time>2020-02-07T11:03:25.000Z</time>
      </trkpt>
      <trkpt lat="44.77252" lon="5.0557">
        <ele>552</ele>
        <time>2020-02-07T11:03:26.000Z</time>
      </trkpt>
      <trkpt lat="44.77253" lon="5.05571">
        <ele>552</ele>
        <time>2020-02-07T11:03:27.000Z</time>
      </trkpt>
      <trkpt lat="44.77254" lon="5.05571">
        <ele>552</ele>
        <time>2020-02-07T11:03:28.000Z</time>
      </trkpt>
      <trkpt lat="44.77255" lon="5.05571">
        <ele>552</ele>
        <time>2020-02-07T11:03:29.000Z</time>
      </trkpt>
      <trkpt lat="44.77256" lon="5.05572">
        <ele>552</ele>
        <time>2020-02-07T11:03:30.000Z</time>
      </trkpt>
      <trkpt lat="44.77258" lon="5.05572">
        <ele>552</ele>
        <time>2020-02-07T11:03:31.000Z</time>
      </trkpt>
      <trkpt lat="44.77259" lon="5.05572">
        <ele>552</ele>
        <time>2020-02-07T11:03:32.000Z</time>
      </trkpt>
      <trkpt lat="44.7726" lon="5.05573">
        <ele>552</ele>
        <time>2020-02-07T11:03:33.000Z</time>
      </trkpt>
      <trkpt lat="44.77261" lon="5.05573">
        <ele>552</ele>
        <time>2020-02-07T11:03:34.000Z</time>
      </trkpt>
      <trkpt lat="44.77263" lon="5.05573">
        <ele>552</ele>
        <time>2020-02-07T11:03:35.000Z</time>
      </trkpt>
      <trkpt lat="44.77264" lon="5.05572">
        <ele>552</ele>
        <time>2020-02-07T11:03:36.000Z</time>
      </trkpt>
      <trkpt lat="44.77265" lon="5.05572">
        <ele>552</ele>
        <time>2020-02-07T11:03:37.000Z</time>
      </trkpt>
      <trkpt lat="44.77266" lon="5.05572">
        <ele>552</ele>
        <time>2020-02-07T11:03:38.000Z</time>
      </trkpt>
      <trkpt lat="44.77268" lon="5.05572">
        <ele>552</ele>
        <time>2020-02-07T11:03:39.000Z</time>
      </trkpt>
      <trkpt lat="44.77269" lon="5.05572">
        <ele>552</ele>
        <time>2020-02-07T11:03:40.000Z</time>
      </trkpt>
      <trkpt lat="44.77269" lon="5.05572">
        <ele>552</ele>
        <time>2020-02-07T11:03:41.000Z</time>
      </trkpt>
      <trkpt lat="44.7727" lon="5.05571">
        <ele>552</ele>
        <time>2020-02-07T11:03:42.000Z</time>
      </trkpt>
      <trkpt lat="44.7727" lon="5.05572">
        <ele>552</ele>
        <time>2020-02-07T11:03:43.000Z</time>
      </trkpt>
      <trkpt lat="44.77271" lon="5.05573">
        <ele>552</ele>
        <time>2020-02-07T11:03:44.000Z</time>
      </trkpt>
      <trkpt lat="44.77272" lon="5.05574">
        <ele>552</ele>
        <time>2020-02-07T11:03:45.000Z</time>
      </trkpt>
      <trkpt lat="44.77273" lon="5.05575">
        <ele>552</ele>
        <time>2020-02-07T11:03:46.000Z</time>
      </trkpt>
      <trkpt lat="44.77273" lon="5.05576">
        <ele>552</ele>
        <time>2020-02-07T11:03:47.000Z</time>
      </trkpt>
      <trkpt lat="44.77274" lon="5.05578">
        <ele>552</ele>
        <time>2020-02-07T11:03:48.000Z</time>
      </trkpt>
      <trkpt lat="44.77275" lon="5.05579">
        <ele>552</ele>
        <time>2020-02-07T11:03:49.000Z</time>
      </trkpt>
      <trkpt lat="44.77276" lon="5.0558">
        <ele>552</ele>
        <time>2020-02-07T11:03:50.000Z</time>
      </trkpt>
      <trkpt lat="44.77276" lon="5.05581">
        <ele>552</ele>
        <time>2020-02-07T11:03:51.000Z</time>
      </trkpt>
      <trkpt lat="44.77277" lon="5.05582">
        <ele>552</ele>
        <time>2020-02-07T11:03:52.000Z</time>
      </trkpt>
      <trkpt lat="44.77278" lon="5.05583">
        <ele>552</ele>
        <time>2020-02-07T11:03:53.000Z</time>
      </trkpt>
      <trkpt lat="44.77278" lon="5.05585">
        <ele>552</ele>
        <time>2020-02-07T11:03:54.000Z</time>
      </trkpt>
      <trkpt lat="44.77279" lon="5.05586">
        <ele>552</ele>
        <time>2020-02-07T11:03:55.000Z</time>
      </trkpt>
      <trkpt lat="44.77279" lon="5.05587">
        <ele>552</ele>
        <time>2020-02-07T11:03:56.000Z</time>
      </trkpt>
      <trkpt lat="44.7728" lon="5.05588">
        <ele>552</ele>
        <time>2020-02-07T11:03:57.000Z</time>
      </trkpt>
      <trkpt lat="44.77281" lon="5.05589">
        <ele>552</ele>
        <time>2020-02-07T11:03:58.000Z</time>
      </trkpt>
      <trkpt lat="44.77282" lon="5.0559">
        <ele>552</ele>
        <time>2020-02-07T11:03:59.000Z</time>
      </trkpt>
      <trkpt lat="44.77283" lon="5.05591">
        <ele>552</ele>
        <time>2020-02-07T11:04:00.000Z</time>
      </trkpt>
      <trkpt lat="44.77283" lon="5.05593">
        <ele>552</ele>
        <time>2020-02-07T11:04:01.000Z</time>
      </trkpt>
      <trkpt lat="44.77284" lon="5.05594">
        <ele>552</ele>
        <time>2020-02-07T11:04:02.000Z</time>
      </trkpt>
      <trkpt lat="44.77285" lon="5.05595">
        <ele>552</ele>
        <time>2020-02-07T11:04:03.000Z</time>
      </trkpt>
      <trkpt lat="44.77287" lon="5.05596">
        <ele>552</ele>
        <time>2020-02-07T11:04:04.000Z</time>
      </trkpt>
      <trkpt lat="44.77288" lon="5.05596">
        <ele>552</ele>
        <time>2020-02-07T11:04:05.000Z</time>
      </trkpt>
      <trkpt lat="44.77289" lon="5.05597">
        <ele>552</ele>
        <time>2020-02-07T11:04:06.000Z</time>
      </trkpt>
      <trkpt lat="44.7729" lon="5.05598">
        <ele>552</ele>
        <time>2020-02-07T11:04:07.000Z</time>
      </trkpt>
      <trkpt lat="44.77291" lon="5.05599">
        <ele>552</ele>
        <time>2020-02-07T11:04:08.000Z</time>
      </trkpt>
      <trkpt lat="44.77292" lon="5.056">
        <ele>552</ele>
        <time>2020-02-07T11:04:09.000Z</time>
      </trkpt>
      <trkpt lat="44.77293" lon="5.05601">
        <ele>552</ele>
        <time>2020-02-07T11:04:10.000Z</time>
      </trkpt>
      <trkpt lat="44.77294" lon="5.05603">
        <ele>552</ele>
        <time>2020-02-07T11:04:11.000Z</time>
      </trkpt>
      <trkpt lat="44.77294" lon="5.05603">
        <ele>552</ele>
        <time>2020-02-07T11:04:12.000Z</time>
      </trkpt>
      <trkpt lat="44.77295" lon="5.05604">
        <ele>552</ele>
        <time>2020-02-07T11:04:13.000Z</time>
      </trkpt>
      <trkpt lat="44.77296" lon="5.05605">
        <ele>552</ele>
        <time>2020-02-07T11:04:14.000Z</time>
      </trkpt>
      <trkpt lat="44.77297" lon="5.05606">
        <ele>552</ele>
        <time>2020-02-07T11:04:15.000Z</time>
      </trkpt>
      <trkpt lat="44.77298" lon="5.05607">
        <ele>552</ele>
        <time>2020-02-07T11:04:16.000Z</time>
      </trkpt>
      <trkpt lat="44.77298" lon="5.05608">
        <ele>552</ele>
        <time>2020-02-07T11:04:17.000Z</time>
      </trkpt>
      <trkpt lat="44.773" lon="5.05608">
        <ele>552</ele>
        <time>2020-02-07T11:04:18.000Z</time>
      </trkpt>
      <trkpt lat="44.77301" lon="5.05609">
        <ele>552</ele>
        <time>2020-02-07T11:04:19.000Z</time>
      </trkpt>
      <trkpt lat="44.77301" lon="5.0561">
        <ele>552</ele>
        <time>2020-02-07T11:04:20.000Z</time>
      </trkpt>
      <trkpt lat="44.77302" lon="5.05611">
        <ele>552</ele>
        <time>2020-02-07T11:04:21.000Z</time>
      </trkpt>
      <trkpt lat="44.77304" lon="5.05613">
        <ele>552</ele>
        <time>2020-02-07T11:04:22.000Z</time>
      </trkpt>
      <trkpt lat="44.77305" lon="5.05614">
        <ele>552</ele>
        <time>2020-02-07T11:04:23.000Z</time>
      </trkpt>
      <trkpt lat="44.77306" lon="5.05614">
        <ele>552</ele>
        <time>2020-02-07T11:04:24.000Z</time>
      </trkpt>
      <trkpt lat="44.77307" lon="5.05614">
        <ele>552</ele>
        <time>2020-02-07T11:04:25.000Z</time>
      </trkpt>
      <trkpt lat="44.77307" lon="5.05615">
        <ele>552</ele>
        <time>2020-02-07T11:04:26.000Z</time>
      </trkpt>
      <trkpt lat="44.77309" lon="5.05614">
        <ele>552</ele>
        <time>2020-02-07T11:04:27.000Z</time>
      </trkpt>
      <trkpt lat="44.7731" lon="5.05614">
        <ele>553</ele>
        <time>2020-02-07T11:04:28.000Z</time>
      </trkpt>
      <trkpt lat="44.77311" lon="5.05614">
        <ele>553</ele>
        <time>2020-02-07T11:04:29.000Z</time>
      </trkpt>
      <trkpt lat="44.77313" lon="5.05615">
        <ele>553</ele>
        <time>2020-02-07T11:04:30.000Z</time>
      </trkpt>
      <trkpt lat="44.77314" lon="5.05616">
        <ele>552</ele>
        <time>2020-02-07T11:04:31.000Z</time>
      </trkpt>
      <trkpt lat="44.77315" lon="5.05617">
        <ele>552</ele>
        <time>2020-02-07T11:04:32.000Z</time>
      </trkpt>
      <trkpt lat="44.77316" lon="5.05618">
        <ele>552</ele>
        <time>2020-02-07T11:04:33.000Z</time>
      </trkpt>
      <trkpt lat="44.77317" lon="5.05619">
        <ele>552</ele>
        <time>2020-02-07T11:04:34.000Z</time>
      </trkpt>
      <trkpt lat="44.77318" lon="5.05619">
        <ele>552</ele>
        <time>2020-02-07T11:04:35.000Z</time>
      </trkpt>
      <trkpt lat="44.77319" lon="5.0562">
        <ele>552</ele>
        <time>2020-02-07T11:04:36.000Z</time>
      </trkpt>
      <trkpt lat="44.77319" lon="5.05621">
        <ele>552</ele>
        <time>2020-02-07T11:04:37.000Z</time>
      </trkpt>
      <trkpt lat="44.7732" lon="5.05622">
        <ele>552</ele>
        <time>2020-02-07T11:04:38.000Z</time>
      </trkpt>
      <trkpt lat="44.77321" lon="5.05624">
        <ele>552</ele>
        <time>2020-02-07T11:04:39.000Z</time>
      </trkpt>
      <trkpt lat="44.77322" lon="5.05625">
        <ele>552</ele>
        <time>2020-02-07T11:04:40.000Z</time>
      </trkpt>
      <trkpt lat="44.77323" lon="5.05626">
        <ele>552</ele>
        <time>2020-02-07T11:04:41.000Z</time>
      </trkpt>
      <trkpt lat="44.77324" lon="5.05627">
        <ele>552</ele>
        <time>2020-02-07T11:04:42.000Z</time>
      </trkpt>
      <trkpt lat="44.77325" lon="5.05628">
        <ele>552</ele>
        <time>2020-02-07T11:04:43.000Z</time>
      </trkpt>
      <trkpt lat="44.77326" lon="5.05629">
        <ele>552</ele>
        <time>2020-02-07T11:04:44.000Z</time>
      </trkpt>
      <trkpt lat="44.77327" lon="5.0563">
        <ele>552</ele>
        <time>2020-02-07T11:04:45.000Z</time>
      </trkpt>
      <trkpt lat="44.77328" lon="5.05631">
        <ele>552</ele>
        <time>2020-02-07T11:04:46.000Z</time>
      </trkpt>
      <trkpt lat="44.77329" lon="5.05631">
        <ele>552</ele>
        <time>2020-02-07T11:04:47.000Z</time>
      </trkpt>
      <trkpt lat="44.7733" lon="5.05632">
        <ele>551</ele>
        <time>2020-02-07T11:04:48.000Z</time>
      </trkpt>
      <trkpt lat="44.77331" lon="5.05633">
        <ele>551</ele>
        <time>2020-02-07T11:04:49.000Z</time>
      </trkpt>
      <trkpt lat="44.77333" lon="5.05633">
        <ele>551</ele>
        <time>2020-02-07T11:04:50.000Z</time>
      </trkpt>
      <trkpt lat="44.77334" lon="5.05634">
        <ele>551</ele>
        <time>2020-02-07T11:04:51.000Z</time>
      </trkpt>
      <trkpt lat="44.77335" lon="5.05635">
        <ele>551</ele>
        <time>2020-02-07T11:04:52.000Z</time>
      </trkpt>
      <trkpt lat="44.77335" lon="5.05636">
        <ele>551</ele>
        <time>2020-02-07T11:04:53.000Z</time>
      </trkpt>
      <trkpt lat="44.77336" lon="5.05637">
        <ele>551</ele>
        <time>2020-02-07T11:04:54.000Z</time>
      </trkpt>
      <trkpt lat="44.77337" lon="5.05638">
        <ele>551</ele>
        <time>2020-02-07T11:04:55.000Z</time>
      </trkpt>
      <trkpt lat="44.77338" lon="5.05639">
        <ele>551</ele>
        <time>2020-02-07T11:04:56.000Z</time>
      </trkpt>
      <trkpt lat="44.77339" lon="5.05641">
        <ele>551</ele>
        <time>2020-02-07T11:04:57.000Z</time>
      </trkpt>
      <trkpt lat="44.7734" lon="5.05642">
        <ele>551</ele>
        <time>2020-02-07T11:04:58.000Z</time>
      </trkpt>
      <trkpt lat="44.77342" lon="5.05643">
        <ele>551</ele>
        <time>2020-02-07T11:04:59.000Z</time>
      </trkpt>
      <trkpt lat="44.77343" lon="5.05644">
        <ele>551</ele>
        <time>2020-02-07T11:05:00.000Z</time>
      </trkpt>
      <trkpt lat="44.77344" lon="5.05644">
        <ele>550</ele>
        <time>2020-02-07T11:05:01.000Z</time>
      </trkpt>
      <trkpt lat="44.77345" lon="5.05645">
        <ele>550</ele>
        <time>2020-02-07T11:05:02.000Z</time>
      </trkpt>
      <trkpt lat="44.77346" lon="5.05645">
        <ele>550</ele>
        <time>2020-02-07T11:05:03.000Z</time>
      </trkpt>
      <trkpt lat="44.77347" lon="5.05646">
        <ele>550</ele>
        <time>2020-02-07T11:05:04.000Z</time>
      </trkpt>
      <trkpt lat="44.77348" lon="5.05646">
        <ele>550</ele>
        <time>2020-02-07T11:05:05.000Z</time>
      </trkpt>
      <trkpt lat="44.77349" lon="5.05647">
        <ele>550</ele>
        <time>2020-02-07T11:05:06.000Z</time>
      </trkpt>
      <trkpt lat="44.7735" lon="5.05648">
        <ele>550</ele>
        <time>2020-02-07T11:05:07.000Z</time>
      </trkpt>
      <trkpt lat="44.7735" lon="5.0565">
        <ele>550</ele>
        <time>2020-02-07T11:05:08.000Z</time>
      </trkpt>
      <trkpt lat="44.7735" lon="5.05651">
        <ele>550</ele>
        <time>2020-02-07T11:05:09.000Z</time>
      </trkpt>
      <trkpt lat="44.77351" lon="5.05653">
        <ele>550</ele>
        <time>2020-02-07T11:05:10.000Z</time>
      </trkpt>
      <trkpt lat="44.77351" lon="5.05655">
        <ele>550</ele>
        <time>2020-02-07T11:05:11.000Z</time>
      </trkpt>
      <trkpt lat="44.77352" lon="5.05657">
        <ele>550</ele>
        <time>2020-02-07T11:05:12.000Z</time>
      </trkpt>
      <trkpt lat="44.77352" lon="5.05658">
        <ele>550</ele>
        <time>2020-02-07T11:05:13.000Z</time>
      </trkpt>
      <trkpt lat="44.77353" lon="5.0566">
        <ele>550</ele>
        <time>2020-02-07T11:05:14.000Z</time>
      </trkpt>
      <trkpt lat="44.77353" lon="5.05661">
        <ele>550</ele>
        <time>2020-02-07T11:05:15.000Z</time>
      </trkpt>
      <trkpt lat="44.77353" lon="5.05661">
        <ele>549</ele>
        <time>2020-02-07T11:05:17.000Z</time>
      </trkpt>
      <trkpt lat="44.77353" lon="5.05661">
        <ele>549</ele>
        <time>2020-02-07T11:05:18.000Z</time>
      </trkpt>
      <trkpt lat="44.77353" lon="5.05664">
        <ele>549</ele>
        <time>2020-02-07T11:05:19.000Z</time>
      </trkpt>
      <trkpt lat="44.77354" lon="5.05665">
        <ele>549</ele>
        <time>2020-02-07T11:05:20.000Z</time>
      </trkpt>
      <trkpt lat="44.77354" lon="5.05666">
        <ele>549</ele>
        <time>2020-02-07T11:05:21.000Z</time>
      </trkpt>
      <trkpt lat="44.77354" lon="5.05666">
        <ele>549</ele>
        <time>2020-02-07T11:05:22.000Z</time>
      </trkpt>
      <trkpt lat="44.77355" lon="5.05667">
        <ele>549</ele>
        <time>2020-02-07T11:05:23.000Z</time>
      </trkpt>
      <trkpt lat="44.77355" lon="5.05668">
        <ele>548</ele>
        <time>2020-02-07T11:05:24.000Z</time>
      </trkpt>
      <trkpt lat="44.77356" lon="5.05669">
        <ele>548</ele>
        <time>2020-02-07T11:05:25.000Z</time>
      </trkpt>
      <trkpt lat="44.77357" lon="5.0567">
        <ele>548</ele>
        <time>2020-02-07T11:05:26.000Z</time>
      </trkpt>
      <trkpt lat="44.77358" lon="5.05671">
        <ele>547</ele>
        <time>2020-02-07T11:05:27.000Z</time>
      </trkpt>
      <trkpt lat="44.77358" lon="5.05672">
        <ele>547</ele>
        <time>2020-02-07T11:05:28.000Z</time>
      </trkpt>
      <trkpt lat="44.77359" lon="5.05673">
        <ele>547</ele>
        <time>2020-02-07T11:05:29.000Z</time>
      </trkpt>
      <trkpt lat="44.77359" lon="5.05674">
        <ele>546</ele>
        <time>2020-02-07T11:05:30.000Z</time>
      </trkpt>
      <trkpt lat="44.7736" lon="5.05675">
        <ele>546</ele>
        <time>2020-02-07T11:05:31.000Z</time>
      </trkpt>
      <trkpt lat="44.7736" lon="5.05676">
        <ele>545</ele>
        <time>2020-02-07T11:05:32.000Z</time>
      </trkpt>
      <trkpt lat="44.77361" lon="5.05677">
        <ele>545</ele>
        <time>2020-02-07T11:05:33.000Z</time>
      </trkpt>
      <trkpt lat="44.77361" lon="5.05678">
        <ele>545</ele>
        <time>2020-02-07T11:05:34.000Z</time>
      </trkpt>
      <trkpt lat="44.77362" lon="5.05679">
        <ele>545</ele>
        <time>2020-02-07T11:05:35.000Z</time>
      </trkpt>
      <trkpt lat="44.77362" lon="5.0568">
        <ele>544</ele>
        <time>2020-02-07T11:05:36.000Z</time>
      </trkpt>
      <trkpt lat="44.77363" lon="5.05681">
        <ele>544</ele>
        <time>2020-02-07T11:05:37.000Z</time>
      </trkpt>
      <trkpt lat="44.77363" lon="5.05682">
        <ele>544</ele>
        <time>2020-02-07T11:05:38.000Z</time>
      </trkpt>
      <trkpt lat="44.77363" lon="5.05683">
        <ele>543</ele>
        <time>2020-02-07T11:05:39.000Z</time>
      </trkpt>
      <trkpt lat="44.77364" lon="5.05683">
        <ele>543</ele>
        <time>2020-02-07T11:05:40.000Z</time>
      </trkpt>
      <trkpt lat="44.77364" lon="5.05684">
        <ele>543</ele>
        <time>2020-02-07T11:05:41.000Z</time>
      </trkpt>
      <trkpt lat="44.77364" lon="5.05684">
        <ele>543</ele>
        <time>2020-02-07T11:05:42.000Z</time>
      </trkpt>
      <trkpt lat="44.77365" lon="5.05685">
        <ele>543</ele>
        <time>2020-02-07T11:05:43.000Z</time>
      </trkpt>
      <trkpt lat="44.77365" lon="5.05686">
        <ele>542</ele>
        <time>2020-02-07T11:05:44.000Z</time>
      </trkpt>
      <trkpt lat="44.77366" lon="5.05686">
        <ele>542</ele>
        <time>2020-02-07T11:05:45.000Z</time>
      </trkpt>
      <trkpt lat="44.77367" lon="5.05687">
        <ele>542</ele>
        <time>2020-02-07T11:05:46.000Z</time>
      </trkpt>
      <trkpt lat="44.77368" lon="5.05688">
        <ele>541</ele>
        <time>2020-02-07T11:05:47.000Z</time>
      </trkpt>
      <trkpt lat="44.77368" lon="5.0569">
        <ele>541</ele>
        <time>2020-02-07T11:05:48.000Z</time>
      </trkpt>
      <trkpt lat="44.77368" lon="5.05691">
        <ele>542</ele>
        <time>2020-02-07T11:05:49.000Z</time>
      </trkpt>
      <trkpt lat="44.77368" lon="5.05692">
        <ele>542</ele>
        <time>2020-02-07T11:05:50.000Z</time>
      </trkpt>
      <trkpt lat="44.77368" lon="5.05694">
        <ele>542</ele>
        <time>2020-02-07T11:05:51.000Z</time>
      </trkpt>
      <trkpt lat="44.77368" lon="5.05695">
        <ele>542</ele>
        <time>2020-02-07T11:05:52.000Z</time>
      </trkpt>
      <trkpt lat="44.77368" lon="5.05697">
        <ele>543</ele>
        <time>2020-02-07T11:05:53.000Z</time>
      </trkpt>
      <trkpt lat="44.77369" lon="5.05699">
        <ele>543</ele>
        <time>2020-02-07T11:05:54.000Z</time>
      </trkpt>
      <trkpt lat="44.77369" lon="5.057">
        <ele>543</ele>
        <time>2020-02-07T11:05:55.000Z</time>
      </trkpt>
      <trkpt lat="44.7737" lon="5.05702">
        <ele>543</ele>
        <time>2020-02-07T11:05:56.000Z</time>
      </trkpt>
      <trkpt lat="44.7737" lon="5.05703">
        <ele>543</ele>
        <time>2020-02-07T11:05:57.000Z</time>
      </trkpt>
      <trkpt lat="44.7737" lon="5.05704">
        <ele>543</ele>
        <time>2020-02-07T11:05:58.000Z</time>
      </trkpt>
      <trkpt lat="44.7737" lon="5.05706">
        <ele>543</ele>
        <time>2020-02-07T11:05:59.000Z</time>
      </trkpt>
      <trkpt lat="44.77371" lon="5.05707">
        <ele>543</ele>
        <time>2020-02-07T11:06:00.000Z</time>
      </trkpt>
      <trkpt lat="44.77371" lon="5.05708">
        <ele>543</ele>
        <time>2020-02-07T11:06:01.000Z</time>
      </trkpt>
      <trkpt lat="44.77371" lon="5.05709">
        <ele>543</ele>
        <time>2020-02-07T11:06:02.000Z</time>
      </trkpt>
      <trkpt lat="44.77371" lon="5.05711">
        <ele>543</ele>
        <time>2020-02-07T11:06:03.000Z</time>
      </trkpt>
      <trkpt lat="44.77372" lon="5.05712">
        <ele>543</ele>
        <time>2020-02-07T11:06:04.000Z</time>
      </trkpt>
      <trkpt lat="44.77372" lon="5.05713">
        <ele>543</ele>
        <time>2020-02-07T11:06:05.000Z</time>
      </trkpt>
      <trkpt lat="44.77373" lon="5.05715">
        <ele>543</ele>
        <time>2020-02-07T11:06:06.000Z</time>
      </trkpt>
      <trkpt lat="44.77373" lon="5.05716">
        <ele>543</ele>
        <time>2020-02-07T11:06:07.000Z</time>
      </trkpt>
      <trkpt lat="44.77374" lon="5.05718">
        <ele>543</ele>
        <time>2020-02-07T11:06:08.000Z</time>
      </trkpt>
      <trkpt lat="44.77374" lon="5.0572">
        <ele>543</ele>
        <time>2020-02-07T11:06:09.000Z</time>
      </trkpt>
      <trkpt lat="44.77375" lon="5.05721">
        <ele>543</ele>
        <time>2020-02-07T11:06:10.000Z</time>
      </trkpt>
      <trkpt lat="44.77375" lon="5.05723">
        <ele>544</ele>
        <time>2020-02-07T11:06:11.000Z</time>
      </trkpt>
      <trkpt lat="44.77376" lon="5.05724">
        <ele>544</ele>
        <time>2020-02-07T11:06:12.000Z</time>
      </trkpt>
      <trkpt lat="44.77376" lon="5.05726">
        <ele>544</ele>
        <time>2020-02-07T11:06:13.000Z</time>
      </trkpt>
      <trkpt lat="44.77377" lon="5.05728">
        <ele>544</ele>
        <time>2020-02-07T11:06:14.000Z</time>
      </trkpt>
      <trkpt lat="44.77377" lon="5.05729">
        <ele>544</ele>
        <time>2020-02-07T11:06:15.000Z</time>
      </trkpt>
      <trkpt lat="44.77377" lon="5.05731">
        <ele>544</ele>
        <time>2020-02-07T11:06:16.000Z</time>
      </trkpt>
      <trkpt lat="44.77378" lon="5.05733">
        <ele>544</ele>
        <time>2020-02-07T11:06:17.000Z</time>
      </trkpt>
      <trkpt lat="44.77378" lon="5.05734">
        <ele>544</ele>
        <time>2020-02-07T11:06:18.000Z</time>
      </trkpt>
      <trkpt lat="44.77379" lon="5.05736">
        <ele>544</ele>
        <time>2020-02-07T11:06:19.000Z</time>
      </trkpt>
      <trkpt lat="44.7738" lon="5.05737">
        <ele>544</ele>
        <time>2020-02-07T11:06:20.000Z</time>
      </trkpt>
      <trkpt lat="44.77381" lon="5.05739">
        <ele>544</ele>
        <time>2020-02-07T11:06:21.000Z</time>
      </trkpt>
      <trkpt lat="44.77381" lon="5.0574">
        <ele>544</ele>
        <time>2020-02-07T11:06:22.000Z</time>
      </trkpt>
      <trkpt lat="44.77382" lon="5.05742">
        <ele>544</ele>
        <time>2020-02-07T11:06:23.000Z</time>
      </trkpt>
      <trkpt lat="44.77383" lon="5.05743">
        <ele>544</ele>
        <time>2020-02-07T11:06:24.000Z</time>
      </trkpt>
      <trkpt lat="44.77383" lon="5.05744">
        <ele>544</ele>
        <time>2020-02-07T11:06:25.000Z</time>
      </trkpt>
      <trkpt lat="44.77384" lon="5.05745">
        <ele>544</ele>
        <time>2020-02-07T11:06:26.000Z</time>
      </trkpt>
      <trkpt lat="44.77385" lon="5.05747">
        <ele>544</ele>
        <time>2020-02-07T11:06:27.000Z</time>
      </trkpt>
      <trkpt lat="44.77386" lon="5.05748">
        <ele>544</ele>
        <time>2020-02-07T11:06:28.000Z</time>
      </trkpt>
      <trkpt lat="44.77387" lon="5.0575">
        <ele>544</ele>
        <time>2020-02-07T11:06:29.000Z</time>
      </trkpt>
      <trkpt lat="44.77388" lon="5.05752">
        <ele>544</ele>
        <time>2020-02-07T11:06:30.000Z</time>
      </trkpt>
      <trkpt lat="44.77388" lon="5.05753">
        <ele>544</ele>
        <time>2020-02-07T11:06:31.000Z</time>
      </trkpt>
      <trkpt lat="44.77389" lon="5.05754">
        <ele>544</ele>
        <time>2020-02-07T11:06:32.000Z</time>
      </trkpt>
      <trkpt lat="44.7739" lon="5.05755">
        <ele>544</ele>
        <time>2020-02-07T11:06:33.000Z</time>
      </trkpt>
      <trkpt lat="44.77391" lon="5.05756">
        <ele>544</ele>
        <time>2020-02-07T11:06:34.000Z</time>
      </trkpt>
      <trkpt lat="44.77392" lon="5.05758">
        <ele>544</ele>
        <time>2020-02-07T11:06:35.000Z</time>
      </trkpt>
      <trkpt lat="44.77393" lon="5.05759">
        <ele>544</ele>
        <time>2020-02-07T11:06:36.000Z</time>
      </trkpt>
      <trkpt lat="44.77394" lon="5.05761">
        <ele>544</ele>
        <time>2020-02-07T11:06:37.000Z</time>
      </trkpt>
      <trkpt lat="44.77395" lon="5.05763">
        <ele>544</ele>
        <time>2020-02-07T11:06:38.000Z</time>
      </trkpt>
      <trkpt lat="44.77395" lon="5.05764">
        <ele>545</ele>
        <time>2020-02-07T11:06:39.000Z</time>
      </trkpt>
      <trkpt lat="44.77395" lon="5.05765">
        <ele>545</ele>
        <time>2020-02-07T11:06:40.000Z</time>
      </trkpt>
      <trkpt lat="44.77396" lon="5.05766">
        <ele>545</ele>
        <time>2020-02-07T11:06:41.000Z</time>
      </trkpt>
      <trkpt lat="44.77397" lon="5.05767">
        <ele>545</ele>
        <time>2020-02-07T11:06:42.000Z</time>
      </trkpt>
      <trkpt lat="44.77397" lon="5.05768">
        <ele>545</ele>
        <time>2020-02-07T11:06:43.000Z</time>
      </trkpt>
      <trkpt lat="44.77398" lon="5.0577">
        <ele>545</ele>
        <time>2020-02-07T11:06:44.000Z</time>
      </trkpt>
      <trkpt lat="44.77398" lon="5.05771">
        <ele>545</ele>
        <time>2020-02-07T11:06:45.000Z</time>
      </trkpt>
      <trkpt lat="44.77399" lon="5.05772">
        <ele>545</ele>
        <time>2020-02-07T11:06:46.000Z</time>
      </trkpt>
      <trkpt lat="44.77399" lon="5.05774">
        <ele>545</ele>
        <time>2020-02-07T11:06:47.000Z</time>
      </trkpt>
      <trkpt lat="44.774" lon="5.05775">
        <ele>545</ele>
        <time>2020-02-07T11:06:48.000Z</time>
      </trkpt>
      <trkpt lat="44.77401" lon="5.05776">
        <ele>545</ele>
        <time>2020-02-07T11:06:49.000Z</time>
      </trkpt>
      <trkpt lat="44.77401" lon="5.05777">
        <ele>545</ele>
        <time>2020-02-07T11:06:50.000Z</time>
      </trkpt>
      <trkpt lat="44.77402" lon="5.05779">
        <ele>545</ele>
        <time>2020-02-07T11:06:51.000Z</time>
      </trkpt>
      <trkpt lat="44.77403" lon="5.0578">
        <ele>545</ele>
        <time>2020-02-07T11:06:52.000Z</time>
      </trkpt>
      <trkpt lat="44.77404" lon="5.05782">
        <ele>545</ele>
        <time>2020-02-07T11:06:53.000Z</time>
      </trkpt>
      <trkpt lat="44.77405" lon="5.05784">
        <ele>544</ele>
        <time>2020-02-07T11:06:54.000Z</time>
      </trkpt>
      <trkpt lat="44.77405" lon="5.05786">
        <ele>544</ele>
        <time>2020-02-07T11:06:55.000Z</time>
      </trkpt>
      <trkpt lat="44.77406" lon="5.05788">
        <ele>544</ele>
        <time>2020-02-07T11:06:56.000Z</time>
      </trkpt>
      <trkpt lat="44.77407" lon="5.0579">
        <ele>544</ele>
        <time>2020-02-07T11:06:57.000Z</time>
      </trkpt>
      <trkpt lat="44.77408" lon="5.05792">
        <ele>544</ele>
        <time>2020-02-07T11:06:58.000Z</time>
      </trkpt>
      <trkpt lat="44.77409" lon="5.05793">
        <ele>544</ele>
        <time>2020-02-07T11:06:59.000Z</time>
      </trkpt>
      <trkpt lat="44.7741" lon="5.05795">
        <ele>544</ele>
        <time>2020-02-07T11:07:00.000Z</time>
      </trkpt>
      <trkpt lat="44.7741" lon="5.05797">
        <ele>544</ele>
        <time>2020-02-07T11:07:01.000Z</time>
      </trkpt>
      <trkpt lat="44.77411" lon="5.05798">
        <ele>544</ele>
        <time>2020-02-07T11:07:02.000Z</time>
      </trkpt>
      <trkpt lat="44.77412" lon="5.05799">
        <ele>544</ele>
        <time>2020-02-07T11:07:03.000Z</time>
      </trkpt>
      <trkpt lat="44.77414" lon="5.05799">
        <ele>544</ele>
        <time>2020-02-07T11:07:04.000Z</time>
      </trkpt>
      <trkpt lat="44.77415" lon="5.058">
        <ele>544</ele>
        <time>2020-02-07T11:07:05.000Z</time>
      </trkpt>
      <trkpt lat="44.77416" lon="5.05801">
        <ele>544</ele>
        <time>2020-02-07T11:07:06.000Z</time>
      </trkpt>
      <trkpt lat="44.77418" lon="5.05801">
        <ele>544</ele>
        <time>2020-02-07T11:07:07.000Z</time>
      </trkpt>
      <trkpt lat="44.77419" lon="5.05802">
        <ele>544</ele>
        <time>2020-02-07T11:07:08.000Z</time>
      </trkpt>
      <trkpt lat="44.7742" lon="5.05803">
        <ele>544</ele>
        <time>2020-02-07T11:07:09.000Z</time>
      </trkpt>
      <trkpt lat="44.7742" lon="5.05804">
        <ele>544</ele>
        <time>2020-02-07T11:07:10.000Z</time>
      </trkpt>
      <trkpt lat="44.77421" lon="5.05805">
        <ele>544</ele>
        <time>2020-02-07T11:07:11.000Z</time>
      </trkpt>
      <trkpt lat="44.77422" lon="5.05806">
        <ele>544</ele>
        <time>2020-02-07T11:07:12.000Z</time>
      </trkpt>
      <trkpt lat="44.77423" lon="5.05807">
        <ele>544</ele>
        <time>2020-02-07T11:07:13.000Z</time>
      </trkpt>
      <trkpt lat="44.77423" lon="5.05808">
        <ele>544</ele>
        <time>2020-02-07T11:07:14.000Z</time>
      </trkpt>
      <trkpt lat="44.77424" lon="5.05809">
        <ele>544</ele>
        <time>2020-02-07T11:07:15.000Z</time>
      </trkpt>
      <trkpt lat="44.77425" lon="5.05811">
        <ele>544</ele>
        <time>2020-02-07T11:07:16.000Z</time>
      </trkpt>
      <trkpt lat="44.77426" lon="5.05812">
        <ele>544</ele>
        <time>2020-02-07T11:07:17.000Z</time>
      </trkpt>
      <trkpt lat="44.77427" lon="5.05813">
        <ele>544</ele>
        <time>2020-02-07T11:07:18.000Z</time>
      </trkpt>
      <trkpt lat="44.77427" lon="5.05815">
        <ele>544</ele>
        <time>2020-02-07T11:07:19.000Z</time>
      </trkpt>
      <trkpt lat="44.77428" lon="5.05816">
        <ele>544</ele>
        <time>2020-02-07T11:07:20.000Z</time>
      </trkpt>
      <trkpt lat="44.77429" lon="5.05818">
        <ele>544</ele>
        <time>2020-02-07T11:07:21.000Z</time>
      </trkpt>
      <trkpt lat="44.7743" lon="5.05819">
        <ele>543</ele>
        <time>2020-02-07T11:07:22.000Z</time>
      </trkpt>
      <trkpt lat="44.7743" lon="5.05821">
        <ele>543</ele>
        <time>2020-02-07T11:07:23.000Z</time>
      </trkpt>
      <trkpt lat="44.77431" lon="5.05822">
        <ele>543</ele>
        <time>2020-02-07T11:07:24.000Z</time>
      </trkpt>
      <trkpt lat="44.77432" lon="5.05823">
        <ele>543</ele>
        <time>2020-02-07T11:07:25.000Z</time>
      </trkpt>
      <trkpt lat="44.77432" lon="5.05825">
        <ele>543</ele>
        <time>2020-02-07T11:07:26.000Z</time>
      </trkpt>
      <trkpt lat="44.77433" lon="5.05827">
        <ele>543</ele>
        <time>2020-02-07T11:07:27.000Z</time>
      </trkpt>
      <trkpt lat="44.77434" lon="5.05828">
        <ele>543</ele>
        <time>2020-02-07T11:07:28.000Z</time>
      </trkpt>
      <trkpt lat="44.77434" lon="5.0583">
        <ele>543</ele>
        <time>2020-02-07T11:07:29.000Z</time>
      </trkpt>
      <trkpt lat="44.77435" lon="5.05831">
        <ele>542</ele>
        <time>2020-02-07T11:07:30.000Z</time>
      </trkpt>
      <trkpt lat="44.77435" lon="5.05832">
        <ele>542</ele>
        <time>2020-02-07T11:07:31.000Z</time>
      </trkpt>
      <trkpt lat="44.77436" lon="5.05834">
        <ele>542</ele>
        <time>2020-02-07T11:07:32.000Z</time>
      </trkpt>
      <trkpt lat="44.77436" lon="5.05835">
        <ele>542</ele>
        <time>2020-02-07T11:07:33.000Z</time>
      </trkpt>
      <trkpt lat="44.77437" lon="5.05837">
        <ele>542</ele>
        <time>2020-02-07T11:07:34.000Z</time>
      </trkpt>
      <trkpt lat="44.77438" lon="5.05838">
        <ele>542</ele>
        <time>2020-02-07T11:07:35.000Z</time>
      </trkpt>
      <trkpt lat="44.77439" lon="5.05839">
        <ele>542</ele>
        <time>2020-02-07T11:07:36.000Z</time>
      </trkpt>
      <trkpt lat="44.7744" lon="5.05841">
        <ele>542</ele>
        <time>2020-02-07T11:07:37.000Z</time>
      </trkpt>
      <trkpt lat="44.77441" lon="5.05842">
        <ele>542</ele>
        <time>2020-02-07T11:07:38.000Z</time>
      </trkpt>
      <trkpt lat="44.77442" lon="5.05843">
        <ele>542</ele>
        <time>2020-02-07T11:07:39.000Z</time>
      </trkpt>
      <trkpt lat="44.77442" lon="5.05844">
        <ele>542</ele>
        <time>2020-02-07T11:07:40.000Z</time>
      </trkpt>
      <trkpt lat="44.77443" lon="5.05846">
        <ele>542</ele>
        <time>2020-02-07T11:07:41.000Z</time>
      </trkpt>
      <trkpt lat="44.77444" lon="5.05847">
        <ele>542</ele>
        <time>2020-02-07T11:07:42.000Z</time>
      </trkpt>
      <trkpt lat="44.77445" lon="5.05848">
        <ele>542</ele>
        <time>2020-02-07T11:07:43.000Z</time>
      </trkpt>
      <trkpt lat="44.77446" lon="5.0585">
        <ele>542</ele>
        <time>2020-02-07T11:07:44.000Z</time>
      </trkpt>
      <trkpt lat="44.77447" lon="5.05851">
        <ele>542</ele>
        <time>2020-02-07T11:07:45.000Z</time>
      </trkpt>
      <trkpt lat="44.77448" lon="5.05852">
        <ele>542</ele>
        <time>2020-02-07T11:07:46.000Z</time>
      </trkpt>
      <trkpt lat="44.77449" lon="5.05853">
        <ele>542</ele>
        <time>2020-02-07T11:07:47.000Z</time>
      </trkpt>
      <trkpt lat="44.77449" lon="5.05855">
        <ele>542</ele>
        <time>2020-02-07T11:07:48.000Z</time>
      </trkpt>
      <trkpt lat="44.7745" lon="5.05856">
        <ele>542</ele>
        <time>2020-02-07T11:07:49.000Z</time>
      </trkpt>
      <trkpt lat="44.77451" lon="5.05858">
        <ele>542</ele>
        <time>2020-02-07T11:07:50.000Z</time>
      </trkpt>
      <trkpt lat="44.77451" lon="5.05859">
        <ele>541</ele>
        <time>2020-02-07T11:07:51.000Z</time>
      </trkpt>
      <trkpt lat="44.77451" lon="5.05861">
        <ele>541</ele>
        <time>2020-02-07T11:07:52.000Z</time>
      </trkpt>
      <trkpt lat="44.77452" lon="5.05862">
        <ele>541</ele>
        <time>2020-02-07T11:07:53.000Z</time>
      </trkpt>
      <trkpt lat="44.77452" lon="5.05864">
        <ele>541</ele>
        <time>2020-02-07T11:07:54.000Z</time>
      </trkpt>
      <trkpt lat="44.77453" lon="5.05865">
        <ele>541</ele>
        <time>2020-02-07T11:07:55.000Z</time>
      </trkpt>
      <trkpt lat="44.77453" lon="5.05867">
        <ele>541</ele>
        <time>2020-02-07T11:07:56.000Z</time>
      </trkpt>
      <trkpt lat="44.77454" lon="5.05868">
        <ele>541</ele>
        <time>2020-02-07T11:07:57.000Z</time>
      </trkpt>
      <trkpt lat="44.77455" lon="5.05869">
        <ele>541</ele>
        <time>2020-02-07T11:07:58.000Z</time>
      </trkpt>
      <trkpt lat="44.77456" lon="5.0587">
        <ele>541</ele>
        <time>2020-02-07T11:07:59.000Z</time>
      </trkpt>
      <trkpt lat="44.77457" lon="5.05871">
        <ele>541</ele>
        <time>2020-02-07T11:08:00.000Z</time>
      </trkpt>
      <trkpt lat="44.77458" lon="5.05872">
        <ele>541</ele>
        <time>2020-02-07T11:08:01.000Z</time>
      </trkpt>
      <trkpt lat="44.77459" lon="5.05873">
        <ele>541</ele>
        <time>2020-02-07T11:08:02.000Z</time>
      </trkpt>
      <trkpt lat="44.7746" lon="5.05874">
        <ele>541</ele>
        <time>2020-02-07T11:08:03.000Z</time>
      </trkpt>
      <trkpt lat="44.77461" lon="5.05876">
        <ele>542</ele>
        <time>2020-02-07T11:08:04.000Z</time>
      </trkpt>
      <trkpt lat="44.77462" lon="5.05876">
        <ele>542</ele>
        <time>2020-02-07T11:08:05.000Z</time>
      </trkpt>
      <trkpt lat="44.77463" lon="5.05877">
        <ele>542</ele>
        <time>2020-02-07T11:08:06.000Z</time>
      </trkpt>
      <trkpt lat="44.77464" lon="5.05878">
        <ele>542</ele>
        <time>2020-02-07T11:08:07.000Z</time>
      </trkpt>
      <trkpt lat="44.77464" lon="5.05878">
        <ele>542</ele>
        <time>2020-02-07T11:08:08.000Z</time>
      </trkpt>
      <trkpt lat="44.77465" lon="5.05879">
        <ele>542</ele>
        <time>2020-02-07T11:08:09.000Z</time>
      </trkpt>
      <trkpt lat="44.77466" lon="5.0588">
        <ele>542</ele>
        <time>2020-02-07T11:08:10.000Z</time>
      </trkpt>
      <trkpt lat="44.77467" lon="5.05881">
        <ele>542</ele>
        <time>2020-02-07T11:08:11.000Z</time>
      </trkpt>
      <trkpt lat="44.77468" lon="5.05882">
        <ele>542</ele>
        <time>2020-02-07T11:08:12.000Z</time>
      </trkpt>
      <trkpt lat="44.77468" lon="5.05883">
        <ele>542</ele>
        <time>2020-02-07T11:08:13.000Z</time>
      </trkpt>
      <trkpt lat="44.77469" lon="5.05884">
        <ele>542</ele>
        <time>2020-02-07T11:08:14.000Z</time>
      </trkpt>
      <trkpt lat="44.77469" lon="5.05885">
        <ele>542</ele>
        <time>2020-02-07T11:08:15.000Z</time>
      </trkpt>
      <trkpt lat="44.7747" lon="5.05885">
        <ele>542</ele>
        <time>2020-02-07T11:08:16.000Z</time>
      </trkpt>
      <trkpt lat="44.7747" lon="5.05885">
        <ele>543</ele>
        <time>2020-02-07T11:08:17.000Z</time>
      </trkpt>
      <trkpt lat="44.77471" lon="5.05886">
        <ele>543</ele>
        <time>2020-02-07T11:08:18.000Z</time>
      </trkpt>
      <trkpt lat="44.77471" lon="5.05886">
        <ele>543</ele>
        <time>2020-02-07T11:08:19.000Z</time>
      </trkpt>
      <trkpt lat="44.77471" lon="5.05886">
        <ele>543</ele>
        <time>2020-02-07T11:08:20.000Z</time>
      </trkpt>
      <trkpt lat="44.77471" lon="5.05886">
        <ele>543</ele>
        <time>2020-02-07T11:08:21.000Z</time>
      </trkpt>
      <trkpt lat="44.77471" lon="5.05887">
        <ele>543</ele>
        <time>2020-02-07T11:08:22.000Z</time>
      </trkpt>
      <trkpt lat="44.77471" lon="5.05887">
        <ele>543</ele>
        <time>2020-02-07T11:08:23.000Z</time>
      </trkpt>
      <trkpt lat="44.77471" lon="5.05887">
        <ele>543</ele>
        <time>2020-02-07T11:08:24.000Z</time>
      </trkpt>
      <trkpt lat="44.77471" lon="5.05887">
        <ele>543</ele>
        <time>2020-02-07T11:08:25.000Z</time>
      </trkpt>
      <trkpt lat="44.77471" lon="5.05887">
        <ele>543</ele>
        <time>2020-02-07T11:08:26.000Z</time>
      </trkpt>
      <trkpt lat="44.77471" lon="5.05888">
        <ele>543</ele>
        <time>2020-02-07T11:08:27.000Z</time>
      </trkpt>
      <trkpt lat="44.77472" lon="5.05888">
        <ele>543</ele>
        <time>2020-02-07T11:08:28.000Z</time>
      </trkpt>
      <trkpt lat="44.77472" lon="5.05888">
        <ele>543</ele>
        <time>2020-02-07T11:08:29.000Z</time>
      </trkpt>
      <trkpt lat="44.77472" lon="5.05888">
        <ele>543</ele>
        <time>2020-02-07T11:08:30.000Z</time>
      </trkpt>
      <trkpt lat="44.77472" lon="5.05888">
        <ele>543</ele>
        <time>2020-02-07T11:08:31.000Z</time>
      </trkpt>
      <trkpt lat="44.77472" lon="5.05888">
        <ele>543</ele>
        <time>2020-02-07T11:08:32.000Z</time>
      </trkpt>
      <trkpt lat="44.77472" lon="5.05889">
        <ele>543</ele>
        <time>2020-02-07T11:08:33.000Z</time>
      </trkpt>
      <trkpt lat="44.77472" lon="5.05889">
        <ele>543</ele>
        <time>2020-02-07T11:08:34.000Z</time>
      </trkpt>
      <trkpt lat="44.77472" lon="5.05889">
        <ele>543</ele>
        <time>2020-02-07T11:08:35.000Z</time>
      </trkpt>
      <trkpt lat="44.77472" lon="5.05889">
        <ele>543</ele>
        <time>2020-02-07T11:08:36.000Z</time>
      </trkpt>
      <trkpt lat="44.77472" lon="5.05889">
        <ele>543</ele>
        <time>2020-02-07T11:08:37.000Z</time>
      </trkpt>
      <trkpt lat="44.77472" lon="5.05889">
        <ele>543</ele>
        <time>2020-02-07T11:08:38.000Z</time>
      </trkpt>
      <trkpt lat="44.77472" lon="5.05889">
        <ele>543</ele>
        <time>2020-02-07T11:08:39.000Z</time>
      </trkpt>
      <trkpt lat="44.77472" lon="5.0589">
        <ele>543</ele>
        <time>2020-02-07T11:08:40.000Z</time>
      </trkpt>
      <trkpt lat="44.77473" lon="5.0589">
        <ele>543</ele>
        <time>2020-02-07T11:08:41.000Z</time>
      </trkpt>
      <trkpt lat="44.77473" lon="5.0589">
        <ele>543</ele>
        <time>2020-02-07T11:08:42.000Z</time>
      </trkpt>
      <trkpt lat="44.77473" lon="5.0589">
        <ele>543</ele>
        <time>2020-02-07T11:08:43.000Z</time>
      </trkpt>
      <trkpt lat="44.77473" lon="5.0589">
        <ele>543</ele>
        <time>2020-02-07T11:08:44.000Z</time>
      </trkpt>
      <trkpt lat="44.77473" lon="5.0589">
        <ele>543</ele>
        <time>2020-02-07T11:08:45.000Z</time>
      </trkpt>
      <trkpt lat="44.77473" lon="5.0589">
        <ele>543</ele>
        <time>2020-02-07T11:08:46.000Z</time>
      </trkpt>
      <trkpt lat="44.77473" lon="5.0589">
        <ele>543</ele>
        <time>2020-02-07T11:08:47.000Z</time>
      </trkpt>
      <trkpt lat="44.77473" lon="5.0589">
        <ele>543</ele>
        <time>2020-02-07T11:08:48.000Z</time>
      </trkpt>
      <trkpt lat="44.77473" lon="5.0589">
        <ele>543</ele>
        <time>2020-02-07T11:08:49.000Z</time>
      </trkpt>
      <trkpt lat="44.77473" lon="5.0589">
        <ele>543</ele>
        <time>2020-02-07T11:08:50.000Z</time>
      </trkpt>
      <trkpt lat="44.77473" lon="5.0589">
        <ele>543</ele>
        <time>2020-02-07T11:08:51.000Z</time>
      </trkpt>
      <trkpt lat="44.77473" lon="5.0589">
        <ele>543</ele>
        <time>2020-02-07T11:08:52.000Z</time>
      </trkpt>
      <trkpt lat="44.77473" lon="5.0589">
        <ele>543</ele>
        <time>2020-02-07T11:08:53.000Z</time>
      </trkpt>
      <trkpt lat="44.77473" lon="5.0589">
        <ele>543</ele>
        <time>2020-02-07T11:08:54.000Z</time>
      </trkpt>
      <trkpt lat="44.77473" lon="5.0589">
        <ele>543</ele>
        <time>2020-02-07T11:08:55.000Z</time>
      </trkpt>
      <trkpt lat="44.77474" lon="5.0589">
        <ele>544</ele>
        <time>2020-02-07T11:08:56.000Z</time>
      </trkpt>
      <trkpt lat="44.77474" lon="5.0589">
        <ele>544</ele>
        <time>2020-02-07T11:08:57.000Z</time>
      </trkpt>
      <trkpt lat="44.77474" lon="5.05889">
        <ele>544</ele>
        <time>2020-02-07T11:08:58.000Z</time>
      </trkpt>
      <trkpt lat="44.77474" lon="5.05889">
        <ele>544</ele>
        <time>2020-02-07T11:08:59.000Z</time>
      </trkpt>
      <trkpt lat="44.77474" lon="5.0589">
        <ele>544</ele>
        <time>2020-02-07T11:09:00.000Z</time>
      </trkpt>
      <trkpt lat="44.77474" lon="5.0589">
        <ele>544</ele>
        <time>2020-02-07T11:09:01.000Z</time>
      </trkpt>
      <trkpt lat="44.77474" lon="5.0589">
        <ele>544</ele>
        <time>2020-02-07T11:09:02.000Z</time>
      </trkpt>
      <trkpt lat="44.77474" lon="5.0589">
        <ele>544</ele>
        <time>2020-02-07T11:09:03.000Z</time>
      </trkpt>
      <trkpt lat="44.77474" lon="5.05891">
        <ele>545</ele>
        <time>2020-02-07T11:09:04.000Z</time>
      </trkpt>
      <trkpt lat="44.77474" lon="5.05891">
        <ele>545</ele>
        <time>2020-02-07T11:09:05.000Z</time>
      </trkpt>
      <trkpt lat="44.77474" lon="5.05891">
        <ele>545</ele>
        <time>2020-02-07T11:09:06.000Z</time>
      </trkpt>
      <trkpt lat="44.77474" lon="5.05891">
        <ele>545</ele>
        <time>2020-02-07T11:09:07.000Z</time>
      </trkpt>
      <trkpt lat="44.77474" lon="5.05892">
        <ele>545</ele>
        <time>2020-02-07T11:09:08.000Z</time>
      </trkpt>
      <trkpt lat="44.77474" lon="5.05892">
        <ele>545</ele>
        <time>2020-02-07T11:09:09.000Z</time>
      </trkpt>
      <trkpt lat="44.77474" lon="5.05892">
        <ele>545</ele>
        <time>2020-02-07T11:09:10.000Z</time>
      </trkpt>
      <trkpt lat="44.77474" lon="5.05892">
        <ele>545</ele>
        <time>2020-02-07T11:09:11.000Z</time>
      </trkpt>
      <trkpt lat="44.77474" lon="5.05892">
        <ele>545</ele>
        <time>2020-02-07T11:09:12.000Z</time>
      </trkpt>
      <trkpt lat="44.77474" lon="5.05892">
        <ele>545</ele>
        <time>2020-02-07T11:09:13.000Z</time>
      </trkpt>
      <trkpt lat="44.77474" lon="5.05892">
        <ele>545</ele>
        <time>2020-02-07T11:09:14.000Z</time>
      </trkpt>
      <trkpt lat="44.77474" lon="5.05893">
        <ele>545</ele>
        <time>2020-02-07T11:09:15.000Z</time>
      </trkpt>
      <trkpt lat="44.77474" lon="5.05893">
        <ele>546</ele>
        <time>2020-02-07T11:09:16.000Z</time>
      </trkpt>
      <trkpt lat="44.77474" lon="5.05893">
        <ele>546</ele>
        <time>2020-02-07T11:09:17.000Z</time>
      </trkpt>
      <trkpt lat="44.77474" lon="5.05893">
        <ele>546</ele>
        <time>2020-02-07T11:09:18.000Z</time>
      </trkpt>
      <trkpt lat="44.77474" lon="5.05893">
        <ele>546</ele>
        <time>2020-02-07T11:09:19.000Z</time>
      </trkpt>
      <trkpt lat="44.77474" lon="5.05893">
        <ele>546</ele>
        <time>2020-02-07T11:09:20.000Z</time>
      </trkpt>
      <trkpt lat="44.77474" lon="5.05893">
        <ele>546</ele>
        <time>2020-02-07T11:09:21.000Z</time>
      </trkpt>
      <trkpt lat="44.77473" lon="5.05893">
        <ele>546</ele>
        <time>2020-02-07T11:09:22.000Z</time>
      </trkpt>
      <trkpt lat="44.77473" lon="5.05893">
        <ele>546</ele>
        <time>2020-02-07T11:09:23.000Z</time>
      </trkpt>
      <trkpt lat="44.77473" lon="5.05893">
        <ele>546</ele>
        <time>2020-02-07T11:09:24.000Z</time>
      </trkpt>
      <trkpt lat="44.77473" lon="5.05893">
        <ele>546</ele>
        <time>2020-02-07T11:09:25.000Z</time>
      </trkpt>
      <trkpt lat="44.77473" lon="5.05893">
        <ele>546</ele>
        <time>2020-02-07T11:09:26.000Z</time>
      </trkpt>
      <trkpt lat="44.77473" lon="5.05893">
        <ele>546</ele>
        <time>2020-02-07T11:09:27.000Z</time>
      </trkpt>
      <trkpt lat="44.77473" lon="5.05893">
        <ele>546</ele>
        <time>2020-02-07T11:09:28.000Z</time>
      </trkpt>
      <trkpt lat="44.77473" lon="5.05893">
        <ele>546</ele>
        <time>2020-02-07T11:09:29.000Z</time>
      </trkpt>
      <trkpt lat="44.77473" lon="5.05893">
        <ele>546</ele>
        <time>2020-02-07T11:09:30.000Z</time>
      </trkpt>
      <trkpt lat="44.77473" lon="5.05893">
        <ele>546</ele>
        <time>2020-02-07T11:09:31.000Z</time>
      </trkpt>
      <trkpt lat="44.77473" lon="5.05892">
        <ele>546</ele>
        <time>2020-02-07T11:09:32.000Z</time>
      </trkpt>
      <trkpt lat="44.77473" lon="5.05892">
        <ele>546</ele>
        <time>2020-02-07T11:09:33.000Z</time>
      </trkpt>
      <trkpt lat="44.77473" lon="5.05892">
        <ele>546</ele>
        <time>2020-02-07T11:09:34.000Z</time>
      </trkpt>
      <trkpt lat="44.77473" lon="5.05893">
        <ele>546</ele>
        <time>2020-02-07T11:09:35.000Z</time>
      </trkpt>
      <trkpt lat="44.77473" lon="5.05893">
        <ele>546</ele>
        <time>2020-02-07T11:09:36.000Z</time>
      </trkpt>
      <trkpt lat="44.77473" lon="5.05893">
        <ele>546</ele>
        <time>2020-02-07T11:09:37.000Z</time>
      </trkpt>
      <trkpt lat="44.77473" lon="5.05893">
        <ele>546</ele>
        <time>2020-02-07T11:09:38.000Z</time>
      </trkpt>
      <trkpt lat="44.77473" lon="5.05893">
        <ele>546</ele>
        <time>2020-02-07T11:09:39.000Z</time>
      </trkpt>
      <trkpt lat="44.77473" lon="5.05893">
        <ele>546</ele>
        <time>2020-02-07T11:09:40.000Z</time>
      </trkpt>
      <trkpt lat="44.77473" lon="5.05893">
        <ele>545</ele>
        <time>2020-02-07T11:09:41.000Z</time>
      </trkpt>
      <trkpt lat="44.77473" lon="5.05893">
        <ele>545</ele>
        <time>2020-02-07T11:09:42.000Z</time>
      </trkpt>
      <trkpt lat="44.77473" lon="5.05893">
        <ele>545</ele>
        <time>2020-02-07T11:09:43.000Z</time>
      </trkpt>
      <trkpt lat="44.77473" lon="5.05893">
        <ele>545</ele>
        <time>2020-02-07T11:09:44.000Z</time>
      </trkpt>
      <trkpt lat="44.77473" lon="5.05893">
        <ele>545</ele>
        <time>2020-02-07T11:09:45.000Z</time>
      </trkpt>
      <trkpt lat="44.77473" lon="5.05893">
        <ele>545</ele>
        <time>2020-02-07T11:09:46.000Z</time>
      </trkpt>
      <trkpt lat="44.77473" lon="5.05893">
        <ele>545</ele>
        <time>2020-02-07T11:09:47.000Z</time>
      </trkpt>
      <trkpt lat="44.77473" lon="5.05893">
        <ele>545</ele>
        <time>2020-02-07T11:09:48.000Z</time>
      </trkpt>
      <trkpt lat="44.77473" lon="5.05893">
        <ele>545</ele>
        <time>2020-02-07T11:09:49.000Z</time>
      </trkpt>
      <trkpt lat="44.77473" lon="5.05893">
        <ele>545</ele>
        <time>2020-02-07T11:09:50.000Z</time>
      </trkpt>
      <trkpt lat="44.77473" lon="5.05893">
        <ele>545</ele>
        <time>2020-02-07T11:09:51.000Z</time>
      </trkpt>
      <trkpt lat="44.77473" lon="5.05893">
        <ele>545</ele>
        <time>2020-02-07T11:09:52.000Z</time>
      </trkpt>
      <trkpt lat="44.77473" lon="5.05893">
        <ele>545</ele>
        <time>2020-02-07T11:09:53.000Z</time>
      </trkpt>
      <trkpt lat="44.77473" lon="5.05893">
        <ele>545</ele>
        <time>2020-02-07T11:09:54.000Z</time>
      </trkpt>
      <trkpt lat="44.77473" lon="5.05893">
        <ele>545</ele>
        <time>2020-02-07T11:09:55.000Z</time>
      </trkpt>
      <trkpt lat="44.77473" lon="5.05893">
        <ele>545</ele>
        <time>2020-02-07T11:09:56.000Z</time>
      </trkpt>
      <trkpt lat="44.77473" lon="5.05893">
        <ele>545</ele>
        <time>2020-02-07T11:09:57.000Z</time>
      </trkpt>
      <trkpt lat="44.77473" lon="5.05893">
        <ele>545</ele>
        <time>2020-02-07T11:09:58.000Z</time>
      </trkpt>
      <trkpt lat="44.77474" lon="5.05893">
        <ele>545</ele>
        <time>2020-02-07T11:09:59.000Z</time>
      </trkpt>
      <trkpt lat="44.77474" lon="5.05893">
        <ele>545</ele>
        <time>2020-02-07T11:10:00.000Z</time>
      </trkpt>
      <trkpt lat="44.77474" lon="5.05893">
        <ele>545</ele>
        <time>2020-02-07T11:10:01.000Z</time>
      </trkpt>
      <trkpt lat="44.77474" lon="5.05893">
        <ele>545</ele>
        <time>2020-02-07T11:10:02.000Z</time>
      </trkpt>
      <trkpt lat="44.77474" lon="5.05893">
        <ele>545</ele>
        <time>2020-02-07T11:10:03.000Z</time>
      </trkpt>
      <trkpt lat="44.77474" lon="5.05893">
        <ele>545</ele>
        <time>2020-02-07T11:10:04.000Z</time>
      </trkpt>
      <trkpt lat="44.77474" lon="5.05893">
        <ele>545</ele>
        <time>2020-02-07T11:10:05.000Z</time>
      </trkpt>
      <trkpt lat="44.77474" lon="5.05893">
        <ele>545</ele>
        <time>2020-02-07T11:10:06.000Z</time>
      </trkpt>
      <trkpt lat="44.77475" lon="5.05894">
        <ele>545</ele>
        <time>2020-02-07T11:10:07.000Z</time>
      </trkpt>
      <trkpt lat="44.77476" lon="5.05894">
        <ele>545</ele>
        <time>2020-02-07T11:10:08.000Z</time>
      </trkpt>
      <trkpt lat="44.77477" lon="5.05894">
        <ele>545</ele>
        <time>2020-02-07T11:10:09.000Z</time>
      </trkpt>
      <trkpt lat="44.77478" lon="5.05894">
        <ele>545</ele>
        <time>2020-02-07T11:10:10.000Z</time>
      </trkpt>
      <trkpt lat="44.77478" lon="5.05894">
        <ele>545</ele>
        <time>2020-02-07T11:10:11.000Z</time>
      </trkpt>
      <trkpt lat="44.77479" lon="5.05895">
        <ele>545</ele>
        <time>2020-02-07T11:10:12.000Z</time>
      </trkpt>
      <trkpt lat="44.7748" lon="5.05895">
        <ele>545</ele>
        <time>2020-02-07T11:10:13.000Z</time>
      </trkpt>
      <trkpt lat="44.77481" lon="5.05896">
        <ele>545</ele>
        <time>2020-02-07T11:10:14.000Z</time>
      </trkpt>
      <trkpt lat="44.77482" lon="5.05896">
        <ele>545</ele>
        <time>2020-02-07T11:10:15.000Z</time>
      </trkpt>
      <trkpt lat="44.77483" lon="5.05897">
        <ele>545</ele>
        <time>2020-02-07T11:10:16.000Z</time>
      </trkpt>
      <trkpt lat="44.77483" lon="5.05897">
        <ele>545</ele>
        <time>2020-02-07T11:10:17.000Z</time>
      </trkpt>
      <trkpt lat="44.77484" lon="5.05898">
        <ele>545</ele>
        <time>2020-02-07T11:10:18.000Z</time>
      </trkpt>
      <trkpt lat="44.77485" lon="5.05898">
        <ele>545</ele>
        <time>2020-02-07T11:10:19.000Z</time>
      </trkpt>
      <trkpt lat="44.77486" lon="5.05899">
        <ele>545</ele>
        <time>2020-02-07T11:10:20.000Z</time>
      </trkpt>
      <trkpt lat="44.77487" lon="5.05899">
        <ele>545</ele>
        <time>2020-02-07T11:10:21.000Z</time>
      </trkpt>
      <trkpt lat="44.77487" lon="5.059">
        <ele>545</ele>
        <time>2020-02-07T11:10:22.000Z</time>
      </trkpt>
      <trkpt lat="44.77488" lon="5.05901">
        <ele>545</ele>
        <time>2020-02-07T11:10:23.000Z</time>
      </trkpt>
      <trkpt lat="44.77489" lon="5.05901">
        <ele>546</ele>
        <time>2020-02-07T11:10:24.000Z</time>
      </trkpt>
      <trkpt lat="44.7749" lon="5.05902">
        <ele>546</ele>
        <time>2020-02-07T11:10:25.000Z</time>
      </trkpt>
      <trkpt lat="44.77491" lon="5.05902">
        <ele>546</ele>
        <time>2020-02-07T11:10:26.000Z</time>
      </trkpt>
      <trkpt lat="44.77492" lon="5.05902">
        <ele>546</ele>
        <time>2020-02-07T11:10:27.000Z</time>
      </trkpt>
      <trkpt lat="44.77492" lon="5.05902">
        <ele>546</ele>
        <time>2020-02-07T11:10:28.000Z</time>
      </trkpt>
      <trkpt lat="44.77493" lon="5.05903">
        <ele>546</ele>
        <time>2020-02-07T11:10:29.000Z</time>
      </trkpt>
      <trkpt lat="44.77494" lon="5.05903">
        <ele>546</ele>
        <time>2020-02-07T11:10:30.000Z</time>
      </trkpt>
      <trkpt lat="44.77495" lon="5.05904">
        <ele>545</ele>
        <time>2020-02-07T11:10:31.000Z</time>
      </trkpt>
      <trkpt lat="44.77496" lon="5.05904">
        <ele>546</ele>
        <time>2020-02-07T11:10:32.000Z</time>
      </trkpt>
      <trkpt lat="44.77496" lon="5.05904">
        <ele>545</ele>
        <time>2020-02-07T11:10:33.000Z</time>
      </trkpt>
      <trkpt lat="44.77497" lon="5.05904">
        <ele>545</ele>
        <time>2020-02-07T11:10:34.000Z</time>
      </trkpt>
      <trkpt lat="44.77498" lon="5.05905">
        <ele>545</ele>
        <time>2020-02-07T11:10:35.000Z</time>
      </trkpt>
      <trkpt lat="44.77499" lon="5.05906">
        <ele>545</ele>
        <time>2020-02-07T11:10:36.000Z</time>
      </trkpt>
      <trkpt lat="44.775" lon="5.05907">
        <ele>545</ele>
        <time>2020-02-07T11:10:37.000Z</time>
      </trkpt>
      <trkpt lat="44.775" lon="5.05908">
        <ele>545</ele>
        <time>2020-02-07T11:10:38.000Z</time>
      </trkpt>
      <trkpt lat="44.77501" lon="5.05909">
        <ele>545</ele>
        <time>2020-02-07T11:10:39.000Z</time>
      </trkpt>
      <trkpt lat="44.77502" lon="5.0591">
        <ele>545</ele>
        <time>2020-02-07T11:10:40.000Z</time>
      </trkpt>
      <trkpt lat="44.77503" lon="5.05912">
        <ele>545</ele>
        <time>2020-02-07T11:10:41.000Z</time>
      </trkpt>
      <trkpt lat="44.77503" lon="5.05913">
        <ele>545</ele>
        <time>2020-02-07T11:10:42.000Z</time>
      </trkpt>
      <trkpt lat="44.77504" lon="5.05914">
        <ele>545</ele>
        <time>2020-02-07T11:10:43.000Z</time>
      </trkpt>
      <trkpt lat="44.77504" lon="5.05915">
        <ele>544</ele>
        <time>2020-02-07T11:10:44.000Z</time>
      </trkpt>
      <trkpt lat="44.77505" lon="5.05917">
        <ele>544</ele>
        <time>2020-02-07T11:10:45.000Z</time>
      </trkpt>
      <trkpt lat="44.77505" lon="5.05918">
        <ele>544</ele>
        <time>2020-02-07T11:10:46.000Z</time>
      </trkpt>
      <trkpt lat="44.77506" lon="5.0592">
        <ele>544</ele>
        <time>2020-02-07T11:10:47.000Z</time>
      </trkpt>
      <trkpt lat="44.77506" lon="5.05921">
        <ele>544</ele>
        <time>2020-02-07T11:10:48.000Z</time>
      </trkpt>
      <trkpt lat="44.77506" lon="5.05923">
        <ele>544</ele>
        <time>2020-02-07T11:10:49.000Z</time>
      </trkpt>
      <trkpt lat="44.77506" lon="5.05925">
        <ele>544</ele>
        <time>2020-02-07T11:10:50.000Z</time>
      </trkpt>
      <trkpt lat="44.77506" lon="5.05927">
        <ele>544</ele>
        <time>2020-02-07T11:10:51.000Z</time>
      </trkpt>
      <trkpt lat="44.77506" lon="5.05929">
        <ele>545</ele>
        <time>2020-02-07T11:10:52.000Z</time>
      </trkpt>
      <trkpt lat="44.77506" lon="5.05931">
        <ele>545</ele>
        <time>2020-02-07T11:10:53.000Z</time>
      </trkpt>
      <trkpt lat="44.77506" lon="5.05933">
        <ele>545</ele>
        <time>2020-02-07T11:10:54.000Z</time>
      </trkpt>
      <trkpt lat="44.77505" lon="5.05935">
        <ele>545</ele>
        <time>2020-02-07T11:10:55.000Z</time>
      </trkpt>
      <trkpt lat="44.77505" lon="5.05938">
        <ele>545</ele>
        <time>2020-02-07T11:10:56.000Z</time>
      </trkpt>
      <trkpt lat="44.77505" lon="5.0594">
        <ele>545</ele>
        <time>2020-02-07T11:10:57.000Z</time>
      </trkpt>
      <trkpt lat="44.77505" lon="5.05941">
        <ele>546</ele>
        <time>2020-02-07T11:10:58.000Z</time>
      </trkpt>
      <trkpt lat="44.77505" lon="5.05943">
        <ele>546</ele>
        <time>2020-02-07T11:10:59.000Z</time>
      </trkpt>
      <trkpt lat="44.77506" lon="5.05944">
        <ele>546</ele>
        <time>2020-02-07T11:11:00.000Z</time>
      </trkpt>
      <trkpt lat="44.77506" lon="5.05946">
        <ele>546</ele>
        <time>2020-02-07T11:11:01.000Z</time>
      </trkpt>
      <trkpt lat="44.77506" lon="5.05947">
        <ele>546</ele>
        <time>2020-02-07T11:11:02.000Z</time>
      </trkpt>
      <trkpt lat="44.77506" lon="5.05948">
        <ele>547</ele>
        <time>2020-02-07T11:11:03.000Z</time>
      </trkpt>
      <trkpt lat="44.77507" lon="5.05949">
        <ele>547</ele>
        <time>2020-02-07T11:11:04.000Z</time>
      </trkpt>
      <trkpt lat="44.77507" lon="5.0595">
        <ele>547</ele>
        <time>2020-02-07T11:11:05.000Z</time>
      </trkpt>
      <trkpt lat="44.77508" lon="5.05951">
        <ele>547</ele>
        <time>2020-02-07T11:11:06.000Z</time>
      </trkpt>
      <trkpt lat="44.77508" lon="5.05951">
        <ele>547</ele>
        <time>2020-02-07T11:11:07.000Z</time>
      </trkpt>
      <trkpt lat="44.77509" lon="5.05952">
        <ele>547</ele>
        <time>2020-02-07T11:11:08.000Z</time>
      </trkpt>
      <trkpt lat="44.77509" lon="5.05953">
        <ele>548</ele>
        <time>2020-02-07T11:11:09.000Z</time>
      </trkpt>
      <trkpt lat="44.77509" lon="5.05954">
        <ele>548</ele>
        <time>2020-02-07T11:11:10.000Z</time>
      </trkpt>
      <trkpt lat="44.7751" lon="5.05956">
        <ele>548</ele>
        <time>2020-02-07T11:11:11.000Z</time>
      </trkpt>
      <trkpt lat="44.7751" lon="5.05957">
        <ele>548</ele>
        <time>2020-02-07T11:11:12.000Z</time>
      </trkpt>
      <trkpt lat="44.7751" lon="5.05958">
        <ele>548</ele>
        <time>2020-02-07T11:11:13.000Z</time>
      </trkpt>
      <trkpt lat="44.7751" lon="5.0596">
        <ele>548</ele>
        <time>2020-02-07T11:11:14.000Z</time>
      </trkpt>
      <trkpt lat="44.7751" lon="5.05961">
        <ele>548</ele>
        <time>2020-02-07T11:11:15.000Z</time>
      </trkpt>
      <trkpt lat="44.7751" lon="5.05963">
        <ele>548</ele>
        <time>2020-02-07T11:11:16.000Z</time>
      </trkpt>
      <trkpt lat="44.7751" lon="5.05965">
        <ele>548</ele>
        <time>2020-02-07T11:11:17.000Z</time>
      </trkpt>
      <trkpt lat="44.7751" lon="5.05966">
        <ele>549</ele>
        <time>2020-02-07T11:11:18.000Z</time>
      </trkpt>
      <trkpt lat="44.7751" lon="5.05967">
        <ele>549</ele>
        <time>2020-02-07T11:11:19.000Z</time>
      </trkpt>
      <trkpt lat="44.7751" lon="5.05969">
        <ele>549</ele>
        <time>2020-02-07T11:11:20.000Z</time>
      </trkpt>
      <trkpt lat="44.7751" lon="5.05971">
        <ele>549</ele>
        <time>2020-02-07T11:11:21.000Z</time>
      </trkpt>
      <trkpt lat="44.7751" lon="5.05973">
        <ele>549</ele>
        <time>2020-02-07T11:11:22.000Z</time>
      </trkpt>
      <trkpt lat="44.7751" lon="5.05975">
        <ele>549</ele>
        <time>2020-02-07T11:11:23.000Z</time>
      </trkpt>
      <trkpt lat="44.7751" lon="5.05976">
        <ele>550</ele>
        <time>2020-02-07T11:11:24.000Z</time>
      </trkpt>
      <trkpt lat="44.7751" lon="5.05978">
        <ele>550</ele>
        <time>2020-02-07T11:11:25.000Z</time>
      </trkpt>
      <trkpt lat="44.7751" lon="5.05979">
        <ele>550</ele>
        <time>2020-02-07T11:11:26.000Z</time>
      </trkpt>
      <trkpt lat="44.7751" lon="5.0598">
        <ele>550</ele>
        <time>2020-02-07T11:11:27.000Z</time>
      </trkpt>
      <trkpt lat="44.77511" lon="5.05982">
        <ele>550</ele>
        <time>2020-02-07T11:11:28.000Z</time>
      </trkpt>
      <trkpt lat="44.77511" lon="5.05983">
        <ele>550</ele>
        <time>2020-02-07T11:11:29.000Z</time>
      </trkpt>
      <trkpt lat="44.77511" lon="5.05984">
        <ele>550</ele>
        <time>2020-02-07T11:11:30.000Z</time>
      </trkpt>
      <trkpt lat="44.77511" lon="5.05986">
        <ele>550</ele>
        <time>2020-02-07T11:11:31.000Z</time>
      </trkpt>
      <trkpt lat="44.77512" lon="5.05987">
        <ele>550</ele>
        <time>2020-02-07T11:11:32.000Z</time>
      </trkpt>
      <trkpt lat="44.77512" lon="5.05989">
        <ele>550</ele>
        <time>2020-02-07T11:11:33.000Z</time>
      </trkpt>
      <trkpt lat="44.77512" lon="5.0599">
        <ele>550</ele>
        <time>2020-02-07T11:11:34.000Z</time>
      </trkpt>
      <trkpt lat="44.77513" lon="5.05991">
        <ele>550</ele>
        <time>2020-02-07T11:11:35.000Z</time>
      </trkpt>
      <trkpt lat="44.77513" lon="5.05992">
        <ele>550</ele>
        <time>2020-02-07T11:11:36.000Z</time>
      </trkpt>
      <trkpt lat="44.77514" lon="5.05992">
        <ele>550</ele>
        <time>2020-02-07T11:11:37.000Z</time>
      </trkpt>
      <trkpt lat="44.77514" lon="5.05993">
        <ele>550</ele>
        <time>2020-02-07T11:11:38.000Z</time>
      </trkpt>
      <trkpt lat="44.77515" lon="5.05993">
        <ele>550</ele>
        <time>2020-02-07T11:11:39.000Z</time>
      </trkpt>
      <trkpt lat="44.77515" lon="5.05994">
        <ele>550</ele>
        <time>2020-02-07T11:11:40.000Z</time>
      </trkpt>
      <trkpt lat="44.77516" lon="5.05995">
        <ele>550</ele>
        <time>2020-02-07T11:11:41.000Z</time>
      </trkpt>
      <trkpt lat="44.77516" lon="5.05995">
        <ele>550</ele>
        <time>2020-02-07T11:11:42.000Z</time>
      </trkpt>
      <trkpt lat="44.77516" lon="5.05996">
        <ele>551</ele>
        <time>2020-02-07T11:11:43.000Z</time>
      </trkpt>
      <trkpt lat="44.77516" lon="5.05997">
        <ele>551</ele>
        <time>2020-02-07T11:11:44.000Z</time>
      </trkpt>
      <trkpt lat="44.77516" lon="5.05998">
        <ele>551</ele>
        <time>2020-02-07T11:11:45.000Z</time>
      </trkpt>
      <trkpt lat="44.77516" lon="5.06">
        <ele>551</ele>
        <time>2020-02-07T11:11:46.000Z</time>
      </trkpt>
      <trkpt lat="44.77516" lon="5.06001">
        <ele>551</ele>
        <time>2020-02-07T11:11:47.000Z</time>
      </trkpt>
      <trkpt lat="44.77516" lon="5.06002">
        <ele>551</ele>
        <time>2020-02-07T11:11:48.000Z</time>
      </trkpt>
      <trkpt lat="44.77517" lon="5.06003">
        <ele>551</ele>
        <time>2020-02-07T11:11:49.000Z</time>
      </trkpt>
      <trkpt lat="44.77517" lon="5.06004">
        <ele>551</ele>
        <time>2020-02-07T11:11:50.000Z</time>
      </trkpt>
      <trkpt lat="44.77517" lon="5.06005">
        <ele>551</ele>
        <time>2020-02-07T11:11:51.000Z</time>
      </trkpt>
      <trkpt lat="44.77517" lon="5.06006">
        <ele>552</ele>
        <time>2020-02-07T11:11:52.000Z</time>
      </trkpt>
      <trkpt lat="44.77517" lon="5.06007">
        <ele>552</ele>
        <time>2020-02-07T11:11:53.000Z</time>
      </trkpt>
      <trkpt lat="44.77518" lon="5.06009">
        <ele>552</ele>
        <time>2020-02-07T11:11:54.000Z</time>
      </trkpt>
      <trkpt lat="44.77518" lon="5.0601">
        <ele>552</ele>
        <time>2020-02-07T11:11:55.000Z</time>
      </trkpt>
      <trkpt lat="44.77518" lon="5.06011">
        <ele>552</ele>
        <time>2020-02-07T11:11:56.000Z</time>
      </trkpt>
      <trkpt lat="44.77519" lon="5.06012">
        <ele>552</ele>
        <time>2020-02-07T11:11:57.000Z</time>
      </trkpt>
      <trkpt lat="44.77519" lon="5.06013">
        <ele>553</ele>
        <time>2020-02-07T11:11:58.000Z</time>
      </trkpt>
      <trkpt lat="44.7752" lon="5.06014">
        <ele>553</ele>
        <time>2020-02-07T11:11:59.000Z</time>
      </trkpt>
      <trkpt lat="44.7752" lon="5.06015">
        <ele>553</ele>
        <time>2020-02-07T11:12:00.000Z</time>
      </trkpt>
      <trkpt lat="44.7752" lon="5.06017">
        <ele>553</ele>
        <time>2020-02-07T11:12:01.000Z</time>
      </trkpt>
      <trkpt lat="44.7752" lon="5.06019">
        <ele>554</ele>
        <time>2020-02-07T11:12:02.000Z</time>
      </trkpt>
      <trkpt lat="44.7752" lon="5.06021">
        <ele>554</ele>
        <time>2020-02-07T11:12:03.000Z</time>
      </trkpt>
      <trkpt lat="44.7752" lon="5.06023">
        <ele>554</ele>
        <time>2020-02-07T11:12:04.000Z</time>
      </trkpt>
      <trkpt lat="44.7752" lon="5.06025">
        <ele>554</ele>
        <time>2020-02-07T11:12:05.000Z</time>
      </trkpt>
      <trkpt lat="44.77519" lon="5.06026">
        <ele>554</ele>
        <time>2020-02-07T11:12:06.000Z</time>
      </trkpt>
      <trkpt lat="44.7752" lon="5.06027">
        <ele>555</ele>
        <time>2020-02-07T11:12:07.000Z</time>
      </trkpt>
      <trkpt lat="44.7752" lon="5.06028">
        <ele>555</ele>
        <time>2020-02-07T11:12:08.000Z</time>
      </trkpt>
      <trkpt lat="44.7752" lon="5.0603">
        <ele>555</ele>
        <time>2020-02-07T11:12:09.000Z</time>
      </trkpt>
      <trkpt lat="44.7752" lon="5.06031">
        <ele>555</ele>
        <time>2020-02-07T11:12:10.000Z</time>
      </trkpt>
      <trkpt lat="44.7752" lon="5.06032">
        <ele>555</ele>
        <time>2020-02-07T11:12:11.000Z</time>
      </trkpt>
      <trkpt lat="44.77521" lon="5.06033">
        <ele>556</ele>
        <time>2020-02-07T11:12:12.000Z</time>
      </trkpt>
      <trkpt lat="44.77521" lon="5.06034">
        <ele>556</ele>
        <time>2020-02-07T11:12:13.000Z</time>
      </trkpt>
      <trkpt lat="44.77521" lon="5.06034">
        <ele>556</ele>
        <time>2020-02-07T11:12:14.000Z</time>
      </trkpt>
      <trkpt lat="44.77522" lon="5.06035">
        <ele>556</ele>
        <time>2020-02-07T11:12:15.000Z</time>
      </trkpt>
      <trkpt lat="44.77522" lon="5.06036">
        <ele>556</ele>
        <time>2020-02-07T11:12:16.000Z</time>
      </trkpt>
      <trkpt lat="44.77522" lon="5.06036">
        <ele>557</ele>
        <time>2020-02-07T11:12:17.000Z</time>
      </trkpt>
      <trkpt lat="44.77523" lon="5.06037">
        <ele>557</ele>
        <time>2020-02-07T11:12:18.000Z</time>
      </trkpt>
      <trkpt lat="44.77523" lon="5.06037">
        <ele>557</ele>
        <time>2020-02-07T11:12:19.000Z</time>
      </trkpt>
      <trkpt lat="44.77523" lon="5.06038">
        <ele>557</ele>
        <time>2020-02-07T11:12:20.000Z</time>
      </trkpt>
      <trkpt lat="44.77524" lon="5.06038">
        <ele>557</ele>
        <time>2020-02-07T11:12:21.000Z</time>
      </trkpt>
      <trkpt lat="44.77524" lon="5.06039">
        <ele>557</ele>
        <time>2020-02-07T11:12:22.000Z</time>
      </trkpt>
      <trkpt lat="44.77524" lon="5.0604">
        <ele>557</ele>
        <time>2020-02-07T11:12:23.000Z</time>
      </trkpt>
      <trkpt lat="44.77525" lon="5.06041">
        <ele>557</ele>
        <time>2020-02-07T11:12:24.000Z</time>
      </trkpt>
      <trkpt lat="44.77525" lon="5.06042">
        <ele>557</ele>
        <time>2020-02-07T11:12:25.000Z</time>
      </trkpt>
      <trkpt lat="44.77526" lon="5.06043">
        <ele>558</ele>
        <time>2020-02-07T11:12:26.000Z</time>
      </trkpt>
      <trkpt lat="44.77527" lon="5.06044">
        <ele>558</ele>
        <time>2020-02-07T11:12:27.000Z</time>
      </trkpt>
      <trkpt lat="44.77527" lon="5.06045">
        <ele>558</ele>
        <time>2020-02-07T11:12:28.000Z</time>
      </trkpt>
      <trkpt lat="44.77527" lon="5.06045">
        <ele>558</ele>
        <time>2020-02-07T11:12:29.000Z</time>
      </trkpt>
      <trkpt lat="44.77528" lon="5.06046">
        <ele>558</ele>
        <time>2020-02-07T11:12:30.000Z</time>
      </trkpt>
      <trkpt lat="44.77528" lon="5.06047">
        <ele>558</ele>
        <time>2020-02-07T11:12:31.000Z</time>
      </trkpt>
      <trkpt lat="44.77529" lon="5.06048">
        <ele>558</ele>
        <time>2020-02-07T11:12:32.000Z</time>
      </trkpt>
      <trkpt lat="44.77529" lon="5.06049">
        <ele>558</ele>
        <time>2020-02-07T11:12:33.000Z</time>
      </trkpt>
      <trkpt lat="44.77529" lon="5.06051">
        <ele>558</ele>
        <time>2020-02-07T11:12:34.000Z</time>
      </trkpt>
      <trkpt lat="44.77529" lon="5.06052">
        <ele>559</ele>
        <time>2020-02-07T11:12:35.000Z</time>
      </trkpt>
      <trkpt lat="44.77529" lon="5.06053">
        <ele>559</ele>
        <time>2020-02-07T11:12:36.000Z</time>
      </trkpt>
      <trkpt lat="44.77529" lon="5.06055">
        <ele>559</ele>
        <time>2020-02-07T11:12:37.000Z</time>
      </trkpt>
      <trkpt lat="44.77529" lon="5.06056">
        <ele>559</ele>
        <time>2020-02-07T11:12:38.000Z</time>
      </trkpt>
      <trkpt lat="44.77529" lon="5.06057">
        <ele>559</ele>
        <time>2020-02-07T11:12:39.000Z</time>
      </trkpt>
      <trkpt lat="44.77529" lon="5.06058">
        <ele>560</ele>
        <time>2020-02-07T11:12:40.000Z</time>
      </trkpt>
      <trkpt lat="44.77529" lon="5.06059">
        <ele>560</ele>
        <time>2020-02-07T11:12:41.000Z</time>
      </trkpt>
      <trkpt lat="44.77529" lon="5.0606">
        <ele>560</ele>
        <time>2020-02-07T11:12:42.000Z</time>
      </trkpt>
      <trkpt lat="44.77529" lon="5.06061">
        <ele>560</ele>
        <time>2020-02-07T11:12:43.000Z</time>
      </trkpt>
      <trkpt lat="44.7753" lon="5.06062">
        <ele>560</ele>
        <time>2020-02-07T11:12:44.000Z</time>
      </trkpt>
      <trkpt lat="44.7753" lon="5.06064">
        <ele>560</ele>
        <time>2020-02-07T11:12:45.000Z</time>
      </trkpt>
      <trkpt lat="44.7753" lon="5.06065">
        <ele>560</ele>
        <time>2020-02-07T11:12:46.000Z</time>
      </trkpt>
      <trkpt lat="44.7753" lon="5.06066">
        <ele>561</ele>
        <time>2020-02-07T11:12:47.000Z</time>
      </trkpt>
      <trkpt lat="44.7753" lon="5.06067">
        <ele>561</ele>
        <time>2020-02-07T11:12:48.000Z</time>
      </trkpt>
      <trkpt lat="44.7753" lon="5.06068">
        <ele>561</ele>
        <time>2020-02-07T11:12:49.000Z</time>
      </trkpt>
      <trkpt lat="44.7753" lon="5.06069">
        <ele>561</ele>
        <time>2020-02-07T11:12:50.000Z</time>
      </trkpt>
      <trkpt lat="44.7753" lon="5.0607">
        <ele>562</ele>
        <time>2020-02-07T11:12:51.000Z</time>
      </trkpt>
      <trkpt lat="44.7753" lon="5.06072">
        <ele>562</ele>
        <time>2020-02-07T11:12:52.000Z</time>
      </trkpt>
      <trkpt lat="44.7753" lon="5.06074">
        <ele>562</ele>
        <time>2020-02-07T11:12:53.000Z</time>
      </trkpt>
      <trkpt lat="44.7753" lon="5.06075">
        <ele>562</ele>
        <time>2020-02-07T11:12:54.000Z</time>
      </trkpt>
      <trkpt lat="44.7753" lon="5.06077">
        <ele>562</ele>
        <time>2020-02-07T11:12:55.000Z</time>
      </trkpt>
      <trkpt lat="44.7753" lon="5.06078">
        <ele>563</ele>
        <time>2020-02-07T11:12:56.000Z</time>
      </trkpt>
      <trkpt lat="44.7753" lon="5.06079">
        <ele>563</ele>
        <time>2020-02-07T11:12:57.000Z</time>
      </trkpt>
      <trkpt lat="44.7753" lon="5.06081">
        <ele>563</ele>
        <time>2020-02-07T11:12:58.000Z</time>
      </trkpt>
      <trkpt lat="44.7753" lon="5.06082">
        <ele>563</ele>
        <time>2020-02-07T11:12:59.000Z</time>
      </trkpt>
      <trkpt lat="44.7753" lon="5.06084">
        <ele>563</ele>
        <time>2020-02-07T11:13:00.000Z</time>
      </trkpt>
      <trkpt lat="44.7753" lon="5.06085">
        <ele>563</ele>
        <time>2020-02-07T11:13:01.000Z</time>
      </trkpt>
      <trkpt lat="44.77529" lon="5.06087">
        <ele>563</ele>
        <time>2020-02-07T11:13:02.000Z</time>
      </trkpt>
      <trkpt lat="44.77529" lon="5.06088">
        <ele>564</ele>
        <time>2020-02-07T11:13:03.000Z</time>
      </trkpt>
      <trkpt lat="44.77529" lon="5.0609">
        <ele>564</ele>
        <time>2020-02-07T11:13:04.000Z</time>
      </trkpt>
      <trkpt lat="44.77529" lon="5.06091">
        <ele>564</ele>
        <time>2020-02-07T11:13:05.000Z</time>
      </trkpt>
      <trkpt lat="44.77529" lon="5.06092">
        <ele>564</ele>
        <time>2020-02-07T11:13:06.000Z</time>
      </trkpt>
      <trkpt lat="44.77529" lon="5.06093">
        <ele>565</ele>
        <time>2020-02-07T11:13:07.000Z</time>
      </trkpt>
      <trkpt lat="44.77528" lon="5.06093">
        <ele>565</ele>
        <time>2020-02-07T11:13:08.000Z</time>
      </trkpt>
      <trkpt lat="44.77528" lon="5.06094">
        <ele>565</ele>
        <time>2020-02-07T11:13:09.000Z</time>
      </trkpt>
      <trkpt lat="44.77529" lon="5.06094">
        <ele>565</ele>
        <time>2020-02-07T11:13:10.000Z</time>
      </trkpt>
      <trkpt lat="44.77529" lon="5.06095">
        <ele>565</ele>
        <time>2020-02-07T11:13:11.000Z</time>
      </trkpt>
      <trkpt lat="44.77529" lon="5.06095">
        <ele>565</ele>
        <time>2020-02-07T11:13:12.000Z</time>
      </trkpt>
      <trkpt lat="44.7753" lon="5.06096">
        <ele>566</ele>
        <time>2020-02-07T11:13:13.000Z</time>
      </trkpt>
      <trkpt lat="44.7753" lon="5.06096">
        <ele>566</ele>
        <time>2020-02-07T11:13:14.000Z</time>
      </trkpt>
      <trkpt lat="44.7753" lon="5.06096">
        <ele>566</ele>
        <time>2020-02-07T11:13:15.000Z</time>
      </trkpt>
      <trkpt lat="44.7753" lon="5.06097">
        <ele>566</ele>
        <time>2020-02-07T11:13:16.000Z</time>
      </trkpt>
      <trkpt lat="44.7753" lon="5.06098">
        <ele>566</ele>
        <time>2020-02-07T11:13:17.000Z</time>
      </trkpt>
      <trkpt lat="44.7753" lon="5.06099">
        <ele>566</ele>
        <time>2020-02-07T11:13:18.000Z</time>
      </trkpt>
      <trkpt lat="44.77531" lon="5.06099">
        <ele>566</ele>
        <time>2020-02-07T11:13:19.000Z</time>
      </trkpt>
      <trkpt lat="44.77531" lon="5.061">
        <ele>566</ele>
        <time>2020-02-07T11:13:20.000Z</time>
      </trkpt>
      <trkpt lat="44.77531" lon="5.06101">
        <ele>566</ele>
        <time>2020-02-07T11:13:21.000Z</time>
      </trkpt>
      <trkpt lat="44.77531" lon="5.06101">
        <ele>567</ele>
        <time>2020-02-07T11:13:22.000Z</time>
      </trkpt>
      <trkpt lat="44.77532" lon="5.06102">
        <ele>567</ele>
        <time>2020-02-07T11:13:23.000Z</time>
      </trkpt>
      <trkpt lat="44.77532" lon="5.06102">
        <ele>567</ele>
        <time>2020-02-07T11:13:24.000Z</time>
      </trkpt>
      <trkpt lat="44.77532" lon="5.06103">
        <ele>567</ele>
        <time>2020-02-07T11:13:25.000Z</time>
      </trkpt>
      <trkpt lat="44.77533" lon="5.06103">
        <ele>567</ele>
        <time>2020-02-07T11:13:26.000Z</time>
      </trkpt>
      <trkpt lat="44.77533" lon="5.06104">
        <ele>567</ele>
        <time>2020-02-07T11:13:27.000Z</time>
      </trkpt>
      <trkpt lat="44.77533" lon="5.06104">
        <ele>567</ele>
        <time>2020-02-07T11:13:28.000Z</time>
      </trkpt>
      <trkpt lat="44.77533" lon="5.06105">
        <ele>567</ele>
        <time>2020-02-07T11:13:29.000Z</time>
      </trkpt>
      <trkpt lat="44.77533" lon="5.06105">
        <ele>567</ele>
        <time>2020-02-07T11:13:30.000Z</time>
      </trkpt>
      <trkpt lat="44.77532" lon="5.06105">
        <ele>568</ele>
        <time>2020-02-07T11:13:31.000Z</time>
      </trkpt>
      <trkpt lat="44.77532" lon="5.06105">
        <ele>568</ele>
        <time>2020-02-07T11:13:32.000Z</time>
      </trkpt>
      <trkpt lat="44.77532" lon="5.06105">
        <ele>568</ele>
        <time>2020-02-07T11:13:33.000Z</time>
      </trkpt>
      <trkpt lat="44.77532" lon="5.06106">
        <ele>569</ele>
        <time>2020-02-07T11:13:34.000Z</time>
      </trkpt>
      <trkpt lat="44.77532" lon="5.06106">
        <ele>569</ele>
        <time>2020-02-07T11:13:35.000Z</time>
      </trkpt>
      <trkpt lat="44.77532" lon="5.06107">
        <ele>569</ele>
        <time>2020-02-07T11:13:36.000Z</time>
      </trkpt>
      <trkpt lat="44.77532" lon="5.06108">
        <ele>569</ele>
        <time>2020-02-07T11:13:37.000Z</time>
      </trkpt>
      <trkpt lat="44.77532" lon="5.06109">
        <ele>569</ele>
        <time>2020-02-07T11:13:38.000Z</time>
      </trkpt>
      <trkpt lat="44.77531" lon="5.0611">
        <ele>569</ele>
        <time>2020-02-07T11:13:39.000Z</time>
      </trkpt>
      <trkpt lat="44.77531" lon="5.06111">
        <ele>570</ele>
        <time>2020-02-07T11:13:40.000Z</time>
      </trkpt>
      <trkpt lat="44.77531" lon="5.06112">
        <ele>570</ele>
        <time>2020-02-07T11:13:41.000Z</time>
      </trkpt>
      <trkpt lat="44.77531" lon="5.06114">
        <ele>570</ele>
        <time>2020-02-07T11:13:42.000Z</time>
      </trkpt>
      <trkpt lat="44.77531" lon="5.06115">
        <ele>570</ele>
        <time>2020-02-07T11:13:43.000Z</time>
      </trkpt>
      <trkpt lat="44.77531" lon="5.06116">
        <ele>571</ele>
        <time>2020-02-07T11:13:44.000Z</time>
      </trkpt>
      <trkpt lat="44.7753" lon="5.06117">
        <ele>571</ele>
        <time>2020-02-07T11:13:45.000Z</time>
      </trkpt>
      <trkpt lat="44.7753" lon="5.06118">
        <ele>571</ele>
        <time>2020-02-07T11:13:46.000Z</time>
      </trkpt>
      <trkpt lat="44.7753" lon="5.06119">
        <ele>571</ele>
        <time>2020-02-07T11:13:47.000Z</time>
      </trkpt>
      <trkpt lat="44.7753" lon="5.06119">
        <ele>571</ele>
        <time>2020-02-07T11:13:48.000Z</time>
      </trkpt>
      <trkpt lat="44.7753" lon="5.0612">
        <ele>571</ele>
        <time>2020-02-07T11:13:49.000Z</time>
      </trkpt>
      <trkpt lat="44.7753" lon="5.06121">
        <ele>571</ele>
        <time>2020-02-07T11:13:50.000Z</time>
      </trkpt>
      <trkpt lat="44.7753" lon="5.06121">
        <ele>572</ele>
        <time>2020-02-07T11:13:51.000Z</time>
      </trkpt>
      <trkpt lat="44.77531" lon="5.06122">
        <ele>572</ele>
        <time>2020-02-07T11:13:52.000Z</time>
      </trkpt>
      <trkpt lat="44.77531" lon="5.06122">
        <ele>572</ele>
        <time>2020-02-07T11:13:53.000Z</time>
      </trkpt>
      <trkpt lat="44.77531" lon="5.06123">
        <ele>572</ele>
        <time>2020-02-07T11:13:54.000Z</time>
      </trkpt>
      <trkpt lat="44.7753" lon="5.06125">
        <ele>572</ele>
        <time>2020-02-07T11:13:55.000Z</time>
      </trkpt>
      <trkpt lat="44.7753" lon="5.06126">
        <ele>572</ele>
        <time>2020-02-07T11:13:56.000Z</time>
      </trkpt>
      <trkpt lat="44.7753" lon="5.06127">
        <ele>573</ele>
        <time>2020-02-07T11:13:57.000Z</time>
      </trkpt>
      <trkpt lat="44.7753" lon="5.06129">
        <ele>573</ele>
        <time>2020-02-07T11:13:58.000Z</time>
      </trkpt>
      <trkpt lat="44.77529" lon="5.0613">
        <ele>573</ele>
        <time>2020-02-07T11:13:59.000Z</time>
      </trkpt>
      <trkpt lat="44.77529" lon="5.06131">
        <ele>573</ele>
        <time>2020-02-07T11:14:00.000Z</time>
      </trkpt>
      <trkpt lat="44.77529" lon="5.06132">
        <ele>574</ele>
        <time>2020-02-07T11:14:01.000Z</time>
      </trkpt>
      <trkpt lat="44.77529" lon="5.06134">
        <ele>574</ele>
        <time>2020-02-07T11:14:02.000Z</time>
      </trkpt>
      <trkpt lat="44.77529" lon="5.06135">
        <ele>574</ele>
        <time>2020-02-07T11:14:03.000Z</time>
      </trkpt>
      <trkpt lat="44.77529" lon="5.06135">
        <ele>574</ele>
        <time>2020-02-07T11:14:04.000Z</time>
      </trkpt>
      <trkpt lat="44.77528" lon="5.06136">
        <ele>575</ele>
        <time>2020-02-07T11:14:05.000Z</time>
      </trkpt>
      <trkpt lat="44.77528" lon="5.06137">
        <ele>575</ele>
        <time>2020-02-07T11:14:06.000Z</time>
      </trkpt>
      <trkpt lat="44.77528" lon="5.06138">
        <ele>575</ele>
        <time>2020-02-07T11:14:07.000Z</time>
      </trkpt>
      <trkpt lat="44.77527" lon="5.06139">
        <ele>575</ele>
        <time>2020-02-07T11:14:08.000Z</time>
      </trkpt>
      <trkpt lat="44.77527" lon="5.0614">
        <ele>576</ele>
        <time>2020-02-07T11:14:09.000Z</time>
      </trkpt>
      <trkpt lat="44.77527" lon="5.06141">
        <ele>576</ele>
        <time>2020-02-07T11:14:10.000Z</time>
      </trkpt>
      <trkpt lat="44.77527" lon="5.06142">
        <ele>576</ele>
        <time>2020-02-07T11:14:11.000Z</time>
      </trkpt>
      <trkpt lat="44.77527" lon="5.06143">
        <ele>576</ele>
        <time>2020-02-07T11:14:12.000Z</time>
      </trkpt>
      <trkpt lat="44.77527" lon="5.06144">
        <ele>576</ele>
        <time>2020-02-07T11:14:13.000Z</time>
      </trkpt>
      <trkpt lat="44.77526" lon="5.06145">
        <ele>577</ele>
        <time>2020-02-07T11:14:14.000Z</time>
      </trkpt>
      <trkpt lat="44.77526" lon="5.06146">
        <ele>577</ele>
        <time>2020-02-07T11:14:15.000Z</time>
      </trkpt>
      <trkpt lat="44.77526" lon="5.06147">
        <ele>577</ele>
        <time>2020-02-07T11:14:16.000Z</time>
      </trkpt>
      <trkpt lat="44.77526" lon="5.06148">
        <ele>577</ele>
        <time>2020-02-07T11:14:17.000Z</time>
      </trkpt>
      <trkpt lat="44.77526" lon="5.0615">
        <ele>578</ele>
        <time>2020-02-07T11:14:18.000Z</time>
      </trkpt>
      <trkpt lat="44.77525" lon="5.06151">
        <ele>578</ele>
        <time>2020-02-07T11:14:19.000Z</time>
      </trkpt>
      <trkpt lat="44.77525" lon="5.06153">
        <ele>578</ele>
        <time>2020-02-07T11:14:20.000Z</time>
      </trkpt>
      <trkpt lat="44.77524" lon="5.06154">
        <ele>578</ele>
        <time>2020-02-07T11:14:21.000Z</time>
      </trkpt>
      <trkpt lat="44.77524" lon="5.06154">
        <ele>579</ele>
        <time>2020-02-07T11:14:22.000Z</time>
      </trkpt>
      <trkpt lat="44.77524" lon="5.06155">
        <ele>579</ele>
        <time>2020-02-07T11:14:23.000Z</time>
      </trkpt>
      <trkpt lat="44.77524" lon="5.06155">
        <ele>579</ele>
        <time>2020-02-07T11:14:24.000Z</time>
      </trkpt>
      <trkpt lat="44.77524" lon="5.06156">
        <ele>579</ele>
        <time>2020-02-07T11:14:25.000Z</time>
      </trkpt>
      <trkpt lat="44.77524" lon="5.06156">
        <ele>580</ele>
        <time>2020-02-07T11:14:26.000Z</time>
      </trkpt>
      <trkpt lat="44.77524" lon="5.06157">
        <ele>580</ele>
        <time>2020-02-07T11:14:27.000Z</time>
      </trkpt>
      <trkpt lat="44.77524" lon="5.06158">
        <ele>580</ele>
        <time>2020-02-07T11:14:28.000Z</time>
      </trkpt>
      <trkpt lat="44.77524" lon="5.06159">
        <ele>580</ele>
        <time>2020-02-07T11:14:29.000Z</time>
      </trkpt>
      <trkpt lat="44.77524" lon="5.0616">
        <ele>580</ele>
        <time>2020-02-07T11:14:30.000Z</time>
      </trkpt>
      <trkpt lat="44.77524" lon="5.06161">
        <ele>581</ele>
        <time>2020-02-07T11:14:31.000Z</time>
      </trkpt>
      <trkpt lat="44.77524" lon="5.06162">
        <ele>581</ele>
        <time>2020-02-07T11:14:32.000Z</time>
      </trkpt>
      <trkpt lat="44.77524" lon="5.06163">
        <ele>581</ele>
        <time>2020-02-07T11:14:33.000Z</time>
      </trkpt>
      <trkpt lat="44.77524" lon="5.06164">
        <ele>581</ele>
        <time>2020-02-07T11:14:34.000Z</time>
      </trkpt>
      <trkpt lat="44.77523" lon="5.06165">
        <ele>581</ele>
        <time>2020-02-07T11:14:35.000Z</time>
      </trkpt>
      <trkpt lat="44.77523" lon="5.06166">
        <ele>582</ele>
        <time>2020-02-07T11:14:36.000Z</time>
      </trkpt>
      <trkpt lat="44.77523" lon="5.06167">
        <ele>582</ele>
        <time>2020-02-07T11:14:37.000Z</time>
      </trkpt>
      <trkpt lat="44.77522" lon="5.06168">
        <ele>582</ele>
        <time>2020-02-07T11:14:38.000Z</time>
      </trkpt>
      <trkpt lat="44.77522" lon="5.06169">
        <ele>583</ele>
        <time>2020-02-07T11:14:39.000Z</time>
      </trkpt>
      <trkpt lat="44.77522" lon="5.06169">
        <ele>583</ele>
        <time>2020-02-07T11:14:40.000Z</time>
      </trkpt>
      <trkpt lat="44.77522" lon="5.0617">
        <ele>584</ele>
        <time>2020-02-07T11:14:41.000Z</time>
      </trkpt>
      <trkpt lat="44.77522" lon="5.06171">
        <ele>584</ele>
        <time>2020-02-07T11:14:42.000Z</time>
      </trkpt>
      <trkpt lat="44.77523" lon="5.06171">
        <ele>584</ele>
        <time>2020-02-07T11:14:43.000Z</time>
      </trkpt>
      <trkpt lat="44.77523" lon="5.06172">
        <ele>584</ele>
        <time>2020-02-07T11:14:44.000Z</time>
      </trkpt>
      <trkpt lat="44.77523" lon="5.06172">
        <ele>585</ele>
        <time>2020-02-07T11:14:45.000Z</time>
      </trkpt>
      <trkpt lat="44.77522" lon="5.06173">
        <ele>585</ele>
        <time>2020-02-07T11:14:46.000Z</time>
      </trkpt>
      <trkpt lat="44.77522" lon="5.06173">
        <ele>585</ele>
        <time>2020-02-07T11:14:47.000Z</time>
      </trkpt>
      <trkpt lat="44.77522" lon="5.06174">
        <ele>585</ele>
        <time>2020-02-07T11:14:48.000Z</time>
      </trkpt>
      <trkpt lat="44.77522" lon="5.06175">
        <ele>585</ele>
        <time>2020-02-07T11:14:49.000Z</time>
      </trkpt>
      <trkpt lat="44.77522" lon="5.06175">
        <ele>586</ele>
        <time>2020-02-07T11:14:50.000Z</time>
      </trkpt>
      <trkpt lat="44.77522" lon="5.06176">
        <ele>586</ele>
        <time>2020-02-07T11:14:51.000Z</time>
      </trkpt>
      <trkpt lat="44.77522" lon="5.06177">
        <ele>586</ele>
        <time>2020-02-07T11:14:52.000Z</time>
      </trkpt>
      <trkpt lat="44.77522" lon="5.06178">
        <ele>586</ele>
        <time>2020-02-07T11:14:53.000Z</time>
      </trkpt>
      <trkpt lat="44.77522" lon="5.06179">
        <ele>586</ele>
        <time>2020-02-07T11:14:54.000Z</time>
      </trkpt>
      <trkpt lat="44.77522" lon="5.0618">
        <ele>587</ele>
        <time>2020-02-07T11:14:55.000Z</time>
      </trkpt>
      <trkpt lat="44.77523" lon="5.0618">
        <ele>587</ele>
        <time>2020-02-07T11:14:56.000Z</time>
      </trkpt>
      <trkpt lat="44.77523" lon="5.06181">
        <ele>587</ele>
        <time>2020-02-07T11:14:57.000Z</time>
      </trkpt>
      <trkpt lat="44.77523" lon="5.06182">
        <ele>587</ele>
        <time>2020-02-07T11:14:58.000Z</time>
      </trkpt>
      <trkpt lat="44.77523" lon="5.06183">
        <ele>588</ele>
        <time>2020-02-07T11:14:59.000Z</time>
      </trkpt>
      <trkpt lat="44.77523" lon="5.06184">
        <ele>588</ele>
        <time>2020-02-07T11:15:00.000Z</time>
      </trkpt>
      <trkpt lat="44.77523" lon="5.06184">
        <ele>588</ele>
        <time>2020-02-07T11:15:01.000Z</time>
      </trkpt>
      <trkpt lat="44.77523" lon="5.06185">
        <ele>588</ele>
        <time>2020-02-07T11:15:02.000Z</time>
      </trkpt>
      <trkpt lat="44.77522" lon="5.06186">
        <ele>588</ele>
        <time>2020-02-07T11:15:03.000Z</time>
      </trkpt>
      <trkpt lat="44.77522" lon="5.06186">
        <ele>588</ele>
        <time>2020-02-07T11:15:04.000Z</time>
      </trkpt>
      <trkpt lat="44.77522" lon="5.06186">
        <ele>588</ele>
        <time>2020-02-07T11:15:05.000Z</time>
      </trkpt>
      <trkpt lat="44.77522" lon="5.06187">
        <ele>588</ele>
        <time>2020-02-07T11:15:06.000Z</time>
      </trkpt>
      <trkpt lat="44.77522" lon="5.06188">
        <ele>588</ele>
        <time>2020-02-07T11:15:07.000Z</time>
      </trkpt>
      <trkpt lat="44.77522" lon="5.06189">
        <ele>588</ele>
        <time>2020-02-07T11:15:08.000Z</time>
      </trkpt>
      <trkpt lat="44.77522" lon="5.0619">
        <ele>589</ele>
        <time>2020-02-07T11:15:09.000Z</time>
      </trkpt>
      <trkpt lat="44.77521" lon="5.06191">
        <ele>589</ele>
        <time>2020-02-07T11:15:10.000Z</time>
      </trkpt>
      <trkpt lat="44.77521" lon="5.06192">
        <ele>589</ele>
        <time>2020-02-07T11:15:11.000Z</time>
      </trkpt>
      <trkpt lat="44.77521" lon="5.06193">
        <ele>589</ele>
        <time>2020-02-07T11:15:12.000Z</time>
      </trkpt>
      <trkpt lat="44.7752" lon="5.06194">
        <ele>589</ele>
        <time>2020-02-07T11:15:13.000Z</time>
      </trkpt>
      <trkpt lat="44.7752" lon="5.06195">
        <ele>589</ele>
        <time>2020-02-07T11:15:14.000Z</time>
      </trkpt>
      <trkpt lat="44.7752" lon="5.06195">
        <ele>589</ele>
        <time>2020-02-07T11:15:15.000Z</time>
      </trkpt>
      <trkpt lat="44.77519" lon="5.06196">
        <ele>589</ele>
        <time>2020-02-07T11:15:16.000Z</time>
      </trkpt>
      <trkpt lat="44.77519" lon="5.06197">
        <ele>589</ele>
        <time>2020-02-07T11:15:17.000Z</time>
      </trkpt>
      <trkpt lat="44.77518" lon="5.06197">
        <ele>589</ele>
        <time>2020-02-07T11:15:18.000Z</time>
      </trkpt>
      <trkpt lat="44.77518" lon="5.06198">
        <ele>590</ele>
        <time>2020-02-07T11:15:19.000Z</time>
      </trkpt>
      <trkpt lat="44.77517" lon="5.06198">
        <ele>590</ele>
        <time>2020-02-07T11:15:20.000Z</time>
      </trkpt>
      <trkpt lat="44.77517" lon="5.06199">
        <ele>590</ele>
        <time>2020-02-07T11:15:21.000Z</time>
      </trkpt>
      <trkpt lat="44.77517" lon="5.06199">
        <ele>590</ele>
        <time>2020-02-07T11:15:22.000Z</time>
      </trkpt>
      <trkpt lat="44.77516" lon="5.062">
        <ele>590</ele>
        <time>2020-02-07T11:15:23.000Z</time>
      </trkpt>
      <trkpt lat="44.77516" lon="5.06201">
        <ele>590</ele>
        <time>2020-02-07T11:15:24.000Z</time>
      </trkpt>
      <trkpt lat="44.77515" lon="5.06201">
        <ele>590</ele>
        <time>2020-02-07T11:15:25.000Z</time>
      </trkpt>
      <trkpt lat="44.77515" lon="5.06203">
        <ele>590</ele>
        <time>2020-02-07T11:15:26.000Z</time>
      </trkpt>
      <trkpt lat="44.77515" lon="5.06203">
        <ele>590</ele>
        <time>2020-02-07T11:15:27.000Z</time>
      </trkpt>
      <trkpt lat="44.77514" lon="5.06204">
        <ele>591</ele>
        <time>2020-02-07T11:15:28.000Z</time>
      </trkpt>
      <trkpt lat="44.77514" lon="5.06205">
        <ele>591</ele>
        <time>2020-02-07T11:15:29.000Z</time>
      </trkpt>
      <trkpt lat="44.77513" lon="5.06206">
        <ele>591</ele>
        <time>2020-02-07T11:15:30.000Z</time>
      </trkpt>
      <trkpt lat="44.77513" lon="5.06207">
        <ele>591</ele>
        <time>2020-02-07T11:15:31.000Z</time>
      </trkpt>
      <trkpt lat="44.77513" lon="5.06208">
        <ele>591</ele>
        <time>2020-02-07T11:15:32.000Z</time>
      </trkpt>
      <trkpt lat="44.77513" lon="5.06208">
        <ele>591</ele>
        <time>2020-02-07T11:15:33.000Z</time>
      </trkpt>
      <trkpt lat="44.77512" lon="5.06208">
        <ele>591</ele>
        <time>2020-02-07T11:15:34.000Z</time>
      </trkpt>
      <trkpt lat="44.77512" lon="5.06209">
        <ele>592</ele>
        <time>2020-02-07T11:15:35.000Z</time>
      </trkpt>
      <trkpt lat="44.77512" lon="5.06209">
        <ele>592</ele>
        <time>2020-02-07T11:15:36.000Z</time>
      </trkpt>
      <trkpt lat="44.77512" lon="5.06209">
        <ele>592</ele>
        <time>2020-02-07T11:15:37.000Z</time>
      </trkpt>
      <trkpt lat="44.77512" lon="5.0621">
        <ele>592</ele>
        <time>2020-02-07T11:15:38.000Z</time>
      </trkpt>
      <trkpt lat="44.77511" lon="5.06211">
        <ele>592</ele>
        <time>2020-02-07T11:15:39.000Z</time>
      </trkpt>
      <trkpt lat="44.77511" lon="5.06212">
        <ele>592</ele>
        <time>2020-02-07T11:15:40.000Z</time>
      </trkpt>
      <trkpt lat="44.7751" lon="5.06213">
        <ele>592</ele>
        <time>2020-02-07T11:15:41.000Z</time>
      </trkpt>
      <trkpt lat="44.7751" lon="5.06213">
        <ele>593</ele>
        <time>2020-02-07T11:15:42.000Z</time>
      </trkpt>
      <trkpt lat="44.7751" lon="5.06213">
        <ele>593</ele>
        <time>2020-02-07T11:15:43.000Z</time>
      </trkpt>
      <trkpt lat="44.7751" lon="5.06214">
        <ele>593</ele>
        <time>2020-02-07T11:15:44.000Z</time>
      </trkpt>
      <trkpt lat="44.77509" lon="5.06214">
        <ele>593</ele>
        <time>2020-02-07T11:15:45.000Z</time>
      </trkpt>
      <trkpt lat="44.77509" lon="5.06215">
        <ele>594</ele>
        <time>2020-02-07T11:15:46.000Z</time>
      </trkpt>
      <trkpt lat="44.77509" lon="5.06215">
        <ele>594</ele>
        <time>2020-02-07T11:15:47.000Z</time>
      </trkpt>
      <trkpt lat="44.77508" lon="5.06216">
        <ele>594</ele>
        <time>2020-02-07T11:15:48.000Z</time>
      </trkpt>
      <trkpt lat="44.77508" lon="5.06216">
        <ele>594</ele>
        <time>2020-02-07T11:15:49.000Z</time>
      </trkpt>
      <trkpt lat="44.77508" lon="5.06217">
        <ele>594</ele>
        <time>2020-02-07T11:15:50.000Z</time>
      </trkpt>
      <trkpt lat="44.77508" lon="5.06218">
        <ele>594</ele>
        <time>2020-02-07T11:15:51.000Z</time>
      </trkpt>
      <trkpt lat="44.77508" lon="5.06219">
        <ele>595</ele>
        <time>2020-02-07T11:15:52.000Z</time>
      </trkpt>
      <trkpt lat="44.77507" lon="5.0622">
        <ele>595</ele>
        <time>2020-02-07T11:15:53.000Z</time>
      </trkpt>
      <trkpt lat="44.77507" lon="5.06221">
        <ele>595</ele>
        <time>2020-02-07T11:15:54.000Z</time>
      </trkpt>
      <trkpt lat="44.77506" lon="5.06222">
        <ele>595</ele>
        <time>2020-02-07T11:15:55.000Z</time>
      </trkpt>
      <trkpt lat="44.77506" lon="5.06223">
        <ele>595</ele>
        <time>2020-02-07T11:15:56.000Z</time>
      </trkpt>
      <trkpt lat="44.77506" lon="5.06224">
        <ele>595</ele>
        <time>2020-02-07T11:15:57.000Z</time>
      </trkpt>
      <trkpt lat="44.77505" lon="5.06225">
        <ele>595</ele>
        <time>2020-02-07T11:15:58.000Z</time>
      </trkpt>
      <trkpt lat="44.77505" lon="5.06226">
        <ele>595</ele>
        <time>2020-02-07T11:15:59.000Z</time>
      </trkpt>
      <trkpt lat="44.77505" lon="5.06227">
        <ele>595</ele>
        <time>2020-02-07T11:16:00.000Z</time>
      </trkpt>
      <trkpt lat="44.77505" lon="5.06227">
        <ele>595</ele>
        <time>2020-02-07T11:16:01.000Z</time>
      </trkpt>
      <trkpt lat="44.77505" lon="5.06228">
        <ele>595</ele>
        <time>2020-02-07T11:16:02.000Z</time>
      </trkpt>
      <trkpt lat="44.77505" lon="5.06229">
        <ele>595</ele>
        <time>2020-02-07T11:16:03.000Z</time>
      </trkpt>
      <trkpt lat="44.77505" lon="5.0623">
        <ele>595</ele>
        <time>2020-02-07T11:16:04.000Z</time>
      </trkpt>
      <trkpt lat="44.77505" lon="5.0623">
        <ele>595</ele>
        <time>2020-02-07T11:16:05.000Z</time>
      </trkpt>
      <trkpt lat="44.77504" lon="5.06231">
        <ele>595</ele>
        <time>2020-02-07T11:16:06.000Z</time>
      </trkpt>
      <trkpt lat="44.77504" lon="5.06232">
        <ele>596</ele>
        <time>2020-02-07T11:16:07.000Z</time>
      </trkpt>
      <trkpt lat="44.77504" lon="5.06232">
        <ele>596</ele>
        <time>2020-02-07T11:16:08.000Z</time>
      </trkpt>
      <trkpt lat="44.77504" lon="5.06233">
        <ele>596</ele>
        <time>2020-02-07T11:16:09.000Z</time>
      </trkpt>
      <trkpt lat="44.77504" lon="5.06234">
        <ele>596</ele>
        <time>2020-02-07T11:16:10.000Z</time>
      </trkpt>
      <trkpt lat="44.77503" lon="5.06235">
        <ele>596</ele>
        <time>2020-02-07T11:16:11.000Z</time>
      </trkpt>
      <trkpt lat="44.77503" lon="5.06236">
        <ele>596</ele>
        <time>2020-02-07T11:16:12.000Z</time>
      </trkpt>
      <trkpt lat="44.77503" lon="5.06237">
        <ele>596</ele>
        <time>2020-02-07T11:16:13.000Z</time>
      </trkpt>
      <trkpt lat="44.77503" lon="5.06238">
        <ele>596</ele>
        <time>2020-02-07T11:16:14.000Z</time>
      </trkpt>
      <trkpt lat="44.77503" lon="5.06239">
        <ele>597</ele>
        <time>2020-02-07T11:16:15.000Z</time>
      </trkpt>
      <trkpt lat="44.77502" lon="5.06239">
        <ele>597</ele>
        <time>2020-02-07T11:16:16.000Z</time>
      </trkpt>
      <trkpt lat="44.77502" lon="5.0624">
        <ele>597</ele>
        <time>2020-02-07T11:16:17.000Z</time>
      </trkpt>
      <trkpt lat="44.77502" lon="5.0624">
        <ele>597</ele>
        <time>2020-02-07T11:16:18.000Z</time>
      </trkpt>
      <trkpt lat="44.77502" lon="5.06241">
        <ele>597</ele>
        <time>2020-02-07T11:16:19.000Z</time>
      </trkpt>
      <trkpt lat="44.77502" lon="5.06242">
        <ele>597</ele>
        <time>2020-02-07T11:16:20.000Z</time>
      </trkpt>
      <trkpt lat="44.77502" lon="5.06243">
        <ele>598</ele>
        <time>2020-02-07T11:16:21.000Z</time>
      </trkpt>
      <trkpt lat="44.77502" lon="5.06244">
        <ele>598</ele>
        <time>2020-02-07T11:16:22.000Z</time>
      </trkpt>
      <trkpt lat="44.77502" lon="5.06245">
        <ele>598</ele>
        <time>2020-02-07T11:16:23.000Z</time>
      </trkpt>
      <trkpt lat="44.77503" lon="5.06246">
        <ele>598</ele>
        <time>2020-02-07T11:16:24.000Z</time>
      </trkpt>
      <trkpt lat="44.77503" lon="5.06246">
        <ele>598</ele>
        <time>2020-02-07T11:16:25.000Z</time>
      </trkpt>
      <trkpt lat="44.77503" lon="5.06247">
        <ele>598</ele>
        <time>2020-02-07T11:16:26.000Z</time>
      </trkpt>
      <trkpt lat="44.77502" lon="5.06248">
        <ele>598</ele>
        <time>2020-02-07T11:16:27.000Z</time>
      </trkpt>
      <trkpt lat="44.77502" lon="5.06249">
        <ele>599</ele>
        <time>2020-02-07T11:16:28.000Z</time>
      </trkpt>
      <trkpt lat="44.77502" lon="5.0625">
        <ele>599</ele>
        <time>2020-02-07T11:16:29.000Z</time>
      </trkpt>
      <trkpt lat="44.77502" lon="5.06251">
        <ele>599</ele>
        <time>2020-02-07T11:16:30.000Z</time>
      </trkpt>
      <trkpt lat="44.77502" lon="5.06253">
        <ele>599</ele>
        <time>2020-02-07T11:16:31.000Z</time>
      </trkpt>
      <trkpt lat="44.77502" lon="5.06254">
        <ele>599</ele>
        <time>2020-02-07T11:16:32.000Z</time>
      </trkpt>
      <trkpt lat="44.77502" lon="5.06255">
        <ele>599</ele>
        <time>2020-02-07T11:16:33.000Z</time>
      </trkpt>
      <trkpt lat="44.77501" lon="5.06256">
        <ele>600</ele>
        <time>2020-02-07T11:16:34.000Z</time>
      </trkpt>
      <trkpt lat="44.77501" lon="5.06258">
        <ele>600</ele>
        <time>2020-02-07T11:16:35.000Z</time>
      </trkpt>
      <trkpt lat="44.775" lon="5.0626">
        <ele>600</ele>
        <time>2020-02-07T11:16:36.000Z</time>
      </trkpt>
      <trkpt lat="44.775" lon="5.06261">
        <ele>600</ele>
        <time>2020-02-07T11:16:37.000Z</time>
      </trkpt>
      <trkpt lat="44.775" lon="5.06262">
        <ele>600</ele>
        <time>2020-02-07T11:16:38.000Z</time>
      </trkpt>
      <trkpt lat="44.77499" lon="5.06263">
        <ele>600</ele>
        <time>2020-02-07T11:16:39.000Z</time>
      </trkpt>
      <trkpt lat="44.77499" lon="5.06265">
        <ele>601</ele>
        <time>2020-02-07T11:16:40.000Z</time>
      </trkpt>
      <trkpt lat="44.77499" lon="5.06266">
        <ele>601</ele>
        <time>2020-02-07T11:16:41.000Z</time>
      </trkpt>
      <trkpt lat="44.77498" lon="5.06268">
        <ele>601</ele>
        <time>2020-02-07T11:16:42.000Z</time>
      </trkpt>
      <trkpt lat="44.77498" lon="5.06269">
        <ele>601</ele>
        <time>2020-02-07T11:16:43.000Z</time>
      </trkpt>
      <trkpt lat="44.77498" lon="5.06271">
        <ele>602</ele>
        <time>2020-02-07T11:16:44.000Z</time>
      </trkpt>
      <trkpt lat="44.77498" lon="5.06272">
        <ele>602</ele>
        <time>2020-02-07T11:16:45.000Z</time>
      </trkpt>
      <trkpt lat="44.77497" lon="5.06273">
        <ele>602</ele>
        <time>2020-02-07T11:16:46.000Z</time>
      </trkpt>
      <trkpt lat="44.77497" lon="5.06274">
        <ele>602</ele>
        <time>2020-02-07T11:16:47.000Z</time>
      </trkpt>
      <trkpt lat="44.77497" lon="5.06275">
        <ele>603</ele>
        <time>2020-02-07T11:16:48.000Z</time>
      </trkpt>
      <trkpt lat="44.77497" lon="5.06277">
        <ele>603</ele>
        <time>2020-02-07T11:16:49.000Z</time>
      </trkpt>
      <trkpt lat="44.77496" lon="5.06278">
        <ele>603</ele>
        <time>2020-02-07T11:16:50.000Z</time>
      </trkpt>
      <trkpt lat="44.77496" lon="5.0628">
        <ele>603</ele>
        <time>2020-02-07T11:16:51.000Z</time>
      </trkpt>
      <trkpt lat="44.77495" lon="5.06282">
        <ele>603</ele>
        <time>2020-02-07T11:16:52.000Z</time>
      </trkpt>
      <trkpt lat="44.77495" lon="5.06284">
        <ele>604</ele>
        <time>2020-02-07T11:16:53.000Z</time>
      </trkpt>
      <trkpt lat="44.77495" lon="5.06286">
        <ele>604</ele>
        <time>2020-02-07T11:16:54.000Z</time>
      </trkpt>
      <trkpt lat="44.77494" lon="5.06288">
        <ele>604</ele>
        <time>2020-02-07T11:16:55.000Z</time>
      </trkpt>
      <trkpt lat="44.77494" lon="5.06289">
        <ele>604</ele>
        <time>2020-02-07T11:16:56.000Z</time>
      </trkpt>
      <trkpt lat="44.77494" lon="5.06291">
        <ele>604</ele>
        <time>2020-02-07T11:16:57.000Z</time>
      </trkpt>
      <trkpt lat="44.77494" lon="5.06293">
        <ele>604</ele>
        <time>2020-02-07T11:16:58.000Z</time>
      </trkpt>
      <trkpt lat="44.77494" lon="5.06295">
        <ele>605</ele>
        <time>2020-02-07T11:16:59.000Z</time>
      </trkpt>
      <trkpt lat="44.77494" lon="5.06296">
        <ele>605</ele>
        <time>2020-02-07T11:17:00.000Z</time>
      </trkpt>
      <trkpt lat="44.77493" lon="5.06298">
        <ele>605</ele>
        <time>2020-02-07T11:17:01.000Z</time>
      </trkpt>
      <trkpt lat="44.77493" lon="5.063">
        <ele>605</ele>
        <time>2020-02-07T11:17:02.000Z</time>
      </trkpt>
      <trkpt lat="44.77493" lon="5.06301">
        <ele>605</ele>
        <time>2020-02-07T11:17:03.000Z</time>
      </trkpt>
      <trkpt lat="44.77493" lon="5.06302">
        <ele>605</ele>
        <time>2020-02-07T11:17:04.000Z</time>
      </trkpt>
      <trkpt lat="44.77493" lon="5.06302">
        <ele>606</ele>
        <time>2020-02-07T11:17:05.000Z</time>
      </trkpt>
      <trkpt lat="44.77493" lon="5.06303">
        <ele>606</ele>
        <time>2020-02-07T11:17:06.000Z</time>
      </trkpt>
      <trkpt lat="44.77493" lon="5.06304">
        <ele>606</ele>
        <time>2020-02-07T11:17:07.000Z</time>
      </trkpt>
      <trkpt lat="44.77494" lon="5.06305">
        <ele>606</ele>
        <time>2020-02-07T11:17:08.000Z</time>
      </trkpt>
      <trkpt lat="44.77494" lon="5.06306">
        <ele>606</ele>
        <time>2020-02-07T11:17:09.000Z</time>
      </trkpt>
      <trkpt lat="44.77494" lon="5.06307">
        <ele>606</ele>
        <time>2020-02-07T11:17:10.000Z</time>
      </trkpt>
      <trkpt lat="44.77494" lon="5.06308">
        <ele>606</ele>
        <time>2020-02-07T11:17:11.000Z</time>
      </trkpt>
      <trkpt lat="44.77494" lon="5.06309">
        <ele>606</ele>
        <time>2020-02-07T11:17:12.000Z</time>
      </trkpt>
      <trkpt lat="44.77494" lon="5.0631">
        <ele>607</ele>
        <time>2020-02-07T11:17:13.000Z</time>
      </trkpt>
      <trkpt lat="44.77494" lon="5.06311">
        <ele>607</ele>
        <time>2020-02-07T11:17:14.000Z</time>
      </trkpt>
      <trkpt lat="44.77494" lon="5.06312">
        <ele>607</ele>
        <time>2020-02-07T11:17:15.000Z</time>
      </trkpt>
      <trkpt lat="44.77494" lon="5.06314">
        <ele>607</ele>
        <time>2020-02-07T11:17:16.000Z</time>
      </trkpt>
      <trkpt lat="44.77494" lon="5.06315">
        <ele>607</ele>
        <time>2020-02-07T11:17:17.000Z</time>
      </trkpt>
      <trkpt lat="44.77494" lon="5.06316">
        <ele>608</ele>
        <time>2020-02-07T11:17:18.000Z</time>
      </trkpt>
      <trkpt lat="44.77494" lon="5.06318">
        <ele>608</ele>
        <time>2020-02-07T11:17:19.000Z</time>
      </trkpt>
      <trkpt lat="44.77494" lon="5.0632">
        <ele>608</ele>
        <time>2020-02-07T11:17:20.000Z</time>
      </trkpt>
      <trkpt lat="44.77494" lon="5.06321">
        <ele>608</ele>
        <time>2020-02-07T11:17:21.000Z</time>
      </trkpt>
      <trkpt lat="44.77494" lon="5.06323">
        <ele>608</ele>
        <time>2020-02-07T11:17:22.000Z</time>
      </trkpt>
      <trkpt lat="44.77494" lon="5.06325">
        <ele>609</ele>
        <time>2020-02-07T11:17:23.000Z</time>
      </trkpt>
      <trkpt lat="44.77494" lon="5.06327">
        <ele>609</ele>
        <time>2020-02-07T11:17:24.000Z</time>
      </trkpt>
      <trkpt lat="44.77493" lon="5.06329">
        <ele>609</ele>
        <time>2020-02-07T11:17:25.000Z</time>
      </trkpt>
      <trkpt lat="44.77493" lon="5.06331">
        <ele>609</ele>
        <time>2020-02-07T11:17:26.000Z</time>
      </trkpt>
      <trkpt lat="44.77493" lon="5.06332">
        <ele>609</ele>
        <time>2020-02-07T11:17:27.000Z</time>
      </trkpt>
      <trkpt lat="44.77493" lon="5.06334">
        <ele>609</ele>
        <time>2020-02-07T11:17:28.000Z</time>
      </trkpt>
      <trkpt lat="44.77493" lon="5.06336">
        <ele>609</ele>
        <time>2020-02-07T11:17:29.000Z</time>
      </trkpt>
      <trkpt lat="44.77493" lon="5.06338">
        <ele>610</ele>
        <time>2020-02-07T11:17:30.000Z</time>
      </trkpt>
      <trkpt lat="44.77493" lon="5.0634">
        <ele>610</ele>
        <time>2020-02-07T11:17:31.000Z</time>
      </trkpt>
      <trkpt lat="44.77494" lon="5.06341">
        <ele>610</ele>
        <time>2020-02-07T11:17:32.000Z</time>
      </trkpt>
      <trkpt lat="44.77494" lon="5.06343">
        <ele>610</ele>
        <time>2020-02-07T11:17:33.000Z</time>
      </trkpt>
      <trkpt lat="44.77495" lon="5.06344">
        <ele>610</ele>
        <time>2020-02-07T11:17:34.000Z</time>
      </trkpt>
      <trkpt lat="44.77495" lon="5.06346">
        <ele>610</ele>
        <time>2020-02-07T11:17:35.000Z</time>
      </trkpt>
      <trkpt lat="44.77495" lon="5.06347">
        <ele>610</ele>
        <time>2020-02-07T11:17:36.000Z</time>
      </trkpt>
      <trkpt lat="44.77496" lon="5.06349">
        <ele>610</ele>
        <time>2020-02-07T11:17:37.000Z</time>
      </trkpt>
      <trkpt lat="44.77496" lon="5.0635">
        <ele>610</ele>
        <time>2020-02-07T11:17:38.000Z</time>
      </trkpt>
      <trkpt lat="44.77496" lon="5.06351">
        <ele>610</ele>
        <time>2020-02-07T11:17:39.000Z</time>
      </trkpt>
      <trkpt lat="44.77496" lon="5.06353">
        <ele>610</ele>
        <time>2020-02-07T11:17:40.000Z</time>
      </trkpt>
      <trkpt lat="44.77497" lon="5.06354">
        <ele>610</ele>
        <time>2020-02-07T11:17:41.000Z</time>
      </trkpt>
      <trkpt lat="44.77497" lon="5.06356">
        <ele>610</ele>
        <time>2020-02-07T11:17:42.000Z</time>
      </trkpt>
      <trkpt lat="44.77498" lon="5.06358">
        <ele>610</ele>
        <time>2020-02-07T11:17:43.000Z</time>
      </trkpt>
      <trkpt lat="44.77498" lon="5.0636">
        <ele>610</ele>
        <time>2020-02-07T11:17:44.000Z</time>
      </trkpt>
      <trkpt lat="44.77498" lon="5.06362">
        <ele>610</ele>
        <time>2020-02-07T11:17:45.000Z</time>
      </trkpt>
      <trkpt lat="44.77498" lon="5.06364">
        <ele>610</ele>
        <time>2020-02-07T11:17:46.000Z</time>
      </trkpt>
      <trkpt lat="44.77498" lon="5.06365">
        <ele>610</ele>
        <time>2020-02-07T11:17:47.000Z</time>
      </trkpt>
      <trkpt lat="44.77498" lon="5.06367">
        <ele>610</ele>
        <time>2020-02-07T11:17:48.000Z</time>
      </trkpt>
      <trkpt lat="44.77497" lon="5.06369">
        <ele>610</ele>
        <time>2020-02-07T11:17:49.000Z</time>
      </trkpt>
      <trkpt lat="44.77498" lon="5.0637">
        <ele>610</ele>
        <time>2020-02-07T11:17:50.000Z</time>
      </trkpt>
      <trkpt lat="44.77498" lon="5.06371">
        <ele>610</ele>
        <time>2020-02-07T11:17:51.000Z</time>
      </trkpt>
      <trkpt lat="44.77498" lon="5.06373">
        <ele>610</ele>
        <time>2020-02-07T11:17:52.000Z</time>
      </trkpt>
      <trkpt lat="44.77498" lon="5.06374">
        <ele>611</ele>
        <time>2020-02-07T11:17:53.000Z</time>
      </trkpt>
      <trkpt lat="44.77498" lon="5.06375">
        <ele>611</ele>
        <time>2020-02-07T11:17:54.000Z</time>
      </trkpt>
      <trkpt lat="44.77498" lon="5.06377">
        <ele>611</ele>
        <time>2020-02-07T11:17:55.000Z</time>
      </trkpt>
      <trkpt lat="44.77498" lon="5.06379">
        <ele>611</ele>
        <time>2020-02-07T11:17:56.000Z</time>
      </trkpt>
      <trkpt lat="44.77497" lon="5.0638">
        <ele>612</ele>
        <time>2020-02-07T11:17:57.000Z</time>
      </trkpt>
      <trkpt lat="44.77497" lon="5.06381">
        <ele>612</ele>
        <time>2020-02-07T11:17:58.000Z</time>
      </trkpt>
      <trkpt lat="44.77497" lon="5.06382">
        <ele>612</ele>
        <time>2020-02-07T11:17:59.000Z</time>
      </trkpt>
      <trkpt lat="44.77497" lon="5.06382">
        <ele>612</ele>
        <time>2020-02-07T11:18:00.000Z</time>
      </trkpt>
      <trkpt lat="44.77497" lon="5.06382">
        <ele>612</ele>
        <time>2020-02-07T11:18:01.000Z</time>
      </trkpt>
      <trkpt lat="44.77497" lon="5.06382">
        <ele>612</ele>
        <time>2020-02-07T11:18:02.000Z</time>
      </trkpt>
      <trkpt lat="44.77497" lon="5.06382">
        <ele>612</ele>
        <time>2020-02-07T11:18:03.000Z</time>
      </trkpt>
      <trkpt lat="44.77497" lon="5.06382">
        <ele>612</ele>
        <time>2020-02-07T11:18:04.000Z</time>
      </trkpt>
      <trkpt lat="44.77497" lon="5.06382">
        <ele>611</ele>
        <time>2020-02-07T11:18:05.000Z</time>
      </trkpt>
      <trkpt lat="44.77497" lon="5.06382">
        <ele>611</ele>
        <time>2020-02-07T11:18:06.000Z</time>
      </trkpt>
      <trkpt lat="44.77497" lon="5.06382">
        <ele>611</ele>
        <time>2020-02-07T11:18:07.000Z</time>
      </trkpt>
      <trkpt lat="44.77497" lon="5.06382">
        <ele>611</ele>
        <time>2020-02-07T11:18:08.000Z</time>
      </trkpt>
      <trkpt lat="44.77497" lon="5.06382">
        <ele>611</ele>
        <time>2020-02-07T11:18:09.000Z</time>
      </trkpt>
      <trkpt lat="44.77497" lon="5.06382">
        <ele>611</ele>
        <time>2020-02-07T11:18:10.000Z</time>
      </trkpt>
      <trkpt lat="44.77498" lon="5.06382">
        <ele>611</ele>
        <time>2020-02-07T11:18:11.000Z</time>
      </trkpt>
      <trkpt lat="44.77498" lon="5.06382">
        <ele>611</ele>
        <time>2020-02-07T11:18:12.000Z</time>
      </trkpt>
      <trkpt lat="44.77498" lon="5.06382">
        <ele>611</ele>
        <time>2020-02-07T11:18:13.000Z</time>
      </trkpt>
      <trkpt lat="44.77498" lon="5.06382">
        <ele>611</ele>
        <time>2020-02-07T11:18:14.000Z</time>
      </trkpt>
      <trkpt lat="44.77498" lon="5.06382">
        <ele>611</ele>
        <time>2020-02-07T11:18:15.000Z</time>
      </trkpt>
      <trkpt lat="44.77498" lon="5.06382">
        <ele>611</ele>
        <time>2020-02-07T11:18:16.000Z</time>
      </trkpt>
      <trkpt lat="44.77497" lon="5.06382">
        <ele>611</ele>
        <time>2020-02-07T11:18:17.000Z</time>
      </trkpt>
      <trkpt lat="44.77497" lon="5.06382">
        <ele>611</ele>
        <time>2020-02-07T11:18:18.000Z</time>
      </trkpt>
      <trkpt lat="44.77498" lon="5.06382">
        <ele>611</ele>
        <time>2020-02-07T11:18:19.000Z</time>
      </trkpt>
      <trkpt lat="44.77498" lon="5.06382">
        <ele>611</ele>
        <time>2020-02-07T11:18:20.000Z</time>
      </trkpt>
      <trkpt lat="44.77498" lon="5.06382">
        <ele>611</ele>
        <time>2020-02-07T11:18:21.000Z</time>
      </trkpt>
      <trkpt lat="44.77498" lon="5.06382">
        <ele>611</ele>
        <time>2020-02-07T11:18:22.000Z</time>
      </trkpt>
      <trkpt lat="44.77498" lon="5.06382">
        <ele>611</ele>
        <time>2020-02-07T11:18:23.000Z</time>
      </trkpt>
      <trkpt lat="44.77498" lon="5.06382">
        <ele>611</ele>
        <time>2020-02-07T11:18:24.000Z</time>
      </trkpt>
      <trkpt lat="44.77498" lon="5.06382">
        <ele>611</ele>
        <time>2020-02-07T11:18:25.000Z</time>
      </trkpt>
      <trkpt lat="44.77498" lon="5.06382">
        <ele>611</ele>
        <time>2020-02-07T11:18:26.000Z</time>
      </trkpt>
      <trkpt lat="44.77498" lon="5.06382">
        <ele>611</ele>
        <time>2020-02-07T11:18:27.000Z</time>
      </trkpt>
      <trkpt lat="44.77498" lon="5.06382">
        <ele>611</ele>
        <time>2020-02-07T11:18:28.000Z</time>
      </trkpt>
      <trkpt lat="44.77498" lon="5.06382">
        <ele>611</ele>
        <time>2020-02-07T11:18:29.000Z</time>
      </trkpt>
      <trkpt lat="44.77498" lon="5.06383">
        <ele>611</ele>
        <time>2020-02-07T11:18:30.000Z</time>
      </trkpt>
      <trkpt lat="44.77498" lon="5.06383">
        <ele>611</ele>
        <time>2020-02-07T11:18:31.000Z</time>
      </trkpt>
      <trkpt lat="44.77498" lon="5.06383">
        <ele>611</ele>
        <time>2020-02-07T11:18:32.000Z</time>
      </trkpt>
      <trkpt lat="44.77498" lon="5.06384">
        <ele>610</ele>
        <time>2020-02-07T11:18:33.000Z</time>
      </trkpt>
      <trkpt lat="44.77498" lon="5.06384">
        <ele>610</ele>
        <time>2020-02-07T11:18:34.000Z</time>
      </trkpt>
      <trkpt lat="44.77498" lon="5.06384">
        <ele>610</ele>
        <time>2020-02-07T11:18:35.000Z</time>
      </trkpt>
      <trkpt lat="44.77498" lon="5.06384">
        <ele>610</ele>
        <time>2020-02-07T11:18:36.000Z</time>
      </trkpt>
      <trkpt lat="44.77498" lon="5.06383">
        <ele>610</ele>
        <time>2020-02-07T11:18:37.000Z</time>
      </trkpt>
      <trkpt lat="44.77498" lon="5.06383">
        <ele>610</ele>
        <time>2020-02-07T11:18:38.000Z</time>
      </trkpt>
      <trkpt lat="44.77498" lon="5.06383">
        <ele>610</ele>
        <time>2020-02-07T11:18:39.000Z</time>
      </trkpt>
      <trkpt lat="44.77498" lon="5.06383">
        <ele>610</ele>
        <time>2020-02-07T11:18:40.000Z</time>
      </trkpt>
      <trkpt lat="44.77499" lon="5.06383">
        <ele>610</ele>
        <time>2020-02-07T11:18:41.000Z</time>
      </trkpt>
      <trkpt lat="44.77499" lon="5.06383">
        <ele>610</ele>
        <time>2020-02-07T11:18:42.000Z</time>
      </trkpt>
      <trkpt lat="44.77499" lon="5.06383">
        <ele>610</ele>
        <time>2020-02-07T11:18:43.000Z</time>
      </trkpt>
      <trkpt lat="44.77499" lon="5.06383">
        <ele>610</ele>
        <time>2020-02-07T11:18:44.000Z</time>
      </trkpt>
      <trkpt lat="44.77499" lon="5.06382">
        <ele>609</ele>
        <time>2020-02-07T11:18:45.000Z</time>
      </trkpt>
      <trkpt lat="44.77499" lon="5.06382">
        <ele>609</ele>
        <time>2020-02-07T11:18:46.000Z</time>
      </trkpt>
      <trkpt lat="44.77499" lon="5.06382">
        <ele>609</ele>
        <time>2020-02-07T11:18:47.000Z</time>
      </trkpt>
      <trkpt lat="44.77499" lon="5.06382">
        <ele>609</ele>
        <time>2020-02-07T11:18:48.000Z</time>
      </trkpt>
      <trkpt lat="44.77499" lon="5.06382">
        <ele>609</ele>
        <time>2020-02-07T11:18:49.000Z</time>
      </trkpt>
      <trkpt lat="44.77499" lon="5.06382">
        <ele>609</ele>
        <time>2020-02-07T11:18:50.000Z</time>
      </trkpt>
      <trkpt lat="44.77499" lon="5.06382">
        <ele>609</ele>
        <time>2020-02-07T11:18:51.000Z</time>
      </trkpt>
      <trkpt lat="44.77498" lon="5.06381">
        <ele>609</ele>
        <time>2020-02-07T11:18:52.000Z</time>
      </trkpt>
      <trkpt lat="44.77498" lon="5.06381">
        <ele>609</ele>
        <time>2020-02-07T11:18:53.000Z</time>
      </trkpt>
      <trkpt lat="44.77498" lon="5.06381">
        <ele>609</ele>
        <time>2020-02-07T11:18:54.000Z</time>
      </trkpt>
      <trkpt lat="44.77498" lon="5.06381">
        <ele>609</ele>
        <time>2020-02-07T11:18:55.000Z</time>
      </trkpt>
      <trkpt lat="44.77498" lon="5.06381">
        <ele>609</ele>
        <time>2020-02-07T11:18:56.000Z</time>
      </trkpt>
      <trkpt lat="44.77498" lon="5.06381">
        <ele>609</ele>
        <time>2020-02-07T11:18:57.000Z</time>
      </trkpt>
      <trkpt lat="44.77498" lon="5.0638">
        <ele>609</ele>
        <time>2020-02-07T11:18:58.000Z</time>
      </trkpt>
      <trkpt lat="44.77498" lon="5.0638">
        <ele>609</ele>
        <time>2020-02-07T11:18:59.000Z</time>
      </trkpt>
      <trkpt lat="44.77498" lon="5.0638">
        <ele>609</ele>
        <time>2020-02-07T11:19:00.000Z</time>
      </trkpt>
      <trkpt lat="44.77498" lon="5.0638">
        <ele>609</ele>
        <time>2020-02-07T11:19:01.000Z</time>
      </trkpt>
      <trkpt lat="44.77498" lon="5.0638">
        <ele>609</ele>
        <time>2020-02-07T11:19:02.000Z</time>
      </trkpt>
      <trkpt lat="44.77498" lon="5.0638">
        <ele>609</ele>
        <time>2020-02-07T11:19:03.000Z</time>
      </trkpt>
      <trkpt lat="44.77498" lon="5.0638">
        <ele>609</ele>
        <time>2020-02-07T11:19:04.000Z</time>
      </trkpt>
      <trkpt lat="44.77498" lon="5.0638">
        <ele>609</ele>
        <time>2020-02-07T11:19:05.000Z</time>
      </trkpt>
      <trkpt lat="44.77498" lon="5.0638">
        <ele>609</ele>
        <time>2020-02-07T11:19:06.000Z</time>
      </trkpt>
      <trkpt lat="44.77498" lon="5.0638">
        <ele>609</ele>
        <time>2020-02-07T11:19:07.000Z</time>
      </trkpt>
      <trkpt lat="44.77498" lon="5.0638">
        <ele>609</ele>
        <time>2020-02-07T11:19:08.000Z</time>
      </trkpt>
      <trkpt lat="44.77498" lon="5.0638">
        <ele>609</ele>
        <time>2020-02-07T11:19:09.000Z</time>
      </trkpt>
      <trkpt lat="44.77498" lon="5.0638">
        <ele>609</ele>
        <time>2020-02-07T11:19:10.000Z</time>
      </trkpt>
      <trkpt lat="44.77497" lon="5.0638">
        <ele>609</ele>
        <time>2020-02-07T11:19:11.000Z</time>
      </trkpt>
      <trkpt lat="44.77497" lon="5.0638">
        <ele>609</ele>
        <time>2020-02-07T11:19:12.000Z</time>
      </trkpt>
      <trkpt lat="44.77497" lon="5.0638">
        <ele>609</ele>
        <time>2020-02-07T11:19:13.000Z</time>
      </trkpt>
      <trkpt lat="44.77497" lon="5.0638">
        <ele>609</ele>
        <time>2020-02-07T11:19:14.000Z</time>
      </trkpt>
      <trkpt lat="44.77497" lon="5.0638">
        <ele>609</ele>
        <time>2020-02-07T11:19:15.000Z</time>
      </trkpt>
      <trkpt lat="44.77497" lon="5.0638">
        <ele>609</ele>
        <time>2020-02-07T11:19:16.000Z</time>
      </trkpt>
      <trkpt lat="44.77497" lon="5.0638">
        <ele>609</ele>
        <time>2020-02-07T11:19:17.000Z</time>
      </trkpt>
      <trkpt lat="44.77497" lon="5.0638">
        <ele>609</ele>
        <time>2020-02-07T11:19:18.000Z</time>
      </trkpt>
      <trkpt lat="44.77497" lon="5.0638">
        <ele>609</ele>
        <time>2020-02-07T11:19:19.000Z</time>
      </trkpt>
      <trkpt lat="44.77497" lon="5.0638">
        <ele>609</ele>
        <time>2020-02-07T11:19:20.000Z</time>
      </trkpt>
      <trkpt lat="44.77497" lon="5.0638">
        <ele>609</ele>
        <time>2020-02-07T11:19:21.000Z</time>
      </trkpt>
      <trkpt lat="44.77497" lon="5.0638">
        <ele>609</ele>
        <time>2020-02-07T11:19:22.000Z</time>
      </trkpt>
      <trkpt lat="44.77497" lon="5.06381">
        <ele>609</ele>
        <time>2020-02-07T11:19:23.000Z</time>
      </trkpt>
      <trkpt lat="44.77497" lon="5.06381">
        <ele>609</ele>
        <time>2020-02-07T11:19:24.000Z</time>
      </trkpt>
      <trkpt lat="44.77497" lon="5.06381">
        <ele>609</ele>
        <time>2020-02-07T11:19:25.000Z</time>
      </trkpt>
      <trkpt lat="44.77497" lon="5.06381">
        <ele>609</ele>
        <time>2020-02-07T11:19:26.000Z</time>
      </trkpt>
      <trkpt lat="44.77497" lon="5.06381">
        <ele>609</ele>
        <time>2020-02-07T11:19:27.000Z</time>
      </trkpt>
      <trkpt lat="44.77497" lon="5.06381">
        <ele>609</ele>
        <time>2020-02-07T11:19:28.000Z</time>
      </trkpt>
      <trkpt lat="44.77497" lon="5.06381">
        <ele>609</ele>
        <time>2020-02-07T11:19:29.000Z</time>
      </trkpt>
      <trkpt lat="44.77497" lon="5.06381">
        <ele>609</ele>
        <time>2020-02-07T11:19:30.000Z</time>
      </trkpt>
      <trkpt lat="44.77497" lon="5.06381">
        <ele>609</ele>
        <time>2020-02-07T11:19:31.000Z</time>
      </trkpt>
      <trkpt lat="44.77497" lon="5.06381">
        <ele>609</ele>
        <time>2020-02-07T11:19:32.000Z</time>
      </trkpt>
      <trkpt lat="44.77497" lon="5.06381">
        <ele>609</ele>
        <time>2020-02-07T11:19:33.000Z</time>
      </trkpt>
      <trkpt lat="44.77497" lon="5.06381">
        <ele>609</ele>
        <time>2020-02-07T11:19:34.000Z</time>
      </trkpt>
      <trkpt lat="44.77497" lon="5.06381">
        <ele>609</ele>
        <time>2020-02-07T11:19:35.000Z</time>
      </trkpt>
      <trkpt lat="44.77497" lon="5.06381">
        <ele>609</ele>
        <time>2020-02-07T11:19:36.000Z</time>
      </trkpt>
      <trkpt lat="44.77497" lon="5.06381">
        <ele>609</ele>
        <time>2020-02-07T11:19:37.000Z</time>
      </trkpt>
      <trkpt lat="44.77497" lon="5.06382">
        <ele>609</ele>
        <time>2020-02-07T11:19:38.000Z</time>
      </trkpt>
      <trkpt lat="44.77496" lon="5.06382">
        <ele>609</ele>
        <time>2020-02-07T11:19:39.000Z</time>
      </trkpt>
      <trkpt lat="44.77496" lon="5.06382">
        <ele>609</ele>
        <time>2020-02-07T11:19:40.000Z</time>
      </trkpt>
      <trkpt lat="44.77496" lon="5.06383">
        <ele>609</ele>
        <time>2020-02-07T11:19:41.000Z</time>
      </trkpt>
      <trkpt lat="44.77496" lon="5.06383">
        <ele>609</ele>
        <time>2020-02-07T11:19:42.000Z</time>
      </trkpt>
      <trkpt lat="44.77496" lon="5.06382">
        <ele>609</ele>
        <time>2020-02-07T11:19:43.000Z</time>
      </trkpt>
      <trkpt lat="44.77496" lon="5.06382">
        <ele>609</ele>
        <time>2020-02-07T11:19:44.000Z</time>
      </trkpt>
      <trkpt lat="44.77496" lon="5.06382">
        <ele>609</ele>
        <time>2020-02-07T11:19:45.000Z</time>
      </trkpt>
      <trkpt lat="44.77496" lon="5.06382">
        <ele>609</ele>
        <time>2020-02-07T11:19:46.000Z</time>
      </trkpt>
      <trkpt lat="44.77496" lon="5.06382">
        <ele>609</ele>
        <time>2020-02-07T11:19:47.000Z</time>
      </trkpt>
      <trkpt lat="44.77496" lon="5.06382">
        <ele>609</ele>
        <time>2020-02-07T11:19:48.000Z</time>
      </trkpt>
      <trkpt lat="44.77496" lon="5.06382">
        <ele>609</ele>
        <time>2020-02-07T11:19:49.000Z</time>
      </trkpt>
      <trkpt lat="44.77496" lon="5.06382">
        <ele>609</ele>
        <time>2020-02-07T11:19:50.000Z</time>
      </trkpt>
      <trkpt lat="44.77496" lon="5.06382">
        <ele>609</ele>
        <time>2020-02-07T11:19:51.000Z</time>
      </trkpt>
      <trkpt lat="44.77496" lon="5.06382">
        <ele>609</ele>
        <time>2020-02-07T11:19:52.000Z</time>
      </trkpt>
      <trkpt lat="44.77496" lon="5.06382">
        <ele>609</ele>
        <time>2020-02-07T11:19:53.000Z</time>
      </trkpt>
      <trkpt lat="44.77496" lon="5.06382">
        <ele>609</ele>
        <time>2020-02-07T11:19:54.000Z</time>
      </trkpt>
      <trkpt lat="44.77496" lon="5.06382">
        <ele>609</ele>
        <time>2020-02-07T11:19:55.000Z</time>
      </trkpt>
      <trkpt lat="44.77496" lon="5.06382">
        <ele>609</ele>
        <time>2020-02-07T11:19:56.000Z</time>
      </trkpt>
      <trkpt lat="44.77496" lon="5.06382">
        <ele>609</ele>
        <time>2020-02-07T11:19:57.000Z</time>
      </trkpt>
      <trkpt lat="44.77496" lon="5.06382">
        <ele>609</ele>
        <time>2020-02-07T11:19:58.000Z</time>
      </trkpt>
      <trkpt lat="44.77496" lon="5.06382">
        <ele>609</ele>
        <time>2020-02-07T11:19:59.000Z</time>
      </trkpt>
      <trkpt lat="44.77496" lon="5.06382">
        <ele>609</ele>
        <time>2020-02-07T11:20:00.000Z</time>
      </trkpt>
      <trkpt lat="44.77496" lon="5.06382">
        <ele>609</ele>
        <time>2020-02-07T11:20:01.000Z</time>
      </trkpt>
      <trkpt lat="44.77496" lon="5.06382">
        <ele>609</ele>
        <time>2020-02-07T11:20:02.000Z</time>
      </trkpt>
      <trkpt lat="44.77496" lon="5.06382">
        <ele>609</ele>
        <time>2020-02-07T11:20:03.000Z</time>
      </trkpt>
      <trkpt lat="44.77496" lon="5.06382">
        <ele>609</ele>
        <time>2020-02-07T11:20:04.000Z</time>
      </trkpt>
      <trkpt lat="44.77496" lon="5.06382">
        <ele>609</ele>
        <time>2020-02-07T11:20:05.000Z</time>
      </trkpt>
      <trkpt lat="44.77496" lon="5.06382">
        <ele>609</ele>
        <time>2020-02-07T11:20:06.000Z</time>
      </trkpt>
      <trkpt lat="44.77496" lon="5.06382">
        <ele>609</ele>
        <time>2020-02-07T11:20:07.000Z</time>
      </trkpt>
      <trkpt lat="44.77496" lon="5.06382">
        <ele>609</ele>
        <time>2020-02-07T11:20:08.000Z</time>
      </trkpt>
      <trkpt lat="44.77496" lon="5.06382">
        <ele>609</ele>
        <time>2020-02-07T11:20:09.000Z</time>
      </trkpt>
      <trkpt lat="44.77496" lon="5.06382">
        <ele>609</ele>
        <time>2020-02-07T11:20:10.000Z</time>
      </trkpt>
      <trkpt lat="44.77496" lon="5.06382">
        <ele>609</ele>
        <time>2020-02-07T11:20:11.000Z</time>
      </trkpt>
      <trkpt lat="44.77496" lon="5.06382">
        <ele>609</ele>
        <time>2020-02-07T11:20:12.000Z</time>
      </trkpt>
      <trkpt lat="44.77496" lon="5.06382">
        <ele>609</ele>
        <time>2020-02-07T11:20:13.000Z</time>
      </trkpt>
      <trkpt lat="44.77496" lon="5.06382">
        <ele>609</ele>
        <time>2020-02-07T11:20:14.000Z</time>
      </trkpt>
      <trkpt lat="44.77496" lon="5.06382">
        <ele>609</ele>
        <time>2020-02-07T11:20:15.000Z</time>
      </trkpt>
      <trkpt lat="44.77496" lon="5.06382">
        <ele>609</ele>
        <time>2020-02-07T11:20:16.000Z</time>
      </trkpt>
      <trkpt lat="44.77496" lon="5.06382">
        <ele>609</ele>
        <time>2020-02-07T11:20:17.000Z</time>
      </trkpt>
      <trkpt lat="44.77496" lon="5.06382">
        <ele>609</ele>
        <time>2020-02-07T11:20:18.000Z</time>
      </trkpt>
      <trkpt lat="44.77496" lon="5.06382">
        <ele>609</ele>
        <time>2020-02-07T11:20:19.000Z</time>
      </trkpt>
      <trkpt lat="44.77496" lon="5.06382">
        <ele>609</ele>
        <time>2020-02-07T11:20:20.000Z</time>
      </trkpt>
      <trkpt lat="44.77496" lon="5.06382">
        <ele>609</ele>
        <time>2020-02-07T11:20:21.000Z</time>
      </trkpt>
      <trkpt lat="44.77496" lon="5.06382">
        <ele>609</ele>
        <time>2020-02-07T11:20:22.000Z</time>
      </trkpt>
      <trkpt lat="44.77496" lon="5.06382">
        <ele>609</ele>
        <time>2020-02-07T11:20:23.000Z</time>
      </trkpt>
      <trkpt lat="44.77496" lon="5.06382">
        <ele>609</ele>
        <time>2020-02-07T11:20:24.000Z</time>
      </trkpt>
      <trkpt lat="44.77496" lon="5.06382">
        <ele>609</ele>
        <time>2020-02-07T11:20:25.000Z</time>
      </trkpt>
      <trkpt lat="44.77496" lon="5.06383">
        <ele>609</ele>
        <time>2020-02-07T11:20:26.000Z</time>
      </trkpt>
      <trkpt lat="44.77495" lon="5.06383">
        <ele>609</ele>
        <time>2020-02-07T11:20:27.000Z</time>
      </trkpt>
      <trkpt lat="44.77495" lon="5.06383">
        <ele>609</ele>
        <time>2020-02-07T11:20:28.000Z</time>
      </trkpt>
      <trkpt lat="44.77495" lon="5.06384">
        <ele>609</ele>
        <time>2020-02-07T11:20:29.000Z</time>
      </trkpt>
      <trkpt lat="44.77496" lon="5.06384">
        <ele>609</ele>
        <time>2020-02-07T11:20:30.000Z</time>
      </trkpt>
      <trkpt lat="44.77495" lon="5.06384">
        <ele>610</ele>
        <time>2020-02-07T11:20:31.000Z</time>
      </trkpt>
      <trkpt lat="44.77495" lon="5.06384">
        <ele>610</ele>
        <time>2020-02-07T11:20:32.000Z</time>
      </trkpt>
      <trkpt lat="44.77495" lon="5.06384">
        <ele>610</ele>
        <time>2020-02-07T11:20:33.000Z</time>
      </trkpt>
      <trkpt lat="44.77495" lon="5.06384">
        <ele>610</ele>
        <time>2020-02-07T11:20:34.000Z</time>
      </trkpt>
      <trkpt lat="44.77495" lon="5.06384">
        <ele>610</ele>
        <time>2020-02-07T11:20:35.000Z</time>
      </trkpt>
      <trkpt lat="44.77495" lon="5.06384">
        <ele>610</ele>
        <time>2020-02-07T11:20:36.000Z</time>
      </trkpt>
      <trkpt lat="44.77495" lon="5.06384">
        <ele>610</ele>
        <time>2020-02-07T11:20:37.000Z</time>
      </trkpt>
      <trkpt lat="44.77496" lon="5.06384">
        <ele>610</ele>
        <time>2020-02-07T11:20:38.000Z</time>
      </trkpt>
      <trkpt lat="44.77496" lon="5.06384">
        <ele>610</ele>
        <time>2020-02-07T11:20:39.000Z</time>
      </trkpt>
      <trkpt lat="44.77496" lon="5.06384">
        <ele>610</ele>
        <time>2020-02-07T11:20:40.000Z</time>
      </trkpt>
      <trkpt lat="44.77496" lon="5.06384">
        <ele>610</ele>
        <time>2020-02-07T11:20:41.000Z</time>
      </trkpt>
      <trkpt lat="44.77496" lon="5.06384">
        <ele>610</ele>
        <time>2020-02-07T11:20:42.000Z</time>
      </trkpt>
      <trkpt lat="44.77496" lon="5.06384">
        <ele>610</ele>
        <time>2020-02-07T11:20:43.000Z</time>
      </trkpt>
      <trkpt lat="44.77496" lon="5.06384">
        <ele>610</ele>
        <time>2020-02-07T11:20:44.000Z</time>
      </trkpt>
      <trkpt lat="44.77496" lon="5.06384">
        <ele>610</ele>
        <time>2020-02-07T11:20:45.000Z</time>
      </trkpt>
      <trkpt lat="44.77496" lon="5.06385">
        <ele>610</ele>
        <time>2020-02-07T11:20:46.000Z</time>
      </trkpt>
      <trkpt lat="44.77496" lon="5.06385">
        <ele>610</ele>
        <time>2020-02-07T11:20:47.000Z</time>
      </trkpt>
      <trkpt lat="44.77495" lon="5.06385">
        <ele>610</ele>
        <time>2020-02-07T11:20:48.000Z</time>
      </trkpt>
      <trkpt lat="44.77495" lon="5.06385">
        <ele>610</ele>
        <time>2020-02-07T11:20:49.000Z</time>
      </trkpt>
      <trkpt lat="44.77495" lon="5.06385">
        <ele>610</ele>
        <time>2020-02-07T11:20:50.000Z</time>
      </trkpt>
      <trkpt lat="44.77495" lon="5.06385">
        <ele>610</ele>
        <time>2020-02-07T11:20:51.000Z</time>
      </trkpt>
      <trkpt lat="44.77495" lon="5.06385">
        <ele>610</ele>
        <time>2020-02-07T11:20:52.000Z</time>
      </trkpt>
      <trkpt lat="44.77495" lon="5.06385">
        <ele>610</ele>
        <time>2020-02-07T11:20:53.000Z</time>
      </trkpt>
      <trkpt lat="44.77495" lon="5.06385">
        <ele>610</ele>
        <time>2020-02-07T11:20:54.000Z</time>
      </trkpt>
      <trkpt lat="44.77495" lon="5.06386">
        <ele>610</ele>
        <time>2020-02-07T11:20:55.000Z</time>
      </trkpt>
      <trkpt lat="44.77495" lon="5.06386">
        <ele>610</ele>
        <time>2020-02-07T11:20:56.000Z</time>
      </trkpt>
      <trkpt lat="44.77495" lon="5.06386">
        <ele>610</ele>
        <time>2020-02-07T11:20:57.000Z</time>
      </trkpt>
      <trkpt lat="44.77495" lon="5.06386">
        <ele>610</ele>
        <time>2020-02-07T11:20:58.000Z</time>
      </trkpt>
      <trkpt lat="44.77495" lon="5.06386">
        <ele>610</ele>
        <time>2020-02-07T11:20:59.000Z</time>
      </trkpt>
      <trkpt lat="44.77495" lon="5.06386">
        <ele>610</ele>
        <time>2020-02-07T11:21:00.000Z</time>
      </trkpt>
      <trkpt lat="44.77495" lon="5.06386">
        <ele>610</ele>
        <time>2020-02-07T11:21:01.000Z</time>
      </trkpt>
      <trkpt lat="44.77495" lon="5.06385">
        <ele>610</ele>
        <time>2020-02-07T11:21:02.000Z</time>
      </trkpt>
      <trkpt lat="44.77495" lon="5.06386">
        <ele>610</ele>
        <time>2020-02-07T11:21:03.000Z</time>
      </trkpt>
      <trkpt lat="44.77495" lon="5.06386">
        <ele>610</ele>
        <time>2020-02-07T11:21:04.000Z</time>
      </trkpt>
      <trkpt lat="44.77495" lon="5.06386">
        <ele>610</ele>
        <time>2020-02-07T11:21:05.000Z</time>
      </trkpt>
      <trkpt lat="44.77495" lon="5.06386">
        <ele>610</ele>
        <time>2020-02-07T11:21:06.000Z</time>
      </trkpt>
      <trkpt lat="44.77495" lon="5.06386">
        <ele>610</ele>
        <time>2020-02-07T11:21:07.000Z</time>
      </trkpt>
      <trkpt lat="44.77495" lon="5.06385">
        <ele>610</ele>
        <time>2020-02-07T11:21:08.000Z</time>
      </trkpt>
      <trkpt lat="44.77495" lon="5.06385">
        <ele>610</ele>
        <time>2020-02-07T11:21:09.000Z</time>
      </trkpt>
      <trkpt lat="44.77495" lon="5.06385">
        <ele>610</ele>
        <time>2020-02-07T11:21:10.000Z</time>
      </trkpt>
      <trkpt lat="44.77495" lon="5.06385">
        <ele>610</ele>
        <time>2020-02-07T11:21:11.000Z</time>
      </trkpt>
      <trkpt lat="44.77495" lon="5.06385">
        <ele>610</ele>
        <time>2020-02-07T11:21:12.000Z</time>
      </trkpt>
      <trkpt lat="44.77495" lon="5.06385">
        <ele>610</ele>
        <time>2020-02-07T11:21:13.000Z</time>
      </trkpt>
      <trkpt lat="44.77495" lon="5.06385">
        <ele>610</ele>
        <time>2020-02-07T11:21:14.000Z</time>
      </trkpt>
      <trkpt lat="44.77495" lon="5.06385">
        <ele>610</ele>
        <time>2020-02-07T11:21:15.000Z</time>
      </trkpt>
      <trkpt lat="44.77495" lon="5.06385">
        <ele>610</ele>
        <time>2020-02-07T11:21:16.000Z</time>
      </trkpt>
      <trkpt lat="44.77495" lon="5.06385">
        <ele>610</ele>
        <time>2020-02-07T11:21:17.000Z</time>
      </trkpt>
      <trkpt lat="44.77495" lon="5.06385">
        <ele>610</ele>
        <time>2020-02-07T11:21:18.000Z</time>
      </trkpt>
      <trkpt lat="44.77495" lon="5.06385">
        <ele>610</ele>
        <time>2020-02-07T11:21:19.000Z</time>
      </trkpt>
      <trkpt lat="44.77495" lon="5.06385">
        <ele>610</ele>
        <time>2020-02-07T11:21:20.000Z</time>
      </trkpt>
      <trkpt lat="44.77495" lon="5.06385">
        <ele>610</ele>
        <time>2020-02-07T11:21:21.000Z</time>
      </trkpt>
      <trkpt lat="44.77495" lon="5.06385">
        <ele>610</ele>
        <time>2020-02-07T11:21:22.000Z</time>
      </trkpt>
      <trkpt lat="44.77495" lon="5.06385">
        <ele>610</ele>
        <time>2020-02-07T11:21:23.000Z</time>
      </trkpt>
      <trkpt lat="44.77495" lon="5.06384">
        <ele>611</ele>
        <time>2020-02-07T11:21:24.000Z</time>
      </trkpt>
      <trkpt lat="44.77496" lon="5.06384">
        <ele>611</ele>
        <time>2020-02-07T11:21:25.000Z</time>
      </trkpt>
      <trkpt lat="44.77496" lon="5.06383">
        <ele>611</ele>
        <time>2020-02-07T11:21:26.000Z</time>
      </trkpt>
      <trkpt lat="44.77496" lon="5.06382">
        <ele>611</ele>
        <time>2020-02-07T11:21:27.000Z</time>
      </trkpt>
      <trkpt lat="44.77496" lon="5.06382">
        <ele>611</ele>
        <time>2020-02-07T11:21:28.000Z</time>
      </trkpt>
      <trkpt lat="44.77496" lon="5.06381">
        <ele>611</ele>
        <time>2020-02-07T11:21:29.000Z</time>
      </trkpt>
      <trkpt lat="44.77496" lon="5.0638">
        <ele>611</ele>
        <time>2020-02-07T11:21:30.000Z</time>
      </trkpt>
      <trkpt lat="44.77496" lon="5.06379">
        <ele>611</ele>
        <time>2020-02-07T11:21:31.000Z</time>
      </trkpt>
      <trkpt lat="44.77496" lon="5.06378">
        <ele>611</ele>
        <time>2020-02-07T11:21:32.000Z</time>
      </trkpt>
      <trkpt lat="44.77497" lon="5.06377">
        <ele>611</ele>
        <time>2020-02-07T11:21:33.000Z</time>
      </trkpt>
      <trkpt lat="44.77497" lon="5.06377">
        <ele>610</ele>
        <time>2020-02-07T11:21:34.000Z</time>
      </trkpt>
      <trkpt lat="44.77496" lon="5.06377">
        <ele>610</ele>
        <time>2020-02-07T11:21:35.000Z</time>
      </trkpt>
      <trkpt lat="44.77497" lon="5.06377">
        <ele>610</ele>
        <time>2020-02-07T11:21:36.000Z</time>
      </trkpt>
      <trkpt lat="44.77496" lon="5.06377">
        <ele>610</ele>
        <time>2020-02-07T11:21:37.000Z</time>
      </trkpt>
      <trkpt lat="44.77496" lon="5.06377">
        <ele>610</ele>
        <time>2020-02-07T11:21:38.000Z</time>
      </trkpt>
      <trkpt lat="44.77496" lon="5.06377">
        <ele>610</ele>
        <time>2020-02-07T11:21:39.000Z</time>
      </trkpt>
      <trkpt lat="44.77496" lon="5.06377">
        <ele>610</ele>
        <time>2020-02-07T11:21:40.000Z</time>
      </trkpt>
      <trkpt lat="44.77496" lon="5.06377">
        <ele>610</ele>
        <time>2020-02-07T11:21:41.000Z</time>
      </trkpt>
      <trkpt lat="44.77496" lon="5.06377">
        <ele>610</ele>
        <time>2020-02-07T11:21:42.000Z</time>
      </trkpt>
      <trkpt lat="44.77496" lon="5.06377">
        <ele>610</ele>
        <time>2020-02-07T11:21:43.000Z</time>
      </trkpt>
      <trkpt lat="44.77496" lon="5.06377">
        <ele>610</ele>
        <time>2020-02-07T11:21:44.000Z</time>
      </trkpt>
      <trkpt lat="44.77496" lon="5.06377">
        <ele>610</ele>
        <time>2020-02-07T11:21:45.000Z</time>
      </trkpt>
      <trkpt lat="44.77497" lon="5.06377">
        <ele>610</ele>
        <time>2020-02-07T11:21:46.000Z</time>
      </trkpt>
      <trkpt lat="44.77497" lon="5.06376">
        <ele>610</ele>
        <time>2020-02-07T11:21:47.000Z</time>
      </trkpt>
      <trkpt lat="44.77498" lon="5.06376">
        <ele>610</ele>
        <time>2020-02-07T11:21:48.000Z</time>
      </trkpt>
      <trkpt lat="44.77498" lon="5.06376">
        <ele>610</ele>
        <time>2020-02-07T11:21:49.000Z</time>
      </trkpt>
      <trkpt lat="44.77499" lon="5.06376">
        <ele>610</ele>
        <time>2020-02-07T11:21:50.000Z</time>
      </trkpt>
      <trkpt lat="44.77499" lon="5.06376">
        <ele>610</ele>
        <time>2020-02-07T11:21:51.000Z</time>
      </trkpt>
      <trkpt lat="44.775" lon="5.06376">
        <ele>610</ele>
        <time>2020-02-07T11:21:52.000Z</time>
      </trkpt>
      <trkpt lat="44.77501" lon="5.06376">
        <ele>610</ele>
        <time>2020-02-07T11:21:53.000Z</time>
      </trkpt>
      <trkpt lat="44.77502" lon="5.06377">
        <ele>610</ele>
        <time>2020-02-07T11:21:54.000Z</time>
      </trkpt>
      <trkpt lat="44.77502" lon="5.06378">
        <ele>610</ele>
        <time>2020-02-07T11:21:55.000Z</time>
      </trkpt>
      <trkpt lat="44.77503" lon="5.06378">
        <ele>610</ele>
        <time>2020-02-07T11:21:56.000Z</time>
      </trkpt>
      <trkpt lat="44.77503" lon="5.06378">
        <ele>610</ele>
        <time>2020-02-07T11:21:57.000Z</time>
      </trkpt>
      <trkpt lat="44.77503" lon="5.06378">
        <ele>610</ele>
        <time>2020-02-07T11:21:58.000Z</time>
      </trkpt>
      <trkpt lat="44.77503" lon="5.06378">
        <ele>610</ele>
        <time>2020-02-07T11:21:59.000Z</time>
      </trkpt>
      <trkpt lat="44.77503" lon="5.06378">
        <ele>610</ele>
        <time>2020-02-07T11:22:00.000Z</time>
      </trkpt>
      <trkpt lat="44.77503" lon="5.06378">
        <ele>610</ele>
        <time>2020-02-07T11:22:01.000Z</time>
      </trkpt>
      <trkpt lat="44.77503" lon="5.06378">
        <ele>610</ele>
        <time>2020-02-07T11:22:02.000Z</time>
      </trkpt>
      <trkpt lat="44.77503" lon="5.06378">
        <ele>610</ele>
        <time>2020-02-07T11:22:03.000Z</time>
      </trkpt>
      <trkpt lat="44.77503" lon="5.06378">
        <ele>610</ele>
        <time>2020-02-07T11:22:04.000Z</time>
      </trkpt>
      <trkpt lat="44.77503" lon="5.06378">
        <ele>610</ele>
        <time>2020-02-07T11:22:05.000Z</time>
      </trkpt>
      <trkpt lat="44.77503" lon="5.06378">
        <ele>610</ele>
        <time>2020-02-07T11:22:06.000Z</time>
      </trkpt>
      <trkpt lat="44.77503" lon="5.06378">
        <ele>610</ele>
        <time>2020-02-07T11:22:07.000Z</time>
      </trkpt>
      <trkpt lat="44.77504" lon="5.06377">
        <ele>610</ele>
        <time>2020-02-07T11:22:08.000Z</time>
      </trkpt>
      <trkpt lat="44.77504" lon="5.06377">
        <ele>610</ele>
        <time>2020-02-07T11:22:09.000Z</time>
      </trkpt>
      <trkpt lat="44.77504" lon="5.06377">
        <ele>610</ele>
        <time>2020-02-07T11:22:10.000Z</time>
      </trkpt>
      <trkpt lat="44.77504" lon="5.06377">
        <ele>610</ele>
        <time>2020-02-07T11:22:11.000Z</time>
      </trkpt>
      <trkpt lat="44.77504" lon="5.06378">
        <ele>610</ele>
        <time>2020-02-07T11:22:12.000Z</time>
      </trkpt>
      <trkpt lat="44.77504" lon="5.06378">
        <ele>609</ele>
        <time>2020-02-07T11:22:13.000Z</time>
      </trkpt>
      <trkpt lat="44.77504" lon="5.06378">
        <ele>609</ele>
        <time>2020-02-07T11:22:14.000Z</time>
      </trkpt>
      <trkpt lat="44.77504" lon="5.06378">
        <ele>609</ele>
        <time>2020-02-07T11:22:15.000Z</time>
      </trkpt>
      <trkpt lat="44.77504" lon="5.06378">
        <ele>609</ele>
        <time>2020-02-07T11:22:16.000Z</time>
      </trkpt>
      <trkpt lat="44.77504" lon="5.06379">
        <ele>609</ele>
        <time>2020-02-07T11:22:17.000Z</time>
      </trkpt>
      <trkpt lat="44.77504" lon="5.06379">
        <ele>609</ele>
        <time>2020-02-07T11:22:18.000Z</time>
      </trkpt>
      <trkpt lat="44.77504" lon="5.06379">
        <ele>609</ele>
        <time>2020-02-07T11:22:19.000Z</time>
      </trkpt>
      <trkpt lat="44.77504" lon="5.06379">
        <ele>609</ele>
        <time>2020-02-07T11:22:20.000Z</time>
      </trkpt>
      <trkpt lat="44.77504" lon="5.06379">
        <ele>609</ele>
        <time>2020-02-07T11:22:21.000Z</time>
      </trkpt>
      <trkpt lat="44.77504" lon="5.0638">
        <ele>609</ele>
        <time>2020-02-07T11:22:22.000Z</time>
      </trkpt>
      <trkpt lat="44.77504" lon="5.0638">
        <ele>608</ele>
        <time>2020-02-07T11:22:23.000Z</time>
      </trkpt>
      <trkpt lat="44.77504" lon="5.0638">
        <ele>608</ele>
        <time>2020-02-07T11:22:24.000Z</time>
      </trkpt>
      <trkpt lat="44.77504" lon="5.0638">
        <ele>608</ele>
        <time>2020-02-07T11:22:25.000Z</time>
      </trkpt>
      <trkpt lat="44.77504" lon="5.0638">
        <ele>608</ele>
        <time>2020-02-07T11:22:26.000Z</time>
      </trkpt>
      <trkpt lat="44.77505" lon="5.0638">
        <ele>608</ele>
        <time>2020-02-07T11:22:27.000Z</time>
      </trkpt>
      <trkpt lat="44.77505" lon="5.0638">
        <ele>608</ele>
        <time>2020-02-07T11:22:28.000Z</time>
      </trkpt>
      <trkpt lat="44.77505" lon="5.0638">
        <ele>608</ele>
        <time>2020-02-07T11:22:29.000Z</time>
      </trkpt>
      <trkpt lat="44.77505" lon="5.0638">
        <ele>608</ele>
        <time>2020-02-07T11:22:30.000Z</time>
      </trkpt>
      <trkpt lat="44.77505" lon="5.0638">
        <ele>608</ele>
        <time>2020-02-07T11:22:31.000Z</time>
      </trkpt>
      <trkpt lat="44.77505" lon="5.0638">
        <ele>608</ele>
        <time>2020-02-07T11:22:32.000Z</time>
      </trkpt>
      <trkpt lat="44.77505" lon="5.06381">
        <ele>608</ele>
        <time>2020-02-07T11:22:33.000Z</time>
      </trkpt>
      <trkpt lat="44.77505" lon="5.06381">
        <ele>608</ele>
        <time>2020-02-07T11:22:34.000Z</time>
      </trkpt>
      <trkpt lat="44.77505" lon="5.06381">
        <ele>608</ele>
        <time>2020-02-07T11:22:35.000Z</time>
      </trkpt>
      <trkpt lat="44.77505" lon="5.06381">
        <ele>608</ele>
        <time>2020-02-07T11:22:36.000Z</time>
      </trkpt>
      <trkpt lat="44.77505" lon="5.06381">
        <ele>608</ele>
        <time>2020-02-07T11:22:37.000Z</time>
      </trkpt>
      <trkpt lat="44.77506" lon="5.06381">
        <ele>609</ele>
        <time>2020-02-07T11:22:38.000Z</time>
      </trkpt>
      <trkpt lat="44.77506" lon="5.06381">
        <ele>609</ele>
        <time>2020-02-07T11:22:39.000Z</time>
      </trkpt>
      <trkpt lat="44.77506" lon="5.06381">
        <ele>609</ele>
        <time>2020-02-07T11:22:40.000Z</time>
      </trkpt>
      <trkpt lat="44.77506" lon="5.06382">
        <ele>609</ele>
        <time>2020-02-07T11:22:41.000Z</time>
      </trkpt>
      <trkpt lat="44.77506" lon="5.06382">
        <ele>609</ele>
        <time>2020-02-07T11:22:42.000Z</time>
      </trkpt>
      <trkpt lat="44.77506" lon="5.06382">
        <ele>609</ele>
        <time>2020-02-07T11:22:43.000Z</time>
      </trkpt>
      <trkpt lat="44.77506" lon="5.06381">
        <ele>609</ele>
        <time>2020-02-07T11:22:44.000Z</time>
      </trkpt>
      <trkpt lat="44.77506" lon="5.06381">
        <ele>609</ele>
        <time>2020-02-07T11:22:45.000Z</time>
      </trkpt>
      <trkpt lat="44.77506" lon="5.06381">
        <ele>609</ele>
        <time>2020-02-07T11:22:46.000Z</time>
      </trkpt>
      <trkpt lat="44.77506" lon="5.06381">
        <ele>609</ele>
        <time>2020-02-07T11:22:47.000Z</time>
      </trkpt>
      <trkpt lat="44.77506" lon="5.06381">
        <ele>609</ele>
        <time>2020-02-07T11:22:48.000Z</time>
      </trkpt>
      <trkpt lat="44.77506" lon="5.06381">
        <ele>609</ele>
        <time>2020-02-07T11:22:49.000Z</time>
      </trkpt>
      <trkpt lat="44.77506" lon="5.06381">
        <ele>609</ele>
        <time>2020-02-07T11:22:50.000Z</time>
      </trkpt>
      <trkpt lat="44.77506" lon="5.06381">
        <ele>609</ele>
        <time>2020-02-07T11:22:51.000Z</time>
      </trkpt>
      <trkpt lat="44.77506" lon="5.06381">
        <ele>609</ele>
        <time>2020-02-07T11:22:52.000Z</time>
      </trkpt>
      <trkpt lat="44.77506" lon="5.06381">
        <ele>608</ele>
        <time>2020-02-07T11:22:53.000Z</time>
      </trkpt>
      <trkpt lat="44.77506" lon="5.06382">
        <ele>608</ele>
        <time>2020-02-07T11:22:54.000Z</time>
      </trkpt>
      <trkpt lat="44.77506" lon="5.06382">
        <ele>608</ele>
        <time>2020-02-07T11:22:55.000Z</time>
      </trkpt>
      <trkpt lat="44.77506" lon="5.06382">
        <ele>608</ele>
        <time>2020-02-07T11:22:56.000Z</time>
      </trkpt>
      <trkpt lat="44.77506" lon="5.06382">
        <ele>608</ele>
        <time>2020-02-07T11:22:57.000Z</time>
      </trkpt>
      <trkpt lat="44.77506" lon="5.06382">
        <ele>608</ele>
        <time>2020-02-07T11:22:58.000Z</time>
      </trkpt>
      <trkpt lat="44.77506" lon="5.06382">
        <ele>608</ele>
        <time>2020-02-07T11:22:59.000Z</time>
      </trkpt>
      <trkpt lat="44.77506" lon="5.06382">
        <ele>608</ele>
        <time>2020-02-07T11:23:00.000Z</time>
      </trkpt>
      <trkpt lat="44.77506" lon="5.06382">
        <ele>608</ele>
        <time>2020-02-07T11:23:01.000Z</time>
      </trkpt>
      <trkpt lat="44.77506" lon="5.06382">
        <ele>608</ele>
        <time>2020-02-07T11:23:02.000Z</time>
      </trkpt>
      <trkpt lat="44.77506" lon="5.06382">
        <ele>608</ele>
        <time>2020-02-07T11:23:03.000Z</time>
      </trkpt>
      <trkpt lat="44.77506" lon="5.06382">
        <ele>608</ele>
        <time>2020-02-07T11:23:04.000Z</time>
      </trkpt>
      <trkpt lat="44.77506" lon="5.06382">
        <ele>608</ele>
        <time>2020-02-07T11:23:05.000Z</time>
      </trkpt>
      <trkpt lat="44.77506" lon="5.06382">
        <ele>608</ele>
        <time>2020-02-07T11:23:06.000Z</time>
      </trkpt>
      <trkpt lat="44.77505" lon="5.06382">
        <ele>608</ele>
        <time>2020-02-07T11:23:07.000Z</time>
      </trkpt>
      <trkpt lat="44.77505" lon="5.06382">
        <ele>608</ele>
        <time>2020-02-07T11:23:08.000Z</time>
      </trkpt>
      <trkpt lat="44.77505" lon="5.06382">
        <ele>608</ele>
        <time>2020-02-07T11:23:09.000Z</time>
      </trkpt>
      <trkpt lat="44.77505" lon="5.06382">
        <ele>608</ele>
        <time>2020-02-07T11:23:10.000Z</time>
      </trkpt>
      <trkpt lat="44.77505" lon="5.06382">
        <ele>608</ele>
        <time>2020-02-07T11:23:11.000Z</time>
      </trkpt>
      <trkpt lat="44.77505" lon="5.06382">
        <ele>608</ele>
        <time>2020-02-07T11:23:12.000Z</time>
      </trkpt>
      <trkpt lat="44.77505" lon="5.06382">
        <ele>608</ele>
        <time>2020-02-07T11:23:13.000Z</time>
      </trkpt>
      <trkpt lat="44.77505" lon="5.06382">
        <ele>608</ele>
        <time>2020-02-07T11:23:14.000Z</time>
      </trkpt>
      <trkpt lat="44.77505" lon="5.06382">
        <ele>608</ele>
        <time>2020-02-07T11:23:15.000Z</time>
      </trkpt>
      <trkpt lat="44.77505" lon="5.06382">
        <ele>608</ele>
        <time>2020-02-07T11:23:16.000Z</time>
      </trkpt>
      <trkpt lat="44.77505" lon="5.06382">
        <ele>608</ele>
        <time>2020-02-07T11:23:17.000Z</time>
      </trkpt>
      <trkpt lat="44.77505" lon="5.06382">
        <ele>608</ele>
        <time>2020-02-07T11:23:18.000Z</time>
      </trkpt>
      <trkpt lat="44.77505" lon="5.06382">
        <ele>608</ele>
        <time>2020-02-07T11:23:19.000Z</time>
      </trkpt>
      <trkpt lat="44.77505" lon="5.06382">
        <ele>608</ele>
        <time>2020-02-07T11:23:20.000Z</time>
      </trkpt>
      <trkpt lat="44.77505" lon="5.06382">
        <ele>608</ele>
        <time>2020-02-07T11:23:21.000Z</time>
      </trkpt>
      <trkpt lat="44.77505" lon="5.06382">
        <ele>608</ele>
        <time>2020-02-07T11:23:22.000Z</time>
      </trkpt>
      <trkpt lat="44.77505" lon="5.06382">
        <ele>608</ele>
        <time>2020-02-07T11:23:23.000Z</time>
      </trkpt>
      <trkpt lat="44.77505" lon="5.06382">
        <ele>608</ele>
        <time>2020-02-07T11:23:24.000Z</time>
      </trkpt>
      <trkpt lat="44.77505" lon="5.06382">
        <ele>608</ele>
        <time>2020-02-07T11:23:25.000Z</time>
      </trkpt>
      <trkpt lat="44.77505" lon="5.06382">
        <ele>608</ele>
        <time>2020-02-07T11:23:26.000Z</time>
      </trkpt>
      <trkpt lat="44.77505" lon="5.06382">
        <ele>608</ele>
        <time>2020-02-07T11:23:27.000Z</time>
      </trkpt>
      <trkpt lat="44.77505" lon="5.06382">
        <ele>608</ele>
        <time>2020-02-07T11:23:28.000Z</time>
      </trkpt>
      <trkpt lat="44.77505" lon="5.06382">
        <ele>608</ele>
        <time>2020-02-07T11:23:29.000Z</time>
      </trkpt>
      <trkpt lat="44.77505" lon="5.06382">
        <ele>608</ele>
        <time>2020-02-07T11:23:30.000Z</time>
      </trkpt>
      <trkpt lat="44.77505" lon="5.06382">
        <ele>608</ele>
        <time>2020-02-07T11:23:31.000Z</time>
      </trkpt>
      <trkpt lat="44.77505" lon="5.06383">
        <ele>608</ele>
        <time>2020-02-07T11:23:32.000Z</time>
      </trkpt>
      <trkpt lat="44.77505" lon="5.06383">
        <ele>608</ele>
        <time>2020-02-07T11:23:33.000Z</time>
      </trkpt>
      <trkpt lat="44.77505" lon="5.06382">
        <ele>608</ele>
        <time>2020-02-07T11:23:34.000Z</time>
      </trkpt>
      <trkpt lat="44.77505" lon="5.06382">
        <ele>607</ele>
        <time>2020-02-07T11:23:35.000Z</time>
      </trkpt>
      <trkpt lat="44.77505" lon="5.06382">
        <ele>608</ele>
        <time>2020-02-07T11:23:36.000Z</time>
      </trkpt>
      <trkpt lat="44.77505" lon="5.06382">
        <ele>608</ele>
        <time>2020-02-07T11:23:37.000Z</time>
      </trkpt>
      <trkpt lat="44.77505" lon="5.06382">
        <ele>608</ele>
        <time>2020-02-07T11:23:38.000Z</time>
      </trkpt>
      <trkpt lat="44.77505" lon="5.06382">
        <ele>608</ele>
        <time>2020-02-07T11:23:39.000Z</time>
      </trkpt>
      <trkpt lat="44.77505" lon="5.06382">
        <ele>608</ele>
        <time>2020-02-07T11:23:40.000Z</time>
      </trkpt>
      <trkpt lat="44.77506" lon="5.06382">
        <ele>608</ele>
        <time>2020-02-07T11:23:41.000Z</time>
      </trkpt>
      <trkpt lat="44.77506" lon="5.06382">
        <ele>608</ele>
        <time>2020-02-07T11:23:42.000Z</time>
      </trkpt>
      <trkpt lat="44.77506" lon="5.06382">
        <ele>608</ele>
        <time>2020-02-07T11:23:43.000Z</time>
      </trkpt>
      <trkpt lat="44.77506" lon="5.06382">
        <ele>608</ele>
        <time>2020-02-07T11:23:44.000Z</time>
      </trkpt>
      <trkpt lat="44.77505" lon="5.06382">
        <ele>608</ele>
        <time>2020-02-07T11:23:45.000Z</time>
      </trkpt>
      <trkpt lat="44.77505" lon="5.06382">
        <ele>608</ele>
        <time>2020-02-07T11:23:46.000Z</time>
      </trkpt>
      <trkpt lat="44.77505" lon="5.06382">
        <ele>607</ele>
        <time>2020-02-07T11:23:47.000Z</time>
      </trkpt>
      <trkpt lat="44.77505" lon="5.06382">
        <ele>607</ele>
        <time>2020-02-07T11:23:48.000Z</time>
      </trkpt>
      <trkpt lat="44.77505" lon="5.06382">
        <ele>607</ele>
        <time>2020-02-07T11:23:49.000Z</time>
      </trkpt>
      <trkpt lat="44.77505" lon="5.06382">
        <ele>607</ele>
        <time>2020-02-07T11:23:50.000Z</time>
      </trkpt>
      <trkpt lat="44.77505" lon="5.06382">
        <ele>607</ele>
        <time>2020-02-07T11:23:51.000Z</time>
      </trkpt>
      <trkpt lat="44.77504" lon="5.06382">
        <ele>607</ele>
        <time>2020-02-07T11:23:52.000Z</time>
      </trkpt>
      <trkpt lat="44.77504" lon="5.06382">
        <ele>607</ele>
        <time>2020-02-07T11:23:53.000Z</time>
      </trkpt>
      <trkpt lat="44.77504" lon="5.06381">
        <ele>607</ele>
        <time>2020-02-07T11:23:54.000Z</time>
      </trkpt>
      <trkpt lat="44.77504" lon="5.06381">
        <ele>607</ele>
        <time>2020-02-07T11:23:55.000Z</time>
      </trkpt>
      <trkpt lat="44.77504" lon="5.06381">
        <ele>607</ele>
        <time>2020-02-07T11:23:56.000Z</time>
      </trkpt>
      <trkpt lat="44.77504" lon="5.06381">
        <ele>607</ele>
        <time>2020-02-07T11:23:57.000Z</time>
      </trkpt>
      <trkpt lat="44.77504" lon="5.06381">
        <ele>607</ele>
        <time>2020-02-07T11:23:58.000Z</time>
      </trkpt>
      <trkpt lat="44.77504" lon="5.0638">
        <ele>607</ele>
        <time>2020-02-07T11:23:59.000Z</time>
      </trkpt>
      <trkpt lat="44.77504" lon="5.0638">
        <ele>607</ele>
        <time>2020-02-07T11:24:00.000Z</time>
      </trkpt>
      <trkpt lat="44.77504" lon="5.0638">
        <ele>608</ele>
        <time>2020-02-07T11:24:01.000Z</time>
      </trkpt>
      <trkpt lat="44.77504" lon="5.0638">
        <ele>608</ele>
        <time>2020-02-07T11:24:02.000Z</time>
      </trkpt>
      <trkpt lat="44.77504" lon="5.0638">
        <ele>608</ele>
        <time>2020-02-07T11:24:03.000Z</time>
      </trkpt>
      <trkpt lat="44.77504" lon="5.0638">
        <ele>608</ele>
        <time>2020-02-07T11:24:04.000Z</time>
      </trkpt>
      <trkpt lat="44.77504" lon="5.0638">
        <ele>608</ele>
        <time>2020-02-07T11:24:05.000Z</time>
      </trkpt>
      <trkpt lat="44.77504" lon="5.06379">
        <ele>608</ele>
        <time>2020-02-07T11:24:06.000Z</time>
      </trkpt>
      <trkpt lat="44.77504" lon="5.06379">
        <ele>608</ele>
        <time>2020-02-07T11:24:07.000Z</time>
      </trkpt>
      <trkpt lat="44.77504" lon="5.06379">
        <ele>608</ele>
        <time>2020-02-07T11:24:08.000Z</time>
      </trkpt>
      <trkpt lat="44.77504" lon="5.06379">
        <ele>608</ele>
        <time>2020-02-07T11:24:09.000Z</time>
      </trkpt>
      <trkpt lat="44.77504" lon="5.06379">
        <ele>608</ele>
        <time>2020-02-07T11:24:10.000Z</time>
      </trkpt>
      <trkpt lat="44.77504" lon="5.06379">
        <ele>608</ele>
        <time>2020-02-07T11:24:11.000Z</time>
      </trkpt>
      <trkpt lat="44.77504" lon="5.06379">
        <ele>608</ele>
        <time>2020-02-07T11:24:12.000Z</time>
      </trkpt>
      <trkpt lat="44.77504" lon="5.06379">
        <ele>608</ele>
        <time>2020-02-07T11:24:13.000Z</time>
      </trkpt>
      <trkpt lat="44.77504" lon="5.06379">
        <ele>608</ele>
        <time>2020-02-07T11:24:14.000Z</time>
      </trkpt>
      <trkpt lat="44.77504" lon="5.06379">
        <ele>608</ele>
        <time>2020-02-07T11:24:15.000Z</time>
      </trkpt>
      <trkpt lat="44.77504" lon="5.06378">
        <ele>608</ele>
        <time>2020-02-07T11:24:16.000Z</time>
      </trkpt>
      <trkpt lat="44.77504" lon="5.06378">
        <ele>608</ele>
        <time>2020-02-07T11:24:17.000Z</time>
      </trkpt>
      <trkpt lat="44.77504" lon="5.06378">
        <ele>608</ele>
        <time>2020-02-07T11:24:18.000Z</time>
      </trkpt>
      <trkpt lat="44.77504" lon="5.06378">
        <ele>608</ele>
        <time>2020-02-07T11:24:19.000Z</time>
      </trkpt>
      <trkpt lat="44.77504" lon="5.06377">
        <ele>608</ele>
        <time>2020-02-07T11:24:20.000Z</time>
      </trkpt>
      <trkpt lat="44.77504" lon="5.06377">
        <ele>608</ele>
        <time>2020-02-07T11:24:21.000Z</time>
      </trkpt>
      <trkpt lat="44.77504" lon="5.06377">
        <ele>608</ele>
        <time>2020-02-07T11:24:22.000Z</time>
      </trkpt>
      <trkpt lat="44.77504" lon="5.06377">
        <ele>608</ele>
        <time>2020-02-07T11:24:23.000Z</time>
      </trkpt>
      <trkpt lat="44.77504" lon="5.06376">
        <ele>608</ele>
        <time>2020-02-07T11:24:24.000Z</time>
      </trkpt>
      <trkpt lat="44.77504" lon="5.06376">
        <ele>608</ele>
        <time>2020-02-07T11:24:25.000Z</time>
      </trkpt>
      <trkpt lat="44.77504" lon="5.06376">
        <ele>608</ele>
        <time>2020-02-07T11:24:26.000Z</time>
      </trkpt>
      <trkpt lat="44.77504" lon="5.06376">
        <ele>608</ele>
        <time>2020-02-07T11:24:27.000Z</time>
      </trkpt>
      <trkpt lat="44.77504" lon="5.06376">
        <ele>607</ele>
        <time>2020-02-07T11:24:28.000Z</time>
      </trkpt>
      <trkpt lat="44.77504" lon="5.06376">
        <ele>607</ele>
        <time>2020-02-07T11:24:29.000Z</time>
      </trkpt>
      <trkpt lat="44.77504" lon="5.06376">
        <ele>607</ele>
        <time>2020-02-07T11:24:30.000Z</time>
      </trkpt>
      <trkpt lat="44.77504" lon="5.06376">
        <ele>607</ele>
        <time>2020-02-07T11:24:31.000Z</time>
      </trkpt>
      <trkpt lat="44.77504" lon="5.06376">
        <ele>607</ele>
        <time>2020-02-07T11:24:32.000Z</time>
      </trkpt>
      <trkpt lat="44.77504" lon="5.06376">
        <ele>607</ele>
        <time>2020-02-07T11:24:33.000Z</time>
      </trkpt>
      <trkpt lat="44.77504" lon="5.06376">
        <ele>607</ele>
        <time>2020-02-07T11:24:34.000Z</time>
      </trkpt>
      <trkpt lat="44.77504" lon="5.06377">
        <ele>607</ele>
        <time>2020-02-07T11:24:35.000Z</time>
      </trkpt>
      <trkpt lat="44.77504" lon="5.06376">
        <ele>607</ele>
        <time>2020-02-07T11:24:36.000Z</time>
      </trkpt>
      <trkpt lat="44.77504" lon="5.06376">
        <ele>607</ele>
        <time>2020-02-07T11:24:37.000Z</time>
      </trkpt>
      <trkpt lat="44.77504" lon="5.06376">
        <ele>607</ele>
        <time>2020-02-07T11:24:38.000Z</time>
      </trkpt>
      <trkpt lat="44.77505" lon="5.06375">
        <ele>607</ele>
        <time>2020-02-07T11:24:39.000Z</time>
      </trkpt>
      <trkpt lat="44.77505" lon="5.06375">
        <ele>607</ele>
        <time>2020-02-07T11:24:40.000Z</time>
      </trkpt>
      <trkpt lat="44.77505" lon="5.06375">
        <ele>607</ele>
        <time>2020-02-07T11:24:41.000Z</time>
      </trkpt>
      <trkpt lat="44.77505" lon="5.06376">
        <ele>607</ele>
        <time>2020-02-07T11:24:42.000Z</time>
      </trkpt>
      <trkpt lat="44.77505" lon="5.06376">
        <ele>607</ele>
        <time>2020-02-07T11:24:43.000Z</time>
      </trkpt>
      <trkpt lat="44.77505" lon="5.06376">
        <ele>607</ele>
        <time>2020-02-07T11:24:44.000Z</time>
      </trkpt>
      <trkpt lat="44.77505" lon="5.06376">
        <ele>607</ele>
        <time>2020-02-07T11:24:45.000Z</time>
      </trkpt>
      <trkpt lat="44.77505" lon="5.06376">
        <ele>607</ele>
        <time>2020-02-07T11:24:46.000Z</time>
      </trkpt>
      <trkpt lat="44.77505" lon="5.06376">
        <ele>607</ele>
        <time>2020-02-07T11:24:47.000Z</time>
      </trkpt>
      <trkpt lat="44.77505" lon="5.06375">
        <ele>607</ele>
        <time>2020-02-07T11:24:48.000Z</time>
      </trkpt>
      <trkpt lat="44.77505" lon="5.06375">
        <ele>607</ele>
        <time>2020-02-07T11:24:49.000Z</time>
      </trkpt>
      <trkpt lat="44.77505" lon="5.06375">
        <ele>607</ele>
        <time>2020-02-07T11:24:50.000Z</time>
      </trkpt>
      <trkpt lat="44.77505" lon="5.06375">
        <ele>607</ele>
        <time>2020-02-07T11:24:51.000Z</time>
      </trkpt>
      <trkpt lat="44.77505" lon="5.06375">
        <ele>607</ele>
        <time>2020-02-07T11:24:52.000Z</time>
      </trkpt>
      <trkpt lat="44.77506" lon="5.06375">
        <ele>607</ele>
        <time>2020-02-07T11:24:53.000Z</time>
      </trkpt>
      <trkpt lat="44.77506" lon="5.06375">
        <ele>608</ele>
        <time>2020-02-07T11:24:54.000Z</time>
      </trkpt>
      <trkpt lat="44.77506" lon="5.06375">
        <ele>608</ele>
        <time>2020-02-07T11:24:55.000Z</time>
      </trkpt>
      <trkpt lat="44.77506" lon="5.06375">
        <ele>608</ele>
        <time>2020-02-07T11:24:56.000Z</time>
      </trkpt>
      <trkpt lat="44.77506" lon="5.06375">
        <ele>608</ele>
        <time>2020-02-07T11:24:57.000Z</time>
      </trkpt>
      <trkpt lat="44.77505" lon="5.06375">
        <ele>608</ele>
        <time>2020-02-07T11:24:58.000Z</time>
      </trkpt>
      <trkpt lat="44.77505" lon="5.06375">
        <ele>608</ele>
        <time>2020-02-07T11:24:59.000Z</time>
      </trkpt>
      <trkpt lat="44.77505" lon="5.06375">
        <ele>608</ele>
        <time>2020-02-07T11:25:00.000Z</time>
      </trkpt>
      <trkpt lat="44.77505" lon="5.06375">
        <ele>607</ele>
        <time>2020-02-07T11:25:01.000Z</time>
      </trkpt>
      <trkpt lat="44.77505" lon="5.06376">
        <ele>607</ele>
        <time>2020-02-07T11:25:02.000Z</time>
      </trkpt>
      <trkpt lat="44.77505" lon="5.06376">
        <ele>607</ele>
        <time>2020-02-07T11:25:03.000Z</time>
      </trkpt>
      <trkpt lat="44.77505" lon="5.06376">
        <ele>607</ele>
        <time>2020-02-07T11:25:04.000Z</time>
      </trkpt>
      <trkpt lat="44.77505" lon="5.06376">
        <ele>607</ele>
        <time>2020-02-07T11:25:05.000Z</time>
      </trkpt>
      <trkpt lat="44.77505" lon="5.06376">
        <ele>607</ele>
        <time>2020-02-07T11:25:06.000Z</time>
      </trkpt>
      <trkpt lat="44.77505" lon="5.06376">
        <ele>607</ele>
        <time>2020-02-07T11:25:07.000Z</time>
      </trkpt>
      <trkpt lat="44.77505" lon="5.06376">
        <ele>607</ele>
        <time>2020-02-07T11:25:08.000Z</time>
      </trkpt>
      <trkpt lat="44.77505" lon="5.06376">
        <ele>607</ele>
        <time>2020-02-07T11:25:09.000Z</time>
      </trkpt>
      <trkpt lat="44.77505" lon="5.06376">
        <ele>607</ele>
        <time>2020-02-07T11:25:10.000Z</time>
      </trkpt>
      <trkpt lat="44.77505" lon="5.06376">
        <ele>607</ele>
        <time>2020-02-07T11:25:11.000Z</time>
      </trkpt>
      <trkpt lat="44.77505" lon="5.06376">
        <ele>607</ele>
        <time>2020-02-07T11:25:12.000Z</time>
      </trkpt>
      <trkpt lat="44.77505" lon="5.06376">
        <ele>607</ele>
        <time>2020-02-07T11:25:13.000Z</time>
      </trkpt>
      <trkpt lat="44.77505" lon="5.06376">
        <ele>607</ele>
        <time>2020-02-07T11:25:14.000Z</time>
      </trkpt>
      <trkpt lat="44.77505" lon="5.06376">
        <ele>607</ele>
        <time>2020-02-07T11:25:15.000Z</time>
      </trkpt>
      <trkpt lat="44.77505" lon="5.06376">
        <ele>607</ele>
        <time>2020-02-07T11:25:16.000Z</time>
      </trkpt>
      <trkpt lat="44.77505" lon="5.06376">
        <ele>607</ele>
        <time>2020-02-07T11:25:17.000Z</time>
      </trkpt>
      <trkpt lat="44.77505" lon="5.06376">
        <ele>607</ele>
        <time>2020-02-07T11:25:18.000Z</time>
      </trkpt>
      <trkpt lat="44.77505" lon="5.06376">
        <ele>607</ele>
        <time>2020-02-07T11:25:19.000Z</time>
      </trkpt>
      <trkpt lat="44.77505" lon="5.06376">
        <ele>607</ele>
        <time>2020-02-07T11:25:20.000Z</time>
      </trkpt>
      <trkpt lat="44.77505" lon="5.06376">
        <ele>607</ele>
        <time>2020-02-07T11:25:21.000Z</time>
      </trkpt>
      <trkpt lat="44.77505" lon="5.06376">
        <ele>607</ele>
        <time>2020-02-07T11:25:22.000Z</time>
      </trkpt>
      <trkpt lat="44.77505" lon="5.06376">
        <ele>607</ele>
        <time>2020-02-07T11:25:23.000Z</time>
      </trkpt>
      <trkpt lat="44.77505" lon="5.06376">
        <ele>607</ele>
        <time>2020-02-07T11:25:24.000Z</time>
      </trkpt>
      <trkpt lat="44.77505" lon="5.06376">
        <ele>607</ele>
        <time>2020-02-07T11:25:25.000Z</time>
      </trkpt>
      <trkpt lat="44.77505" lon="5.06376">
        <ele>607</ele>
        <time>2020-02-07T11:25:26.000Z</time>
      </trkpt>
      <trkpt lat="44.77505" lon="5.06376">
        <ele>607</ele>
        <time>2020-02-07T11:25:27.000Z</time>
      </trkpt>
      <trkpt lat="44.77505" lon="5.06376">
        <ele>607</ele>
        <time>2020-02-07T11:25:28.000Z</time>
      </trkpt>
      <trkpt lat="44.77505" lon="5.06376">
        <ele>607</ele>
        <time>2020-02-07T11:25:29.000Z</time>
      </trkpt>
      <trkpt lat="44.77505" lon="5.06376">
        <ele>607</ele>
        <time>2020-02-07T11:25:30.000Z</time>
      </trkpt>
      <trkpt lat="44.77505" lon="5.06376">
        <ele>607</ele>
        <time>2020-02-07T11:25:31.000Z</time>
      </trkpt>
      <trkpt lat="44.77505" lon="5.06376">
        <ele>607</ele>
        <time>2020-02-07T11:25:32.000Z</time>
      </trkpt>
      <trkpt lat="44.77505" lon="5.06376">
        <ele>607</ele>
        <time>2020-02-07T11:25:33.000Z</time>
      </trkpt>
      <trkpt lat="44.77505" lon="5.06376">
        <ele>607</ele>
        <time>2020-02-07T11:25:34.000Z</time>
      </trkpt>
      <trkpt lat="44.77505" lon="5.06376">
        <ele>607</ele>
        <time>2020-02-07T11:25:35.000Z</time>
      </trkpt>
      <trkpt lat="44.77505" lon="5.06376">
        <ele>607</ele>
        <time>2020-02-07T11:25:36.000Z</time>
      </trkpt>
      <trkpt lat="44.77505" lon="5.06376">
        <ele>607</ele>
        <time>2020-02-07T11:25:37.000Z</time>
      </trkpt>
      <trkpt lat="44.77505" lon="5.06376">
        <ele>607</ele>
        <time>2020-02-07T11:25:38.000Z</time>
      </trkpt>
      <trkpt lat="44.77505" lon="5.06376">
        <ele>607</ele>
        <time>2020-02-07T11:25:39.000Z</time>
      </trkpt>
      <trkpt lat="44.77505" lon="5.06376">
        <ele>607</ele>
        <time>2020-02-07T11:25:40.000Z</time>
      </trkpt>
      <trkpt lat="44.77505" lon="5.06376">
        <ele>607</ele>
        <time>2020-02-07T11:25:41.000Z</time>
      </trkpt>
      <trkpt lat="44.77505" lon="5.06376">
        <ele>607</ele>
        <time>2020-02-07T11:25:42.000Z</time>
      </trkpt>
      <trkpt lat="44.77505" lon="5.06376">
        <ele>607</ele>
        <time>2020-02-07T11:25:43.000Z</time>
      </trkpt>
      <trkpt lat="44.77505" lon="5.06376">
        <ele>607</ele>
        <time>2020-02-07T11:25:44.000Z</time>
      </trkpt>
      <trkpt lat="44.77504" lon="5.06376">
        <ele>607</ele>
        <time>2020-02-07T11:25:45.000Z</time>
      </trkpt>
      <trkpt lat="44.77504" lon="5.06376">
        <ele>607</ele>
        <time>2020-02-07T11:25:46.000Z</time>
      </trkpt>
      <trkpt lat="44.77504" lon="5.06376">
        <ele>607</ele>
        <time>2020-02-07T11:25:47.000Z</time>
      </trkpt>
      <trkpt lat="44.77504" lon="5.06376">
        <ele>607</ele>
        <time>2020-02-07T11:25:48.000Z</time>
      </trkpt>
      <trkpt lat="44.77504" lon="5.06376">
        <ele>607</ele>
        <time>2020-02-07T11:25:49.000Z</time>
      </trkpt>
      <trkpt lat="44.77504" lon="5.06376">
        <ele>607</ele>
        <time>2020-02-07T11:25:50.000Z</time>
      </trkpt>
      <trkpt lat="44.77505" lon="5.06376">
        <ele>607</ele>
        <time>2020-02-07T11:25:51.000Z</time>
      </trkpt>
      <trkpt lat="44.77505" lon="5.06376">
        <ele>607</ele>
        <time>2020-02-07T11:25:52.000Z</time>
      </trkpt>
      <trkpt lat="44.77505" lon="5.06376">
        <ele>607</ele>
        <time>2020-02-07T11:25:53.000Z</time>
      </trkpt>
      <trkpt lat="44.77505" lon="5.06376">
        <ele>607</ele>
        <time>2020-02-07T11:25:54.000Z</time>
      </trkpt>
      <trkpt lat="44.77505" lon="5.06376">
        <ele>607</ele>
        <time>2020-02-07T11:25:55.000Z</time>
      </trkpt>
      <trkpt lat="44.77505" lon="5.06376">
        <ele>607</ele>
        <time>2020-02-07T11:25:56.000Z</time>
      </trkpt>
      <trkpt lat="44.77505" lon="5.06376">
        <ele>607</ele>
        <time>2020-02-07T11:25:57.000Z</time>
      </trkpt>
      <trkpt lat="44.77505" lon="5.06376">
        <ele>607</ele>
        <time>2020-02-07T11:25:58.000Z</time>
      </trkpt>
      <trkpt lat="44.77505" lon="5.06376">
        <ele>607</ele>
        <time>2020-02-07T11:25:59.000Z</time>
      </trkpt>
      <trkpt lat="44.77505" lon="5.06376">
        <ele>607</ele>
        <time>2020-02-07T11:26:00.000Z</time>
      </trkpt>
      <trkpt lat="44.77505" lon="5.06376">
        <ele>607</ele>
        <time>2020-02-07T11:26:01.000Z</time>
      </trkpt>
      <trkpt lat="44.77505" lon="5.06376">
        <ele>607</ele>
        <time>2020-02-07T11:26:02.000Z</time>
      </trkpt>
      <trkpt lat="44.77505" lon="5.06376">
        <ele>607</ele>
        <time>2020-02-07T11:26:03.000Z</time>
      </trkpt>
      <trkpt lat="44.77504" lon="5.06376">
        <ele>607</ele>
        <time>2020-02-07T11:26:04.000Z</time>
      </trkpt>
      <trkpt lat="44.77504" lon="5.06377">
        <ele>607</ele>
        <time>2020-02-07T11:26:05.000Z</time>
      </trkpt>
      <trkpt lat="44.77505" lon="5.06377">
        <ele>607</ele>
        <time>2020-02-07T11:26:06.000Z</time>
      </trkpt>
      <trkpt lat="44.77505" lon="5.06377">
        <ele>607</ele>
        <time>2020-02-07T11:26:07.000Z</time>
      </trkpt>
      <trkpt lat="44.77505" lon="5.06377">
        <ele>607</ele>
        <time>2020-02-07T11:26:08.000Z</time>
      </trkpt>
      <trkpt lat="44.77505" lon="5.06378">
        <ele>608</ele>
        <time>2020-02-07T11:26:09.000Z</time>
      </trkpt>
      <trkpt lat="44.77505" lon="5.06378">
        <ele>608</ele>
        <time>2020-02-07T11:26:10.000Z</time>
      </trkpt>
      <trkpt lat="44.77505" lon="5.06378">
        <ele>608</ele>
        <time>2020-02-07T11:26:11.000Z</time>
      </trkpt>
      <trkpt lat="44.77505" lon="5.06378">
        <ele>608</ele>
        <time>2020-02-07T11:26:12.000Z</time>
      </trkpt>
      <trkpt lat="44.77505" lon="5.06378">
        <ele>608</ele>
        <time>2020-02-07T11:26:13.000Z</time>
      </trkpt>
      <trkpt lat="44.77505" lon="5.06378">
        <ele>608</ele>
        <time>2020-02-07T11:26:14.000Z</time>
      </trkpt>
      <trkpt lat="44.77505" lon="5.06378">
        <ele>608</ele>
        <time>2020-02-07T11:26:15.000Z</time>
      </trkpt>
      <trkpt lat="44.77505" lon="5.06378">
        <ele>608</ele>
        <time>2020-02-07T11:26:16.000Z</time>
      </trkpt>
      <trkpt lat="44.77505" lon="5.06378">
        <ele>608</ele>
        <time>2020-02-07T11:26:17.000Z</time>
      </trkpt>
      <trkpt lat="44.77505" lon="5.06378">
        <ele>608</ele>
        <time>2020-02-07T11:26:18.000Z</time>
      </trkpt>
      <trkpt lat="44.77505" lon="5.06378">
        <ele>608</ele>
        <time>2020-02-07T11:26:19.000Z</time>
      </trkpt>
      <trkpt lat="44.77505" lon="5.06378">
        <ele>608</ele>
        <time>2020-02-07T11:26:20.000Z</time>
      </trkpt>
      <trkpt lat="44.77505" lon="5.06378">
        <ele>608</ele>
        <time>2020-02-07T11:26:21.000Z</time>
      </trkpt>
      <trkpt lat="44.77505" lon="5.06378">
        <ele>608</ele>
        <time>2020-02-07T11:26:22.000Z</time>
      </trkpt>
      <trkpt lat="44.77505" lon="5.06378">
        <ele>608</ele>
        <time>2020-02-07T11:26:23.000Z</time>
      </trkpt>
      <trkpt lat="44.77505" lon="5.06378">
        <ele>608</ele>
        <time>2020-02-07T11:26:24.000Z</time>
      </trkpt>
      <trkpt lat="44.77505" lon="5.06378">
        <ele>608</ele>
        <time>2020-02-07T11:26:25.000Z</time>
      </trkpt>
      <trkpt lat="44.77505" lon="5.06378">
        <ele>608</ele>
        <time>2020-02-07T11:26:26.000Z</time>
      </trkpt>
      <trkpt lat="44.77505" lon="5.06378">
        <ele>608</ele>
        <time>2020-02-07T11:26:27.000Z</time>
      </trkpt>
      <trkpt lat="44.77505" lon="5.06378">
        <ele>608</ele>
        <time>2020-02-07T11:26:28.000Z</time>
      </trkpt>
      <trkpt lat="44.77505" lon="5.06378">
        <ele>608</ele>
        <time>2020-02-07T11:26:29.000Z</time>
      </trkpt>
      <trkpt lat="44.77505" lon="5.06378">
        <ele>608</ele>
        <time>2020-02-07T11:26:30.000Z</time>
      </trkpt>
      <trkpt lat="44.77505" lon="5.06378">
        <ele>608</ele>
        <time>2020-02-07T11:26:31.000Z</time>
      </trkpt>
      <trkpt lat="44.77505" lon="5.06378">
        <ele>608</ele>
        <time>2020-02-07T11:26:32.000Z</time>
      </trkpt>
      <trkpt lat="44.77505" lon="5.06378">
        <ele>608</ele>
        <time>2020-02-07T11:26:33.000Z</time>
      </trkpt>
      <trkpt lat="44.77505" lon="5.06378">
        <ele>608</ele>
        <time>2020-02-07T11:26:34.000Z</time>
      </trkpt>
      <trkpt lat="44.77505" lon="5.06378">
        <ele>608</ele>
        <time>2020-02-07T11:26:35.000Z</time>
      </trkpt>
      <trkpt lat="44.77505" lon="5.06378">
        <ele>608</ele>
        <time>2020-02-07T11:26:36.000Z</time>
      </trkpt>
      <trkpt lat="44.77505" lon="5.06378">
        <ele>608</ele>
        <time>2020-02-07T11:26:37.000Z</time>
      </trkpt>
      <trkpt lat="44.77505" lon="5.06378">
        <ele>608</ele>
        <time>2020-02-07T11:26:38.000Z</time>
      </trkpt>
      <trkpt lat="44.77505" lon="5.06378">
        <ele>608</ele>
        <time>2020-02-07T11:26:39.000Z</time>
      </trkpt>
      <trkpt lat="44.77505" lon="5.06378">
        <ele>608</ele>
        <time>2020-02-07T11:26:40.000Z</time>
      </trkpt>
      <trkpt lat="44.77505" lon="5.06378">
        <ele>608</ele>
        <time>2020-02-07T11:26:41.000Z</time>
      </trkpt>
      <trkpt lat="44.77505" lon="5.06378">
        <ele>608</ele>
        <time>2020-02-07T11:26:42.000Z</time>
      </trkpt>
      <trkpt lat="44.77505" lon="5.06378">
        <ele>608</ele>
        <time>2020-02-07T11:26:43.000Z</time>
      </trkpt>
      <trkpt lat="44.77505" lon="5.06378">
        <ele>608</ele>
        <time>2020-02-07T11:26:44.000Z</time>
      </trkpt>
      <trkpt lat="44.77505" lon="5.06378">
        <ele>608</ele>
        <time>2020-02-07T11:26:45.000Z</time>
      </trkpt>
      <trkpt lat="44.77505" lon="5.06378">
        <ele>608</ele>
        <time>2020-02-07T11:26:46.000Z</time>
      </trkpt>
      <trkpt lat="44.77505" lon="5.06377">
        <ele>608</ele>
        <time>2020-02-07T11:26:47.000Z</time>
      </trkpt>
      <trkpt lat="44.77505" lon="5.06377">
        <ele>608</ele>
        <time>2020-02-07T11:26:48.000Z</time>
      </trkpt>
      <trkpt lat="44.77505" lon="5.06377">
        <ele>608</ele>
        <time>2020-02-07T11:26:49.000Z</time>
      </trkpt>
      <trkpt lat="44.77505" lon="5.06377">
        <ele>609</ele>
        <time>2020-02-07T11:26:50.000Z</time>
      </trkpt>
      <trkpt lat="44.77505" lon="5.06377">
        <ele>609</ele>
        <time>2020-02-07T11:26:51.000Z</time>
      </trkpt>
      <trkpt lat="44.77505" lon="5.06377">
        <ele>609</ele>
        <time>2020-02-07T11:26:52.000Z</time>
      </trkpt>
      <trkpt lat="44.77505" lon="5.06377">
        <ele>609</ele>
        <time>2020-02-07T11:26:53.000Z</time>
      </trkpt>
      <trkpt lat="44.77504" lon="5.06377">
        <ele>609</ele>
        <time>2020-02-07T11:26:54.000Z</time>
      </trkpt>
      <trkpt lat="44.77504" lon="5.06377">
        <ele>609</ele>
        <time>2020-02-07T11:26:55.000Z</time>
      </trkpt>
      <trkpt lat="44.77504" lon="5.06377">
        <ele>609</ele>
        <time>2020-02-07T11:26:56.000Z</time>
      </trkpt>
      <trkpt lat="44.77504" lon="5.06378">
        <ele>609</ele>
        <time>2020-02-07T11:26:57.000Z</time>
      </trkpt>
      <trkpt lat="44.77504" lon="5.06378">
        <ele>609</ele>
        <time>2020-02-07T11:26:58.000Z</time>
      </trkpt>
      <trkpt lat="44.77504" lon="5.06378">
        <ele>609</ele>
        <time>2020-02-07T11:26:59.000Z</time>
      </trkpt>
      <trkpt lat="44.77504" lon="5.06378">
        <ele>609</ele>
        <time>2020-02-07T11:27:00.000Z</time>
      </trkpt>
      <trkpt lat="44.77504" lon="5.06378">
        <ele>609</ele>
        <time>2020-02-07T11:27:01.000Z</time>
      </trkpt>
      <trkpt lat="44.77504" lon="5.06378">
        <ele>609</ele>
        <time>2020-02-07T11:27:02.000Z</time>
      </trkpt>
      <trkpt lat="44.77504" lon="5.06378">
        <ele>609</ele>
        <time>2020-02-07T11:27:03.000Z</time>
      </trkpt>
      <trkpt lat="44.77504" lon="5.06378">
        <ele>609</ele>
        <time>2020-02-07T11:27:04.000Z</time>
      </trkpt>
      <trkpt lat="44.77504" lon="5.06378">
        <ele>609</ele>
        <time>2020-02-07T11:27:05.000Z</time>
      </trkpt>
      <trkpt lat="44.77504" lon="5.06378">
        <ele>609</ele>
        <time>2020-02-07T11:27:06.000Z</time>
      </trkpt>
      <trkpt lat="44.77504" lon="5.06378">
        <ele>609</ele>
        <time>2020-02-07T11:27:07.000Z</time>
      </trkpt>
      <trkpt lat="44.77504" lon="5.06378">
        <ele>609</ele>
        <time>2020-02-07T11:27:08.000Z</time>
      </trkpt>
      <trkpt lat="44.77504" lon="5.06378">
        <ele>609</ele>
        <time>2020-02-07T11:27:09.000Z</time>
      </trkpt>
      <trkpt lat="44.77504" lon="5.06378">
        <ele>609</ele>
        <time>2020-02-07T11:27:10.000Z</time>
      </trkpt>
      <trkpt lat="44.77504" lon="5.06378">
        <ele>609</ele>
        <time>2020-02-07T11:27:11.000Z</time>
      </trkpt>
      <trkpt lat="44.77504" lon="5.06378">
        <ele>609</ele>
        <time>2020-02-07T11:27:12.000Z</time>
      </trkpt>
      <trkpt lat="44.77504" lon="5.06378">
        <ele>609</ele>
        <time>2020-02-07T11:27:13.000Z</time>
      </trkpt>
      <trkpt lat="44.77504" lon="5.06378">
        <ele>609</ele>
        <time>2020-02-07T11:27:14.000Z</time>
      </trkpt>
      <trkpt lat="44.77504" lon="5.06378">
        <ele>609</ele>
        <time>2020-02-07T11:27:15.000Z</time>
      </trkpt>
      <trkpt lat="44.77504" lon="5.06378">
        <ele>609</ele>
        <time>2020-02-07T11:27:16.000Z</time>
      </trkpt>
      <trkpt lat="44.77504" lon="5.06378">
        <ele>609</ele>
        <time>2020-02-07T11:27:17.000Z</time>
      </trkpt>
      <trkpt lat="44.77504" lon="5.06378">
        <ele>608</ele>
        <time>2020-02-07T11:27:18.000Z</time>
      </trkpt>
      <trkpt lat="44.77504" lon="5.06378">
        <ele>608</ele>
        <time>2020-02-07T11:27:19.000Z</time>
      </trkpt>
      <trkpt lat="44.77504" lon="5.06378">
        <ele>608</ele>
        <time>2020-02-07T11:27:20.000Z</time>
      </trkpt>
      <trkpt lat="44.77504" lon="5.06378">
        <ele>608</ele>
        <time>2020-02-07T11:27:21.000Z</time>
      </trkpt>
      <trkpt lat="44.77504" lon="5.06378">
        <ele>608</ele>
        <time>2020-02-07T11:27:22.000Z</time>
      </trkpt>
      <trkpt lat="44.77504" lon="5.06378">
        <ele>608</ele>
        <time>2020-02-07T11:27:23.000Z</time>
      </trkpt>
      <trkpt lat="44.77504" lon="5.06378">
        <ele>608</ele>
        <time>2020-02-07T11:27:24.000Z</time>
      </trkpt>
      <trkpt lat="44.77504" lon="5.06378">
        <ele>608</ele>
        <time>2020-02-07T11:27:25.000Z</time>
      </trkpt>
      <trkpt lat="44.77504" lon="5.06378">
        <ele>608</ele>
        <time>2020-02-07T11:27:26.000Z</time>
      </trkpt>
      <trkpt lat="44.77504" lon="5.06378">
        <ele>608</ele>
        <time>2020-02-07T11:27:27.000Z</time>
      </trkpt>
      <trkpt lat="44.77504" lon="5.06378">
        <ele>608</ele>
        <time>2020-02-07T11:27:28.000Z</time>
      </trkpt>
      <trkpt lat="44.77504" lon="5.06378">
        <ele>608</ele>
        <time>2020-02-07T11:27:29.000Z</time>
      </trkpt>
      <trkpt lat="44.77504" lon="5.06378">
        <ele>608</ele>
        <time>2020-02-07T11:27:30.000Z</time>
      </trkpt>
      <trkpt lat="44.77504" lon="5.06378">
        <ele>608</ele>
        <time>2020-02-07T11:27:31.000Z</time>
      </trkpt>
      <trkpt lat="44.77504" lon="5.06378">
        <ele>608</ele>
        <time>2020-02-07T11:27:32.000Z</time>
      </trkpt>
      <trkpt lat="44.77504" lon="5.06378">
        <ele>608</ele>
        <time>2020-02-07T11:27:33.000Z</time>
      </trkpt>
      <trkpt lat="44.77504" lon="5.06378">
        <ele>608</ele>
        <time>2020-02-07T11:27:34.000Z</time>
      </trkpt>
      <trkpt lat="44.77504" lon="5.06378">
        <ele>608</ele>
        <time>2020-02-07T11:27:35.000Z</time>
      </trkpt>
      <trkpt lat="44.77504" lon="5.06378">
        <ele>608</ele>
        <time>2020-02-07T11:27:36.000Z</time>
      </trkpt>
      <trkpt lat="44.77504" lon="5.06378">
        <ele>608</ele>
        <time>2020-02-07T11:27:37.000Z</time>
      </trkpt>
      <trkpt lat="44.77504" lon="5.06378">
        <ele>608</ele>
        <time>2020-02-07T11:27:38.000Z</time>
      </trkpt>
      <trkpt lat="44.77504" lon="5.06378">
        <ele>608</ele>
        <time>2020-02-07T11:27:39.000Z</time>
      </trkpt>
      <trkpt lat="44.77504" lon="5.06378">
        <ele>608</ele>
        <time>2020-02-07T11:27:40.000Z</time>
      </trkpt>
      <trkpt lat="44.77504" lon="5.06378">
        <ele>608</ele>
        <time>2020-02-07T11:27:41.000Z</time>
      </trkpt>
      <trkpt lat="44.77504" lon="5.06378">
        <ele>608</ele>
        <time>2020-02-07T11:27:42.000Z</time>
      </trkpt>
      <trkpt lat="44.77504" lon="5.06378">
        <ele>608</ele>
        <time>2020-02-07T11:27:43.000Z</time>
      </trkpt>
      <trkpt lat="44.77504" lon="5.06378">
        <ele>608</ele>
        <time>2020-02-07T11:27:44.000Z</time>
      </trkpt>
      <trkpt lat="44.77504" lon="5.06378">
        <ele>608</ele>
        <time>2020-02-07T11:27:45.000Z</time>
      </trkpt>
      <trkpt lat="44.77504" lon="5.06378">
        <ele>608</ele>
        <time>2020-02-07T11:27:46.000Z</time>
      </trkpt>
      <trkpt lat="44.77504" lon="5.06378">
        <ele>608</ele>
        <time>2020-02-07T11:27:47.000Z</time>
      </trkpt>
      <trkpt lat="44.77504" lon="5.06378">
        <ele>608</ele>
        <time>2020-02-07T11:27:48.000Z</time>
      </trkpt>
      <trkpt lat="44.77504" lon="5.06378">
        <ele>608</ele>
        <time>2020-02-07T11:27:49.000Z</time>
      </trkpt>
      <trkpt lat="44.77504" lon="5.06378">
        <ele>608</ele>
        <time>2020-02-07T11:27:50.000Z</time>
      </trkpt>
      <trkpt lat="44.77504" lon="5.06378">
        <ele>608</ele>
        <time>2020-02-07T11:27:51.000Z</time>
      </trkpt>
      <trkpt lat="44.77504" lon="5.06378">
        <ele>608</ele>
        <time>2020-02-07T11:27:52.000Z</time>
      </trkpt>
      <trkpt lat="44.77504" lon="5.06378">
        <ele>608</ele>
        <time>2020-02-07T11:27:53.000Z</time>
      </trkpt>
      <trkpt lat="44.77504" lon="5.06378">
        <ele>608</ele>
        <time>2020-02-07T11:27:54.000Z</time>
      </trkpt>
      <trkpt lat="44.77504" lon="5.06378">
        <ele>608</ele>
        <time>2020-02-07T11:27:55.000Z</time>
      </trkpt>
      <trkpt lat="44.77504" lon="5.06379">
        <ele>608</ele>
        <time>2020-02-07T11:27:56.000Z</time>
      </trkpt>
      <trkpt lat="44.77504" lon="5.06379">
        <ele>608</ele>
        <time>2020-02-07T11:27:57.000Z</time>
      </trkpt>
      <trkpt lat="44.77504" lon="5.06378">
        <ele>608</ele>
        <time>2020-02-07T11:27:58.000Z</time>
      </trkpt>
      <trkpt lat="44.77504" lon="5.06378">
        <ele>608</ele>
        <time>2020-02-07T11:27:59.000Z</time>
      </trkpt>
      <trkpt lat="44.77504" lon="5.06378">
        <ele>608</ele>
        <time>2020-02-07T11:28:00.000Z</time>
      </trkpt>
      <trkpt lat="44.77504" lon="5.06378">
        <ele>608</ele>
        <time>2020-02-07T11:28:01.000Z</time>
      </trkpt>
      <trkpt lat="44.77504" lon="5.06378">
        <ele>608</ele>
        <time>2020-02-07T11:28:02.000Z</time>
      </trkpt>
      <trkpt lat="44.77504" lon="5.06378">
        <ele>608</ele>
        <time>2020-02-07T11:28:03.000Z</time>
      </trkpt>
      <trkpt lat="44.77504" lon="5.06378">
        <ele>608</ele>
        <time>2020-02-07T11:28:04.000Z</time>
      </trkpt>
      <trkpt lat="44.77504" lon="5.06378">
        <ele>608</ele>
        <time>2020-02-07T11:28:05.000Z</time>
      </trkpt>
      <trkpt lat="44.77504" lon="5.06378">
        <ele>608</ele>
        <time>2020-02-07T11:28:06.000Z</time>
      </trkpt>
      <trkpt lat="44.77504" lon="5.06378">
        <ele>608</ele>
        <time>2020-02-07T11:28:07.000Z</time>
      </trkpt>
      <trkpt lat="44.77504" lon="5.06378">
        <ele>608</ele>
        <time>2020-02-07T11:28:08.000Z</time>
      </trkpt>
      <trkpt lat="44.77504" lon="5.06378">
        <ele>608</ele>
        <time>2020-02-07T11:28:09.000Z</time>
      </trkpt>
      <trkpt lat="44.77504" lon="5.06378">
        <ele>608</ele>
        <time>2020-02-07T11:28:10.000Z</time>
      </trkpt>
      <trkpt lat="44.77504" lon="5.06378">
        <ele>608</ele>
        <time>2020-02-07T11:28:11.000Z</time>
      </trkpt>
      <trkpt lat="44.77504" lon="5.06378">
        <ele>608</ele>
        <time>2020-02-07T11:28:12.000Z</time>
      </trkpt>
      <trkpt lat="44.77504" lon="5.06378">
        <ele>608</ele>
        <time>2020-02-07T11:28:13.000Z</time>
      </trkpt>
      <trkpt lat="44.77504" lon="5.06378">
        <ele>608</ele>
        <time>2020-02-07T11:28:14.000Z</time>
      </trkpt>
      <trkpt lat="44.77504" lon="5.06378">
        <ele>608</ele>
        <time>2020-02-07T11:28:15.000Z</time>
      </trkpt>
      <trkpt lat="44.77505" lon="5.06378">
        <ele>608</ele>
        <time>2020-02-07T11:28:16.000Z</time>
      </trkpt>
      <trkpt lat="44.77505" lon="5.06378">
        <ele>608</ele>
        <time>2020-02-07T11:28:17.000Z</time>
      </trkpt>
      <trkpt lat="44.77504" lon="5.06378">
        <ele>608</ele>
        <time>2020-02-07T11:28:18.000Z</time>
      </trkpt>
      <trkpt lat="44.77504" lon="5.06378">
        <ele>608</ele>
        <time>2020-02-07T11:28:19.000Z</time>
      </trkpt>
      <trkpt lat="44.77505" lon="5.06378">
        <ele>608</ele>
        <time>2020-02-07T11:28:20.000Z</time>
      </trkpt>
      <trkpt lat="44.77505" lon="5.06378">
        <ele>608</ele>
        <time>2020-02-07T11:28:21.000Z</time>
      </trkpt>
      <trkpt lat="44.77505" lon="5.06378">
        <ele>608</ele>
        <time>2020-02-07T11:28:22.000Z</time>
      </trkpt>
      <trkpt lat="44.77505" lon="5.06378">
        <ele>608</ele>
        <time>2020-02-07T11:28:23.000Z</time>
      </trkpt>
      <trkpt lat="44.77505" lon="5.06378">
        <ele>608</ele>
        <time>2020-02-07T11:28:24.000Z</time>
      </trkpt>
      <trkpt lat="44.77505" lon="5.06378">
        <ele>608</ele>
        <time>2020-02-07T11:28:25.000Z</time>
      </trkpt>
      <trkpt lat="44.77505" lon="5.06378">
        <ele>608</ele>
        <time>2020-02-07T11:28:26.000Z</time>
      </trkpt>
      <trkpt lat="44.77505" lon="5.06378">
        <ele>608</ele>
        <time>2020-02-07T11:28:27.000Z</time>
      </trkpt>
      <trkpt lat="44.77505" lon="5.06378">
        <ele>608</ele>
        <time>2020-02-07T11:28:28.000Z</time>
      </trkpt>
      <trkpt lat="44.77505" lon="5.06378">
        <ele>608</ele>
        <time>2020-02-07T11:28:29.000Z</time>
      </trkpt>
      <trkpt lat="44.77505" lon="5.06378">
        <ele>608</ele>
        <time>2020-02-07T11:28:30.000Z</time>
      </trkpt>
      <trkpt lat="44.77505" lon="5.06378">
        <ele>608</ele>
        <time>2020-02-07T11:28:31.000Z</time>
      </trkpt>
      <trkpt lat="44.77505" lon="5.06378">
        <ele>608</ele>
        <time>2020-02-07T11:28:32.000Z</time>
      </trkpt>
      <trkpt lat="44.77505" lon="5.06378">
        <ele>608</ele>
        <time>2020-02-07T11:28:33.000Z</time>
      </trkpt>
      <trkpt lat="44.77505" lon="5.06378">
        <ele>608</ele>
        <time>2020-02-07T11:28:34.000Z</time>
      </trkpt>
      <trkpt lat="44.77505" lon="5.06378">
        <ele>608</ele>
        <time>2020-02-07T11:28:35.000Z</time>
      </trkpt>
      <trkpt lat="44.77505" lon="5.06378">
        <ele>608</ele>
        <time>2020-02-07T11:28:36.000Z</time>
      </trkpt>
      <trkpt lat="44.77505" lon="5.06378">
        <ele>608</ele>
        <time>2020-02-07T11:28:37.000Z</time>
      </trkpt>
      <trkpt lat="44.77505" lon="5.06378">
        <ele>608</ele>
        <time>2020-02-07T11:28:38.000Z</time>
      </trkpt>
      <trkpt lat="44.77505" lon="5.06378">
        <ele>608</ele>
        <time>2020-02-07T11:28:39.000Z</time>
      </trkpt>
      <trkpt lat="44.77505" lon="5.06378">
        <ele>608</ele>
        <time>2020-02-07T11:28:40.000Z</time>
      </trkpt>
      <trkpt lat="44.77505" lon="5.06378">
        <ele>608</ele>
        <time>2020-02-07T11:28:41.000Z</time>
      </trkpt>
      <trkpt lat="44.77505" lon="5.06378">
        <ele>608</ele>
        <time>2020-02-07T11:28:42.000Z</time>
      </trkpt>
      <trkpt lat="44.77505" lon="5.06378">
        <ele>608</ele>
        <time>2020-02-07T11:28:43.000Z</time>
      </trkpt>
      <trkpt lat="44.77505" lon="5.06378">
        <ele>608</ele>
        <time>2020-02-07T11:28:44.000Z</time>
      </trkpt>
      <trkpt lat="44.77505" lon="5.06378">
        <ele>608</ele>
        <time>2020-02-07T11:28:45.000Z</time>
      </trkpt>
      <trkpt lat="44.77505" lon="5.06378">
        <ele>608</ele>
        <time>2020-02-07T11:28:46.000Z</time>
      </trkpt>
      <trkpt lat="44.77505" lon="5.06378">
        <ele>608</ele>
        <time>2020-02-07T11:28:47.000Z</time>
      </trkpt>
      <trkpt lat="44.77505" lon="5.06378">
        <ele>608</ele>
        <time>2020-02-07T11:28:48.000Z</time>
      </trkpt>
      <trkpt lat="44.77505" lon="5.06378">
        <ele>608</ele>
        <time>2020-02-07T11:28:49.000Z</time>
      </trkpt>
      <trkpt lat="44.77505" lon="5.06378">
        <ele>608</ele>
        <time>2020-02-07T11:28:50.000Z</time>
      </trkpt>
      <trkpt lat="44.77505" lon="5.06378">
        <ele>608</ele>
        <time>2020-02-07T11:28:51.000Z</time>
      </trkpt>
      <trkpt lat="44.77505" lon="5.06378">
        <ele>608</ele>
        <time>2020-02-07T11:28:52.000Z</time>
      </trkpt>
      <trkpt lat="44.77505" lon="5.06377">
        <ele>608</ele>
        <time>2020-02-07T11:28:53.000Z</time>
      </trkpt>
      <trkpt lat="44.77505" lon="5.06377">
        <ele>608</ele>
        <time>2020-02-07T11:28:54.000Z</time>
      </trkpt>
      <trkpt lat="44.77505" lon="5.06377">
        <ele>608</ele>
        <time>2020-02-07T11:28:55.000Z</time>
      </trkpt>
      <trkpt lat="44.77505" lon="5.06377">
        <ele>608</ele>
        <time>2020-02-07T11:28:56.000Z</time>
      </trkpt>
      <trkpt lat="44.77505" lon="5.06377">
        <ele>608</ele>
        <time>2020-02-07T11:28:57.000Z</time>
      </trkpt>
      <trkpt lat="44.77505" lon="5.06377">
        <ele>608</ele>
        <time>2020-02-07T11:28:58.000Z</time>
      </trkpt>
      <trkpt lat="44.77505" lon="5.06377">
        <ele>608</ele>
        <time>2020-02-07T11:28:59.000Z</time>
      </trkpt>
      <trkpt lat="44.77505" lon="5.06377">
        <ele>608</ele>
        <time>2020-02-07T11:29:00.000Z</time>
      </trkpt>
      <trkpt lat="44.77505" lon="5.06377">
        <ele>608</ele>
        <time>2020-02-07T11:29:01.000Z</time>
      </trkpt>
      <trkpt lat="44.77505" lon="5.06377">
        <ele>608</ele>
        <time>2020-02-07T11:29:02.000Z</time>
      </trkpt>
      <trkpt lat="44.77505" lon="5.06377">
        <ele>608</ele>
        <time>2020-02-07T11:29:03.000Z</time>
      </trkpt>
      <trkpt lat="44.77505" lon="5.06377">
        <ele>608</ele>
        <time>2020-02-07T11:29:04.000Z</time>
      </trkpt>
      <trkpt lat="44.77505" lon="5.06377">
        <ele>608</ele>
        <time>2020-02-07T11:29:05.000Z</time>
      </trkpt>
      <trkpt lat="44.77505" lon="5.06377">
        <ele>608</ele>
        <time>2020-02-07T11:29:06.000Z</time>
      </trkpt>
      <trkpt lat="44.77505" lon="5.06377">
        <ele>608</ele>
        <time>2020-02-07T11:29:07.000Z</time>
      </trkpt>
      <trkpt lat="44.77505" lon="5.06377">
        <ele>608</ele>
        <time>2020-02-07T11:29:08.000Z</time>
      </trkpt>
      <trkpt lat="44.77505" lon="5.06377">
        <ele>608</ele>
        <time>2020-02-07T11:29:09.000Z</time>
      </trkpt>
      <trkpt lat="44.77505" lon="5.06377">
        <ele>609</ele>
        <time>2020-02-07T11:29:10.000Z</time>
      </trkpt>
      <trkpt lat="44.77505" lon="5.06377">
        <ele>609</ele>
        <time>2020-02-07T11:29:11.000Z</time>
      </trkpt>
      <trkpt lat="44.77505" lon="5.06377">
        <ele>609</ele>
        <time>2020-02-07T11:29:12.000Z</time>
      </trkpt>
      <trkpt lat="44.77505" lon="5.06377">
        <ele>609</ele>
        <time>2020-02-07T11:29:13.000Z</time>
      </trkpt>
      <trkpt lat="44.77505" lon="5.06376">
        <ele>609</ele>
        <time>2020-02-07T11:29:14.000Z</time>
      </trkpt>
      <trkpt lat="44.77505" lon="5.06376">
        <ele>609</ele>
        <time>2020-02-07T11:29:15.000Z</time>
      </trkpt>
      <trkpt lat="44.77505" lon="5.06376">
        <ele>609</ele>
        <time>2020-02-07T11:29:16.000Z</time>
      </trkpt>
      <trkpt lat="44.77505" lon="5.06376">
        <ele>609</ele>
        <time>2020-02-07T11:29:17.000Z</time>
      </trkpt>
      <trkpt lat="44.77505" lon="5.06376">
        <ele>609</ele>
        <time>2020-02-07T11:29:18.000Z</time>
      </trkpt>
      <trkpt lat="44.77505" lon="5.06376">
        <ele>609</ele>
        <time>2020-02-07T11:29:19.000Z</time>
      </trkpt>
      <trkpt lat="44.77505" lon="5.06376">
        <ele>609</ele>
        <time>2020-02-07T11:29:20.000Z</time>
      </trkpt>
      <trkpt lat="44.77505" lon="5.06376">
        <ele>609</ele>
        <time>2020-02-07T11:29:21.000Z</time>
      </trkpt>
      <trkpt lat="44.77505" lon="5.06376">
        <ele>609</ele>
        <time>2020-02-07T11:29:22.000Z</time>
      </trkpt>
      <trkpt lat="44.77505" lon="5.06376">
        <ele>609</ele>
        <time>2020-02-07T11:29:23.000Z</time>
      </trkpt>
      <trkpt lat="44.77505" lon="5.06376">
        <ele>609</ele>
        <time>2020-02-07T11:29:24.000Z</time>
      </trkpt>
      <trkpt lat="44.77505" lon="5.06376">
        <ele>609</ele>
        <time>2020-02-07T11:29:25.000Z</time>
      </trkpt>
      <trkpt lat="44.77505" lon="5.06376">
        <ele>609</ele>
        <time>2020-02-07T11:29:26.000Z</time>
      </trkpt>
      <trkpt lat="44.77505" lon="5.06376">
        <ele>609</ele>
        <time>2020-02-07T11:29:27.000Z</time>
      </trkpt>
      <trkpt lat="44.77505" lon="5.06376">
        <ele>609</ele>
        <time>2020-02-07T11:29:28.000Z</time>
      </trkpt>
      <trkpt lat="44.77505" lon="5.06376">
        <ele>609</ele>
        <time>2020-02-07T11:29:29.000Z</time>
      </trkpt>
      <trkpt lat="44.77505" lon="5.06376">
        <ele>609</ele>
        <time>2020-02-07T11:29:30.000Z</time>
      </trkpt>
      <trkpt lat="44.77505" lon="5.06376">
        <ele>609</ele>
        <time>2020-02-07T11:29:31.000Z</time>
      </trkpt>
      <trkpt lat="44.77505" lon="5.06376">
        <ele>609</ele>
        <time>2020-02-07T11:29:32.000Z</time>
      </trkpt>
      <trkpt lat="44.77505" lon="5.06376">
        <ele>609</ele>
        <time>2020-02-07T11:29:33.000Z</time>
      </trkpt>
      <trkpt lat="44.77505" lon="5.06376">
        <ele>609</ele>
        <time>2020-02-07T11:29:34.000Z</time>
      </trkpt>
      <trkpt lat="44.77505" lon="5.06376">
        <ele>609</ele>
        <time>2020-02-07T11:29:35.000Z</time>
      </trkpt>
      <trkpt lat="44.77505" lon="5.06376">
        <ele>609</ele>
        <time>2020-02-07T11:29:36.000Z</time>
      </trkpt>
      <trkpt lat="44.77505" lon="5.06376">
        <ele>609</ele>
        <time>2020-02-07T11:29:37.000Z</time>
      </trkpt>
      <trkpt lat="44.77505" lon="5.06376">
        <ele>609</ele>
        <time>2020-02-07T11:29:38.000Z</time>
      </trkpt>
      <trkpt lat="44.77505" lon="5.06376">
        <ele>609</ele>
        <time>2020-02-07T11:29:39.000Z</time>
      </trkpt>
      <trkpt lat="44.77505" lon="5.06376">
        <ele>609</ele>
        <time>2020-02-07T11:29:40.000Z</time>
      </trkpt>
      <trkpt lat="44.77505" lon="5.06376">
        <ele>609</ele>
        <time>2020-02-07T11:29:41.000Z</time>
      </trkpt>
      <trkpt lat="44.77505" lon="5.06377">
        <ele>609</ele>
        <time>2020-02-07T11:29:42.000Z</time>
      </trkpt>
      <trkpt lat="44.77504" lon="5.06377">
        <ele>609</ele>
        <time>2020-02-07T11:29:43.000Z</time>
      </trkpt>
      <trkpt lat="44.77504" lon="5.06377">
        <ele>609</ele>
        <time>2020-02-07T11:29:44.000Z</time>
      </trkpt>
      <trkpt lat="44.77504" lon="5.06377">
        <ele>609</ele>
        <time>2020-02-07T11:29:45.000Z</time>
      </trkpt>
      <trkpt lat="44.77504" lon="5.06377">
        <ele>609</ele>
        <time>2020-02-07T11:29:46.000Z</time>
      </trkpt>
      <trkpt lat="44.77504" lon="5.06377">
        <ele>609</ele>
        <time>2020-02-07T11:29:47.000Z</time>
      </trkpt>
      <trkpt lat="44.77504" lon="5.06377">
        <ele>609</ele>
        <time>2020-02-07T11:29:48.000Z</time>
      </trkpt>
      <trkpt lat="44.77504" lon="5.06377">
        <ele>609</ele>
        <time>2020-02-07T11:29:49.000Z</time>
      </trkpt>
      <trkpt lat="44.77504" lon="5.06377">
        <ele>609</ele>
        <time>2020-02-07T11:29:50.000Z</time>
      </trkpt>
      <trkpt lat="44.77504" lon="5.06377">
        <ele>609</ele>
        <time>2020-02-07T11:29:51.000Z</time>
      </trkpt>
      <trkpt lat="44.77504" lon="5.06377">
        <ele>609</ele>
        <time>2020-02-07T11:29:52.000Z</time>
      </trkpt>
      <trkpt lat="44.77504" lon="5.06377">
        <ele>609</ele>
        <time>2020-02-07T11:29:53.000Z</time>
      </trkpt>
      <trkpt lat="44.77504" lon="5.06377">
        <ele>609</ele>
        <time>2020-02-07T11:29:54.000Z</time>
      </trkpt>
      <trkpt lat="44.77504" lon="5.06377">
        <ele>609</ele>
        <time>2020-02-07T11:29:55.000Z</time>
      </trkpt>
      <trkpt lat="44.77504" lon="5.06377">
        <ele>609</ele>
        <time>2020-02-07T11:29:56.000Z</time>
      </trkpt>
      <trkpt lat="44.77504" lon="5.06377">
        <ele>609</ele>
        <time>2020-02-07T11:29:57.000Z</time>
      </trkpt>
      <trkpt lat="44.77504" lon="5.06377">
        <ele>609</ele>
        <time>2020-02-07T11:29:58.000Z</time>
      </trkpt>
      <trkpt lat="44.77504" lon="5.06377">
        <ele>609</ele>
        <time>2020-02-07T11:29:59.000Z</time>
      </trkpt>
      <trkpt lat="44.77504" lon="5.06377">
        <ele>609</ele>
        <time>2020-02-07T11:30:00.000Z</time>
      </trkpt>
      <trkpt lat="44.77504" lon="5.06377">
        <ele>609</ele>
        <time>2020-02-07T11:30:01.000Z</time>
      </trkpt>
      <trkpt lat="44.77504" lon="5.06377">
        <ele>609</ele>
        <time>2020-02-07T11:30:02.000Z</time>
      </trkpt>
      <trkpt lat="44.77504" lon="5.06377">
        <ele>609</ele>
        <time>2020-02-07T11:30:03.000Z</time>
      </trkpt>
      <trkpt lat="44.77504" lon="5.06377">
        <ele>609</ele>
        <time>2020-02-07T11:30:04.000Z</time>
      </trkpt>
      <trkpt lat="44.77504" lon="5.06377">
        <ele>609</ele>
        <time>2020-02-07T11:30:05.000Z</time>
      </trkpt>
      <trkpt lat="44.77504" lon="5.06377">
        <ele>609</ele>
        <time>2020-02-07T11:30:06.000Z</time>
      </trkpt>
      <trkpt lat="44.77504" lon="5.06377">
        <ele>609</ele>
        <time>2020-02-07T11:30:07.000Z</time>
      </trkpt>
      <trkpt lat="44.77504" lon="5.06377">
        <ele>609</ele>
        <time>2020-02-07T11:30:08.000Z</time>
      </trkpt>
      <trkpt lat="44.77504" lon="5.06377">
        <ele>609</ele>
        <time>2020-02-07T11:30:09.000Z</time>
      </trkpt>
      <trkpt lat="44.77504" lon="5.06377">
        <ele>609</ele>
        <time>2020-02-07T11:30:10.000Z</time>
      </trkpt>
      <trkpt lat="44.77504" lon="5.06377">
        <ele>609</ele>
        <time>2020-02-07T11:30:11.000Z</time>
      </trkpt>
      <trkpt lat="44.77504" lon="5.06378">
        <ele>609</ele>
        <time>2020-02-07T11:30:12.000Z</time>
      </trkpt>
      <trkpt lat="44.77504" lon="5.06378">
        <ele>609</ele>
        <time>2020-02-07T11:30:13.000Z</time>
      </trkpt>
      <trkpt lat="44.77505" lon="5.06378">
        <ele>609</ele>
        <time>2020-02-07T11:30:14.000Z</time>
      </trkpt>
      <trkpt lat="44.77505" lon="5.06378">
        <ele>609</ele>
        <time>2020-02-07T11:30:15.000Z</time>
      </trkpt>
      <trkpt lat="44.77505" lon="5.06378">
        <ele>609</ele>
        <time>2020-02-07T11:30:16.000Z</time>
      </trkpt>
      <trkpt lat="44.77505" lon="5.06378">
        <ele>609</ele>
        <time>2020-02-07T11:30:17.000Z</time>
      </trkpt>
      <trkpt lat="44.77505" lon="5.06378">
        <ele>609</ele>
        <time>2020-02-07T11:30:18.000Z</time>
      </trkpt>
      <trkpt lat="44.77505" lon="5.06378">
        <ele>609</ele>
        <time>2020-02-07T11:30:19.000Z</time>
      </trkpt>
      <trkpt lat="44.77505" lon="5.06378">
        <ele>609</ele>
        <time>2020-02-07T11:30:20.000Z</time>
      </trkpt>
      <trkpt lat="44.77505" lon="5.06378">
        <ele>609</ele>
        <time>2020-02-07T11:30:21.000Z</time>
      </trkpt>
      <trkpt lat="44.77505" lon="5.06378">
        <ele>609</ele>
        <time>2020-02-07T11:30:22.000Z</time>
      </trkpt>
      <trkpt lat="44.77505" lon="5.06378">
        <ele>609</ele>
        <time>2020-02-07T11:30:23.000Z</time>
      </trkpt>
      <trkpt lat="44.77505" lon="5.06378">
        <ele>609</ele>
        <time>2020-02-07T11:30:24.000Z</time>
      </trkpt>
      <trkpt lat="44.77505" lon="5.06378">
        <ele>609</ele>
        <time>2020-02-07T11:30:25.000Z</time>
      </trkpt>
      <trkpt lat="44.77505" lon="5.06378">
        <ele>609</ele>
        <time>2020-02-07T11:30:26.000Z</time>
      </trkpt>
      <trkpt lat="44.77505" lon="5.06378">
        <ele>609</ele>
        <time>2020-02-07T11:30:27.000Z</time>
      </trkpt>
      <trkpt lat="44.77505" lon="5.06378">
        <ele>609</ele>
        <time>2020-02-07T11:30:28.000Z</time>
      </trkpt>
      <trkpt lat="44.77505" lon="5.06378">
        <ele>609</ele>
        <time>2020-02-07T11:30:29.000Z</time>
      </trkpt>
      <trkpt lat="44.77505" lon="5.06378">
        <ele>609</ele>
        <time>2020-02-07T11:30:30.000Z</time>
      </trkpt>
      <trkpt lat="44.77505" lon="5.06378">
        <ele>609</ele>
        <time>2020-02-07T11:30:31.000Z</time>
      </trkpt>
      <trkpt lat="44.77505" lon="5.06378">
        <ele>609</ele>
        <time>2020-02-07T11:30:32.000Z</time>
      </trkpt>
      <trkpt lat="44.77505" lon="5.06378">
        <ele>609</ele>
        <time>2020-02-07T11:30:33.000Z</time>
      </trkpt>
      <trkpt lat="44.77505" lon="5.06378">
        <ele>609</ele>
        <time>2020-02-07T11:30:34.000Z</time>
      </trkpt>
      <trkpt lat="44.77505" lon="5.06378">
        <ele>609</ele>
        <time>2020-02-07T11:30:35.000Z</time>
      </trkpt>
      <trkpt lat="44.77505" lon="5.06379">
        <ele>609</ele>
        <time>2020-02-07T11:30:36.000Z</time>
      </trkpt>
      <trkpt lat="44.77505" lon="5.06379">
        <ele>609</ele>
        <time>2020-02-07T11:30:37.000Z</time>
      </trkpt>
      <trkpt lat="44.77505" lon="5.06379">
        <ele>609</ele>
        <time>2020-02-07T11:30:38.000Z</time>
      </trkpt>
      <trkpt lat="44.77505" lon="5.06379">
        <ele>609</ele>
        <time>2020-02-07T11:30:39.000Z</time>
      </trkpt>
      <trkpt lat="44.77505" lon="5.06379">
        <ele>609</ele>
        <time>2020-02-07T11:30:40.000Z</time>
      </trkpt>
      <trkpt lat="44.77505" lon="5.06379">
        <ele>609</ele>
        <time>2020-02-07T11:30:41.000Z</time>
      </trkpt>
      <trkpt lat="44.77505" lon="5.06378">
        <ele>609</ele>
        <time>2020-02-07T11:30:42.000Z</time>
      </trkpt>
      <trkpt lat="44.77505" lon="5.06379">
        <ele>609</ele>
        <time>2020-02-07T11:30:43.000Z</time>
      </trkpt>
      <trkpt lat="44.77505" lon="5.06379">
        <ele>608</ele>
        <time>2020-02-07T11:30:44.000Z</time>
      </trkpt>
      <trkpt lat="44.77505" lon="5.06379">
        <ele>608</ele>
        <time>2020-02-07T11:30:45.000Z</time>
      </trkpt>
      <trkpt lat="44.77505" lon="5.06379">
        <ele>608</ele>
        <time>2020-02-07T11:30:46.000Z</time>
      </trkpt>
      <trkpt lat="44.77505" lon="5.06379">
        <ele>608</ele>
        <time>2020-02-07T11:30:47.000Z</time>
      </trkpt>
      <trkpt lat="44.77505" lon="5.06379">
        <ele>608</ele>
        <time>2020-02-07T11:30:48.000Z</time>
      </trkpt>
      <trkpt lat="44.77505" lon="5.06379">
        <ele>608</ele>
        <time>2020-02-07T11:30:49.000Z</time>
      </trkpt>
      <trkpt lat="44.77505" lon="5.06379">
        <ele>608</ele>
        <time>2020-02-07T11:30:50.000Z</time>
      </trkpt>
      <trkpt lat="44.77505" lon="5.06379">
        <ele>608</ele>
        <time>2020-02-07T11:30:51.000Z</time>
      </trkpt>
      <trkpt lat="44.77505" lon="5.06379">
        <ele>608</ele>
        <time>2020-02-07T11:30:52.000Z</time>
      </trkpt>
      <trkpt lat="44.77505" lon="5.06379">
        <ele>608</ele>
        <time>2020-02-07T11:30:53.000Z</time>
      </trkpt>
      <trkpt lat="44.77505" lon="5.06379">
        <ele>608</ele>
        <time>2020-02-07T11:30:54.000Z</time>
      </trkpt>
      <trkpt lat="44.77505" lon="5.06379">
        <ele>608</ele>
        <time>2020-02-07T11:30:55.000Z</time>
      </trkpt>
      <trkpt lat="44.77505" lon="5.06379">
        <ele>608</ele>
        <time>2020-02-07T11:30:56.000Z</time>
      </trkpt>
      <trkpt lat="44.77505" lon="5.06379">
        <ele>608</ele>
        <time>2020-02-07T11:30:57.000Z</time>
      </trkpt>
      <trkpt lat="44.77504" lon="5.06379">
        <ele>608</ele>
        <time>2020-02-07T11:30:58.000Z</time>
      </trkpt>
      <trkpt lat="44.77504" lon="5.06379">
        <ele>608</ele>
        <time>2020-02-07T11:30:59.000Z</time>
      </trkpt>
      <trkpt lat="44.77504" lon="5.06379">
        <ele>608</ele>
        <time>2020-02-07T11:31:00.000Z</time>
      </trkpt>
      <trkpt lat="44.77504" lon="5.06378">
        <ele>608</ele>
        <time>2020-02-07T11:31:01.000Z</time>
      </trkpt>
      <trkpt lat="44.77504" lon="5.06378">
        <ele>608</ele>
        <time>2020-02-07T11:31:02.000Z</time>
      </trkpt>
      <trkpt lat="44.77504" lon="5.06378">
        <ele>608</ele>
        <time>2020-02-07T11:31:03.000Z</time>
      </trkpt>
      <trkpt lat="44.77504" lon="5.06378">
        <ele>608</ele>
        <time>2020-02-07T11:31:04.000Z</time>
      </trkpt>
      <trkpt lat="44.77504" lon="5.06378">
        <ele>608</ele>
        <time>2020-02-07T11:31:05.000Z</time>
      </trkpt>
      <trkpt lat="44.77504" lon="5.06378">
        <ele>608</ele>
        <time>2020-02-07T11:31:06.000Z</time>
      </trkpt>
      <trkpt lat="44.77504" lon="5.06378">
        <ele>608</ele>
        <time>2020-02-07T11:31:07.000Z</time>
      </trkpt>
      <trkpt lat="44.77504" lon="5.06378">
        <ele>608</ele>
        <time>2020-02-07T11:31:08.000Z</time>
      </trkpt>
      <trkpt lat="44.77504" lon="5.06378">
        <ele>608</ele>
        <time>2020-02-07T11:31:09.000Z</time>
      </trkpt>
      <trkpt lat="44.77504" lon="5.06378">
        <ele>608</ele>
        <time>2020-02-07T11:31:10.000Z</time>
      </trkpt>
      <trkpt lat="44.77504" lon="5.06378">
        <ele>608</ele>
        <time>2020-02-07T11:31:11.000Z</time>
      </trkpt>
      <trkpt lat="44.77504" lon="5.06378">
        <ele>608</ele>
        <time>2020-02-07T11:31:12.000Z</time>
      </trkpt>
      <trkpt lat="44.77504" lon="5.06378">
        <ele>608</ele>
        <time>2020-02-07T11:31:13.000Z</time>
      </trkpt>
      <trkpt lat="44.77504" lon="5.06378">
        <ele>608</ele>
        <time>2020-02-07T11:31:14.000Z</time>
      </trkpt>
      <trkpt lat="44.77504" lon="5.06378">
        <ele>608</ele>
        <time>2020-02-07T11:31:15.000Z</time>
      </trkpt>
      <trkpt lat="44.77504" lon="5.06378">
        <ele>608</ele>
        <time>2020-02-07T11:31:16.000Z</time>
      </trkpt>
      <trkpt lat="44.77504" lon="5.06378">
        <ele>608</ele>
        <time>2020-02-07T11:31:17.000Z</time>
      </trkpt>
      <trkpt lat="44.77504" lon="5.06378">
        <ele>608</ele>
        <time>2020-02-07T11:31:18.000Z</time>
      </trkpt>
      <trkpt lat="44.77504" lon="5.06378">
        <ele>608</ele>
        <time>2020-02-07T11:31:19.000Z</time>
      </trkpt>
      <trkpt lat="44.77504" lon="5.06378">
        <ele>608</ele>
        <time>2020-02-07T11:31:20.000Z</time>
      </trkpt>
      <trkpt lat="44.77504" lon="5.06378">
        <ele>608</ele>
        <time>2020-02-07T11:31:21.000Z</time>
      </trkpt>
      <trkpt lat="44.77504" lon="5.06378">
        <ele>608</ele>
        <time>2020-02-07T11:31:22.000Z</time>
      </trkpt>
      <trkpt lat="44.77504" lon="5.06377">
        <ele>608</ele>
        <time>2020-02-07T11:31:23.000Z</time>
      </trkpt>
      <trkpt lat="44.77504" lon="5.06377">
        <ele>608</ele>
        <time>2020-02-07T11:31:24.000Z</time>
      </trkpt>
      <trkpt lat="44.77504" lon="5.06377">
        <ele>608</ele>
        <time>2020-02-07T11:31:25.000Z</time>
      </trkpt>
      <trkpt lat="44.77504" lon="5.06377">
        <ele>608</ele>
        <time>2020-02-07T11:31:26.000Z</time>
      </trkpt>
      <trkpt lat="44.77504" lon="5.06377">
        <ele>608</ele>
        <time>2020-02-07T11:31:27.000Z</time>
      </trkpt>
      <trkpt lat="44.77504" lon="5.06377">
        <ele>608</ele>
        <time>2020-02-07T11:31:28.000Z</time>
      </trkpt>
      <trkpt lat="44.77504" lon="5.06377">
        <ele>608</ele>
        <time>2020-02-07T11:31:29.000Z</time>
      </trkpt>
      <trkpt lat="44.77504" lon="5.06377">
        <ele>608</ele>
        <time>2020-02-07T11:31:30.000Z</time>
      </trkpt>
      <trkpt lat="44.77504" lon="5.06377">
        <ele>608</ele>
        <time>2020-02-07T11:31:31.000Z</time>
      </trkpt>
      <trkpt lat="44.77504" lon="5.06377">
        <ele>608</ele>
        <time>2020-02-07T11:31:32.000Z</time>
      </trkpt>
      <trkpt lat="44.77504" lon="5.06377">
        <ele>608</ele>
        <time>2020-02-07T11:31:33.000Z</time>
      </trkpt>
      <trkpt lat="44.77504" lon="5.06377">
        <ele>608</ele>
        <time>2020-02-07T11:31:34.000Z</time>
      </trkpt>
      <trkpt lat="44.77504" lon="5.06377">
        <ele>608</ele>
        <time>2020-02-07T11:31:35.000Z</time>
      </trkpt>
      <trkpt lat="44.77504" lon="5.06377">
        <ele>608</ele>
        <time>2020-02-07T11:31:36.000Z</time>
      </trkpt>
      <trkpt lat="44.77504" lon="5.06377">
        <ele>608</ele>
        <time>2020-02-07T11:31:37.000Z</time>
      </trkpt>
      <trkpt lat="44.77504" lon="5.06377">
        <ele>608</ele>
        <time>2020-02-07T11:31:38.000Z</time>
      </trkpt>
      <trkpt lat="44.77504" lon="5.06377">
        <ele>608</ele>
        <time>2020-02-07T11:31:39.000Z</time>
      </trkpt>
      <trkpt lat="44.77504" lon="5.06377">
        <ele>608</ele>
        <time>2020-02-07T11:31:40.000Z</time>
      </trkpt>
      <trkpt lat="44.77504" lon="5.06377">
        <ele>608</ele>
        <time>2020-02-07T11:31:41.000Z</time>
      </trkpt>
      <trkpt lat="44.77504" lon="5.06377">
        <ele>608</ele>
        <time>2020-02-07T11:31:42.000Z</time>
      </trkpt>
      <trkpt lat="44.77504" lon="5.06377">
        <ele>608</ele>
        <time>2020-02-07T11:31:43.000Z</time>
      </trkpt>
      <trkpt lat="44.77504" lon="5.06377">
        <ele>608</ele>
        <time>2020-02-07T11:31:44.000Z</time>
      </trkpt>
      <trkpt lat="44.77504" lon="5.06377">
        <ele>608</ele>
        <time>2020-02-07T11:31:45.000Z</time>
      </trkpt>
      <trkpt lat="44.77504" lon="5.06377">
        <ele>608</ele>
        <time>2020-02-07T11:31:46.000Z</time>
      </trkpt>
      <trkpt lat="44.77504" lon="5.06377">
        <ele>608</ele>
        <time>2020-02-07T11:31:47.000Z</time>
      </trkpt>
      <trkpt lat="44.77504" lon="5.06377">
        <ele>608</ele>
        <time>2020-02-07T11:31:48.000Z</time>
      </trkpt>
      <trkpt lat="44.77504" lon="5.06377">
        <ele>608</ele>
        <time>2020-02-07T11:31:49.000Z</time>
      </trkpt>
      <trkpt lat="44.77504" lon="5.06377">
        <ele>608</ele>
        <time>2020-02-07T11:31:50.000Z</time>
      </trkpt>
      <trkpt lat="44.77504" lon="5.06377">
        <ele>608</ele>
        <time>2020-02-07T11:31:51.000Z</time>
      </trkpt>
      <trkpt lat="44.77504" lon="5.06377">
        <ele>608</ele>
        <time>2020-02-07T11:31:52.000Z</time>
      </trkpt>
      <trkpt lat="44.77504" lon="5.06377">
        <ele>608</ele>
        <time>2020-02-07T11:31:53.000Z</time>
      </trkpt>
      <trkpt lat="44.77504" lon="5.06377">
        <ele>608</ele>
        <time>2020-02-07T11:31:54.000Z</time>
      </trkpt>
      <trkpt lat="44.77504" lon="5.06377">
        <ele>608</ele>
        <time>2020-02-07T11:31:55.000Z</time>
      </trkpt>
      <trkpt lat="44.77504" lon="5.06377">
        <ele>608</ele>
        <time>2020-02-07T11:31:56.000Z</time>
      </trkpt>
      <trkpt lat="44.77504" lon="5.06377">
        <ele>608</ele>
        <time>2020-02-07T11:31:57.000Z</time>
      </trkpt>
      <trkpt lat="44.77504" lon="5.06377">
        <ele>608</ele>
        <time>2020-02-07T11:31:58.000Z</time>
      </trkpt>
      <trkpt lat="44.77504" lon="5.06377">
        <ele>608</ele>
        <time>2020-02-07T11:31:59.000Z</time>
      </trkpt>
      <trkpt lat="44.77504" lon="5.06377">
        <ele>608</ele>
        <time>2020-02-07T11:32:00.000Z</time>
      </trkpt>
      <trkpt lat="44.77504" lon="5.06376">
        <ele>608</ele>
        <time>2020-02-07T11:32:01.000Z</time>
      </trkpt>
      <trkpt lat="44.77504" lon="5.06376">
        <ele>608</ele>
        <time>2020-02-07T11:32:02.000Z</time>
      </trkpt>
      <trkpt lat="44.77504" lon="5.06376">
        <ele>608</ele>
        <time>2020-02-07T11:32:03.000Z</time>
      </trkpt>
      <trkpt lat="44.77504" lon="5.06376">
        <ele>608</ele>
        <time>2020-02-07T11:32:04.000Z</time>
      </trkpt>
      <trkpt lat="44.77504" lon="5.06376">
        <ele>608</ele>
        <time>2020-02-07T11:32:05.000Z</time>
      </trkpt>
      <trkpt lat="44.77504" lon="5.06376">
        <ele>608</ele>
        <time>2020-02-07T11:32:06.000Z</time>
      </trkpt>
      <trkpt lat="44.77504" lon="5.06376">
        <ele>608</ele>
        <time>2020-02-07T11:32:07.000Z</time>
      </trkpt>
      <trkpt lat="44.77504" lon="5.06376">
        <ele>608</ele>
        <time>2020-02-07T11:32:08.000Z</time>
      </trkpt>
      <trkpt lat="44.77504" lon="5.06376">
        <ele>608</ele>
        <time>2020-02-07T11:32:09.000Z</time>
      </trkpt>
      <trkpt lat="44.77504" lon="5.06376">
        <ele>608</ele>
        <time>2020-02-07T11:32:10.000Z</time>
      </trkpt>
      <trkpt lat="44.77504" lon="5.06376">
        <ele>608</ele>
        <time>2020-02-07T11:32:11.000Z</time>
      </trkpt>
      <trkpt lat="44.77504" lon="5.06376">
        <ele>608</ele>
        <time>2020-02-07T11:32:12.000Z</time>
      </trkpt>
      <trkpt lat="44.77504" lon="5.06376">
        <ele>608</ele>
        <time>2020-02-07T11:32:13.000Z</time>
      </trkpt>
      <trkpt lat="44.77504" lon="5.06376">
        <ele>608</ele>
        <time>2020-02-07T11:32:14.000Z</time>
      </trkpt>
      <trkpt lat="44.77504" lon="5.06377">
        <ele>608</ele>
        <time>2020-02-07T11:32:15.000Z</time>
      </trkpt>
      <trkpt lat="44.77504" lon="5.06377">
        <ele>608</ele>
        <time>2020-02-07T11:32:16.000Z</time>
      </trkpt>
      <trkpt lat="44.77505" lon="5.06377">
        <ele>608</ele>
        <time>2020-02-07T11:32:17.000Z</time>
      </trkpt>
      <trkpt lat="44.77505" lon="5.06377">
        <ele>608</ele>
        <time>2020-02-07T11:32:18.000Z</time>
      </trkpt>
      <trkpt lat="44.77505" lon="5.06377">
        <ele>608</ele>
        <time>2020-02-07T11:32:19.000Z</time>
      </trkpt>
      <trkpt lat="44.77505" lon="5.06377">
        <ele>608</ele>
        <time>2020-02-07T11:32:20.000Z</time>
      </trkpt>
      <trkpt lat="44.77505" lon="5.06377">
        <ele>608</ele>
        <time>2020-02-07T11:32:21.000Z</time>
      </trkpt>
      <trkpt lat="44.77505" lon="5.06377">
        <ele>608</ele>
        <time>2020-02-07T11:32:22.000Z</time>
      </trkpt>
      <trkpt lat="44.77505" lon="5.06377">
        <ele>608</ele>
        <time>2020-02-07T11:32:23.000Z</time>
      </trkpt>
      <trkpt lat="44.77505" lon="5.06377">
        <ele>608</ele>
        <time>2020-02-07T11:32:24.000Z</time>
      </trkpt>
      <trkpt lat="44.77505" lon="5.06377">
        <ele>608</ele>
        <time>2020-02-07T11:32:25.000Z</time>
      </trkpt>
      <trkpt lat="44.77505" lon="5.06377">
        <ele>608</ele>
        <time>2020-02-07T11:32:26.000Z</time>
      </trkpt>
      <trkpt lat="44.77505" lon="5.06377">
        <ele>608</ele>
        <time>2020-02-07T11:32:27.000Z</time>
      </trkpt>
      <trkpt lat="44.77506" lon="5.06377">
        <ele>608</ele>
        <time>2020-02-07T11:32:28.000Z</time>
      </trkpt>
      <trkpt lat="44.77506" lon="5.06378">
        <ele>608</ele>
        <time>2020-02-07T11:32:29.000Z</time>
      </trkpt>
      <trkpt lat="44.77506" lon="5.06378">
        <ele>609</ele>
        <time>2020-02-07T11:32:30.000Z</time>
      </trkpt>
      <trkpt lat="44.77506" lon="5.06378">
        <ele>609</ele>
        <time>2020-02-07T11:32:31.000Z</time>
      </trkpt>
      <trkpt lat="44.77506" lon="5.06378">
        <ele>609</ele>
        <time>2020-02-07T11:32:32.000Z</time>
      </trkpt>
      <trkpt lat="44.77506" lon="5.06378">
        <ele>609</ele>
        <time>2020-02-07T11:32:33.000Z</time>
      </trkpt>
      <trkpt lat="44.77506" lon="5.06378">
        <ele>609</ele>
        <time>2020-02-07T11:32:34.000Z</time>
      </trkpt>
      <trkpt lat="44.77506" lon="5.06378">
        <ele>609</ele>
        <time>2020-02-07T11:32:35.000Z</time>
      </trkpt>
      <trkpt lat="44.77506" lon="5.06378">
        <ele>609</ele>
        <time>2020-02-07T11:32:36.000Z</time>
      </trkpt>
      <trkpt lat="44.77506" lon="5.06378">
        <ele>609</ele>
        <time>2020-02-07T11:32:37.000Z</time>
      </trkpt>
      <trkpt lat="44.77506" lon="5.06378">
        <ele>609</ele>
        <time>2020-02-07T11:32:38.000Z</time>
      </trkpt>
      <trkpt lat="44.77506" lon="5.06378">
        <ele>609</ele>
        <time>2020-02-07T11:32:39.000Z</time>
      </trkpt>
      <trkpt lat="44.77506" lon="5.06378">
        <ele>609</ele>
        <time>2020-02-07T11:32:40.000Z</time>
      </trkpt>
      <trkpt lat="44.77506" lon="5.06378">
        <ele>609</ele>
        <time>2020-02-07T11:32:41.000Z</time>
      </trkpt>
      <trkpt lat="44.77506" lon="5.06378">
        <ele>609</ele>
        <time>2020-02-07T11:32:42.000Z</time>
      </trkpt>
      <trkpt lat="44.77506" lon="5.06378">
        <ele>609</ele>
        <time>2020-02-07T11:32:43.000Z</time>
      </trkpt>
      <trkpt lat="44.77506" lon="5.06378">
        <ele>609</ele>
        <time>2020-02-07T11:32:44.000Z</time>
      </trkpt>
      <trkpt lat="44.77506" lon="5.06378">
        <ele>609</ele>
        <time>2020-02-07T11:32:45.000Z</time>
      </trkpt>
      <trkpt lat="44.77506" lon="5.06378">
        <ele>609</ele>
        <time>2020-02-07T11:32:46.000Z</time>
      </trkpt>
      <trkpt lat="44.77506" lon="5.06378">
        <ele>609</ele>
        <time>2020-02-07T11:32:47.000Z</time>
      </trkpt>
      <trkpt lat="44.77506" lon="5.06378">
        <ele>609</ele>
        <time>2020-02-07T11:32:48.000Z</time>
      </trkpt>
      <trkpt lat="44.77506" lon="5.06378">
        <ele>609</ele>
        <time>2020-02-07T11:32:49.000Z</time>
      </trkpt>
      <trkpt lat="44.77506" lon="5.06378">
        <ele>609</ele>
        <time>2020-02-07T11:32:50.000Z</time>
      </trkpt>
      <trkpt lat="44.77506" lon="5.06378">
        <ele>609</ele>
        <time>2020-02-07T11:32:51.000Z</time>
      </trkpt>
      <trkpt lat="44.77506" lon="5.06378">
        <ele>609</ele>
        <time>2020-02-07T11:32:52.000Z</time>
      </trkpt>
      <trkpt lat="44.77506" lon="5.06378">
        <ele>609</ele>
        <time>2020-02-07T11:32:53.000Z</time>
      </trkpt>
      <trkpt lat="44.77506" lon="5.06378">
        <ele>609</ele>
        <time>2020-02-07T11:32:54.000Z</time>
      </trkpt>
      <trkpt lat="44.77506" lon="5.06378">
        <ele>609</ele>
        <time>2020-02-07T11:32:55.000Z</time>
      </trkpt>
      <trkpt lat="44.77506" lon="5.06378">
        <ele>609</ele>
        <time>2020-02-07T11:32:56.000Z</time>
      </trkpt>
      <trkpt lat="44.77506" lon="5.06378">
        <ele>609</ele>
        <time>2020-02-07T11:32:57.000Z</time>
      </trkpt>
      <trkpt lat="44.77506" lon="5.06378">
        <ele>609</ele>
        <time>2020-02-07T11:32:58.000Z</time>
      </trkpt>
      <trkpt lat="44.77506" lon="5.06378">
        <ele>609</ele>
        <time>2020-02-07T11:32:59.000Z</time>
      </trkpt>
      <trkpt lat="44.77506" lon="5.06378">
        <ele>609</ele>
        <time>2020-02-07T11:33:00.000Z</time>
      </trkpt>
      <trkpt lat="44.77506" lon="5.06378">
        <ele>609</ele>
        <time>2020-02-07T11:33:01.000Z</time>
      </trkpt>
      <trkpt lat="44.77506" lon="5.06377">
        <ele>609</ele>
        <time>2020-02-07T11:33:02.000Z</time>
      </trkpt>
      <trkpt lat="44.77506" lon="5.06377">
        <ele>609</ele>
        <time>2020-02-07T11:33:03.000Z</time>
      </trkpt>
      <trkpt lat="44.77506" lon="5.06377">
        <ele>609</ele>
        <time>2020-02-07T11:33:04.000Z</time>
      </trkpt>
      <trkpt lat="44.77506" lon="5.06377">
        <ele>609</ele>
        <time>2020-02-07T11:33:05.000Z</time>
      </trkpt>
      <trkpt lat="44.77506" lon="5.06377">
        <ele>609</ele>
        <time>2020-02-07T11:33:06.000Z</time>
      </trkpt>
      <trkpt lat="44.77506" lon="5.06377">
        <ele>609</ele>
        <time>2020-02-07T11:33:07.000Z</time>
      </trkpt>
      <trkpt lat="44.77506" lon="5.06377">
        <ele>609</ele>
        <time>2020-02-07T11:33:08.000Z</time>
      </trkpt>
      <trkpt lat="44.77506" lon="5.06377">
        <ele>609</ele>
        <time>2020-02-07T11:33:09.000Z</time>
      </trkpt>
      <trkpt lat="44.77506" lon="5.06377">
        <ele>609</ele>
        <time>2020-02-07T11:33:10.000Z</time>
      </trkpt>
      <trkpt lat="44.77506" lon="5.06377">
        <ele>609</ele>
        <time>2020-02-07T11:33:11.000Z</time>
      </trkpt>
      <trkpt lat="44.77506" lon="5.06377">
        <ele>609</ele>
        <time>2020-02-07T11:33:12.000Z</time>
      </trkpt>
      <trkpt lat="44.77506" lon="5.06377">
        <ele>609</ele>
        <time>2020-02-07T11:33:13.000Z</time>
      </trkpt>
      <trkpt lat="44.77506" lon="5.06377">
        <ele>609</ele>
        <time>2020-02-07T11:33:14.000Z</time>
      </trkpt>
      <trkpt lat="44.77506" lon="5.06377">
        <ele>609</ele>
        <time>2020-02-07T11:33:15.000Z</time>
      </trkpt>
      <trkpt lat="44.77506" lon="5.06377">
        <ele>609</ele>
        <time>2020-02-07T11:33:16.000Z</time>
      </trkpt>
      <trkpt lat="44.77506" lon="5.06377">
        <ele>609</ele>
        <time>2020-02-07T11:33:17.000Z</time>
      </trkpt>
      <trkpt lat="44.77506" lon="5.06377">
        <ele>609</ele>
        <time>2020-02-07T11:33:18.000Z</time>
      </trkpt>
      <trkpt lat="44.77506" lon="5.06377">
        <ele>609</ele>
        <time>2020-02-07T11:33:19.000Z</time>
      </trkpt>
      <trkpt lat="44.77506" lon="5.06377">
        <ele>609</ele>
        <time>2020-02-07T11:33:20.000Z</time>
      </trkpt>
      <trkpt lat="44.77506" lon="5.06377">
        <ele>609</ele>
        <time>2020-02-07T11:33:21.000Z</time>
      </trkpt>
      <trkpt lat="44.77506" lon="5.06377">
        <ele>609</ele>
        <time>2020-02-07T11:33:22.000Z</time>
      </trkpt>
      <trkpt lat="44.77506" lon="5.06377">
        <ele>609</ele>
        <time>2020-02-07T11:33:23.000Z</time>
      </trkpt>
      <trkpt lat="44.77506" lon="5.06377">
        <ele>609</ele>
        <time>2020-02-07T11:33:24.000Z</time>
      </trkpt>
      <trkpt lat="44.77506" lon="5.06377">
        <ele>609</ele>
        <time>2020-02-07T11:33:25.000Z</time>
      </trkpt>
      <trkpt lat="44.77506" lon="5.06377">
        <ele>609</ele>
        <time>2020-02-07T11:33:26.000Z</time>
      </trkpt>
      <trkpt lat="44.77506" lon="5.06377">
        <ele>609</ele>
        <time>2020-02-07T11:33:27.000Z</time>
      </trkpt>
      <trkpt lat="44.77506" lon="5.06377">
        <ele>609</ele>
        <time>2020-02-07T11:33:28.000Z</time>
      </trkpt>
      <trkpt lat="44.77506" lon="5.06377">
        <ele>609</ele>
        <time>2020-02-07T11:33:29.000Z</time>
      </trkpt>
      <trkpt lat="44.77506" lon="5.06377">
        <ele>609</ele>
        <time>2020-02-07T11:33:30.000Z</time>
      </trkpt>
      <trkpt lat="44.77506" lon="5.06377">
        <ele>609</ele>
        <time>2020-02-07T11:33:31.000Z</time>
      </trkpt>
      <trkpt lat="44.77506" lon="5.06377">
        <ele>609</ele>
        <time>2020-02-07T11:33:32.000Z</time>
      </trkpt>
      <trkpt lat="44.77506" lon="5.06377">
        <ele>609</ele>
        <time>2020-02-07T11:33:33.000Z</time>
      </trkpt>
      <trkpt lat="44.77506" lon="5.06377">
        <ele>609</ele>
        <time>2020-02-07T11:33:34.000Z</time>
      </trkpt>
      <trkpt lat="44.77506" lon="5.06377">
        <ele>609</ele>
        <time>2020-02-07T11:33:35.000Z</time>
      </trkpt>
      <trkpt lat="44.77506" lon="5.06377">
        <ele>609</ele>
        <time>2020-02-07T11:33:36.000Z</time>
      </trkpt>
      <trkpt lat="44.77506" lon="5.06377">
        <ele>609</ele>
        <time>2020-02-07T11:33:37.000Z</time>
      </trkpt>
      <trkpt lat="44.77506" lon="5.06377">
        <ele>609</ele>
        <time>2020-02-07T11:33:38.000Z</time>
      </trkpt>
      <trkpt lat="44.77506" lon="5.06377">
        <ele>610</ele>
        <time>2020-02-07T11:33:39.000Z</time>
      </trkpt>
      <trkpt lat="44.77506" lon="5.06377">
        <ele>610</ele>
        <time>2020-02-07T11:33:40.000Z</time>
      </trkpt>
      <trkpt lat="44.77506" lon="5.06377">
        <ele>610</ele>
        <time>2020-02-07T11:33:41.000Z</time>
      </trkpt>
      <trkpt lat="44.77506" lon="5.06377">
        <ele>610</ele>
        <time>2020-02-07T11:33:42.000Z</time>
      </trkpt>
      <trkpt lat="44.77506" lon="5.06377">
        <ele>610</ele>
        <time>2020-02-07T11:33:43.000Z</time>
      </trkpt>
      <trkpt lat="44.77506" lon="5.06377">
        <ele>610</ele>
        <time>2020-02-07T11:33:44.000Z</time>
      </trkpt>
      <trkpt lat="44.77506" lon="5.06377">
        <ele>610</ele>
        <time>2020-02-07T11:33:45.000Z</time>
      </trkpt>
      <trkpt lat="44.77506" lon="5.06377">
        <ele>610</ele>
        <time>2020-02-07T11:33:46.000Z</time>
      </trkpt>
      <trkpt lat="44.77506" lon="5.06377">
        <ele>610</ele>
        <time>2020-02-07T11:33:47.000Z</time>
      </trkpt>
      <trkpt lat="44.77506" lon="5.06377">
        <ele>610</ele>
        <time>2020-02-07T11:33:48.000Z</time>
      </trkpt>
      <trkpt lat="44.77506" lon="5.06377">
        <ele>610</ele>
        <time>2020-02-07T11:33:49.000Z</time>
      </trkpt>
      <trkpt lat="44.77506" lon="5.06377">
        <ele>610</ele>
        <time>2020-02-07T11:33:50.000Z</time>
      </trkpt>
      <trkpt lat="44.77506" lon="5.06377">
        <ele>610</ele>
        <time>2020-02-07T11:33:51.000Z</time>
      </trkpt>
      <trkpt lat="44.77506" lon="5.06377">
        <ele>610</ele>
        <time>2020-02-07T11:33:52.000Z</time>
      </trkpt>
      <trkpt lat="44.77506" lon="5.06377">
        <ele>610</ele>
        <time>2020-02-07T11:33:53.000Z</time>
      </trkpt>
      <trkpt lat="44.77506" lon="5.06377">
        <ele>610</ele>
        <time>2020-02-07T11:33:54.000Z</time>
      </trkpt>
      <trkpt lat="44.77506" lon="5.06377">
        <ele>610</ele>
        <time>2020-02-07T11:33:55.000Z</time>
      </trkpt>
      <trkpt lat="44.77506" lon="5.06377">
        <ele>610</ele>
        <time>2020-02-07T11:33:56.000Z</time>
      </trkpt>
      <trkpt lat="44.77506" lon="5.06377">
        <ele>610</ele>
        <time>2020-02-07T11:33:57.000Z</time>
      </trkpt>
      <trkpt lat="44.77506" lon="5.06377">
        <ele>610</ele>
        <time>2020-02-07T11:33:58.000Z</time>
      </trkpt>
      <trkpt lat="44.77506" lon="5.06377">
        <ele>610</ele>
        <time>2020-02-07T11:33:59.000Z</time>
      </trkpt>
      <trkpt lat="44.77506" lon="5.06377">
        <ele>610</ele>
        <time>2020-02-07T11:34:00.000Z</time>
      </trkpt>
      <trkpt lat="44.77506" lon="5.06377">
        <ele>610</ele>
        <time>2020-02-07T11:34:01.000Z</time>
      </trkpt>
      <trkpt lat="44.77506" lon="5.06377">
        <ele>610</ele>
        <time>2020-02-07T11:34:02.000Z</time>
      </trkpt>
      <trkpt lat="44.77506" lon="5.06376">
        <ele>610</ele>
        <time>2020-02-07T11:34:03.000Z</time>
      </trkpt>
      <trkpt lat="44.77506" lon="5.06376">
        <ele>610</ele>
        <time>2020-02-07T11:34:04.000Z</time>
      </trkpt>
      <trkpt lat="44.77506" lon="5.06376">
        <ele>610</ele>
        <time>2020-02-07T11:34:05.000Z</time>
      </trkpt>
      <trkpt lat="44.77506" lon="5.06376">
        <ele>610</ele>
        <time>2020-02-07T11:34:06.000Z</time>
      </trkpt>
      <trkpt lat="44.77506" lon="5.06376">
        <ele>610</ele>
        <time>2020-02-07T11:34:07.000Z</time>
      </trkpt>
      <trkpt lat="44.77506" lon="5.06376">
        <ele>610</ele>
        <time>2020-02-07T11:34:08.000Z</time>
      </trkpt>
      <trkpt lat="44.77506" lon="5.06376">
        <ele>610</ele>
        <time>2020-02-07T11:34:09.000Z</time>
      </trkpt>
      <trkpt lat="44.77506" lon="5.06376">
        <ele>610</ele>
        <time>2020-02-07T11:34:10.000Z</time>
      </trkpt>
      <trkpt lat="44.77506" lon="5.06376">
        <ele>610</ele>
        <time>2020-02-07T11:34:11.000Z</time>
      </trkpt>
      <trkpt lat="44.77506" lon="5.06376">
        <ele>610</ele>
        <time>2020-02-07T11:34:12.000Z</time>
      </trkpt>
      <trkpt lat="44.77506" lon="5.06376">
        <ele>610</ele>
        <time>2020-02-07T11:34:13.000Z</time>
      </trkpt>
      <trkpt lat="44.77506" lon="5.06376">
        <ele>610</ele>
        <time>2020-02-07T11:34:14.000Z</time>
      </trkpt>
      <trkpt lat="44.77506" lon="5.06376">
        <ele>610</ele>
        <time>2020-02-07T11:34:15.000Z</time>
      </trkpt>
      <trkpt lat="44.77506" lon="5.06376">
        <ele>610</ele>
        <time>2020-02-07T11:34:16.000Z</time>
      </trkpt>
      <trkpt lat="44.77506" lon="5.06376">
        <ele>610</ele>
        <time>2020-02-07T11:34:17.000Z</time>
      </trkpt>
      <trkpt lat="44.77506" lon="5.06376">
        <ele>610</ele>
        <time>2020-02-07T11:34:18.000Z</time>
      </trkpt>
      <trkpt lat="44.77506" lon="5.06376">
        <ele>610</ele>
        <time>2020-02-07T11:34:19.000Z</time>
      </trkpt>
      <trkpt lat="44.77506" lon="5.06376">
        <ele>610</ele>
        <time>2020-02-07T11:34:20.000Z</time>
      </trkpt>
      <trkpt lat="44.77506" lon="5.06376">
        <ele>610</ele>
        <time>2020-02-07T11:34:21.000Z</time>
      </trkpt>
      <trkpt lat="44.77506" lon="5.06376">
        <ele>610</ele>
        <time>2020-02-07T11:34:22.000Z</time>
      </trkpt>
      <trkpt lat="44.77506" lon="5.06376">
        <ele>610</ele>
        <time>2020-02-07T11:34:23.000Z</time>
      </trkpt>
      <trkpt lat="44.77506" lon="5.06376">
        <ele>610</ele>
        <time>2020-02-07T11:34:24.000Z</time>
      </trkpt>
      <trkpt lat="44.77506" lon="5.06376">
        <ele>610</ele>
        <time>2020-02-07T11:34:25.000Z</time>
      </trkpt>
      <trkpt lat="44.77506" lon="5.06376">
        <ele>610</ele>
        <time>2020-02-07T11:34:26.000Z</time>
      </trkpt>
      <trkpt lat="44.77506" lon="5.06376">
        <ele>610</ele>
        <time>2020-02-07T11:34:27.000Z</time>
      </trkpt>
      <trkpt lat="44.77506" lon="5.06376">
        <ele>610</ele>
        <time>2020-02-07T11:34:28.000Z</time>
      </trkpt>
      <trkpt lat="44.77506" lon="5.06376">
        <ele>610</ele>
        <time>2020-02-07T11:34:29.000Z</time>
      </trkpt>
      <trkpt lat="44.77506" lon="5.06376">
        <ele>610</ele>
        <time>2020-02-07T11:34:30.000Z</time>
      </trkpt>
      <trkpt lat="44.77506" lon="5.06376">
        <ele>610</ele>
        <time>2020-02-07T11:34:31.000Z</time>
      </trkpt>
      <trkpt lat="44.77506" lon="5.06376">
        <ele>610</ele>
        <time>2020-02-07T11:34:32.000Z</time>
      </trkpt>
      <trkpt lat="44.77506" lon="5.06376">
        <ele>610</ele>
        <time>2020-02-07T11:34:33.000Z</time>
      </trkpt>
      <trkpt lat="44.77506" lon="5.06376">
        <ele>610</ele>
        <time>2020-02-07T11:34:34.000Z</time>
      </trkpt>
      <trkpt lat="44.77506" lon="5.06376">
        <ele>610</ele>
        <time>2020-02-07T11:34:35.000Z</time>
      </trkpt>
      <trkpt lat="44.77506" lon="5.06376">
        <ele>610</ele>
        <time>2020-02-07T11:34:36.000Z</time>
      </trkpt>
      <trkpt lat="44.77506" lon="5.06376">
        <ele>610</ele>
        <time>2020-02-07T11:34:37.000Z</time>
      </trkpt>
      <trkpt lat="44.77506" lon="5.06376">
        <ele>610</ele>
        <time>2020-02-07T11:34:38.000Z</time>
      </trkpt>
      <trkpt lat="44.77506" lon="5.06376">
        <ele>610</ele>
        <time>2020-02-07T11:34:39.000Z</time>
      </trkpt>
      <trkpt lat="44.77506" lon="5.06376">
        <ele>610</ele>
        <time>2020-02-07T11:34:40.000Z</time>
      </trkpt>
      <trkpt lat="44.77506" lon="5.06376">
        <ele>610</ele>
        <time>2020-02-07T11:34:41.000Z</time>
      </trkpt>
      <trkpt lat="44.77506" lon="5.06376">
        <ele>610</ele>
        <time>2020-02-07T11:34:42.000Z</time>
      </trkpt>
      <trkpt lat="44.77506" lon="5.06376">
        <ele>610</ele>
        <time>2020-02-07T11:34:43.000Z</time>
      </trkpt>
      <trkpt lat="44.77506" lon="5.06376">
        <ele>610</ele>
        <time>2020-02-07T11:34:44.000Z</time>
      </trkpt>
      <trkpt lat="44.77506" lon="5.06376">
        <ele>610</ele>
        <time>2020-02-07T11:34:45.000Z</time>
      </trkpt>
      <trkpt lat="44.77506" lon="5.06376">
        <ele>610</ele>
        <time>2020-02-07T11:34:46.000Z</time>
      </trkpt>
      <trkpt lat="44.77506" lon="5.06376">
        <ele>610</ele>
        <time>2020-02-07T11:34:47.000Z</time>
      </trkpt>
      <trkpt lat="44.77506" lon="5.06376">
        <ele>610</ele>
        <time>2020-02-07T11:34:48.000Z</time>
      </trkpt>
      <trkpt lat="44.77506" lon="5.06376">
        <ele>610</ele>
        <time>2020-02-07T11:34:49.000Z</time>
      </trkpt>
      <trkpt lat="44.77506" lon="5.06376">
        <ele>610</ele>
        <time>2020-02-07T11:34:50.000Z</time>
      </trkpt>
      <trkpt lat="44.77506" lon="5.06376">
        <ele>610</ele>
        <time>2020-02-07T11:34:51.000Z</time>
      </trkpt>
      <trkpt lat="44.77506" lon="5.06376">
        <ele>610</ele>
        <time>2020-02-07T11:34:52.000Z</time>
      </trkpt>
      <trkpt lat="44.77506" lon="5.06376">
        <ele>610</ele>
        <time>2020-02-07T11:34:53.000Z</time>
      </trkpt>
      <trkpt lat="44.77506" lon="5.06376">
        <ele>610</ele>
        <time>2020-02-07T11:34:54.000Z</time>
      </trkpt>
      <trkpt lat="44.77506" lon="5.06376">
        <ele>610</ele>
        <time>2020-02-07T11:34:55.000Z</time>
      </trkpt>
      <trkpt lat="44.77506" lon="5.06376">
        <ele>610</ele>
        <time>2020-02-07T11:34:56.000Z</time>
      </trkpt>
      <trkpt lat="44.77506" lon="5.06376">
        <ele>610</ele>
        <time>2020-02-07T11:34:57.000Z</time>
      </trkpt>
      <trkpt lat="44.77506" lon="5.06376">
        <ele>610</ele>
        <time>2020-02-07T11:34:58.000Z</time>
      </trkpt>
      <trkpt lat="44.77506" lon="5.06377">
        <ele>610</ele>
        <time>2020-02-07T11:34:59.000Z</time>
      </trkpt>
      <trkpt lat="44.77506" lon="5.06377">
        <ele>610</ele>
        <time>2020-02-07T11:35:00.000Z</time>
      </trkpt>
      <trkpt lat="44.77506" lon="5.06377">
        <ele>610</ele>
        <time>2020-02-07T11:35:01.000Z</time>
      </trkpt>
      <trkpt lat="44.77506" lon="5.06377">
        <ele>610</ele>
        <time>2020-02-07T11:35:02.000Z</time>
      </trkpt>
      <trkpt lat="44.77506" lon="5.06377">
        <ele>610</ele>
        <time>2020-02-07T11:35:03.000Z</time>
      </trkpt>
      <trkpt lat="44.77506" lon="5.06377">
        <ele>610</ele>
        <time>2020-02-07T11:35:04.000Z</time>
      </trkpt>
      <trkpt lat="44.77506" lon="5.06377">
        <ele>610</ele>
        <time>2020-02-07T11:35:05.000Z</time>
      </trkpt>
      <trkpt lat="44.77506" lon="5.06377">
        <ele>610</ele>
        <time>2020-02-07T11:35:06.000Z</time>
      </trkpt>
      <trkpt lat="44.77506" lon="5.06376">
        <ele>610</ele>
        <time>2020-02-07T11:35:07.000Z</time>
      </trkpt>
      <trkpt lat="44.77506" lon="5.06376">
        <ele>610</ele>
        <time>2020-02-07T11:35:08.000Z</time>
      </trkpt>
      <trkpt lat="44.77506" lon="5.06376">
        <ele>610</ele>
        <time>2020-02-07T11:35:09.000Z</time>
      </trkpt>
      <trkpt lat="44.77506" lon="5.06376">
        <ele>610</ele>
        <time>2020-02-07T11:35:10.000Z</time>
      </trkpt>
      <trkpt lat="44.77506" lon="5.06376">
        <ele>610</ele>
        <time>2020-02-07T11:35:11.000Z</time>
      </trkpt>
      <trkpt lat="44.77506" lon="5.06376">
        <ele>610</ele>
        <time>2020-02-07T11:35:12.000Z</time>
      </trkpt>
      <trkpt lat="44.77506" lon="5.06376">
        <ele>610</ele>
        <time>2020-02-07T11:35:13.000Z</time>
      </trkpt>
      <trkpt lat="44.77506" lon="5.06376">
        <ele>610</ele>
        <time>2020-02-07T11:35:14.000Z</time>
      </trkpt>
      <trkpt lat="44.77506" lon="5.06376">
        <ele>610</ele>
        <time>2020-02-07T11:35:15.000Z</time>
      </trkpt>
      <trkpt lat="44.77506" lon="5.06376">
        <ele>610</ele>
        <time>2020-02-07T11:35:16.000Z</time>
      </trkpt>
      <trkpt lat="44.77506" lon="5.06376">
        <ele>610</ele>
        <time>2020-02-07T11:35:17.000Z</time>
      </trkpt>
      <trkpt lat="44.77506" lon="5.06377">
        <ele>610</ele>
        <time>2020-02-07T11:35:18.000Z</time>
      </trkpt>
      <trkpt lat="44.77506" lon="5.06377">
        <ele>611</ele>
        <time>2020-02-07T11:35:19.000Z</time>
      </trkpt>
      <trkpt lat="44.77506" lon="5.06377">
        <ele>611</ele>
        <time>2020-02-07T11:35:20.000Z</time>
      </trkpt>
      <trkpt lat="44.77506" lon="5.06377">
        <ele>611</ele>
        <time>2020-02-07T11:35:21.000Z</time>
      </trkpt>
      <trkpt lat="44.77507" lon="5.06377">
        <ele>611</ele>
        <time>2020-02-07T11:35:22.000Z</time>
      </trkpt>
      <trkpt lat="44.77507" lon="5.06377">
        <ele>611</ele>
        <time>2020-02-07T11:35:23.000Z</time>
      </trkpt>
      <trkpt lat="44.77507" lon="5.06377">
        <ele>611</ele>
        <time>2020-02-07T11:35:24.000Z</time>
      </trkpt>
      <trkpt lat="44.77507" lon="5.06377">
        <ele>611</ele>
        <time>2020-02-07T11:35:25.000Z</time>
      </trkpt>
      <trkpt lat="44.77506" lon="5.06377">
        <ele>611</ele>
        <time>2020-02-07T11:35:26.000Z</time>
      </trkpt>
      <trkpt lat="44.77506" lon="5.06377">
        <ele>611</ele>
        <time>2020-02-07T11:35:27.000Z</time>
      </trkpt>
      <trkpt lat="44.77506" lon="5.06377">
        <ele>611</ele>
        <time>2020-02-07T11:35:28.000Z</time>
      </trkpt>
      <trkpt lat="44.77506" lon="5.06377">
        <ele>611</ele>
        <time>2020-02-07T11:35:29.000Z</time>
      </trkpt>
      <trkpt lat="44.77506" lon="5.06377">
        <ele>611</ele>
        <time>2020-02-07T11:35:30.000Z</time>
      </trkpt>
      <trkpt lat="44.77506" lon="5.06377">
        <ele>611</ele>
        <time>2020-02-07T11:35:31.000Z</time>
      </trkpt>
      <trkpt lat="44.77506" lon="5.06377">
        <ele>611</ele>
        <time>2020-02-07T11:35:32.000Z</time>
      </trkpt>
      <trkpt lat="44.77506" lon="5.06377">
        <ele>611</ele>
        <time>2020-02-07T11:35:33.000Z</time>
      </trkpt>
      <trkpt lat="44.77506" lon="5.06377">
        <ele>611</ele>
        <time>2020-02-07T11:35:34.000Z</time>
      </trkpt>
      <trkpt lat="44.77506" lon="5.06377">
        <ele>611</ele>
        <time>2020-02-07T11:35:35.000Z</time>
      </trkpt>
      <trkpt lat="44.77506" lon="5.06377">
        <ele>611</ele>
        <time>2020-02-07T11:35:36.000Z</time>
      </trkpt>
      <trkpt lat="44.77506" lon="5.06377">
        <ele>611</ele>
        <time>2020-02-07T11:35:37.000Z</time>
      </trkpt>
      <trkpt lat="44.77506" lon="5.06377">
        <ele>611</ele>
        <time>2020-02-07T11:35:38.000Z</time>
      </trkpt>
      <trkpt lat="44.77506" lon="5.06377">
        <ele>611</ele>
        <time>2020-02-07T11:35:39.000Z</time>
      </trkpt>
      <trkpt lat="44.77506" lon="5.06377">
        <ele>610</ele>
        <time>2020-02-07T11:35:40.000Z</time>
      </trkpt>
      <trkpt lat="44.77506" lon="5.06377">
        <ele>610</ele>
        <time>2020-02-07T11:35:41.000Z</time>
      </trkpt>
      <trkpt lat="44.77506" lon="5.06377">
        <ele>610</ele>
        <time>2020-02-07T11:35:42.000Z</time>
      </trkpt>
      <trkpt lat="44.77506" lon="5.06377">
        <ele>610</ele>
        <time>2020-02-07T11:35:43.000Z</time>
      </trkpt>
      <trkpt lat="44.77506" lon="5.06377">
        <ele>610</ele>
        <time>2020-02-07T11:35:44.000Z</time>
      </trkpt>
      <trkpt lat="44.77506" lon="5.06377">
        <ele>610</ele>
        <time>2020-02-07T11:35:45.000Z</time>
      </trkpt>
      <trkpt lat="44.77506" lon="5.06377">
        <ele>610</ele>
        <time>2020-02-07T11:35:46.000Z</time>
      </trkpt>
      <trkpt lat="44.77506" lon="5.06377">
        <ele>610</ele>
        <time>2020-02-07T11:35:47.000Z</time>
      </trkpt>
      <trkpt lat="44.77506" lon="5.06377">
        <ele>610</ele>
        <time>2020-02-07T11:35:48.000Z</time>
      </trkpt>
      <trkpt lat="44.77506" lon="5.06377">
        <ele>610</ele>
        <time>2020-02-07T11:35:49.000Z</time>
      </trkpt>
      <trkpt lat="44.77506" lon="5.06377">
        <ele>610</ele>
        <time>2020-02-07T11:35:50.000Z</time>
      </trkpt>
      <trkpt lat="44.77506" lon="5.06377">
        <ele>610</ele>
        <time>2020-02-07T11:35:51.000Z</time>
      </trkpt>
      <trkpt lat="44.77506" lon="5.06377">
        <ele>610</ele>
        <time>2020-02-07T11:35:52.000Z</time>
      </trkpt>
      <trkpt lat="44.77506" lon="5.06377">
        <ele>610</ele>
        <time>2020-02-07T11:35:53.000Z</time>
      </trkpt>
      <trkpt lat="44.77506" lon="5.06377">
        <ele>610</ele>
        <time>2020-02-07T11:35:54.000Z</time>
      </trkpt>
      <trkpt lat="44.77506" lon="5.06377">
        <ele>610</ele>
        <time>2020-02-07T11:35:55.000Z</time>
      </trkpt>
      <trkpt lat="44.77506" lon="5.06377">
        <ele>610</ele>
        <time>2020-02-07T11:35:56.000Z</time>
      </trkpt>
      <trkpt lat="44.77506" lon="5.06377">
        <ele>610</ele>
        <time>2020-02-07T11:35:57.000Z</time>
      </trkpt>
      <trkpt lat="44.77506" lon="5.06377">
        <ele>610</ele>
        <time>2020-02-07T11:35:58.000Z</time>
      </trkpt>
      <trkpt lat="44.77506" lon="5.06377">
        <ele>610</ele>
        <time>2020-02-07T11:35:59.000Z</time>
      </trkpt>
      <trkpt lat="44.77506" lon="5.06377">
        <ele>611</ele>
        <time>2020-02-07T11:36:00.000Z</time>
      </trkpt>
      <trkpt lat="44.77506" lon="5.06377">
        <ele>611</ele>
        <time>2020-02-07T11:36:01.000Z</time>
      </trkpt>
      <trkpt lat="44.77506" lon="5.06377">
        <ele>611</ele>
        <time>2020-02-07T11:36:02.000Z</time>
      </trkpt>
      <trkpt lat="44.77505" lon="5.06377">
        <ele>611</ele>
        <time>2020-02-07T11:36:03.000Z</time>
      </trkpt>
      <trkpt lat="44.77505" lon="5.06377">
        <ele>611</ele>
        <time>2020-02-07T11:36:04.000Z</time>
      </trkpt>
      <trkpt lat="44.77505" lon="5.06377">
        <ele>611</ele>
        <time>2020-02-07T11:36:05.000Z</time>
      </trkpt>
      <trkpt lat="44.77506" lon="5.06377">
        <ele>611</ele>
        <time>2020-02-07T11:36:06.000Z</time>
      </trkpt>
      <trkpt lat="44.77506" lon="5.06377">
        <ele>611</ele>
        <time>2020-02-07T11:36:07.000Z</time>
      </trkpt>
      <trkpt lat="44.77506" lon="5.06377">
        <ele>611</ele>
        <time>2020-02-07T11:36:08.000Z</time>
      </trkpt>
      <trkpt lat="44.77506" lon="5.06377">
        <ele>611</ele>
        <time>2020-02-07T11:36:09.000Z</time>
      </trkpt>
      <trkpt lat="44.77506" lon="5.06377">
        <ele>611</ele>
        <time>2020-02-07T11:36:10.000Z</time>
      </trkpt>
      <trkpt lat="44.77506" lon="5.06377">
        <ele>611</ele>
        <time>2020-02-07T11:36:11.000Z</time>
      </trkpt>
      <trkpt lat="44.77506" lon="5.06377">
        <ele>611</ele>
        <time>2020-02-07T11:36:12.000Z</time>
      </trkpt>
      <trkpt lat="44.77506" lon="5.06377">
        <ele>611</ele>
        <time>2020-02-07T11:36:13.000Z</time>
      </trkpt>
      <trkpt lat="44.77506" lon="5.06377">
        <ele>611</ele>
        <time>2020-02-07T11:36:14.000Z</time>
      </trkpt>
      <trkpt lat="44.77506" lon="5.06377">
        <ele>611</ele>
        <time>2020-02-07T11:36:15.000Z</time>
      </trkpt>
      <trkpt lat="44.77506" lon="5.06377">
        <ele>611</ele>
        <time>2020-02-07T11:36:16.000Z</time>
      </trkpt>
      <trkpt lat="44.77506" lon="5.06377">
        <ele>611</ele>
        <time>2020-02-07T11:36:17.000Z</time>
      </trkpt>
      <trkpt lat="44.77506" lon="5.06377">
        <ele>611</ele>
        <time>2020-02-07T11:36:18.000Z</time>
      </trkpt>
      <trkpt lat="44.77506" lon="5.06377">
        <ele>611</ele>
        <time>2020-02-07T11:36:19.000Z</time>
      </trkpt>
      <trkpt lat="44.77506" lon="5.06377">
        <ele>611</ele>
        <time>2020-02-07T11:36:20.000Z</time>
      </trkpt>
      <trkpt lat="44.77506" lon="5.06376">
        <ele>611</ele>
        <time>2020-02-07T11:36:21.000Z</time>
      </trkpt>
      <trkpt lat="44.77506" lon="5.06376">
        <ele>611</ele>
        <time>2020-02-07T11:36:22.000Z</time>
      </trkpt>
      <trkpt lat="44.77506" lon="5.06376">
        <ele>611</ele>
        <time>2020-02-07T11:36:23.000Z</time>
      </trkpt>
      <trkpt lat="44.77507" lon="5.06376">
        <ele>611</ele>
        <time>2020-02-07T11:36:24.000Z</time>
      </trkpt>
      <trkpt lat="44.77507" lon="5.06376">
        <ele>611</ele>
        <time>2020-02-07T11:36:25.000Z</time>
      </trkpt>
      <trkpt lat="44.77507" lon="5.06376">
        <ele>611</ele>
        <time>2020-02-07T11:36:26.000Z</time>
      </trkpt>
      <trkpt lat="44.77507" lon="5.06376">
        <ele>611</ele>
        <time>2020-02-07T11:36:27.000Z</time>
      </trkpt>
      <trkpt lat="44.77507" lon="5.06376">
        <ele>611</ele>
        <time>2020-02-07T11:36:28.000Z</time>
      </trkpt>
      <trkpt lat="44.77507" lon="5.06376">
        <ele>611</ele>
        <time>2020-02-07T11:36:29.000Z</time>
      </trkpt>
      <trkpt lat="44.77507" lon="5.06376">
        <ele>611</ele>
        <time>2020-02-07T11:36:30.000Z</time>
      </trkpt>
      <trkpt lat="44.77507" lon="5.06376">
        <ele>611</ele>
        <time>2020-02-07T11:36:31.000Z</time>
      </trkpt>
      <trkpt lat="44.77507" lon="5.06376">
        <ele>611</ele>
        <time>2020-02-07T11:36:32.000Z</time>
      </trkpt>
      <trkpt lat="44.77507" lon="5.06376">
        <ele>611</ele>
        <time>2020-02-07T11:36:33.000Z</time>
      </trkpt>
      <trkpt lat="44.77507" lon="5.06376">
        <ele>611</ele>
        <time>2020-02-07T11:36:34.000Z</time>
      </trkpt>
      <trkpt lat="44.77507" lon="5.06376">
        <ele>611</ele>
        <time>2020-02-07T11:36:35.000Z</time>
      </trkpt>
      <trkpt lat="44.77507" lon="5.06376">
        <ele>611</ele>
        <time>2020-02-07T11:36:36.000Z</time>
      </trkpt>
      <trkpt lat="44.77507" lon="5.06376">
        <ele>611</ele>
        <time>2020-02-07T11:36:37.000Z</time>
      </trkpt>
      <trkpt lat="44.77507" lon="5.06376">
        <ele>611</ele>
        <time>2020-02-07T11:36:38.000Z</time>
      </trkpt>
      <trkpt lat="44.77507" lon="5.06376">
        <ele>611</ele>
        <time>2020-02-07T11:36:39.000Z</time>
      </trkpt>
      <trkpt lat="44.77507" lon="5.06376">
        <ele>611</ele>
        <time>2020-02-07T11:36:40.000Z</time>
      </trkpt>
      <trkpt lat="44.77507" lon="5.06376">
        <ele>611</ele>
        <time>2020-02-07T11:36:41.000Z</time>
      </trkpt>
      <trkpt lat="44.77507" lon="5.06376">
        <ele>611</ele>
        <time>2020-02-07T11:36:42.000Z</time>
      </trkpt>
      <trkpt lat="44.77507" lon="5.06376">
        <ele>611</ele>
        <time>2020-02-07T11:36:43.000Z</time>
      </trkpt>
      <trkpt lat="44.77507" lon="5.06376">
        <ele>611</ele>
        <time>2020-02-07T11:36:44.000Z</time>
      </trkpt>
      <trkpt lat="44.77507" lon="5.06376">
        <ele>611</ele>
        <time>2020-02-07T11:36:45.000Z</time>
      </trkpt>
      <trkpt lat="44.77507" lon="5.06376">
        <ele>611</ele>
        <time>2020-02-07T11:36:46.000Z</time>
      </trkpt>
      <trkpt lat="44.77507" lon="5.06376">
        <ele>611</ele>
        <time>2020-02-07T11:36:47.000Z</time>
      </trkpt>
      <trkpt lat="44.77507" lon="5.06376">
        <ele>611</ele>
        <time>2020-02-07T11:36:48.000Z</time>
      </trkpt>
      <trkpt lat="44.77507" lon="5.06377">
        <ele>611</ele>
        <time>2020-02-07T11:36:49.000Z</time>
      </trkpt>
      <trkpt lat="44.77507" lon="5.06377">
        <ele>611</ele>
        <time>2020-02-07T11:36:50.000Z</time>
      </trkpt>
      <trkpt lat="44.77507" lon="5.06377">
        <ele>611</ele>
        <time>2020-02-07T11:36:51.000Z</time>
      </trkpt>
      <trkpt lat="44.77507" lon="5.06377">
        <ele>611</ele>
        <time>2020-02-07T11:36:52.000Z</time>
      </trkpt>
      <trkpt lat="44.77507" lon="5.06377">
        <ele>611</ele>
        <time>2020-02-07T11:36:53.000Z</time>
      </trkpt>
      <trkpt lat="44.77507" lon="5.06377">
        <ele>610</ele>
        <time>2020-02-07T11:36:54.000Z</time>
      </trkpt>
      <trkpt lat="44.77507" lon="5.06377">
        <ele>610</ele>
        <time>2020-02-07T11:36:55.000Z</time>
      </trkpt>
      <trkpt lat="44.77507" lon="5.06377">
        <ele>610</ele>
        <time>2020-02-07T11:36:56.000Z</time>
      </trkpt>
      <trkpt lat="44.77507" lon="5.06377">
        <ele>610</ele>
        <time>2020-02-07T11:36:57.000Z</time>
      </trkpt>
      <trkpt lat="44.77507" lon="5.06377">
        <ele>610</ele>
        <time>2020-02-07T11:36:58.000Z</time>
      </trkpt>
      <trkpt lat="44.77507" lon="5.06377">
        <ele>610</ele>
        <time>2020-02-07T11:36:59.000Z</time>
      </trkpt>
      <trkpt lat="44.77507" lon="5.06377">
        <ele>611</ele>
        <time>2020-02-07T11:37:00.000Z</time>
      </trkpt>
      <trkpt lat="44.77507" lon="5.06377">
        <ele>611</ele>
        <time>2020-02-07T11:37:01.000Z</time>
      </trkpt>
      <trkpt lat="44.77507" lon="5.06377">
        <ele>611</ele>
        <time>2020-02-07T11:37:02.000Z</time>
      </trkpt>
      <trkpt lat="44.77507" lon="5.06378">
        <ele>611</ele>
        <time>2020-02-07T11:37:03.000Z</time>
      </trkpt>
      <trkpt lat="44.77507" lon="5.06378">
        <ele>611</ele>
        <time>2020-02-07T11:37:04.000Z</time>
      </trkpt>
      <trkpt lat="44.77507" lon="5.06378">
        <ele>611</ele>
        <time>2020-02-07T11:37:05.000Z</time>
      </trkpt>
      <trkpt lat="44.77507" lon="5.06378">
        <ele>611</ele>
        <time>2020-02-07T11:37:06.000Z</time>
      </trkpt>
      <trkpt lat="44.77507" lon="5.06378">
        <ele>611</ele>
        <time>2020-02-07T11:37:07.000Z</time>
      </trkpt>
      <trkpt lat="44.77507" lon="5.06378">
        <ele>611</ele>
        <time>2020-02-07T11:37:08.000Z</time>
      </trkpt>
      <trkpt lat="44.77507" lon="5.06378">
        <ele>611</ele>
        <time>2020-02-07T11:37:09.000Z</time>
      </trkpt>
      <trkpt lat="44.77507" lon="5.06378">
        <ele>611</ele>
        <time>2020-02-07T11:37:10.000Z</time>
      </trkpt>
      <trkpt lat="44.77507" lon="5.06378">
        <ele>611</ele>
        <time>2020-02-07T11:37:11.000Z</time>
      </trkpt>
      <trkpt lat="44.77507" lon="5.06378">
        <ele>611</ele>
        <time>2020-02-07T11:37:12.000Z</time>
      </trkpt>
      <trkpt lat="44.77507" lon="5.06378">
        <ele>611</ele>
        <time>2020-02-07T11:37:13.000Z</time>
      </trkpt>
      <trkpt lat="44.77507" lon="5.06378">
        <ele>611</ele>
        <time>2020-02-07T11:37:14.000Z</time>
      </trkpt>
      <trkpt lat="44.77507" lon="5.06378">
        <ele>611</ele>
        <time>2020-02-07T11:37:15.000Z</time>
      </trkpt>
      <trkpt lat="44.77507" lon="5.06378">
        <ele>611</ele>
        <time>2020-02-07T11:37:16.000Z</time>
      </trkpt>
      <trkpt lat="44.77507" lon="5.06378">
        <ele>611</ele>
        <time>2020-02-07T11:37:17.000Z</time>
      </trkpt>
      <trkpt lat="44.77507" lon="5.06378">
        <ele>611</ele>
        <time>2020-02-07T11:37:18.000Z</time>
      </trkpt>
      <trkpt lat="44.77507" lon="5.06378">
        <ele>611</ele>
        <time>2020-02-07T11:37:19.000Z</time>
      </trkpt>
      <trkpt lat="44.77507" lon="5.06378">
        <ele>611</ele>
        <time>2020-02-07T11:37:20.000Z</time>
      </trkpt>
      <trkpt lat="44.77507" lon="5.06377">
        <ele>611</ele>
        <time>2020-02-07T11:37:21.000Z</time>
      </trkpt>
      <trkpt lat="44.77507" lon="5.06377">
        <ele>611</ele>
        <time>2020-02-07T11:37:22.000Z</time>
      </trkpt>
      <trkpt lat="44.77507" lon="5.06377">
        <ele>611</ele>
        <time>2020-02-07T11:37:23.000Z</time>
      </trkpt>
      <trkpt lat="44.77507" lon="5.06377">
        <ele>611</ele>
        <time>2020-02-07T11:37:24.000Z</time>
      </trkpt>
      <trkpt lat="44.77507" lon="5.06377">
        <ele>611</ele>
        <time>2020-02-07T11:37:25.000Z</time>
      </trkpt>
      <trkpt lat="44.77507" lon="5.06377">
        <ele>611</ele>
        <time>2020-02-07T11:37:26.000Z</time>
      </trkpt>
      <trkpt lat="44.77507" lon="5.06377">
        <ele>611</ele>
        <time>2020-02-07T11:37:27.000Z</time>
      </trkpt>
      <trkpt lat="44.77507" lon="5.06377">
        <ele>611</ele>
        <time>2020-02-07T11:37:28.000Z</time>
      </trkpt>
      <trkpt lat="44.77507" lon="5.06377">
        <ele>611</ele>
        <time>2020-02-07T11:37:29.000Z</time>
      </trkpt>
      <trkpt lat="44.77507" lon="5.06377">
        <ele>611</ele>
        <time>2020-02-07T11:37:30.000Z</time>
      </trkpt>
      <trkpt lat="44.77507" lon="5.06377">
        <ele>611</ele>
        <time>2020-02-07T11:37:31.000Z</time>
      </trkpt>
      <trkpt lat="44.77507" lon="5.06377">
        <ele>611</ele>
        <time>2020-02-07T11:37:32.000Z</time>
      </trkpt>
      <trkpt lat="44.77507" lon="5.06377">
        <ele>611</ele>
        <time>2020-02-07T11:37:33.000Z</time>
      </trkpt>
      <trkpt lat="44.77507" lon="5.06377">
        <ele>611</ele>
        <time>2020-02-07T11:37:34.000Z</time>
      </trkpt>
      <trkpt lat="44.77507" lon="5.06377">
        <ele>611</ele>
        <time>2020-02-07T11:37:35.000Z</time>
      </trkpt>
      <trkpt lat="44.77507" lon="5.06377">
        <ele>611</ele>
        <time>2020-02-07T11:37:36.000Z</time>
      </trkpt>
      <trkpt lat="44.77507" lon="5.06377">
        <ele>611</ele>
        <time>2020-02-07T11:37:37.000Z</time>
      </trkpt>
      <trkpt lat="44.77507" lon="5.06377">
        <ele>612</ele>
        <time>2020-02-07T11:37:38.000Z</time>
      </trkpt>
      <trkpt lat="44.77507" lon="5.06377">
        <ele>612</ele>
        <time>2020-02-07T11:37:39.000Z</time>
      </trkpt>
      <trkpt lat="44.77507" lon="5.06377">
        <ele>612</ele>
        <time>2020-02-07T11:37:40.000Z</time>
      </trkpt>
      <trkpt lat="44.77507" lon="5.06377">
        <ele>612</ele>
        <time>2020-02-07T11:37:41.000Z</time>
      </trkpt>
      <trkpt lat="44.77507" lon="5.06377">
        <ele>612</ele>
        <time>2020-02-07T11:37:42.000Z</time>
      </trkpt>
      <trkpt lat="44.77507" lon="5.06377">
        <ele>612</ele>
        <time>2020-02-07T11:37:43.000Z</time>
      </trkpt>
      <trkpt lat="44.77507" lon="5.06377">
        <ele>612</ele>
        <time>2020-02-07T11:37:44.000Z</time>
      </trkpt>
      <trkpt lat="44.77507" lon="5.06377">
        <ele>612</ele>
        <time>2020-02-07T11:37:45.000Z</time>
      </trkpt>
      <trkpt lat="44.77507" lon="5.06377">
        <ele>612</ele>
        <time>2020-02-07T11:37:46.000Z</time>
      </trkpt>
      <trkpt lat="44.77507" lon="5.06377">
        <ele>612</ele>
        <time>2020-02-07T11:37:47.000Z</time>
      </trkpt>
      <trkpt lat="44.77507" lon="5.06377">
        <ele>612</ele>
        <time>2020-02-07T11:37:48.000Z</time>
      </trkpt>
      <trkpt lat="44.77507" lon="5.06377">
        <ele>612</ele>
        <time>2020-02-07T11:37:49.000Z</time>
      </trkpt>
      <trkpt lat="44.77507" lon="5.06377">
        <ele>612</ele>
        <time>2020-02-07T11:37:50.000Z</time>
      </trkpt>
      <trkpt lat="44.77507" lon="5.06377">
        <ele>612</ele>
        <time>2020-02-07T11:37:51.000Z</time>
      </trkpt>
      <trkpt lat="44.77507" lon="5.06377">
        <ele>612</ele>
        <time>2020-02-07T11:37:52.000Z</time>
      </trkpt>
      <trkpt lat="44.77507" lon="5.06377">
        <ele>612</ele>
        <time>2020-02-07T11:37:53.000Z</time>
      </trkpt>
      <trkpt lat="44.77507" lon="5.06377">
        <ele>612</ele>
        <time>2020-02-07T11:37:54.000Z</time>
      </trkpt>
      <trkpt lat="44.77507" lon="5.06377">
        <ele>612</ele>
        <time>2020-02-07T11:37:55.000Z</time>
      </trkpt>
      <trkpt lat="44.77507" lon="5.06377">
        <ele>612</ele>
        <time>2020-02-07T11:37:56.000Z</time>
      </trkpt>
      <trkpt lat="44.77507" lon="5.06377">
        <ele>612</ele>
        <time>2020-02-07T11:37:57.000Z</time>
      </trkpt>
      <trkpt lat="44.77507" lon="5.06377">
        <ele>612</ele>
        <time>2020-02-07T11:37:58.000Z</time>
      </trkpt>
      <trkpt lat="44.77507" lon="5.06377">
        <ele>612</ele>
        <time>2020-02-07T11:37:59.000Z</time>
      </trkpt>
      <trkpt lat="44.77507" lon="5.06377">
        <ele>612</ele>
        <time>2020-02-07T11:38:00.000Z</time>
      </trkpt>
      <trkpt lat="44.77507" lon="5.06377">
        <ele>612</ele>
        <time>2020-02-07T11:38:01.000Z</time>
      </trkpt>
      <trkpt lat="44.77507" lon="5.06377">
        <ele>612</ele>
        <time>2020-02-07T11:38:02.000Z</time>
      </trkpt>
      <trkpt lat="44.77507" lon="5.06376">
        <ele>612</ele>
        <time>2020-02-07T11:38:03.000Z</time>
      </trkpt>
      <trkpt lat="44.77507" lon="5.06376">
        <ele>612</ele>
        <time>2020-02-07T11:38:04.000Z</time>
      </trkpt>
      <trkpt lat="44.77507" lon="5.06376">
        <ele>612</ele>
        <time>2020-02-07T11:38:05.000Z</time>
      </trkpt>
      <trkpt lat="44.77507" lon="5.06376">
        <ele>612</ele>
        <time>2020-02-07T11:38:06.000Z</time>
      </trkpt>
      <trkpt lat="44.77507" lon="5.06376">
        <ele>612</ele>
        <time>2020-02-07T11:38:07.000Z</time>
      </trkpt>
      <trkpt lat="44.77507" lon="5.06376">
        <ele>612</ele>
        <time>2020-02-07T11:38:08.000Z</time>
      </trkpt>
      <trkpt lat="44.77507" lon="5.06376">
        <ele>612</ele>
        <time>2020-02-07T11:38:09.000Z</time>
      </trkpt>
      <trkpt lat="44.77507" lon="5.06376">
        <ele>612</ele>
        <time>2020-02-07T11:38:10.000Z</time>
      </trkpt>
      <trkpt lat="44.77507" lon="5.06376">
        <ele>612</ele>
        <time>2020-02-07T11:38:11.000Z</time>
      </trkpt>
      <trkpt lat="44.77507" lon="5.06376">
        <ele>612</ele>
        <time>2020-02-07T11:38:12.000Z</time>
      </trkpt>
      <trkpt lat="44.77507" lon="5.06376">
        <ele>612</ele>
        <time>2020-02-07T11:38:13.000Z</time>
      </trkpt>
      <trkpt lat="44.77507" lon="5.06376">
        <ele>612</ele>
        <time>2020-02-07T11:38:14.000Z</time>
      </trkpt>
      <trkpt lat="44.77507" lon="5.06376">
        <ele>612</ele>
        <time>2020-02-07T11:38:15.000Z</time>
      </trkpt>
      <trkpt lat="44.77507" lon="5.06376">
        <ele>612</ele>
        <time>2020-02-07T11:38:16.000Z</time>
      </trkpt>
      <trkpt lat="44.77507" lon="5.06376">
        <ele>612</ele>
        <time>2020-02-07T11:38:17.000Z</time>
      </trkpt>
      <trkpt lat="44.77507" lon="5.06376">
        <ele>612</ele>
        <time>2020-02-07T11:38:18.000Z</time>
      </trkpt>
      <trkpt lat="44.77507" lon="5.06376">
        <ele>612</ele>
        <time>2020-02-07T11:38:19.000Z</time>
      </trkpt>
      <trkpt lat="44.77507" lon="5.06376">
        <ele>612</ele>
        <time>2020-02-07T11:38:20.000Z</time>
      </trkpt>
      <trkpt lat="44.77507" lon="5.06376">
        <ele>612</ele>
        <time>2020-02-07T11:38:21.000Z</time>
      </trkpt>
      <trkpt lat="44.77507" lon="5.06376">
        <ele>612</ele>
        <time>2020-02-07T11:38:22.000Z</time>
      </trkpt>
      <trkpt lat="44.77507" lon="5.06376">
        <ele>612</ele>
        <time>2020-02-07T11:38:23.000Z</time>
      </trkpt>
      <trkpt lat="44.77507" lon="5.06376">
        <ele>612</ele>
        <time>2020-02-07T11:38:24.000Z</time>
      </trkpt>
      <trkpt lat="44.77507" lon="5.06376">
        <ele>612</ele>
        <time>2020-02-07T11:38:25.000Z</time>
      </trkpt>
      <trkpt lat="44.77507" lon="5.06376">
        <ele>612</ele>
        <time>2020-02-07T11:38:26.000Z</time>
      </trkpt>
      <trkpt lat="44.77507" lon="5.06376">
        <ele>612</ele>
        <time>2020-02-07T11:38:27.000Z</time>
      </trkpt>
      <trkpt lat="44.77507" lon="5.06376">
        <ele>612</ele>
        <time>2020-02-07T11:38:28.000Z</time>
      </trkpt>
      <trkpt lat="44.77507" lon="5.06376">
        <ele>612</ele>
        <time>2020-02-07T11:38:29.000Z</time>
      </trkpt>
      <trkpt lat="44.77507" lon="5.06376">
        <ele>612</ele>
        <time>2020-02-07T11:38:30.000Z</time>
      </trkpt>
      <trkpt lat="44.77507" lon="5.06376">
        <ele>612</ele>
        <time>2020-02-07T11:38:31.000Z</time>
      </trkpt>
      <trkpt lat="44.77507" lon="5.06376">
        <ele>612</ele>
        <time>2020-02-07T11:38:32.000Z</time>
      </trkpt>
      <trkpt lat="44.77507" lon="5.06376">
        <ele>612</ele>
        <time>2020-02-07T11:38:33.000Z</time>
      </trkpt>
      <trkpt lat="44.77507" lon="5.06376">
        <ele>612</ele>
        <time>2020-02-07T11:38:34.000Z</time>
      </trkpt>
      <trkpt lat="44.77507" lon="5.06376">
        <ele>612</ele>
        <time>2020-02-07T11:38:35.000Z</time>
      </trkpt>
      <trkpt lat="44.77507" lon="5.06376">
        <ele>612</ele>
        <time>2020-02-07T11:38:36.000Z</time>
      </trkpt>
      <trkpt lat="44.77507" lon="5.06376">
        <ele>612</ele>
        <time>2020-02-07T11:38:37.000Z</time>
      </trkpt>
      <trkpt lat="44.77507" lon="5.06376">
        <ele>612</ele>
        <time>2020-02-07T11:38:38.000Z</time>
      </trkpt>
      <trkpt lat="44.77506" lon="5.06376">
        <ele>612</ele>
        <time>2020-02-07T11:38:39.000Z</time>
      </trkpt>
      <trkpt lat="44.77506" lon="5.06376">
        <ele>612</ele>
        <time>2020-02-07T11:38:40.000Z</time>
      </trkpt>
      <trkpt lat="44.77506" lon="5.06376">
        <ele>612</ele>
        <time>2020-02-07T11:38:41.000Z</time>
      </trkpt>
      <trkpt lat="44.77506" lon="5.06375">
        <ele>612</ele>
        <time>2020-02-07T11:38:42.000Z</time>
      </trkpt>
      <trkpt lat="44.77506" lon="5.06375">
        <ele>612</ele>
        <time>2020-02-07T11:38:43.000Z</time>
      </trkpt>
      <trkpt lat="44.77506" lon="5.06375">
        <ele>612</ele>
        <time>2020-02-07T11:38:44.000Z</time>
      </trkpt>
      <trkpt lat="44.77506" lon="5.06375">
        <ele>612</ele>
        <time>2020-02-07T11:38:45.000Z</time>
      </trkpt>
      <trkpt lat="44.77506" lon="5.06375">
        <ele>612</ele>
        <time>2020-02-07T11:38:46.000Z</time>
      </trkpt>
      <trkpt lat="44.77506" lon="5.06375">
        <ele>612</ele>
        <time>2020-02-07T11:38:47.000Z</time>
      </trkpt>
      <trkpt lat="44.77506" lon="5.06374">
        <ele>613</ele>
        <time>2020-02-07T11:38:48.000Z</time>
      </trkpt>
      <trkpt lat="44.77506" lon="5.06374">
        <ele>613</ele>
        <time>2020-02-07T11:38:49.000Z</time>
      </trkpt>
      <trkpt lat="44.77506" lon="5.06374">
        <ele>613</ele>
        <time>2020-02-07T11:38:50.000Z</time>
      </trkpt>
      <trkpt lat="44.77506" lon="5.06374">
        <ele>613</ele>
        <time>2020-02-07T11:38:51.000Z</time>
      </trkpt>
      <trkpt lat="44.77506" lon="5.06374">
        <ele>613</ele>
        <time>2020-02-07T11:38:52.000Z</time>
      </trkpt>
      <trkpt lat="44.77505" lon="5.06374">
        <ele>613</ele>
        <time>2020-02-07T11:38:53.000Z</time>
      </trkpt>
      <trkpt lat="44.77505" lon="5.06374">
        <ele>613</ele>
        <time>2020-02-07T11:38:54.000Z</time>
      </trkpt>
      <trkpt lat="44.77505" lon="5.06374">
        <ele>613</ele>
        <time>2020-02-07T11:38:55.000Z</time>
      </trkpt>
      <trkpt lat="44.77505" lon="5.06374">
        <ele>613</ele>
        <time>2020-02-07T11:38:56.000Z</time>
      </trkpt>
      <trkpt lat="44.77505" lon="5.06374">
        <ele>613</ele>
        <time>2020-02-07T11:38:57.000Z</time>
      </trkpt>
      <trkpt lat="44.77505" lon="5.06374">
        <ele>613</ele>
        <time>2020-02-07T11:38:58.000Z</time>
      </trkpt>
      <trkpt lat="44.77505" lon="5.06374">
        <ele>613</ele>
        <time>2020-02-07T11:38:59.000Z</time>
      </trkpt>
      <trkpt lat="44.77505" lon="5.06374">
        <ele>613</ele>
        <time>2020-02-07T11:39:00.000Z</time>
      </trkpt>
      <trkpt lat="44.77505" lon="5.06373">
        <ele>613</ele>
        <time>2020-02-07T11:39:01.000Z</time>
      </trkpt>
      <trkpt lat="44.77505" lon="5.06373">
        <ele>613</ele>
        <time>2020-02-07T11:39:02.000Z</time>
      </trkpt>
      <trkpt lat="44.77505" lon="5.06373">
        <ele>613</ele>
        <time>2020-02-07T11:39:03.000Z</time>
      </trkpt>
      <trkpt lat="44.77505" lon="5.06373">
        <ele>613</ele>
        <time>2020-02-07T11:39:04.000Z</time>
      </trkpt>
      <trkpt lat="44.77505" lon="5.06373">
        <ele>613</ele>
        <time>2020-02-07T11:39:05.000Z</time>
      </trkpt>
      <trkpt lat="44.77505" lon="5.06373">
        <ele>613</ele>
        <time>2020-02-07T11:39:06.000Z</time>
      </trkpt>
      <trkpt lat="44.77505" lon="5.06373">
        <ele>613</ele>
        <time>2020-02-07T11:39:07.000Z</time>
      </trkpt>
      <trkpt lat="44.77505" lon="5.06373">
        <ele>613</ele>
        <time>2020-02-07T11:39:08.000Z</time>
      </trkpt>
      <trkpt lat="44.77505" lon="5.06373">
        <ele>613</ele>
        <time>2020-02-07T11:39:09.000Z</time>
      </trkpt>
      <trkpt lat="44.77505" lon="5.06373">
        <ele>613</ele>
        <time>2020-02-07T11:39:10.000Z</time>
      </trkpt>
      <trkpt lat="44.77505" lon="5.06373">
        <ele>613</ele>
        <time>2020-02-07T11:39:11.000Z</time>
      </trkpt>
      <trkpt lat="44.77505" lon="5.06373">
        <ele>613</ele>
        <time>2020-02-07T11:39:12.000Z</time>
      </trkpt>
      <trkpt lat="44.77505" lon="5.06373">
        <ele>613</ele>
        <time>2020-02-07T11:39:13.000Z</time>
      </trkpt>
      <trkpt lat="44.77505" lon="5.06373">
        <ele>613</ele>
        <time>2020-02-07T11:39:14.000Z</time>
      </trkpt>
      <trkpt lat="44.77505" lon="5.06373">
        <ele>614</ele>
        <time>2020-02-07T11:39:15.000Z</time>
      </trkpt>
      <trkpt lat="44.77505" lon="5.06373">
        <ele>614</ele>
        <time>2020-02-07T11:39:16.000Z</time>
      </trkpt>
      <trkpt lat="44.77505" lon="5.06373">
        <ele>614</ele>
        <time>2020-02-07T11:39:17.000Z</time>
      </trkpt>
      <trkpt lat="44.77505" lon="5.06373">
        <ele>614</ele>
        <time>2020-02-07T11:39:18.000Z</time>
      </trkpt>
      <trkpt lat="44.77505" lon="5.06374">
        <ele>614</ele>
        <time>2020-02-07T11:39:19.000Z</time>
      </trkpt>
      <trkpt lat="44.77505" lon="5.06374">
        <ele>614</ele>
        <time>2020-02-07T11:39:20.000Z</time>
      </trkpt>
      <trkpt lat="44.77505" lon="5.06374">
        <ele>614</ele>
        <time>2020-02-07T11:39:21.000Z</time>
      </trkpt>
      <trkpt lat="44.77505" lon="5.06374">
        <ele>614</ele>
        <time>2020-02-07T11:39:22.000Z</time>
      </trkpt>
      <trkpt lat="44.77505" lon="5.06374">
        <ele>614</ele>
        <time>2020-02-07T11:39:23.000Z</time>
      </trkpt>
      <trkpt lat="44.77505" lon="5.06374">
        <ele>614</ele>
        <time>2020-02-07T11:39:24.000Z</time>
      </trkpt>
      <trkpt lat="44.77505" lon="5.06374">
        <ele>614</ele>
        <time>2020-02-07T11:39:25.000Z</time>
      </trkpt>
      <trkpt lat="44.77505" lon="5.06375">
        <ele>614</ele>
        <time>2020-02-07T11:39:26.000Z</time>
      </trkpt>
      <trkpt lat="44.77505" lon="5.06375">
        <ele>614</ele>
        <time>2020-02-07T11:39:27.000Z</time>
      </trkpt>
      <trkpt lat="44.77505" lon="5.06375">
        <ele>614</ele>
        <time>2020-02-07T11:39:28.000Z</time>
      </trkpt>
      <trkpt lat="44.77505" lon="5.06376">
        <ele>614</ele>
        <time>2020-02-07T11:39:29.000Z</time>
      </trkpt>
      <trkpt lat="44.77505" lon="5.06376">
        <ele>614</ele>
        <time>2020-02-07T11:39:30.000Z</time>
      </trkpt>
      <trkpt lat="44.77505" lon="5.06376">
        <ele>614</ele>
        <time>2020-02-07T11:39:31.000Z</time>
      </trkpt>
      <trkpt lat="44.77505" lon="5.06376">
        <ele>614</ele>
        <time>2020-02-07T11:39:32.000Z</time>
      </trkpt>
      <trkpt lat="44.77505" lon="5.06376">
        <ele>614</ele>
        <time>2020-02-07T11:39:33.000Z</time>
      </trkpt>
      <trkpt lat="44.77505" lon="5.06376">
        <ele>614</ele>
        <time>2020-02-07T11:39:34.000Z</time>
      </trkpt>
      <trkpt lat="44.77505" lon="5.06376">
        <ele>614</ele>
        <time>2020-02-07T11:39:35.000Z</time>
      </trkpt>
      <trkpt lat="44.77505" lon="5.06376">
        <ele>614</ele>
        <time>2020-02-07T11:39:36.000Z</time>
      </trkpt>
      <trkpt lat="44.77505" lon="5.06376">
        <ele>614</ele>
        <time>2020-02-07T11:39:37.000Z</time>
      </trkpt>
      <trkpt lat="44.77505" lon="5.06376">
        <ele>614</ele>
        <time>2020-02-07T11:39:38.000Z</time>
      </trkpt>
      <trkpt lat="44.77505" lon="5.06376">
        <ele>614</ele>
        <time>2020-02-07T11:39:39.000Z</time>
      </trkpt>
      <trkpt lat="44.77505" lon="5.06375">
        <ele>614</ele>
        <time>2020-02-07T11:39:40.000Z</time>
      </trkpt>
      <trkpt lat="44.77505" lon="5.06376">
        <ele>614</ele>
        <time>2020-02-07T11:39:41.000Z</time>
      </trkpt>
      <trkpt lat="44.77505" lon="5.06376">
        <ele>613</ele>
        <time>2020-02-07T11:39:42.000Z</time>
      </trkpt>
      <trkpt lat="44.77505" lon="5.06376">
        <ele>613</ele>
        <time>2020-02-07T11:39:43.000Z</time>
      </trkpt>
      <trkpt lat="44.77505" lon="5.06376">
        <ele>613</ele>
        <time>2020-02-07T11:39:44.000Z</time>
      </trkpt>
      <trkpt lat="44.77505" lon="5.06376">
        <ele>613</ele>
        <time>2020-02-07T11:39:45.000Z</time>
      </trkpt>
      <trkpt lat="44.77505" lon="5.06376">
        <ele>613</ele>
        <time>2020-02-07T11:39:46.000Z</time>
      </trkpt>
      <trkpt lat="44.77506" lon="5.06376">
        <ele>613</ele>
        <time>2020-02-07T11:39:47.000Z</time>
      </trkpt>
      <trkpt lat="44.77506" lon="5.06376">
        <ele>613</ele>
        <time>2020-02-07T11:39:48.000Z</time>
      </trkpt>
      <trkpt lat="44.77506" lon="5.06376">
        <ele>613</ele>
        <time>2020-02-07T11:39:49.000Z</time>
      </trkpt>
      <trkpt lat="44.77505" lon="5.06376">
        <ele>613</ele>
        <time>2020-02-07T11:39:50.000Z</time>
      </trkpt>
      <trkpt lat="44.77505" lon="5.06376">
        <ele>613</ele>
        <time>2020-02-07T11:39:51.000Z</time>
      </trkpt>
      <trkpt lat="44.77505" lon="5.06376">
        <ele>613</ele>
        <time>2020-02-07T11:39:52.000Z</time>
      </trkpt>
      <trkpt lat="44.77505" lon="5.06376">
        <ele>613</ele>
        <time>2020-02-07T11:39:53.000Z</time>
      </trkpt>
      <trkpt lat="44.77505" lon="5.06376">
        <ele>613</ele>
        <time>2020-02-07T11:39:54.000Z</time>
      </trkpt>
      <trkpt lat="44.77505" lon="5.06376">
        <ele>613</ele>
        <time>2020-02-07T11:39:55.000Z</time>
      </trkpt>
      <trkpt lat="44.77506" lon="5.06376">
        <ele>613</ele>
        <time>2020-02-07T11:39:56.000Z</time>
      </trkpt>
      <trkpt lat="44.77506" lon="5.06376">
        <ele>613</ele>
        <time>2020-02-07T11:39:57.000Z</time>
      </trkpt>
      <trkpt lat="44.77506" lon="5.06376">
        <ele>613</ele>
        <time>2020-02-07T11:39:58.000Z</time>
      </trkpt>
      <trkpt lat="44.77506" lon="5.06376">
        <ele>613</ele>
        <time>2020-02-07T11:39:59.000Z</time>
      </trkpt>
      <trkpt lat="44.77506" lon="5.06376">
        <ele>613</ele>
        <time>2020-02-07T11:40:00.000Z</time>
      </trkpt>
      <trkpt lat="44.77506" lon="5.06376">
        <ele>613</ele>
        <time>2020-02-07T11:40:01.000Z</time>
      </trkpt>
      <trkpt lat="44.77506" lon="5.06376">
        <ele>613</ele>
        <time>2020-02-07T11:40:02.000Z</time>
      </trkpt>
      <trkpt lat="44.77506" lon="5.06376">
        <ele>613</ele>
        <time>2020-02-07T11:40:03.000Z</time>
      </trkpt>
      <trkpt lat="44.77506" lon="5.06376">
        <ele>613</ele>
        <time>2020-02-07T11:40:04.000Z</time>
      </trkpt>
      <trkpt lat="44.77506" lon="5.06376">
        <ele>613</ele>
        <time>2020-02-07T11:40:05.000Z</time>
      </trkpt>
      <trkpt lat="44.77506" lon="5.06376">
        <ele>613</ele>
        <time>2020-02-07T11:40:06.000Z</time>
      </trkpt>
      <trkpt lat="44.77506" lon="5.06376">
        <ele>613</ele>
        <time>2020-02-07T11:40:07.000Z</time>
      </trkpt>
      <trkpt lat="44.77506" lon="5.06376">
        <ele>613</ele>
        <time>2020-02-07T11:40:08.000Z</time>
      </trkpt>
      <trkpt lat="44.77506" lon="5.06376">
        <ele>613</ele>
        <time>2020-02-07T11:40:09.000Z</time>
      </trkpt>
      <trkpt lat="44.77506" lon="5.06376">
        <ele>613</ele>
        <time>2020-02-07T11:40:10.000Z</time>
      </trkpt>
      <trkpt lat="44.77506" lon="5.06376">
        <ele>613</ele>
        <time>2020-02-07T11:40:11.000Z</time>
      </trkpt>
      <trkpt lat="44.77506" lon="5.06377">
        <ele>613</ele>
        <time>2020-02-07T11:40:12.000Z</time>
      </trkpt>
      <trkpt lat="44.77506" lon="5.06377">
        <ele>613</ele>
        <time>2020-02-07T11:40:13.000Z</time>
      </trkpt>
      <trkpt lat="44.77507" lon="5.06377">
        <ele>613</ele>
        <time>2020-02-07T11:40:14.000Z</time>
      </trkpt>
      <trkpt lat="44.77507" lon="5.06376">
        <ele>613</ele>
        <time>2020-02-07T11:40:15.000Z</time>
      </trkpt>
      <trkpt lat="44.77507" lon="5.06376">
        <ele>613</ele>
        <time>2020-02-07T11:40:16.000Z</time>
      </trkpt>
      <trkpt lat="44.77507" lon="5.06376">
        <ele>613</ele>
        <time>2020-02-07T11:40:17.000Z</time>
      </trkpt>
      <trkpt lat="44.77507" lon="5.06376">
        <ele>613</ele>
        <time>2020-02-07T11:40:18.000Z</time>
      </trkpt>
      <trkpt lat="44.77507" lon="5.06376">
        <ele>613</ele>
        <time>2020-02-07T11:40:19.000Z</time>
      </trkpt>
      <trkpt lat="44.77507" lon="5.06376">
        <ele>613</ele>
        <time>2020-02-07T11:40:22.000Z</time>
      </trkpt>
      <trkpt lat="44.77507" lon="5.06376">
        <ele>613</ele>
        <time>2020-02-07T11:40:23.000Z</time>
      </trkpt>
      <trkpt lat="44.77507" lon="5.06375">
        <ele>613</ele>
        <time>2020-02-07T11:40:24.000Z</time>
      </trkpt>
      <trkpt lat="44.77507" lon="5.06375">
        <ele>613</ele>
        <time>2020-02-07T11:40:25.000Z</time>
      </trkpt>
      <trkpt lat="44.77507" lon="5.06375">
        <ele>613</ele>
        <time>2020-02-07T11:40:26.000Z</time>
      </trkpt>
      <trkpt lat="44.77507" lon="5.06375">
        <ele>613</ele>
        <time>2020-02-07T11:40:27.000Z</time>
      </trkpt>
      <trkpt lat="44.77507" lon="5.06375">
        <ele>613</ele>
        <time>2020-02-07T11:40:28.000Z</time>
      </trkpt>
      <trkpt lat="44.77507" lon="5.06375">
        <ele>613</ele>
        <time>2020-02-07T11:40:29.000Z</time>
      </trkpt>
      <trkpt lat="44.77507" lon="5.06375">
        <ele>613</ele>
        <time>2020-02-07T11:40:30.000Z</time>
      </trkpt>
      <trkpt lat="44.77507" lon="5.06375">
        <ele>613</ele>
        <time>2020-02-07T11:40:31.000Z</time>
      </trkpt>
      <trkpt lat="44.77507" lon="5.06375">
        <ele>613</ele>
        <time>2020-02-07T11:40:32.000Z</time>
      </trkpt>
      <trkpt lat="44.77506" lon="5.06375">
        <ele>613</ele>
        <time>2020-02-07T11:40:33.000Z</time>
      </trkpt>
      <trkpt lat="44.77506" lon="5.06375">
        <ele>613</ele>
        <time>2020-02-07T11:40:34.000Z</time>
      </trkpt>
      <trkpt lat="44.77506" lon="5.06375">
        <ele>613</ele>
        <time>2020-02-07T11:40:35.000Z</time>
      </trkpt>
      <trkpt lat="44.77506" lon="5.06375">
        <ele>613</ele>
        <time>2020-02-07T11:40:36.000Z</time>
      </trkpt>
      <trkpt lat="44.77506" lon="5.06375">
        <ele>613</ele>
        <time>2020-02-07T11:40:37.000Z</time>
      </trkpt>
      <trkpt lat="44.77506" lon="5.06375">
        <ele>613</ele>
        <time>2020-02-07T11:40:38.000Z</time>
      </trkpt>
      <trkpt lat="44.77506" lon="5.06375">
        <ele>613</ele>
        <time>2020-02-07T11:40:39.000Z</time>
      </trkpt>
      <trkpt lat="44.77506" lon="5.06375">
        <ele>613</ele>
        <time>2020-02-07T11:40:40.000Z</time>
      </trkpt>
      <trkpt lat="44.77506" lon="5.06375">
        <ele>613</ele>
        <time>2020-02-07T11:40:41.000Z</time>
      </trkpt>
      <trkpt lat="44.77506" lon="5.06375">
        <ele>613</ele>
        <time>2020-02-07T11:40:42.000Z</time>
      </trkpt>
      <trkpt lat="44.77505" lon="5.06375">
        <ele>613</ele>
        <time>2020-02-07T11:40:43.000Z</time>
      </trkpt>
      <trkpt lat="44.77505" lon="5.06374">
        <ele>613</ele>
        <time>2020-02-07T11:40:44.000Z</time>
      </trkpt>
      <trkpt lat="44.77505" lon="5.06374">
        <ele>613</ele>
        <time>2020-02-07T11:40:45.000Z</time>
      </trkpt>
      <trkpt lat="44.77505" lon="5.06374">
        <ele>613</ele>
        <time>2020-02-07T11:40:46.000Z</time>
      </trkpt>
      <trkpt lat="44.77505" lon="5.06374">
        <ele>613</ele>
        <time>2020-02-07T11:40:47.000Z</time>
      </trkpt>
      <trkpt lat="44.77505" lon="5.06374">
        <ele>613</ele>
        <time>2020-02-07T11:40:48.000Z</time>
      </trkpt>
      <trkpt lat="44.77505" lon="5.06374">
        <ele>613</ele>
        <time>2020-02-07T11:40:49.000Z</time>
      </trkpt>
      <trkpt lat="44.77505" lon="5.06374">
        <ele>613</ele>
        <time>2020-02-07T11:40:50.000Z</time>
      </trkpt>
      <trkpt lat="44.77505" lon="5.06374">
        <ele>613</ele>
        <time>2020-02-07T11:40:51.000Z</time>
      </trkpt>
      <trkpt lat="44.77505" lon="5.06374">
        <ele>613</ele>
        <time>2020-02-07T11:40:52.000Z</time>
      </trkpt>
      <trkpt lat="44.77505" lon="5.06374">
        <ele>613</ele>
        <time>2020-02-07T11:40:53.000Z</time>
      </trkpt>
      <trkpt lat="44.77505" lon="5.06374">
        <ele>613</ele>
        <time>2020-02-07T11:40:54.000Z</time>
      </trkpt>
      <trkpt lat="44.77505" lon="5.06374">
        <ele>613</ele>
        <time>2020-02-07T11:40:55.000Z</time>
      </trkpt>
      <trkpt lat="44.77504" lon="5.06374">
        <ele>613</ele>
        <time>2020-02-07T11:40:56.000Z</time>
      </trkpt>
      <trkpt lat="44.77504" lon="5.06374">
        <ele>613</ele>
        <time>2020-02-07T11:40:57.000Z</time>
      </trkpt>
      <trkpt lat="44.77504" lon="5.06374">
        <ele>613</ele>
        <time>2020-02-07T11:40:58.000Z</time>
      </trkpt>
      <trkpt lat="44.77504" lon="5.06374">
        <ele>614</ele>
        <time>2020-02-07T11:40:59.000Z</time>
      </trkpt>
      <trkpt lat="44.77504" lon="5.06374">
        <ele>614</ele>
        <time>2020-02-07T11:41:00.000Z</time>
      </trkpt>
      <trkpt lat="44.77504" lon="5.06374">
        <ele>614</ele>
        <time>2020-02-07T11:41:01.000Z</time>
      </trkpt>
      <trkpt lat="44.77504" lon="5.06374">
        <ele>614</ele>
        <time>2020-02-07T11:41:02.000Z</time>
      </trkpt>
      <trkpt lat="44.77504" lon="5.06374">
        <ele>614</ele>
        <time>2020-02-07T11:41:03.000Z</time>
      </trkpt>
      <trkpt lat="44.77504" lon="5.06374">
        <ele>614</ele>
        <time>2020-02-07T11:41:04.000Z</time>
      </trkpt>
      <trkpt lat="44.77504" lon="5.06374">
        <ele>614</ele>
        <time>2020-02-07T11:41:05.000Z</time>
      </trkpt>
      <trkpt lat="44.77504" lon="5.06374">
        <ele>614</ele>
        <time>2020-02-07T11:41:06.000Z</time>
      </trkpt>
      <trkpt lat="44.77504" lon="5.06374">
        <ele>614</ele>
        <time>2020-02-07T11:41:07.000Z</time>
      </trkpt>
      <trkpt lat="44.77504" lon="5.06374">
        <ele>614</ele>
        <time>2020-02-07T11:41:08.000Z</time>
      </trkpt>
      <trkpt lat="44.77504" lon="5.06374">
        <ele>614</ele>
        <time>2020-02-07T11:41:09.000Z</time>
      </trkpt>
      <trkpt lat="44.77504" lon="5.06374">
        <ele>614</ele>
        <time>2020-02-07T11:41:10.000Z</time>
      </trkpt>
      <trkpt lat="44.77504" lon="5.06373">
        <ele>614</ele>
        <time>2020-02-07T11:41:11.000Z</time>
      </trkpt>
      <trkpt lat="44.77504" lon="5.06373">
        <ele>614</ele>
        <time>2020-02-07T11:41:12.000Z</time>
      </trkpt>
      <trkpt lat="44.77504" lon="5.06373">
        <ele>614</ele>
        <time>2020-02-07T11:41:13.000Z</time>
      </trkpt>
      <trkpt lat="44.77504" lon="5.06373">
        <ele>614</ele>
        <time>2020-02-07T11:41:14.000Z</time>
      </trkpt>
      <trkpt lat="44.77504" lon="5.06373">
        <ele>614</ele>
        <time>2020-02-07T11:41:15.000Z</time>
      </trkpt>
      <trkpt lat="44.77504" lon="5.06373">
        <ele>614</ele>
        <time>2020-02-07T11:41:16.000Z</time>
      </trkpt>
      <trkpt lat="44.77504" lon="5.06373">
        <ele>614</ele>
        <time>2020-02-07T11:41:17.000Z</time>
      </trkpt>
      <trkpt lat="44.77504" lon="5.06373">
        <ele>614</ele>
        <time>2020-02-07T11:41:18.000Z</time>
      </trkpt>
      <trkpt lat="44.77504" lon="5.06373">
        <ele>614</ele>
        <time>2020-02-07T11:41:19.000Z</time>
      </trkpt>
      <trkpt lat="44.77504" lon="5.06373">
        <ele>614</ele>
        <time>2020-02-07T11:41:20.000Z</time>
      </trkpt>
      <trkpt lat="44.77504" lon="5.06373">
        <ele>614</ele>
        <time>2020-02-07T11:41:21.000Z</time>
      </trkpt>
      <trkpt lat="44.77504" lon="5.06372">
        <ele>614</ele>
        <time>2020-02-07T11:41:22.000Z</time>
      </trkpt>
      <trkpt lat="44.77504" lon="5.06372">
        <ele>614</ele>
        <time>2020-02-07T11:41:23.000Z</time>
      </trkpt>
      <trkpt lat="44.77504" lon="5.06372">
        <ele>614</ele>
        <time>2020-02-07T11:41:24.000Z</time>
      </trkpt>
      <trkpt lat="44.77504" lon="5.06372">
        <ele>613</ele>
        <time>2020-02-07T11:41:25.000Z</time>
      </trkpt>
      <trkpt lat="44.77504" lon="5.06372">
        <ele>613</ele>
        <time>2020-02-07T11:41:26.000Z</time>
      </trkpt>
      <trkpt lat="44.77504" lon="5.06372">
        <ele>613</ele>
        <time>2020-02-07T11:41:27.000Z</time>
      </trkpt>
      <trkpt lat="44.77504" lon="5.06372">
        <ele>613</ele>
        <time>2020-02-07T11:41:28.000Z</time>
      </trkpt>
      <trkpt lat="44.77504" lon="5.06372">
        <ele>613</ele>
        <time>2020-02-07T11:41:29.000Z</time>
      </trkpt>
      <trkpt lat="44.77504" lon="5.06372">
        <ele>613</ele>
        <time>2020-02-07T11:41:30.000Z</time>
      </trkpt>
      <trkpt lat="44.77504" lon="5.06372">
        <ele>613</ele>
        <time>2020-02-07T11:41:31.000Z</time>
      </trkpt>
      <trkpt lat="44.77504" lon="5.06372">
        <ele>613</ele>
        <time>2020-02-07T11:41:32.000Z</time>
      </trkpt>
      <trkpt lat="44.77504" lon="5.06372">
        <ele>613</ele>
        <time>2020-02-07T11:41:33.000Z</time>
      </trkpt>
      <trkpt lat="44.77504" lon="5.06372">
        <ele>613</ele>
        <time>2020-02-07T11:41:34.000Z</time>
      </trkpt>
      <trkpt lat="44.77504" lon="5.06372">
        <ele>613</ele>
        <time>2020-02-07T11:41:35.000Z</time>
      </trkpt>
      <trkpt lat="44.77504" lon="5.06372">
        <ele>613</ele>
        <time>2020-02-07T11:41:36.000Z</time>
      </trkpt>
      <trkpt lat="44.77504" lon="5.06372">
        <ele>613</ele>
        <time>2020-02-07T11:41:37.000Z</time>
      </trkpt>
      <trkpt lat="44.77504" lon="5.06372">
        <ele>613</ele>
        <time>2020-02-07T11:41:38.000Z</time>
      </trkpt>
      <trkpt lat="44.77504" lon="5.06371">
        <ele>613</ele>
        <time>2020-02-07T11:41:39.000Z</time>
      </trkpt>
      <trkpt lat="44.77504" lon="5.06371">
        <ele>613</ele>
        <time>2020-02-07T11:41:40.000Z</time>
      </trkpt>
      <trkpt lat="44.77504" lon="5.06371">
        <ele>613</ele>
        <time>2020-02-07T11:41:41.000Z</time>
      </trkpt>
      <trkpt lat="44.77504" lon="5.06371">
        <ele>613</ele>
        <time>2020-02-07T11:41:42.000Z</time>
      </trkpt>
      <trkpt lat="44.77504" lon="5.06371">
        <ele>613</ele>
        <time>2020-02-07T11:41:43.000Z</time>
      </trkpt>
      <trkpt lat="44.77504" lon="5.06372">
        <ele>613</ele>
        <time>2020-02-07T11:41:44.000Z</time>
      </trkpt>
      <trkpt lat="44.77504" lon="5.06371">
        <ele>613</ele>
        <time>2020-02-07T11:41:45.000Z</time>
      </trkpt>
      <trkpt lat="44.77504" lon="5.06372">
        <ele>613</ele>
        <time>2020-02-07T11:41:46.000Z</time>
      </trkpt>
      <trkpt lat="44.77504" lon="5.06372">
        <ele>613</ele>
        <time>2020-02-07T11:41:47.000Z</time>
      </trkpt>
      <trkpt lat="44.77504" lon="5.06372">
        <ele>613</ele>
        <time>2020-02-07T11:41:48.000Z</time>
      </trkpt>
      <trkpt lat="44.77504" lon="5.06372">
        <ele>613</ele>
        <time>2020-02-07T11:41:49.000Z</time>
      </trkpt>
      <trkpt lat="44.77504" lon="5.06372">
        <ele>613</ele>
        <time>2020-02-07T11:41:50.000Z</time>
      </trkpt>
      <trkpt lat="44.77504" lon="5.06372">
        <ele>613</ele>
        <time>2020-02-07T11:41:51.000Z</time>
      </trkpt>
      <trkpt lat="44.77504" lon="5.06372">
        <ele>613</ele>
        <time>2020-02-07T11:41:52.000Z</time>
      </trkpt>
      <trkpt lat="44.77505" lon="5.06372">
        <ele>613</ele>
        <time>2020-02-07T11:41:53.000Z</time>
      </trkpt>
      <trkpt lat="44.77505" lon="5.06372">
        <ele>613</ele>
        <time>2020-02-07T11:41:54.000Z</time>
      </trkpt>
      <trkpt lat="44.77505" lon="5.06372">
        <ele>613</ele>
        <time>2020-02-07T11:41:55.000Z</time>
      </trkpt>
      <trkpt lat="44.77505" lon="5.06372">
        <ele>613</ele>
        <time>2020-02-07T11:41:56.000Z</time>
      </trkpt>
      <trkpt lat="44.77505" lon="5.06372">
        <ele>613</ele>
        <time>2020-02-07T11:41:57.000Z</time>
      </trkpt>
      <trkpt lat="44.77505" lon="5.06372">
        <ele>613</ele>
        <time>2020-02-07T11:41:58.000Z</time>
      </trkpt>
      <trkpt lat="44.77505" lon="5.06372">
        <ele>613</ele>
        <time>2020-02-07T11:41:59.000Z</time>
      </trkpt>
      <trkpt lat="44.77505" lon="5.06372">
        <ele>613</ele>
        <time>2020-02-07T11:42:00.000Z</time>
      </trkpt>
      <trkpt lat="44.77505" lon="5.06372">
        <ele>613</ele>
        <time>2020-02-07T11:42:01.000Z</time>
      </trkpt>
      <trkpt lat="44.77505" lon="5.06373">
        <ele>613</ele>
        <time>2020-02-07T11:42:02.000Z</time>
      </trkpt>
      <trkpt lat="44.77505" lon="5.06373">
        <ele>613</ele>
        <time>2020-02-07T11:42:03.000Z</time>
      </trkpt>
      <trkpt lat="44.77505" lon="5.06373">
        <ele>613</ele>
        <time>2020-02-07T11:42:04.000Z</time>
      </trkpt>
      <trkpt lat="44.77505" lon="5.06373">
        <ele>613</ele>
        <time>2020-02-07T11:42:05.000Z</time>
      </trkpt>
      <trkpt lat="44.77505" lon="5.06373">
        <ele>614</ele>
        <time>2020-02-07T11:42:06.000Z</time>
      </trkpt>
      <trkpt lat="44.77505" lon="5.06374">
        <ele>614</ele>
        <time>2020-02-07T11:42:07.000Z</time>
      </trkpt>
      <trkpt lat="44.77505" lon="5.06374">
        <ele>614</ele>
        <time>2020-02-07T11:42:08.000Z</time>
      </trkpt>
      <trkpt lat="44.77505" lon="5.06374">
        <ele>614</ele>
        <time>2020-02-07T11:42:09.000Z</time>
      </trkpt>
      <trkpt lat="44.77505" lon="5.06374">
        <ele>614</ele>
        <time>2020-02-07T11:42:10.000Z</time>
      </trkpt>
      <trkpt lat="44.77505" lon="5.06374">
        <ele>614</ele>
        <time>2020-02-07T11:42:11.000Z</time>
      </trkpt>
      <trkpt lat="44.77505" lon="5.06374">
        <ele>614</ele>
        <time>2020-02-07T11:42:12.000Z</time>
      </trkpt>
      <trkpt lat="44.77505" lon="5.06374">
        <ele>614</ele>
        <time>2020-02-07T11:42:13.000Z</time>
      </trkpt>
      <trkpt lat="44.77505" lon="5.06374">
        <ele>614</ele>
        <time>2020-02-07T11:42:14.000Z</time>
      </trkpt>
      <trkpt lat="44.77505" lon="5.06374">
        <ele>614</ele>
        <time>2020-02-07T11:42:15.000Z</time>
      </trkpt>
      <trkpt lat="44.77505" lon="5.06374">
        <ele>614</ele>
        <time>2020-02-07T11:42:16.000Z</time>
      </trkpt>
      <trkpt lat="44.77505" lon="5.06374">
        <ele>614</ele>
        <time>2020-02-07T11:42:17.000Z</time>
      </trkpt>
      <trkpt lat="44.77505" lon="5.06374">
        <ele>614</ele>
        <time>2020-02-07T11:42:18.000Z</time>
      </trkpt>
      <trkpt lat="44.77505" lon="5.06374">
        <ele>614</ele>
        <time>2020-02-07T11:42:19.000Z</time>
      </trkpt>
      <trkpt lat="44.77505" lon="5.06374">
        <ele>614</ele>
        <time>2020-02-07T11:42:20.000Z</time>
      </trkpt>
      <trkpt lat="44.77505" lon="5.06374">
        <ele>614</ele>
        <time>2020-02-07T11:42:21.000Z</time>
      </trkpt>
      <trkpt lat="44.77505" lon="5.06374">
        <ele>614</ele>
        <time>2020-02-07T11:42:22.000Z</time>
      </trkpt>
      <trkpt lat="44.77505" lon="5.06374">
        <ele>614</ele>
        <time>2020-02-07T11:42:23.000Z</time>
      </trkpt>
      <trkpt lat="44.77505" lon="5.06374">
        <ele>614</ele>
        <time>2020-02-07T11:42:24.000Z</time>
      </trkpt>
      <trkpt lat="44.77505" lon="5.06374">
        <ele>614</ele>
        <time>2020-02-07T11:42:25.000Z</time>
      </trkpt>
      <trkpt lat="44.77505" lon="5.06374">
        <ele>614</ele>
        <time>2020-02-07T11:42:26.000Z</time>
      </trkpt>
      <trkpt lat="44.77505" lon="5.06374">
        <ele>614</ele>
        <time>2020-02-07T11:42:27.000Z</time>
      </trkpt>
      <trkpt lat="44.77505" lon="5.06374">
        <ele>614</ele>
        <time>2020-02-07T11:42:28.000Z</time>
      </trkpt>
      <trkpt lat="44.77505" lon="5.06374">
        <ele>614</ele>
        <time>2020-02-07T11:42:29.000Z</time>
      </trkpt>
      <trkpt lat="44.77505" lon="5.06374">
        <ele>614</ele>
        <time>2020-02-07T11:42:30.000Z</time>
      </trkpt>
      <trkpt lat="44.77505" lon="5.06375">
        <ele>614</ele>
        <time>2020-02-07T11:42:31.000Z</time>
      </trkpt>
      <trkpt lat="44.77505" lon="5.06375">
        <ele>614</ele>
        <time>2020-02-07T11:42:32.000Z</time>
      </trkpt>
      <trkpt lat="44.77505" lon="5.06375">
        <ele>614</ele>
        <time>2020-02-07T11:42:33.000Z</time>
      </trkpt>
      <trkpt lat="44.77505" lon="5.06375">
        <ele>614</ele>
        <time>2020-02-07T11:42:34.000Z</time>
      </trkpt>
      <trkpt lat="44.77505" lon="5.06375">
        <ele>614</ele>
        <time>2020-02-07T11:42:35.000Z</time>
      </trkpt>
      <trkpt lat="44.77505" lon="5.06375">
        <ele>614</ele>
        <time>2020-02-07T11:42:36.000Z</time>
      </trkpt>
      <trkpt lat="44.77505" lon="5.06375">
        <ele>613</ele>
        <time>2020-02-07T11:42:37.000Z</time>
      </trkpt>
      <trkpt lat="44.77505" lon="5.06375">
        <ele>613</ele>
        <time>2020-02-07T11:42:38.000Z</time>
      </trkpt>
      <trkpt lat="44.77505" lon="5.06375">
        <ele>613</ele>
        <time>2020-02-07T11:42:39.000Z</time>
      </trkpt>
      <trkpt lat="44.77505" lon="5.06375">
        <ele>613</ele>
        <time>2020-02-07T11:42:40.000Z</time>
      </trkpt>
      <trkpt lat="44.77505" lon="5.06375">
        <ele>613</ele>
        <time>2020-02-07T11:42:41.000Z</time>
      </trkpt>
      <trkpt lat="44.77505" lon="5.06375">
        <ele>613</ele>
        <time>2020-02-07T11:42:42.000Z</time>
      </trkpt>
      <trkpt lat="44.77505" lon="5.06376">
        <ele>613</ele>
        <time>2020-02-07T11:42:43.000Z</time>
      </trkpt>
      <trkpt lat="44.77505" lon="5.06376">
        <ele>613</ele>
        <time>2020-02-07T11:42:44.000Z</time>
      </trkpt>
      <trkpt lat="44.77505" lon="5.06376">
        <ele>613</ele>
        <time>2020-02-07T11:42:45.000Z</time>
      </trkpt>
      <trkpt lat="44.77505" lon="5.06376">
        <ele>613</ele>
        <time>2020-02-07T11:42:46.000Z</time>
      </trkpt>
      <trkpt lat="44.77505" lon="5.06376">
        <ele>613</ele>
        <time>2020-02-07T11:42:47.000Z</time>
      </trkpt>
      <trkpt lat="44.77505" lon="5.06376">
        <ele>613</ele>
        <time>2020-02-07T11:42:48.000Z</time>
      </trkpt>
      <trkpt lat="44.77505" lon="5.06376">
        <ele>613</ele>
        <time>2020-02-07T11:42:49.000Z</time>
      </trkpt>
      <trkpt lat="44.77505" lon="5.06376">
        <ele>613</ele>
        <time>2020-02-07T11:42:50.000Z</time>
      </trkpt>
      <trkpt lat="44.77505" lon="5.06376">
        <ele>613</ele>
        <time>2020-02-07T11:42:51.000Z</time>
      </trkpt>
      <trkpt lat="44.77505" lon="5.06376">
        <ele>613</ele>
        <time>2020-02-07T11:42:52.000Z</time>
      </trkpt>
      <trkpt lat="44.77505" lon="5.06376">
        <ele>613</ele>
        <time>2020-02-07T11:42:53.000Z</time>
      </trkpt>
      <trkpt lat="44.77505" lon="5.06376">
        <ele>613</ele>
        <time>2020-02-07T11:42:54.000Z</time>
      </trkpt>
      <trkpt lat="44.77505" lon="5.06376">
        <ele>613</ele>
        <time>2020-02-07T11:42:55.000Z</time>
      </trkpt>
      <trkpt lat="44.77505" lon="5.06376">
        <ele>613</ele>
        <time>2020-02-07T11:42:56.000Z</time>
      </trkpt>
      <trkpt lat="44.77505" lon="5.06376">
        <ele>613</ele>
        <time>2020-02-07T11:42:57.000Z</time>
      </trkpt>
      <trkpt lat="44.77505" lon="5.06376">
        <ele>613</ele>
        <time>2020-02-07T11:42:58.000Z</time>
      </trkpt>
      <trkpt lat="44.77505" lon="5.06376">
        <ele>613</ele>
        <time>2020-02-07T11:42:59.000Z</time>
      </trkpt>
      <trkpt lat="44.77505" lon="5.06376">
        <ele>613</ele>
        <time>2020-02-07T11:43:00.000Z</time>
      </trkpt>
      <trkpt lat="44.77505" lon="5.06376">
        <ele>613</ele>
        <time>2020-02-07T11:43:01.000Z</time>
      </trkpt>
      <trkpt lat="44.77505" lon="5.06377">
        <ele>613</ele>
        <time>2020-02-07T11:43:02.000Z</time>
      </trkpt>
      <trkpt lat="44.77505" lon="5.06377">
        <ele>613</ele>
        <time>2020-02-07T11:43:03.000Z</time>
      </trkpt>
      <trkpt lat="44.77506" lon="5.06377">
        <ele>613</ele>
        <time>2020-02-07T11:43:04.000Z</time>
      </trkpt>
      <trkpt lat="44.77506" lon="5.06377">
        <ele>613</ele>
        <time>2020-02-07T11:43:05.000Z</time>
      </trkpt>
      <trkpt lat="44.77506" lon="5.06377">
        <ele>613</ele>
        <time>2020-02-07T11:43:06.000Z</time>
      </trkpt>
      <trkpt lat="44.77506" lon="5.06377">
        <ele>613</ele>
        <time>2020-02-07T11:43:07.000Z</time>
      </trkpt>
      <trkpt lat="44.77506" lon="5.06377">
        <ele>613</ele>
        <time>2020-02-07T11:43:08.000Z</time>
      </trkpt>
      <trkpt lat="44.77506" lon="5.06377">
        <ele>613</ele>
        <time>2020-02-07T11:43:09.000Z</time>
      </trkpt>
      <trkpt lat="44.77506" lon="5.06377">
        <ele>613</ele>
        <time>2020-02-07T11:43:10.000Z</time>
      </trkpt>
      <trkpt lat="44.77506" lon="5.06377">
        <ele>613</ele>
        <time>2020-02-07T11:43:11.000Z</time>
      </trkpt>
      <trkpt lat="44.77506" lon="5.06377">
        <ele>613</ele>
        <time>2020-02-07T11:43:12.000Z</time>
      </trkpt>
      <trkpt lat="44.77506" lon="5.06377">
        <ele>613</ele>
        <time>2020-02-07T11:43:13.000Z</time>
      </trkpt>
      <trkpt lat="44.77506" lon="5.06377">
        <ele>613</ele>
        <time>2020-02-07T11:43:14.000Z</time>
      </trkpt>
      <trkpt lat="44.77506" lon="5.06378">
        <ele>613</ele>
        <time>2020-02-07T11:43:15.000Z</time>
      </trkpt>
      <trkpt lat="44.77507" lon="5.06378">
        <ele>613</ele>
        <time>2020-02-07T11:43:16.000Z</time>
      </trkpt>
      <trkpt lat="44.77507" lon="5.06378">
        <ele>613</ele>
        <time>2020-02-07T11:43:17.000Z</time>
      </trkpt>
      <trkpt lat="44.77507" lon="5.06378">
        <ele>613</ele>
        <time>2020-02-07T11:43:18.000Z</time>
      </trkpt>
      <trkpt lat="44.77507" lon="5.06378">
        <ele>613</ele>
        <time>2020-02-07T11:43:19.000Z</time>
      </trkpt>
      <trkpt lat="44.77507" lon="5.06378">
        <ele>613</ele>
        <time>2020-02-07T11:43:20.000Z</time>
      </trkpt>
      <trkpt lat="44.77507" lon="5.06378">
        <ele>613</ele>
        <time>2020-02-07T11:43:21.000Z</time>
      </trkpt>
      <trkpt lat="44.77507" lon="5.06378">
        <ele>613</ele>
        <time>2020-02-07T11:43:22.000Z</time>
      </trkpt>
      <trkpt lat="44.77507" lon="5.06378">
        <ele>613</ele>
        <time>2020-02-07T11:43:23.000Z</time>
      </trkpt>
      <trkpt lat="44.77507" lon="5.06378">
        <ele>613</ele>
        <time>2020-02-07T11:43:24.000Z</time>
      </trkpt>
      <trkpt lat="44.77507" lon="5.06378">
        <ele>613</ele>
        <time>2020-02-07T11:43:25.000Z</time>
      </trkpt>
      <trkpt lat="44.77508" lon="5.06378">
        <ele>613</ele>
        <time>2020-02-07T11:43:26.000Z</time>
      </trkpt>
      <trkpt lat="44.77508" lon="5.06378">
        <ele>613</ele>
        <time>2020-02-07T11:43:27.000Z</time>
      </trkpt>
      <trkpt lat="44.77508" lon="5.06378">
        <ele>613</ele>
        <time>2020-02-07T11:43:28.000Z</time>
      </trkpt>
      <trkpt lat="44.77508" lon="5.06378">
        <ele>613</ele>
        <time>2020-02-07T11:43:29.000Z</time>
      </trkpt>
      <trkpt lat="44.77508" lon="5.06378">
        <ele>613</ele>
        <time>2020-02-07T11:43:30.000Z</time>
      </trkpt>
      <trkpt lat="44.77508" lon="5.06378">
        <ele>613</ele>
        <time>2020-02-07T11:43:31.000Z</time>
      </trkpt>
      <trkpt lat="44.77508" lon="5.06377">
        <ele>613</ele>
        <time>2020-02-07T11:43:32.000Z</time>
      </trkpt>
      <trkpt lat="44.77508" lon="5.06377">
        <ele>613</ele>
        <time>2020-02-07T11:43:33.000Z</time>
      </trkpt>
      <trkpt lat="44.77508" lon="5.06377">
        <ele>613</ele>
        <time>2020-02-07T11:43:34.000Z</time>
      </trkpt>
      <trkpt lat="44.77508" lon="5.06377">
        <ele>613</ele>
        <time>2020-02-07T11:43:35.000Z</time>
      </trkpt>
      <trkpt lat="44.77508" lon="5.06377">
        <ele>613</ele>
        <time>2020-02-07T11:43:36.000Z</time>
      </trkpt>
      <trkpt lat="44.77508" lon="5.06377">
        <ele>613</ele>
        <time>2020-02-07T11:43:37.000Z</time>
      </trkpt>
      <trkpt lat="44.77508" lon="5.06377">
        <ele>613</ele>
        <time>2020-02-07T11:43:38.000Z</time>
      </trkpt>
      <trkpt lat="44.77508" lon="5.06377">
        <ele>613</ele>
        <time>2020-02-07T11:43:39.000Z</time>
      </trkpt>
      <trkpt lat="44.77508" lon="5.06377">
        <ele>613</ele>
        <time>2020-02-07T11:43:40.000Z</time>
      </trkpt>
      <trkpt lat="44.77508" lon="5.06377">
        <ele>612</ele>
        <time>2020-02-07T11:43:41.000Z</time>
      </trkpt>
      <trkpt lat="44.77508" lon="5.06377">
        <ele>612</ele>
        <time>2020-02-07T11:43:42.000Z</time>
      </trkpt>
      <trkpt lat="44.77508" lon="5.06377">
        <ele>612</ele>
        <time>2020-02-07T11:43:43.000Z</time>
      </trkpt>
      <trkpt lat="44.77508" lon="5.06377">
        <ele>612</ele>
        <time>2020-02-07T11:43:44.000Z</time>
      </trkpt>
      <trkpt lat="44.77508" lon="5.06377">
        <ele>612</ele>
        <time>2020-02-07T11:43:45.000Z</time>
      </trkpt>
      <trkpt lat="44.77508" lon="5.06377">
        <ele>612</ele>
        <time>2020-02-07T11:43:46.000Z</time>
      </trkpt>
      <trkpt lat="44.77508" lon="5.06377">
        <ele>612</ele>
        <time>2020-02-07T11:43:47.000Z</time>
      </trkpt>
      <trkpt lat="44.77508" lon="5.06377">
        <ele>612</ele>
        <time>2020-02-07T11:43:48.000Z</time>
      </trkpt>
      <trkpt lat="44.77508" lon="5.06377">
        <ele>612</ele>
        <time>2020-02-07T11:43:49.000Z</time>
      </trkpt>
      <trkpt lat="44.77508" lon="5.06377">
        <ele>612</ele>
        <time>2020-02-07T11:43:50.000Z</time>
      </trkpt>
      <trkpt lat="44.77508" lon="5.06377">
        <ele>612</ele>
        <time>2020-02-07T11:43:51.000Z</time>
      </trkpt>
      <trkpt lat="44.77508" lon="5.06377">
        <ele>612</ele>
        <time>2020-02-07T11:43:52.000Z</time>
      </trkpt>
      <trkpt lat="44.77508" lon="5.06377">
        <ele>612</ele>
        <time>2020-02-07T11:43:53.000Z</time>
      </trkpt>
      <trkpt lat="44.77508" lon="5.06378">
        <ele>612</ele>
        <time>2020-02-07T11:43:54.000Z</time>
      </trkpt>
      <trkpt lat="44.77508" lon="5.06378">
        <ele>612</ele>
        <time>2020-02-07T11:43:55.000Z</time>
      </trkpt>
      <trkpt lat="44.77509" lon="5.06378">
        <ele>612</ele>
        <time>2020-02-07T11:43:56.000Z</time>
      </trkpt>
      <trkpt lat="44.77509" lon="5.06378">
        <ele>612</ele>
        <time>2020-02-07T11:43:57.000Z</time>
      </trkpt>
      <trkpt lat="44.77509" lon="5.06378">
        <ele>612</ele>
        <time>2020-02-07T11:43:58.000Z</time>
      </trkpt>
      <trkpt lat="44.77509" lon="5.06378">
        <ele>612</ele>
        <time>2020-02-07T11:43:59.000Z</time>
      </trkpt>
      <trkpt lat="44.77509" lon="5.06378">
        <ele>612</ele>
        <time>2020-02-07T11:44:00.000Z</time>
      </trkpt>
      <trkpt lat="44.77508" lon="5.06378">
        <ele>612</ele>
        <time>2020-02-07T11:44:01.000Z</time>
      </trkpt>
      <trkpt lat="44.77508" lon="5.06377">
        <ele>613</ele>
        <time>2020-02-07T11:44:02.000Z</time>
      </trkpt>
      <trkpt lat="44.77509" lon="5.06377">
        <ele>613</ele>
        <time>2020-02-07T11:44:03.000Z</time>
      </trkpt>
      <trkpt lat="44.77509" lon="5.06378">
        <ele>613</ele>
        <time>2020-02-07T11:44:04.000Z</time>
      </trkpt>
      <trkpt lat="44.77509" lon="5.06378">
        <ele>613</ele>
        <time>2020-02-07T11:44:05.000Z</time>
      </trkpt>
      <trkpt lat="44.77509" lon="5.06378">
        <ele>613</ele>
        <time>2020-02-07T11:44:06.000Z</time>
      </trkpt>
      <trkpt lat="44.77509" lon="5.06378">
        <ele>613</ele>
        <time>2020-02-07T11:44:07.000Z</time>
      </trkpt>
      <trkpt lat="44.77509" lon="5.06378">
        <ele>613</ele>
        <time>2020-02-07T11:44:08.000Z</time>
      </trkpt>
      <trkpt lat="44.77509" lon="5.06378">
        <ele>613</ele>
        <time>2020-02-07T11:44:09.000Z</time>
      </trkpt>
      <trkpt lat="44.77509" lon="5.06378">
        <ele>613</ele>
        <time>2020-02-07T11:44:10.000Z</time>
      </trkpt>
      <trkpt lat="44.77509" lon="5.06378">
        <ele>613</ele>
        <time>2020-02-07T11:44:11.000Z</time>
      </trkpt>
      <trkpt lat="44.77509" lon="5.06377">
        <ele>613</ele>
        <time>2020-02-07T11:44:12.000Z</time>
      </trkpt>
      <trkpt lat="44.77509" lon="5.06377">
        <ele>613</ele>
        <time>2020-02-07T11:44:13.000Z</time>
      </trkpt>
      <trkpt lat="44.77509" lon="5.06377">
        <ele>613</ele>
        <time>2020-02-07T11:44:14.000Z</time>
      </trkpt>
      <trkpt lat="44.77509" lon="5.06377">
        <ele>613</ele>
        <time>2020-02-07T11:44:15.000Z</time>
      </trkpt>
      <trkpt lat="44.77509" lon="5.06377">
        <ele>613</ele>
        <time>2020-02-07T11:44:16.000Z</time>
      </trkpt>
      <trkpt lat="44.77509" lon="5.06377">
        <ele>613</ele>
        <time>2020-02-07T11:44:17.000Z</time>
      </trkpt>
      <trkpt lat="44.77509" lon="5.06377">
        <ele>612</ele>
        <time>2020-02-07T11:44:18.000Z</time>
      </trkpt>
      <trkpt lat="44.77509" lon="5.06377">
        <ele>612</ele>
        <time>2020-02-07T11:44:19.000Z</time>
      </trkpt>
      <trkpt lat="44.77509" lon="5.06377">
        <ele>612</ele>
        <time>2020-02-07T11:44:20.000Z</time>
      </trkpt>
      <trkpt lat="44.77509" lon="5.06378">
        <ele>612</ele>
        <time>2020-02-07T11:44:21.000Z</time>
      </trkpt>
      <trkpt lat="44.77509" lon="5.06378">
        <ele>612</ele>
        <time>2020-02-07T11:44:22.000Z</time>
      </trkpt>
      <trkpt lat="44.77509" lon="5.06378">
        <ele>613</ele>
        <time>2020-02-07T11:44:23.000Z</time>
      </trkpt>
      <trkpt lat="44.77509" lon="5.06378">
        <ele>613</ele>
        <time>2020-02-07T11:44:24.000Z</time>
      </trkpt>
      <trkpt lat="44.77509" lon="5.06378">
        <ele>613</ele>
        <time>2020-02-07T11:44:25.000Z</time>
      </trkpt>
      <trkpt lat="44.77509" lon="5.06378">
        <ele>613</ele>
        <time>2020-02-07T11:44:26.000Z</time>
      </trkpt>
      <trkpt lat="44.77509" lon="5.06378">
        <ele>613</ele>
        <time>2020-02-07T11:44:27.000Z</time>
      </trkpt>
      <trkpt lat="44.77508" lon="5.06378">
        <ele>612</ele>
        <time>2020-02-07T11:44:28.000Z</time>
      </trkpt>
      <trkpt lat="44.77508" lon="5.06378">
        <ele>612</ele>
        <time>2020-02-07T11:44:29.000Z</time>
      </trkpt>
      <trkpt lat="44.77508" lon="5.06378">
        <ele>612</ele>
        <time>2020-02-07T11:44:30.000Z</time>
      </trkpt>
      <trkpt lat="44.77508" lon="5.06378">
        <ele>612</ele>
        <time>2020-02-07T11:44:31.000Z</time>
      </trkpt>
      <trkpt lat="44.77508" lon="5.06378">
        <ele>612</ele>
        <time>2020-02-07T11:44:32.000Z</time>
      </trkpt>
      <trkpt lat="44.77508" lon="5.06378">
        <ele>612</ele>
        <time>2020-02-07T11:44:33.000Z</time>
      </trkpt>
      <trkpt lat="44.77508" lon="5.06378">
        <ele>612</ele>
        <time>2020-02-07T11:44:34.000Z</time>
      </trkpt>
      <trkpt lat="44.77508" lon="5.06378">
        <ele>612</ele>
        <time>2020-02-07T11:44:35.000Z</time>
      </trkpt>
      <trkpt lat="44.77507" lon="5.06377">
        <ele>612</ele>
        <time>2020-02-07T11:44:36.000Z</time>
      </trkpt>
      <trkpt lat="44.77507" lon="5.06377">
        <ele>612</ele>
        <time>2020-02-07T11:44:37.000Z</time>
      </trkpt>
      <trkpt lat="44.77507" lon="5.06377">
        <ele>612</ele>
        <time>2020-02-07T11:44:38.000Z</time>
      </trkpt>
      <trkpt lat="44.77507" lon="5.06377">
        <ele>612</ele>
        <time>2020-02-07T11:44:39.000Z</time>
      </trkpt>
      <trkpt lat="44.77507" lon="5.06377">
        <ele>612</ele>
        <time>2020-02-07T11:44:40.000Z</time>
      </trkpt>
      <trkpt lat="44.77507" lon="5.06377">
        <ele>612</ele>
        <time>2020-02-07T11:44:41.000Z</time>
      </trkpt>
      <trkpt lat="44.77507" lon="5.06377">
        <ele>612</ele>
        <time>2020-02-07T11:44:42.000Z</time>
      </trkpt>
      <trkpt lat="44.77507" lon="5.06377">
        <ele>612</ele>
        <time>2020-02-07T11:44:43.000Z</time>
      </trkpt>
      <trkpt lat="44.77506" lon="5.06377">
        <ele>612</ele>
        <time>2020-02-07T11:44:44.000Z</time>
      </trkpt>
      <trkpt lat="44.77506" lon="5.06377">
        <ele>612</ele>
        <time>2020-02-07T11:44:45.000Z</time>
      </trkpt>
      <trkpt lat="44.77506" lon="5.06377">
        <ele>612</ele>
        <time>2020-02-07T11:44:46.000Z</time>
      </trkpt>
      <trkpt lat="44.77506" lon="5.06377">
        <ele>612</ele>
        <time>2020-02-07T11:44:47.000Z</time>
      </trkpt>
      <trkpt lat="44.77506" lon="5.06377">
        <ele>612</ele>
        <time>2020-02-07T11:44:48.000Z</time>
      </trkpt>
      <trkpt lat="44.77506" lon="5.06377">
        <ele>612</ele>
        <time>2020-02-07T11:44:49.000Z</time>
      </trkpt>
      <trkpt lat="44.77506" lon="5.06377">
        <ele>612</ele>
        <time>2020-02-07T11:44:50.000Z</time>
      </trkpt>
      <trkpt lat="44.77506" lon="5.06377">
        <ele>612</ele>
        <time>2020-02-07T11:44:51.000Z</time>
      </trkpt>
      <trkpt lat="44.77506" lon="5.06378">
        <ele>612</ele>
        <time>2020-02-07T11:44:52.000Z</time>
      </trkpt>
      <trkpt lat="44.77506" lon="5.06378">
        <ele>612</ele>
        <time>2020-02-07T11:44:53.000Z</time>
      </trkpt>
      <trkpt lat="44.77506" lon="5.06379">
        <ele>612</ele>
        <time>2020-02-07T11:44:54.000Z</time>
      </trkpt>
      <trkpt lat="44.77506" lon="5.06379">
        <ele>611</ele>
        <time>2020-02-07T11:44:55.000Z</time>
      </trkpt>
      <trkpt lat="44.77506" lon="5.06379">
        <ele>611</ele>
        <time>2020-02-07T11:44:56.000Z</time>
      </trkpt>
      <trkpt lat="44.77506" lon="5.06379">
        <ele>611</ele>
        <time>2020-02-07T11:44:57.000Z</time>
      </trkpt>
      <trkpt lat="44.77506" lon="5.06378">
        <ele>611</ele>
        <time>2020-02-07T11:44:58.000Z</time>
      </trkpt>
      <trkpt lat="44.77506" lon="5.06379">
        <ele>611</ele>
        <time>2020-02-07T11:44:59.000Z</time>
      </trkpt>
      <trkpt lat="44.77506" lon="5.06379">
        <ele>611</ele>
        <time>2020-02-07T11:45:00.000Z</time>
      </trkpt>
      <trkpt lat="44.77506" lon="5.06379">
        <ele>610</ele>
        <time>2020-02-07T11:45:01.000Z</time>
      </trkpt>
      <trkpt lat="44.77506" lon="5.06379">
        <ele>610</ele>
        <time>2020-02-07T11:45:02.000Z</time>
      </trkpt>
      <trkpt lat="44.77506" lon="5.06379">
        <ele>610</ele>
        <time>2020-02-07T11:45:03.000Z</time>
      </trkpt>
      <trkpt lat="44.77506" lon="5.06379">
        <ele>610</ele>
        <time>2020-02-07T11:45:04.000Z</time>
      </trkpt>
      <trkpt lat="44.77506" lon="5.06379">
        <ele>610</ele>
        <time>2020-02-07T11:45:05.000Z</time>
      </trkpt>
      <trkpt lat="44.77506" lon="5.06379">
        <ele>610</ele>
        <time>2020-02-07T11:45:06.000Z</time>
      </trkpt>
      <trkpt lat="44.77507" lon="5.06379">
        <ele>610</ele>
        <time>2020-02-07T11:45:07.000Z</time>
      </trkpt>
      <trkpt lat="44.77507" lon="5.0638">
        <ele>610</ele>
        <time>2020-02-07T11:45:08.000Z</time>
      </trkpt>
      <trkpt lat="44.77507" lon="5.0638">
        <ele>610</ele>
        <time>2020-02-07T11:45:09.000Z</time>
      </trkpt>
      <trkpt lat="44.77507" lon="5.0638">
        <ele>610</ele>
        <time>2020-02-07T11:45:10.000Z</time>
      </trkpt>
      <trkpt lat="44.77507" lon="5.0638">
        <ele>610</ele>
        <time>2020-02-07T11:45:11.000Z</time>
      </trkpt>
      <trkpt lat="44.77507" lon="5.0638">
        <ele>610</ele>
        <time>2020-02-07T11:45:12.000Z</time>
      </trkpt>
      <trkpt lat="44.77507" lon="5.0638">
        <ele>610</ele>
        <time>2020-02-07T11:45:13.000Z</time>
      </trkpt>
      <trkpt lat="44.77507" lon="5.0638">
        <ele>610</ele>
        <time>2020-02-07T11:45:14.000Z</time>
      </trkpt>
      <trkpt lat="44.77507" lon="5.0638">
        <ele>610</ele>
        <time>2020-02-07T11:45:15.000Z</time>
      </trkpt>
      <trkpt lat="44.77507" lon="5.0638">
        <ele>610</ele>
        <time>2020-02-07T11:45:16.000Z</time>
      </trkpt>
      <trkpt lat="44.77507" lon="5.0638">
        <ele>610</ele>
        <time>2020-02-07T11:45:17.000Z</time>
      </trkpt>
      <trkpt lat="44.77507" lon="5.0638">
        <ele>610</ele>
        <time>2020-02-07T11:45:18.000Z</time>
      </trkpt>
      <trkpt lat="44.77507" lon="5.06379">
        <ele>609</ele>
        <time>2020-02-07T11:45:19.000Z</time>
      </trkpt>
      <trkpt lat="44.77507" lon="5.06379">
        <ele>609</ele>
        <time>2020-02-07T11:45:20.000Z</time>
      </trkpt>
      <trkpt lat="44.77507" lon="5.06379">
        <ele>609</ele>
        <time>2020-02-07T11:45:21.000Z</time>
      </trkpt>
      <trkpt lat="44.77507" lon="5.06379">
        <ele>609</ele>
        <time>2020-02-07T11:45:22.000Z</time>
      </trkpt>
      <trkpt lat="44.77507" lon="5.06379">
        <ele>609</ele>
        <time>2020-02-07T11:45:23.000Z</time>
      </trkpt>
      <trkpt lat="44.77507" lon="5.06379">
        <ele>609</ele>
        <time>2020-02-07T11:45:24.000Z</time>
      </trkpt>
      <trkpt lat="44.77507" lon="5.06379">
        <ele>609</ele>
        <time>2020-02-07T11:45:25.000Z</time>
      </trkpt>
      <trkpt lat="44.77507" lon="5.06379">
        <ele>609</ele>
        <time>2020-02-07T11:45:26.000Z</time>
      </trkpt>
      <trkpt lat="44.77507" lon="5.06379">
        <ele>609</ele>
        <time>2020-02-07T11:45:27.000Z</time>
      </trkpt>
      <trkpt lat="44.77507" lon="5.06379">
        <ele>609</ele>
        <time>2020-02-07T11:45:28.000Z</time>
      </trkpt>
      <trkpt lat="44.77507" lon="5.06378">
        <ele>609</ele>
        <time>2020-02-07T11:45:29.000Z</time>
      </trkpt>
      <trkpt lat="44.77507" lon="5.06378">
        <ele>609</ele>
        <time>2020-02-07T11:45:30.000Z</time>
      </trkpt>
      <trkpt lat="44.77507" lon="5.06378">
        <ele>609</ele>
        <time>2020-02-07T11:45:31.000Z</time>
      </trkpt>
      <trkpt lat="44.77507" lon="5.06378">
        <ele>609</ele>
        <time>2020-02-07T11:45:32.000Z</time>
      </trkpt>
      <trkpt lat="44.77507" lon="5.06378">
        <ele>609</ele>
        <time>2020-02-07T11:45:33.000Z</time>
      </trkpt>
      <trkpt lat="44.77507" lon="5.06377">
        <ele>609</ele>
        <time>2020-02-07T11:45:34.000Z</time>
      </trkpt>
      <trkpt lat="44.77506" lon="5.06377">
        <ele>609</ele>
        <time>2020-02-07T11:45:35.000Z</time>
      </trkpt>
      <trkpt lat="44.77506" lon="5.06377">
        <ele>609</ele>
        <time>2020-02-07T11:45:36.000Z</time>
      </trkpt>
      <trkpt lat="44.77506" lon="5.06377">
        <ele>609</ele>
        <time>2020-02-07T11:45:37.000Z</time>
      </trkpt>
      <trkpt lat="44.77506" lon="5.06377">
        <ele>609</ele>
        <time>2020-02-07T11:45:38.000Z</time>
      </trkpt>
      <trkpt lat="44.77506" lon="5.06377">
        <ele>609</ele>
        <time>2020-02-07T11:45:39.000Z</time>
      </trkpt>
      <trkpt lat="44.77506" lon="5.06377">
        <ele>609</ele>
        <time>2020-02-07T11:45:40.000Z</time>
      </trkpt>
      <trkpt lat="44.77506" lon="5.06377">
        <ele>609</ele>
        <time>2020-02-07T11:45:41.000Z</time>
      </trkpt>
      <trkpt lat="44.77506" lon="5.06377">
        <ele>609</ele>
        <time>2020-02-07T11:45:42.000Z</time>
      </trkpt>
      <trkpt lat="44.77505" lon="5.06377">
        <ele>609</ele>
        <time>2020-02-07T11:45:43.000Z</time>
      </trkpt>
      <trkpt lat="44.77505" lon="5.06377">
        <ele>609</ele>
        <time>2020-02-07T11:45:44.000Z</time>
      </trkpt>
      <trkpt lat="44.77505" lon="5.06377">
        <ele>609</ele>
        <time>2020-02-07T11:45:45.000Z</time>
      </trkpt>
      <trkpt lat="44.77506" lon="5.06377">
        <ele>609</ele>
        <time>2020-02-07T11:45:46.000Z</time>
      </trkpt>
      <trkpt lat="44.77506" lon="5.06377">
        <ele>609</ele>
        <time>2020-02-07T11:45:47.000Z</time>
      </trkpt>
      <trkpt lat="44.77506" lon="5.06377">
        <ele>609</ele>
        <time>2020-02-07T11:45:48.000Z</time>
      </trkpt>
      <trkpt lat="44.77506" lon="5.06377">
        <ele>609</ele>
        <time>2020-02-07T11:45:49.000Z</time>
      </trkpt>
      <trkpt lat="44.77506" lon="5.06377">
        <ele>609</ele>
        <time>2020-02-07T11:45:50.000Z</time>
      </trkpt>
      <trkpt lat="44.77506" lon="5.06377">
        <ele>609</ele>
        <time>2020-02-07T11:45:51.000Z</time>
      </trkpt>
      <trkpt lat="44.77505" lon="5.06377">
        <ele>609</ele>
        <time>2020-02-07T11:45:52.000Z</time>
      </trkpt>
      <trkpt lat="44.77505" lon="5.06377">
        <ele>609</ele>
        <time>2020-02-07T11:45:53.000Z</time>
      </trkpt>
      <trkpt lat="44.77505" lon="5.06377">
        <ele>609</ele>
        <time>2020-02-07T11:45:54.000Z</time>
      </trkpt>
      <trkpt lat="44.77505" lon="5.06377">
        <ele>609</ele>
        <time>2020-02-07T11:45:55.000Z</time>
      </trkpt>
      <trkpt lat="44.77505" lon="5.06377">
        <ele>609</ele>
        <time>2020-02-07T11:45:56.000Z</time>
      </trkpt>
      <trkpt lat="44.77505" lon="5.06377">
        <ele>609</ele>
        <time>2020-02-07T11:45:57.000Z</time>
      </trkpt>
      <trkpt lat="44.77504" lon="5.06377">
        <ele>609</ele>
        <time>2020-02-07T11:45:58.000Z</time>
      </trkpt>
      <trkpt lat="44.77504" lon="5.06377">
        <ele>609</ele>
        <time>2020-02-07T11:45:59.000Z</time>
      </trkpt>
      <trkpt lat="44.77504" lon="5.06377">
        <ele>609</ele>
        <time>2020-02-07T11:46:00.000Z</time>
      </trkpt>
      <trkpt lat="44.77504" lon="5.06377">
        <ele>609</ele>
        <time>2020-02-07T11:46:01.000Z</time>
      </trkpt>
      <trkpt lat="44.77504" lon="5.06377">
        <ele>609</ele>
        <time>2020-02-07T11:46:02.000Z</time>
      </trkpt>
      <trkpt lat="44.77503" lon="5.06377">
        <ele>608</ele>
        <time>2020-02-07T11:46:03.000Z</time>
      </trkpt>
      <trkpt lat="44.77503" lon="5.06377">
        <ele>608</ele>
        <time>2020-02-07T11:46:04.000Z</time>
      </trkpt>
      <trkpt lat="44.77503" lon="5.06376">
        <ele>608</ele>
        <time>2020-02-07T11:46:05.000Z</time>
      </trkpt>
      <trkpt lat="44.77503" lon="5.06376">
        <ele>608</ele>
        <time>2020-02-07T11:46:06.000Z</time>
      </trkpt>
      <trkpt lat="44.77503" lon="5.06376">
        <ele>608</ele>
        <time>2020-02-07T11:46:07.000Z</time>
      </trkpt>
      <trkpt lat="44.77503" lon="5.06377">
        <ele>608</ele>
        <time>2020-02-07T11:46:08.000Z</time>
      </trkpt>
      <trkpt lat="44.77503" lon="5.06377">
        <ele>608</ele>
        <time>2020-02-07T11:46:09.000Z</time>
      </trkpt>
      <trkpt lat="44.77503" lon="5.06377">
        <ele>608</ele>
        <time>2020-02-07T11:46:10.000Z</time>
      </trkpt>
      <trkpt lat="44.77503" lon="5.06377">
        <ele>608</ele>
        <time>2020-02-07T11:46:11.000Z</time>
      </trkpt>
      <trkpt lat="44.77503" lon="5.06377">
        <ele>608</ele>
        <time>2020-02-07T11:46:12.000Z</time>
      </trkpt>
      <trkpt lat="44.77503" lon="5.06377">
        <ele>608</ele>
        <time>2020-02-07T11:46:13.000Z</time>
      </trkpt>
      <trkpt lat="44.77503" lon="5.06377">
        <ele>608</ele>
        <time>2020-02-07T11:46:14.000Z</time>
      </trkpt>
      <trkpt lat="44.77503" lon="5.06377">
        <ele>608</ele>
        <time>2020-02-07T11:46:15.000Z</time>
      </trkpt>
      <trkpt lat="44.77503" lon="5.06377">
        <ele>608</ele>
        <time>2020-02-07T11:46:16.000Z</time>
      </trkpt>
      <trkpt lat="44.77502" lon="5.06377">
        <ele>608</ele>
        <time>2020-02-07T11:46:17.000Z</time>
      </trkpt>
      <trkpt lat="44.77502" lon="5.06377">
        <ele>608</ele>
        <time>2020-02-07T11:46:18.000Z</time>
      </trkpt>
      <trkpt lat="44.77502" lon="5.06377">
        <ele>608</ele>
        <time>2020-02-07T11:46:19.000Z</time>
      </trkpt>
      <trkpt lat="44.77502" lon="5.06377">
        <ele>608</ele>
        <time>2020-02-07T11:46:20.000Z</time>
      </trkpt>
      <trkpt lat="44.77502" lon="5.06377">
        <ele>608</ele>
        <time>2020-02-07T11:46:21.000Z</time>
      </trkpt>
      <trkpt lat="44.77503" lon="5.06377">
        <ele>608</ele>
        <time>2020-02-07T11:46:22.000Z</time>
      </trkpt>
      <trkpt lat="44.77503" lon="5.06377">
        <ele>608</ele>
        <time>2020-02-07T11:46:23.000Z</time>
      </trkpt>
      <trkpt lat="44.77503" lon="5.06377">
        <ele>608</ele>
        <time>2020-02-07T11:46:24.000Z</time>
      </trkpt>
      <trkpt lat="44.77503" lon="5.06377">
        <ele>608</ele>
        <time>2020-02-07T11:46:25.000Z</time>
      </trkpt>
      <trkpt lat="44.77503" lon="5.06377">
        <ele>608</ele>
        <time>2020-02-07T11:46:26.000Z</time>
      </trkpt>
      <trkpt lat="44.77503" lon="5.06377">
        <ele>608</ele>
        <time>2020-02-07T11:46:27.000Z</time>
      </trkpt>
      <trkpt lat="44.77503" lon="5.06377">
        <ele>608</ele>
        <time>2020-02-07T11:46:28.000Z</time>
      </trkpt>
      <trkpt lat="44.77503" lon="5.06376">
        <ele>608</ele>
        <time>2020-02-07T11:46:29.000Z</time>
      </trkpt>
      <trkpt lat="44.77503" lon="5.06375">
        <ele>608</ele>
        <time>2020-02-07T11:46:30.000Z</time>
      </trkpt>
      <trkpt lat="44.77503" lon="5.06375">
        <ele>608</ele>
        <time>2020-02-07T11:46:31.000Z</time>
      </trkpt>
      <trkpt lat="44.77502" lon="5.06375">
        <ele>608</ele>
        <time>2020-02-07T11:46:32.000Z</time>
      </trkpt>
      <trkpt lat="44.77502" lon="5.06375">
        <ele>608</ele>
        <time>2020-02-07T11:46:33.000Z</time>
      </trkpt>
      <trkpt lat="44.77501" lon="5.06375">
        <ele>608</ele>
        <time>2020-02-07T11:46:34.000Z</time>
      </trkpt>
      <trkpt lat="44.77501" lon="5.06375">
        <ele>608</ele>
        <time>2020-02-07T11:46:35.000Z</time>
      </trkpt>
      <trkpt lat="44.77501" lon="5.06376">
        <ele>607</ele>
        <time>2020-02-07T11:46:36.000Z</time>
      </trkpt>
      <trkpt lat="44.77501" lon="5.06376">
        <ele>607</ele>
        <time>2020-02-07T11:46:37.000Z</time>
      </trkpt>
      <trkpt lat="44.77501" lon="5.06377">
        <ele>607</ele>
        <time>2020-02-07T11:46:38.000Z</time>
      </trkpt>
      <trkpt lat="44.77501" lon="5.06377">
        <ele>607</ele>
        <time>2020-02-07T11:46:39.000Z</time>
      </trkpt>
      <trkpt lat="44.77501" lon="5.06377">
        <ele>607</ele>
        <time>2020-02-07T11:46:40.000Z</time>
      </trkpt>
      <trkpt lat="44.77501" lon="5.06377">
        <ele>607</ele>
        <time>2020-02-07T11:46:41.000Z</time>
      </trkpt>
      <trkpt lat="44.77501" lon="5.06377">
        <ele>607</ele>
        <time>2020-02-07T11:46:42.000Z</time>
      </trkpt>
      <trkpt lat="44.77501" lon="5.06377">
        <ele>607</ele>
        <time>2020-02-07T11:46:43.000Z</time>
      </trkpt>
      <trkpt lat="44.77501" lon="5.06377">
        <ele>607</ele>
        <time>2020-02-07T11:46:44.000Z</time>
      </trkpt>
      <trkpt lat="44.77501" lon="5.06378">
        <ele>607</ele>
        <time>2020-02-07T11:46:45.000Z</time>
      </trkpt>
      <trkpt lat="44.77501" lon="5.06378">
        <ele>607</ele>
        <time>2020-02-07T11:46:46.000Z</time>
      </trkpt>
      <trkpt lat="44.77501" lon="5.06378">
        <ele>607</ele>
        <time>2020-02-07T11:46:47.000Z</time>
      </trkpt>
      <trkpt lat="44.775" lon="5.06379">
        <ele>607</ele>
        <time>2020-02-07T11:46:48.000Z</time>
      </trkpt>
      <trkpt lat="44.775" lon="5.06379">
        <ele>607</ele>
        <time>2020-02-07T11:46:49.000Z</time>
      </trkpt>
      <trkpt lat="44.775" lon="5.06379">
        <ele>607</ele>
        <time>2020-02-07T11:46:50.000Z</time>
      </trkpt>
      <trkpt lat="44.775" lon="5.06379">
        <ele>607</ele>
        <time>2020-02-07T11:46:51.000Z</time>
      </trkpt>
      <trkpt lat="44.775" lon="5.0638">
        <ele>607</ele>
        <time>2020-02-07T11:46:52.000Z</time>
      </trkpt>
      <trkpt lat="44.775" lon="5.0638">
        <ele>607</ele>
        <time>2020-02-07T11:46:53.000Z</time>
      </trkpt>
      <trkpt lat="44.775" lon="5.0638">
        <ele>607</ele>
        <time>2020-02-07T11:46:54.000Z</time>
      </trkpt>
      <trkpt lat="44.775" lon="5.06381">
        <ele>607</ele>
        <time>2020-02-07T11:46:55.000Z</time>
      </trkpt>
      <trkpt lat="44.775" lon="5.06381">
        <ele>607</ele>
        <time>2020-02-07T11:46:56.000Z</time>
      </trkpt>
      <trkpt lat="44.775" lon="5.06381">
        <ele>606</ele>
        <time>2020-02-07T11:46:57.000Z</time>
      </trkpt>
      <trkpt lat="44.775" lon="5.06382">
        <ele>606</ele>
        <time>2020-02-07T11:46:58.000Z</time>
      </trkpt>
      <trkpt lat="44.775" lon="5.06382">
        <ele>606</ele>
        <time>2020-02-07T11:46:59.000Z</time>
      </trkpt>
      <trkpt lat="44.775" lon="5.06383">
        <ele>606</ele>
        <time>2020-02-07T11:47:00.000Z</time>
      </trkpt>
      <trkpt lat="44.775" lon="5.06383">
        <ele>606</ele>
        <time>2020-02-07T11:47:01.000Z</time>
      </trkpt>
      <trkpt lat="44.77501" lon="5.06383">
        <ele>606</ele>
        <time>2020-02-07T11:47:02.000Z</time>
      </trkpt>
      <trkpt lat="44.77501" lon="5.06383">
        <ele>606</ele>
        <time>2020-02-07T11:47:03.000Z</time>
      </trkpt>
      <trkpt lat="44.77501" lon="5.06383">
        <ele>606</ele>
        <time>2020-02-07T11:47:04.000Z</time>
      </trkpt>
      <trkpt lat="44.77501" lon="5.06383">
        <ele>606</ele>
        <time>2020-02-07T11:47:05.000Z</time>
      </trkpt>
      <trkpt lat="44.77501" lon="5.06384">
        <ele>606</ele>
        <time>2020-02-07T11:47:06.000Z</time>
      </trkpt>
      <trkpt lat="44.77501" lon="5.06384">
        <ele>607</ele>
        <time>2020-02-07T11:47:07.000Z</time>
      </trkpt>
      <trkpt lat="44.77501" lon="5.06384">
        <ele>607</ele>
        <time>2020-02-07T11:47:08.000Z</time>
      </trkpt>
      <trkpt lat="44.775" lon="5.06384">
        <ele>607</ele>
        <time>2020-02-07T11:47:09.000Z</time>
      </trkpt>
      <trkpt lat="44.775" lon="5.06384">
        <ele>607</ele>
        <time>2020-02-07T11:47:10.000Z</time>
      </trkpt>
      <trkpt lat="44.775" lon="5.06384">
        <ele>607</ele>
        <time>2020-02-07T11:47:11.000Z</time>
      </trkpt>
      <trkpt lat="44.775" lon="5.06384">
        <ele>607</ele>
        <time>2020-02-07T11:47:12.000Z</time>
      </trkpt>
      <trkpt lat="44.775" lon="5.06384">
        <ele>607</ele>
        <time>2020-02-07T11:47:13.000Z</time>
      </trkpt>
      <trkpt lat="44.775" lon="5.06384">
        <ele>607</ele>
        <time>2020-02-07T11:47:14.000Z</time>
      </trkpt>
      <trkpt lat="44.775" lon="5.06384">
        <ele>607</ele>
        <time>2020-02-07T11:47:15.000Z</time>
      </trkpt>
      <trkpt lat="44.77501" lon="5.06384">
        <ele>607</ele>
        <time>2020-02-07T11:47:16.000Z</time>
      </trkpt>
      <trkpt lat="44.77501" lon="5.06384">
        <ele>607</ele>
        <time>2020-02-07T11:47:17.000Z</time>
      </trkpt>
      <trkpt lat="44.77501" lon="5.06384">
        <ele>607</ele>
        <time>2020-02-07T11:47:18.000Z</time>
      </trkpt>
      <trkpt lat="44.77501" lon="5.06384">
        <ele>607</ele>
        <time>2020-02-07T11:47:19.000Z</time>
      </trkpt>
      <trkpt lat="44.77501" lon="5.06384">
        <ele>607</ele>
        <time>2020-02-07T11:47:20.000Z</time>
      </trkpt>
      <trkpt lat="44.775" lon="5.06385">
        <ele>607</ele>
        <time>2020-02-07T11:47:21.000Z</time>
      </trkpt>
      <trkpt lat="44.77501" lon="5.06385">
        <ele>607</ele>
        <time>2020-02-07T11:47:22.000Z</time>
      </trkpt>
      <trkpt lat="44.77501" lon="5.06384">
        <ele>607</ele>
        <time>2020-02-07T11:47:23.000Z</time>
      </trkpt>
      <trkpt lat="44.77501" lon="5.06384">
        <ele>607</ele>
        <time>2020-02-07T11:47:24.000Z</time>
      </trkpt>
      <trkpt lat="44.77501" lon="5.06384">
        <ele>608</ele>
        <time>2020-02-07T11:47:25.000Z</time>
      </trkpt>
      <trkpt lat="44.77501" lon="5.06384">
        <ele>608</ele>
        <time>2020-02-07T11:47:26.000Z</time>
      </trkpt>
      <trkpt lat="44.775" lon="5.06384">
        <ele>608</ele>
        <time>2020-02-07T11:47:27.000Z</time>
      </trkpt>
      <trkpt lat="44.77501" lon="5.06384">
        <ele>608</ele>
        <time>2020-02-07T11:47:28.000Z</time>
      </trkpt>
      <trkpt lat="44.77501" lon="5.06384">
        <ele>608</ele>
        <time>2020-02-07T11:47:29.000Z</time>
      </trkpt>
      <trkpt lat="44.77501" lon="5.06384">
        <ele>608</ele>
        <time>2020-02-07T11:47:30.000Z</time>
      </trkpt>
      <trkpt lat="44.77501" lon="5.06384">
        <ele>608</ele>
        <time>2020-02-07T11:47:31.000Z</time>
      </trkpt>
      <trkpt lat="44.77501" lon="5.06384">
        <ele>608</ele>
        <time>2020-02-07T11:47:32.000Z</time>
      </trkpt>
      <trkpt lat="44.77501" lon="5.06384">
        <ele>609</ele>
        <time>2020-02-07T11:47:33.000Z</time>
      </trkpt>
      <trkpt lat="44.77501" lon="5.06384">
        <ele>609</ele>
        <time>2020-02-07T11:47:34.000Z</time>
      </trkpt>
      <trkpt lat="44.775" lon="5.06384">
        <ele>609</ele>
        <time>2020-02-07T11:47:35.000Z</time>
      </trkpt>
      <trkpt lat="44.775" lon="5.06384">
        <ele>609</ele>
        <time>2020-02-07T11:47:36.000Z</time>
      </trkpt>
      <trkpt lat="44.775" lon="5.06384">
        <ele>609</ele>
        <time>2020-02-07T11:47:37.000Z</time>
      </trkpt>
      <trkpt lat="44.77499" lon="5.06384">
        <ele>609</ele>
        <time>2020-02-07T11:47:38.000Z</time>
      </trkpt>
      <trkpt lat="44.77499" lon="5.06383">
        <ele>609</ele>
        <time>2020-02-07T11:47:39.000Z</time>
      </trkpt>
      <trkpt lat="44.77499" lon="5.06383">
        <ele>609</ele>
        <time>2020-02-07T11:47:40.000Z</time>
      </trkpt>
      <trkpt lat="44.77499" lon="5.06383">
        <ele>609</ele>
        <time>2020-02-07T11:47:41.000Z</time>
      </trkpt>
      <trkpt lat="44.77499" lon="5.06383">
        <ele>609</ele>
        <time>2020-02-07T11:47:42.000Z</time>
      </trkpt>
      <trkpt lat="44.77499" lon="5.06383">
        <ele>609</ele>
        <time>2020-02-07T11:47:43.000Z</time>
      </trkpt>
      <trkpt lat="44.77499" lon="5.06383">
        <ele>609</ele>
        <time>2020-02-07T11:47:44.000Z</time>
      </trkpt>
      <trkpt lat="44.77499" lon="5.06383">
        <ele>609</ele>
        <time>2020-02-07T11:47:45.000Z</time>
      </trkpt>
      <trkpt lat="44.77499" lon="5.06383">
        <ele>609</ele>
        <time>2020-02-07T11:47:46.000Z</time>
      </trkpt>
      <trkpt lat="44.77499" lon="5.06383">
        <ele>609</ele>
        <time>2020-02-07T11:47:47.000Z</time>
      </trkpt>
      <trkpt lat="44.77499" lon="5.06383">
        <ele>609</ele>
        <time>2020-02-07T11:47:48.000Z</time>
      </trkpt>
      <trkpt lat="44.77499" lon="5.06383">
        <ele>609</ele>
        <time>2020-02-07T11:47:49.000Z</time>
      </trkpt>
      <trkpt lat="44.77499" lon="5.06383">
        <ele>609</ele>
        <time>2020-02-07T11:47:50.000Z</time>
      </trkpt>
      <trkpt lat="44.77499" lon="5.06383">
        <ele>609</ele>
        <time>2020-02-07T11:47:51.000Z</time>
      </trkpt>
      <trkpt lat="44.77499" lon="5.06383">
        <ele>609</ele>
        <time>2020-02-07T11:47:52.000Z</time>
      </trkpt>
      <trkpt lat="44.77498" lon="5.06383">
        <ele>609</ele>
        <time>2020-02-07T11:47:53.000Z</time>
      </trkpt>
      <trkpt lat="44.77498" lon="5.06383">
        <ele>609</ele>
        <time>2020-02-07T11:47:54.000Z</time>
      </trkpt>
      <trkpt lat="44.77498" lon="5.06383">
        <ele>609</ele>
        <time>2020-02-07T11:47:55.000Z</time>
      </trkpt>
      <trkpt lat="44.77498" lon="5.06382">
        <ele>609</ele>
        <time>2020-02-07T11:47:56.000Z</time>
      </trkpt>
      <trkpt lat="44.77498" lon="5.06382">
        <ele>609</ele>
        <time>2020-02-07T11:47:57.000Z</time>
      </trkpt>
      <trkpt lat="44.77498" lon="5.06382">
        <ele>609</ele>
        <time>2020-02-07T11:47:58.000Z</time>
      </trkpt>
      <trkpt lat="44.77498" lon="5.06382">
        <ele>609</ele>
        <time>2020-02-07T11:47:59.000Z</time>
      </trkpt>
      <trkpt lat="44.77498" lon="5.06381">
        <ele>609</ele>
        <time>2020-02-07T11:48:00.000Z</time>
      </trkpt>
      <trkpt lat="44.77498" lon="5.06381">
        <ele>609</ele>
        <time>2020-02-07T11:48:01.000Z</time>
      </trkpt>
      <trkpt lat="44.77497" lon="5.0638">
        <ele>609</ele>
        <time>2020-02-07T11:48:02.000Z</time>
      </trkpt>
      <trkpt lat="44.77497" lon="5.06379">
        <ele>609</ele>
        <time>2020-02-07T11:48:03.000Z</time>
      </trkpt>
      <trkpt lat="44.77497" lon="5.06378">
        <ele>609</ele>
        <time>2020-02-07T11:48:04.000Z</time>
      </trkpt>
      <trkpt lat="44.77497" lon="5.06377">
        <ele>610</ele>
        <time>2020-02-07T11:48:05.000Z</time>
      </trkpt>
      <trkpt lat="44.77497" lon="5.06376">
        <ele>610</ele>
        <time>2020-02-07T11:48:06.000Z</time>
      </trkpt>
      <trkpt lat="44.77497" lon="5.06375">
        <ele>610</ele>
        <time>2020-02-07T11:48:07.000Z</time>
      </trkpt>
      <trkpt lat="44.77497" lon="5.06375">
        <ele>610</ele>
        <time>2020-02-07T11:48:08.000Z</time>
      </trkpt>
      <trkpt lat="44.77497" lon="5.06375">
        <ele>610</ele>
        <time>2020-02-07T11:48:09.000Z</time>
      </trkpt>
      <trkpt lat="44.77497" lon="5.06375">
        <ele>610</ele>
        <time>2020-02-07T11:48:10.000Z</time>
      </trkpt>
      <trkpt lat="44.77497" lon="5.06375">
        <ele>610</ele>
        <time>2020-02-07T11:48:11.000Z</time>
      </trkpt>
      <trkpt lat="44.77497" lon="5.06374">
        <ele>610</ele>
        <time>2020-02-07T11:48:12.000Z</time>
      </trkpt>
      <trkpt lat="44.77498" lon="5.06374">
        <ele>610</ele>
        <time>2020-02-07T11:48:13.000Z</time>
      </trkpt>
      <trkpt lat="44.77497" lon="5.06374">
        <ele>610</ele>
        <time>2020-02-07T11:48:14.000Z</time>
      </trkpt>
      <trkpt lat="44.77498" lon="5.06374">
        <ele>610</ele>
        <time>2020-02-07T11:48:15.000Z</time>
      </trkpt>
      <trkpt lat="44.77498" lon="5.06374">
        <ele>609</ele>
        <time>2020-02-07T11:48:16.000Z</time>
      </trkpt>
      <trkpt lat="44.77498" lon="5.06374">
        <ele>609</ele>
        <time>2020-02-07T11:48:17.000Z</time>
      </trkpt>
      <trkpt lat="44.77498" lon="5.06373">
        <ele>609</ele>
        <time>2020-02-07T11:48:18.000Z</time>
      </trkpt>
      <trkpt lat="44.77498" lon="5.06373">
        <ele>609</ele>
        <time>2020-02-07T11:48:19.000Z</time>
      </trkpt>
      <trkpt lat="44.77498" lon="5.06374">
        <ele>609</ele>
        <time>2020-02-07T11:48:20.000Z</time>
      </trkpt>
      <trkpt lat="44.77499" lon="5.06373">
        <ele>609</ele>
        <time>2020-02-07T11:48:21.000Z</time>
      </trkpt>
      <trkpt lat="44.77499" lon="5.06373">
        <ele>609</ele>
        <time>2020-02-07T11:48:22.000Z</time>
      </trkpt>
      <trkpt lat="44.775" lon="5.06373">
        <ele>609</ele>
        <time>2020-02-07T11:48:23.000Z</time>
      </trkpt>
      <trkpt lat="44.775" lon="5.06373">
        <ele>609</ele>
        <time>2020-02-07T11:48:24.000Z</time>
      </trkpt>
      <trkpt lat="44.775" lon="5.06373">
        <ele>609</ele>
        <time>2020-02-07T11:48:25.000Z</time>
      </trkpt>
      <trkpt lat="44.77501" lon="5.06373">
        <ele>609</ele>
        <time>2020-02-07T11:48:26.000Z</time>
      </trkpt>
      <trkpt lat="44.77501" lon="5.06374">
        <ele>609</ele>
        <time>2020-02-07T11:48:27.000Z</time>
      </trkpt>
      <trkpt lat="44.77502" lon="5.06374">
        <ele>609</ele>
        <time>2020-02-07T11:48:28.000Z</time>
      </trkpt>
      <trkpt lat="44.77502" lon="5.06375">
        <ele>609</ele>
        <time>2020-02-07T11:48:29.000Z</time>
      </trkpt>
      <trkpt lat="44.77502" lon="5.06375">
        <ele>609</ele>
        <time>2020-02-07T11:48:30.000Z</time>
      </trkpt>
      <trkpt lat="44.77502" lon="5.06375">
        <ele>609</ele>
        <time>2020-02-07T11:48:31.000Z</time>
      </trkpt>
      <trkpt lat="44.77502" lon="5.06375">
        <ele>609</ele>
        <time>2020-02-07T11:48:32.000Z</time>
      </trkpt>
      <trkpt lat="44.77502" lon="5.06376">
        <ele>608</ele>
        <time>2020-02-07T11:48:33.000Z</time>
      </trkpt>
      <trkpt lat="44.77502" lon="5.06375">
        <ele>608</ele>
        <time>2020-02-07T11:48:34.000Z</time>
      </trkpt>
      <trkpt lat="44.77502" lon="5.06376">
        <ele>608</ele>
        <time>2020-02-07T11:48:35.000Z</time>
      </trkpt>
      <trkpt lat="44.77502" lon="5.06376">
        <ele>608</ele>
        <time>2020-02-07T11:48:36.000Z</time>
      </trkpt>
      <trkpt lat="44.77502" lon="5.06376">
        <ele>608</ele>
        <time>2020-02-07T11:48:37.000Z</time>
      </trkpt>
      <trkpt lat="44.77502" lon="5.06376">
        <ele>608</ele>
        <time>2020-02-07T11:48:38.000Z</time>
      </trkpt>
      <trkpt lat="44.77503" lon="5.06376">
        <ele>608</ele>
        <time>2020-02-07T11:48:39.000Z</time>
      </trkpt>
      <trkpt lat="44.77503" lon="5.06376">
        <ele>608</ele>
        <time>2020-02-07T11:48:40.000Z</time>
      </trkpt>
      <trkpt lat="44.77503" lon="5.06376">
        <ele>608</ele>
        <time>2020-02-07T11:48:41.000Z</time>
      </trkpt>
      <trkpt lat="44.77503" lon="5.06376">
        <ele>608</ele>
        <time>2020-02-07T11:48:42.000Z</time>
      </trkpt>
      <trkpt lat="44.77503" lon="5.06376">
        <ele>608</ele>
        <time>2020-02-07T11:48:43.000Z</time>
      </trkpt>
      <trkpt lat="44.77503" lon="5.06376">
        <ele>608</ele>
        <time>2020-02-07T11:48:44.000Z</time>
      </trkpt>
      <trkpt lat="44.77503" lon="5.06376">
        <ele>608</ele>
        <time>2020-02-07T11:48:45.000Z</time>
      </trkpt>
      <trkpt lat="44.77503" lon="5.06376">
        <ele>608</ele>
        <time>2020-02-07T11:48:46.000Z</time>
      </trkpt>
      <trkpt lat="44.77503" lon="5.06376">
        <ele>608</ele>
        <time>2020-02-07T11:48:47.000Z</time>
      </trkpt>
      <trkpt lat="44.77504" lon="5.06376">
        <ele>608</ele>
        <time>2020-02-07T11:48:48.000Z</time>
      </trkpt>
      <trkpt lat="44.77504" lon="5.06376">
        <ele>608</ele>
        <time>2020-02-07T11:48:49.000Z</time>
      </trkpt>
      <trkpt lat="44.77504" lon="5.06376">
        <ele>608</ele>
        <time>2020-02-07T11:48:50.000Z</time>
      </trkpt>
      <trkpt lat="44.77504" lon="5.06376">
        <ele>608</ele>
        <time>2020-02-07T11:48:51.000Z</time>
      </trkpt>
      <trkpt lat="44.77504" lon="5.06376">
        <ele>608</ele>
        <time>2020-02-07T11:48:52.000Z</time>
      </trkpt>
      <trkpt lat="44.77504" lon="5.06375">
        <ele>608</ele>
        <time>2020-02-07T11:48:53.000Z</time>
      </trkpt>
      <trkpt lat="44.77504" lon="5.06375">
        <ele>608</ele>
        <time>2020-02-07T11:48:54.000Z</time>
      </trkpt>
      <trkpt lat="44.77504" lon="5.06375">
        <ele>608</ele>
        <time>2020-02-07T11:48:55.000Z</time>
      </trkpt>
      <trkpt lat="44.77504" lon="5.06375">
        <ele>607</ele>
        <time>2020-02-07T11:48:56.000Z</time>
      </trkpt>
      <trkpt lat="44.77504" lon="5.06375">
        <ele>607</ele>
        <time>2020-02-07T11:48:57.000Z</time>
      </trkpt>
      <trkpt lat="44.77504" lon="5.06375">
        <ele>607</ele>
        <time>2020-02-07T11:48:58.000Z</time>
      </trkpt>
      <trkpt lat="44.77504" lon="5.06375">
        <ele>607</ele>
        <time>2020-02-07T11:48:59.000Z</time>
      </trkpt>
      <trkpt lat="44.77504" lon="5.06375">
        <ele>607</ele>
        <time>2020-02-07T11:49:00.000Z</time>
      </trkpt>
      <trkpt lat="44.77505" lon="5.06376">
        <ele>607</ele>
        <time>2020-02-07T11:49:01.000Z</time>
      </trkpt>
      <trkpt lat="44.77505" lon="5.06376">
        <ele>607</ele>
        <time>2020-02-07T11:49:02.000Z</time>
      </trkpt>
      <trkpt lat="44.77505" lon="5.06376">
        <ele>607</ele>
        <time>2020-02-07T11:49:03.000Z</time>
      </trkpt>
      <trkpt lat="44.77505" lon="5.06376">
        <ele>607</ele>
        <time>2020-02-07T11:49:04.000Z</time>
      </trkpt>
      <trkpt lat="44.77505" lon="5.06376">
        <ele>607</ele>
        <time>2020-02-07T11:49:05.000Z</time>
      </trkpt>
      <trkpt lat="44.77505" lon="5.06376">
        <ele>607</ele>
        <time>2020-02-07T11:49:06.000Z</time>
      </trkpt>
      <trkpt lat="44.77505" lon="5.06376">
        <ele>607</ele>
        <time>2020-02-07T11:49:07.000Z</time>
      </trkpt>
      <trkpt lat="44.77505" lon="5.06376">
        <ele>607</ele>
        <time>2020-02-07T11:49:08.000Z</time>
      </trkpt>
      <trkpt lat="44.77505" lon="5.06376">
        <ele>607</ele>
        <time>2020-02-07T11:49:09.000Z</time>
      </trkpt>
      <trkpt lat="44.77505" lon="5.06376">
        <ele>607</ele>
        <time>2020-02-07T11:49:10.000Z</time>
      </trkpt>
      <trkpt lat="44.77505" lon="5.06376">
        <ele>607</ele>
        <time>2020-02-07T11:49:11.000Z</time>
      </trkpt>
      <trkpt lat="44.77505" lon="5.06375">
        <ele>607</ele>
        <time>2020-02-07T11:49:12.000Z</time>
      </trkpt>
      <trkpt lat="44.77504" lon="5.06375">
        <ele>607</ele>
        <time>2020-02-07T11:49:13.000Z</time>
      </trkpt>
      <trkpt lat="44.77504" lon="5.06375">
        <ele>607</ele>
        <time>2020-02-07T11:49:14.000Z</time>
      </trkpt>
      <trkpt lat="44.77504" lon="5.06375">
        <ele>607</ele>
        <time>2020-02-07T11:49:15.000Z</time>
      </trkpt>
      <trkpt lat="44.77504" lon="5.06375">
        <ele>607</ele>
        <time>2020-02-07T11:49:16.000Z</time>
      </trkpt>
      <trkpt lat="44.77504" lon="5.06375">
        <ele>607</ele>
        <time>2020-02-07T11:49:17.000Z</time>
      </trkpt>
      <trkpt lat="44.77504" lon="5.06375">
        <ele>607</ele>
        <time>2020-02-07T11:49:18.000Z</time>
      </trkpt>
      <trkpt lat="44.77504" lon="5.06375">
        <ele>607</ele>
        <time>2020-02-07T11:49:19.000Z</time>
      </trkpt>
      <trkpt lat="44.77504" lon="5.06375">
        <ele>607</ele>
        <time>2020-02-07T11:49:20.000Z</time>
      </trkpt>
      <trkpt lat="44.77505" lon="5.06376">
        <ele>607</ele>
        <time>2020-02-07T11:49:21.000Z</time>
      </trkpt>
      <trkpt lat="44.77505" lon="5.06376">
        <ele>607</ele>
        <time>2020-02-07T11:49:22.000Z</time>
      </trkpt>
      <trkpt lat="44.77505" lon="5.06376">
        <ele>607</ele>
        <time>2020-02-07T11:49:23.000Z</time>
      </trkpt>
      <trkpt lat="44.77505" lon="5.06376">
        <ele>607</ele>
        <time>2020-02-07T11:49:24.000Z</time>
      </trkpt>
      <trkpt lat="44.77505" lon="5.06376">
        <ele>607</ele>
        <time>2020-02-07T11:49:25.000Z</time>
      </trkpt>
      <trkpt lat="44.77505" lon="5.06376">
        <ele>607</ele>
        <time>2020-02-07T11:49:26.000Z</time>
      </trkpt>
      <trkpt lat="44.77505" lon="5.06376">
        <ele>607</ele>
        <time>2020-02-07T11:49:27.000Z</time>
      </trkpt>
      <trkpt lat="44.77505" lon="5.06376">
        <ele>607</ele>
        <time>2020-02-07T11:49:28.000Z</time>
      </trkpt>
      <trkpt lat="44.77505" lon="5.06376">
        <ele>607</ele>
        <time>2020-02-07T11:49:29.000Z</time>
      </trkpt>
      <trkpt lat="44.77505" lon="5.06376">
        <ele>607</ele>
        <time>2020-02-07T11:49:30.000Z</time>
      </trkpt>
      <trkpt lat="44.77505" lon="5.06376">
        <ele>607</ele>
        <time>2020-02-07T11:49:31.000Z</time>
      </trkpt>
      <trkpt lat="44.77506" lon="5.06376">
        <ele>607</ele>
        <time>2020-02-07T11:49:32.000Z</time>
      </trkpt>
      <trkpt lat="44.77505" lon="5.06376">
        <ele>607</ele>
        <time>2020-02-07T11:49:33.000Z</time>
      </trkpt>
      <trkpt lat="44.77506" lon="5.06376">
        <ele>607</ele>
        <time>2020-02-07T11:49:34.000Z</time>
      </trkpt>
      <trkpt lat="44.77506" lon="5.06376">
        <ele>607</ele>
        <time>2020-02-07T11:49:35.000Z</time>
      </trkpt>
      <trkpt lat="44.77506" lon="5.06376">
        <ele>607</ele>
        <time>2020-02-07T11:49:36.000Z</time>
      </trkpt>
      <trkpt lat="44.77506" lon="5.06376">
        <ele>607</ele>
        <time>2020-02-07T11:49:37.000Z</time>
      </trkpt>
      <trkpt lat="44.77506" lon="5.06376">
        <ele>607</ele>
        <time>2020-02-07T11:49:38.000Z</time>
      </trkpt>
      <trkpt lat="44.77506" lon="5.06376">
        <ele>607</ele>
        <time>2020-02-07T11:49:39.000Z</time>
      </trkpt>
      <trkpt lat="44.77506" lon="5.06377">
        <ele>607</ele>
        <time>2020-02-07T11:49:40.000Z</time>
      </trkpt>
      <trkpt lat="44.77506" lon="5.06377">
        <ele>607</ele>
        <time>2020-02-07T11:49:41.000Z</time>
      </trkpt>
      <trkpt lat="44.77506" lon="5.06377">
        <ele>607</ele>
        <time>2020-02-07T11:49:42.000Z</time>
      </trkpt>
      <trkpt lat="44.77506" lon="5.06376">
        <ele>607</ele>
        <time>2020-02-07T11:49:43.000Z</time>
      </trkpt>
      <trkpt lat="44.77505" lon="5.06376">
        <ele>607</ele>
        <time>2020-02-07T11:49:44.000Z</time>
      </trkpt>
      <trkpt lat="44.77505" lon="5.06376">
        <ele>607</ele>
        <time>2020-02-07T11:49:45.000Z</time>
      </trkpt>
      <trkpt lat="44.77506" lon="5.06376">
        <ele>608</ele>
        <time>2020-02-07T11:49:46.000Z</time>
      </trkpt>
      <trkpt lat="44.77506" lon="5.06376">
        <ele>608</ele>
        <time>2020-02-07T11:49:47.000Z</time>
      </trkpt>
      <trkpt lat="44.77506" lon="5.06376">
        <ele>608</ele>
        <time>2020-02-07T11:49:48.000Z</time>
      </trkpt>
      <trkpt lat="44.77506" lon="5.06376">
        <ele>608</ele>
        <time>2020-02-07T11:49:49.000Z</time>
      </trkpt>
      <trkpt lat="44.77505" lon="5.06376">
        <ele>608</ele>
        <time>2020-02-07T11:49:50.000Z</time>
      </trkpt>
      <trkpt lat="44.77506" lon="5.06377">
        <ele>608</ele>
        <time>2020-02-07T11:49:51.000Z</time>
      </trkpt>
      <trkpt lat="44.77506" lon="5.06377">
        <ele>608</ele>
        <time>2020-02-07T11:49:52.000Z</time>
      </trkpt>
      <trkpt lat="44.77506" lon="5.06377">
        <ele>608</ele>
        <time>2020-02-07T11:49:53.000Z</time>
      </trkpt>
      <trkpt lat="44.77506" lon="5.06377">
        <ele>608</ele>
        <time>2020-02-07T11:49:54.000Z</time>
      </trkpt>
      <trkpt lat="44.77506" lon="5.06377">
        <ele>608</ele>
        <time>2020-02-07T11:49:55.000Z</time>
      </trkpt>
      <trkpt lat="44.77506" lon="5.06377">
        <ele>608</ele>
        <time>2020-02-07T11:49:56.000Z</time>
      </trkpt>
      <trkpt lat="44.77506" lon="5.06377">
        <ele>608</ele>
        <time>2020-02-07T11:49:57.000Z</time>
      </trkpt>
      <trkpt lat="44.77506" lon="5.06377">
        <ele>608</ele>
        <time>2020-02-07T11:49:58.000Z</time>
      </trkpt>
      <trkpt lat="44.77506" lon="5.06377">
        <ele>608</ele>
        <time>2020-02-07T11:49:59.000Z</time>
      </trkpt>
      <trkpt lat="44.77506" lon="5.06377">
        <ele>608</ele>
        <time>2020-02-07T11:50:00.000Z</time>
      </trkpt>
      <trkpt lat="44.77506" lon="5.06377">
        <ele>608</ele>
        <time>2020-02-07T11:50:01.000Z</time>
      </trkpt>
      <trkpt lat="44.77506" lon="5.06377">
        <ele>608</ele>
        <time>2020-02-07T11:50:02.000Z</time>
      </trkpt>
      <trkpt lat="44.77506" lon="5.06377">
        <ele>608</ele>
        <time>2020-02-07T11:50:03.000Z</time>
      </trkpt>
      <trkpt lat="44.77506" lon="5.06377">
        <ele>608</ele>
        <time>2020-02-07T11:50:04.000Z</time>
      </trkpt>
      <trkpt lat="44.77506" lon="5.06377">
        <ele>608</ele>
        <time>2020-02-07T11:50:05.000Z</time>
      </trkpt>
      <trkpt lat="44.77506" lon="5.06377">
        <ele>608</ele>
        <time>2020-02-07T11:50:06.000Z</time>
      </trkpt>
      <trkpt lat="44.77505" lon="5.06377">
        <ele>608</ele>
        <time>2020-02-07T11:50:07.000Z</time>
      </trkpt>
      <trkpt lat="44.77505" lon="5.06377">
        <ele>608</ele>
        <time>2020-02-07T11:50:08.000Z</time>
      </trkpt>
      <trkpt lat="44.77505" lon="5.06377">
        <ele>609</ele>
        <time>2020-02-07T11:50:09.000Z</time>
      </trkpt>
      <trkpt lat="44.77505" lon="5.06377">
        <ele>609</ele>
        <time>2020-02-07T11:50:10.000Z</time>
      </trkpt>
      <trkpt lat="44.77505" lon="5.06377">
        <ele>609</ele>
        <time>2020-02-07T11:50:11.000Z</time>
      </trkpt>
      <trkpt lat="44.77505" lon="5.06377">
        <ele>609</ele>
        <time>2020-02-07T11:50:12.000Z</time>
      </trkpt>
      <trkpt lat="44.77505" lon="5.06377">
        <ele>609</ele>
        <time>2020-02-07T11:50:13.000Z</time>
      </trkpt>
      <trkpt lat="44.77505" lon="5.06377">
        <ele>609</ele>
        <time>2020-02-07T11:50:14.000Z</time>
      </trkpt>
      <trkpt lat="44.77505" lon="5.06377">
        <ele>609</ele>
        <time>2020-02-07T11:50:15.000Z</time>
      </trkpt>
      <trkpt lat="44.77505" lon="5.06377">
        <ele>609</ele>
        <time>2020-02-07T11:50:16.000Z</time>
      </trkpt>
      <trkpt lat="44.77505" lon="5.06377">
        <ele>609</ele>
        <time>2020-02-07T11:50:17.000Z</time>
      </trkpt>
      <trkpt lat="44.77505" lon="5.06377">
        <ele>609</ele>
        <time>2020-02-07T11:50:18.000Z</time>
      </trkpt>
      <trkpt lat="44.77505" lon="5.06377">
        <ele>609</ele>
        <time>2020-02-07T11:50:19.000Z</time>
      </trkpt>
      <trkpt lat="44.77505" lon="5.06377">
        <ele>609</ele>
        <time>2020-02-07T11:50:20.000Z</time>
      </trkpt>
      <trkpt lat="44.77505" lon="5.06377">
        <ele>609</ele>
        <time>2020-02-07T11:50:21.000Z</time>
      </trkpt>
      <trkpt lat="44.77505" lon="5.06377">
        <ele>609</ele>
        <time>2020-02-07T11:50:22.000Z</time>
      </trkpt>
      <trkpt lat="44.77505" lon="5.06377">
        <ele>609</ele>
        <time>2020-02-07T11:50:23.000Z</time>
      </trkpt>
      <trkpt lat="44.77505" lon="5.06377">
        <ele>609</ele>
        <time>2020-02-07T11:50:24.000Z</time>
      </trkpt>
      <trkpt lat="44.77505" lon="5.06377">
        <ele>609</ele>
        <time>2020-02-07T11:50:25.000Z</time>
      </trkpt>
      <trkpt lat="44.77505" lon="5.06377">
        <ele>609</ele>
        <time>2020-02-07T11:50:26.000Z</time>
      </trkpt>
      <trkpt lat="44.77505" lon="5.06377">
        <ele>609</ele>
        <time>2020-02-07T11:50:27.000Z</time>
      </trkpt>
      <trkpt lat="44.77505" lon="5.06377">
        <ele>609</ele>
        <time>2020-02-07T11:50:28.000Z</time>
      </trkpt>
      <trkpt lat="44.77506" lon="5.06377">
        <ele>609</ele>
        <time>2020-02-07T11:50:29.000Z</time>
      </trkpt>
      <trkpt lat="44.77506" lon="5.06377">
        <ele>609</ele>
        <time>2020-02-07T11:50:30.000Z</time>
      </trkpt>
      <trkpt lat="44.77506" lon="5.06377">
        <ele>609</ele>
        <time>2020-02-07T11:50:31.000Z</time>
      </trkpt>
      <trkpt lat="44.77506" lon="5.06377">
        <ele>609</ele>
        <time>2020-02-07T11:50:32.000Z</time>
      </trkpt>
      <trkpt lat="44.77505" lon="5.06377">
        <ele>609</ele>
        <time>2020-02-07T11:50:33.000Z</time>
      </trkpt>
      <trkpt lat="44.77506" lon="5.06377">
        <ele>609</ele>
        <time>2020-02-07T11:50:34.000Z</time>
      </trkpt>
      <trkpt lat="44.77506" lon="5.06377">
        <ele>609</ele>
        <time>2020-02-07T11:50:35.000Z</time>
      </trkpt>
      <trkpt lat="44.77505" lon="5.06377">
        <ele>609</ele>
        <time>2020-02-07T11:50:36.000Z</time>
      </trkpt>
      <trkpt lat="44.77505" lon="5.06377">
        <ele>609</ele>
        <time>2020-02-07T11:50:37.000Z</time>
      </trkpt>
      <trkpt lat="44.77505" lon="5.06377">
        <ele>609</ele>
        <time>2020-02-07T11:50:38.000Z</time>
      </trkpt>
      <trkpt lat="44.77505" lon="5.06377">
        <ele>609</ele>
        <time>2020-02-07T11:50:39.000Z</time>
      </trkpt>
      <trkpt lat="44.77505" lon="5.06377">
        <ele>608</ele>
        <time>2020-02-07T11:50:40.000Z</time>
      </trkpt>
      <trkpt lat="44.77505" lon="5.06377">
        <ele>608</ele>
        <time>2020-02-07T11:50:41.000Z</time>
      </trkpt>
      <trkpt lat="44.77505" lon="5.06377">
        <ele>608</ele>
        <time>2020-02-07T11:50:42.000Z</time>
      </trkpt>
      <trkpt lat="44.77505" lon="5.06377">
        <ele>608</ele>
        <time>2020-02-07T11:50:43.000Z</time>
      </trkpt>
      <trkpt lat="44.77506" lon="5.06376">
        <ele>608</ele>
        <time>2020-02-07T11:50:44.000Z</time>
      </trkpt>
      <trkpt lat="44.77506" lon="5.06376">
        <ele>608</ele>
        <time>2020-02-07T11:50:45.000Z</time>
      </trkpt>
      <trkpt lat="44.77506" lon="5.06376">
        <ele>608</ele>
        <time>2020-02-07T11:50:46.000Z</time>
      </trkpt>
      <trkpt lat="44.77506" lon="5.06376">
        <ele>608</ele>
        <time>2020-02-07T11:50:47.000Z</time>
      </trkpt>
      <trkpt lat="44.77506" lon="5.06376">
        <ele>608</ele>
        <time>2020-02-07T11:50:48.000Z</time>
      </trkpt>
      <trkpt lat="44.77506" lon="5.06376">
        <ele>608</ele>
        <time>2020-02-07T11:50:49.000Z</time>
      </trkpt>
      <trkpt lat="44.77506" lon="5.06376">
        <ele>608</ele>
        <time>2020-02-07T11:50:50.000Z</time>
      </trkpt>
      <trkpt lat="44.77506" lon="5.06376">
        <ele>608</ele>
        <time>2020-02-07T11:50:51.000Z</time>
      </trkpt>
      <trkpt lat="44.77506" lon="5.06376">
        <ele>608</ele>
        <time>2020-02-07T11:50:52.000Z</time>
      </trkpt>
      <trkpt lat="44.77506" lon="5.06376">
        <ele>608</ele>
        <time>2020-02-07T11:50:53.000Z</time>
      </trkpt>
      <trkpt lat="44.77506" lon="5.06376">
        <ele>608</ele>
        <time>2020-02-07T11:50:54.000Z</time>
      </trkpt>
      <trkpt lat="44.77506" lon="5.06376">
        <ele>608</ele>
        <time>2020-02-07T11:50:55.000Z</time>
      </trkpt>
      <trkpt lat="44.77506" lon="5.06376">
        <ele>608</ele>
        <time>2020-02-07T11:50:56.000Z</time>
      </trkpt>
      <trkpt lat="44.77506" lon="5.06376">
        <ele>608</ele>
        <time>2020-02-07T11:50:57.000Z</time>
      </trkpt>
      <trkpt lat="44.77506" lon="5.06376">
        <ele>608</ele>
        <time>2020-02-07T11:50:58.000Z</time>
      </trkpt>
      <trkpt lat="44.77506" lon="5.06376">
        <ele>608</ele>
        <time>2020-02-07T11:50:59.000Z</time>
      </trkpt>
      <trkpt lat="44.77506" lon="5.06376">
        <ele>608</ele>
        <time>2020-02-07T11:51:00.000Z</time>
      </trkpt>
      <trkpt lat="44.77506" lon="5.06376">
        <ele>608</ele>
        <time>2020-02-07T11:51:01.000Z</time>
      </trkpt>
      <trkpt lat="44.77506" lon="5.06376">
        <ele>608</ele>
        <time>2020-02-07T11:51:02.000Z</time>
      </trkpt>
      <trkpt lat="44.77506" lon="5.06376">
        <ele>608</ele>
        <time>2020-02-07T11:51:03.000Z</time>
      </trkpt>
      <trkpt lat="44.77506" lon="5.06376">
        <ele>608</ele>
        <time>2020-02-07T11:51:04.000Z</time>
      </trkpt>
      <trkpt lat="44.77506" lon="5.06376">
        <ele>608</ele>
        <time>2020-02-07T11:51:05.000Z</time>
      </trkpt>
      <trkpt lat="44.77506" lon="5.06376">
        <ele>608</ele>
        <time>2020-02-07T11:51:06.000Z</time>
      </trkpt>
      <trkpt lat="44.77506" lon="5.06376">
        <ele>608</ele>
        <time>2020-02-07T11:51:07.000Z</time>
      </trkpt>
      <trkpt lat="44.77506" lon="5.06376">
        <ele>608</ele>
        <time>2020-02-07T11:51:08.000Z</time>
      </trkpt>
      <trkpt lat="44.77506" lon="5.06376">
        <ele>608</ele>
        <time>2020-02-07T11:51:09.000Z</time>
      </trkpt>
      <trkpt lat="44.77506" lon="5.06376">
        <ele>608</ele>
        <time>2020-02-07T11:51:10.000Z</time>
      </trkpt>
      <trkpt lat="44.77506" lon="5.06376">
        <ele>608</ele>
        <time>2020-02-07T11:51:11.000Z</time>
      </trkpt>
      <trkpt lat="44.77506" lon="5.06376">
        <ele>608</ele>
        <time>2020-02-07T11:51:12.000Z</time>
      </trkpt>
      <trkpt lat="44.77506" lon="5.06376">
        <ele>608</ele>
        <time>2020-02-07T11:51:13.000Z</time>
      </trkpt>
      <trkpt lat="44.77506" lon="5.06376">
        <ele>608</ele>
        <time>2020-02-07T11:51:14.000Z</time>
      </trkpt>
      <trkpt lat="44.77506" lon="5.06376">
        <ele>608</ele>
        <time>2020-02-07T11:51:15.000Z</time>
      </trkpt>
      <trkpt lat="44.77506" lon="5.06376">
        <ele>608</ele>
        <time>2020-02-07T11:51:16.000Z</time>
      </trkpt>
      <trkpt lat="44.77506" lon="5.06376">
        <ele>608</ele>
        <time>2020-02-07T11:51:17.000Z</time>
      </trkpt>
      <trkpt lat="44.77506" lon="5.06376">
        <ele>608</ele>
        <time>2020-02-07T11:51:18.000Z</time>
      </trkpt>
      <trkpt lat="44.77506" lon="5.06376">
        <ele>608</ele>
        <time>2020-02-07T11:51:19.000Z</time>
      </trkpt>
      <trkpt lat="44.77506" lon="5.06376">
        <ele>608</ele>
        <time>2020-02-07T11:51:20.000Z</time>
      </trkpt>
      <trkpt lat="44.77506" lon="5.06376">
        <ele>608</ele>
        <time>2020-02-07T11:51:21.000Z</time>
      </trkpt>
      <trkpt lat="44.77506" lon="5.06376">
        <ele>608</ele>
        <time>2020-02-07T11:51:22.000Z</time>
      </trkpt>
      <trkpt lat="44.77506" lon="5.06376">
        <ele>608</ele>
        <time>2020-02-07T11:51:23.000Z</time>
      </trkpt>
      <trkpt lat="44.77506" lon="5.06377">
        <ele>608</ele>
        <time>2020-02-07T11:51:24.000Z</time>
      </trkpt>
      <trkpt lat="44.77506" lon="5.06377">
        <ele>608</ele>
        <time>2020-02-07T11:51:25.000Z</time>
      </trkpt>
      <trkpt lat="44.77507" lon="5.06377">
        <ele>608</ele>
        <time>2020-02-07T11:51:26.000Z</time>
      </trkpt>
      <trkpt lat="44.77507" lon="5.06377">
        <ele>608</ele>
        <time>2020-02-07T11:51:27.000Z</time>
      </trkpt>
      <trkpt lat="44.77507" lon="5.06377">
        <ele>608</ele>
        <time>2020-02-07T11:51:28.000Z</time>
      </trkpt>
      <trkpt lat="44.77507" lon="5.06377">
        <ele>608</ele>
        <time>2020-02-07T11:51:29.000Z</time>
      </trkpt>
      <trkpt lat="44.77507" lon="5.06377">
        <ele>608</ele>
        <time>2020-02-07T11:51:30.000Z</time>
      </trkpt>
      <trkpt lat="44.77507" lon="5.06377">
        <ele>608</ele>
        <time>2020-02-07T11:51:31.000Z</time>
      </trkpt>
      <trkpt lat="44.77507" lon="5.06377">
        <ele>608</ele>
        <time>2020-02-07T11:51:32.000Z</time>
      </trkpt>
      <trkpt lat="44.77507" lon="5.06378">
        <ele>608</ele>
        <time>2020-02-07T11:51:33.000Z</time>
      </trkpt>
      <trkpt lat="44.77507" lon="5.06378">
        <ele>608</ele>
        <time>2020-02-07T11:51:34.000Z</time>
      </trkpt>
      <trkpt lat="44.77507" lon="5.06378">
        <ele>608</ele>
        <time>2020-02-07T11:51:35.000Z</time>
      </trkpt>
      <trkpt lat="44.77507" lon="5.06378">
        <ele>608</ele>
        <time>2020-02-07T11:51:36.000Z</time>
      </trkpt>
      <trkpt lat="44.77507" lon="5.06378">
        <ele>608</ele>
        <time>2020-02-07T11:51:37.000Z</time>
      </trkpt>
      <trkpt lat="44.77507" lon="5.06378">
        <ele>608</ele>
        <time>2020-02-07T11:51:38.000Z</time>
      </trkpt>
      <trkpt lat="44.77507" lon="5.06378">
        <ele>608</ele>
        <time>2020-02-07T11:51:39.000Z</time>
      </trkpt>
      <trkpt lat="44.77507" lon="5.06378">
        <ele>608</ele>
        <time>2020-02-07T11:51:40.000Z</time>
      </trkpt>
      <trkpt lat="44.77507" lon="5.06378">
        <ele>608</ele>
        <time>2020-02-07T11:51:41.000Z</time>
      </trkpt>
      <trkpt lat="44.77507" lon="5.06378">
        <ele>608</ele>
        <time>2020-02-07T11:51:42.000Z</time>
      </trkpt>
      <trkpt lat="44.77507" lon="5.06378">
        <ele>608</ele>
        <time>2020-02-07T11:51:43.000Z</time>
      </trkpt>
      <trkpt lat="44.77507" lon="5.06378">
        <ele>608</ele>
        <time>2020-02-07T11:51:44.000Z</time>
      </trkpt>
      <trkpt lat="44.77507" lon="5.06378">
        <ele>608</ele>
        <time>2020-02-07T11:51:45.000Z</time>
      </trkpt>
      <trkpt lat="44.77507" lon="5.06378">
        <ele>608</ele>
        <time>2020-02-07T11:51:46.000Z</time>
      </trkpt>
      <trkpt lat="44.77507" lon="5.06378">
        <ele>608</ele>
        <time>2020-02-07T11:51:47.000Z</time>
      </trkpt>
      <trkpt lat="44.77507" lon="5.06379">
        <ele>608</ele>
        <time>2020-02-07T11:51:48.000Z</time>
      </trkpt>
      <trkpt lat="44.77507" lon="5.06379">
        <ele>608</ele>
        <time>2020-02-07T11:51:49.000Z</time>
      </trkpt>
      <trkpt lat="44.77507" lon="5.06379">
        <ele>608</ele>
        <time>2020-02-07T11:51:50.000Z</time>
      </trkpt>
      <trkpt lat="44.77507" lon="5.06379">
        <ele>608</ele>
        <time>2020-02-07T11:51:51.000Z</time>
      </trkpt>
      <trkpt lat="44.77507" lon="5.06379">
        <ele>608</ele>
        <time>2020-02-07T11:51:52.000Z</time>
      </trkpt>
      <trkpt lat="44.77507" lon="5.06379">
        <ele>608</ele>
        <time>2020-02-07T11:51:53.000Z</time>
      </trkpt>
      <trkpt lat="44.77507" lon="5.06379">
        <ele>608</ele>
        <time>2020-02-07T11:51:54.000Z</time>
      </trkpt>
      <trkpt lat="44.77507" lon="5.06379">
        <ele>608</ele>
        <time>2020-02-07T11:51:55.000Z</time>
      </trkpt>
      <trkpt lat="44.77507" lon="5.06379">
        <ele>608</ele>
        <time>2020-02-07T11:51:56.000Z</time>
      </trkpt>
      <trkpt lat="44.77508" lon="5.06379">
        <ele>608</ele>
        <time>2020-02-07T11:51:57.000Z</time>
      </trkpt>
      <trkpt lat="44.77507" lon="5.06379">
        <ele>608</ele>
        <time>2020-02-07T11:51:58.000Z</time>
      </trkpt>
      <trkpt lat="44.77507" lon="5.06379">
        <ele>608</ele>
        <time>2020-02-07T11:51:59.000Z</time>
      </trkpt>
      <trkpt lat="44.77507" lon="5.06379">
        <ele>608</ele>
        <time>2020-02-07T11:52:00.000Z</time>
      </trkpt>
      <trkpt lat="44.77507" lon="5.06379">
        <ele>608</ele>
        <time>2020-02-07T11:52:01.000Z</time>
      </trkpt>
      <trkpt lat="44.77507" lon="5.0638">
        <ele>608</ele>
        <time>2020-02-07T11:52:02.000Z</time>
      </trkpt>
      <trkpt lat="44.77507" lon="5.0638">
        <ele>608</ele>
        <time>2020-02-07T11:52:03.000Z</time>
      </trkpt>
      <trkpt lat="44.77508" lon="5.0638">
        <ele>608</ele>
        <time>2020-02-07T11:52:04.000Z</time>
      </trkpt>
      <trkpt lat="44.77508" lon="5.0638">
        <ele>608</ele>
        <time>2020-02-07T11:52:05.000Z</time>
      </trkpt>
      <trkpt lat="44.77508" lon="5.0638">
        <ele>608</ele>
        <time>2020-02-07T11:52:06.000Z</time>
      </trkpt>
      <trkpt lat="44.77508" lon="5.0638">
        <ele>608</ele>
        <time>2020-02-07T11:52:07.000Z</time>
      </trkpt>
      <trkpt lat="44.77508" lon="5.0638">
        <ele>608</ele>
        <time>2020-02-07T11:52:08.000Z</time>
      </trkpt>
      <trkpt lat="44.77508" lon="5.06379">
        <ele>608</ele>
        <time>2020-02-07T11:52:09.000Z</time>
      </trkpt>
      <trkpt lat="44.77508" lon="5.06379">
        <ele>608</ele>
        <time>2020-02-07T11:52:10.000Z</time>
      </trkpt>
      <trkpt lat="44.77508" lon="5.0638">
        <ele>608</ele>
        <time>2020-02-07T11:52:11.000Z</time>
      </trkpt>
      <trkpt lat="44.77508" lon="5.0638">
        <ele>608</ele>
        <time>2020-02-07T11:52:12.000Z</time>
      </trkpt>
      <trkpt lat="44.77508" lon="5.0638">
        <ele>608</ele>
        <time>2020-02-07T11:52:13.000Z</time>
      </trkpt>
      <trkpt lat="44.77508" lon="5.0638">
        <ele>608</ele>
        <time>2020-02-07T11:52:14.000Z</time>
      </trkpt>
      <trkpt lat="44.77508" lon="5.0638">
        <ele>608</ele>
        <time>2020-02-07T11:52:15.000Z</time>
      </trkpt>
      <trkpt lat="44.77508" lon="5.0638">
        <ele>608</ele>
        <time>2020-02-07T11:52:16.000Z</time>
      </trkpt>
      <trkpt lat="44.77508" lon="5.0638">
        <ele>608</ele>
        <time>2020-02-07T11:52:17.000Z</time>
      </trkpt>
      <trkpt lat="44.77508" lon="5.0638">
        <ele>608</ele>
        <time>2020-02-07T11:52:18.000Z</time>
      </trkpt>
      <trkpt lat="44.77508" lon="5.0638">
        <ele>608</ele>
        <time>2020-02-07T11:52:19.000Z</time>
      </trkpt>
      <trkpt lat="44.77508" lon="5.0638">
        <ele>608</ele>
        <time>2020-02-07T11:52:20.000Z</time>
      </trkpt>
      <trkpt lat="44.77508" lon="5.0638">
        <ele>608</ele>
        <time>2020-02-07T11:52:21.000Z</time>
      </trkpt>
      <trkpt lat="44.77508" lon="5.0638">
        <ele>608</ele>
        <time>2020-02-07T11:52:22.000Z</time>
      </trkpt>
      <trkpt lat="44.77508" lon="5.0638">
        <ele>608</ele>
        <time>2020-02-07T11:52:23.000Z</time>
      </trkpt>
      <trkpt lat="44.77508" lon="5.0638">
        <ele>608</ele>
        <time>2020-02-07T11:52:24.000Z</time>
      </trkpt>
      <trkpt lat="44.77508" lon="5.0638">
        <ele>608</ele>
        <time>2020-02-07T11:52:25.000Z</time>
      </trkpt>
      <trkpt lat="44.77508" lon="5.06381">
        <ele>608</ele>
        <time>2020-02-07T11:52:26.000Z</time>
      </trkpt>
      <trkpt lat="44.77508" lon="5.06381">
        <ele>608</ele>
        <time>2020-02-07T11:52:27.000Z</time>
      </trkpt>
      <trkpt lat="44.77508" lon="5.06381">
        <ele>608</ele>
        <time>2020-02-07T11:52:28.000Z</time>
      </trkpt>
      <trkpt lat="44.77508" lon="5.06381">
        <ele>608</ele>
        <time>2020-02-07T11:52:29.000Z</time>
      </trkpt>
      <trkpt lat="44.77508" lon="5.06381">
        <ele>608</ele>
        <time>2020-02-07T11:52:30.000Z</time>
      </trkpt>
      <trkpt lat="44.77508" lon="5.06381">
        <ele>608</ele>
        <time>2020-02-07T11:52:31.000Z</time>
      </trkpt>
      <trkpt lat="44.77508" lon="5.06381">
        <ele>608</ele>
        <time>2020-02-07T11:52:32.000Z</time>
      </trkpt>
      <trkpt lat="44.77508" lon="5.0638">
        <ele>608</ele>
        <time>2020-02-07T11:52:33.000Z</time>
      </trkpt>
      <trkpt lat="44.77508" lon="5.0638">
        <ele>608</ele>
        <time>2020-02-07T11:52:34.000Z</time>
      </trkpt>
      <trkpt lat="44.77508" lon="5.0638">
        <ele>608</ele>
        <time>2020-02-07T11:52:35.000Z</time>
      </trkpt>
      <trkpt lat="44.77508" lon="5.0638">
        <ele>608</ele>
        <time>2020-02-07T11:52:36.000Z</time>
      </trkpt>
      <trkpt lat="44.77508" lon="5.0638">
        <ele>608</ele>
        <time>2020-02-07T11:52:37.000Z</time>
      </trkpt>
      <trkpt lat="44.77508" lon="5.0638">
        <ele>608</ele>
        <time>2020-02-07T11:52:38.000Z</time>
      </trkpt>
      <trkpt lat="44.77508" lon="5.0638">
        <ele>608</ele>
        <time>2020-02-07T11:52:39.000Z</time>
      </trkpt>
      <trkpt lat="44.77508" lon="5.0638">
        <ele>608</ele>
        <time>2020-02-07T11:52:40.000Z</time>
      </trkpt>
      <trkpt lat="44.77508" lon="5.0638">
        <ele>608</ele>
        <time>2020-02-07T11:52:41.000Z</time>
      </trkpt>
      <trkpt lat="44.77508" lon="5.0638">
        <ele>608</ele>
        <time>2020-02-07T11:52:42.000Z</time>
      </trkpt>
      <trkpt lat="44.77508" lon="5.0638">
        <ele>608</ele>
        <time>2020-02-07T11:52:43.000Z</time>
      </trkpt>
      <trkpt lat="44.77508" lon="5.0638">
        <ele>609</ele>
        <time>2020-02-07T11:52:44.000Z</time>
      </trkpt>
      <trkpt lat="44.77508" lon="5.0638">
        <ele>609</ele>
        <time>2020-02-07T11:52:45.000Z</time>
      </trkpt>
      <trkpt lat="44.77508" lon="5.0638">
        <ele>609</ele>
        <time>2020-02-07T11:52:46.000Z</time>
      </trkpt>
      <trkpt lat="44.77508" lon="5.0638">
        <ele>609</ele>
        <time>2020-02-07T11:52:47.000Z</time>
      </trkpt>
      <trkpt lat="44.77508" lon="5.0638">
        <ele>609</ele>
        <time>2020-02-07T11:52:48.000Z</time>
      </trkpt>
      <trkpt lat="44.77508" lon="5.0638">
        <ele>609</ele>
        <time>2020-02-07T11:52:49.000Z</time>
      </trkpt>
      <trkpt lat="44.77508" lon="5.0638">
        <ele>609</ele>
        <time>2020-02-07T11:52:50.000Z</time>
      </trkpt>
      <trkpt lat="44.77508" lon="5.0638">
        <ele>609</ele>
        <time>2020-02-07T11:52:51.000Z</time>
      </trkpt>
      <trkpt lat="44.77508" lon="5.0638">
        <ele>609</ele>
        <time>2020-02-07T11:52:52.000Z</time>
      </trkpt>
      <trkpt lat="44.77508" lon="5.0638">
        <ele>609</ele>
        <time>2020-02-07T11:52:53.000Z</time>
      </trkpt>
      <trkpt lat="44.77508" lon="5.0638">
        <ele>609</ele>
        <time>2020-02-07T11:52:54.000Z</time>
      </trkpt>
      <trkpt lat="44.77508" lon="5.0638">
        <ele>609</ele>
        <time>2020-02-07T11:52:55.000Z</time>
      </trkpt>
      <trkpt lat="44.77508" lon="5.0638">
        <ele>609</ele>
        <time>2020-02-07T11:52:56.000Z</time>
      </trkpt>
      <trkpt lat="44.77508" lon="5.0638">
        <ele>609</ele>
        <time>2020-02-07T11:52:57.000Z</time>
      </trkpt>
      <trkpt lat="44.77508" lon="5.0638">
        <ele>609</ele>
        <time>2020-02-07T11:52:58.000Z</time>
      </trkpt>
      <trkpt lat="44.77508" lon="5.0638">
        <ele>609</ele>
        <time>2020-02-07T11:52:59.000Z</time>
      </trkpt>
      <trkpt lat="44.77508" lon="5.0638">
        <ele>609</ele>
        <time>2020-02-07T11:53:00.000Z</time>
      </trkpt>
      <trkpt lat="44.77508" lon="5.0638">
        <ele>609</ele>
        <time>2020-02-07T11:53:01.000Z</time>
      </trkpt>
      <trkpt lat="44.77508" lon="5.0638">
        <ele>609</ele>
        <time>2020-02-07T11:53:02.000Z</time>
      </trkpt>
      <trkpt lat="44.77508" lon="5.0638">
        <ele>609</ele>
        <time>2020-02-07T11:53:03.000Z</time>
      </trkpt>
      <trkpt lat="44.77508" lon="5.0638">
        <ele>609</ele>
        <time>2020-02-07T11:53:04.000Z</time>
      </trkpt>
      <trkpt lat="44.77508" lon="5.0638">
        <ele>609</ele>
        <time>2020-02-07T11:53:05.000Z</time>
      </trkpt>
      <trkpt lat="44.77508" lon="5.0638">
        <ele>609</ele>
        <time>2020-02-07T11:53:06.000Z</time>
      </trkpt>
      <trkpt lat="44.77508" lon="5.0638">
        <ele>609</ele>
        <time>2020-02-07T11:53:07.000Z</time>
      </trkpt>
      <trkpt lat="44.77508" lon="5.0638">
        <ele>609</ele>
        <time>2020-02-07T11:53:08.000Z</time>
      </trkpt>
      <trkpt lat="44.77508" lon="5.0638">
        <ele>609</ele>
        <time>2020-02-07T11:53:09.000Z</time>
      </trkpt>
      <trkpt lat="44.77508" lon="5.0638">
        <ele>609</ele>
        <time>2020-02-07T11:53:10.000Z</time>
      </trkpt>
      <trkpt lat="44.77508" lon="5.0638">
        <ele>609</ele>
        <time>2020-02-07T11:53:11.000Z</time>
      </trkpt>
      <trkpt lat="44.77508" lon="5.0638">
        <ele>609</ele>
        <time>2020-02-07T11:53:12.000Z</time>
      </trkpt>
      <trkpt lat="44.77508" lon="5.0638">
        <ele>609</ele>
        <time>2020-02-07T11:53:13.000Z</time>
      </trkpt>
      <trkpt lat="44.77508" lon="5.0638">
        <ele>609</ele>
        <time>2020-02-07T11:53:14.000Z</time>
      </trkpt>
      <trkpt lat="44.77508" lon="5.0638">
        <ele>609</ele>
        <time>2020-02-07T11:53:15.000Z</time>
      </trkpt>
      <trkpt lat="44.77508" lon="5.0638">
        <ele>609</ele>
        <time>2020-02-07T11:53:16.000Z</time>
      </trkpt>
      <trkpt lat="44.77508" lon="5.0638">
        <ele>609</ele>
        <time>2020-02-07T11:53:17.000Z</time>
      </trkpt>
      <trkpt lat="44.77508" lon="5.0638">
        <ele>609</ele>
        <time>2020-02-07T11:53:18.000Z</time>
      </trkpt>
      <trkpt lat="44.77508" lon="5.0638">
        <ele>609</ele>
        <time>2020-02-07T11:53:19.000Z</time>
      </trkpt>
      <trkpt lat="44.77508" lon="5.0638">
        <ele>609</ele>
        <time>2020-02-07T11:53:20.000Z</time>
      </trkpt>
      <trkpt lat="44.77508" lon="5.0638">
        <ele>609</ele>
        <time>2020-02-07T11:53:21.000Z</time>
      </trkpt>
      <trkpt lat="44.77508" lon="5.0638">
        <ele>609</ele>
        <time>2020-02-07T11:53:22.000Z</time>
      </trkpt>
      <trkpt lat="44.77508" lon="5.0638">
        <ele>609</ele>
        <time>2020-02-07T11:53:23.000Z</time>
      </trkpt>
      <trkpt lat="44.77508" lon="5.0638">
        <ele>609</ele>
        <time>2020-02-07T11:53:24.000Z</time>
      </trkpt>
      <trkpt lat="44.77508" lon="5.0638">
        <ele>609</ele>
        <time>2020-02-07T11:53:25.000Z</time>
      </trkpt>
      <trkpt lat="44.77508" lon="5.0638">
        <ele>609</ele>
        <time>2020-02-07T11:53:26.000Z</time>
      </trkpt>
      <trkpt lat="44.77508" lon="5.0638">
        <ele>609</ele>
        <time>2020-02-07T11:53:27.000Z</time>
      </trkpt>
      <trkpt lat="44.77508" lon="5.0638">
        <ele>609</ele>
        <time>2020-02-07T11:53:28.000Z</time>
      </trkpt>
      <trkpt lat="44.77508" lon="5.0638">
        <ele>609</ele>
        <time>2020-02-07T11:53:29.000Z</time>
      </trkpt>
      <trkpt lat="44.77508" lon="5.0638">
        <ele>609</ele>
        <time>2020-02-07T11:53:30.000Z</time>
      </trkpt>
      <trkpt lat="44.77508" lon="5.0638">
        <ele>609</ele>
        <time>2020-02-07T11:53:31.000Z</time>
      </trkpt>
      <trkpt lat="44.77508" lon="5.0638">
        <ele>609</ele>
        <time>2020-02-07T11:53:32.000Z</time>
      </trkpt>
      <trkpt lat="44.77508" lon="5.0638">
        <ele>609</ele>
        <time>2020-02-07T11:53:33.000Z</time>
      </trkpt>
      <trkpt lat="44.77508" lon="5.0638">
        <ele>609</ele>
        <time>2020-02-07T11:53:34.000Z</time>
      </trkpt>
      <trkpt lat="44.77508" lon="5.0638">
        <ele>609</ele>
        <time>2020-02-07T11:53:35.000Z</time>
      </trkpt>
      <trkpt lat="44.77508" lon="5.0638">
        <ele>609</ele>
        <time>2020-02-07T11:53:36.000Z</time>
      </trkpt>
      <trkpt lat="44.77508" lon="5.0638">
        <ele>609</ele>
        <time>2020-02-07T11:53:37.000Z</time>
      </trkpt>
      <trkpt lat="44.77508" lon="5.0638">
        <ele>609</ele>
        <time>2020-02-07T11:53:38.000Z</time>
      </trkpt>
      <trkpt lat="44.77508" lon="5.0638">
        <ele>609</ele>
        <time>2020-02-07T11:53:39.000Z</time>
      </trkpt>
      <trkpt lat="44.77508" lon="5.0638">
        <ele>609</ele>
        <time>2020-02-07T11:53:40.000Z</time>
      </trkpt>
      <trkpt lat="44.77508" lon="5.0638">
        <ele>609</ele>
        <time>2020-02-07T11:53:41.000Z</time>
      </trkpt>
      <trkpt lat="44.77508" lon="5.0638">
        <ele>609</ele>
        <time>2020-02-07T11:53:42.000Z</time>
      </trkpt>
      <trkpt lat="44.77508" lon="5.0638">
        <ele>609</ele>
        <time>2020-02-07T11:53:43.000Z</time>
      </trkpt>
      <trkpt lat="44.77508" lon="5.0638">
        <ele>609</ele>
        <time>2020-02-07T11:53:44.000Z</time>
      </trkpt>
      <trkpt lat="44.77508" lon="5.0638">
        <ele>609</ele>
        <time>2020-02-07T11:53:45.000Z</time>
      </trkpt>
      <trkpt lat="44.77508" lon="5.0638">
        <ele>609</ele>
        <time>2020-02-07T11:53:46.000Z</time>
      </trkpt>
      <trkpt lat="44.77508" lon="5.0638">
        <ele>609</ele>
        <time>2020-02-07T11:53:47.000Z</time>
      </trkpt>
      <trkpt lat="44.77508" lon="5.0638">
        <ele>609</ele>
        <time>2020-02-07T11:53:48.000Z</time>
      </trkpt>
      <trkpt lat="44.77507" lon="5.0638">
        <ele>609</ele>
        <time>2020-02-07T11:53:49.000Z</time>
      </trkpt>
      <trkpt lat="44.77507" lon="5.0638">
        <ele>609</ele>
        <time>2020-02-07T11:53:50.000Z</time>
      </trkpt>
      <trkpt lat="44.77507" lon="5.0638">
        <ele>609</ele>
        <time>2020-02-07T11:53:51.000Z</time>
      </trkpt>
      <trkpt lat="44.77507" lon="5.0638">
        <ele>609</ele>
        <time>2020-02-07T11:53:52.000Z</time>
      </trkpt>
      <trkpt lat="44.77507" lon="5.0638">
        <ele>609</ele>
        <time>2020-02-07T11:53:53.000Z</time>
      </trkpt>
      <trkpt lat="44.77507" lon="5.0638">
        <ele>609</ele>
        <time>2020-02-07T11:53:54.000Z</time>
      </trkpt>
      <trkpt lat="44.77507" lon="5.0638">
        <ele>609</ele>
        <time>2020-02-07T11:53:55.000Z</time>
      </trkpt>
      <trkpt lat="44.77507" lon="5.0638">
        <ele>608</ele>
        <time>2020-02-07T11:53:56.000Z</time>
      </trkpt>
      <trkpt lat="44.77507" lon="5.0638">
        <ele>608</ele>
        <time>2020-02-07T11:53:57.000Z</time>
      </trkpt>
      <trkpt lat="44.77507" lon="5.0638">
        <ele>608</ele>
        <time>2020-02-07T11:53:58.000Z</time>
      </trkpt>
      <trkpt lat="44.77507" lon="5.0638">
        <ele>608</ele>
        <time>2020-02-07T11:53:59.000Z</time>
      </trkpt>
      <trkpt lat="44.77507" lon="5.0638">
        <ele>608</ele>
        <time>2020-02-07T11:54:00.000Z</time>
      </trkpt>
      <trkpt lat="44.77507" lon="5.0638">
        <ele>608</ele>
        <time>2020-02-07T11:54:01.000Z</time>
      </trkpt>
      <trkpt lat="44.77507" lon="5.0638">
        <ele>608</ele>
        <time>2020-02-07T11:54:02.000Z</time>
      </trkpt>
      <trkpt lat="44.77507" lon="5.0638">
        <ele>608</ele>
        <time>2020-02-07T11:54:03.000Z</time>
      </trkpt>
      <trkpt lat="44.77507" lon="5.0638">
        <ele>608</ele>
        <time>2020-02-07T11:54:04.000Z</time>
      </trkpt>
      <trkpt lat="44.77507" lon="5.0638">
        <ele>608</ele>
        <time>2020-02-07T11:54:05.000Z</time>
      </trkpt>
      <trkpt lat="44.77506" lon="5.0638">
        <ele>608</ele>
        <time>2020-02-07T11:54:06.000Z</time>
      </trkpt>
      <trkpt lat="44.77506" lon="5.0638">
        <ele>608</ele>
        <time>2020-02-07T11:54:07.000Z</time>
      </trkpt>
      <trkpt lat="44.77506" lon="5.0638">
        <ele>608</ele>
        <time>2020-02-07T11:54:08.000Z</time>
      </trkpt>
      <trkpt lat="44.77506" lon="5.0638">
        <ele>608</ele>
        <time>2020-02-07T11:54:09.000Z</time>
      </trkpt>
      <trkpt lat="44.77506" lon="5.0638">
        <ele>608</ele>
        <time>2020-02-07T11:54:10.000Z</time>
      </trkpt>
      <trkpt lat="44.77506" lon="5.0638">
        <ele>608</ele>
        <time>2020-02-07T11:54:11.000Z</time>
      </trkpt>
      <trkpt lat="44.77507" lon="5.0638">
        <ele>608</ele>
        <time>2020-02-07T11:54:12.000Z</time>
      </trkpt>
      <trkpt lat="44.77506" lon="5.0638">
        <ele>608</ele>
        <time>2020-02-07T11:54:13.000Z</time>
      </trkpt>
      <trkpt lat="44.77506" lon="5.0638">
        <ele>608</ele>
        <time>2020-02-07T11:54:14.000Z</time>
      </trkpt>
      <trkpt lat="44.77506" lon="5.0638">
        <ele>608</ele>
        <time>2020-02-07T11:54:15.000Z</time>
      </trkpt>
      <trkpt lat="44.77506" lon="5.0638">
        <ele>608</ele>
        <time>2020-02-07T11:54:16.000Z</time>
      </trkpt>
      <trkpt lat="44.77506" lon="5.0638">
        <ele>608</ele>
        <time>2020-02-07T11:54:17.000Z</time>
      </trkpt>
      <trkpt lat="44.77506" lon="5.06381">
        <ele>608</ele>
        <time>2020-02-07T11:54:18.000Z</time>
      </trkpt>
      <trkpt lat="44.77506" lon="5.0638">
        <ele>609</ele>
        <time>2020-02-07T11:54:19.000Z</time>
      </trkpt>
      <trkpt lat="44.77506" lon="5.0638">
        <ele>608</ele>
        <time>2020-02-07T11:54:20.000Z</time>
      </trkpt>
      <trkpt lat="44.77506" lon="5.0638">
        <ele>608</ele>
        <time>2020-02-07T11:54:21.000Z</time>
      </trkpt>
      <trkpt lat="44.77506" lon="5.0638">
        <ele>608</ele>
        <time>2020-02-07T11:54:22.000Z</time>
      </trkpt>
      <trkpt lat="44.77507" lon="5.0638">
        <ele>608</ele>
        <time>2020-02-07T11:54:23.000Z</time>
      </trkpt>
      <trkpt lat="44.77507" lon="5.0638">
        <ele>608</ele>
        <time>2020-02-07T11:54:24.000Z</time>
      </trkpt>
      <trkpt lat="44.77507" lon="5.0638">
        <ele>608</ele>
        <time>2020-02-07T11:54:25.000Z</time>
      </trkpt>
      <trkpt lat="44.77507" lon="5.0638">
        <ele>608</ele>
        <time>2020-02-07T11:54:26.000Z</time>
      </trkpt>
      <trkpt lat="44.77507" lon="5.0638">
        <ele>608</ele>
        <time>2020-02-07T11:54:27.000Z</time>
      </trkpt>
      <trkpt lat="44.77507" lon="5.0638">
        <ele>608</ele>
        <time>2020-02-07T11:54:28.000Z</time>
      </trkpt>
      <trkpt lat="44.77507" lon="5.0638">
        <ele>608</ele>
        <time>2020-02-07T11:54:29.000Z</time>
      </trkpt>
      <trkpt lat="44.77507" lon="5.0638">
        <ele>608</ele>
        <time>2020-02-07T11:54:30.000Z</time>
      </trkpt>
      <trkpt lat="44.77507" lon="5.0638">
        <ele>608</ele>
        <time>2020-02-07T11:54:31.000Z</time>
      </trkpt>
      <trkpt lat="44.77507" lon="5.0638">
        <ele>608</ele>
        <time>2020-02-07T11:54:32.000Z</time>
      </trkpt>
      <trkpt lat="44.77507" lon="5.0638">
        <ele>608</ele>
        <time>2020-02-07T11:54:33.000Z</time>
      </trkpt>
      <trkpt lat="44.77507" lon="5.0638">
        <ele>608</ele>
        <time>2020-02-07T11:54:34.000Z</time>
      </trkpt>
      <trkpt lat="44.77507" lon="5.0638">
        <ele>608</ele>
        <time>2020-02-07T11:54:35.000Z</time>
      </trkpt>
      <trkpt lat="44.77507" lon="5.0638">
        <ele>608</ele>
        <time>2020-02-07T11:54:36.000Z</time>
      </trkpt>
      <trkpt lat="44.77507" lon="5.06379">
        <ele>608</ele>
        <time>2020-02-07T11:54:37.000Z</time>
      </trkpt>
      <trkpt lat="44.77507" lon="5.06379">
        <ele>608</ele>
        <time>2020-02-07T11:54:38.000Z</time>
      </trkpt>
      <trkpt lat="44.77507" lon="5.06379">
        <ele>608</ele>
        <time>2020-02-07T11:54:39.000Z</time>
      </trkpt>
      <trkpt lat="44.77507" lon="5.06379">
        <ele>608</ele>
        <time>2020-02-07T11:54:40.000Z</time>
      </trkpt>
      <trkpt lat="44.77507" lon="5.06379">
        <ele>608</ele>
        <time>2020-02-07T11:54:41.000Z</time>
      </trkpt>
      <trkpt lat="44.77507" lon="5.06379">
        <ele>608</ele>
        <time>2020-02-07T11:54:42.000Z</time>
      </trkpt>
      <trkpt lat="44.77507" lon="5.06379">
        <ele>609</ele>
        <time>2020-02-07T11:54:43.000Z</time>
      </trkpt>
      <trkpt lat="44.77506" lon="5.06379">
        <ele>609</ele>
        <time>2020-02-07T11:54:44.000Z</time>
      </trkpt>
      <trkpt lat="44.77506" lon="5.06379">
        <ele>609</ele>
        <time>2020-02-07T11:54:45.000Z</time>
      </trkpt>
      <trkpt lat="44.77506" lon="5.06379">
        <ele>609</ele>
        <time>2020-02-07T11:54:46.000Z</time>
      </trkpt>
      <trkpt lat="44.77506" lon="5.06379">
        <ele>609</ele>
        <time>2020-02-07T11:54:47.000Z</time>
      </trkpt>
      <trkpt lat="44.77506" lon="5.06379">
        <ele>609</ele>
        <time>2020-02-07T11:54:48.000Z</time>
      </trkpt>
      <trkpt lat="44.77506" lon="5.0638">
        <ele>609</ele>
        <time>2020-02-07T11:54:49.000Z</time>
      </trkpt>
      <trkpt lat="44.77506" lon="5.0638">
        <ele>609</ele>
        <time>2020-02-07T11:54:50.000Z</time>
      </trkpt>
      <trkpt lat="44.77506" lon="5.0638">
        <ele>609</ele>
        <time>2020-02-07T11:54:51.000Z</time>
      </trkpt>
      <trkpt lat="44.77506" lon="5.0638">
        <ele>609</ele>
        <time>2020-02-07T11:54:52.000Z</time>
      </trkpt>
      <trkpt lat="44.77506" lon="5.0638">
        <ele>609</ele>
        <time>2020-02-07T11:54:53.000Z</time>
      </trkpt>
      <trkpt lat="44.77505" lon="5.0638">
        <ele>609</ele>
        <time>2020-02-07T11:54:54.000Z</time>
      </trkpt>
      <trkpt lat="44.77505" lon="5.0638">
        <ele>609</ele>
        <time>2020-02-07T11:54:55.000Z</time>
      </trkpt>
      <trkpt lat="44.77505" lon="5.0638">
        <ele>609</ele>
        <time>2020-02-07T11:54:56.000Z</time>
      </trkpt>
      <trkpt lat="44.77505" lon="5.06379">
        <ele>609</ele>
        <time>2020-02-07T11:54:57.000Z</time>
      </trkpt>
      <trkpt lat="44.77505" lon="5.06379">
        <ele>609</ele>
        <time>2020-02-07T11:54:58.000Z</time>
      </trkpt>
      <trkpt lat="44.77505" lon="5.06379">
        <ele>609</ele>
        <time>2020-02-07T11:54:59.000Z</time>
      </trkpt>
      <trkpt lat="44.77505" lon="5.06379">
        <ele>609</ele>
        <time>2020-02-07T11:55:00.000Z</time>
      </trkpt>
      <trkpt lat="44.77505" lon="5.06378">
        <ele>609</ele>
        <time>2020-02-07T11:55:01.000Z</time>
      </trkpt>
      <trkpt lat="44.77505" lon="5.06379">
        <ele>609</ele>
        <time>2020-02-07T11:55:02.000Z</time>
      </trkpt>
      <trkpt lat="44.77505" lon="5.06379">
        <ele>609</ele>
        <time>2020-02-07T11:55:03.000Z</time>
      </trkpt>
      <trkpt lat="44.77505" lon="5.06378">
        <ele>609</ele>
        <time>2020-02-07T11:55:04.000Z</time>
      </trkpt>
      <trkpt lat="44.77505" lon="5.06378">
        <ele>609</ele>
        <time>2020-02-07T11:55:05.000Z</time>
      </trkpt>
      <trkpt lat="44.77505" lon="5.06378">
        <ele>609</ele>
        <time>2020-02-07T11:55:06.000Z</time>
      </trkpt>
      <trkpt lat="44.77505" lon="5.06378">
        <ele>609</ele>
        <time>2020-02-07T11:55:07.000Z</time>
      </trkpt>
      <trkpt lat="44.77505" lon="5.06378">
        <ele>609</ele>
        <time>2020-02-07T11:55:08.000Z</time>
      </trkpt>
      <trkpt lat="44.77505" lon="5.06378">
        <ele>609</ele>
        <time>2020-02-07T11:55:09.000Z</time>
      </trkpt>
      <trkpt lat="44.77504" lon="5.06379">
        <ele>609</ele>
        <time>2020-02-07T11:55:10.000Z</time>
      </trkpt>
      <trkpt lat="44.77504" lon="5.06379">
        <ele>609</ele>
        <time>2020-02-07T11:55:11.000Z</time>
      </trkpt>
      <trkpt lat="44.77504" lon="5.06379">
        <ele>609</ele>
        <time>2020-02-07T11:55:12.000Z</time>
      </trkpt>
      <trkpt lat="44.77504" lon="5.06379">
        <ele>609</ele>
        <time>2020-02-07T11:55:13.000Z</time>
      </trkpt>
      <trkpt lat="44.77504" lon="5.06379">
        <ele>609</ele>
        <time>2020-02-07T11:55:14.000Z</time>
      </trkpt>
      <trkpt lat="44.77504" lon="5.06379">
        <ele>609</ele>
        <time>2020-02-07T11:55:15.000Z</time>
      </trkpt>
      <trkpt lat="44.77504" lon="5.06379">
        <ele>609</ele>
        <time>2020-02-07T11:55:16.000Z</time>
      </trkpt>
      <trkpt lat="44.77504" lon="5.06379">
        <ele>609</ele>
        <time>2020-02-07T11:55:17.000Z</time>
      </trkpt>
      <trkpt lat="44.77504" lon="5.06379">
        <ele>609</ele>
        <time>2020-02-07T11:55:18.000Z</time>
      </trkpt>
      <trkpt lat="44.77504" lon="5.06379">
        <ele>609</ele>
        <time>2020-02-07T11:55:19.000Z</time>
      </trkpt>
      <trkpt lat="44.77504" lon="5.06379">
        <ele>609</ele>
        <time>2020-02-07T11:55:20.000Z</time>
      </trkpt>
      <trkpt lat="44.77504" lon="5.06379">
        <ele>609</ele>
        <time>2020-02-07T11:55:21.000Z</time>
      </trkpt>
      <trkpt lat="44.77504" lon="5.06379">
        <ele>609</ele>
        <time>2020-02-07T11:55:22.000Z</time>
      </trkpt>
      <trkpt lat="44.77504" lon="5.06379">
        <ele>609</ele>
        <time>2020-02-07T11:55:23.000Z</time>
      </trkpt>
      <trkpt lat="44.77504" lon="5.06379">
        <ele>609</ele>
        <time>2020-02-07T11:55:24.000Z</time>
      </trkpt>
      <trkpt lat="44.77504" lon="5.06379">
        <ele>609</ele>
        <time>2020-02-07T11:55:25.000Z</time>
      </trkpt>
      <trkpt lat="44.77504" lon="5.06379">
        <ele>609</ele>
        <time>2020-02-07T11:55:26.000Z</time>
      </trkpt>
      <trkpt lat="44.77504" lon="5.06379">
        <ele>609</ele>
        <time>2020-02-07T11:55:27.000Z</time>
      </trkpt>
      <trkpt lat="44.77504" lon="5.06379">
        <ele>609</ele>
        <time>2020-02-07T11:55:28.000Z</time>
      </trkpt>
      <trkpt lat="44.77504" lon="5.06379">
        <ele>609</ele>
        <time>2020-02-07T11:55:29.000Z</time>
      </trkpt>
      <trkpt lat="44.77504" lon="5.06379">
        <ele>609</ele>
        <time>2020-02-07T11:55:30.000Z</time>
      </trkpt>
      <trkpt lat="44.77504" lon="5.06379">
        <ele>609</ele>
        <time>2020-02-07T11:55:31.000Z</time>
      </trkpt>
      <trkpt lat="44.77504" lon="5.06379">
        <ele>609</ele>
        <time>2020-02-07T11:55:32.000Z</time>
      </trkpt>
      <trkpt lat="44.77504" lon="5.06379">
        <ele>609</ele>
        <time>2020-02-07T11:55:33.000Z</time>
      </trkpt>
      <trkpt lat="44.77504" lon="5.06379">
        <ele>609</ele>
        <time>2020-02-07T11:55:34.000Z</time>
      </trkpt>
      <trkpt lat="44.77504" lon="5.06379">
        <ele>609</ele>
        <time>2020-02-07T11:55:35.000Z</time>
      </trkpt>
      <trkpt lat="44.77504" lon="5.06379">
        <ele>609</ele>
        <time>2020-02-07T11:55:36.000Z</time>
      </trkpt>
      <trkpt lat="44.77504" lon="5.06379">
        <ele>609</ele>
        <time>2020-02-07T11:55:37.000Z</time>
      </trkpt>
      <trkpt lat="44.77504" lon="5.06379">
        <ele>609</ele>
        <time>2020-02-07T11:55:38.000Z</time>
      </trkpt>
      <trkpt lat="44.77504" lon="5.06379">
        <ele>609</ele>
        <time>2020-02-07T11:55:39.000Z</time>
      </trkpt>
      <trkpt lat="44.77504" lon="5.0638">
        <ele>609</ele>
        <time>2020-02-07T11:55:40.000Z</time>
      </trkpt>
      <trkpt lat="44.77504" lon="5.0638">
        <ele>609</ele>
        <time>2020-02-07T11:55:41.000Z</time>
      </trkpt>
      <trkpt lat="44.77504" lon="5.06379">
        <ele>609</ele>
        <time>2020-02-07T11:55:42.000Z</time>
      </trkpt>
      <trkpt lat="44.77504" lon="5.06379">
        <ele>609</ele>
        <time>2020-02-07T11:55:43.000Z</time>
      </trkpt>
      <trkpt lat="44.77504" lon="5.06379">
        <ele>609</ele>
        <time>2020-02-07T11:55:44.000Z</time>
      </trkpt>
      <trkpt lat="44.77504" lon="5.06379">
        <ele>609</ele>
        <time>2020-02-07T11:55:45.000Z</time>
      </trkpt>
      <trkpt lat="44.77504" lon="5.06379">
        <ele>609</ele>
        <time>2020-02-07T11:55:46.000Z</time>
      </trkpt>
      <trkpt lat="44.77504" lon="5.06379">
        <ele>609</ele>
        <time>2020-02-07T11:55:47.000Z</time>
      </trkpt>
      <trkpt lat="44.77504" lon="5.06379">
        <ele>609</ele>
        <time>2020-02-07T11:55:48.000Z</time>
      </trkpt>
      <trkpt lat="44.77504" lon="5.06379">
        <ele>609</ele>
        <time>2020-02-07T11:55:49.000Z</time>
      </trkpt>
      <trkpt lat="44.77504" lon="5.06379">
        <ele>609</ele>
        <time>2020-02-07T11:55:50.000Z</time>
      </trkpt>
      <trkpt lat="44.77504" lon="5.06379">
        <ele>609</ele>
        <time>2020-02-07T11:55:51.000Z</time>
      </trkpt>
      <trkpt lat="44.77504" lon="5.06379">
        <ele>609</ele>
        <time>2020-02-07T11:55:52.000Z</time>
      </trkpt>
      <trkpt lat="44.77504" lon="5.06379">
        <ele>609</ele>
        <time>2020-02-07T11:55:53.000Z</time>
      </trkpt>
      <trkpt lat="44.77504" lon="5.06379">
        <ele>609</ele>
        <time>2020-02-07T11:55:54.000Z</time>
      </trkpt>
      <trkpt lat="44.77504" lon="5.06379">
        <ele>609</ele>
        <time>2020-02-07T11:55:55.000Z</time>
      </trkpt>
      <trkpt lat="44.77504" lon="5.06379">
        <ele>609</ele>
        <time>2020-02-07T11:55:56.000Z</time>
      </trkpt>
      <trkpt lat="44.77504" lon="5.06379">
        <ele>609</ele>
        <time>2020-02-07T11:55:57.000Z</time>
      </trkpt>
      <trkpt lat="44.77504" lon="5.06379">
        <ele>609</ele>
        <time>2020-02-07T11:55:58.000Z</time>
      </trkpt>
      <trkpt lat="44.77504" lon="5.06379">
        <ele>609</ele>
        <time>2020-02-07T11:55:59.000Z</time>
      </trkpt>
      <trkpt lat="44.77504" lon="5.06379">
        <ele>609</ele>
        <time>2020-02-07T11:56:00.000Z</time>
      </trkpt>
      <trkpt lat="44.77504" lon="5.06379">
        <ele>609</ele>
        <time>2020-02-07T11:56:01.000Z</time>
      </trkpt>
      <trkpt lat="44.77504" lon="5.06379">
        <ele>609</ele>
        <time>2020-02-07T11:56:02.000Z</time>
      </trkpt>
      <trkpt lat="44.77505" lon="5.06379">
        <ele>609</ele>
        <time>2020-02-07T11:56:03.000Z</time>
      </trkpt>
      <trkpt lat="44.77505" lon="5.06379">
        <ele>609</ele>
        <time>2020-02-07T11:56:04.000Z</time>
      </trkpt>
      <trkpt lat="44.77505" lon="5.06379">
        <ele>609</ele>
        <time>2020-02-07T11:56:05.000Z</time>
      </trkpt>
      <trkpt lat="44.77506" lon="5.06379">
        <ele>609</ele>
        <time>2020-02-07T11:56:06.000Z</time>
      </trkpt>
      <trkpt lat="44.77506" lon="5.06379">
        <ele>609</ele>
        <time>2020-02-07T11:56:07.000Z</time>
      </trkpt>
      <trkpt lat="44.77506" lon="5.06379">
        <ele>609</ele>
        <time>2020-02-07T11:56:08.000Z</time>
      </trkpt>
      <trkpt lat="44.77506" lon="5.06379">
        <ele>609</ele>
        <time>2020-02-07T11:56:09.000Z</time>
      </trkpt>
      <trkpt lat="44.77506" lon="5.06379">
        <ele>609</ele>
        <time>2020-02-07T11:56:10.000Z</time>
      </trkpt>
      <trkpt lat="44.77506" lon="5.06379">
        <ele>609</ele>
        <time>2020-02-07T11:56:11.000Z</time>
      </trkpt>
      <trkpt lat="44.77506" lon="5.06379">
        <ele>609</ele>
        <time>2020-02-07T11:56:12.000Z</time>
      </trkpt>
      <trkpt lat="44.77506" lon="5.06379">
        <ele>609</ele>
        <time>2020-02-07T11:56:13.000Z</time>
      </trkpt>
      <trkpt lat="44.77506" lon="5.0638">
        <ele>609</ele>
        <time>2020-02-07T11:56:14.000Z</time>
      </trkpt>
      <trkpt lat="44.77506" lon="5.0638">
        <ele>609</ele>
        <time>2020-02-07T11:56:15.000Z</time>
      </trkpt>
      <trkpt lat="44.77506" lon="5.0638">
        <ele>609</ele>
        <time>2020-02-07T11:56:16.000Z</time>
      </trkpt>
      <trkpt lat="44.77506" lon="5.0638">
        <ele>609</ele>
        <time>2020-02-07T11:56:17.000Z</time>
      </trkpt>
      <trkpt lat="44.77506" lon="5.06379">
        <ele>609</ele>
        <time>2020-02-07T11:56:18.000Z</time>
      </trkpt>
      <trkpt lat="44.77506" lon="5.06379">
        <ele>609</ele>
        <time>2020-02-07T11:56:19.000Z</time>
      </trkpt>
      <trkpt lat="44.77506" lon="5.06379">
        <ele>609</ele>
        <time>2020-02-07T11:56:20.000Z</time>
      </trkpt>
      <trkpt lat="44.77506" lon="5.06379">
        <ele>609</ele>
        <time>2020-02-07T11:56:21.000Z</time>
      </trkpt>
      <trkpt lat="44.77506" lon="5.06379">
        <ele>609</ele>
        <time>2020-02-07T11:56:22.000Z</time>
      </trkpt>
      <trkpt lat="44.77506" lon="5.06379">
        <ele>609</ele>
        <time>2020-02-07T11:56:23.000Z</time>
      </trkpt>
      <trkpt lat="44.77506" lon="5.06379">
        <ele>609</ele>
        <time>2020-02-07T11:56:24.000Z</time>
      </trkpt>
      <trkpt lat="44.77506" lon="5.06379">
        <ele>609</ele>
        <time>2020-02-07T11:56:25.000Z</time>
      </trkpt>
      <trkpt lat="44.77506" lon="5.06379">
        <ele>609</ele>
        <time>2020-02-07T11:56:26.000Z</time>
      </trkpt>
      <trkpt lat="44.77506" lon="5.06379">
        <ele>609</ele>
        <time>2020-02-07T11:56:27.000Z</time>
      </trkpt>
      <trkpt lat="44.77506" lon="5.06379">
        <ele>609</ele>
        <time>2020-02-07T11:56:28.000Z</time>
      </trkpt>
      <trkpt lat="44.77506" lon="5.06379">
        <ele>608</ele>
        <time>2020-02-07T11:56:29.000Z</time>
      </trkpt>
      <trkpt lat="44.77506" lon="5.06379">
        <ele>608</ele>
        <time>2020-02-07T11:56:30.000Z</time>
      </trkpt>
      <trkpt lat="44.77506" lon="5.06379">
        <ele>608</ele>
        <time>2020-02-07T11:56:31.000Z</time>
      </trkpt>
      <trkpt lat="44.77506" lon="5.06379">
        <ele>608</ele>
        <time>2020-02-07T11:56:32.000Z</time>
      </trkpt>
      <trkpt lat="44.77506" lon="5.06379">
        <ele>608</ele>
        <time>2020-02-07T11:56:33.000Z</time>
      </trkpt>
      <trkpt lat="44.77506" lon="5.06379">
        <ele>608</ele>
        <time>2020-02-07T11:56:34.000Z</time>
      </trkpt>
      <trkpt lat="44.77505" lon="5.06379">
        <ele>608</ele>
        <time>2020-02-07T11:56:35.000Z</time>
      </trkpt>
      <trkpt lat="44.77505" lon="5.06379">
        <ele>608</ele>
        <time>2020-02-07T11:56:36.000Z</time>
      </trkpt>
      <trkpt lat="44.77505" lon="5.06379">
        <ele>608</ele>
        <time>2020-02-07T11:56:37.000Z</time>
      </trkpt>
      <trkpt lat="44.77505" lon="5.06379">
        <ele>608</ele>
        <time>2020-02-07T11:56:38.000Z</time>
      </trkpt>
      <trkpt lat="44.77505" lon="5.06379">
        <ele>608</ele>
        <time>2020-02-07T11:56:39.000Z</time>
      </trkpt>
      <trkpt lat="44.77505" lon="5.06379">
        <ele>608</ele>
        <time>2020-02-07T11:56:40.000Z</time>
      </trkpt>
      <trkpt lat="44.77505" lon="5.06379">
        <ele>608</ele>
        <time>2020-02-07T11:56:41.000Z</time>
      </trkpt>
      <trkpt lat="44.77505" lon="5.06379">
        <ele>608</ele>
        <time>2020-02-07T11:56:42.000Z</time>
      </trkpt>
      <trkpt lat="44.77505" lon="5.06379">
        <ele>608</ele>
        <time>2020-02-07T11:56:43.000Z</time>
      </trkpt>
      <trkpt lat="44.77505" lon="5.06379">
        <ele>608</ele>
        <time>2020-02-07T11:56:44.000Z</time>
      </trkpt>
      <trkpt lat="44.77505" lon="5.06379">
        <ele>608</ele>
        <time>2020-02-07T11:56:45.000Z</time>
      </trkpt>
      <trkpt lat="44.77505" lon="5.06379">
        <ele>608</ele>
        <time>2020-02-07T11:56:46.000Z</time>
      </trkpt>
      <trkpt lat="44.77505" lon="5.06379">
        <ele>608</ele>
        <time>2020-02-07T11:56:47.000Z</time>
      </trkpt>
      <trkpt lat="44.77505" lon="5.0638">
        <ele>608</ele>
        <time>2020-02-07T11:56:48.000Z</time>
      </trkpt>
      <trkpt lat="44.77505" lon="5.0638">
        <ele>608</ele>
        <time>2020-02-07T11:56:49.000Z</time>
      </trkpt>
      <trkpt lat="44.77505" lon="5.0638">
        <ele>607</ele>
        <time>2020-02-07T11:56:50.000Z</time>
      </trkpt>
      <trkpt lat="44.77505" lon="5.0638">
        <ele>607</ele>
        <time>2020-02-07T11:56:51.000Z</time>
      </trkpt>
      <trkpt lat="44.77505" lon="5.0638">
        <ele>607</ele>
        <time>2020-02-07T11:56:52.000Z</time>
      </trkpt>
      <trkpt lat="44.77505" lon="5.0638">
        <ele>607</ele>
        <time>2020-02-07T11:56:53.000Z</time>
      </trkpt>
      <trkpt lat="44.77505" lon="5.0638">
        <ele>607</ele>
        <time>2020-02-07T11:56:54.000Z</time>
      </trkpt>
      <trkpt lat="44.77505" lon="5.0638">
        <ele>607</ele>
        <time>2020-02-07T11:56:55.000Z</time>
      </trkpt>
      <trkpt lat="44.77505" lon="5.0638">
        <ele>607</ele>
        <time>2020-02-07T11:56:56.000Z</time>
      </trkpt>
      <trkpt lat="44.77505" lon="5.0638">
        <ele>607</ele>
        <time>2020-02-07T11:56:57.000Z</time>
      </trkpt>
      <trkpt lat="44.77505" lon="5.0638">
        <ele>607</ele>
        <time>2020-02-07T11:56:58.000Z</time>
      </trkpt>
      <trkpt lat="44.77505" lon="5.0638">
        <ele>607</ele>
        <time>2020-02-07T11:56:59.000Z</time>
      </trkpt>
      <trkpt lat="44.77505" lon="5.0638">
        <ele>607</ele>
        <time>2020-02-07T11:57:00.000Z</time>
      </trkpt>
      <trkpt lat="44.77505" lon="5.0638">
        <ele>607</ele>
        <time>2020-02-07T11:57:01.000Z</time>
      </trkpt>
      <trkpt lat="44.77505" lon="5.0638">
        <ele>607</ele>
        <time>2020-02-07T11:57:02.000Z</time>
      </trkpt>
      <trkpt lat="44.77505" lon="5.0638">
        <ele>607</ele>
        <time>2020-02-07T11:57:03.000Z</time>
      </trkpt>
      <trkpt lat="44.77505" lon="5.0638">
        <ele>607</ele>
        <time>2020-02-07T11:57:04.000Z</time>
      </trkpt>
      <trkpt lat="44.77505" lon="5.0638">
        <ele>607</ele>
        <time>2020-02-07T11:57:05.000Z</time>
      </trkpt>
      <trkpt lat="44.77505" lon="5.06381">
        <ele>607</ele>
        <time>2020-02-07T11:57:06.000Z</time>
      </trkpt>
      <trkpt lat="44.77505" lon="5.06381">
        <ele>607</ele>
        <time>2020-02-07T11:57:07.000Z</time>
      </trkpt>
      <trkpt lat="44.77505" lon="5.06381">
        <ele>606</ele>
        <time>2020-02-07T11:57:08.000Z</time>
      </trkpt>
      <trkpt lat="44.77506" lon="5.06381">
        <ele>606</ele>
        <time>2020-02-07T11:57:09.000Z</time>
      </trkpt>
      <trkpt lat="44.77505" lon="5.06381">
        <ele>606</ele>
        <time>2020-02-07T11:57:10.000Z</time>
      </trkpt>
      <trkpt lat="44.77505" lon="5.06381">
        <ele>606</ele>
        <time>2020-02-07T11:57:11.000Z</time>
      </trkpt>
      <trkpt lat="44.77506" lon="5.06381">
        <ele>606</ele>
        <time>2020-02-07T11:57:12.000Z</time>
      </trkpt>
      <trkpt lat="44.77506" lon="5.06381">
        <ele>606</ele>
        <time>2020-02-07T11:57:13.000Z</time>
      </trkpt>
      <trkpt lat="44.77506" lon="5.06381">
        <ele>606</ele>
        <time>2020-02-07T11:57:14.000Z</time>
      </trkpt>
      <trkpt lat="44.77506" lon="5.06381">
        <ele>606</ele>
        <time>2020-02-07T11:57:15.000Z</time>
      </trkpt>
      <trkpt lat="44.77506" lon="5.06381">
        <ele>606</ele>
        <time>2020-02-07T11:57:16.000Z</time>
      </trkpt>
      <trkpt lat="44.77506" lon="5.06381">
        <ele>606</ele>
        <time>2020-02-07T11:57:17.000Z</time>
      </trkpt>
      <trkpt lat="44.77506" lon="5.06381">
        <ele>606</ele>
        <time>2020-02-07T11:57:18.000Z</time>
      </trkpt>
      <trkpt lat="44.77506" lon="5.06381">
        <ele>606</ele>
        <time>2020-02-07T11:57:19.000Z</time>
      </trkpt>
      <trkpt lat="44.77506" lon="5.06381">
        <ele>606</ele>
        <time>2020-02-07T11:57:20.000Z</time>
      </trkpt>
      <trkpt lat="44.77506" lon="5.06381">
        <ele>606</ele>
        <time>2020-02-07T11:57:21.000Z</time>
      </trkpt>
      <trkpt lat="44.77506" lon="5.06381">
        <ele>606</ele>
        <time>2020-02-07T11:57:22.000Z</time>
      </trkpt>
      <trkpt lat="44.77506" lon="5.06381">
        <ele>606</ele>
        <time>2020-02-07T11:57:23.000Z</time>
      </trkpt>
      <trkpt lat="44.77506" lon="5.06381">
        <ele>606</ele>
        <time>2020-02-07T11:57:24.000Z</time>
      </trkpt>
      <trkpt lat="44.77506" lon="5.06382">
        <ele>606</ele>
        <time>2020-02-07T11:57:25.000Z</time>
      </trkpt>
      <trkpt lat="44.77506" lon="5.06382">
        <ele>606</ele>
        <time>2020-02-07T11:57:26.000Z</time>
      </trkpt>
      <trkpt lat="44.77506" lon="5.06382">
        <ele>606</ele>
        <time>2020-02-07T11:57:27.000Z</time>
      </trkpt>
      <trkpt lat="44.77506" lon="5.06382">
        <ele>606</ele>
        <time>2020-02-07T11:57:28.000Z</time>
      </trkpt>
      <trkpt lat="44.77506" lon="5.06382">
        <ele>606</ele>
        <time>2020-02-07T11:57:29.000Z</time>
      </trkpt>
      <trkpt lat="44.77506" lon="5.06382">
        <ele>606</ele>
        <time>2020-02-07T11:57:30.000Z</time>
      </trkpt>
      <trkpt lat="44.77506" lon="5.06382">
        <ele>606</ele>
        <time>2020-02-07T11:57:31.000Z</time>
      </trkpt>
      <trkpt lat="44.77506" lon="5.06382">
        <ele>606</ele>
        <time>2020-02-07T11:57:32.000Z</time>
      </trkpt>
      <trkpt lat="44.77506" lon="5.06382">
        <ele>606</ele>
        <time>2020-02-07T11:57:33.000Z</time>
      </trkpt>
      <trkpt lat="44.77506" lon="5.06382">
        <ele>606</ele>
        <time>2020-02-07T11:57:34.000Z</time>
      </trkpt>
      <trkpt lat="44.77506" lon="5.06382">
        <ele>606</ele>
        <time>2020-02-07T11:57:35.000Z</time>
      </trkpt>
      <trkpt lat="44.77506" lon="5.06382">
        <ele>606</ele>
        <time>2020-02-07T11:57:36.000Z</time>
      </trkpt>
      <trkpt lat="44.77506" lon="5.06382">
        <ele>606</ele>
        <time>2020-02-07T11:57:37.000Z</time>
      </trkpt>
      <trkpt lat="44.77506" lon="5.06382">
        <ele>606</ele>
        <time>2020-02-07T11:57:38.000Z</time>
      </trkpt>
      <trkpt lat="44.77506" lon="5.06382">
        <ele>606</ele>
        <time>2020-02-07T11:57:39.000Z</time>
      </trkpt>
      <trkpt lat="44.77506" lon="5.06382">
        <ele>606</ele>
        <time>2020-02-07T11:57:40.000Z</time>
      </trkpt>
      <trkpt lat="44.77506" lon="5.06382">
        <ele>606</ele>
        <time>2020-02-07T11:57:41.000Z</time>
      </trkpt>
      <trkpt lat="44.77506" lon="5.06382">
        <ele>606</ele>
        <time>2020-02-07T11:57:42.000Z</time>
      </trkpt>
      <trkpt lat="44.77506" lon="5.06382">
        <ele>606</ele>
        <time>2020-02-07T11:57:43.000Z</time>
      </trkpt>
      <trkpt lat="44.77506" lon="5.06382">
        <ele>606</ele>
        <time>2020-02-07T11:57:44.000Z</time>
      </trkpt>
      <trkpt lat="44.77506" lon="5.06382">
        <ele>606</ele>
        <time>2020-02-07T11:57:45.000Z</time>
      </trkpt>
      <trkpt lat="44.77506" lon="5.06382">
        <ele>606</ele>
        <time>2020-02-07T11:57:46.000Z</time>
      </trkpt>
      <trkpt lat="44.77506" lon="5.06382">
        <ele>606</ele>
        <time>2020-02-07T11:57:47.000Z</time>
      </trkpt>
      <trkpt lat="44.77506" lon="5.06382">
        <ele>606</ele>
        <time>2020-02-07T11:57:48.000Z</time>
      </trkpt>
      <trkpt lat="44.77506" lon="5.06382">
        <ele>606</ele>
        <time>2020-02-07T11:57:49.000Z</time>
      </trkpt>
      <trkpt lat="44.77506" lon="5.06382">
        <ele>606</ele>
        <time>2020-02-07T11:57:50.000Z</time>
      </trkpt>
      <trkpt lat="44.77507" lon="5.06382">
        <ele>606</ele>
        <time>2020-02-07T11:57:51.000Z</time>
      </trkpt>
      <trkpt lat="44.77507" lon="5.06382">
        <ele>606</ele>
        <time>2020-02-07T11:57:52.000Z</time>
      </trkpt>
      <trkpt lat="44.77507" lon="5.06382">
        <ele>606</ele>
        <time>2020-02-07T11:57:53.000Z</time>
      </trkpt>
      <trkpt lat="44.77507" lon="5.06382">
        <ele>606</ele>
        <time>2020-02-07T11:57:54.000Z</time>
      </trkpt>
      <trkpt lat="44.77507" lon="5.06382">
        <ele>606</ele>
        <time>2020-02-07T11:57:55.000Z</time>
      </trkpt>
      <trkpt lat="44.77507" lon="5.06382">
        <ele>606</ele>
        <time>2020-02-07T11:57:56.000Z</time>
      </trkpt>
      <trkpt lat="44.77507" lon="5.06382">
        <ele>606</ele>
        <time>2020-02-07T11:57:57.000Z</time>
      </trkpt>
      <trkpt lat="44.77507" lon="5.06382">
        <ele>606</ele>
        <time>2020-02-07T11:57:58.000Z</time>
      </trkpt>
      <trkpt lat="44.77507" lon="5.06383">
        <ele>606</ele>
        <time>2020-02-07T11:57:59.000Z</time>
      </trkpt>
      <trkpt lat="44.77507" lon="5.06383">
        <ele>606</ele>
        <time>2020-02-07T11:58:00.000Z</time>
      </trkpt>
      <trkpt lat="44.77507" lon="5.06383">
        <ele>606</ele>
        <time>2020-02-07T11:58:01.000Z</time>
      </trkpt>
      <trkpt lat="44.77507" lon="5.06382">
        <ele>606</ele>
        <time>2020-02-07T11:58:02.000Z</time>
      </trkpt>
      <trkpt lat="44.77507" lon="5.06382">
        <ele>606</ele>
        <time>2020-02-07T11:58:03.000Z</time>
      </trkpt>
      <trkpt lat="44.77507" lon="5.06382">
        <ele>606</ele>
        <time>2020-02-07T11:58:04.000Z</time>
      </trkpt>
      <trkpt lat="44.77508" lon="5.06381">
        <ele>606</ele>
        <time>2020-02-07T11:58:05.000Z</time>
      </trkpt>
      <trkpt lat="44.77508" lon="5.06381">
        <ele>606</ele>
        <time>2020-02-07T11:58:06.000Z</time>
      </trkpt>
      <trkpt lat="44.77508" lon="5.06381">
        <ele>606</ele>
        <time>2020-02-07T11:58:07.000Z</time>
      </trkpt>
      <trkpt lat="44.77508" lon="5.06381">
        <ele>606</ele>
        <time>2020-02-07T11:58:08.000Z</time>
      </trkpt>
      <trkpt lat="44.77509" lon="5.06381">
        <ele>606</ele>
        <time>2020-02-07T11:58:09.000Z</time>
      </trkpt>
      <trkpt lat="44.77509" lon="5.06381">
        <ele>605</ele>
        <time>2020-02-07T11:58:10.000Z</time>
      </trkpt>
      <trkpt lat="44.77509" lon="5.06381">
        <ele>605</ele>
        <time>2020-02-07T11:58:11.000Z</time>
      </trkpt>
      <trkpt lat="44.7751" lon="5.06381">
        <ele>605</ele>
        <time>2020-02-07T11:58:12.000Z</time>
      </trkpt>
      <trkpt lat="44.77509" lon="5.06381">
        <ele>605</ele>
        <time>2020-02-07T11:58:13.000Z</time>
      </trkpt>
      <trkpt lat="44.77509" lon="5.06381">
        <ele>605</ele>
        <time>2020-02-07T11:58:14.000Z</time>
      </trkpt>
      <trkpt lat="44.77509" lon="5.06381">
        <ele>605</ele>
        <time>2020-02-07T11:58:15.000Z</time>
      </trkpt>
      <trkpt lat="44.77509" lon="5.06381">
        <ele>605</ele>
        <time>2020-02-07T11:58:16.000Z</time>
      </trkpt>
      <trkpt lat="44.77509" lon="5.06381">
        <ele>605</ele>
        <time>2020-02-07T11:58:17.000Z</time>
      </trkpt>
      <trkpt lat="44.77509" lon="5.0638">
        <ele>605</ele>
        <time>2020-02-07T11:58:18.000Z</time>
      </trkpt>
      <trkpt lat="44.77509" lon="5.0638">
        <ele>605</ele>
        <time>2020-02-07T11:58:19.000Z</time>
      </trkpt>
      <trkpt lat="44.77509" lon="5.0638">
        <ele>605</ele>
        <time>2020-02-07T11:58:20.000Z</time>
      </trkpt>
      <trkpt lat="44.77509" lon="5.0638">
        <ele>605</ele>
        <time>2020-02-07T11:58:21.000Z</time>
      </trkpt>
      <trkpt lat="44.77509" lon="5.0638">
        <ele>605</ele>
        <time>2020-02-07T11:58:22.000Z</time>
      </trkpt>
      <trkpt lat="44.77509" lon="5.0638">
        <ele>605</ele>
        <time>2020-02-07T11:58:23.000Z</time>
      </trkpt>
      <trkpt lat="44.77509" lon="5.0638">
        <ele>605</ele>
        <time>2020-02-07T11:58:24.000Z</time>
      </trkpt>
      <trkpt lat="44.77509" lon="5.0638">
        <ele>605</ele>
        <time>2020-02-07T11:58:25.000Z</time>
      </trkpt>
      <trkpt lat="44.77509" lon="5.0638">
        <ele>605</ele>
        <time>2020-02-07T11:58:26.000Z</time>
      </trkpt>
      <trkpt lat="44.77509" lon="5.0638">
        <ele>605</ele>
        <time>2020-02-07T11:58:27.000Z</time>
      </trkpt>
      <trkpt lat="44.77509" lon="5.0638">
        <ele>605</ele>
        <time>2020-02-07T11:58:28.000Z</time>
      </trkpt>
      <trkpt lat="44.77509" lon="5.0638">
        <ele>605</ele>
        <time>2020-02-07T11:58:29.000Z</time>
      </trkpt>
      <trkpt lat="44.77509" lon="5.0638">
        <ele>605</ele>
        <time>2020-02-07T11:58:30.000Z</time>
      </trkpt>
      <trkpt lat="44.77509" lon="5.0638">
        <ele>605</ele>
        <time>2020-02-07T11:58:31.000Z</time>
      </trkpt>
      <trkpt lat="44.77509" lon="5.0638">
        <ele>605</ele>
        <time>2020-02-07T11:58:32.000Z</time>
      </trkpt>
      <trkpt lat="44.77509" lon="5.0638">
        <ele>605</ele>
        <time>2020-02-07T11:58:33.000Z</time>
      </trkpt>
      <trkpt lat="44.77509" lon="5.0638">
        <ele>605</ele>
        <time>2020-02-07T11:58:34.000Z</time>
      </trkpt>
      <trkpt lat="44.77509" lon="5.0638">
        <ele>605</ele>
        <time>2020-02-07T11:58:35.000Z</time>
      </trkpt>
      <trkpt lat="44.77509" lon="5.0638">
        <ele>605</ele>
        <time>2020-02-07T11:58:36.000Z</time>
      </trkpt>
      <trkpt lat="44.77509" lon="5.06379">
        <ele>605</ele>
        <time>2020-02-07T11:58:37.000Z</time>
      </trkpt>
      <trkpt lat="44.77509" lon="5.06379">
        <ele>605</ele>
        <time>2020-02-07T11:58:38.000Z</time>
      </trkpt>
      <trkpt lat="44.77509" lon="5.06379">
        <ele>605</ele>
        <time>2020-02-07T11:58:39.000Z</time>
      </trkpt>
      <trkpt lat="44.77509" lon="5.06379">
        <ele>605</ele>
        <time>2020-02-07T11:58:40.000Z</time>
      </trkpt>
      <trkpt lat="44.77509" lon="5.06379">
        <ele>605</ele>
        <time>2020-02-07T11:58:41.000Z</time>
      </trkpt>
      <trkpt lat="44.77509" lon="5.06379">
        <ele>605</ele>
        <time>2020-02-07T11:58:42.000Z</time>
      </trkpt>
      <trkpt lat="44.77509" lon="5.06379">
        <ele>605</ele>
        <time>2020-02-07T11:58:43.000Z</time>
      </trkpt>
      <trkpt lat="44.77509" lon="5.06379">
        <ele>605</ele>
        <time>2020-02-07T11:58:44.000Z</time>
      </trkpt>
      <trkpt lat="44.77509" lon="5.06379">
        <ele>605</ele>
        <time>2020-02-07T11:58:45.000Z</time>
      </trkpt>
      <trkpt lat="44.77509" lon="5.06379">
        <ele>605</ele>
        <time>2020-02-07T11:58:46.000Z</time>
      </trkpt>
      <trkpt lat="44.77509" lon="5.06379">
        <ele>605</ele>
        <time>2020-02-07T11:58:47.000Z</time>
      </trkpt>
      <trkpt lat="44.77509" lon="5.06379">
        <ele>605</ele>
        <time>2020-02-07T11:58:48.000Z</time>
      </trkpt>
      <trkpt lat="44.77509" lon="5.06379">
        <ele>605</ele>
        <time>2020-02-07T11:58:49.000Z</time>
      </trkpt>
      <trkpt lat="44.77509" lon="5.06379">
        <ele>605</ele>
        <time>2020-02-07T11:58:50.000Z</time>
      </trkpt>
      <trkpt lat="44.77509" lon="5.06379">
        <ele>605</ele>
        <time>2020-02-07T11:58:51.000Z</time>
      </trkpt>
      <trkpt lat="44.7751" lon="5.06379">
        <ele>605</ele>
        <time>2020-02-07T11:58:52.000Z</time>
      </trkpt>
      <trkpt lat="44.7751" lon="5.06379">
        <ele>605</ele>
        <time>2020-02-07T11:58:53.000Z</time>
      </trkpt>
      <trkpt lat="44.7751" lon="5.06379">
        <ele>605</ele>
        <time>2020-02-07T11:58:54.000Z</time>
      </trkpt>
      <trkpt lat="44.7751" lon="5.06379">
        <ele>605</ele>
        <time>2020-02-07T11:58:55.000Z</time>
      </trkpt>
      <trkpt lat="44.7751" lon="5.06379">
        <ele>605</ele>
        <time>2020-02-07T11:58:56.000Z</time>
      </trkpt>
      <trkpt lat="44.7751" lon="5.06379">
        <ele>606</ele>
        <time>2020-02-07T11:58:57.000Z</time>
      </trkpt>
      <trkpt lat="44.7751" lon="5.06379">
        <ele>606</ele>
        <time>2020-02-07T11:58:58.000Z</time>
      </trkpt>
      <trkpt lat="44.7751" lon="5.0638">
        <ele>606</ele>
        <time>2020-02-07T11:58:59.000Z</time>
      </trkpt>
      <trkpt lat="44.7751" lon="5.0638">
        <ele>606</ele>
        <time>2020-02-07T11:59:00.000Z</time>
      </trkpt>
      <trkpt lat="44.7751" lon="5.0638">
        <ele>606</ele>
        <time>2020-02-07T11:59:01.000Z</time>
      </trkpt>
      <trkpt lat="44.77509" lon="5.0638">
        <ele>606</ele>
        <time>2020-02-07T11:59:02.000Z</time>
      </trkpt>
      <trkpt lat="44.77509" lon="5.0638">
        <ele>606</ele>
        <time>2020-02-07T11:59:03.000Z</time>
      </trkpt>
      <trkpt lat="44.77509" lon="5.0638">
        <ele>606</ele>
        <time>2020-02-07T11:59:04.000Z</time>
      </trkpt>
      <trkpt lat="44.77508" lon="5.0638">
        <ele>606</ele>
        <time>2020-02-07T11:59:05.000Z</time>
      </trkpt>
      <trkpt lat="44.77508" lon="5.06381">
        <ele>606</ele>
        <time>2020-02-07T11:59:06.000Z</time>
      </trkpt>
      <trkpt lat="44.77508" lon="5.06381">
        <ele>607</ele>
        <time>2020-02-07T11:59:07.000Z</time>
      </trkpt>
      <trkpt lat="44.77508" lon="5.06381">
        <ele>607</ele>
        <time>2020-02-07T11:59:08.000Z</time>
      </trkpt>
      <trkpt lat="44.77508" lon="5.06381">
        <ele>607</ele>
        <time>2020-02-07T11:59:09.000Z</time>
      </trkpt>
      <trkpt lat="44.77508" lon="5.06382">
        <ele>607</ele>
        <time>2020-02-07T11:59:10.000Z</time>
      </trkpt>
      <trkpt lat="44.77508" lon="5.06382">
        <ele>607</ele>
        <time>2020-02-07T11:59:11.000Z</time>
      </trkpt>
      <trkpt lat="44.77508" lon="5.06382">
        <ele>607</ele>
        <time>2020-02-07T11:59:12.000Z</time>
      </trkpt>
      <trkpt lat="44.77508" lon="5.06381">
        <ele>607</ele>
        <time>2020-02-07T11:59:13.000Z</time>
      </trkpt>
      <trkpt lat="44.77508" lon="5.06381">
        <ele>607</ele>
        <time>2020-02-07T11:59:14.000Z</time>
      </trkpt>
      <trkpt lat="44.77509" lon="5.06381">
        <ele>607</ele>
        <time>2020-02-07T11:59:15.000Z</time>
      </trkpt>
      <trkpt lat="44.77509" lon="5.06381">
        <ele>607</ele>
        <time>2020-02-07T11:59:16.000Z</time>
      </trkpt>
      <trkpt lat="44.77509" lon="5.06381">
        <ele>607</ele>
        <time>2020-02-07T11:59:17.000Z</time>
      </trkpt>
      <trkpt lat="44.77509" lon="5.06381">
        <ele>607</ele>
        <time>2020-02-07T11:59:18.000Z</time>
      </trkpt>
      <trkpt lat="44.77509" lon="5.06381">
        <ele>607</ele>
        <time>2020-02-07T11:59:19.000Z</time>
      </trkpt>
      <trkpt lat="44.77509" lon="5.06381">
        <ele>607</ele>
        <time>2020-02-07T11:59:20.000Z</time>
      </trkpt>
      <trkpt lat="44.77509" lon="5.06381">
        <ele>607</ele>
        <time>2020-02-07T11:59:21.000Z</time>
      </trkpt>
      <trkpt lat="44.77509" lon="5.06381">
        <ele>607</ele>
        <time>2020-02-07T11:59:22.000Z</time>
      </trkpt>
      <trkpt lat="44.77509" lon="5.06381">
        <ele>607</ele>
        <time>2020-02-07T11:59:23.000Z</time>
      </trkpt>
      <trkpt lat="44.77508" lon="5.06381">
        <ele>607</ele>
        <time>2020-02-07T11:59:24.000Z</time>
      </trkpt>
      <trkpt lat="44.77508" lon="5.06381">
        <ele>607</ele>
        <time>2020-02-07T11:59:25.000Z</time>
      </trkpt>
      <trkpt lat="44.77508" lon="5.06381">
        <ele>607</ele>
        <time>2020-02-07T11:59:26.000Z</time>
      </trkpt>
      <trkpt lat="44.77509" lon="5.06381">
        <ele>607</ele>
        <time>2020-02-07T11:59:27.000Z</time>
      </trkpt>
      <trkpt lat="44.77509" lon="5.06381">
        <ele>607</ele>
        <time>2020-02-07T11:59:28.000Z</time>
      </trkpt>
      <trkpt lat="44.77508" lon="5.06381">
        <ele>607</ele>
        <time>2020-02-07T11:59:29.000Z</time>
      </trkpt>
      <trkpt lat="44.77508" lon="5.06381">
        <ele>607</ele>
        <time>2020-02-07T11:59:30.000Z</time>
      </trkpt>
      <trkpt lat="44.77508" lon="5.06381">
        <ele>607</ele>
        <time>2020-02-07T11:59:31.000Z</time>
      </trkpt>
      <trkpt lat="44.77508" lon="5.06381">
        <ele>607</ele>
        <time>2020-02-07T11:59:32.000Z</time>
      </trkpt>
      <trkpt lat="44.77508" lon="5.06381">
        <ele>607</ele>
        <time>2020-02-07T11:59:33.000Z</time>
      </trkpt>
      <trkpt lat="44.77508" lon="5.06382">
        <ele>607</ele>
        <time>2020-02-07T11:59:34.000Z</time>
      </trkpt>
      <trkpt lat="44.77508" lon="5.06382">
        <ele>607</ele>
        <time>2020-02-07T11:59:35.000Z</time>
      </trkpt>
      <trkpt lat="44.77508" lon="5.06382">
        <ele>607</ele>
        <time>2020-02-07T11:59:36.000Z</time>
      </trkpt>
      <trkpt lat="44.77508" lon="5.06382">
        <ele>606</ele>
        <time>2020-02-07T11:59:37.000Z</time>
      </trkpt>
      <trkpt lat="44.77508" lon="5.06382">
        <ele>606</ele>
        <time>2020-02-07T11:59:38.000Z</time>
      </trkpt>
      <trkpt lat="44.77508" lon="5.06382">
        <ele>606</ele>
        <time>2020-02-07T11:59:39.000Z</time>
      </trkpt>
      <trkpt lat="44.77508" lon="5.06382">
        <ele>606</ele>
        <time>2020-02-07T11:59:40.000Z</time>
      </trkpt>
      <trkpt lat="44.77508" lon="5.06382">
        <ele>606</ele>
        <time>2020-02-07T11:59:41.000Z</time>
      </trkpt>
      <trkpt lat="44.77508" lon="5.06382">
        <ele>606</ele>
        <time>2020-02-07T11:59:42.000Z</time>
      </trkpt>
      <trkpt lat="44.77508" lon="5.06382">
        <ele>606</ele>
        <time>2020-02-07T11:59:43.000Z</time>
      </trkpt>
      <trkpt lat="44.77508" lon="5.06382">
        <ele>606</ele>
        <time>2020-02-07T11:59:44.000Z</time>
      </trkpt>
      <trkpt lat="44.77508" lon="5.06382">
        <ele>606</ele>
        <time>2020-02-07T11:59:45.000Z</time>
      </trkpt>
      <trkpt lat="44.77508" lon="5.06382">
        <ele>606</ele>
        <time>2020-02-07T11:59:46.000Z</time>
      </trkpt>
      <trkpt lat="44.77508" lon="5.06382">
        <ele>606</ele>
        <time>2020-02-07T11:59:47.000Z</time>
      </trkpt>
      <trkpt lat="44.77508" lon="5.06382">
        <ele>606</ele>
        <time>2020-02-07T11:59:48.000Z</time>
      </trkpt>
      <trkpt lat="44.77508" lon="5.06382">
        <ele>606</ele>
        <time>2020-02-07T11:59:49.000Z</time>
      </trkpt>
      <trkpt lat="44.77508" lon="5.06382">
        <ele>606</ele>
        <time>2020-02-07T11:59:50.000Z</time>
      </trkpt>
      <trkpt lat="44.77508" lon="5.06382">
        <ele>606</ele>
        <time>2020-02-07T11:59:51.000Z</time>
      </trkpt>
      <trkpt lat="44.77508" lon="5.06382">
        <ele>606</ele>
        <time>2020-02-07T11:59:52.000Z</time>
      </trkpt>
      <trkpt lat="44.77507" lon="5.06382">
        <ele>606</ele>
        <time>2020-02-07T11:59:53.000Z</time>
      </trkpt>
      <trkpt lat="44.77507" lon="5.06382">
        <ele>606</ele>
        <time>2020-02-07T11:59:54.000Z</time>
      </trkpt>
      <trkpt lat="44.77507" lon="5.06382">
        <ele>606</ele>
        <time>2020-02-07T11:59:55.000Z</time>
      </trkpt>
      <trkpt lat="44.77507" lon="5.06382">
        <ele>606</ele>
        <time>2020-02-07T11:59:56.000Z</time>
      </trkpt>
      <trkpt lat="44.77507" lon="5.06382">
        <ele>606</ele>
        <time>2020-02-07T11:59:57.000Z</time>
      </trkpt>
      <trkpt lat="44.77507" lon="5.06382">
        <ele>606</ele>
        <time>2020-02-07T11:59:58.000Z</time>
      </trkpt>
      <trkpt lat="44.77507" lon="5.06382">
        <ele>606</ele>
        <time>2020-02-07T11:59:59.000Z</time>
      </trkpt>
      <trkpt lat="44.77507" lon="5.06382">
        <ele>606</ele>
        <time>2020-02-07T12:00:00.000Z</time>
      </trkpt>
      <trkpt lat="44.77508" lon="5.06382">
        <ele>606</ele>
        <time>2020-02-07T12:00:01.000Z</time>
      </trkpt>
      <trkpt lat="44.77508" lon="5.06383">
        <ele>606</ele>
        <time>2020-02-07T12:00:02.000Z</time>
      </trkpt>
      <trkpt lat="44.77508" lon="5.06382">
        <ele>606</ele>
        <time>2020-02-07T12:00:03.000Z</time>
      </trkpt>
      <trkpt lat="44.77508" lon="5.06382">
        <ele>606</ele>
        <time>2020-02-07T12:00:04.000Z</time>
      </trkpt>
      <trkpt lat="44.77508" lon="5.06382">
        <ele>606</ele>
        <time>2020-02-07T12:00:05.000Z</time>
      </trkpt>
      <trkpt lat="44.77508" lon="5.06382">
        <ele>606</ele>
        <time>2020-02-07T12:00:06.000Z</time>
      </trkpt>
      <trkpt lat="44.77508" lon="5.06382">
        <ele>606</ele>
        <time>2020-02-07T12:00:07.000Z</time>
      </trkpt>
      <trkpt lat="44.77508" lon="5.06382">
        <ele>606</ele>
        <time>2020-02-07T12:00:08.000Z</time>
      </trkpt>
      <trkpt lat="44.77508" lon="5.06382">
        <ele>606</ele>
        <time>2020-02-07T12:00:09.000Z</time>
      </trkpt>
      <trkpt lat="44.77508" lon="5.06382">
        <ele>606</ele>
        <time>2020-02-07T12:00:10.000Z</time>
      </trkpt>
      <trkpt lat="44.77508" lon="5.06382">
        <ele>606</ele>
        <time>2020-02-07T12:00:11.000Z</time>
      </trkpt>
      <trkpt lat="44.77508" lon="5.06382">
        <ele>606</ele>
        <time>2020-02-07T12:00:12.000Z</time>
      </trkpt>
      <trkpt lat="44.77508" lon="5.06382">
        <ele>606</ele>
        <time>2020-02-07T12:00:13.000Z</time>
      </trkpt>
      <trkpt lat="44.77508" lon="5.06382">
        <ele>606</ele>
        <time>2020-02-07T12:00:14.000Z</time>
      </trkpt>
      <trkpt lat="44.77508" lon="5.06382">
        <ele>606</ele>
        <time>2020-02-07T12:00:15.000Z</time>
      </trkpt>
      <trkpt lat="44.77508" lon="5.06382">
        <ele>606</ele>
        <time>2020-02-07T12:00:16.000Z</time>
      </trkpt>
      <trkpt lat="44.77508" lon="5.06382">
        <ele>607</ele>
        <time>2020-02-07T12:00:17.000Z</time>
      </trkpt>
      <trkpt lat="44.77508" lon="5.06382">
        <ele>607</ele>
        <time>2020-02-07T12:00:18.000Z</time>
      </trkpt>
      <trkpt lat="44.77508" lon="5.06382">
        <ele>607</ele>
        <time>2020-02-07T12:00:19.000Z</time>
      </trkpt>
      <trkpt lat="44.77508" lon="5.06382">
        <ele>607</ele>
        <time>2020-02-07T12:00:20.000Z</time>
      </trkpt>
      <trkpt lat="44.77508" lon="5.06382">
        <ele>607</ele>
        <time>2020-02-07T12:00:21.000Z</time>
      </trkpt>
      <trkpt lat="44.77507" lon="5.06382">
        <ele>607</ele>
        <time>2020-02-07T12:00:22.000Z</time>
      </trkpt>
      <trkpt lat="44.77507" lon="5.06382">
        <ele>606</ele>
        <time>2020-02-07T12:00:23.000Z</time>
      </trkpt>
      <trkpt lat="44.77507" lon="5.06382">
        <ele>606</ele>
        <time>2020-02-07T12:00:24.000Z</time>
      </trkpt>
      <trkpt lat="44.77507" lon="5.06382">
        <ele>607</ele>
        <time>2020-02-07T12:00:25.000Z</time>
      </trkpt>
      <trkpt lat="44.77507" lon="5.06382">
        <ele>607</ele>
        <time>2020-02-07T12:00:26.000Z</time>
      </trkpt>
      <trkpt lat="44.77507" lon="5.06382">
        <ele>606</ele>
        <time>2020-02-07T12:00:27.000Z</time>
      </trkpt>
      <trkpt lat="44.77507" lon="5.06382">
        <ele>607</ele>
        <time>2020-02-07T12:00:28.000Z</time>
      </trkpt>
      <trkpt lat="44.77507" lon="5.06383">
        <ele>607</ele>
        <time>2020-02-07T12:00:29.000Z</time>
      </trkpt>
      <trkpt lat="44.77507" lon="5.06383">
        <ele>607</ele>
        <time>2020-02-07T12:00:30.000Z</time>
      </trkpt>
      <trkpt lat="44.77507" lon="5.06383">
        <ele>607</ele>
        <time>2020-02-07T12:00:31.000Z</time>
      </trkpt>
      <trkpt lat="44.77507" lon="5.06382">
        <ele>607</ele>
        <time>2020-02-07T12:00:32.000Z</time>
      </trkpt>
      <trkpt lat="44.77507" lon="5.06382">
        <ele>607</ele>
        <time>2020-02-07T12:00:33.000Z</time>
      </trkpt>
      <trkpt lat="44.77507" lon="5.06382">
        <ele>607</ele>
        <time>2020-02-07T12:00:34.000Z</time>
      </trkpt>
      <trkpt lat="44.77507" lon="5.06382">
        <ele>607</ele>
        <time>2020-02-07T12:00:35.000Z</time>
      </trkpt>
      <trkpt lat="44.77507" lon="5.06382">
        <ele>607</ele>
        <time>2020-02-07T12:00:36.000Z</time>
      </trkpt>
      <trkpt lat="44.77507" lon="5.06382">
        <ele>607</ele>
        <time>2020-02-07T12:00:37.000Z</time>
      </trkpt>
      <trkpt lat="44.77507" lon="5.06382">
        <ele>607</ele>
        <time>2020-02-07T12:00:38.000Z</time>
      </trkpt>
      <trkpt lat="44.77507" lon="5.06382">
        <ele>607</ele>
        <time>2020-02-07T12:00:39.000Z</time>
      </trkpt>
      <trkpt lat="44.77507" lon="5.06383">
        <ele>607</ele>
        <time>2020-02-07T12:00:40.000Z</time>
      </trkpt>
      <trkpt lat="44.77507" lon="5.06383">
        <ele>607</ele>
        <time>2020-02-07T12:00:41.000Z</time>
      </trkpt>
      <trkpt lat="44.77506" lon="5.06383">
        <ele>607</ele>
        <time>2020-02-07T12:00:42.000Z</time>
      </trkpt>
      <trkpt lat="44.77507" lon="5.06383">
        <ele>607</ele>
        <time>2020-02-07T12:00:43.000Z</time>
      </trkpt>
      <trkpt lat="44.77507" lon="5.06382">
        <ele>607</ele>
        <time>2020-02-07T12:00:44.000Z</time>
      </trkpt>
      <trkpt lat="44.77506" lon="5.06382">
        <ele>607</ele>
        <time>2020-02-07T12:00:45.000Z</time>
      </trkpt>
      <trkpt lat="44.77506" lon="5.06382">
        <ele>606</ele>
        <time>2020-02-07T12:00:46.000Z</time>
      </trkpt>
      <trkpt lat="44.77506" lon="5.06382">
        <ele>606</ele>
        <time>2020-02-07T12:00:47.000Z</time>
      </trkpt>
      <trkpt lat="44.77506" lon="5.06382">
        <ele>606</ele>
        <time>2020-02-07T12:00:48.000Z</time>
      </trkpt>
      <trkpt lat="44.77506" lon="5.06382">
        <ele>606</ele>
        <time>2020-02-07T12:00:49.000Z</time>
      </trkpt>
      <trkpt lat="44.77506" lon="5.06382">
        <ele>606</ele>
        <time>2020-02-07T12:00:50.000Z</time>
      </trkpt>
      <trkpt lat="44.77506" lon="5.06382">
        <ele>606</ele>
        <time>2020-02-07T12:00:51.000Z</time>
      </trkpt>
      <trkpt lat="44.77506" lon="5.06382">
        <ele>606</ele>
        <time>2020-02-07T12:00:52.000Z</time>
      </trkpt>
      <trkpt lat="44.77506" lon="5.06382">
        <ele>606</ele>
        <time>2020-02-07T12:00:53.000Z</time>
      </trkpt>
      <trkpt lat="44.77506" lon="5.06382">
        <ele>606</ele>
        <time>2020-02-07T12:00:54.000Z</time>
      </trkpt>
      <trkpt lat="44.77506" lon="5.06382">
        <ele>606</ele>
        <time>2020-02-07T12:00:55.000Z</time>
      </trkpt>
      <trkpt lat="44.77506" lon="5.06382">
        <ele>606</ele>
        <time>2020-02-07T12:00:56.000Z</time>
      </trkpt>
      <trkpt lat="44.77506" lon="5.06382">
        <ele>606</ele>
        <time>2020-02-07T12:00:57.000Z</time>
      </trkpt>
      <trkpt lat="44.77506" lon="5.06382">
        <ele>606</ele>
        <time>2020-02-07T12:00:58.000Z</time>
      </trkpt>
      <trkpt lat="44.77506" lon="5.06382">
        <ele>606</ele>
        <time>2020-02-07T12:00:59.000Z</time>
      </trkpt>
      <trkpt lat="44.77506" lon="5.06382">
        <ele>606</ele>
        <time>2020-02-07T12:01:00.000Z</time>
      </trkpt>
      <trkpt lat="44.77506" lon="5.06382">
        <ele>606</ele>
        <time>2020-02-07T12:01:01.000Z</time>
      </trkpt>
      <trkpt lat="44.77506" lon="5.06382">
        <ele>606</ele>
        <time>2020-02-07T12:01:02.000Z</time>
      </trkpt>
      <trkpt lat="44.77506" lon="5.06382">
        <ele>606</ele>
        <time>2020-02-07T12:01:03.000Z</time>
      </trkpt>
      <trkpt lat="44.77506" lon="5.06382">
        <ele>606</ele>
        <time>2020-02-07T12:01:04.000Z</time>
      </trkpt>
      <trkpt lat="44.77506" lon="5.06382">
        <ele>606</ele>
        <time>2020-02-07T12:01:05.000Z</time>
      </trkpt>
      <trkpt lat="44.77506" lon="5.06383">
        <ele>606</ele>
        <time>2020-02-07T12:01:06.000Z</time>
      </trkpt>
      <trkpt lat="44.77506" lon="5.06383">
        <ele>606</ele>
        <time>2020-02-07T12:01:07.000Z</time>
      </trkpt>
      <trkpt lat="44.77507" lon="5.06383">
        <ele>606</ele>
        <time>2020-02-07T12:01:08.000Z</time>
      </trkpt>
      <trkpt lat="44.77507" lon="5.06383">
        <ele>606</ele>
        <time>2020-02-07T12:01:09.000Z</time>
      </trkpt>
      <trkpt lat="44.77507" lon="5.06383">
        <ele>606</ele>
        <time>2020-02-07T12:01:10.000Z</time>
      </trkpt>
      <trkpt lat="44.77506" lon="5.06383">
        <ele>607</ele>
        <time>2020-02-07T12:01:11.000Z</time>
      </trkpt>
      <trkpt lat="44.77506" lon="5.06383">
        <ele>607</ele>
        <time>2020-02-07T12:01:12.000Z</time>
      </trkpt>
      <trkpt lat="44.77506" lon="5.06383">
        <ele>607</ele>
        <time>2020-02-07T12:01:13.000Z</time>
      </trkpt>
      <trkpt lat="44.77506" lon="5.06383">
        <ele>607</ele>
        <time>2020-02-07T12:01:14.000Z</time>
      </trkpt>
      <trkpt lat="44.77506" lon="5.06382">
        <ele>607</ele>
        <time>2020-02-07T12:01:15.000Z</time>
      </trkpt>
      <trkpt lat="44.77506" lon="5.06382">
        <ele>607</ele>
        <time>2020-02-07T12:01:16.000Z</time>
      </trkpt>
      <trkpt lat="44.77506" lon="5.06383">
        <ele>607</ele>
        <time>2020-02-07T12:01:17.000Z</time>
      </trkpt>
      <trkpt lat="44.77506" lon="5.06383">
        <ele>607</ele>
        <time>2020-02-07T12:01:18.000Z</time>
      </trkpt>
      <trkpt lat="44.77506" lon="5.06383">
        <ele>607</ele>
        <time>2020-02-07T12:01:19.000Z</time>
      </trkpt>
      <trkpt lat="44.77506" lon="5.06383">
        <ele>607</ele>
        <time>2020-02-07T12:01:20.000Z</time>
      </trkpt>
      <trkpt lat="44.77506" lon="5.06383">
        <ele>607</ele>
        <time>2020-02-07T12:01:21.000Z</time>
      </trkpt>
      <trkpt lat="44.77506" lon="5.06383">
        <ele>607</ele>
        <time>2020-02-07T12:01:22.000Z</time>
      </trkpt>
      <trkpt lat="44.77506" lon="5.06382">
        <ele>607</ele>
        <time>2020-02-07T12:01:23.000Z</time>
      </trkpt>
      <trkpt lat="44.77506" lon="5.06382">
        <ele>607</ele>
        <time>2020-02-07T12:01:24.000Z</time>
      </trkpt>
      <trkpt lat="44.77506" lon="5.06382">
        <ele>607</ele>
        <time>2020-02-07T12:01:25.000Z</time>
      </trkpt>
      <trkpt lat="44.77506" lon="5.06382">
        <ele>607</ele>
        <time>2020-02-07T12:01:26.000Z</time>
      </trkpt>
      <trkpt lat="44.77506" lon="5.06382">
        <ele>606</ele>
        <time>2020-02-07T12:01:27.000Z</time>
      </trkpt>
      <trkpt lat="44.77505" lon="5.06382">
        <ele>606</ele>
        <time>2020-02-07T12:01:28.000Z</time>
      </trkpt>
      <trkpt lat="44.77505" lon="5.06382">
        <ele>606</ele>
        <time>2020-02-07T12:01:29.000Z</time>
      </trkpt>
      <trkpt lat="44.77505" lon="5.06382">
        <ele>606</ele>
        <time>2020-02-07T12:01:30.000Z</time>
      </trkpt>
      <trkpt lat="44.77505" lon="5.06382">
        <ele>606</ele>
        <time>2020-02-07T12:01:31.000Z</time>
      </trkpt>
      <trkpt lat="44.77505" lon="5.06382">
        <ele>606</ele>
        <time>2020-02-07T12:01:32.000Z</time>
      </trkpt>
      <trkpt lat="44.77504" lon="5.06382">
        <ele>606</ele>
        <time>2020-02-07T12:01:33.000Z</time>
      </trkpt>
      <trkpt lat="44.77504" lon="5.06382">
        <ele>606</ele>
        <time>2020-02-07T12:01:34.000Z</time>
      </trkpt>
      <trkpt lat="44.77503" lon="5.06382">
        <ele>606</ele>
        <time>2020-02-07T12:01:35.000Z</time>
      </trkpt>
      <trkpt lat="44.77503" lon="5.06382">
        <ele>606</ele>
        <time>2020-02-07T12:01:36.000Z</time>
      </trkpt>
      <trkpt lat="44.77503" lon="5.06381">
        <ele>606</ele>
        <time>2020-02-07T12:01:37.000Z</time>
      </trkpt>
      <trkpt lat="44.77503" lon="5.06382">
        <ele>606</ele>
        <time>2020-02-07T12:01:38.000Z</time>
      </trkpt>
      <trkpt lat="44.77503" lon="5.06382">
        <ele>606</ele>
        <time>2020-02-07T12:01:39.000Z</time>
      </trkpt>
      <trkpt lat="44.77503" lon="5.06382">
        <ele>606</ele>
        <time>2020-02-07T12:01:40.000Z</time>
      </trkpt>
      <trkpt lat="44.77503" lon="5.06382">
        <ele>606</ele>
        <time>2020-02-07T12:01:41.000Z</time>
      </trkpt>
      <trkpt lat="44.77503" lon="5.06382">
        <ele>606</ele>
        <time>2020-02-07T12:01:42.000Z</time>
      </trkpt>
      <trkpt lat="44.77503" lon="5.06382">
        <ele>606</ele>
        <time>2020-02-07T12:01:43.000Z</time>
      </trkpt>
      <trkpt lat="44.77503" lon="5.06381">
        <ele>606</ele>
        <time>2020-02-07T12:01:44.000Z</time>
      </trkpt>
      <trkpt lat="44.77503" lon="5.06381">
        <ele>606</ele>
        <time>2020-02-07T12:01:45.000Z</time>
      </trkpt>
      <trkpt lat="44.77503" lon="5.06382">
        <ele>606</ele>
        <time>2020-02-07T12:01:46.000Z</time>
      </trkpt>
      <trkpt lat="44.77503" lon="5.06382">
        <ele>606</ele>
        <time>2020-02-07T12:01:47.000Z</time>
      </trkpt>
      <trkpt lat="44.77503" lon="5.06383">
        <ele>606</ele>
        <time>2020-02-07T12:01:48.000Z</time>
      </trkpt>
      <trkpt lat="44.77503" lon="5.06383">
        <ele>606</ele>
        <time>2020-02-07T12:01:49.000Z</time>
      </trkpt>
      <trkpt lat="44.77502" lon="5.06384">
        <ele>606</ele>
        <time>2020-02-07T12:01:50.000Z</time>
      </trkpt>
      <trkpt lat="44.77502" lon="5.06384">
        <ele>606</ele>
        <time>2020-02-07T12:01:51.000Z</time>
      </trkpt>
      <trkpt lat="44.77502" lon="5.06385">
        <ele>606</ele>
        <time>2020-02-07T12:01:52.000Z</time>
      </trkpt>
      <trkpt lat="44.77502" lon="5.06385">
        <ele>607</ele>
        <time>2020-02-07T12:01:53.000Z</time>
      </trkpt>
      <trkpt lat="44.77502" lon="5.06385">
        <ele>607</ele>
        <time>2020-02-07T12:01:54.000Z</time>
      </trkpt>
      <trkpt lat="44.77502" lon="5.06385">
        <ele>607</ele>
        <time>2020-02-07T12:01:55.000Z</time>
      </trkpt>
      <trkpt lat="44.77502" lon="5.06385">
        <ele>607</ele>
        <time>2020-02-07T12:01:56.000Z</time>
      </trkpt>
      <trkpt lat="44.77503" lon="5.06385">
        <ele>607</ele>
        <time>2020-02-07T12:01:57.000Z</time>
      </trkpt>
      <trkpt lat="44.77503" lon="5.06385">
        <ele>607</ele>
        <time>2020-02-07T12:01:58.000Z</time>
      </trkpt>
      <trkpt lat="44.77503" lon="5.06385">
        <ele>607</ele>
        <time>2020-02-07T12:01:59.000Z</time>
      </trkpt>
      <trkpt lat="44.77502" lon="5.06385">
        <ele>607</ele>
        <time>2020-02-07T12:02:00.000Z</time>
      </trkpt>
      <trkpt lat="44.77502" lon="5.06385">
        <ele>607</ele>
        <time>2020-02-07T12:02:01.000Z</time>
      </trkpt>
      <trkpt lat="44.77502" lon="5.06386">
        <ele>607</ele>
        <time>2020-02-07T12:02:02.000Z</time>
      </trkpt>
      <trkpt lat="44.77502" lon="5.06386">
        <ele>607</ele>
        <time>2020-02-07T12:02:03.000Z</time>
      </trkpt>
      <trkpt lat="44.77502" lon="5.06386">
        <ele>607</ele>
        <time>2020-02-07T12:02:04.000Z</time>
      </trkpt>
      <trkpt lat="44.77502" lon="5.06386">
        <ele>607</ele>
        <time>2020-02-07T12:02:05.000Z</time>
      </trkpt>
      <trkpt lat="44.77502" lon="5.06386">
        <ele>607</ele>
        <time>2020-02-07T12:02:06.000Z</time>
      </trkpt>
      <trkpt lat="44.77502" lon="5.06386">
        <ele>607</ele>
        <time>2020-02-07T12:02:07.000Z</time>
      </trkpt>
      <trkpt lat="44.77502" lon="5.06386">
        <ele>607</ele>
        <time>2020-02-07T12:02:08.000Z</time>
      </trkpt>
      <trkpt lat="44.77502" lon="5.06386">
        <ele>607</ele>
        <time>2020-02-07T12:02:09.000Z</time>
      </trkpt>
      <trkpt lat="44.77502" lon="5.06386">
        <ele>607</ele>
        <time>2020-02-07T12:02:10.000Z</time>
      </trkpt>
      <trkpt lat="44.77502" lon="5.06386">
        <ele>607</ele>
        <time>2020-02-07T12:02:11.000Z</time>
      </trkpt>
      <trkpt lat="44.77502" lon="5.06386">
        <ele>607</ele>
        <time>2020-02-07T12:02:12.000Z</time>
      </trkpt>
      <trkpt lat="44.77502" lon="5.06386">
        <ele>607</ele>
        <time>2020-02-07T12:02:13.000Z</time>
      </trkpt>
      <trkpt lat="44.77502" lon="5.06386">
        <ele>607</ele>
        <time>2020-02-07T12:02:14.000Z</time>
      </trkpt>
      <trkpt lat="44.77502" lon="5.06386">
        <ele>607</ele>
        <time>2020-02-07T12:02:15.000Z</time>
      </trkpt>
      <trkpt lat="44.77502" lon="5.06386">
        <ele>607</ele>
        <time>2020-02-07T12:02:16.000Z</time>
      </trkpt>
      <trkpt lat="44.77502" lon="5.06386">
        <ele>607</ele>
        <time>2020-02-07T12:02:17.000Z</time>
      </trkpt>
      <trkpt lat="44.77502" lon="5.06386">
        <ele>607</ele>
        <time>2020-02-07T12:02:18.000Z</time>
      </trkpt>
      <trkpt lat="44.77502" lon="5.06386">
        <ele>607</ele>
        <time>2020-02-07T12:02:19.000Z</time>
      </trkpt>
      <trkpt lat="44.77502" lon="5.06386">
        <ele>607</ele>
        <time>2020-02-07T12:02:20.000Z</time>
      </trkpt>
      <trkpt lat="44.77502" lon="5.06386">
        <ele>607</ele>
        <time>2020-02-07T12:02:21.000Z</time>
      </trkpt>
      <trkpt lat="44.77502" lon="5.06386">
        <ele>607</ele>
        <time>2020-02-07T12:02:22.000Z</time>
      </trkpt>
      <trkpt lat="44.77502" lon="5.06386">
        <ele>607</ele>
        <time>2020-02-07T12:02:23.000Z</time>
      </trkpt>
      <trkpt lat="44.77502" lon="5.06386">
        <ele>607</ele>
        <time>2020-02-07T12:02:24.000Z</time>
      </trkpt>
      <trkpt lat="44.77502" lon="5.06386">
        <ele>607</ele>
        <time>2020-02-07T12:02:25.000Z</time>
      </trkpt>
      <trkpt lat="44.77502" lon="5.06386">
        <ele>607</ele>
        <time>2020-02-07T12:02:26.000Z</time>
      </trkpt>
      <trkpt lat="44.77502" lon="5.06386">
        <ele>607</ele>
        <time>2020-02-07T12:02:27.000Z</time>
      </trkpt>
      <trkpt lat="44.77502" lon="5.06386">
        <ele>607</ele>
        <time>2020-02-07T12:02:28.000Z</time>
      </trkpt>
      <trkpt lat="44.77502" lon="5.06386">
        <ele>607</ele>
        <time>2020-02-07T12:02:29.000Z</time>
      </trkpt>
      <trkpt lat="44.77502" lon="5.06386">
        <ele>607</ele>
        <time>2020-02-07T12:02:30.000Z</time>
      </trkpt>
      <trkpt lat="44.77502" lon="5.06386">
        <ele>607</ele>
        <time>2020-02-07T12:02:31.000Z</time>
      </trkpt>
      <trkpt lat="44.77502" lon="5.06386">
        <ele>607</ele>
        <time>2020-02-07T12:02:32.000Z</time>
      </trkpt>
      <trkpt lat="44.77502" lon="5.06386">
        <ele>607</ele>
        <time>2020-02-07T12:02:33.000Z</time>
      </trkpt>
      <trkpt lat="44.77501" lon="5.06386">
        <ele>607</ele>
        <time>2020-02-07T12:02:34.000Z</time>
      </trkpt>
      <trkpt lat="44.77501" lon="5.06386">
        <ele>607</ele>
        <time>2020-02-07T12:02:35.000Z</time>
      </trkpt>
      <trkpt lat="44.77501" lon="5.06385">
        <ele>607</ele>
        <time>2020-02-07T12:02:36.000Z</time>
      </trkpt>
      <trkpt lat="44.775" lon="5.06385">
        <ele>608</ele>
        <time>2020-02-07T12:02:37.000Z</time>
      </trkpt>
      <trkpt lat="44.775" lon="5.06385">
        <ele>608</ele>
        <time>2020-02-07T12:02:38.000Z</time>
      </trkpt>
      <trkpt lat="44.775" lon="5.06385">
        <ele>608</ele>
        <time>2020-02-07T12:02:39.000Z</time>
      </trkpt>
      <trkpt lat="44.775" lon="5.06385">
        <ele>608</ele>
        <time>2020-02-07T12:02:40.000Z</time>
      </trkpt>
      <trkpt lat="44.775" lon="5.06385">
        <ele>608</ele>
        <time>2020-02-07T12:02:41.000Z</time>
      </trkpt>
      <trkpt lat="44.775" lon="5.06385">
        <ele>608</ele>
        <time>2020-02-07T12:02:42.000Z</time>
      </trkpt>
      <trkpt lat="44.775" lon="5.06385">
        <ele>608</ele>
        <time>2020-02-07T12:02:43.000Z</time>
      </trkpt>
      <trkpt lat="44.775" lon="5.06385">
        <ele>608</ele>
        <time>2020-02-07T12:02:44.000Z</time>
      </trkpt>
      <trkpt lat="44.775" lon="5.06385">
        <ele>608</ele>
        <time>2020-02-07T12:02:45.000Z</time>
      </trkpt>
      <trkpt lat="44.775" lon="5.06385">
        <ele>608</ele>
        <time>2020-02-07T12:02:46.000Z</time>
      </trkpt>
      <trkpt lat="44.775" lon="5.06385">
        <ele>608</ele>
        <time>2020-02-07T12:02:47.000Z</time>
      </trkpt>
      <trkpt lat="44.775" lon="5.06385">
        <ele>608</ele>
        <time>2020-02-07T12:02:48.000Z</time>
      </trkpt>
      <trkpt lat="44.775" lon="5.06386">
        <ele>608</ele>
        <time>2020-02-07T12:02:49.000Z</time>
      </trkpt>
      <trkpt lat="44.775" lon="5.06386">
        <ele>608</ele>
        <time>2020-02-07T12:02:50.000Z</time>
      </trkpt>
      <trkpt lat="44.775" lon="5.06386">
        <ele>608</ele>
        <time>2020-02-07T12:02:51.000Z</time>
      </trkpt>
      <trkpt lat="44.775" lon="5.06386">
        <ele>608</ele>
        <time>2020-02-07T12:02:52.000Z</time>
      </trkpt>
      <trkpt lat="44.775" lon="5.06386">
        <ele>608</ele>
        <time>2020-02-07T12:02:53.000Z</time>
      </trkpt>
      <trkpt lat="44.775" lon="5.06386">
        <ele>608</ele>
        <time>2020-02-07T12:02:54.000Z</time>
      </trkpt>
      <trkpt lat="44.775" lon="5.06386">
        <ele>608</ele>
        <time>2020-02-07T12:02:55.000Z</time>
      </trkpt>
      <trkpt lat="44.775" lon="5.06386">
        <ele>608</ele>
        <time>2020-02-07T12:02:56.000Z</time>
      </trkpt>
      <trkpt lat="44.775" lon="5.06386">
        <ele>608</ele>
        <time>2020-02-07T12:02:57.000Z</time>
      </trkpt>
      <trkpt lat="44.775" lon="5.06386">
        <ele>608</ele>
        <time>2020-02-07T12:02:58.000Z</time>
      </trkpt>
      <trkpt lat="44.775" lon="5.06386">
        <ele>608</ele>
        <time>2020-02-07T12:02:59.000Z</time>
      </trkpt>
      <trkpt lat="44.775" lon="5.06386">
        <ele>608</ele>
        <time>2020-02-07T12:03:00.000Z</time>
      </trkpt>
      <trkpt lat="44.775" lon="5.06386">
        <ele>608</ele>
        <time>2020-02-07T12:03:01.000Z</time>
      </trkpt>
      <trkpt lat="44.775" lon="5.06386">
        <ele>608</ele>
        <time>2020-02-07T12:03:02.000Z</time>
      </trkpt>
      <trkpt lat="44.775" lon="5.06386">
        <ele>608</ele>
        <time>2020-02-07T12:03:03.000Z</time>
      </trkpt>
      <trkpt lat="44.775" lon="5.06386">
        <ele>608</ele>
        <time>2020-02-07T12:03:04.000Z</time>
      </trkpt>
      <trkpt lat="44.775" lon="5.06386">
        <ele>608</ele>
        <time>2020-02-07T12:03:05.000Z</time>
      </trkpt>
      <trkpt lat="44.775" lon="5.06386">
        <ele>608</ele>
        <time>2020-02-07T12:03:06.000Z</time>
      </trkpt>
      <trkpt lat="44.775" lon="5.06386">
        <ele>608</ele>
        <time>2020-02-07T12:03:07.000Z</time>
      </trkpt>
      <trkpt lat="44.775" lon="5.06386">
        <ele>608</ele>
        <time>2020-02-07T12:03:08.000Z</time>
      </trkpt>
      <trkpt lat="44.775" lon="5.06386">
        <ele>608</ele>
        <time>2020-02-07T12:03:09.000Z</time>
      </trkpt>
      <trkpt lat="44.775" lon="5.06386">
        <ele>608</ele>
        <time>2020-02-07T12:03:10.000Z</time>
      </trkpt>
      <trkpt lat="44.775" lon="5.06387">
        <ele>608</ele>
        <time>2020-02-07T12:03:11.000Z</time>
      </trkpt>
      <trkpt lat="44.775" lon="5.06387">
        <ele>608</ele>
        <time>2020-02-07T12:03:12.000Z</time>
      </trkpt>
      <trkpt lat="44.775" lon="5.06387">
        <ele>608</ele>
        <time>2020-02-07T12:03:13.000Z</time>
      </trkpt>
      <trkpt lat="44.775" lon="5.06387">
        <ele>608</ele>
        <time>2020-02-07T12:03:14.000Z</time>
      </trkpt>
      <trkpt lat="44.775" lon="5.06387">
        <ele>608</ele>
        <time>2020-02-07T12:03:15.000Z</time>
      </trkpt>
      <trkpt lat="44.775" lon="5.06387">
        <ele>608</ele>
        <time>2020-02-07T12:03:16.000Z</time>
      </trkpt>
      <trkpt lat="44.775" lon="5.06387">
        <ele>608</ele>
        <time>2020-02-07T12:03:17.000Z</time>
      </trkpt>
      <trkpt lat="44.775" lon="5.06387">
        <ele>608</ele>
        <time>2020-02-07T12:03:18.000Z</time>
      </trkpt>
      <trkpt lat="44.775" lon="5.06387">
        <ele>608</ele>
        <time>2020-02-07T12:03:19.000Z</time>
      </trkpt>
      <trkpt lat="44.775" lon="5.06388">
        <ele>608</ele>
        <time>2020-02-07T12:03:20.000Z</time>
      </trkpt>
      <trkpt lat="44.77499" lon="5.06388">
        <ele>608</ele>
        <time>2020-02-07T12:03:21.000Z</time>
      </trkpt>
      <trkpt lat="44.77499" lon="5.06388">
        <ele>608</ele>
        <time>2020-02-07T12:03:22.000Z</time>
      </trkpt>
      <trkpt lat="44.775" lon="5.06387">
        <ele>608</ele>
        <time>2020-02-07T12:03:23.000Z</time>
      </trkpt>
      <trkpt lat="44.775" lon="5.06387">
        <ele>608</ele>
        <time>2020-02-07T12:03:24.000Z</time>
      </trkpt>
      <trkpt lat="44.775" lon="5.06387">
        <ele>608</ele>
        <time>2020-02-07T12:03:25.000Z</time>
      </trkpt>
      <trkpt lat="44.77499" lon="5.06388">
        <ele>608</ele>
        <time>2020-02-07T12:03:26.000Z</time>
      </trkpt>
      <trkpt lat="44.77499" lon="5.06388">
        <ele>608</ele>
        <time>2020-02-07T12:03:27.000Z</time>
      </trkpt>
      <trkpt lat="44.77499" lon="5.06388">
        <ele>608</ele>
        <time>2020-02-07T12:03:28.000Z</time>
      </trkpt>
      <trkpt lat="44.77499" lon="5.06388">
        <ele>608</ele>
        <time>2020-02-07T12:03:29.000Z</time>
      </trkpt>
      <trkpt lat="44.77499" lon="5.06388">
        <ele>608</ele>
        <time>2020-02-07T12:03:30.000Z</time>
      </trkpt>
      <trkpt lat="44.77499" lon="5.06388">
        <ele>608</ele>
        <time>2020-02-07T12:03:31.000Z</time>
      </trkpt>
      <trkpt lat="44.77499" lon="5.06388">
        <ele>608</ele>
        <time>2020-02-07T12:03:32.000Z</time>
      </trkpt>
      <trkpt lat="44.77499" lon="5.06388">
        <ele>608</ele>
        <time>2020-02-07T12:03:33.000Z</time>
      </trkpt>
      <trkpt lat="44.77499" lon="5.06388">
        <ele>608</ele>
        <time>2020-02-07T12:03:34.000Z</time>
      </trkpt>
      <trkpt lat="44.77499" lon="5.06388">
        <ele>608</ele>
        <time>2020-02-07T12:03:35.000Z</time>
      </trkpt>
      <trkpt lat="44.77499" lon="5.06388">
        <ele>608</ele>
        <time>2020-02-07T12:03:36.000Z</time>
      </trkpt>
      <trkpt lat="44.77499" lon="5.06388">
        <ele>608</ele>
        <time>2020-02-07T12:03:37.000Z</time>
      </trkpt>
      <trkpt lat="44.77499" lon="5.06388">
        <ele>608</ele>
        <time>2020-02-07T12:03:38.000Z</time>
      </trkpt>
      <trkpt lat="44.77499" lon="5.06388">
        <ele>608</ele>
        <time>2020-02-07T12:03:39.000Z</time>
      </trkpt>
      <trkpt lat="44.77499" lon="5.06388">
        <ele>608</ele>
        <time>2020-02-07T12:03:40.000Z</time>
      </trkpt>
      <trkpt lat="44.77499" lon="5.06388">
        <ele>608</ele>
        <time>2020-02-07T12:03:41.000Z</time>
      </trkpt>
      <trkpt lat="44.77499" lon="5.06388">
        <ele>608</ele>
        <time>2020-02-07T12:03:42.000Z</time>
      </trkpt>
      <trkpt lat="44.77499" lon="5.06388">
        <ele>608</ele>
        <time>2020-02-07T12:03:43.000Z</time>
      </trkpt>
      <trkpt lat="44.77499" lon="5.06388">
        <ele>608</ele>
        <time>2020-02-07T12:03:44.000Z</time>
      </trkpt>
      <trkpt lat="44.77499" lon="5.06388">
        <ele>608</ele>
        <time>2020-02-07T12:03:45.000Z</time>
      </trkpt>
      <trkpt lat="44.77499" lon="5.06388">
        <ele>608</ele>
        <time>2020-02-07T12:03:46.000Z</time>
      </trkpt>
      <trkpt lat="44.77499" lon="5.06388">
        <ele>608</ele>
        <time>2020-02-07T12:03:47.000Z</time>
      </trkpt>
      <trkpt lat="44.77499" lon="5.06388">
        <ele>608</ele>
        <time>2020-02-07T12:03:48.000Z</time>
      </trkpt>
      <trkpt lat="44.77499" lon="5.06388">
        <ele>608</ele>
        <time>2020-02-07T12:03:49.000Z</time>
      </trkpt>
      <trkpt lat="44.77499" lon="5.06388">
        <ele>608</ele>
        <time>2020-02-07T12:03:50.000Z</time>
      </trkpt>
      <trkpt lat="44.77499" lon="5.06388">
        <ele>608</ele>
        <time>2020-02-07T12:03:51.000Z</time>
      </trkpt>
      <trkpt lat="44.77499" lon="5.06388">
        <ele>608</ele>
        <time>2020-02-07T12:03:52.000Z</time>
      </trkpt>
      <trkpt lat="44.77499" lon="5.06388">
        <ele>608</ele>
        <time>2020-02-07T12:03:53.000Z</time>
      </trkpt>
      <trkpt lat="44.77499" lon="5.06388">
        <ele>608</ele>
        <time>2020-02-07T12:03:54.000Z</time>
      </trkpt>
      <trkpt lat="44.77499" lon="5.06388">
        <ele>608</ele>
        <time>2020-02-07T12:03:55.000Z</time>
      </trkpt>
      <trkpt lat="44.77499" lon="5.06388">
        <ele>609</ele>
        <time>2020-02-07T12:03:56.000Z</time>
      </trkpt>
      <trkpt lat="44.77499" lon="5.06388">
        <ele>609</ele>
        <time>2020-02-07T12:03:57.000Z</time>
      </trkpt>
      <trkpt lat="44.77499" lon="5.06388">
        <ele>609</ele>
        <time>2020-02-07T12:03:58.000Z</time>
      </trkpt>
      <trkpt lat="44.77499" lon="5.06388">
        <ele>609</ele>
        <time>2020-02-07T12:03:59.000Z</time>
      </trkpt>
      <trkpt lat="44.77499" lon="5.06388">
        <ele>609</ele>
        <time>2020-02-07T12:04:00.000Z</time>
      </trkpt>
      <trkpt lat="44.77499" lon="5.06388">
        <ele>609</ele>
        <time>2020-02-07T12:04:01.000Z</time>
      </trkpt>
      <trkpt lat="44.77499" lon="5.06389">
        <ele>609</ele>
        <time>2020-02-07T12:04:02.000Z</time>
      </trkpt>
      <trkpt lat="44.77499" lon="5.06389">
        <ele>609</ele>
        <time>2020-02-07T12:04:03.000Z</time>
      </trkpt>
      <trkpt lat="44.77498" lon="5.06389">
        <ele>609</ele>
        <time>2020-02-07T12:04:04.000Z</time>
      </trkpt>
      <trkpt lat="44.77498" lon="5.06389">
        <ele>609</ele>
        <time>2020-02-07T12:04:05.000Z</time>
      </trkpt>
      <trkpt lat="44.77497" lon="5.06389">
        <ele>609</ele>
        <time>2020-02-07T12:04:06.000Z</time>
      </trkpt>
      <trkpt lat="44.77497" lon="5.06389">
        <ele>609</ele>
        <time>2020-02-07T12:04:07.000Z</time>
      </trkpt>
      <trkpt lat="44.77497" lon="5.06389">
        <ele>609</ele>
        <time>2020-02-07T12:04:08.000Z</time>
      </trkpt>
      <trkpt lat="44.77497" lon="5.06389">
        <ele>609</ele>
        <time>2020-02-07T12:04:09.000Z</time>
      </trkpt>
      <trkpt lat="44.77497" lon="5.06389">
        <ele>609</ele>
        <time>2020-02-07T12:04:10.000Z</time>
      </trkpt>
      <trkpt lat="44.77497" lon="5.06389">
        <ele>609</ele>
        <time>2020-02-07T12:04:11.000Z</time>
      </trkpt>
      <trkpt lat="44.77497" lon="5.06389">
        <ele>609</ele>
        <time>2020-02-07T12:04:12.000Z</time>
      </trkpt>
      <trkpt lat="44.77497" lon="5.06389">
        <ele>609</ele>
        <time>2020-02-07T12:04:13.000Z</time>
      </trkpt>
      <trkpt lat="44.77497" lon="5.06389">
        <ele>609</ele>
        <time>2020-02-07T12:04:14.000Z</time>
      </trkpt>
      <trkpt lat="44.77497" lon="5.06389">
        <ele>609</ele>
        <time>2020-02-07T12:04:15.000Z</time>
      </trkpt>
      <trkpt lat="44.77497" lon="5.06388">
        <ele>609</ele>
        <time>2020-02-07T12:04:16.000Z</time>
      </trkpt>
      <trkpt lat="44.77497" lon="5.06388">
        <ele>609</ele>
        <time>2020-02-07T12:04:17.000Z</time>
      </trkpt>
      <trkpt lat="44.77497" lon="5.06388">
        <ele>609</ele>
        <time>2020-02-07T12:04:18.000Z</time>
      </trkpt>
      <trkpt lat="44.77497" lon="5.06388">
        <ele>609</ele>
        <time>2020-02-07T12:04:19.000Z</time>
      </trkpt>
      <trkpt lat="44.77497" lon="5.06388">
        <ele>609</ele>
        <time>2020-02-07T12:04:20.000Z</time>
      </trkpt>
      <trkpt lat="44.77497" lon="5.06388">
        <ele>609</ele>
        <time>2020-02-07T12:04:21.000Z</time>
      </trkpt>
      <trkpt lat="44.77497" lon="5.06387">
        <ele>609</ele>
        <time>2020-02-07T12:04:22.000Z</time>
      </trkpt>
      <trkpt lat="44.77497" lon="5.06386">
        <ele>609</ele>
        <time>2020-02-07T12:04:23.000Z</time>
      </trkpt>
      <trkpt lat="44.77497" lon="5.06385">
        <ele>609</ele>
        <time>2020-02-07T12:04:24.000Z</time>
      </trkpt>
      <trkpt lat="44.77497" lon="5.06384">
        <ele>609</ele>
        <time>2020-02-07T12:04:25.000Z</time>
      </trkpt>
      <trkpt lat="44.77497" lon="5.06383">
        <ele>609</ele>
        <time>2020-02-07T12:04:26.000Z</time>
      </trkpt>
      <trkpt lat="44.77497" lon="5.06382">
        <ele>608</ele>
        <time>2020-02-07T12:04:27.000Z</time>
      </trkpt>
      <trkpt lat="44.77497" lon="5.06381">
        <ele>608</ele>
        <time>2020-02-07T12:04:28.000Z</time>
      </trkpt>
      <trkpt lat="44.77497" lon="5.06381">
        <ele>608</ele>
        <time>2020-02-07T12:04:29.000Z</time>
      </trkpt>
      <trkpt lat="44.77497" lon="5.06381">
        <ele>608</ele>
        <time>2020-02-07T12:04:30.000Z</time>
      </trkpt>
      <trkpt lat="44.77497" lon="5.06381">
        <ele>608</ele>
        <time>2020-02-07T12:04:31.000Z</time>
      </trkpt>
      <trkpt lat="44.77497" lon="5.0638">
        <ele>608</ele>
        <time>2020-02-07T12:04:32.000Z</time>
      </trkpt>
      <trkpt lat="44.77497" lon="5.06379">
        <ele>608</ele>
        <time>2020-02-07T12:04:33.000Z</time>
      </trkpt>
      <trkpt lat="44.77497" lon="5.06378">
        <ele>608</ele>
        <time>2020-02-07T12:04:34.000Z</time>
      </trkpt>
      <trkpt lat="44.77497" lon="5.06377">
        <ele>608</ele>
        <time>2020-02-07T12:04:35.000Z</time>
      </trkpt>
      <trkpt lat="44.77498" lon="5.06376">
        <ele>608</ele>
        <time>2020-02-07T12:04:36.000Z</time>
      </trkpt>
      <trkpt lat="44.77498" lon="5.06376">
        <ele>608</ele>
        <time>2020-02-07T12:04:37.000Z</time>
      </trkpt>
      <trkpt lat="44.77498" lon="5.06375">
        <ele>608</ele>
        <time>2020-02-07T12:04:38.000Z</time>
      </trkpt>
      <trkpt lat="44.77498" lon="5.06375">
        <ele>608</ele>
        <time>2020-02-07T12:04:39.000Z</time>
      </trkpt>
      <trkpt lat="44.77498" lon="5.06374">
        <ele>608</ele>
        <time>2020-02-07T12:04:40.000Z</time>
      </trkpt>
      <trkpt lat="44.77498" lon="5.06374">
        <ele>609</ele>
        <time>2020-02-07T12:04:41.000Z</time>
      </trkpt>
      <trkpt lat="44.77498" lon="5.06372">
        <ele>609</ele>
        <time>2020-02-07T12:04:42.000Z</time>
      </trkpt>
      <trkpt lat="44.77497" lon="5.06371">
        <ele>609</ele>
        <time>2020-02-07T12:04:43.000Z</time>
      </trkpt>
      <trkpt lat="44.77497" lon="5.06371">
        <ele>609</ele>
        <time>2020-02-07T12:04:44.000Z</time>
      </trkpt>
      <trkpt lat="44.77497" lon="5.06371">
        <ele>609</ele>
        <time>2020-02-07T12:04:45.000Z</time>
      </trkpt>
      <trkpt lat="44.77497" lon="5.0637">
        <ele>609</ele>
        <time>2020-02-07T12:04:46.000Z</time>
      </trkpt>
      <trkpt lat="44.77498" lon="5.06369">
        <ele>609</ele>
        <time>2020-02-07T12:04:47.000Z</time>
      </trkpt>
      <trkpt lat="44.77498" lon="5.06368">
        <ele>609</ele>
        <time>2020-02-07T12:04:48.000Z</time>
      </trkpt>
      <trkpt lat="44.77498" lon="5.06366">
        <ele>609</ele>
        <time>2020-02-07T12:04:49.000Z</time>
      </trkpt>
      <trkpt lat="44.77498" lon="5.06365">
        <ele>608</ele>
        <time>2020-02-07T12:04:50.000Z</time>
      </trkpt>
      <trkpt lat="44.77499" lon="5.06364">
        <ele>608</ele>
        <time>2020-02-07T12:04:51.000Z</time>
      </trkpt>
      <trkpt lat="44.77499" lon="5.06363">
        <ele>608</ele>
        <time>2020-02-07T12:04:52.000Z</time>
      </trkpt>
      <trkpt lat="44.77499" lon="5.06361">
        <ele>608</ele>
        <time>2020-02-07T12:04:53.000Z</time>
      </trkpt>
      <trkpt lat="44.77499" lon="5.0636">
        <ele>608</ele>
        <time>2020-02-07T12:04:54.000Z</time>
      </trkpt>
      <trkpt lat="44.77499" lon="5.06359">
        <ele>608</ele>
        <time>2020-02-07T12:04:55.000Z</time>
      </trkpt>
      <trkpt lat="44.775" lon="5.06359">
        <ele>608</ele>
        <time>2020-02-07T12:04:56.000Z</time>
      </trkpt>
      <trkpt lat="44.775" lon="5.06358">
        <ele>607</ele>
        <time>2020-02-07T12:04:57.000Z</time>
      </trkpt>
      <trkpt lat="44.775" lon="5.06358">
        <ele>608</ele>
        <time>2020-02-07T12:04:58.000Z</time>
      </trkpt>
      <trkpt lat="44.775" lon="5.06358">
        <ele>608</ele>
        <time>2020-02-07T12:04:59.000Z</time>
      </trkpt>
      <trkpt lat="44.775" lon="5.06358">
        <ele>607</ele>
        <time>2020-02-07T12:05:00.000Z</time>
      </trkpt>
      <trkpt lat="44.775" lon="5.06358">
        <ele>607</ele>
        <time>2020-02-07T12:05:01.000Z</time>
      </trkpt>
      <trkpt lat="44.775" lon="5.06358">
        <ele>607</ele>
        <time>2020-02-07T12:05:02.000Z</time>
      </trkpt>
      <trkpt lat="44.775" lon="5.06358">
        <ele>607</ele>
        <time>2020-02-07T12:05:03.000Z</time>
      </trkpt>
      <trkpt lat="44.77501" lon="5.06357">
        <ele>607</ele>
        <time>2020-02-07T12:05:04.000Z</time>
      </trkpt>
      <trkpt lat="44.77501" lon="5.06357">
        <ele>607</ele>
        <time>2020-02-07T12:05:05.000Z</time>
      </trkpt>
      <trkpt lat="44.77502" lon="5.06356">
        <ele>607</ele>
        <time>2020-02-07T12:05:06.000Z</time>
      </trkpt>
      <trkpt lat="44.77502" lon="5.06356">
        <ele>607</ele>
        <time>2020-02-07T12:05:07.000Z</time>
      </trkpt>
      <trkpt lat="44.77503" lon="5.06355">
        <ele>607</ele>
        <time>2020-02-07T12:05:08.000Z</time>
      </trkpt>
      <trkpt lat="44.77504" lon="5.06355">
        <ele>607</ele>
        <time>2020-02-07T12:05:09.000Z</time>
      </trkpt>
      <trkpt lat="44.77504" lon="5.06355">
        <ele>606</ele>
        <time>2020-02-07T12:05:10.000Z</time>
      </trkpt>
      <trkpt lat="44.77505" lon="5.06355">
        <ele>606</ele>
        <time>2020-02-07T12:05:11.000Z</time>
      </trkpt>
      <trkpt lat="44.77505" lon="5.06355">
        <ele>606</ele>
        <time>2020-02-07T12:05:12.000Z</time>
      </trkpt>
      <trkpt lat="44.77506" lon="5.06355">
        <ele>606</ele>
        <time>2020-02-07T12:05:13.000Z</time>
      </trkpt>
      <trkpt lat="44.77507" lon="5.06356">
        <ele>606</ele>
        <time>2020-02-07T12:05:14.000Z</time>
      </trkpt>
      <trkpt lat="44.77507" lon="5.06356">
        <ele>605</ele>
        <time>2020-02-07T12:05:15.000Z</time>
      </trkpt>
      <trkpt lat="44.77508" lon="5.06357">
        <ele>605</ele>
        <time>2020-02-07T12:05:16.000Z</time>
      </trkpt>
      <trkpt lat="44.77509" lon="5.06357">
        <ele>605</ele>
        <time>2020-02-07T12:05:17.000Z</time>
      </trkpt>
      <trkpt lat="44.77509" lon="5.06357">
        <ele>605</ele>
        <time>2020-02-07T12:05:18.000Z</time>
      </trkpt>
      <trkpt lat="44.7751" lon="5.06358">
        <ele>605</ele>
        <time>2020-02-07T12:05:19.000Z</time>
      </trkpt>
      <trkpt lat="44.77511" lon="5.06359">
        <ele>605</ele>
        <time>2020-02-07T12:05:20.000Z</time>
      </trkpt>
      <trkpt lat="44.77512" lon="5.0636">
        <ele>605</ele>
        <time>2020-02-07T12:05:21.000Z</time>
      </trkpt>
      <trkpt lat="44.77513" lon="5.0636">
        <ele>605</ele>
        <time>2020-02-07T12:05:22.000Z</time>
      </trkpt>
      <trkpt lat="44.77514" lon="5.06361">
        <ele>605</ele>
        <time>2020-02-07T12:05:23.000Z</time>
      </trkpt>
      <trkpt lat="44.77514" lon="5.06361">
        <ele>605</ele>
        <time>2020-02-07T12:05:24.000Z</time>
      </trkpt>
      <trkpt lat="44.77515" lon="5.06362">
        <ele>605</ele>
        <time>2020-02-07T12:05:25.000Z</time>
      </trkpt>
      <trkpt lat="44.77516" lon="5.06363">
        <ele>605</ele>
        <time>2020-02-07T12:05:26.000Z</time>
      </trkpt>
      <trkpt lat="44.77517" lon="5.06363">
        <ele>605</ele>
        <time>2020-02-07T12:05:27.000Z</time>
      </trkpt>
      <trkpt lat="44.77518" lon="5.06364">
        <ele>605</ele>
        <time>2020-02-07T12:05:28.000Z</time>
      </trkpt>
      <trkpt lat="44.7752" lon="5.06365">
        <ele>605</ele>
        <time>2020-02-07T12:05:29.000Z</time>
      </trkpt>
      <trkpt lat="44.77521" lon="5.06365">
        <ele>605</ele>
        <time>2020-02-07T12:05:30.000Z</time>
      </trkpt>
      <trkpt lat="44.77522" lon="5.06365">
        <ele>605</ele>
        <time>2020-02-07T12:05:31.000Z</time>
      </trkpt>
      <trkpt lat="44.77523" lon="5.06366">
        <ele>605</ele>
        <time>2020-02-07T12:05:32.000Z</time>
      </trkpt>
      <trkpt lat="44.77524" lon="5.06367">
        <ele>605</ele>
        <time>2020-02-07T12:05:33.000Z</time>
      </trkpt>
      <trkpt lat="44.77525" lon="5.06367">
        <ele>605</ele>
        <time>2020-02-07T12:05:34.000Z</time>
      </trkpt>
      <trkpt lat="44.77526" lon="5.06367">
        <ele>604</ele>
        <time>2020-02-07T12:05:35.000Z</time>
      </trkpt>
      <trkpt lat="44.77526" lon="5.06367">
        <ele>604</ele>
        <time>2020-02-07T12:05:36.000Z</time>
      </trkpt>
      <trkpt lat="44.77527" lon="5.06367">
        <ele>604</ele>
        <time>2020-02-07T12:05:37.000Z</time>
      </trkpt>
      <trkpt lat="44.77528" lon="5.06368">
        <ele>604</ele>
        <time>2020-02-07T12:05:38.000Z</time>
      </trkpt>
      <trkpt lat="44.77529" lon="5.06368">
        <ele>604</ele>
        <time>2020-02-07T12:05:39.000Z</time>
      </trkpt>
      <trkpt lat="44.7753" lon="5.06369">
        <ele>604</ele>
        <time>2020-02-07T12:05:40.000Z</time>
      </trkpt>
      <trkpt lat="44.77531" lon="5.0637">
        <ele>604</ele>
        <time>2020-02-07T12:05:41.000Z</time>
      </trkpt>
      <trkpt lat="44.77532" lon="5.0637">
        <ele>604</ele>
        <time>2020-02-07T12:05:42.000Z</time>
      </trkpt>
      <trkpt lat="44.77533" lon="5.0637">
        <ele>604</ele>
        <time>2020-02-07T12:05:43.000Z</time>
      </trkpt>
      <trkpt lat="44.77533" lon="5.0637">
        <ele>603</ele>
        <time>2020-02-07T12:05:44.000Z</time>
      </trkpt>
      <trkpt lat="44.77534" lon="5.0637">
        <ele>603</ele>
        <time>2020-02-07T12:05:45.000Z</time>
      </trkpt>
      <trkpt lat="44.77535" lon="5.0637">
        <ele>603</ele>
        <time>2020-02-07T12:05:46.000Z</time>
      </trkpt>
      <trkpt lat="44.77536" lon="5.0637">
        <ele>603</ele>
        <time>2020-02-07T12:05:47.000Z</time>
      </trkpt>
      <trkpt lat="44.77536" lon="5.0637">
        <ele>603</ele>
        <time>2020-02-07T12:05:48.000Z</time>
      </trkpt>
      <trkpt lat="44.77537" lon="5.0637">
        <ele>602</ele>
        <time>2020-02-07T12:05:49.000Z</time>
      </trkpt>
      <trkpt lat="44.77538" lon="5.0637">
        <ele>602</ele>
        <time>2020-02-07T12:05:50.000Z</time>
      </trkpt>
      <trkpt lat="44.77539" lon="5.06369">
        <ele>602</ele>
        <time>2020-02-07T12:05:51.000Z</time>
      </trkpt>
      <trkpt lat="44.7754" lon="5.06369">
        <ele>602</ele>
        <time>2020-02-07T12:05:52.000Z</time>
      </trkpt>
      <trkpt lat="44.77541" lon="5.06369">
        <ele>602</ele>
        <time>2020-02-07T12:05:53.000Z</time>
      </trkpt>
      <trkpt lat="44.77542" lon="5.06368">
        <ele>602</ele>
        <time>2020-02-07T12:05:54.000Z</time>
      </trkpt>
      <trkpt lat="44.77542" lon="5.06368">
        <ele>601</ele>
        <time>2020-02-07T12:05:55.000Z</time>
      </trkpt>
      <trkpt lat="44.77543" lon="5.06368">
        <ele>601</ele>
        <time>2020-02-07T12:05:56.000Z</time>
      </trkpt>
      <trkpt lat="44.77544" lon="5.06368">
        <ele>601</ele>
        <time>2020-02-07T12:05:57.000Z</time>
      </trkpt>
      <trkpt lat="44.77545" lon="5.06367">
        <ele>601</ele>
        <time>2020-02-07T12:05:58.000Z</time>
      </trkpt>
      <trkpt lat="44.77545" lon="5.06367">
        <ele>601</ele>
        <time>2020-02-07T12:05:59.000Z</time>
      </trkpt>
      <trkpt lat="44.77546" lon="5.06366">
        <ele>601</ele>
        <time>2020-02-07T12:06:00.000Z</time>
      </trkpt>
      <trkpt lat="44.77547" lon="5.06366">
        <ele>601</ele>
        <time>2020-02-07T12:06:01.000Z</time>
      </trkpt>
      <trkpt lat="44.77547" lon="5.06366">
        <ele>601</ele>
        <time>2020-02-07T12:06:02.000Z</time>
      </trkpt>
      <trkpt lat="44.77548" lon="5.06365">
        <ele>600</ele>
        <time>2020-02-07T12:06:03.000Z</time>
      </trkpt>
      <trkpt lat="44.77549" lon="5.06364">
        <ele>600</ele>
        <time>2020-02-07T12:06:04.000Z</time>
      </trkpt>
      <trkpt lat="44.7755" lon="5.06364">
        <ele>600</ele>
        <time>2020-02-07T12:06:05.000Z</time>
      </trkpt>
      <trkpt lat="44.7755" lon="5.06363">
        <ele>600</ele>
        <time>2020-02-07T12:06:06.000Z</time>
      </trkpt>
      <trkpt lat="44.77551" lon="5.06362">
        <ele>600</ele>
        <time>2020-02-07T12:06:07.000Z</time>
      </trkpt>
      <trkpt lat="44.77552" lon="5.06361">
        <ele>600</ele>
        <time>2020-02-07T12:06:08.000Z</time>
      </trkpt>
      <trkpt lat="44.77552" lon="5.06361">
        <ele>600</ele>
        <time>2020-02-07T12:06:09.000Z</time>
      </trkpt>
      <trkpt lat="44.77553" lon="5.0636">
        <ele>600</ele>
        <time>2020-02-07T12:06:10.000Z</time>
      </trkpt>
      <trkpt lat="44.77554" lon="5.06359">
        <ele>599</ele>
        <time>2020-02-07T12:06:11.000Z</time>
      </trkpt>
      <trkpt lat="44.77555" lon="5.06359">
        <ele>599</ele>
        <time>2020-02-07T12:06:12.000Z</time>
      </trkpt>
      <trkpt lat="44.77556" lon="5.06358">
        <ele>599</ele>
        <time>2020-02-07T12:06:13.000Z</time>
      </trkpt>
      <trkpt lat="44.77557" lon="5.06358">
        <ele>599</ele>
        <time>2020-02-07T12:06:14.000Z</time>
      </trkpt>
      <trkpt lat="44.77558" lon="5.06357">
        <ele>599</ele>
        <time>2020-02-07T12:06:15.000Z</time>
      </trkpt>
      <trkpt lat="44.7756" lon="5.06357">
        <ele>599</ele>
        <time>2020-02-07T12:06:16.000Z</time>
      </trkpt>
      <trkpt lat="44.77561" lon="5.06357">
        <ele>599</ele>
        <time>2020-02-07T12:06:17.000Z</time>
      </trkpt>
      <trkpt lat="44.77562" lon="5.06357">
        <ele>598</ele>
        <time>2020-02-07T12:06:18.000Z</time>
      </trkpt>
      <trkpt lat="44.77563" lon="5.06357">
        <ele>598</ele>
        <time>2020-02-07T12:06:19.000Z</time>
      </trkpt>
      <trkpt lat="44.77564" lon="5.06356">
        <ele>598</ele>
        <time>2020-02-07T12:06:20.000Z</time>
      </trkpt>
      <trkpt lat="44.77565" lon="5.06356">
        <ele>598</ele>
        <time>2020-02-07T12:06:21.000Z</time>
      </trkpt>
      <trkpt lat="44.77566" lon="5.06355">
        <ele>598</ele>
        <time>2020-02-07T12:06:22.000Z</time>
      </trkpt>
      <trkpt lat="44.77567" lon="5.06355">
        <ele>597</ele>
        <time>2020-02-07T12:06:23.000Z</time>
      </trkpt>
      <trkpt lat="44.77567" lon="5.06354">
        <ele>597</ele>
        <time>2020-02-07T12:06:24.000Z</time>
      </trkpt>
      <trkpt lat="44.77568" lon="5.06354">
        <ele>597</ele>
        <time>2020-02-07T12:06:25.000Z</time>
      </trkpt>
      <trkpt lat="44.77569" lon="5.06353">
        <ele>597</ele>
        <time>2020-02-07T12:06:26.000Z</time>
      </trkpt>
      <trkpt lat="44.7757" lon="5.06353">
        <ele>597</ele>
        <time>2020-02-07T12:06:27.000Z</time>
      </trkpt>
      <trkpt lat="44.77571" lon="5.06352">
        <ele>596</ele>
        <time>2020-02-07T12:06:28.000Z</time>
      </trkpt>
      <trkpt lat="44.77572" lon="5.06352">
        <ele>596</ele>
        <time>2020-02-07T12:06:29.000Z</time>
      </trkpt>
      <trkpt lat="44.77573" lon="5.06351">
        <ele>596</ele>
        <time>2020-02-07T12:06:30.000Z</time>
      </trkpt>
      <trkpt lat="44.77574" lon="5.06351">
        <ele>596</ele>
        <time>2020-02-07T12:06:31.000Z</time>
      </trkpt>
      <trkpt lat="44.77575" lon="5.06351">
        <ele>596</ele>
        <time>2020-02-07T12:06:32.000Z</time>
      </trkpt>
      <trkpt lat="44.77576" lon="5.06351">
        <ele>596</ele>
        <time>2020-02-07T12:06:33.000Z</time>
      </trkpt>
      <trkpt lat="44.77577" lon="5.06351">
        <ele>595</ele>
        <time>2020-02-07T12:06:34.000Z</time>
      </trkpt>
      <trkpt lat="44.77578" lon="5.06351">
        <ele>595</ele>
        <time>2020-02-07T12:06:35.000Z</time>
      </trkpt>
      <trkpt lat="44.7758" lon="5.06351">
        <ele>595</ele>
        <time>2020-02-07T12:06:36.000Z</time>
      </trkpt>
      <trkpt lat="44.77581" lon="5.06351">
        <ele>595</ele>
        <time>2020-02-07T12:06:37.000Z</time>
      </trkpt>
      <trkpt lat="44.77582" lon="5.06351">
        <ele>595</ele>
        <time>2020-02-07T12:06:38.000Z</time>
      </trkpt>
      <trkpt lat="44.77583" lon="5.06351">
        <ele>594</ele>
        <time>2020-02-07T12:06:39.000Z</time>
      </trkpt>
      <trkpt lat="44.77584" lon="5.06351">
        <ele>594</ele>
        <time>2020-02-07T12:06:40.000Z</time>
      </trkpt>
      <trkpt lat="44.77585" lon="5.06351">
        <ele>594</ele>
        <time>2020-02-07T12:06:41.000Z</time>
      </trkpt>
      <trkpt lat="44.77586" lon="5.0635">
        <ele>594</ele>
        <time>2020-02-07T12:06:42.000Z</time>
      </trkpt>
      <trkpt lat="44.77587" lon="5.0635">
        <ele>594</ele>
        <time>2020-02-07T12:06:43.000Z</time>
      </trkpt>
      <trkpt lat="44.77588" lon="5.0635">
        <ele>594</ele>
        <time>2020-02-07T12:06:44.000Z</time>
      </trkpt>
      <trkpt lat="44.77589" lon="5.0635">
        <ele>594</ele>
        <time>2020-02-07T12:06:45.000Z</time>
      </trkpt>
      <trkpt lat="44.77589" lon="5.0635">
        <ele>594</ele>
        <time>2020-02-07T12:06:46.000Z</time>
      </trkpt>
      <trkpt lat="44.7759" lon="5.06349">
        <ele>594</ele>
        <time>2020-02-07T12:06:47.000Z</time>
      </trkpt>
      <trkpt lat="44.77591" lon="5.06349">
        <ele>594</ele>
        <time>2020-02-07T12:06:48.000Z</time>
      </trkpt>
      <trkpt lat="44.77592" lon="5.06348">
        <ele>594</ele>
        <time>2020-02-07T12:06:49.000Z</time>
      </trkpt>
      <trkpt lat="44.77593" lon="5.06348">
        <ele>594</ele>
        <time>2020-02-07T12:06:50.000Z</time>
      </trkpt>
      <trkpt lat="44.77594" lon="5.06348">
        <ele>593</ele>
        <time>2020-02-07T12:06:51.000Z</time>
      </trkpt>
      <trkpt lat="44.77594" lon="5.06348">
        <ele>593</ele>
        <time>2020-02-07T12:06:52.000Z</time>
      </trkpt>
      <trkpt lat="44.77595" lon="5.06348">
        <ele>593</ele>
        <time>2020-02-07T12:06:53.000Z</time>
      </trkpt>
      <trkpt lat="44.77595" lon="5.06348">
        <ele>593</ele>
        <time>2020-02-07T12:06:54.000Z</time>
      </trkpt>
      <trkpt lat="44.77595" lon="5.06348">
        <ele>593</ele>
        <time>2020-02-07T12:06:55.000Z</time>
      </trkpt>
      <trkpt lat="44.77595" lon="5.06348">
        <ele>593</ele>
        <time>2020-02-07T12:06:56.000Z</time>
      </trkpt>
      <trkpt lat="44.77595" lon="5.06349">
        <ele>593</ele>
        <time>2020-02-07T12:06:57.000Z</time>
      </trkpt>
      <trkpt lat="44.77595" lon="5.06349">
        <ele>593</ele>
        <time>2020-02-07T12:06:58.000Z</time>
      </trkpt>
      <trkpt lat="44.77595" lon="5.06349">
        <ele>593</ele>
        <time>2020-02-07T12:06:59.000Z</time>
      </trkpt>
      <trkpt lat="44.77595" lon="5.06349">
        <ele>593</ele>
        <time>2020-02-07T12:07:00.000Z</time>
      </trkpt>
      <trkpt lat="44.77595" lon="5.0635">
        <ele>593</ele>
        <time>2020-02-07T12:07:01.000Z</time>
      </trkpt>
      <trkpt lat="44.77595" lon="5.0635">
        <ele>593</ele>
        <time>2020-02-07T12:07:02.000Z</time>
      </trkpt>
      <trkpt lat="44.77596" lon="5.0635">
        <ele>593</ele>
        <time>2020-02-07T12:07:03.000Z</time>
      </trkpt>
      <trkpt lat="44.77596" lon="5.0635">
        <ele>593</ele>
        <time>2020-02-07T12:07:04.000Z</time>
      </trkpt>
      <trkpt lat="44.77596" lon="5.06349">
        <ele>592</ele>
        <time>2020-02-07T12:07:05.000Z</time>
      </trkpt>
      <trkpt lat="44.77597" lon="5.06349">
        <ele>592</ele>
        <time>2020-02-07T12:07:06.000Z</time>
      </trkpt>
      <trkpt lat="44.77597" lon="5.06349">
        <ele>592</ele>
        <time>2020-02-07T12:07:07.000Z</time>
      </trkpt>
      <trkpt lat="44.77598" lon="5.06348">
        <ele>592</ele>
        <time>2020-02-07T12:07:08.000Z</time>
      </trkpt>
      <trkpt lat="44.77599" lon="5.06348">
        <ele>592</ele>
        <time>2020-02-07T12:07:09.000Z</time>
      </trkpt>
      <trkpt lat="44.776" lon="5.06347">
        <ele>592</ele>
        <time>2020-02-07T12:07:10.000Z</time>
      </trkpt>
      <trkpt lat="44.77601" lon="5.06346">
        <ele>591</ele>
        <time>2020-02-07T12:07:11.000Z</time>
      </trkpt>
      <trkpt lat="44.77602" lon="5.06346">
        <ele>591</ele>
        <time>2020-02-07T12:07:12.000Z</time>
      </trkpt>
      <trkpt lat="44.77603" lon="5.06345">
        <ele>591</ele>
        <time>2020-02-07T12:07:13.000Z</time>
      </trkpt>
      <trkpt lat="44.77604" lon="5.06344">
        <ele>591</ele>
        <time>2020-02-07T12:07:14.000Z</time>
      </trkpt>
      <trkpt lat="44.77605" lon="5.06343">
        <ele>590</ele>
        <time>2020-02-07T12:07:15.000Z</time>
      </trkpt>
      <trkpt lat="44.77605" lon="5.06342">
        <ele>590</ele>
        <time>2020-02-07T12:07:16.000Z</time>
      </trkpt>
      <trkpt lat="44.77606" lon="5.06341">
        <ele>590</ele>
        <time>2020-02-07T12:07:17.000Z</time>
      </trkpt>
      <trkpt lat="44.77607" lon="5.0634">
        <ele>590</ele>
        <time>2020-02-07T12:07:18.000Z</time>
      </trkpt>
      <trkpt lat="44.77608" lon="5.0634">
        <ele>589</ele>
        <time>2020-02-07T12:07:19.000Z</time>
      </trkpt>
      <trkpt lat="44.77609" lon="5.06339">
        <ele>589</ele>
        <time>2020-02-07T12:07:20.000Z</time>
      </trkpt>
      <trkpt lat="44.7761" lon="5.06339">
        <ele>589</ele>
        <time>2020-02-07T12:07:21.000Z</time>
      </trkpt>
      <trkpt lat="44.77611" lon="5.06338">
        <ele>589</ele>
        <time>2020-02-07T12:07:22.000Z</time>
      </trkpt>
      <trkpt lat="44.77612" lon="5.06337">
        <ele>588</ele>
        <time>2020-02-07T12:07:23.000Z</time>
      </trkpt>
      <trkpt lat="44.77612" lon="5.06337">
        <ele>588</ele>
        <time>2020-02-07T12:07:24.000Z</time>
      </trkpt>
      <trkpt lat="44.77613" lon="5.06336">
        <ele>588</ele>
        <time>2020-02-07T12:07:25.000Z</time>
      </trkpt>
      <trkpt lat="44.77615" lon="5.06335">
        <ele>587</ele>
        <time>2020-02-07T12:07:26.000Z</time>
      </trkpt>
      <trkpt lat="44.77616" lon="5.06334">
        <ele>587</ele>
        <time>2020-02-07T12:07:27.000Z</time>
      </trkpt>
      <trkpt lat="44.77617" lon="5.06333">
        <ele>587</ele>
        <time>2020-02-07T12:07:28.000Z</time>
      </trkpt>
      <trkpt lat="44.77618" lon="5.06332">
        <ele>587</ele>
        <time>2020-02-07T12:07:29.000Z</time>
      </trkpt>
      <trkpt lat="44.77619" lon="5.06331">
        <ele>586</ele>
        <time>2020-02-07T12:07:30.000Z</time>
      </trkpt>
      <trkpt lat="44.7762" lon="5.06331">
        <ele>586</ele>
        <time>2020-02-07T12:07:31.000Z</time>
      </trkpt>
      <trkpt lat="44.77621" lon="5.0633">
        <ele>586</ele>
        <time>2020-02-07T12:07:32.000Z</time>
      </trkpt>
      <trkpt lat="44.77622" lon="5.06329">
        <ele>586</ele>
        <time>2020-02-07T12:07:33.000Z</time>
      </trkpt>
      <trkpt lat="44.77623" lon="5.06328">
        <ele>586</ele>
        <time>2020-02-07T12:07:34.000Z</time>
      </trkpt>
      <trkpt lat="44.77624" lon="5.06327">
        <ele>586</ele>
        <time>2020-02-07T12:07:35.000Z</time>
      </trkpt>
      <trkpt lat="44.77625" lon="5.06326">
        <ele>585</ele>
        <time>2020-02-07T12:07:36.000Z</time>
      </trkpt>
      <trkpt lat="44.77627" lon="5.06325">
        <ele>585</ele>
        <time>2020-02-07T12:07:37.000Z</time>
      </trkpt>
      <trkpt lat="44.77628" lon="5.06324">
        <ele>585</ele>
        <time>2020-02-07T12:07:38.000Z</time>
      </trkpt>
      <trkpt lat="44.77629" lon="5.06323">
        <ele>584</ele>
        <time>2020-02-07T12:07:39.000Z</time>
      </trkpt>
      <trkpt lat="44.7763" lon="5.06323">
        <ele>584</ele>
        <time>2020-02-07T12:07:40.000Z</time>
      </trkpt>
      <trkpt lat="44.77631" lon="5.06322">
        <ele>584</ele>
        <time>2020-02-07T12:07:41.000Z</time>
      </trkpt>
      <trkpt lat="44.77632" lon="5.06321">
        <ele>584</ele>
        <time>2020-02-07T12:07:42.000Z</time>
      </trkpt>
      <trkpt lat="44.77633" lon="5.0632">
        <ele>584</ele>
        <time>2020-02-07T12:07:43.000Z</time>
      </trkpt>
      <trkpt lat="44.77634" lon="5.06319">
        <ele>584</ele>
        <time>2020-02-07T12:07:44.000Z</time>
      </trkpt>
      <trkpt lat="44.77636" lon="5.06318">
        <ele>583</ele>
        <time>2020-02-07T12:07:45.000Z</time>
      </trkpt>
      <trkpt lat="44.77637" lon="5.06317">
        <ele>583</ele>
        <time>2020-02-07T12:07:46.000Z</time>
      </trkpt>
      <trkpt lat="44.77638" lon="5.06316">
        <ele>583</ele>
        <time>2020-02-07T12:07:47.000Z</time>
      </trkpt>
      <trkpt lat="44.77639" lon="5.06315">
        <ele>583</ele>
        <time>2020-02-07T12:07:48.000Z</time>
      </trkpt>
      <trkpt lat="44.7764" lon="5.06315">
        <ele>583</ele>
        <time>2020-02-07T12:07:49.000Z</time>
      </trkpt>
      <trkpt lat="44.77641" lon="5.06313">
        <ele>583</ele>
        <time>2020-02-07T12:07:50.000Z</time>
      </trkpt>
      <trkpt lat="44.77642" lon="5.06312">
        <ele>583</ele>
        <time>2020-02-07T12:07:51.000Z</time>
      </trkpt>
      <trkpt lat="44.77643" lon="5.06311">
        <ele>582</ele>
        <time>2020-02-07T12:07:52.000Z</time>
      </trkpt>
      <trkpt lat="44.77644" lon="5.0631">
        <ele>582</ele>
        <time>2020-02-07T12:07:53.000Z</time>
      </trkpt>
      <trkpt lat="44.77645" lon="5.06309">
        <ele>582</ele>
        <time>2020-02-07T12:07:54.000Z</time>
      </trkpt>
      <trkpt lat="44.77646" lon="5.06308">
        <ele>581</ele>
        <time>2020-02-07T12:07:55.000Z</time>
      </trkpt>
      <trkpt lat="44.77647" lon="5.06308">
        <ele>581</ele>
        <time>2020-02-07T12:07:56.000Z</time>
      </trkpt>
      <trkpt lat="44.77648" lon="5.06307">
        <ele>581</ele>
        <time>2020-02-07T12:07:57.000Z</time>
      </trkpt>
      <trkpt lat="44.77649" lon="5.06306">
        <ele>581</ele>
        <time>2020-02-07T12:07:58.000Z</time>
      </trkpt>
      <trkpt lat="44.7765" lon="5.06306">
        <ele>580</ele>
        <time>2020-02-07T12:07:59.000Z</time>
      </trkpt>
      <trkpt lat="44.7765" lon="5.06305">
        <ele>580</ele>
        <time>2020-02-07T12:08:00.000Z</time>
      </trkpt>
      <trkpt lat="44.77651" lon="5.06304">
        <ele>579</ele>
        <time>2020-02-07T12:08:01.000Z</time>
      </trkpt>
      <trkpt lat="44.77652" lon="5.06304">
        <ele>579</ele>
        <time>2020-02-07T12:08:02.000Z</time>
      </trkpt>
      <trkpt lat="44.77653" lon="5.06303">
        <ele>579</ele>
        <time>2020-02-07T12:08:03.000Z</time>
      </trkpt>
      <trkpt lat="44.77654" lon="5.06302">
        <ele>578</ele>
        <time>2020-02-07T12:08:04.000Z</time>
      </trkpt>
      <trkpt lat="44.77655" lon="5.06302">
        <ele>578</ele>
        <time>2020-02-07T12:08:05.000Z</time>
      </trkpt>
      <trkpt lat="44.77655" lon="5.06301">
        <ele>578</ele>
        <time>2020-02-07T12:08:06.000Z</time>
      </trkpt>
      <trkpt lat="44.77656" lon="5.063">
        <ele>577</ele>
        <time>2020-02-07T12:08:07.000Z</time>
      </trkpt>
      <trkpt lat="44.77657" lon="5.06299">
        <ele>577</ele>
        <time>2020-02-07T12:08:08.000Z</time>
      </trkpt>
      <trkpt lat="44.77658" lon="5.06298">
        <ele>577</ele>
        <time>2020-02-07T12:08:09.000Z</time>
      </trkpt>
      <trkpt lat="44.77658" lon="5.06298">
        <ele>576</ele>
        <time>2020-02-07T12:08:10.000Z</time>
      </trkpt>
      <trkpt lat="44.77659" lon="5.06297">
        <ele>576</ele>
        <time>2020-02-07T12:08:11.000Z</time>
      </trkpt>
      <trkpt lat="44.7766" lon="5.06296">
        <ele>576</ele>
        <time>2020-02-07T12:08:12.000Z</time>
      </trkpt>
      <trkpt lat="44.7766" lon="5.06296">
        <ele>576</ele>
        <time>2020-02-07T12:08:13.000Z</time>
      </trkpt>
      <trkpt lat="44.77661" lon="5.06295">
        <ele>575</ele>
        <time>2020-02-07T12:08:14.000Z</time>
      </trkpt>
      <trkpt lat="44.77661" lon="5.06295">
        <ele>575</ele>
        <time>2020-02-07T12:08:15.000Z</time>
      </trkpt>
      <trkpt lat="44.77662" lon="5.06294">
        <ele>575</ele>
        <time>2020-02-07T12:08:16.000Z</time>
      </trkpt>
      <trkpt lat="44.77662" lon="5.06293">
        <ele>575</ele>
        <time>2020-02-07T12:08:17.000Z</time>
      </trkpt>
      <trkpt lat="44.77663" lon="5.06293">
        <ele>575</ele>
        <time>2020-02-07T12:08:18.000Z</time>
      </trkpt>
      <trkpt lat="44.77663" lon="5.06292">
        <ele>575</ele>
        <time>2020-02-07T12:08:19.000Z</time>
      </trkpt>
      <trkpt lat="44.77664" lon="5.06291">
        <ele>574</ele>
        <time>2020-02-07T12:08:20.000Z</time>
      </trkpt>
      <trkpt lat="44.77665" lon="5.0629">
        <ele>574</ele>
        <time>2020-02-07T12:08:21.000Z</time>
      </trkpt>
      <trkpt lat="44.77666" lon="5.0629">
        <ele>574</ele>
        <time>2020-02-07T12:08:22.000Z</time>
      </trkpt>
      <trkpt lat="44.77666" lon="5.06289">
        <ele>574</ele>
        <time>2020-02-07T12:08:23.000Z</time>
      </trkpt>
      <trkpt lat="44.77667" lon="5.06288">
        <ele>574</ele>
        <time>2020-02-07T12:08:24.000Z</time>
      </trkpt>
      <trkpt lat="44.77667" lon="5.06287">
        <ele>574</ele>
        <time>2020-02-07T12:08:25.000Z</time>
      </trkpt>
      <trkpt lat="44.77668" lon="5.06286">
        <ele>574</ele>
        <time>2020-02-07T12:08:26.000Z</time>
      </trkpt>
      <trkpt lat="44.77668" lon="5.06285">
        <ele>574</ele>
        <time>2020-02-07T12:08:27.000Z</time>
      </trkpt>
      <trkpt lat="44.77669" lon="5.06285">
        <ele>573</ele>
        <time>2020-02-07T12:08:28.000Z</time>
      </trkpt>
      <trkpt lat="44.7767" lon="5.06284">
        <ele>573</ele>
        <time>2020-02-07T12:08:29.000Z</time>
      </trkpt>
      <trkpt lat="44.7767" lon="5.06283">
        <ele>573</ele>
        <time>2020-02-07T12:08:30.000Z</time>
      </trkpt>
      <trkpt lat="44.77671" lon="5.06282">
        <ele>573</ele>
        <time>2020-02-07T12:08:31.000Z</time>
      </trkpt>
      <trkpt lat="44.77671" lon="5.06281">
        <ele>573</ele>
        <time>2020-02-07T12:08:32.000Z</time>
      </trkpt>
      <trkpt lat="44.77672" lon="5.0628">
        <ele>572</ele>
        <time>2020-02-07T12:08:33.000Z</time>
      </trkpt>
      <trkpt lat="44.77672" lon="5.06279">
        <ele>572</ele>
        <time>2020-02-07T12:08:34.000Z</time>
      </trkpt>
      <trkpt lat="44.77673" lon="5.06278">
        <ele>572</ele>
        <time>2020-02-07T12:08:35.000Z</time>
      </trkpt>
      <trkpt lat="44.77673" lon="5.06277">
        <ele>572</ele>
        <time>2020-02-07T12:08:36.000Z</time>
      </trkpt>
      <trkpt lat="44.77674" lon="5.06277">
        <ele>572</ele>
        <time>2020-02-07T12:08:37.000Z</time>
      </trkpt>
      <trkpt lat="44.77674" lon="5.06276">
        <ele>571</ele>
        <time>2020-02-07T12:08:38.000Z</time>
      </trkpt>
      <trkpt lat="44.77674" lon="5.06275">
        <ele>571</ele>
        <time>2020-02-07T12:08:39.000Z</time>
      </trkpt>
      <trkpt lat="44.77675" lon="5.06274">
        <ele>571</ele>
        <time>2020-02-07T12:08:40.000Z</time>
      </trkpt>
      <trkpt lat="44.77676" lon="5.06274">
        <ele>571</ele>
        <time>2020-02-07T12:08:41.000Z</time>
      </trkpt>
      <trkpt lat="44.77676" lon="5.06273">
        <ele>571</ele>
        <time>2020-02-07T12:08:42.000Z</time>
      </trkpt>
      <trkpt lat="44.77677" lon="5.06272">
        <ele>570</ele>
        <time>2020-02-07T12:08:43.000Z</time>
      </trkpt>
      <trkpt lat="44.77677" lon="5.06271">
        <ele>570</ele>
        <time>2020-02-07T12:08:44.000Z</time>
      </trkpt>
      <trkpt lat="44.77678" lon="5.0627">
        <ele>570</ele>
        <time>2020-02-07T12:08:45.000Z</time>
      </trkpt>
      <trkpt lat="44.77678" lon="5.06269">
        <ele>569</ele>
        <time>2020-02-07T12:08:46.000Z</time>
      </trkpt>
      <trkpt lat="44.77679" lon="5.06269">
        <ele>569</ele>
        <time>2020-02-07T12:08:47.000Z</time>
      </trkpt>
      <trkpt lat="44.77679" lon="5.06268">
        <ele>569</ele>
        <time>2020-02-07T12:08:48.000Z</time>
      </trkpt>
      <trkpt lat="44.77679" lon="5.06267">
        <ele>569</ele>
        <time>2020-02-07T12:08:49.000Z</time>
      </trkpt>
      <trkpt lat="44.77679" lon="5.06266">
        <ele>568</ele>
        <time>2020-02-07T12:08:50.000Z</time>
      </trkpt>
      <trkpt lat="44.7768" lon="5.06265">
        <ele>568</ele>
        <time>2020-02-07T12:08:51.000Z</time>
      </trkpt>
      <trkpt lat="44.7768" lon="5.06264">
        <ele>568</ele>
        <time>2020-02-07T12:08:52.000Z</time>
      </trkpt>
      <trkpt lat="44.7768" lon="5.06263">
        <ele>568</ele>
        <time>2020-02-07T12:08:53.000Z</time>
      </trkpt>
      <trkpt lat="44.77681" lon="5.06263">
        <ele>567</ele>
        <time>2020-02-07T12:08:54.000Z</time>
      </trkpt>
      <trkpt lat="44.77681" lon="5.06262">
        <ele>567</ele>
        <time>2020-02-07T12:08:55.000Z</time>
      </trkpt>
      <trkpt lat="44.77681" lon="5.06261">
        <ele>567</ele>
        <time>2020-02-07T12:08:56.000Z</time>
      </trkpt>
      <trkpt lat="44.77682" lon="5.06259">
        <ele>567</ele>
        <time>2020-02-07T12:08:57.000Z</time>
      </trkpt>
      <trkpt lat="44.77682" lon="5.06258">
        <ele>567</ele>
        <time>2020-02-07T12:08:58.000Z</time>
      </trkpt>
      <trkpt lat="44.77682" lon="5.06257">
        <ele>567</ele>
        <time>2020-02-07T12:08:59.000Z</time>
      </trkpt>
      <trkpt lat="44.77683" lon="5.06256">
        <ele>566</ele>
        <time>2020-02-07T12:09:00.000Z</time>
      </trkpt>
      <trkpt lat="44.77683" lon="5.06255">
        <ele>566</ele>
        <time>2020-02-07T12:09:01.000Z</time>
      </trkpt>
      <trkpt lat="44.77683" lon="5.06254">
        <ele>566</ele>
        <time>2020-02-07T12:09:02.000Z</time>
      </trkpt>
      <trkpt lat="44.77684" lon="5.06253">
        <ele>566</ele>
        <time>2020-02-07T12:09:03.000Z</time>
      </trkpt>
      <trkpt lat="44.77684" lon="5.06253">
        <ele>566</ele>
        <time>2020-02-07T12:09:04.000Z</time>
      </trkpt>
      <trkpt lat="44.77684" lon="5.06252">
        <ele>566</ele>
        <time>2020-02-07T12:09:05.000Z</time>
      </trkpt>
      <trkpt lat="44.77684" lon="5.06251">
        <ele>566</ele>
        <time>2020-02-07T12:09:06.000Z</time>
      </trkpt>
      <trkpt lat="44.77685" lon="5.0625">
        <ele>565</ele>
        <time>2020-02-07T12:09:07.000Z</time>
      </trkpt>
      <trkpt lat="44.77685" lon="5.06249">
        <ele>565</ele>
        <time>2020-02-07T12:09:08.000Z</time>
      </trkpt>
      <trkpt lat="44.77686" lon="5.06248">
        <ele>565</ele>
        <time>2020-02-07T12:09:09.000Z</time>
      </trkpt>
      <trkpt lat="44.77686" lon="5.06248">
        <ele>565</ele>
        <time>2020-02-07T12:09:10.000Z</time>
      </trkpt>
      <trkpt lat="44.77686" lon="5.06247">
        <ele>564</ele>
        <time>2020-02-07T12:09:11.000Z</time>
      </trkpt>
      <trkpt lat="44.77687" lon="5.06246">
        <ele>564</ele>
        <time>2020-02-07T12:09:12.000Z</time>
      </trkpt>
      <trkpt lat="44.77687" lon="5.06245">
        <ele>564</ele>
        <time>2020-02-07T12:09:13.000Z</time>
      </trkpt>
      <trkpt lat="44.77688" lon="5.06244">
        <ele>564</ele>
        <time>2020-02-07T12:09:14.000Z</time>
      </trkpt>
      <trkpt lat="44.77688" lon="5.06243">
        <ele>564</ele>
        <time>2020-02-07T12:09:15.000Z</time>
      </trkpt>
      <trkpt lat="44.77689" lon="5.06242">
        <ele>563</ele>
        <time>2020-02-07T12:09:16.000Z</time>
      </trkpt>
      <trkpt lat="44.77689" lon="5.06242">
        <ele>563</ele>
        <time>2020-02-07T12:09:17.000Z</time>
      </trkpt>
      <trkpt lat="44.77689" lon="5.06241">
        <ele>563</ele>
        <time>2020-02-07T12:09:18.000Z</time>
      </trkpt>
      <trkpt lat="44.7769" lon="5.0624">
        <ele>563</ele>
        <time>2020-02-07T12:09:19.000Z</time>
      </trkpt>
      <trkpt lat="44.7769" lon="5.06239">
        <ele>562</ele>
        <time>2020-02-07T12:09:20.000Z</time>
      </trkpt>
      <trkpt lat="44.77691" lon="5.06239">
        <ele>562</ele>
        <time>2020-02-07T12:09:21.000Z</time>
      </trkpt>
      <trkpt lat="44.77691" lon="5.06238">
        <ele>562</ele>
        <time>2020-02-07T12:09:22.000Z</time>
      </trkpt>
      <trkpt lat="44.77692" lon="5.06237">
        <ele>562</ele>
        <time>2020-02-07T12:09:23.000Z</time>
      </trkpt>
      <trkpt lat="44.77693" lon="5.06236">
        <ele>561</ele>
        <time>2020-02-07T12:09:24.000Z</time>
      </trkpt>
      <trkpt lat="44.77694" lon="5.06236">
        <ele>561</ele>
        <time>2020-02-07T12:09:25.000Z</time>
      </trkpt>
      <trkpt lat="44.77694" lon="5.06235">
        <ele>561</ele>
        <time>2020-02-07T12:09:26.000Z</time>
      </trkpt>
      <trkpt lat="44.77695" lon="5.06234">
        <ele>561</ele>
        <time>2020-02-07T12:09:27.000Z</time>
      </trkpt>
      <trkpt lat="44.77696" lon="5.06233">
        <ele>560</ele>
        <time>2020-02-07T12:09:28.000Z</time>
      </trkpt>
      <trkpt lat="44.77696" lon="5.06232">
        <ele>560</ele>
        <time>2020-02-07T12:09:29.000Z</time>
      </trkpt>
      <trkpt lat="44.77697" lon="5.06231">
        <ele>560</ele>
        <time>2020-02-07T12:09:30.000Z</time>
      </trkpt>
      <trkpt lat="44.77697" lon="5.0623">
        <ele>560</ele>
        <time>2020-02-07T12:09:31.000Z</time>
      </trkpt>
      <trkpt lat="44.77698" lon="5.06229">
        <ele>560</ele>
        <time>2020-02-07T12:09:32.000Z</time>
      </trkpt>
      <trkpt lat="44.77699" lon="5.06228">
        <ele>559</ele>
        <time>2020-02-07T12:09:33.000Z</time>
      </trkpt>
      <trkpt lat="44.777" lon="5.06227">
        <ele>559</ele>
        <time>2020-02-07T12:09:34.000Z</time>
      </trkpt>
      <trkpt lat="44.777" lon="5.06227">
        <ele>559</ele>
        <time>2020-02-07T12:09:35.000Z</time>
      </trkpt>
      <trkpt lat="44.77701" lon="5.06226">
        <ele>559</ele>
        <time>2020-02-07T12:09:36.000Z</time>
      </trkpt>
      <trkpt lat="44.77702" lon="5.06225">
        <ele>558</ele>
        <time>2020-02-07T12:09:37.000Z</time>
      </trkpt>
      <trkpt lat="44.77702" lon="5.06224">
        <ele>558</ele>
        <time>2020-02-07T12:09:38.000Z</time>
      </trkpt>
      <trkpt lat="44.77703" lon="5.06223">
        <ele>558</ele>
        <time>2020-02-07T12:09:39.000Z</time>
      </trkpt>
      <trkpt lat="44.77704" lon="5.06222">
        <ele>558</ele>
        <time>2020-02-07T12:09:40.000Z</time>
      </trkpt>
      <trkpt lat="44.77705" lon="5.06222">
        <ele>558</ele>
        <time>2020-02-07T12:09:41.000Z</time>
      </trkpt>
      <trkpt lat="44.77706" lon="5.06221">
        <ele>558</ele>
        <time>2020-02-07T12:09:42.000Z</time>
      </trkpt>
      <trkpt lat="44.77706" lon="5.06221">
        <ele>557</ele>
        <time>2020-02-07T12:09:43.000Z</time>
      </trkpt>
      <trkpt lat="44.77707" lon="5.06221">
        <ele>557</ele>
        <time>2020-02-07T12:09:44.000Z</time>
      </trkpt>
      <trkpt lat="44.77708" lon="5.06221">
        <ele>557</ele>
        <time>2020-02-07T12:09:45.000Z</time>
      </trkpt>
      <trkpt lat="44.77708" lon="5.06221">
        <ele>557</ele>
        <time>2020-02-07T12:09:46.000Z</time>
      </trkpt>
      <trkpt lat="44.77709" lon="5.06221">
        <ele>557</ele>
        <time>2020-02-07T12:09:47.000Z</time>
      </trkpt>
      <trkpt lat="44.77709" lon="5.06221">
        <ele>557</ele>
        <time>2020-02-07T12:09:48.000Z</time>
      </trkpt>
      <trkpt lat="44.7771" lon="5.06221">
        <ele>557</ele>
        <time>2020-02-07T12:09:49.000Z</time>
      </trkpt>
      <trkpt lat="44.7771" lon="5.06221">
        <ele>557</ele>
        <time>2020-02-07T12:09:50.000Z</time>
      </trkpt>
      <trkpt lat="44.77711" lon="5.06221">
        <ele>557</ele>
        <time>2020-02-07T12:09:51.000Z</time>
      </trkpt>
      <trkpt lat="44.77711" lon="5.06221">
        <ele>557</ele>
        <time>2020-02-07T12:09:52.000Z</time>
      </trkpt>
      <trkpt lat="44.77712" lon="5.06221">
        <ele>557</ele>
        <time>2020-02-07T12:09:53.000Z</time>
      </trkpt>
      <trkpt lat="44.77713" lon="5.06222">
        <ele>557</ele>
        <time>2020-02-07T12:09:54.000Z</time>
      </trkpt>
      <trkpt lat="44.77713" lon="5.06222">
        <ele>557</ele>
        <time>2020-02-07T12:09:55.000Z</time>
      </trkpt>
      <trkpt lat="44.77714" lon="5.06223">
        <ele>557</ele>
        <time>2020-02-07T12:09:56.000Z</time>
      </trkpt>
      <trkpt lat="44.77715" lon="5.06224">
        <ele>556</ele>
        <time>2020-02-07T12:09:57.000Z</time>
      </trkpt>
      <trkpt lat="44.77716" lon="5.06224">
        <ele>556</ele>
        <time>2020-02-07T12:09:58.000Z</time>
      </trkpt>
      <trkpt lat="44.77717" lon="5.06225">
        <ele>556</ele>
        <time>2020-02-07T12:09:59.000Z</time>
      </trkpt>
      <trkpt lat="44.77718" lon="5.06226">
        <ele>556</ele>
        <time>2020-02-07T12:10:00.000Z</time>
      </trkpt>
      <trkpt lat="44.77718" lon="5.06226">
        <ele>556</ele>
        <time>2020-02-07T12:10:01.000Z</time>
      </trkpt>
      <trkpt lat="44.77719" lon="5.06227">
        <ele>556</ele>
        <time>2020-02-07T12:10:02.000Z</time>
      </trkpt>
      <trkpt lat="44.7772" lon="5.06227">
        <ele>556</ele>
        <time>2020-02-07T12:10:03.000Z</time>
      </trkpt>
      <trkpt lat="44.7772" lon="5.06228">
        <ele>556</ele>
        <time>2020-02-07T12:10:04.000Z</time>
      </trkpt>
      <trkpt lat="44.77721" lon="5.06228">
        <ele>556</ele>
        <time>2020-02-07T12:10:05.000Z</time>
      </trkpt>
      <trkpt lat="44.77721" lon="5.06229">
        <ele>556</ele>
        <time>2020-02-07T12:10:06.000Z</time>
      </trkpt>
      <trkpt lat="44.77722" lon="5.06229">
        <ele>556</ele>
        <time>2020-02-07T12:10:07.000Z</time>
      </trkpt>
      <trkpt lat="44.77723" lon="5.0623">
        <ele>556</ele>
        <time>2020-02-07T12:10:08.000Z</time>
      </trkpt>
      <trkpt lat="44.77724" lon="5.0623">
        <ele>555</ele>
        <time>2020-02-07T12:10:09.000Z</time>
      </trkpt>
      <trkpt lat="44.77725" lon="5.06231">
        <ele>555</ele>
        <time>2020-02-07T12:10:10.000Z</time>
      </trkpt>
      <trkpt lat="44.77726" lon="5.06232">
        <ele>555</ele>
        <time>2020-02-07T12:10:11.000Z</time>
      </trkpt>
      <trkpt lat="44.77726" lon="5.06232">
        <ele>555</ele>
        <time>2020-02-07T12:10:12.000Z</time>
      </trkpt>
      <trkpt lat="44.77727" lon="5.06232">
        <ele>555</ele>
        <time>2020-02-07T12:10:13.000Z</time>
      </trkpt>
      <trkpt lat="44.77728" lon="5.06233">
        <ele>555</ele>
        <time>2020-02-07T12:10:14.000Z</time>
      </trkpt>
      <trkpt lat="44.77729" lon="5.06234">
        <ele>555</ele>
        <time>2020-02-07T12:10:15.000Z</time>
      </trkpt>
      <trkpt lat="44.77729" lon="5.06234">
        <ele>555</ele>
        <time>2020-02-07T12:10:16.000Z</time>
      </trkpt>
      <trkpt lat="44.7773" lon="5.06235">
        <ele>555</ele>
        <time>2020-02-07T12:10:17.000Z</time>
      </trkpt>
      <trkpt lat="44.77731" lon="5.06236">
        <ele>555</ele>
        <time>2020-02-07T12:10:18.000Z</time>
      </trkpt>
      <trkpt lat="44.77732" lon="5.06237">
        <ele>555</ele>
        <time>2020-02-07T12:10:19.000Z</time>
      </trkpt>
      <trkpt lat="44.77733" lon="5.06237">
        <ele>555</ele>
        <time>2020-02-07T12:10:20.000Z</time>
      </trkpt>
      <trkpt lat="44.77734" lon="5.06238">
        <ele>555</ele>
        <time>2020-02-07T12:10:21.000Z</time>
      </trkpt>
      <trkpt lat="44.77735" lon="5.06238">
        <ele>555</ele>
        <time>2020-02-07T12:10:22.000Z</time>
      </trkpt>
      <trkpt lat="44.77736" lon="5.06238">
        <ele>555</ele>
        <time>2020-02-07T12:10:23.000Z</time>
      </trkpt>
      <trkpt lat="44.77737" lon="5.06239">
        <ele>555</ele>
        <time>2020-02-07T12:10:24.000Z</time>
      </trkpt>
      <trkpt lat="44.77738" lon="5.06239">
        <ele>555</ele>
        <time>2020-02-07T12:10:25.000Z</time>
      </trkpt>
      <trkpt lat="44.77739" lon="5.06239">
        <ele>555</ele>
        <time>2020-02-07T12:10:26.000Z</time>
      </trkpt>
      <trkpt lat="44.77741" lon="5.06239">
        <ele>555</ele>
        <time>2020-02-07T12:10:27.000Z</time>
      </trkpt>
      <trkpt lat="44.77742" lon="5.06239">
        <ele>554</ele>
        <time>2020-02-07T12:10:28.000Z</time>
      </trkpt>
      <trkpt lat="44.77743" lon="5.06239">
        <ele>554</ele>
        <time>2020-02-07T12:10:29.000Z</time>
      </trkpt>
      <trkpt lat="44.77744" lon="5.06239">
        <ele>554</ele>
        <time>2020-02-07T12:10:30.000Z</time>
      </trkpt>
      <trkpt lat="44.77745" lon="5.06239">
        <ele>554</ele>
        <time>2020-02-07T12:10:31.000Z</time>
      </trkpt>
      <trkpt lat="44.77746" lon="5.0624">
        <ele>554</ele>
        <time>2020-02-07T12:10:32.000Z</time>
      </trkpt>
      <trkpt lat="44.77747" lon="5.0624">
        <ele>554</ele>
        <time>2020-02-07T12:10:33.000Z</time>
      </trkpt>
      <trkpt lat="44.77748" lon="5.0624">
        <ele>554</ele>
        <time>2020-02-07T12:10:34.000Z</time>
      </trkpt>
      <trkpt lat="44.77749" lon="5.06239">
        <ele>554</ele>
        <time>2020-02-07T12:10:35.000Z</time>
      </trkpt>
      <trkpt lat="44.7775" lon="5.0624">
        <ele>554</ele>
        <time>2020-02-07T12:10:36.000Z</time>
      </trkpt>
      <trkpt lat="44.77751" lon="5.06239">
        <ele>553</ele>
        <time>2020-02-07T12:10:37.000Z</time>
      </trkpt>
      <trkpt lat="44.77753" lon="5.06239">
        <ele>553</ele>
        <time>2020-02-07T12:10:38.000Z</time>
      </trkpt>
      <trkpt lat="44.77754" lon="5.06238">
        <ele>553</ele>
        <time>2020-02-07T12:10:39.000Z</time>
      </trkpt>
      <trkpt lat="44.77755" lon="5.06237">
        <ele>553</ele>
        <time>2020-02-07T12:10:40.000Z</time>
      </trkpt>
      <trkpt lat="44.77756" lon="5.06237">
        <ele>553</ele>
        <time>2020-02-07T12:10:41.000Z</time>
      </trkpt>
      <trkpt lat="44.77757" lon="5.06236">
        <ele>553</ele>
        <time>2020-02-07T12:10:42.000Z</time>
      </trkpt>
      <trkpt lat="44.77758" lon="5.06236">
        <ele>553</ele>
        <time>2020-02-07T12:10:43.000Z</time>
      </trkpt>
      <trkpt lat="44.77759" lon="5.06234">
        <ele>553</ele>
        <time>2020-02-07T12:10:44.000Z</time>
      </trkpt>
      <trkpt lat="44.7776" lon="5.06233">
        <ele>553</ele>
        <time>2020-02-07T12:10:45.000Z</time>
      </trkpt>
      <trkpt lat="44.77761" lon="5.06232">
        <ele>553</ele>
        <time>2020-02-07T12:10:46.000Z</time>
      </trkpt>
      <trkpt lat="44.77762" lon="5.06231">
        <ele>553</ele>
        <time>2020-02-07T12:10:47.000Z</time>
      </trkpt>
      <trkpt lat="44.77762" lon="5.0623">
        <ele>552</ele>
        <time>2020-02-07T12:10:48.000Z</time>
      </trkpt>
      <trkpt lat="44.77763" lon="5.06229">
        <ele>552</ele>
        <time>2020-02-07T12:10:49.000Z</time>
      </trkpt>
      <trkpt lat="44.77764" lon="5.06228">
        <ele>552</ele>
        <time>2020-02-07T12:10:50.000Z</time>
      </trkpt>
      <trkpt lat="44.77765" lon="5.06227">
        <ele>552</ele>
        <time>2020-02-07T12:10:51.000Z</time>
      </trkpt>
      <trkpt lat="44.77766" lon="5.06226">
        <ele>552</ele>
        <time>2020-02-07T12:10:52.000Z</time>
      </trkpt>
      <trkpt lat="44.77767" lon="5.06226">
        <ele>552</ele>
        <time>2020-02-07T12:10:53.000Z</time>
      </trkpt>
      <trkpt lat="44.77768" lon="5.06225">
        <ele>552</ele>
        <time>2020-02-07T12:10:54.000Z</time>
      </trkpt>
      <trkpt lat="44.77769" lon="5.06224">
        <ele>552</ele>
        <time>2020-02-07T12:10:55.000Z</time>
      </trkpt>
      <trkpt lat="44.7777" lon="5.06224">
        <ele>552</ele>
        <time>2020-02-07T12:10:56.000Z</time>
      </trkpt>
      <trkpt lat="44.77771" lon="5.06223">
        <ele>552</ele>
        <time>2020-02-07T12:10:57.000Z</time>
      </trkpt>
      <trkpt lat="44.77772" lon="5.06223">
        <ele>552</ele>
        <time>2020-02-07T12:10:58.000Z</time>
      </trkpt>
      <trkpt lat="44.77772" lon="5.06222">
        <ele>552</ele>
        <time>2020-02-07T12:10:59.000Z</time>
      </trkpt>
      <trkpt lat="44.77773" lon="5.06221">
        <ele>552</ele>
        <time>2020-02-07T12:11:00.000Z</time>
      </trkpt>
      <trkpt lat="44.77774" lon="5.06221">
        <ele>552</ele>
        <time>2020-02-07T12:11:01.000Z</time>
      </trkpt>
      <trkpt lat="44.77774" lon="5.0622">
        <ele>553</ele>
        <time>2020-02-07T12:11:02.000Z</time>
      </trkpt>
      <trkpt lat="44.77775" lon="5.0622">
        <ele>553</ele>
        <time>2020-02-07T12:11:03.000Z</time>
      </trkpt>
      <trkpt lat="44.77775" lon="5.06219">
        <ele>553</ele>
        <time>2020-02-07T12:11:04.000Z</time>
      </trkpt>
      <trkpt lat="44.77776" lon="5.06219">
        <ele>553</ele>
        <time>2020-02-07T12:11:05.000Z</time>
      </trkpt>
      <trkpt lat="44.77777" lon="5.06218">
        <ele>553</ele>
        <time>2020-02-07T12:11:06.000Z</time>
      </trkpt>
      <trkpt lat="44.77777" lon="5.06218">
        <ele>553</ele>
        <time>2020-02-07T12:11:07.000Z</time>
      </trkpt>
      <trkpt lat="44.77778" lon="5.06217">
        <ele>553</ele>
        <time>2020-02-07T12:11:08.000Z</time>
      </trkpt>
      <trkpt lat="44.77779" lon="5.06217">
        <ele>553</ele>
        <time>2020-02-07T12:11:09.000Z</time>
      </trkpt>
      <trkpt lat="44.77779" lon="5.06217">
        <ele>553</ele>
        <time>2020-02-07T12:11:10.000Z</time>
      </trkpt>
      <trkpt lat="44.7778" lon="5.06216">
        <ele>553</ele>
        <time>2020-02-07T12:11:11.000Z</time>
      </trkpt>
      <trkpt lat="44.77781" lon="5.06216">
        <ele>553</ele>
        <time>2020-02-07T12:11:12.000Z</time>
      </trkpt>
      <trkpt lat="44.77781" lon="5.06215">
        <ele>553</ele>
        <time>2020-02-07T12:11:13.000Z</time>
      </trkpt>
      <trkpt lat="44.77782" lon="5.06215">
        <ele>553</ele>
        <time>2020-02-07T12:11:14.000Z</time>
      </trkpt>
      <trkpt lat="44.77783" lon="5.06214">
        <ele>553</ele>
        <time>2020-02-07T12:11:15.000Z</time>
      </trkpt>
      <trkpt lat="44.77783" lon="5.06214">
        <ele>553</ele>
        <time>2020-02-07T12:11:16.000Z</time>
      </trkpt>
      <trkpt lat="44.77783" lon="5.06214">
        <ele>553</ele>
        <time>2020-02-07T12:11:17.000Z</time>
      </trkpt>
      <trkpt lat="44.77784" lon="5.06213">
        <ele>553</ele>
        <time>2020-02-07T12:11:18.000Z</time>
      </trkpt>
      <trkpt lat="44.77785" lon="5.06213">
        <ele>553</ele>
        <time>2020-02-07T12:11:19.000Z</time>
      </trkpt>
      <trkpt lat="44.77785" lon="5.06213">
        <ele>553</ele>
        <time>2020-02-07T12:11:20.000Z</time>
      </trkpt>
      <trkpt lat="44.77786" lon="5.06213">
        <ele>553</ele>
        <time>2020-02-07T12:11:21.000Z</time>
      </trkpt>
      <trkpt lat="44.77786" lon="5.06213">
        <ele>553</ele>
        <time>2020-02-07T12:11:22.000Z</time>
      </trkpt>
      <trkpt lat="44.77787" lon="5.06212">
        <ele>553</ele>
        <time>2020-02-07T12:11:23.000Z</time>
      </trkpt>
      <trkpt lat="44.77788" lon="5.06212">
        <ele>552</ele>
        <time>2020-02-07T12:11:24.000Z</time>
      </trkpt>
      <trkpt lat="44.77788" lon="5.06212">
        <ele>552</ele>
        <time>2020-02-07T12:11:25.000Z</time>
      </trkpt>
      <trkpt lat="44.77789" lon="5.06212">
        <ele>552</ele>
        <time>2020-02-07T12:11:26.000Z</time>
      </trkpt>
      <trkpt lat="44.77789" lon="5.06211">
        <ele>552</ele>
        <time>2020-02-07T12:11:27.000Z</time>
      </trkpt>
      <trkpt lat="44.7779" lon="5.06211">
        <ele>552</ele>
        <time>2020-02-07T12:11:28.000Z</time>
      </trkpt>
      <trkpt lat="44.7779" lon="5.0621">
        <ele>552</ele>
        <time>2020-02-07T12:11:29.000Z</time>
      </trkpt>
      <trkpt lat="44.77791" lon="5.0621">
        <ele>552</ele>
        <time>2020-02-07T12:11:30.000Z</time>
      </trkpt>
      <trkpt lat="44.77791" lon="5.06209">
        <ele>552</ele>
        <time>2020-02-07T12:11:31.000Z</time>
      </trkpt>
      <trkpt lat="44.77791" lon="5.06209">
        <ele>552</ele>
        <time>2020-02-07T12:11:32.000Z</time>
      </trkpt>
      <trkpt lat="44.77792" lon="5.06208">
        <ele>552</ele>
        <time>2020-02-07T12:11:33.000Z</time>
      </trkpt>
      <trkpt lat="44.77792" lon="5.06207">
        <ele>552</ele>
        <time>2020-02-07T12:11:34.000Z</time>
      </trkpt>
      <trkpt lat="44.77793" lon="5.06207">
        <ele>552</ele>
        <time>2020-02-07T12:11:35.000Z</time>
      </trkpt>
      <trkpt lat="44.77793" lon="5.06207">
        <ele>552</ele>
        <time>2020-02-07T12:11:36.000Z</time>
      </trkpt>
      <trkpt lat="44.77794" lon="5.06206">
        <ele>552</ele>
        <time>2020-02-07T12:11:37.000Z</time>
      </trkpt>
      <trkpt lat="44.77794" lon="5.06205">
        <ele>552</ele>
        <time>2020-02-07T12:11:38.000Z</time>
      </trkpt>
      <trkpt lat="44.77794" lon="5.06204">
        <ele>552</ele>
        <time>2020-02-07T12:11:39.000Z</time>
      </trkpt>
      <trkpt lat="44.77794" lon="5.06203">
        <ele>551</ele>
        <time>2020-02-07T12:11:40.000Z</time>
      </trkpt>
      <trkpt lat="44.77794" lon="5.06202">
        <ele>551</ele>
        <time>2020-02-07T12:11:41.000Z</time>
      </trkpt>
      <trkpt lat="44.77795" lon="5.062">
        <ele>551</ele>
        <time>2020-02-07T12:11:42.000Z</time>
      </trkpt>
      <trkpt lat="44.77795" lon="5.06199">
        <ele>551</ele>
        <time>2020-02-07T12:11:43.000Z</time>
      </trkpt>
      <trkpt lat="44.77795" lon="5.06198">
        <ele>551</ele>
        <time>2020-02-07T12:11:44.000Z</time>
      </trkpt>
      <trkpt lat="44.77795" lon="5.06197">
        <ele>551</ele>
        <time>2020-02-07T12:11:45.000Z</time>
      </trkpt>
      <trkpt lat="44.77796" lon="5.06196">
        <ele>551</ele>
        <time>2020-02-07T12:11:46.000Z</time>
      </trkpt>
      <trkpt lat="44.77796" lon="5.06195">
        <ele>551</ele>
        <time>2020-02-07T12:11:47.000Z</time>
      </trkpt>
      <trkpt lat="44.77796" lon="5.06194">
        <ele>551</ele>
        <time>2020-02-07T12:11:48.000Z</time>
      </trkpt>
      <trkpt lat="44.77796" lon="5.06193">
        <ele>551</ele>
        <time>2020-02-07T12:11:49.000Z</time>
      </trkpt>
      <trkpt lat="44.77796" lon="5.06193">
        <ele>551</ele>
        <time>2020-02-07T12:11:50.000Z</time>
      </trkpt>
      <trkpt lat="44.77796" lon="5.06192">
        <ele>551</ele>
        <time>2020-02-07T12:11:51.000Z</time>
      </trkpt>
      <trkpt lat="44.77797" lon="5.06191">
        <ele>551</ele>
        <time>2020-02-07T12:11:52.000Z</time>
      </trkpt>
      <trkpt lat="44.77797" lon="5.0619">
        <ele>551</ele>
        <time>2020-02-07T12:11:53.000Z</time>
      </trkpt>
      <trkpt lat="44.77797" lon="5.06189">
        <ele>551</ele>
        <time>2020-02-07T12:11:54.000Z</time>
      </trkpt>
      <trkpt lat="44.77798" lon="5.06188">
        <ele>551</ele>
        <time>2020-02-07T12:11:55.000Z</time>
      </trkpt>
      <trkpt lat="44.77798" lon="5.06186">
        <ele>551</ele>
        <time>2020-02-07T12:11:56.000Z</time>
      </trkpt>
      <trkpt lat="44.77798" lon="5.06185">
        <ele>551</ele>
        <time>2020-02-07T12:11:57.000Z</time>
      </trkpt>
      <trkpt lat="44.77798" lon="5.06184">
        <ele>551</ele>
        <time>2020-02-07T12:11:58.000Z</time>
      </trkpt>
      <trkpt lat="44.77797" lon="5.06183">
        <ele>551</ele>
        <time>2020-02-07T12:11:59.000Z</time>
      </trkpt>
      <trkpt lat="44.77797" lon="5.06182">
        <ele>551</ele>
        <time>2020-02-07T12:12:00.000Z</time>
      </trkpt>
      <trkpt lat="44.77796" lon="5.06181">
        <ele>551</ele>
        <time>2020-02-07T12:12:01.000Z</time>
      </trkpt>
      <trkpt lat="44.77795" lon="5.0618">
        <ele>551</ele>
        <time>2020-02-07T12:12:02.000Z</time>
      </trkpt>
      <trkpt lat="44.77794" lon="5.06179">
        <ele>551</ele>
        <time>2020-02-07T12:12:03.000Z</time>
      </trkpt>
      <trkpt lat="44.77793" lon="5.06177">
        <ele>550</ele>
        <time>2020-02-07T12:12:04.000Z</time>
      </trkpt>
      <trkpt lat="44.77792" lon="5.06175">
        <ele>550</ele>
        <time>2020-02-07T12:12:05.000Z</time>
      </trkpt>
      <trkpt lat="44.77791" lon="5.06174">
        <ele>550</ele>
        <time>2020-02-07T12:12:06.000Z</time>
      </trkpt>
      <trkpt lat="44.7779" lon="5.06173">
        <ele>550</ele>
        <time>2020-02-07T12:12:07.000Z</time>
      </trkpt>
      <trkpt lat="44.7779" lon="5.06172">
        <ele>549</ele>
        <time>2020-02-07T12:12:08.000Z</time>
      </trkpt>
      <trkpt lat="44.77789" lon="5.06171">
        <ele>549</ele>
        <time>2020-02-07T12:12:09.000Z</time>
      </trkpt>
      <trkpt lat="44.77789" lon="5.0617">
        <ele>549</ele>
        <time>2020-02-07T12:12:10.000Z</time>
      </trkpt>
      <trkpt lat="44.77789" lon="5.06169">
        <ele>548</ele>
        <time>2020-02-07T12:12:11.000Z</time>
      </trkpt>
      <trkpt lat="44.77788" lon="5.06168">
        <ele>548</ele>
        <time>2020-02-07T12:12:12.000Z</time>
      </trkpt>
      <trkpt lat="44.77788" lon="5.06167">
        <ele>548</ele>
        <time>2020-02-07T12:12:13.000Z</time>
      </trkpt>
      <trkpt lat="44.77787" lon="5.06165">
        <ele>548</ele>
        <time>2020-02-07T12:12:14.000Z</time>
      </trkpt>
      <trkpt lat="44.77786" lon="5.06164">
        <ele>547</ele>
        <time>2020-02-07T12:12:15.000Z</time>
      </trkpt>
      <trkpt lat="44.77786" lon="5.06162">
        <ele>547</ele>
        <time>2020-02-07T12:12:16.000Z</time>
      </trkpt>
      <trkpt lat="44.77785" lon="5.06161">
        <ele>547</ele>
        <time>2020-02-07T12:12:17.000Z</time>
      </trkpt>
      <trkpt lat="44.77785" lon="5.0616">
        <ele>547</ele>
        <time>2020-02-07T12:12:18.000Z</time>
      </trkpt>
      <trkpt lat="44.77784" lon="5.06158">
        <ele>547</ele>
        <time>2020-02-07T12:12:19.000Z</time>
      </trkpt>
      <trkpt lat="44.77784" lon="5.06157">
        <ele>547</ele>
        <time>2020-02-07T12:12:20.000Z</time>
      </trkpt>
      <trkpt lat="44.77784" lon="5.06155">
        <ele>547</ele>
        <time>2020-02-07T12:12:21.000Z</time>
      </trkpt>
      <trkpt lat="44.77783" lon="5.06154">
        <ele>547</ele>
        <time>2020-02-07T12:12:22.000Z</time>
      </trkpt>
      <trkpt lat="44.77782" lon="5.06152">
        <ele>546</ele>
        <time>2020-02-07T12:12:23.000Z</time>
      </trkpt>
      <trkpt lat="44.77782" lon="5.06151">
        <ele>546</ele>
        <time>2020-02-07T12:12:24.000Z</time>
      </trkpt>
      <trkpt lat="44.77781" lon="5.0615">
        <ele>546</ele>
        <time>2020-02-07T12:12:25.000Z</time>
      </trkpt>
      <trkpt lat="44.7778" lon="5.06148">
        <ele>546</ele>
        <time>2020-02-07T12:12:26.000Z</time>
      </trkpt>
      <trkpt lat="44.7778" lon="5.06147">
        <ele>546</ele>
        <time>2020-02-07T12:12:27.000Z</time>
      </trkpt>
      <trkpt lat="44.77779" lon="5.06145">
        <ele>546</ele>
        <time>2020-02-07T12:12:28.000Z</time>
      </trkpt>
      <trkpt lat="44.77779" lon="5.06144">
        <ele>546</ele>
        <time>2020-02-07T12:12:29.000Z</time>
      </trkpt>
      <trkpt lat="44.77778" lon="5.06142">
        <ele>546</ele>
        <time>2020-02-07T12:12:30.000Z</time>
      </trkpt>
      <trkpt lat="44.77777" lon="5.06141">
        <ele>545</ele>
        <time>2020-02-07T12:12:31.000Z</time>
      </trkpt>
      <trkpt lat="44.77777" lon="5.0614">
        <ele>545</ele>
        <time>2020-02-07T12:12:32.000Z</time>
      </trkpt>
      <trkpt lat="44.77776" lon="5.06139">
        <ele>545</ele>
        <time>2020-02-07T12:12:33.000Z</time>
      </trkpt>
      <trkpt lat="44.77776" lon="5.06137">
        <ele>545</ele>
        <time>2020-02-07T12:12:34.000Z</time>
      </trkpt>
      <trkpt lat="44.77775" lon="5.06136">
        <ele>545</ele>
        <time>2020-02-07T12:12:35.000Z</time>
      </trkpt>
      <trkpt lat="44.77775" lon="5.06135">
        <ele>545</ele>
        <time>2020-02-07T12:12:36.000Z</time>
      </trkpt>
      <trkpt lat="44.77774" lon="5.06133">
        <ele>544</ele>
        <time>2020-02-07T12:12:37.000Z</time>
      </trkpt>
      <trkpt lat="44.77774" lon="5.06131">
        <ele>544</ele>
        <time>2020-02-07T12:12:38.000Z</time>
      </trkpt>
      <trkpt lat="44.77773" lon="5.0613">
        <ele>544</ele>
        <time>2020-02-07T12:12:39.000Z</time>
      </trkpt>
      <trkpt lat="44.77773" lon="5.06129">
        <ele>544</ele>
        <time>2020-02-07T12:12:40.000Z</time>
      </trkpt>
      <trkpt lat="44.77773" lon="5.06127">
        <ele>544</ele>
        <time>2020-02-07T12:12:41.000Z</time>
      </trkpt>
      <trkpt lat="44.77772" lon="5.06126">
        <ele>544</ele>
        <time>2020-02-07T12:12:42.000Z</time>
      </trkpt>
      <trkpt lat="44.77772" lon="5.06125">
        <ele>544</ele>
        <time>2020-02-07T12:12:43.000Z</time>
      </trkpt>
      <trkpt lat="44.77772" lon="5.06124">
        <ele>544</ele>
        <time>2020-02-07T12:12:44.000Z</time>
      </trkpt>
      <trkpt lat="44.77772" lon="5.06122">
        <ele>544</ele>
        <time>2020-02-07T12:12:45.000Z</time>
      </trkpt>
      <trkpt lat="44.77772" lon="5.06121">
        <ele>543</ele>
        <time>2020-02-07T12:12:46.000Z</time>
      </trkpt>
      <trkpt lat="44.77772" lon="5.0612">
        <ele>543</ele>
        <time>2020-02-07T12:12:47.000Z</time>
      </trkpt>
      <trkpt lat="44.77772" lon="5.06119">
        <ele>543</ele>
        <time>2020-02-07T12:12:48.000Z</time>
      </trkpt>
      <trkpt lat="44.77772" lon="5.06118">
        <ele>543</ele>
        <time>2020-02-07T12:12:49.000Z</time>
      </trkpt>
      <trkpt lat="44.77772" lon="5.06117">
        <ele>543</ele>
        <time>2020-02-07T12:12:50.000Z</time>
      </trkpt>
      <trkpt lat="44.77771" lon="5.06115">
        <ele>543</ele>
        <time>2020-02-07T12:12:51.000Z</time>
      </trkpt>
      <trkpt lat="44.77771" lon="5.06114">
        <ele>543</ele>
        <time>2020-02-07T12:12:52.000Z</time>
      </trkpt>
      <trkpt lat="44.77771" lon="5.06112">
        <ele>543</ele>
        <time>2020-02-07T12:12:53.000Z</time>
      </trkpt>
      <trkpt lat="44.7777" lon="5.06111">
        <ele>544</ele>
        <time>2020-02-07T12:12:54.000Z</time>
      </trkpt>
      <trkpt lat="44.7777" lon="5.06111">
        <ele>544</ele>
        <time>2020-02-07T12:12:55.000Z</time>
      </trkpt>
      <trkpt lat="44.7777" lon="5.06109">
        <ele>544</ele>
        <time>2020-02-07T12:12:56.000Z</time>
      </trkpt>
      <trkpt lat="44.7777" lon="5.06108">
        <ele>544</ele>
        <time>2020-02-07T12:12:57.000Z</time>
      </trkpt>
      <trkpt lat="44.7777" lon="5.06106">
        <ele>544</ele>
        <time>2020-02-07T12:12:58.000Z</time>
      </trkpt>
      <trkpt lat="44.7777" lon="5.06104">
        <ele>544</ele>
        <time>2020-02-07T12:12:59.000Z</time>
      </trkpt>
      <trkpt lat="44.7777" lon="5.06102">
        <ele>544</ele>
        <time>2020-02-07T12:13:00.000Z</time>
      </trkpt>
      <trkpt lat="44.7777" lon="5.06101">
        <ele>544</ele>
        <time>2020-02-07T12:13:01.000Z</time>
      </trkpt>
      <trkpt lat="44.7777" lon="5.06099">
        <ele>544</ele>
        <time>2020-02-07T12:13:02.000Z</time>
      </trkpt>
      <trkpt lat="44.7777" lon="5.06097">
        <ele>544</ele>
        <time>2020-02-07T12:13:03.000Z</time>
      </trkpt>
      <trkpt lat="44.77771" lon="5.06095">
        <ele>544</ele>
        <time>2020-02-07T12:13:04.000Z</time>
      </trkpt>
      <trkpt lat="44.77771" lon="5.06093">
        <ele>544</ele>
        <time>2020-02-07T12:13:05.000Z</time>
      </trkpt>
      <trkpt lat="44.77771" lon="5.06092">
        <ele>544</ele>
        <time>2020-02-07T12:13:06.000Z</time>
      </trkpt>
      <trkpt lat="44.77771" lon="5.0609">
        <ele>544</ele>
        <time>2020-02-07T12:13:07.000Z</time>
      </trkpt>
      <trkpt lat="44.77771" lon="5.06089">
        <ele>544</ele>
        <time>2020-02-07T12:13:08.000Z</time>
      </trkpt>
      <trkpt lat="44.77771" lon="5.06087">
        <ele>544</ele>
        <time>2020-02-07T12:13:09.000Z</time>
      </trkpt>
      <trkpt lat="44.77771" lon="5.06086">
        <ele>543</ele>
        <time>2020-02-07T12:13:10.000Z</time>
      </trkpt>
      <trkpt lat="44.77771" lon="5.06084">
        <ele>543</ele>
        <time>2020-02-07T12:13:11.000Z</time>
      </trkpt>
      <trkpt lat="44.77771" lon="5.06082">
        <ele>543</ele>
        <time>2020-02-07T12:13:12.000Z</time>
      </trkpt>
      <trkpt lat="44.77771" lon="5.06081">
        <ele>543</ele>
        <time>2020-02-07T12:13:13.000Z</time>
      </trkpt>
      <trkpt lat="44.77771" lon="5.06079">
        <ele>543</ele>
        <time>2020-02-07T12:13:14.000Z</time>
      </trkpt>
      <trkpt lat="44.77771" lon="5.06078">
        <ele>543</ele>
        <time>2020-02-07T12:13:15.000Z</time>
      </trkpt>
      <trkpt lat="44.77771" lon="5.06076">
        <ele>543</ele>
        <time>2020-02-07T12:13:16.000Z</time>
      </trkpt>
      <trkpt lat="44.77771" lon="5.06075">
        <ele>543</ele>
        <time>2020-02-07T12:13:17.000Z</time>
      </trkpt>
      <trkpt lat="44.77771" lon="5.06073">
        <ele>543</ele>
        <time>2020-02-07T12:13:18.000Z</time>
      </trkpt>
      <trkpt lat="44.77771" lon="5.06072">
        <ele>543</ele>
        <time>2020-02-07T12:13:19.000Z</time>
      </trkpt>
      <trkpt lat="44.77771" lon="5.0607">
        <ele>543</ele>
        <time>2020-02-07T12:13:20.000Z</time>
      </trkpt>
      <trkpt lat="44.77772" lon="5.06069">
        <ele>543</ele>
        <time>2020-02-07T12:13:21.000Z</time>
      </trkpt>
      <trkpt lat="44.77772" lon="5.06067">
        <ele>543</ele>
        <time>2020-02-07T12:13:22.000Z</time>
      </trkpt>
      <trkpt lat="44.77772" lon="5.06066">
        <ele>543</ele>
        <time>2020-02-07T12:13:23.000Z</time>
      </trkpt>
      <trkpt lat="44.77772" lon="5.06064">
        <ele>543</ele>
        <time>2020-02-07T12:13:24.000Z</time>
      </trkpt>
      <trkpt lat="44.77773" lon="5.06063">
        <ele>543</ele>
        <time>2020-02-07T12:13:25.000Z</time>
      </trkpt>
      <trkpt lat="44.77773" lon="5.06061">
        <ele>543</ele>
        <time>2020-02-07T12:13:26.000Z</time>
      </trkpt>
      <trkpt lat="44.77773" lon="5.06059">
        <ele>543</ele>
        <time>2020-02-07T12:13:27.000Z</time>
      </trkpt>
      <trkpt lat="44.77773" lon="5.06058">
        <ele>543</ele>
        <time>2020-02-07T12:13:28.000Z</time>
      </trkpt>
      <trkpt lat="44.77774" lon="5.06056">
        <ele>543</ele>
        <time>2020-02-07T12:13:29.000Z</time>
      </trkpt>
      <trkpt lat="44.77774" lon="5.06055">
        <ele>543</ele>
        <time>2020-02-07T12:13:30.000Z</time>
      </trkpt>
      <trkpt lat="44.77774" lon="5.06053">
        <ele>542</ele>
        <time>2020-02-07T12:13:31.000Z</time>
      </trkpt>
      <trkpt lat="44.77775" lon="5.06052">
        <ele>542</ele>
        <time>2020-02-07T12:13:32.000Z</time>
      </trkpt>
      <trkpt lat="44.77776" lon="5.0605">
        <ele>542</ele>
        <time>2020-02-07T12:13:33.000Z</time>
      </trkpt>
      <trkpt lat="44.77776" lon="5.06049">
        <ele>542</ele>
        <time>2020-02-07T12:13:34.000Z</time>
      </trkpt>
      <trkpt lat="44.77777" lon="5.06047">
        <ele>541</ele>
        <time>2020-02-07T12:13:35.000Z</time>
      </trkpt>
      <trkpt lat="44.77778" lon="5.06046">
        <ele>541</ele>
        <time>2020-02-07T12:13:36.000Z</time>
      </trkpt>
      <trkpt lat="44.77778" lon="5.06044">
        <ele>541</ele>
        <time>2020-02-07T12:13:37.000Z</time>
      </trkpt>
      <trkpt lat="44.77779" lon="5.06043">
        <ele>541</ele>
        <time>2020-02-07T12:13:38.000Z</time>
      </trkpt>
      <trkpt lat="44.7778" lon="5.06041">
        <ele>540</ele>
        <time>2020-02-07T12:13:39.000Z</time>
      </trkpt>
      <trkpt lat="44.7778" lon="5.0604">
        <ele>540</ele>
        <time>2020-02-07T12:13:40.000Z</time>
      </trkpt>
      <trkpt lat="44.77781" lon="5.06039">
        <ele>540</ele>
        <time>2020-02-07T12:13:41.000Z</time>
      </trkpt>
      <trkpt lat="44.77781" lon="5.06037">
        <ele>540</ele>
        <time>2020-02-07T12:13:42.000Z</time>
      </trkpt>
      <trkpt lat="44.77782" lon="5.06036">
        <ele>540</ele>
        <time>2020-02-07T12:13:43.000Z</time>
      </trkpt>
      <trkpt lat="44.77782" lon="5.06035">
        <ele>540</ele>
        <time>2020-02-07T12:13:44.000Z</time>
      </trkpt>
      <trkpt lat="44.77783" lon="5.06033">
        <ele>540</ele>
        <time>2020-02-07T12:13:45.000Z</time>
      </trkpt>
      <trkpt lat="44.77783" lon="5.06032">
        <ele>540</ele>
        <time>2020-02-07T12:13:46.000Z</time>
      </trkpt>
      <trkpt lat="44.77784" lon="5.06031">
        <ele>539</ele>
        <time>2020-02-07T12:13:47.000Z</time>
      </trkpt>
      <trkpt lat="44.77784" lon="5.0603">
        <ele>539</ele>
        <time>2020-02-07T12:13:48.000Z</time>
      </trkpt>
      <trkpt lat="44.77785" lon="5.06029">
        <ele>539</ele>
        <time>2020-02-07T12:13:49.000Z</time>
      </trkpt>
      <trkpt lat="44.77786" lon="5.06028">
        <ele>539</ele>
        <time>2020-02-07T12:13:50.000Z</time>
      </trkpt>
      <trkpt lat="44.77786" lon="5.06027">
        <ele>539</ele>
        <time>2020-02-07T12:13:51.000Z</time>
      </trkpt>
      <trkpt lat="44.77787" lon="5.06025">
        <ele>539</ele>
        <time>2020-02-07T12:13:52.000Z</time>
      </trkpt>
      <trkpt lat="44.77787" lon="5.06024">
        <ele>539</ele>
        <time>2020-02-07T12:13:53.000Z</time>
      </trkpt>
      <trkpt lat="44.77788" lon="5.06023">
        <ele>539</ele>
        <time>2020-02-07T12:13:54.000Z</time>
      </trkpt>
      <trkpt lat="44.77789" lon="5.06021">
        <ele>539</ele>
        <time>2020-02-07T12:13:55.000Z</time>
      </trkpt>
      <trkpt lat="44.7779" lon="5.0602">
        <ele>539</ele>
        <time>2020-02-07T12:13:56.000Z</time>
      </trkpt>
      <trkpt lat="44.7779" lon="5.06018">
        <ele>539</ele>
        <time>2020-02-07T12:13:57.000Z</time>
      </trkpt>
      <trkpt lat="44.77791" lon="5.06017">
        <ele>539</ele>
        <time>2020-02-07T12:13:58.000Z</time>
      </trkpt>
      <trkpt lat="44.77792" lon="5.06016">
        <ele>539</ele>
        <time>2020-02-07T12:13:59.000Z</time>
      </trkpt>
      <trkpt lat="44.77792" lon="5.06014">
        <ele>539</ele>
        <time>2020-02-07T12:14:00.000Z</time>
      </trkpt>
      <trkpt lat="44.77792" lon="5.06012">
        <ele>539</ele>
        <time>2020-02-07T12:14:01.000Z</time>
      </trkpt>
      <trkpt lat="44.77791" lon="5.06011">
        <ele>539</ele>
        <time>2020-02-07T12:14:02.000Z</time>
      </trkpt>
      <trkpt lat="44.77791" lon="5.06009">
        <ele>539</ele>
        <time>2020-02-07T12:14:03.000Z</time>
      </trkpt>
      <trkpt lat="44.77791" lon="5.06008">
        <ele>539</ele>
        <time>2020-02-07T12:14:04.000Z</time>
      </trkpt>
      <trkpt lat="44.7779" lon="5.06007">
        <ele>539</ele>
        <time>2020-02-07T12:14:05.000Z</time>
      </trkpt>
      <trkpt lat="44.77789" lon="5.06005">
        <ele>539</ele>
        <time>2020-02-07T12:14:06.000Z</time>
      </trkpt>
      <trkpt lat="44.77788" lon="5.06004">
        <ele>539</ele>
        <time>2020-02-07T12:14:07.000Z</time>
      </trkpt>
      <trkpt lat="44.77788" lon="5.06003">
        <ele>539</ele>
        <time>2020-02-07T12:14:08.000Z</time>
      </trkpt>
      <trkpt lat="44.77787" lon="5.06003">
        <ele>540</ele>
        <time>2020-02-07T12:14:09.000Z</time>
      </trkpt>
      <trkpt lat="44.77786" lon="5.06002">
        <ele>540</ele>
        <time>2020-02-07T12:14:10.000Z</time>
      </trkpt>
      <trkpt lat="44.77785" lon="5.06001">
        <ele>540</ele>
        <time>2020-02-07T12:14:11.000Z</time>
      </trkpt>
      <trkpt lat="44.77784" lon="5.06001">
        <ele>540</ele>
        <time>2020-02-07T12:14:12.000Z</time>
      </trkpt>
      <trkpt lat="44.77783" lon="5.06">
        <ele>540</ele>
        <time>2020-02-07T12:14:13.000Z</time>
      </trkpt>
      <trkpt lat="44.77782" lon="5.05999">
        <ele>540</ele>
        <time>2020-02-07T12:14:14.000Z</time>
      </trkpt>
      <trkpt lat="44.77782" lon="5.05998">
        <ele>540</ele>
        <time>2020-02-07T12:14:15.000Z</time>
      </trkpt>
      <trkpt lat="44.77781" lon="5.05996">
        <ele>540</ele>
        <time>2020-02-07T12:14:16.000Z</time>
      </trkpt>
      <trkpt lat="44.7778" lon="5.05995">
        <ele>540</ele>
        <time>2020-02-07T12:14:17.000Z</time>
      </trkpt>
      <trkpt lat="44.7778" lon="5.05994">
        <ele>540</ele>
        <time>2020-02-07T12:14:18.000Z</time>
      </trkpt>
      <trkpt lat="44.7778" lon="5.05992">
        <ele>540</ele>
        <time>2020-02-07T12:14:19.000Z</time>
      </trkpt>
      <trkpt lat="44.7778" lon="5.05991">
        <ele>540</ele>
        <time>2020-02-07T12:14:20.000Z</time>
      </trkpt>
      <trkpt lat="44.7778" lon="5.0599">
        <ele>541</ele>
        <time>2020-02-07T12:14:21.000Z</time>
      </trkpt>
      <trkpt lat="44.7778" lon="5.05988">
        <ele>541</ele>
        <time>2020-02-07T12:14:22.000Z</time>
      </trkpt>
      <trkpt lat="44.77779" lon="5.05986">
        <ele>541</ele>
        <time>2020-02-07T12:14:23.000Z</time>
      </trkpt>
      <trkpt lat="44.77779" lon="5.05985">
        <ele>541</ele>
        <time>2020-02-07T12:14:24.000Z</time>
      </trkpt>
      <trkpt lat="44.77779" lon="5.05984">
        <ele>541</ele>
        <time>2020-02-07T12:14:25.000Z</time>
      </trkpt>
      <trkpt lat="44.77779" lon="5.05982">
        <ele>541</ele>
        <time>2020-02-07T12:14:26.000Z</time>
      </trkpt>
      <trkpt lat="44.7778" lon="5.05981">
        <ele>541</ele>
        <time>2020-02-07T12:14:27.000Z</time>
      </trkpt>
      <trkpt lat="44.7778" lon="5.0598">
        <ele>541</ele>
        <time>2020-02-07T12:14:28.000Z</time>
      </trkpt>
      <trkpt lat="44.7778" lon="5.05979">
        <ele>541</ele>
        <time>2020-02-07T12:14:29.000Z</time>
      </trkpt>
      <trkpt lat="44.7778" lon="5.05978">
        <ele>542</ele>
        <time>2020-02-07T12:14:30.000Z</time>
      </trkpt>
      <trkpt lat="44.7778" lon="5.05977">
        <ele>542</ele>
        <time>2020-02-07T12:14:31.000Z</time>
      </trkpt>
      <trkpt lat="44.7778" lon="5.05976">
        <ele>542</ele>
        <time>2020-02-07T12:14:32.000Z</time>
      </trkpt>
      <trkpt lat="44.7778" lon="5.05974">
        <ele>542</ele>
        <time>2020-02-07T12:14:33.000Z</time>
      </trkpt>
      <trkpt lat="44.7778" lon="5.05973">
        <ele>542</ele>
        <time>2020-02-07T12:14:34.000Z</time>
      </trkpt>
      <trkpt lat="44.7778" lon="5.05972">
        <ele>542</ele>
        <time>2020-02-07T12:14:35.000Z</time>
      </trkpt>
      <trkpt lat="44.7778" lon="5.0597">
        <ele>543</ele>
        <time>2020-02-07T12:14:36.000Z</time>
      </trkpt>
      <trkpt lat="44.77781" lon="5.05969">
        <ele>542</ele>
        <time>2020-02-07T12:14:37.000Z</time>
      </trkpt>
      <trkpt lat="44.77781" lon="5.05967">
        <ele>542</ele>
        <time>2020-02-07T12:14:38.000Z</time>
      </trkpt>
      <trkpt lat="44.77782" lon="5.05966">
        <ele>542</ele>
        <time>2020-02-07T12:14:39.000Z</time>
      </trkpt>
      <trkpt lat="44.77783" lon="5.05965">
        <ele>542</ele>
        <time>2020-02-07T12:14:40.000Z</time>
      </trkpt>
      <trkpt lat="44.77783" lon="5.05963">
        <ele>542</ele>
        <time>2020-02-07T12:14:41.000Z</time>
      </trkpt>
      <trkpt lat="44.77784" lon="5.05962">
        <ele>542</ele>
        <time>2020-02-07T12:14:42.000Z</time>
      </trkpt>
      <trkpt lat="44.77784" lon="5.05961">
        <ele>542</ele>
        <time>2020-02-07T12:14:43.000Z</time>
      </trkpt>
      <trkpt lat="44.77785" lon="5.0596">
        <ele>542</ele>
        <time>2020-02-07T12:14:44.000Z</time>
      </trkpt>
      <trkpt lat="44.77785" lon="5.05959">
        <ele>541</ele>
        <time>2020-02-07T12:14:45.000Z</time>
      </trkpt>
      <trkpt lat="44.77786" lon="5.05958">
        <ele>541</ele>
        <time>2020-02-07T12:14:46.000Z</time>
      </trkpt>
      <trkpt lat="44.77786" lon="5.05957">
        <ele>541</ele>
        <time>2020-02-07T12:14:47.000Z</time>
      </trkpt>
      <trkpt lat="44.77786" lon="5.05956">
        <ele>541</ele>
        <time>2020-02-07T12:14:48.000Z</time>
      </trkpt>
      <trkpt lat="44.77787" lon="5.05955">
        <ele>541</ele>
        <time>2020-02-07T12:14:49.000Z</time>
      </trkpt>
      <trkpt lat="44.77787" lon="5.05954">
        <ele>542</ele>
        <time>2020-02-07T12:14:50.000Z</time>
      </trkpt>
      <trkpt lat="44.77788" lon="5.05954">
        <ele>542</ele>
        <time>2020-02-07T12:14:51.000Z</time>
      </trkpt>
      <trkpt lat="44.77789" lon="5.05953">
        <ele>542</ele>
        <time>2020-02-07T12:14:52.000Z</time>
      </trkpt>
      <trkpt lat="44.77789" lon="5.05952">
        <ele>542</ele>
        <time>2020-02-07T12:14:53.000Z</time>
      </trkpt>
      <trkpt lat="44.7779" lon="5.05952">
        <ele>541</ele>
        <time>2020-02-07T12:14:54.000Z</time>
      </trkpt>
      <trkpt lat="44.7779" lon="5.05951">
        <ele>541</ele>
        <time>2020-02-07T12:14:55.000Z</time>
      </trkpt>
      <trkpt lat="44.77791" lon="5.0595">
        <ele>541</ele>
        <time>2020-02-07T12:14:56.000Z</time>
      </trkpt>
      <trkpt lat="44.77792" lon="5.0595">
        <ele>541</ele>
        <time>2020-02-07T12:14:57.000Z</time>
      </trkpt>
      <trkpt lat="44.77792" lon="5.05949">
        <ele>541</ele>
        <time>2020-02-07T12:14:58.000Z</time>
      </trkpt>
      <trkpt lat="44.77793" lon="5.05949">
        <ele>541</ele>
        <time>2020-02-07T12:14:59.000Z</time>
      </trkpt>
      <trkpt lat="44.77794" lon="5.05948">
        <ele>541</ele>
        <time>2020-02-07T12:15:00.000Z</time>
      </trkpt>
      <trkpt lat="44.77795" lon="5.05948">
        <ele>541</ele>
        <time>2020-02-07T12:15:01.000Z</time>
      </trkpt>
      <trkpt lat="44.77796" lon="5.05947">
        <ele>541</ele>
        <time>2020-02-07T12:15:02.000Z</time>
      </trkpt>
      <trkpt lat="44.77797" lon="5.05945">
        <ele>541</ele>
        <time>2020-02-07T12:15:03.000Z</time>
      </trkpt>
      <trkpt lat="44.77797" lon="5.05944">
        <ele>541</ele>
        <time>2020-02-07T12:15:04.000Z</time>
      </trkpt>
      <trkpt lat="44.77798" lon="5.05943">
        <ele>540</ele>
        <time>2020-02-07T12:15:05.000Z</time>
      </trkpt>
      <trkpt lat="44.77798" lon="5.05941">
        <ele>540</ele>
        <time>2020-02-07T12:15:06.000Z</time>
      </trkpt>
      <trkpt lat="44.77798" lon="5.0594">
        <ele>540</ele>
        <time>2020-02-07T12:15:07.000Z</time>
      </trkpt>
      <trkpt lat="44.77798" lon="5.05938">
        <ele>540</ele>
        <time>2020-02-07T12:15:08.000Z</time>
      </trkpt>
      <trkpt lat="44.77797" lon="5.05937">
        <ele>540</ele>
        <time>2020-02-07T12:15:09.000Z</time>
      </trkpt>
      <trkpt lat="44.77797" lon="5.05936">
        <ele>540</ele>
        <time>2020-02-07T12:15:10.000Z</time>
      </trkpt>
      <trkpt lat="44.77796" lon="5.05935">
        <ele>540</ele>
        <time>2020-02-07T12:15:11.000Z</time>
      </trkpt>
      <trkpt lat="44.77795" lon="5.05934">
        <ele>540</ele>
        <time>2020-02-07T12:15:12.000Z</time>
      </trkpt>
      <trkpt lat="44.77794" lon="5.05933">
        <ele>540</ele>
        <time>2020-02-07T12:15:13.000Z</time>
      </trkpt>
      <trkpt lat="44.77793" lon="5.05933">
        <ele>540</ele>
        <time>2020-02-07T12:15:14.000Z</time>
      </trkpt>
      <trkpt lat="44.77792" lon="5.05932">
        <ele>539</ele>
        <time>2020-02-07T12:15:15.000Z</time>
      </trkpt>
      <trkpt lat="44.77791" lon="5.05931">
        <ele>539</ele>
        <time>2020-02-07T12:15:16.000Z</time>
      </trkpt>
      <trkpt lat="44.7779" lon="5.0593">
        <ele>539</ele>
        <time>2020-02-07T12:15:17.000Z</time>
      </trkpt>
      <trkpt lat="44.7779" lon="5.05929">
        <ele>539</ele>
        <time>2020-02-07T12:15:18.000Z</time>
      </trkpt>
      <trkpt lat="44.77789" lon="5.05929">
        <ele>539</ele>
        <time>2020-02-07T12:15:19.000Z</time>
      </trkpt>
      <trkpt lat="44.77789" lon="5.05928">
        <ele>539</ele>
        <time>2020-02-07T12:15:20.000Z</time>
      </trkpt>
      <trkpt lat="44.77788" lon="5.05927">
        <ele>539</ele>
        <time>2020-02-07T12:15:21.000Z</time>
      </trkpt>
      <trkpt lat="44.77787" lon="5.05927">
        <ele>539</ele>
        <time>2020-02-07T12:15:22.000Z</time>
      </trkpt>
      <trkpt lat="44.77786" lon="5.05926">
        <ele>538</ele>
        <time>2020-02-07T12:15:23.000Z</time>
      </trkpt>
      <trkpt lat="44.77786" lon="5.05925">
        <ele>538</ele>
        <time>2020-02-07T12:15:24.000Z</time>
      </trkpt>
      <trkpt lat="44.77785" lon="5.05924">
        <ele>538</ele>
        <time>2020-02-07T12:15:25.000Z</time>
      </trkpt>
      <trkpt lat="44.77784" lon="5.05924">
        <ele>538</ele>
        <time>2020-02-07T12:15:26.000Z</time>
      </trkpt>
      <trkpt lat="44.77783" lon="5.05923">
        <ele>538</ele>
        <time>2020-02-07T12:15:27.000Z</time>
      </trkpt>
      <trkpt lat="44.77783" lon="5.05922">
        <ele>538</ele>
        <time>2020-02-07T12:15:28.000Z</time>
      </trkpt>
      <trkpt lat="44.77782" lon="5.05922">
        <ele>538</ele>
        <time>2020-02-07T12:15:29.000Z</time>
      </trkpt>
      <trkpt lat="44.77781" lon="5.05921">
        <ele>537</ele>
        <time>2020-02-07T12:15:30.000Z</time>
      </trkpt>
      <trkpt lat="44.77781" lon="5.0592">
        <ele>537</ele>
        <time>2020-02-07T12:15:31.000Z</time>
      </trkpt>
      <trkpt lat="44.7778" lon="5.05919">
        <ele>537</ele>
        <time>2020-02-07T12:15:32.000Z</time>
      </trkpt>
      <trkpt lat="44.7778" lon="5.05918">
        <ele>537</ele>
        <time>2020-02-07T12:15:33.000Z</time>
      </trkpt>
      <trkpt lat="44.7778" lon="5.05917">
        <ele>537</ele>
        <time>2020-02-07T12:15:34.000Z</time>
      </trkpt>
      <trkpt lat="44.77779" lon="5.05917">
        <ele>537</ele>
        <time>2020-02-07T12:15:35.000Z</time>
      </trkpt>
      <trkpt lat="44.77779" lon="5.05916">
        <ele>537</ele>
        <time>2020-02-07T12:15:36.000Z</time>
      </trkpt>
      <trkpt lat="44.77778" lon="5.05915">
        <ele>537</ele>
        <time>2020-02-07T12:15:37.000Z</time>
      </trkpt>
      <trkpt lat="44.77777" lon="5.05913">
        <ele>537</ele>
        <time>2020-02-07T12:15:38.000Z</time>
      </trkpt>
      <trkpt lat="44.77777" lon="5.05912">
        <ele>537</ele>
        <time>2020-02-07T12:15:39.000Z</time>
      </trkpt>
      <trkpt lat="44.77777" lon="5.0591">
        <ele>537</ele>
        <time>2020-02-07T12:15:40.000Z</time>
      </trkpt>
      <trkpt lat="44.77776" lon="5.05909">
        <ele>537</ele>
        <time>2020-02-07T12:15:41.000Z</time>
      </trkpt>
      <trkpt lat="44.77776" lon="5.05908">
        <ele>537</ele>
        <time>2020-02-07T12:15:42.000Z</time>
      </trkpt>
      <trkpt lat="44.77776" lon="5.05906">
        <ele>537</ele>
        <time>2020-02-07T12:15:43.000Z</time>
      </trkpt>
      <trkpt lat="44.77775" lon="5.05905">
        <ele>537</ele>
        <time>2020-02-07T12:15:44.000Z</time>
      </trkpt>
      <trkpt lat="44.77775" lon="5.05904">
        <ele>537</ele>
        <time>2020-02-07T12:15:45.000Z</time>
      </trkpt>
      <trkpt lat="44.77774" lon="5.05902">
        <ele>537</ele>
        <time>2020-02-07T12:15:46.000Z</time>
      </trkpt>
      <trkpt lat="44.77774" lon="5.05901">
        <ele>537</ele>
        <time>2020-02-07T12:15:47.000Z</time>
      </trkpt>
      <trkpt lat="44.77774" lon="5.05899">
        <ele>536</ele>
        <time>2020-02-07T12:15:48.000Z</time>
      </trkpt>
      <trkpt lat="44.77773" lon="5.05898">
        <ele>536</ele>
        <time>2020-02-07T12:15:49.000Z</time>
      </trkpt>
      <trkpt lat="44.77773" lon="5.05896">
        <ele>536</ele>
        <time>2020-02-07T12:15:50.000Z</time>
      </trkpt>
      <trkpt lat="44.77773" lon="5.05895">
        <ele>536</ele>
        <time>2020-02-07T12:15:51.000Z</time>
      </trkpt>
      <trkpt lat="44.77772" lon="5.05894">
        <ele>536</ele>
        <time>2020-02-07T12:15:52.000Z</time>
      </trkpt>
      <trkpt lat="44.77772" lon="5.05892">
        <ele>536</ele>
        <time>2020-02-07T12:15:53.000Z</time>
      </trkpt>
      <trkpt lat="44.77771" lon="5.05891">
        <ele>536</ele>
        <time>2020-02-07T12:15:54.000Z</time>
      </trkpt>
      <trkpt lat="44.77771" lon="5.0589">
        <ele>536</ele>
        <time>2020-02-07T12:15:55.000Z</time>
      </trkpt>
      <trkpt lat="44.7777" lon="5.05888">
        <ele>536</ele>
        <time>2020-02-07T12:15:56.000Z</time>
      </trkpt>
      <trkpt lat="44.7777" lon="5.05887">
        <ele>536</ele>
        <time>2020-02-07T12:15:57.000Z</time>
      </trkpt>
      <trkpt lat="44.77769" lon="5.05885">
        <ele>536</ele>
        <time>2020-02-07T12:15:58.000Z</time>
      </trkpt>
      <trkpt lat="44.77769" lon="5.05884">
        <ele>536</ele>
        <time>2020-02-07T12:15:59.000Z</time>
      </trkpt>
      <trkpt lat="44.77768" lon="5.05882">
        <ele>536</ele>
        <time>2020-02-07T12:16:00.000Z</time>
      </trkpt>
      <trkpt lat="44.77767" lon="5.05881">
        <ele>536</ele>
        <time>2020-02-07T12:16:01.000Z</time>
      </trkpt>
      <trkpt lat="44.77767" lon="5.0588">
        <ele>536</ele>
        <time>2020-02-07T12:16:02.000Z</time>
      </trkpt>
      <trkpt lat="44.77766" lon="5.05879">
        <ele>536</ele>
        <time>2020-02-07T12:16:03.000Z</time>
      </trkpt>
      <trkpt lat="44.77766" lon="5.05877">
        <ele>536</ele>
        <time>2020-02-07T12:16:04.000Z</time>
      </trkpt>
      <trkpt lat="44.77765" lon="5.05876">
        <ele>535</ele>
        <time>2020-02-07T12:16:05.000Z</time>
      </trkpt>
      <trkpt lat="44.77765" lon="5.05874">
        <ele>535</ele>
        <time>2020-02-07T12:16:06.000Z</time>
      </trkpt>
      <trkpt lat="44.77765" lon="5.05873">
        <ele>535</ele>
        <time>2020-02-07T12:16:07.000Z</time>
      </trkpt>
      <trkpt lat="44.77764" lon="5.05872">
        <ele>535</ele>
        <time>2020-02-07T12:16:08.000Z</time>
      </trkpt>
      <trkpt lat="44.77764" lon="5.0587">
        <ele>535</ele>
        <time>2020-02-07T12:16:09.000Z</time>
      </trkpt>
      <trkpt lat="44.77763" lon="5.05869">
        <ele>535</ele>
        <time>2020-02-07T12:16:10.000Z</time>
      </trkpt>
      <trkpt lat="44.77762" lon="5.05867">
        <ele>535</ele>
        <time>2020-02-07T12:16:11.000Z</time>
      </trkpt>
      <trkpt lat="44.77762" lon="5.05865">
        <ele>535</ele>
        <time>2020-02-07T12:16:12.000Z</time>
      </trkpt>
      <trkpt lat="44.77762" lon="5.05864">
        <ele>535</ele>
        <time>2020-02-07T12:16:13.000Z</time>
      </trkpt>
      <trkpt lat="44.77761" lon="5.05863">
        <ele>535</ele>
        <time>2020-02-07T12:16:14.000Z</time>
      </trkpt>
      <trkpt lat="44.77761" lon="5.05862">
        <ele>536</ele>
        <time>2020-02-07T12:16:15.000Z</time>
      </trkpt>
      <trkpt lat="44.7776" lon="5.05861">
        <ele>536</ele>
        <time>2020-02-07T12:16:16.000Z</time>
      </trkpt>
      <trkpt lat="44.7776" lon="5.05859">
        <ele>536</ele>
        <time>2020-02-07T12:16:17.000Z</time>
      </trkpt>
      <trkpt lat="44.77759" lon="5.05858">
        <ele>536</ele>
        <time>2020-02-07T12:16:18.000Z</time>
      </trkpt>
      <trkpt lat="44.77759" lon="5.05857">
        <ele>536</ele>
        <time>2020-02-07T12:16:19.000Z</time>
      </trkpt>
      <trkpt lat="44.77759" lon="5.05856">
        <ele>536</ele>
        <time>2020-02-07T12:16:20.000Z</time>
      </trkpt>
      <trkpt lat="44.77758" lon="5.05854">
        <ele>536</ele>
        <time>2020-02-07T12:16:21.000Z</time>
      </trkpt>
      <trkpt lat="44.77758" lon="5.05853">
        <ele>536</ele>
        <time>2020-02-07T12:16:22.000Z</time>
      </trkpt>
      <trkpt lat="44.77757" lon="5.05852">
        <ele>536</ele>
        <time>2020-02-07T12:16:23.000Z</time>
      </trkpt>
      <trkpt lat="44.77757" lon="5.0585">
        <ele>536</ele>
        <time>2020-02-07T12:16:24.000Z</time>
      </trkpt>
      <trkpt lat="44.77757" lon="5.05849">
        <ele>535</ele>
        <time>2020-02-07T12:16:25.000Z</time>
      </trkpt>
      <trkpt lat="44.77757" lon="5.05847">
        <ele>535</ele>
        <time>2020-02-07T12:16:26.000Z</time>
      </trkpt>
      <trkpt lat="44.77757" lon="5.05846">
        <ele>535</ele>
        <time>2020-02-07T12:16:27.000Z</time>
      </trkpt>
      <trkpt lat="44.77757" lon="5.05844">
        <ele>535</ele>
        <time>2020-02-07T12:16:28.000Z</time>
      </trkpt>
      <trkpt lat="44.77756" lon="5.05843">
        <ele>535</ele>
        <time>2020-02-07T12:16:29.000Z</time>
      </trkpt>
      <trkpt lat="44.77756" lon="5.05841">
        <ele>535</ele>
        <time>2020-02-07T12:16:30.000Z</time>
      </trkpt>
      <trkpt lat="44.77756" lon="5.0584">
        <ele>535</ele>
        <time>2020-02-07T12:16:31.000Z</time>
      </trkpt>
      <trkpt lat="44.77756" lon="5.05838">
        <ele>535</ele>
        <time>2020-02-07T12:16:32.000Z</time>
      </trkpt>
      <trkpt lat="44.77756" lon="5.05836">
        <ele>535</ele>
        <time>2020-02-07T12:16:33.000Z</time>
      </trkpt>
      <trkpt lat="44.77756" lon="5.05835">
        <ele>535</ele>
        <time>2020-02-07T12:16:34.000Z</time>
      </trkpt>
      <trkpt lat="44.77756" lon="5.05834">
        <ele>535</ele>
        <time>2020-02-07T12:16:35.000Z</time>
      </trkpt>
      <trkpt lat="44.77756" lon="5.05833">
        <ele>535</ele>
        <time>2020-02-07T12:16:36.000Z</time>
      </trkpt>
      <trkpt lat="44.77756" lon="5.05831">
        <ele>535</ele>
        <time>2020-02-07T12:16:37.000Z</time>
      </trkpt>
      <trkpt lat="44.77756" lon="5.0583">
        <ele>535</ele>
        <time>2020-02-07T12:16:38.000Z</time>
      </trkpt>
      <trkpt lat="44.77756" lon="5.05828">
        <ele>535</ele>
        <time>2020-02-07T12:16:39.000Z</time>
      </trkpt>
      <trkpt lat="44.77756" lon="5.05827">
        <ele>535</ele>
        <time>2020-02-07T12:16:40.000Z</time>
      </trkpt>
      <trkpt lat="44.77756" lon="5.05826">
        <ele>535</ele>
        <time>2020-02-07T12:16:41.000Z</time>
      </trkpt>
      <trkpt lat="44.77756" lon="5.05824">
        <ele>535</ele>
        <time>2020-02-07T12:16:42.000Z</time>
      </trkpt>
      <trkpt lat="44.77757" lon="5.05823">
        <ele>535</ele>
        <time>2020-02-07T12:16:43.000Z</time>
      </trkpt>
      <trkpt lat="44.77757" lon="5.05821">
        <ele>534</ele>
        <time>2020-02-07T12:16:44.000Z</time>
      </trkpt>
      <trkpt lat="44.77757" lon="5.0582">
        <ele>534</ele>
        <time>2020-02-07T12:16:45.000Z</time>
      </trkpt>
      <trkpt lat="44.77757" lon="5.05818">
        <ele>534</ele>
        <time>2020-02-07T12:16:46.000Z</time>
      </trkpt>
      <trkpt lat="44.77758" lon="5.05817">
        <ele>534</ele>
        <time>2020-02-07T12:16:47.000Z</time>
      </trkpt>
      <trkpt lat="44.77758" lon="5.05815">
        <ele>534</ele>
        <time>2020-02-07T12:16:48.000Z</time>
      </trkpt>
      <trkpt lat="44.77758" lon="5.05814">
        <ele>534</ele>
        <time>2020-02-07T12:16:49.000Z</time>
      </trkpt>
      <trkpt lat="44.77758" lon="5.05812">
        <ele>533</ele>
        <time>2020-02-07T12:16:50.000Z</time>
      </trkpt>
      <trkpt lat="44.77758" lon="5.05811">
        <ele>533</ele>
        <time>2020-02-07T12:16:51.000Z</time>
      </trkpt>
      <trkpt lat="44.77759" lon="5.05809">
        <ele>533</ele>
        <time>2020-02-07T12:16:52.000Z</time>
      </trkpt>
      <trkpt lat="44.77759" lon="5.05808">
        <ele>533</ele>
        <time>2020-02-07T12:16:53.000Z</time>
      </trkpt>
      <trkpt lat="44.7776" lon="5.05807">
        <ele>533</ele>
        <time>2020-02-07T12:16:54.000Z</time>
      </trkpt>
      <trkpt lat="44.7776" lon="5.05806">
        <ele>533</ele>
        <time>2020-02-07T12:16:55.000Z</time>
      </trkpt>
      <trkpt lat="44.7776" lon="5.05805">
        <ele>533</ele>
        <time>2020-02-07T12:16:56.000Z</time>
      </trkpt>
      <trkpt lat="44.7776" lon="5.05803">
        <ele>533</ele>
        <time>2020-02-07T12:16:57.000Z</time>
      </trkpt>
      <trkpt lat="44.7776" lon="5.05802">
        <ele>533</ele>
        <time>2020-02-07T12:16:58.000Z</time>
      </trkpt>
      <trkpt lat="44.77761" lon="5.05801">
        <ele>533</ele>
        <time>2020-02-07T12:16:59.000Z</time>
      </trkpt>
      <trkpt lat="44.77761" lon="5.05799">
        <ele>533</ele>
        <time>2020-02-07T12:17:00.000Z</time>
      </trkpt>
      <trkpt lat="44.77761" lon="5.05798">
        <ele>533</ele>
        <time>2020-02-07T12:17:01.000Z</time>
      </trkpt>
      <trkpt lat="44.77761" lon="5.05797">
        <ele>532</ele>
        <time>2020-02-07T12:17:02.000Z</time>
      </trkpt>
      <trkpt lat="44.77761" lon="5.05795">
        <ele>532</ele>
        <time>2020-02-07T12:17:03.000Z</time>
      </trkpt>
      <trkpt lat="44.77761" lon="5.05794">
        <ele>532</ele>
        <time>2020-02-07T12:17:04.000Z</time>
      </trkpt>
      <trkpt lat="44.77761" lon="5.05793">
        <ele>532</ele>
        <time>2020-02-07T12:17:05.000Z</time>
      </trkpt>
      <trkpt lat="44.77761" lon="5.05791">
        <ele>532</ele>
        <time>2020-02-07T12:17:06.000Z</time>
      </trkpt>
      <trkpt lat="44.77761" lon="5.05789">
        <ele>532</ele>
        <time>2020-02-07T12:17:07.000Z</time>
      </trkpt>
      <trkpt lat="44.77762" lon="5.05788">
        <ele>532</ele>
        <time>2020-02-07T12:17:08.000Z</time>
      </trkpt>
      <trkpt lat="44.77762" lon="5.05786">
        <ele>532</ele>
        <time>2020-02-07T12:17:09.000Z</time>
      </trkpt>
      <trkpt lat="44.77763" lon="5.05785">
        <ele>532</ele>
        <time>2020-02-07T12:17:10.000Z</time>
      </trkpt>
      <trkpt lat="44.77763" lon="5.05783">
        <ele>531</ele>
        <time>2020-02-07T12:17:11.000Z</time>
      </trkpt>
      <trkpt lat="44.77763" lon="5.05782">
        <ele>531</ele>
        <time>2020-02-07T12:17:12.000Z</time>
      </trkpt>
      <trkpt lat="44.77764" lon="5.0578">
        <ele>531</ele>
        <time>2020-02-07T12:17:13.000Z</time>
      </trkpt>
      <trkpt lat="44.77764" lon="5.05778">
        <ele>531</ele>
        <time>2020-02-07T12:17:14.000Z</time>
      </trkpt>
      <trkpt lat="44.77765" lon="5.05777">
        <ele>531</ele>
        <time>2020-02-07T12:17:15.000Z</time>
      </trkpt>
      <trkpt lat="44.77765" lon="5.05776">
        <ele>531</ele>
        <time>2020-02-07T12:17:16.000Z</time>
      </trkpt>
      <trkpt lat="44.77765" lon="5.05774">
        <ele>531</ele>
        <time>2020-02-07T12:17:17.000Z</time>
      </trkpt>
      <trkpt lat="44.77766" lon="5.05773">
        <ele>531</ele>
        <time>2020-02-07T12:17:18.000Z</time>
      </trkpt>
      <trkpt lat="44.77766" lon="5.05771">
        <ele>531</ele>
        <time>2020-02-07T12:17:19.000Z</time>
      </trkpt>
      <trkpt lat="44.77767" lon="5.0577">
        <ele>530</ele>
        <time>2020-02-07T12:17:20.000Z</time>
      </trkpt>
      <trkpt lat="44.77767" lon="5.05769">
        <ele>530</ele>
        <time>2020-02-07T12:17:21.000Z</time>
      </trkpt>
      <trkpt lat="44.77768" lon="5.05767">
        <ele>530</ele>
        <time>2020-02-07T12:17:22.000Z</time>
      </trkpt>
      <trkpt lat="44.77768" lon="5.05766">
        <ele>530</ele>
        <time>2020-02-07T12:17:23.000Z</time>
      </trkpt>
      <trkpt lat="44.77768" lon="5.05764">
        <ele>529</ele>
        <time>2020-02-07T12:17:24.000Z</time>
      </trkpt>
      <trkpt lat="44.77768" lon="5.05763">
        <ele>529</ele>
        <time>2020-02-07T12:17:25.000Z</time>
      </trkpt>
      <trkpt lat="44.77769" lon="5.05762">
        <ele>529</ele>
        <time>2020-02-07T12:17:26.000Z</time>
      </trkpt>
      <trkpt lat="44.77769" lon="5.0576">
        <ele>529</ele>
        <time>2020-02-07T12:17:27.000Z</time>
      </trkpt>
      <trkpt lat="44.77769" lon="5.05759">
        <ele>529</ele>
        <time>2020-02-07T12:17:28.000Z</time>
      </trkpt>
      <trkpt lat="44.7777" lon="5.05757">
        <ele>529</ele>
        <time>2020-02-07T12:17:29.000Z</time>
      </trkpt>
      <trkpt lat="44.7777" lon="5.05756">
        <ele>529</ele>
        <time>2020-02-07T12:17:30.000Z</time>
      </trkpt>
      <trkpt lat="44.7777" lon="5.05754">
        <ele>529</ele>
        <time>2020-02-07T12:17:31.000Z</time>
      </trkpt>
      <trkpt lat="44.7777" lon="5.05753">
        <ele>529</ele>
        <time>2020-02-07T12:17:32.000Z</time>
      </trkpt>
      <trkpt lat="44.7777" lon="5.05751">
        <ele>529</ele>
        <time>2020-02-07T12:17:33.000Z</time>
      </trkpt>
      <trkpt lat="44.77771" lon="5.0575">
        <ele>529</ele>
        <time>2020-02-07T12:17:34.000Z</time>
      </trkpt>
      <trkpt lat="44.77771" lon="5.05749">
        <ele>529</ele>
        <time>2020-02-07T12:17:35.000Z</time>
      </trkpt>
      <trkpt lat="44.77771" lon="5.05747">
        <ele>529</ele>
        <time>2020-02-07T12:17:36.000Z</time>
      </trkpt>
      <trkpt lat="44.77771" lon="5.05746">
        <ele>529</ele>
        <time>2020-02-07T12:17:37.000Z</time>
      </trkpt>
      <trkpt lat="44.77772" lon="5.05744">
        <ele>529</ele>
        <time>2020-02-07T12:17:38.000Z</time>
      </trkpt>
      <trkpt lat="44.77772" lon="5.05743">
        <ele>529</ele>
        <time>2020-02-07T12:17:39.000Z</time>
      </trkpt>
      <trkpt lat="44.77772" lon="5.05741">
        <ele>529</ele>
        <time>2020-02-07T12:17:40.000Z</time>
      </trkpt>
      <trkpt lat="44.77773" lon="5.0574">
        <ele>529</ele>
        <time>2020-02-07T12:17:41.000Z</time>
      </trkpt>
      <trkpt lat="44.77773" lon="5.05739">
        <ele>529</ele>
        <time>2020-02-07T12:17:42.000Z</time>
      </trkpt>
      <trkpt lat="44.77774" lon="5.05737">
        <ele>529</ele>
        <time>2020-02-07T12:17:43.000Z</time>
      </trkpt>
      <trkpt lat="44.77775" lon="5.05736">
        <ele>528</ele>
        <time>2020-02-07T12:17:44.000Z</time>
      </trkpt>
      <trkpt lat="44.77776" lon="5.05734">
        <ele>528</ele>
        <time>2020-02-07T12:17:45.000Z</time>
      </trkpt>
      <trkpt lat="44.77776" lon="5.05733">
        <ele>528</ele>
        <time>2020-02-07T12:17:46.000Z</time>
      </trkpt>
      <trkpt lat="44.77777" lon="5.05731">
        <ele>528</ele>
        <time>2020-02-07T12:17:47.000Z</time>
      </trkpt>
      <trkpt lat="44.77778" lon="5.0573">
        <ele>528</ele>
        <time>2020-02-07T12:17:48.000Z</time>
      </trkpt>
      <trkpt lat="44.77779" lon="5.05729">
        <ele>528</ele>
        <time>2020-02-07T12:17:49.000Z</time>
      </trkpt>
      <trkpt lat="44.77779" lon="5.05727">
        <ele>527</ele>
        <time>2020-02-07T12:17:50.000Z</time>
      </trkpt>
      <trkpt lat="44.7778" lon="5.05726">
        <ele>527</ele>
        <time>2020-02-07T12:17:51.000Z</time>
      </trkpt>
      <trkpt lat="44.77781" lon="5.05725">
        <ele>527</ele>
        <time>2020-02-07T12:17:52.000Z</time>
      </trkpt>
      <trkpt lat="44.77781" lon="5.05723">
        <ele>527</ele>
        <time>2020-02-07T12:17:53.000Z</time>
      </trkpt>
      <trkpt lat="44.77782" lon="5.05722">
        <ele>527</ele>
        <time>2020-02-07T12:17:54.000Z</time>
      </trkpt>
      <trkpt lat="44.77783" lon="5.05721">
        <ele>526</ele>
        <time>2020-02-07T12:17:55.000Z</time>
      </trkpt>
      <trkpt lat="44.77784" lon="5.0572">
        <ele>526</ele>
        <time>2020-02-07T12:17:56.000Z</time>
      </trkpt>
      <trkpt lat="44.77785" lon="5.05718">
        <ele>526</ele>
        <time>2020-02-07T12:17:57.000Z</time>
      </trkpt>
      <trkpt lat="44.77785" lon="5.05717">
        <ele>526</ele>
        <time>2020-02-07T12:17:58.000Z</time>
      </trkpt>
      <trkpt lat="44.77786" lon="5.05715">
        <ele>526</ele>
        <time>2020-02-07T12:17:59.000Z</time>
      </trkpt>
      <trkpt lat="44.77787" lon="5.05714">
        <ele>526</ele>
        <time>2020-02-07T12:18:00.000Z</time>
      </trkpt>
      <trkpt lat="44.77787" lon="5.05713">
        <ele>526</ele>
        <time>2020-02-07T12:18:01.000Z</time>
      </trkpt>
      <trkpt lat="44.77788" lon="5.05711">
        <ele>526</ele>
        <time>2020-02-07T12:18:02.000Z</time>
      </trkpt>
      <trkpt lat="44.77789" lon="5.0571">
        <ele>525</ele>
        <time>2020-02-07T12:18:03.000Z</time>
      </trkpt>
      <trkpt lat="44.7779" lon="5.05709">
        <ele>525</ele>
        <time>2020-02-07T12:18:04.000Z</time>
      </trkpt>
      <trkpt lat="44.7779" lon="5.05708">
        <ele>525</ele>
        <time>2020-02-07T12:18:05.000Z</time>
      </trkpt>
      <trkpt lat="44.77791" lon="5.05706">
        <ele>525</ele>
        <time>2020-02-07T12:18:06.000Z</time>
      </trkpt>
      <trkpt lat="44.77791" lon="5.05705">
        <ele>525</ele>
        <time>2020-02-07T12:18:07.000Z</time>
      </trkpt>
      <trkpt lat="44.77792" lon="5.05704">
        <ele>525</ele>
        <time>2020-02-07T12:18:08.000Z</time>
      </trkpt>
      <trkpt lat="44.77792" lon="5.05703">
        <ele>524</ele>
        <time>2020-02-07T12:18:09.000Z</time>
      </trkpt>
      <trkpt lat="44.77793" lon="5.05701">
        <ele>524</ele>
        <time>2020-02-07T12:18:10.000Z</time>
      </trkpt>
      <trkpt lat="44.77793" lon="5.057">
        <ele>524</ele>
        <time>2020-02-07T12:18:11.000Z</time>
      </trkpt>
      <trkpt lat="44.77794" lon="5.05699">
        <ele>524</ele>
        <time>2020-02-07T12:18:12.000Z</time>
      </trkpt>
      <trkpt lat="44.77795" lon="5.05698">
        <ele>524</ele>
        <time>2020-02-07T12:18:13.000Z</time>
      </trkpt>
      <trkpt lat="44.77795" lon="5.05696">
        <ele>524</ele>
        <time>2020-02-07T12:18:14.000Z</time>
      </trkpt>
      <trkpt lat="44.77796" lon="5.05695">
        <ele>524</ele>
        <time>2020-02-07T12:18:15.000Z</time>
      </trkpt>
      <trkpt lat="44.77797" lon="5.05694">
        <ele>524</ele>
        <time>2020-02-07T12:18:16.000Z</time>
      </trkpt>
      <trkpt lat="44.77797" lon="5.05693">
        <ele>524</ele>
        <time>2020-02-07T12:18:17.000Z</time>
      </trkpt>
      <trkpt lat="44.77797" lon="5.05691">
        <ele>524</ele>
        <time>2020-02-07T12:18:18.000Z</time>
      </trkpt>
      <trkpt lat="44.77798" lon="5.0569">
        <ele>524</ele>
        <time>2020-02-07T12:18:19.000Z</time>
      </trkpt>
      <trkpt lat="44.77798" lon="5.05688">
        <ele>524</ele>
        <time>2020-02-07T12:18:20.000Z</time>
      </trkpt>
      <trkpt lat="44.77799" lon="5.05687">
        <ele>524</ele>
        <time>2020-02-07T12:18:21.000Z</time>
      </trkpt>
      <trkpt lat="44.77799" lon="5.05686">
        <ele>524</ele>
        <time>2020-02-07T12:18:22.000Z</time>
      </trkpt>
      <trkpt lat="44.778" lon="5.05685">
        <ele>524</ele>
        <time>2020-02-07T12:18:23.000Z</time>
      </trkpt>
      <trkpt lat="44.778" lon="5.05684">
        <ele>524</ele>
        <time>2020-02-07T12:18:24.000Z</time>
      </trkpt>
      <trkpt lat="44.77801" lon="5.05683">
        <ele>524</ele>
        <time>2020-02-07T12:18:25.000Z</time>
      </trkpt>
      <trkpt lat="44.77801" lon="5.05681">
        <ele>524</ele>
        <time>2020-02-07T12:18:26.000Z</time>
      </trkpt>
      <trkpt lat="44.77802" lon="5.0568">
        <ele>524</ele>
        <time>2020-02-07T12:18:27.000Z</time>
      </trkpt>
      <trkpt lat="44.77802" lon="5.05679">
        <ele>524</ele>
        <time>2020-02-07T12:18:28.000Z</time>
      </trkpt>
      <trkpt lat="44.77803" lon="5.05678">
        <ele>524</ele>
        <time>2020-02-07T12:18:29.000Z</time>
      </trkpt>
      <trkpt lat="44.77803" lon="5.05677">
        <ele>524</ele>
        <time>2020-02-07T12:18:30.000Z</time>
      </trkpt>
      <trkpt lat="44.77804" lon="5.05676">
        <ele>524</ele>
        <time>2020-02-07T12:18:31.000Z</time>
      </trkpt>
      <trkpt lat="44.77804" lon="5.05675">
        <ele>524</ele>
        <time>2020-02-07T12:18:32.000Z</time>
      </trkpt>
      <trkpt lat="44.77804" lon="5.05674">
        <ele>524</ele>
        <time>2020-02-07T12:18:33.000Z</time>
      </trkpt>
      <trkpt lat="44.77805" lon="5.05673">
        <ele>524</ele>
        <time>2020-02-07T12:18:34.000Z</time>
      </trkpt>
      <trkpt lat="44.77805" lon="5.05672">
        <ele>524</ele>
        <time>2020-02-07T12:18:35.000Z</time>
      </trkpt>
      <trkpt lat="44.77805" lon="5.05671">
        <ele>524</ele>
        <time>2020-02-07T12:18:36.000Z</time>
      </trkpt>
      <trkpt lat="44.77806" lon="5.05669">
        <ele>524</ele>
        <time>2020-02-07T12:18:37.000Z</time>
      </trkpt>
      <trkpt lat="44.77806" lon="5.05669">
        <ele>524</ele>
        <time>2020-02-07T12:18:38.000Z</time>
      </trkpt>
      <trkpt lat="44.77806" lon="5.05668">
        <ele>524</ele>
        <time>2020-02-07T12:18:39.000Z</time>
      </trkpt>
      <trkpt lat="44.77807" lon="5.05667">
        <ele>524</ele>
        <time>2020-02-07T12:18:40.000Z</time>
      </trkpt>
      <trkpt lat="44.77807" lon="5.05666">
        <ele>523</ele>
        <time>2020-02-07T12:18:41.000Z</time>
      </trkpt>
      <trkpt lat="44.77808" lon="5.05664">
        <ele>523</ele>
        <time>2020-02-07T12:18:42.000Z</time>
      </trkpt>
      <trkpt lat="44.77808" lon="5.05663">
        <ele>523</ele>
        <time>2020-02-07T12:18:43.000Z</time>
      </trkpt>
      <trkpt lat="44.77809" lon="5.05662">
        <ele>523</ele>
        <time>2020-02-07T12:18:44.000Z</time>
      </trkpt>
      <trkpt lat="44.77809" lon="5.05661">
        <ele>523</ele>
        <time>2020-02-07T12:18:45.000Z</time>
      </trkpt>
      <trkpt lat="44.7781" lon="5.0566">
        <ele>523</ele>
        <time>2020-02-07T12:18:46.000Z</time>
      </trkpt>
      <trkpt lat="44.7781" lon="5.05659">
        <ele>523</ele>
        <time>2020-02-07T12:18:47.000Z</time>
      </trkpt>
      <trkpt lat="44.77811" lon="5.05659">
        <ele>523</ele>
        <time>2020-02-07T12:18:48.000Z</time>
      </trkpt>
      <trkpt lat="44.77812" lon="5.05658">
        <ele>523</ele>
        <time>2020-02-07T12:18:49.000Z</time>
      </trkpt>
      <trkpt lat="44.77813" lon="5.05657">
        <ele>523</ele>
        <time>2020-02-07T12:18:50.000Z</time>
      </trkpt>
      <trkpt lat="44.77813" lon="5.05656">
        <ele>522</ele>
        <time>2020-02-07T12:18:51.000Z</time>
      </trkpt>
      <trkpt lat="44.77814" lon="5.05655">
        <ele>522</ele>
        <time>2020-02-07T12:18:52.000Z</time>
      </trkpt>
      <trkpt lat="44.77815" lon="5.05655">
        <ele>522</ele>
        <time>2020-02-07T12:18:53.000Z</time>
      </trkpt>
      <trkpt lat="44.77816" lon="5.05654">
        <ele>522</ele>
        <time>2020-02-07T12:18:54.000Z</time>
      </trkpt>
      <trkpt lat="44.77817" lon="5.05653">
        <ele>522</ele>
        <time>2020-02-07T12:18:55.000Z</time>
      </trkpt>
      <trkpt lat="44.77817" lon="5.05652">
        <ele>522</ele>
        <time>2020-02-07T12:18:56.000Z</time>
      </trkpt>
      <trkpt lat="44.77818" lon="5.05651">
        <ele>521</ele>
        <time>2020-02-07T12:18:57.000Z</time>
      </trkpt>
      <trkpt lat="44.77818" lon="5.0565">
        <ele>521</ele>
        <time>2020-02-07T12:18:58.000Z</time>
      </trkpt>
      <trkpt lat="44.77819" lon="5.0565">
        <ele>521</ele>
        <time>2020-02-07T12:18:59.000Z</time>
      </trkpt>
      <trkpt lat="44.7782" lon="5.05649">
        <ele>521</ele>
        <time>2020-02-07T12:19:00.000Z</time>
      </trkpt>
      <trkpt lat="44.77821" lon="5.05649">
        <ele>521</ele>
        <time>2020-02-07T12:19:01.000Z</time>
      </trkpt>
      <trkpt lat="44.77822" lon="5.05648">
        <ele>521</ele>
        <time>2020-02-07T12:19:02.000Z</time>
      </trkpt>
      <trkpt lat="44.77822" lon="5.05647">
        <ele>521</ele>
        <time>2020-02-07T12:19:03.000Z</time>
      </trkpt>
      <trkpt lat="44.77823" lon="5.05646">
        <ele>521</ele>
        <time>2020-02-07T12:19:04.000Z</time>
      </trkpt>
      <trkpt lat="44.77824" lon="5.05645">
        <ele>521</ele>
        <time>2020-02-07T12:19:05.000Z</time>
      </trkpt>
      <trkpt lat="44.77825" lon="5.05645">
        <ele>521</ele>
        <time>2020-02-07T12:19:06.000Z</time>
      </trkpt>
      <trkpt lat="44.77826" lon="5.05644">
        <ele>521</ele>
        <time>2020-02-07T12:19:07.000Z</time>
      </trkpt>
      <trkpt lat="44.77826" lon="5.05643">
        <ele>521</ele>
        <time>2020-02-07T12:19:08.000Z</time>
      </trkpt>
      <trkpt lat="44.77827" lon="5.05642">
        <ele>521</ele>
        <time>2020-02-07T12:19:09.000Z</time>
      </trkpt>
      <trkpt lat="44.77828" lon="5.05641">
        <ele>521</ele>
        <time>2020-02-07T12:19:10.000Z</time>
      </trkpt>
      <trkpt lat="44.77829" lon="5.0564">
        <ele>521</ele>
        <time>2020-02-07T12:19:11.000Z</time>
      </trkpt>
      <trkpt lat="44.7783" lon="5.0564">
        <ele>521</ele>
        <time>2020-02-07T12:19:12.000Z</time>
      </trkpt>
      <trkpt lat="44.77831" lon="5.05639">
        <ele>521</ele>
        <time>2020-02-07T12:19:13.000Z</time>
      </trkpt>
      <trkpt lat="44.77832" lon="5.05638">
        <ele>521</ele>
        <time>2020-02-07T12:19:14.000Z</time>
      </trkpt>
      <trkpt lat="44.77832" lon="5.05637">
        <ele>521</ele>
        <time>2020-02-07T12:19:15.000Z</time>
      </trkpt>
      <trkpt lat="44.77833" lon="5.05637">
        <ele>521</ele>
        <time>2020-02-07T12:19:16.000Z</time>
      </trkpt>
      <trkpt lat="44.77834" lon="5.05636">
        <ele>521</ele>
        <time>2020-02-07T12:19:17.000Z</time>
      </trkpt>
      <trkpt lat="44.77835" lon="5.05635">
        <ele>521</ele>
        <time>2020-02-07T12:19:18.000Z</time>
      </trkpt>
      <trkpt lat="44.77836" lon="5.05635">
        <ele>521</ele>
        <time>2020-02-07T12:19:19.000Z</time>
      </trkpt>
      <trkpt lat="44.77837" lon="5.05634">
        <ele>521</ele>
        <time>2020-02-07T12:19:20.000Z</time>
      </trkpt>
      <trkpt lat="44.77837" lon="5.05634">
        <ele>521</ele>
        <time>2020-02-07T12:19:21.000Z</time>
      </trkpt>
      <trkpt lat="44.77838" lon="5.05633">
        <ele>521</ele>
        <time>2020-02-07T12:19:22.000Z</time>
      </trkpt>
      <trkpt lat="44.77839" lon="5.05632">
        <ele>521</ele>
        <time>2020-02-07T12:19:23.000Z</time>
      </trkpt>
      <trkpt lat="44.77839" lon="5.05632">
        <ele>521</ele>
        <time>2020-02-07T12:19:24.000Z</time>
      </trkpt>
      <trkpt lat="44.77839" lon="5.05632">
        <ele>521</ele>
        <time>2020-02-07T12:19:25.000Z</time>
      </trkpt>
      <trkpt lat="44.77839" lon="5.05631">
        <ele>521</ele>
        <time>2020-02-07T12:19:26.000Z</time>
      </trkpt>
      <trkpt lat="44.77839" lon="5.05631">
        <ele>521</ele>
        <time>2020-02-07T12:19:27.000Z</time>
      </trkpt>
      <trkpt lat="44.7784" lon="5.0563">
        <ele>521</ele>
        <time>2020-02-07T12:19:28.000Z</time>
      </trkpt>
      <trkpt lat="44.77841" lon="5.0563">
        <ele>521</ele>
        <time>2020-02-07T12:19:29.000Z</time>
      </trkpt>
      <trkpt lat="44.77841" lon="5.05629">
        <ele>521</ele>
        <time>2020-02-07T12:19:30.000Z</time>
      </trkpt>
      <trkpt lat="44.77842" lon="5.05629">
        <ele>521</ele>
        <time>2020-02-07T12:19:31.000Z</time>
      </trkpt>
      <trkpt lat="44.77843" lon="5.05628">
        <ele>521</ele>
        <time>2020-02-07T12:19:32.000Z</time>
      </trkpt>
      <trkpt lat="44.77844" lon="5.05628">
        <ele>522</ele>
        <time>2020-02-07T12:19:33.000Z</time>
      </trkpt>
      <trkpt lat="44.77845" lon="5.05627">
        <ele>522</ele>
        <time>2020-02-07T12:19:34.000Z</time>
      </trkpt>
      <trkpt lat="44.77846" lon="5.05627">
        <ele>522</ele>
        <time>2020-02-07T12:19:35.000Z</time>
      </trkpt>
      <trkpt lat="44.77847" lon="5.05626">
        <ele>522</ele>
        <time>2020-02-07T12:19:36.000Z</time>
      </trkpt>
      <trkpt lat="44.77848" lon="5.05625">
        <ele>522</ele>
        <time>2020-02-07T12:19:37.000Z</time>
      </trkpt>
      <trkpt lat="44.77849" lon="5.05625">
        <ele>522</ele>
        <time>2020-02-07T12:19:38.000Z</time>
      </trkpt>
      <trkpt lat="44.7785" lon="5.05624">
        <ele>522</ele>
        <time>2020-02-07T12:19:39.000Z</time>
      </trkpt>
      <trkpt lat="44.77851" lon="5.05623">
        <ele>522</ele>
        <time>2020-02-07T12:19:40.000Z</time>
      </trkpt>
      <trkpt lat="44.77852" lon="5.05623">
        <ele>522</ele>
        <time>2020-02-07T12:19:41.000Z</time>
      </trkpt>
      <trkpt lat="44.77853" lon="5.05622">
        <ele>522</ele>
        <time>2020-02-07T12:19:42.000Z</time>
      </trkpt>
      <trkpt lat="44.77854" lon="5.05622">
        <ele>522</ele>
        <time>2020-02-07T12:19:43.000Z</time>
      </trkpt>
      <trkpt lat="44.77855" lon="5.05621">
        <ele>522</ele>
        <time>2020-02-07T12:19:44.000Z</time>
      </trkpt>
      <trkpt lat="44.77855" lon="5.05621">
        <ele>522</ele>
        <time>2020-02-07T12:19:45.000Z</time>
      </trkpt>
      <trkpt lat="44.77856" lon="5.05621">
        <ele>522</ele>
        <time>2020-02-07T12:19:46.000Z</time>
      </trkpt>
      <trkpt lat="44.77857" lon="5.0562">
        <ele>522</ele>
        <time>2020-02-07T12:19:47.000Z</time>
      </trkpt>
      <trkpt lat="44.77858" lon="5.05619">
        <ele>522</ele>
        <time>2020-02-07T12:19:48.000Z</time>
      </trkpt>
      <trkpt lat="44.77859" lon="5.05618">
        <ele>522</ele>
        <time>2020-02-07T12:19:49.000Z</time>
      </trkpt>
      <trkpt lat="44.77859" lon="5.05617">
        <ele>522</ele>
        <time>2020-02-07T12:19:50.000Z</time>
      </trkpt>
      <trkpt lat="44.7786" lon="5.05617">
        <ele>522</ele>
        <time>2020-02-07T12:19:51.000Z</time>
      </trkpt>
      <trkpt lat="44.7786" lon="5.05616">
        <ele>522</ele>
        <time>2020-02-07T12:19:52.000Z</time>
      </trkpt>
      <trkpt lat="44.77861" lon="5.05615">
        <ele>522</ele>
        <time>2020-02-07T12:19:53.000Z</time>
      </trkpt>
      <trkpt lat="44.77861" lon="5.05614">
        <ele>522</ele>
        <time>2020-02-07T12:19:54.000Z</time>
      </trkpt>
      <trkpt lat="44.77861" lon="5.05613">
        <ele>522</ele>
        <time>2020-02-07T12:19:55.000Z</time>
      </trkpt>
      <trkpt lat="44.77861" lon="5.05611">
        <ele>522</ele>
        <time>2020-02-07T12:19:56.000Z</time>
      </trkpt>
      <trkpt lat="44.77861" lon="5.0561">
        <ele>522</ele>
        <time>2020-02-07T12:19:57.000Z</time>
      </trkpt>
      <trkpt lat="44.77861" lon="5.05608">
        <ele>522</ele>
        <time>2020-02-07T12:19:58.000Z</time>
      </trkpt>
      <trkpt lat="44.77861" lon="5.05606">
        <ele>522</ele>
        <time>2020-02-07T12:19:59.000Z</time>
      </trkpt>
      <trkpt lat="44.77861" lon="5.05605">
        <ele>522</ele>
        <time>2020-02-07T12:20:00.000Z</time>
      </trkpt>
      <trkpt lat="44.77861" lon="5.05603">
        <ele>522</ele>
        <time>2020-02-07T12:20:01.000Z</time>
      </trkpt>
      <trkpt lat="44.77861" lon="5.05602">
        <ele>522</ele>
        <time>2020-02-07T12:20:02.000Z</time>
      </trkpt>
      <trkpt lat="44.77861" lon="5.056">
        <ele>522</ele>
        <time>2020-02-07T12:20:03.000Z</time>
      </trkpt>
      <trkpt lat="44.77861" lon="5.05598">
        <ele>522</ele>
        <time>2020-02-07T12:20:04.000Z</time>
      </trkpt>
      <trkpt lat="44.77861" lon="5.05597">
        <ele>522</ele>
        <time>2020-02-07T12:20:05.000Z</time>
      </trkpt>
      <trkpt lat="44.77862" lon="5.05596">
        <ele>521</ele>
        <time>2020-02-07T12:20:06.000Z</time>
      </trkpt>
      <trkpt lat="44.77862" lon="5.05595">
        <ele>521</ele>
        <time>2020-02-07T12:20:07.000Z</time>
      </trkpt>
      <trkpt lat="44.77863" lon="5.05593">
        <ele>521</ele>
        <time>2020-02-07T12:20:08.000Z</time>
      </trkpt>
      <trkpt lat="44.77863" lon="5.05592">
        <ele>521</ele>
        <time>2020-02-07T12:20:09.000Z</time>
      </trkpt>
      <trkpt lat="44.77863" lon="5.05591">
        <ele>521</ele>
        <time>2020-02-07T12:20:10.000Z</time>
      </trkpt>
      <trkpt lat="44.77864" lon="5.05589">
        <ele>521</ele>
        <time>2020-02-07T12:20:11.000Z</time>
      </trkpt>
      <trkpt lat="44.77864" lon="5.05588">
        <ele>521</ele>
        <time>2020-02-07T12:20:12.000Z</time>
      </trkpt>
      <trkpt lat="44.77865" lon="5.05586">
        <ele>521</ele>
        <time>2020-02-07T12:20:13.000Z</time>
      </trkpt>
      <trkpt lat="44.77865" lon="5.05585">
        <ele>521</ele>
        <time>2020-02-07T12:20:14.000Z</time>
      </trkpt>
      <trkpt lat="44.77865" lon="5.05583">
        <ele>521</ele>
        <time>2020-02-07T12:20:15.000Z</time>
      </trkpt>
      <trkpt lat="44.77866" lon="5.05582">
        <ele>521</ele>
        <time>2020-02-07T12:20:16.000Z</time>
      </trkpt>
      <trkpt lat="44.77866" lon="5.05581">
        <ele>521</ele>
        <time>2020-02-07T12:20:17.000Z</time>
      </trkpt>
      <trkpt lat="44.77867" lon="5.05579">
        <ele>521</ele>
        <time>2020-02-07T12:20:18.000Z</time>
      </trkpt>
      <trkpt lat="44.77867" lon="5.05578">
        <ele>521</ele>
        <time>2020-02-07T12:20:19.000Z</time>
      </trkpt>
      <trkpt lat="44.77868" lon="5.05577">
        <ele>521</ele>
        <time>2020-02-07T12:20:20.000Z</time>
      </trkpt>
      <trkpt lat="44.77869" lon="5.05575">
        <ele>521</ele>
        <time>2020-02-07T12:20:21.000Z</time>
      </trkpt>
      <trkpt lat="44.77869" lon="5.05574">
        <ele>521</ele>
        <time>2020-02-07T12:20:22.000Z</time>
      </trkpt>
      <trkpt lat="44.7787" lon="5.05572">
        <ele>521</ele>
        <time>2020-02-07T12:20:23.000Z</time>
      </trkpt>
      <trkpt lat="44.77871" lon="5.05571">
        <ele>521</ele>
        <time>2020-02-07T12:20:24.000Z</time>
      </trkpt>
      <trkpt lat="44.77872" lon="5.0557">
        <ele>521</ele>
        <time>2020-02-07T12:20:25.000Z</time>
      </trkpt>
      <trkpt lat="44.77872" lon="5.05568">
        <ele>520</ele>
        <time>2020-02-07T12:20:26.000Z</time>
      </trkpt>
      <trkpt lat="44.77873" lon="5.05567">
        <ele>520</ele>
        <time>2020-02-07T12:20:27.000Z</time>
      </trkpt>
      <trkpt lat="44.77873" lon="5.05566">
        <ele>520</ele>
        <time>2020-02-07T12:20:28.000Z</time>
      </trkpt>
      <trkpt lat="44.77874" lon="5.05564">
        <ele>520</ele>
        <time>2020-02-07T12:20:29.000Z</time>
      </trkpt>
      <trkpt lat="44.77875" lon="5.05563">
        <ele>519</ele>
        <time>2020-02-07T12:20:30.000Z</time>
      </trkpt>
      <trkpt lat="44.77876" lon="5.05562">
        <ele>519</ele>
        <time>2020-02-07T12:20:31.000Z</time>
      </trkpt>
      <trkpt lat="44.77876" lon="5.05561">
        <ele>519</ele>
        <time>2020-02-07T12:20:32.000Z</time>
      </trkpt>
      <trkpt lat="44.77877" lon="5.05559">
        <ele>519</ele>
        <time>2020-02-07T12:20:33.000Z</time>
      </trkpt>
      <trkpt lat="44.77878" lon="5.05558">
        <ele>519</ele>
        <time>2020-02-07T12:20:34.000Z</time>
      </trkpt>
      <trkpt lat="44.77878" lon="5.05557">
        <ele>518</ele>
        <time>2020-02-07T12:20:35.000Z</time>
      </trkpt>
      <trkpt lat="44.77879" lon="5.05556">
        <ele>518</ele>
        <time>2020-02-07T12:20:36.000Z</time>
      </trkpt>
      <trkpt lat="44.7788" lon="5.05555">
        <ele>518</ele>
        <time>2020-02-07T12:20:37.000Z</time>
      </trkpt>
      <trkpt lat="44.77881" lon="5.05554">
        <ele>517</ele>
        <time>2020-02-07T12:20:38.000Z</time>
      </trkpt>
      <trkpt lat="44.77882" lon="5.05553">
        <ele>517</ele>
        <time>2020-02-07T12:20:39.000Z</time>
      </trkpt>
      <trkpt lat="44.77882" lon="5.05552">
        <ele>517</ele>
        <time>2020-02-07T12:20:40.000Z</time>
      </trkpt>
      <trkpt lat="44.77883" lon="5.05552">
        <ele>516</ele>
        <time>2020-02-07T12:20:41.000Z</time>
      </trkpt>
      <trkpt lat="44.77884" lon="5.05551">
        <ele>516</ele>
        <time>2020-02-07T12:20:42.000Z</time>
      </trkpt>
      <trkpt lat="44.77885" lon="5.0555">
        <ele>516</ele>
        <time>2020-02-07T12:20:43.000Z</time>
      </trkpt>
      <trkpt lat="44.77886" lon="5.05549">
        <ele>516</ele>
        <time>2020-02-07T12:20:44.000Z</time>
      </trkpt>
      <trkpt lat="44.77887" lon="5.05548">
        <ele>515</ele>
        <time>2020-02-07T12:20:45.000Z</time>
      </trkpt>
      <trkpt lat="44.77888" lon="5.05547">
        <ele>515</ele>
        <time>2020-02-07T12:20:46.000Z</time>
      </trkpt>
      <trkpt lat="44.77888" lon="5.05546">
        <ele>515</ele>
        <time>2020-02-07T12:20:47.000Z</time>
      </trkpt>
      <trkpt lat="44.77889" lon="5.05545">
        <ele>515</ele>
        <time>2020-02-07T12:20:48.000Z</time>
      </trkpt>
      <trkpt lat="44.7789" lon="5.05545">
        <ele>515</ele>
        <time>2020-02-07T12:20:49.000Z</time>
      </trkpt>
      <trkpt lat="44.7789" lon="5.05544">
        <ele>514</ele>
        <time>2020-02-07T12:20:50.000Z</time>
      </trkpt>
      <trkpt lat="44.77891" lon="5.05543">
        <ele>514</ele>
        <time>2020-02-07T12:20:51.000Z</time>
      </trkpt>
      <trkpt lat="44.77892" lon="5.05541">
        <ele>514</ele>
        <time>2020-02-07T12:20:52.000Z</time>
      </trkpt>
      <trkpt lat="44.77892" lon="5.0554">
        <ele>514</ele>
        <time>2020-02-07T12:20:53.000Z</time>
      </trkpt>
      <trkpt lat="44.77893" lon="5.05539">
        <ele>514</ele>
        <time>2020-02-07T12:20:54.000Z</time>
      </trkpt>
      <trkpt lat="44.77893" lon="5.05538">
        <ele>514</ele>
        <time>2020-02-07T12:20:55.000Z</time>
      </trkpt>
      <trkpt lat="44.77894" lon="5.05537">
        <ele>514</ele>
        <time>2020-02-07T12:20:56.000Z</time>
      </trkpt>
      <trkpt lat="44.77895" lon="5.05536">
        <ele>514</ele>
        <time>2020-02-07T12:20:57.000Z</time>
      </trkpt>
      <trkpt lat="44.77896" lon="5.05536">
        <ele>513</ele>
        <time>2020-02-07T12:20:58.000Z</time>
      </trkpt>
      <trkpt lat="44.77896" lon="5.05535">
        <ele>513</ele>
        <time>2020-02-07T12:20:59.000Z</time>
      </trkpt>
      <trkpt lat="44.77897" lon="5.05534">
        <ele>513</ele>
        <time>2020-02-07T12:21:00.000Z</time>
      </trkpt>
      <trkpt lat="44.77898" lon="5.05533">
        <ele>513</ele>
        <time>2020-02-07T12:21:01.000Z</time>
      </trkpt>
      <trkpt lat="44.77898" lon="5.05532">
        <ele>513</ele>
        <time>2020-02-07T12:21:02.000Z</time>
      </trkpt>
      <trkpt lat="44.77899" lon="5.05531">
        <ele>513</ele>
        <time>2020-02-07T12:21:03.000Z</time>
      </trkpt>
      <trkpt lat="44.779" lon="5.05529">
        <ele>512</ele>
        <time>2020-02-07T12:21:04.000Z</time>
      </trkpt>
      <trkpt lat="44.77901" lon="5.05528">
        <ele>512</ele>
        <time>2020-02-07T12:21:05.000Z</time>
      </trkpt>
      <trkpt lat="44.77902" lon="5.05527">
        <ele>512</ele>
        <time>2020-02-07T12:21:06.000Z</time>
      </trkpt>
      <trkpt lat="44.77902" lon="5.05526">
        <ele>512</ele>
        <time>2020-02-07T12:21:07.000Z</time>
      </trkpt>
      <trkpt lat="44.77903" lon="5.05525">
        <ele>512</ele>
        <time>2020-02-07T12:21:08.000Z</time>
      </trkpt>
      <trkpt lat="44.77904" lon="5.05524">
        <ele>512</ele>
        <time>2020-02-07T12:21:09.000Z</time>
      </trkpt>
      <trkpt lat="44.77904" lon="5.05522">
        <ele>512</ele>
        <time>2020-02-07T12:21:10.000Z</time>
      </trkpt>
      <trkpt lat="44.77905" lon="5.05521">
        <ele>512</ele>
        <time>2020-02-07T12:21:11.000Z</time>
      </trkpt>
      <trkpt lat="44.77905" lon="5.0552">
        <ele>512</ele>
        <time>2020-02-07T12:21:12.000Z</time>
      </trkpt>
      <trkpt lat="44.77906" lon="5.05519">
        <ele>512</ele>
        <time>2020-02-07T12:21:13.000Z</time>
      </trkpt>
      <trkpt lat="44.77907" lon="5.05518">
        <ele>512</ele>
        <time>2020-02-07T12:21:14.000Z</time>
      </trkpt>
      <trkpt lat="44.77908" lon="5.05517">
        <ele>512</ele>
        <time>2020-02-07T12:21:15.000Z</time>
      </trkpt>
      <trkpt lat="44.77909" lon="5.05516">
        <ele>512</ele>
        <time>2020-02-07T12:21:16.000Z</time>
      </trkpt>
      <trkpt lat="44.77909" lon="5.05515">
        <ele>512</ele>
        <time>2020-02-07T12:21:17.000Z</time>
      </trkpt>
      <trkpt lat="44.7791" lon="5.05514">
        <ele>511</ele>
        <time>2020-02-07T12:21:18.000Z</time>
      </trkpt>
      <trkpt lat="44.77911" lon="5.05513">
        <ele>511</ele>
        <time>2020-02-07T12:21:19.000Z</time>
      </trkpt>
      <trkpt lat="44.77912" lon="5.05513">
        <ele>511</ele>
        <time>2020-02-07T12:21:20.000Z</time>
      </trkpt>
      <trkpt lat="44.77913" lon="5.05511">
        <ele>511</ele>
        <time>2020-02-07T12:21:21.000Z</time>
      </trkpt>
      <trkpt lat="44.77914" lon="5.0551">
        <ele>511</ele>
        <time>2020-02-07T12:21:22.000Z</time>
      </trkpt>
      <trkpt lat="44.77915" lon="5.05509">
        <ele>511</ele>
        <time>2020-02-07T12:21:23.000Z</time>
      </trkpt>
      <trkpt lat="44.77915" lon="5.05508">
        <ele>511</ele>
        <time>2020-02-07T12:21:24.000Z</time>
      </trkpt>
      <trkpt lat="44.77916" lon="5.05507">
        <ele>511</ele>
        <time>2020-02-07T12:21:25.000Z</time>
      </trkpt>
      <trkpt lat="44.77917" lon="5.05506">
        <ele>511</ele>
        <time>2020-02-07T12:21:26.000Z</time>
      </trkpt>
      <trkpt lat="44.77918" lon="5.05506">
        <ele>511</ele>
        <time>2020-02-07T12:21:27.000Z</time>
      </trkpt>
      <trkpt lat="44.77919" lon="5.05505">
        <ele>511</ele>
        <time>2020-02-07T12:21:28.000Z</time>
      </trkpt>
      <trkpt lat="44.77919" lon="5.05505">
        <ele>511</ele>
        <time>2020-02-07T12:21:29.000Z</time>
      </trkpt>
      <trkpt lat="44.7792" lon="5.05504">
        <ele>511</ele>
        <time>2020-02-07T12:21:30.000Z</time>
      </trkpt>
      <trkpt lat="44.7792" lon="5.05504">
        <ele>511</ele>
        <time>2020-02-07T12:21:31.000Z</time>
      </trkpt>
      <trkpt lat="44.77921" lon="5.05503">
        <ele>511</ele>
        <time>2020-02-07T12:21:32.000Z</time>
      </trkpt>
      <trkpt lat="44.77921" lon="5.05502">
        <ele>511</ele>
        <time>2020-02-07T12:21:33.000Z</time>
      </trkpt>
      <trkpt lat="44.77922" lon="5.05501">
        <ele>510</ele>
        <time>2020-02-07T12:21:34.000Z</time>
      </trkpt>
      <trkpt lat="44.77923" lon="5.055">
        <ele>510</ele>
        <time>2020-02-07T12:21:35.000Z</time>
      </trkpt>
      <trkpt lat="44.77924" lon="5.05499">
        <ele>510</ele>
        <time>2020-02-07T12:21:36.000Z</time>
      </trkpt>
      <trkpt lat="44.77925" lon="5.05499">
        <ele>510</ele>
        <time>2020-02-07T12:21:37.000Z</time>
      </trkpt>
      <trkpt lat="44.77925" lon="5.05498">
        <ele>510</ele>
        <time>2020-02-07T12:21:38.000Z</time>
      </trkpt>
      <trkpt lat="44.77926" lon="5.05497">
        <ele>510</ele>
        <time>2020-02-07T12:21:39.000Z</time>
      </trkpt>
      <trkpt lat="44.77927" lon="5.05496">
        <ele>510</ele>
        <time>2020-02-07T12:21:40.000Z</time>
      </trkpt>
      <trkpt lat="44.77928" lon="5.05494">
        <ele>510</ele>
        <time>2020-02-07T12:21:41.000Z</time>
      </trkpt>
      <trkpt lat="44.77929" lon="5.05493">
        <ele>510</ele>
        <time>2020-02-07T12:21:42.000Z</time>
      </trkpt>
      <trkpt lat="44.77929" lon="5.05492">
        <ele>510</ele>
        <time>2020-02-07T12:21:43.000Z</time>
      </trkpt>
      <trkpt lat="44.7793" lon="5.05491">
        <ele>510</ele>
        <time>2020-02-07T12:21:44.000Z</time>
      </trkpt>
      <trkpt lat="44.77931" lon="5.05491">
        <ele>510</ele>
        <time>2020-02-07T12:21:45.000Z</time>
      </trkpt>
      <trkpt lat="44.77932" lon="5.0549">
        <ele>510</ele>
        <time>2020-02-07T12:21:46.000Z</time>
      </trkpt>
      <trkpt lat="44.77933" lon="5.05489">
        <ele>509</ele>
        <time>2020-02-07T12:21:47.000Z</time>
      </trkpt>
      <trkpt lat="44.77933" lon="5.05488">
        <ele>509</ele>
        <time>2020-02-07T12:21:48.000Z</time>
      </trkpt>
      <trkpt lat="44.77934" lon="5.05487">
        <ele>509</ele>
        <time>2020-02-07T12:21:49.000Z</time>
      </trkpt>
      <trkpt lat="44.77935" lon="5.05486">
        <ele>509</ele>
        <time>2020-02-07T12:21:50.000Z</time>
      </trkpt>
      <trkpt lat="44.77936" lon="5.05485">
        <ele>509</ele>
        <time>2020-02-07T12:21:51.000Z</time>
      </trkpt>
      <trkpt lat="44.77937" lon="5.05484">
        <ele>509</ele>
        <time>2020-02-07T12:21:52.000Z</time>
      </trkpt>
      <trkpt lat="44.77937" lon="5.05483">
        <ele>509</ele>
        <time>2020-02-07T12:21:53.000Z</time>
      </trkpt>
      <trkpt lat="44.77938" lon="5.05482">
        <ele>509</ele>
        <time>2020-02-07T12:21:54.000Z</time>
      </trkpt>
      <trkpt lat="44.77939" lon="5.05481">
        <ele>509</ele>
        <time>2020-02-07T12:21:55.000Z</time>
      </trkpt>
      <trkpt lat="44.7794" lon="5.0548">
        <ele>509</ele>
        <time>2020-02-07T12:21:56.000Z</time>
      </trkpt>
      <trkpt lat="44.77941" lon="5.05479">
        <ele>509</ele>
        <time>2020-02-07T12:21:57.000Z</time>
      </trkpt>
      <trkpt lat="44.77941" lon="5.05478">
        <ele>509</ele>
        <time>2020-02-07T12:21:58.000Z</time>
      </trkpt>
      <trkpt lat="44.77942" lon="5.05477">
        <ele>508</ele>
        <time>2020-02-07T12:21:59.000Z</time>
      </trkpt>
      <trkpt lat="44.77943" lon="5.05476">
        <ele>508</ele>
        <time>2020-02-07T12:22:00.000Z</time>
      </trkpt>
      <trkpt lat="44.77944" lon="5.05475">
        <ele>508</ele>
        <time>2020-02-07T12:22:01.000Z</time>
      </trkpt>
      <trkpt lat="44.77944" lon="5.05475">
        <ele>508</ele>
        <time>2020-02-07T12:22:02.000Z</time>
      </trkpt>
      <trkpt lat="44.77945" lon="5.05475">
        <ele>508</ele>
        <time>2020-02-07T12:22:03.000Z</time>
      </trkpt>
      <trkpt lat="44.77946" lon="5.05474">
        <ele>508</ele>
        <time>2020-02-07T12:22:04.000Z</time>
      </trkpt>
      <trkpt lat="44.77946" lon="5.05473">
        <ele>508</ele>
        <time>2020-02-07T12:22:05.000Z</time>
      </trkpt>
      <trkpt lat="44.77947" lon="5.05472">
        <ele>508</ele>
        <time>2020-02-07T12:22:06.000Z</time>
      </trkpt>
      <trkpt lat="44.77948" lon="5.05471">
        <ele>508</ele>
        <time>2020-02-07T12:22:07.000Z</time>
      </trkpt>
      <trkpt lat="44.77949" lon="5.0547">
        <ele>508</ele>
        <time>2020-02-07T12:22:08.000Z</time>
      </trkpt>
      <trkpt lat="44.7795" lon="5.05469">
        <ele>508</ele>
        <time>2020-02-07T12:22:09.000Z</time>
      </trkpt>
      <trkpt lat="44.77951" lon="5.05468">
        <ele>508</ele>
        <time>2020-02-07T12:22:10.000Z</time>
      </trkpt>
      <trkpt lat="44.77951" lon="5.05468">
        <ele>508</ele>
        <time>2020-02-07T12:22:11.000Z</time>
      </trkpt>
      <trkpt lat="44.77952" lon="5.05467">
        <ele>508</ele>
        <time>2020-02-07T12:22:12.000Z</time>
      </trkpt>
      <trkpt lat="44.77952" lon="5.05467">
        <ele>508</ele>
        <time>2020-02-07T12:22:13.000Z</time>
      </trkpt>
      <trkpt lat="44.77952" lon="5.05466">
        <ele>508</ele>
        <time>2020-02-07T12:22:14.000Z</time>
      </trkpt>
      <trkpt lat="44.77953" lon="5.05465">
        <ele>508</ele>
        <time>2020-02-07T12:22:15.000Z</time>
      </trkpt>
      <trkpt lat="44.77953" lon="5.05464">
        <ele>508</ele>
        <time>2020-02-07T12:22:16.000Z</time>
      </trkpt>
      <trkpt lat="44.77954" lon="5.05463">
        <ele>508</ele>
        <time>2020-02-07T12:22:17.000Z</time>
      </trkpt>
      <trkpt lat="44.77955" lon="5.05462">
        <ele>507</ele>
        <time>2020-02-07T12:22:18.000Z</time>
      </trkpt>
      <trkpt lat="44.77956" lon="5.05461">
        <ele>507</ele>
        <time>2020-02-07T12:22:19.000Z</time>
      </trkpt>
      <trkpt lat="44.77957" lon="5.0546">
        <ele>507</ele>
        <time>2020-02-07T12:22:20.000Z</time>
      </trkpt>
      <trkpt lat="44.77958" lon="5.05459">
        <ele>507</ele>
        <time>2020-02-07T12:22:21.000Z</time>
      </trkpt>
      <trkpt lat="44.77959" lon="5.05457">
        <ele>507</ele>
        <time>2020-02-07T12:22:22.000Z</time>
      </trkpt>
      <trkpt lat="44.7796" lon="5.05456">
        <ele>506</ele>
        <time>2020-02-07T12:22:23.000Z</time>
      </trkpt>
      <trkpt lat="44.7796" lon="5.05455">
        <ele>506</ele>
        <time>2020-02-07T12:22:24.000Z</time>
      </trkpt>
      <trkpt lat="44.77961" lon="5.05454">
        <ele>506</ele>
        <time>2020-02-07T12:22:25.000Z</time>
      </trkpt>
      <trkpt lat="44.77962" lon="5.05453">
        <ele>506</ele>
        <time>2020-02-07T12:22:26.000Z</time>
      </trkpt>
      <trkpt lat="44.77963" lon="5.05453">
        <ele>506</ele>
        <time>2020-02-07T12:22:27.000Z</time>
      </trkpt>
      <trkpt lat="44.77964" lon="5.05452">
        <ele>506</ele>
        <time>2020-02-07T12:22:28.000Z</time>
      </trkpt>
      <trkpt lat="44.77965" lon="5.05451">
        <ele>506</ele>
        <time>2020-02-07T12:22:29.000Z</time>
      </trkpt>
      <trkpt lat="44.77966" lon="5.0545">
        <ele>505</ele>
        <time>2020-02-07T12:22:30.000Z</time>
      </trkpt>
      <trkpt lat="44.77967" lon="5.05449">
        <ele>505</ele>
        <time>2020-02-07T12:22:31.000Z</time>
      </trkpt>
      <trkpt lat="44.77968" lon="5.05448">
        <ele>505</ele>
        <time>2020-02-07T12:22:32.000Z</time>
      </trkpt>
      <trkpt lat="44.77969" lon="5.05446">
        <ele>505</ele>
        <time>2020-02-07T12:22:33.000Z</time>
      </trkpt>
      <trkpt lat="44.7797" lon="5.05446">
        <ele>505</ele>
        <time>2020-02-07T12:22:34.000Z</time>
      </trkpt>
      <trkpt lat="44.77971" lon="5.05445">
        <ele>505</ele>
        <time>2020-02-07T12:22:35.000Z</time>
      </trkpt>
      <trkpt lat="44.77972" lon="5.05444">
        <ele>505</ele>
        <time>2020-02-07T12:22:36.000Z</time>
      </trkpt>
      <trkpt lat="44.77972" lon="5.05443">
        <ele>505</ele>
        <time>2020-02-07T12:22:37.000Z</time>
      </trkpt>
      <trkpt lat="44.77973" lon="5.05442">
        <ele>505</ele>
        <time>2020-02-07T12:22:38.000Z</time>
      </trkpt>
      <trkpt lat="44.77974" lon="5.05442">
        <ele>505</ele>
        <time>2020-02-07T12:22:39.000Z</time>
      </trkpt>
      <trkpt lat="44.77975" lon="5.05441">
        <ele>505</ele>
        <time>2020-02-07T12:22:40.000Z</time>
      </trkpt>
      <trkpt lat="44.77975" lon="5.0544">
        <ele>505</ele>
        <time>2020-02-07T12:22:41.000Z</time>
      </trkpt>
      <trkpt lat="44.77976" lon="5.05439">
        <ele>505</ele>
        <time>2020-02-07T12:22:42.000Z</time>
      </trkpt>
      <trkpt lat="44.77977" lon="5.05439">
        <ele>505</ele>
        <time>2020-02-07T12:22:43.000Z</time>
      </trkpt>
      <trkpt lat="44.77978" lon="5.05438">
        <ele>505</ele>
        <time>2020-02-07T12:22:44.000Z</time>
      </trkpt>
      <trkpt lat="44.77979" lon="5.05437">
        <ele>504</ele>
        <time>2020-02-07T12:22:45.000Z</time>
      </trkpt>
      <trkpt lat="44.7798" lon="5.05436">
        <ele>504</ele>
        <time>2020-02-07T12:22:46.000Z</time>
      </trkpt>
      <trkpt lat="44.77981" lon="5.05434">
        <ele>504</ele>
        <time>2020-02-07T12:22:47.000Z</time>
      </trkpt>
      <trkpt lat="44.77982" lon="5.05433">
        <ele>504</ele>
        <time>2020-02-07T12:22:48.000Z</time>
      </trkpt>
      <trkpt lat="44.77983" lon="5.05432">
        <ele>504</ele>
        <time>2020-02-07T12:22:49.000Z</time>
      </trkpt>
      <trkpt lat="44.77984" lon="5.05431">
        <ele>504</ele>
        <time>2020-02-07T12:22:50.000Z</time>
      </trkpt>
      <trkpt lat="44.77985" lon="5.0543">
        <ele>503</ele>
        <time>2020-02-07T12:22:51.000Z</time>
      </trkpt>
      <trkpt lat="44.77986" lon="5.0543">
        <ele>503</ele>
        <time>2020-02-07T12:22:52.000Z</time>
      </trkpt>
      <trkpt lat="44.77986" lon="5.05429">
        <ele>503</ele>
        <time>2020-02-07T12:22:53.000Z</time>
      </trkpt>
      <trkpt lat="44.77987" lon="5.05428">
        <ele>503</ele>
        <time>2020-02-07T12:22:54.000Z</time>
      </trkpt>
      <trkpt lat="44.77987" lon="5.05428">
        <ele>503</ele>
        <time>2020-02-07T12:22:55.000Z</time>
      </trkpt>
      <trkpt lat="44.77987" lon="5.05428">
        <ele>503</ele>
        <time>2020-02-07T12:22:56.000Z</time>
      </trkpt>
      <trkpt lat="44.77987" lon="5.05428">
        <ele>503</ele>
        <time>2020-02-07T12:22:57.000Z</time>
      </trkpt>
      <trkpt lat="44.77988" lon="5.05427">
        <ele>503</ele>
        <time>2020-02-07T12:22:58.000Z</time>
      </trkpt>
      <trkpt lat="44.77988" lon="5.05426">
        <ele>503</ele>
        <time>2020-02-07T12:22:59.000Z</time>
      </trkpt>
      <trkpt lat="44.77989" lon="5.05426">
        <ele>503</ele>
        <time>2020-02-07T12:23:00.000Z</time>
      </trkpt>
      <trkpt lat="44.7799" lon="5.05425">
        <ele>503</ele>
        <time>2020-02-07T12:23:01.000Z</time>
      </trkpt>
      <trkpt lat="44.77991" lon="5.05424">
        <ele>503</ele>
        <time>2020-02-07T12:23:02.000Z</time>
      </trkpt>
      <trkpt lat="44.77992" lon="5.05423">
        <ele>503</ele>
        <time>2020-02-07T12:23:03.000Z</time>
      </trkpt>
      <trkpt lat="44.77992" lon="5.05422">
        <ele>503</ele>
        <time>2020-02-07T12:23:04.000Z</time>
      </trkpt>
      <trkpt lat="44.77993" lon="5.05421">
        <ele>503</ele>
        <time>2020-02-07T12:23:05.000Z</time>
      </trkpt>
      <trkpt lat="44.77994" lon="5.0542">
        <ele>503</ele>
        <time>2020-02-07T12:23:06.000Z</time>
      </trkpt>
      <trkpt lat="44.77994" lon="5.0542">
        <ele>503</ele>
        <time>2020-02-07T12:23:07.000Z</time>
      </trkpt>
      <trkpt lat="44.77995" lon="5.05419">
        <ele>503</ele>
        <time>2020-02-07T12:23:08.000Z</time>
      </trkpt>
      <trkpt lat="44.77996" lon="5.05418">
        <ele>503</ele>
        <time>2020-02-07T12:23:09.000Z</time>
      </trkpt>
      <trkpt lat="44.77996" lon="5.05417">
        <ele>503</ele>
        <time>2020-02-07T12:23:10.000Z</time>
      </trkpt>
      <trkpt lat="44.77997" lon="5.05415">
        <ele>503</ele>
        <time>2020-02-07T12:23:11.000Z</time>
      </trkpt>
      <trkpt lat="44.77998" lon="5.05414">
        <ele>503</ele>
        <time>2020-02-07T12:23:12.000Z</time>
      </trkpt>
      <trkpt lat="44.77999" lon="5.05413">
        <ele>503</ele>
        <time>2020-02-07T12:23:13.000Z</time>
      </trkpt>
      <trkpt lat="44.78" lon="5.05412">
        <ele>503</ele>
        <time>2020-02-07T12:23:14.000Z</time>
      </trkpt>
      <trkpt lat="44.78" lon="5.05411">
        <ele>503</ele>
        <time>2020-02-07T12:23:15.000Z</time>
      </trkpt>
      <trkpt lat="44.78001" lon="5.0541">
        <ele>502</ele>
        <time>2020-02-07T12:23:16.000Z</time>
      </trkpt>
      <trkpt lat="44.78001" lon="5.0541">
        <ele>503</ele>
        <time>2020-02-07T12:23:17.000Z</time>
      </trkpt>
      <trkpt lat="44.78001" lon="5.0541">
        <ele>503</ele>
        <time>2020-02-07T12:23:18.000Z</time>
      </trkpt>
      <trkpt lat="44.78001" lon="5.05409">
        <ele>503</ele>
        <time>2020-02-07T12:23:19.000Z</time>
      </trkpt>
      <trkpt lat="44.78002" lon="5.05409">
        <ele>503</ele>
        <time>2020-02-07T12:23:20.000Z</time>
      </trkpt>
      <trkpt lat="44.78002" lon="5.05408">
        <ele>502</ele>
        <time>2020-02-07T12:23:21.000Z</time>
      </trkpt>
      <trkpt lat="44.78002" lon="5.05407">
        <ele>503</ele>
        <time>2020-02-07T12:23:22.000Z</time>
      </trkpt>
      <trkpt lat="44.78003" lon="5.05407">
        <ele>503</ele>
        <time>2020-02-07T12:23:23.000Z</time>
      </trkpt>
      <trkpt lat="44.78003" lon="5.05406">
        <ele>503</ele>
        <time>2020-02-07T12:23:24.000Z</time>
      </trkpt>
      <trkpt lat="44.78003" lon="5.05405">
        <ele>503</ele>
        <time>2020-02-07T12:23:25.000Z</time>
      </trkpt>
      <trkpt lat="44.78003" lon="5.05403">
        <ele>503</ele>
        <time>2020-02-07T12:23:26.000Z</time>
      </trkpt>
      <trkpt lat="44.78004" lon="5.05402">
        <ele>503</ele>
        <time>2020-02-07T12:23:27.000Z</time>
      </trkpt>
      <trkpt lat="44.78004" lon="5.05401">
        <ele>503</ele>
        <time>2020-02-07T12:23:28.000Z</time>
      </trkpt>
      <trkpt lat="44.78005" lon="5.054">
        <ele>503</ele>
        <time>2020-02-07T12:23:29.000Z</time>
      </trkpt>
      <trkpt lat="44.78005" lon="5.05399">
        <ele>503</ele>
        <time>2020-02-07T12:23:30.000Z</time>
      </trkpt>
      <trkpt lat="44.78005" lon="5.05398">
        <ele>503</ele>
        <time>2020-02-07T12:23:31.000Z</time>
      </trkpt>
      <trkpt lat="44.78005" lon="5.05398">
        <ele>503</ele>
        <time>2020-02-07T12:23:32.000Z</time>
      </trkpt>
      <trkpt lat="44.78005" lon="5.05398">
        <ele>503</ele>
        <time>2020-02-07T12:23:33.000Z</time>
      </trkpt>
      <trkpt lat="44.78005" lon="5.05398">
        <ele>503</ele>
        <time>2020-02-07T12:23:34.000Z</time>
      </trkpt>
      <trkpt lat="44.78006" lon="5.05398">
        <ele>503</ele>
        <time>2020-02-07T12:23:35.000Z</time>
      </trkpt>
      <trkpt lat="44.78006" lon="5.05397">
        <ele>503</ele>
        <time>2020-02-07T12:23:36.000Z</time>
      </trkpt>
      <trkpt lat="44.78006" lon="5.05397">
        <ele>503</ele>
        <time>2020-02-07T12:23:37.000Z</time>
      </trkpt>
      <trkpt lat="44.78006" lon="5.05396">
        <ele>503</ele>
        <time>2020-02-07T12:23:38.000Z</time>
      </trkpt>
      <trkpt lat="44.78007" lon="5.05395">
        <ele>504</ele>
        <time>2020-02-07T12:23:39.000Z</time>
      </trkpt>
      <trkpt lat="44.78008" lon="5.05393">
        <ele>503</ele>
        <time>2020-02-07T12:23:40.000Z</time>
      </trkpt>
      <trkpt lat="44.78008" lon="5.05391">
        <ele>503</ele>
        <time>2020-02-07T12:23:41.000Z</time>
      </trkpt>
      <trkpt lat="44.78009" lon="5.0539">
        <ele>503</ele>
        <time>2020-02-07T12:23:42.000Z</time>
      </trkpt>
      <trkpt lat="44.78009" lon="5.05389">
        <ele>503</ele>
        <time>2020-02-07T12:23:43.000Z</time>
      </trkpt>
      <trkpt lat="44.78009" lon="5.05387">
        <ele>503</ele>
        <time>2020-02-07T12:23:44.000Z</time>
      </trkpt>
      <trkpt lat="44.78009" lon="5.05386">
        <ele>503</ele>
        <time>2020-02-07T12:23:45.000Z</time>
      </trkpt>
      <trkpt lat="44.78009" lon="5.05385">
        <ele>503</ele>
        <time>2020-02-07T12:23:46.000Z</time>
      </trkpt>
      <trkpt lat="44.78009" lon="5.05384">
        <ele>504</ele>
        <time>2020-02-07T12:23:47.000Z</time>
      </trkpt>
      <trkpt lat="44.78009" lon="5.05382">
        <ele>504</ele>
        <time>2020-02-07T12:23:48.000Z</time>
      </trkpt>
      <trkpt lat="44.78009" lon="5.05381">
        <ele>504</ele>
        <time>2020-02-07T12:23:49.000Z</time>
      </trkpt>
      <trkpt lat="44.78009" lon="5.0538">
        <ele>504</ele>
        <time>2020-02-07T12:23:50.000Z</time>
      </trkpt>
      <trkpt lat="44.7801" lon="5.05379">
        <ele>504</ele>
        <time>2020-02-07T12:23:51.000Z</time>
      </trkpt>
      <trkpt lat="44.7801" lon="5.05378">
        <ele>504</ele>
        <time>2020-02-07T12:23:52.000Z</time>
      </trkpt>
      <trkpt lat="44.78011" lon="5.05377">
        <ele>504</ele>
        <time>2020-02-07T12:23:53.000Z</time>
      </trkpt>
      <trkpt lat="44.78011" lon="5.05376">
        <ele>504</ele>
        <time>2020-02-07T12:23:54.000Z</time>
      </trkpt>
      <trkpt lat="44.78012" lon="5.05375">
        <ele>504</ele>
        <time>2020-02-07T12:23:55.000Z</time>
      </trkpt>
      <trkpt lat="44.78012" lon="5.05374">
        <ele>504</ele>
        <time>2020-02-07T12:23:56.000Z</time>
      </trkpt>
      <trkpt lat="44.78013" lon="5.05373">
        <ele>504</ele>
        <time>2020-02-07T12:23:57.000Z</time>
      </trkpt>
      <trkpt lat="44.78013" lon="5.05371">
        <ele>504</ele>
        <time>2020-02-07T12:23:58.000Z</time>
      </trkpt>
      <trkpt lat="44.78013" lon="5.0537">
        <ele>504</ele>
        <time>2020-02-07T12:23:59.000Z</time>
      </trkpt>
      <trkpt lat="44.78014" lon="5.05369">
        <ele>504</ele>
        <time>2020-02-07T12:24:00.000Z</time>
      </trkpt>
      <trkpt lat="44.78014" lon="5.05367">
        <ele>503</ele>
        <time>2020-02-07T12:24:01.000Z</time>
      </trkpt>
      <trkpt lat="44.78014" lon="5.05367">
        <ele>503</ele>
        <time>2020-02-07T12:24:02.000Z</time>
      </trkpt>
      <trkpt lat="44.78014" lon="5.05366">
        <ele>503</ele>
        <time>2020-02-07T12:24:03.000Z</time>
      </trkpt>
      <trkpt lat="44.78014" lon="5.05365">
        <ele>503</ele>
        <time>2020-02-07T12:24:04.000Z</time>
      </trkpt>
      <trkpt lat="44.78015" lon="5.05364">
        <ele>503</ele>
        <time>2020-02-07T12:24:05.000Z</time>
      </trkpt>
      <trkpt lat="44.78015" lon="5.05363">
        <ele>503</ele>
        <time>2020-02-07T12:24:06.000Z</time>
      </trkpt>
      <trkpt lat="44.78015" lon="5.05361">
        <ele>503</ele>
        <time>2020-02-07T12:24:07.000Z</time>
      </trkpt>
      <trkpt lat="44.78015" lon="5.0536">
        <ele>503</ele>
        <time>2020-02-07T12:24:08.000Z</time>
      </trkpt>
      <trkpt lat="44.78014" lon="5.05359">
        <ele>503</ele>
        <time>2020-02-07T12:24:09.000Z</time>
      </trkpt>
      <trkpt lat="44.78014" lon="5.05358">
        <ele>503</ele>
        <time>2020-02-07T12:24:10.000Z</time>
      </trkpt>
      <trkpt lat="44.78013" lon="5.05357">
        <ele>503</ele>
        <time>2020-02-07T12:24:11.000Z</time>
      </trkpt>
      <trkpt lat="44.78013" lon="5.05357">
        <ele>503</ele>
        <time>2020-02-07T12:24:12.000Z</time>
      </trkpt>
      <trkpt lat="44.78013" lon="5.05356">
        <ele>503</ele>
        <time>2020-02-07T12:24:13.000Z</time>
      </trkpt>
      <trkpt lat="44.78012" lon="5.05356">
        <ele>503</ele>
        <time>2020-02-07T12:24:14.000Z</time>
      </trkpt>
      <trkpt lat="44.78012" lon="5.05355">
        <ele>503</ele>
        <time>2020-02-07T12:24:15.000Z</time>
      </trkpt>
      <trkpt lat="44.78012" lon="5.05355">
        <ele>503</ele>
        <time>2020-02-07T12:24:16.000Z</time>
      </trkpt>
      <trkpt lat="44.78012" lon="5.05355">
        <ele>503</ele>
        <time>2020-02-07T12:24:17.000Z</time>
      </trkpt>
      <trkpt lat="44.78012" lon="5.05355">
        <ele>503</ele>
        <time>2020-02-07T12:24:18.000Z</time>
      </trkpt>
      <trkpt lat="44.78012" lon="5.05355">
        <ele>503</ele>
        <time>2020-02-07T12:24:19.000Z</time>
      </trkpt>
      <trkpt lat="44.78012" lon="5.05355">
        <ele>503</ele>
        <time>2020-02-07T12:24:20.000Z</time>
      </trkpt>
      <trkpt lat="44.78012" lon="5.05355">
        <ele>503</ele>
        <time>2020-02-07T12:24:21.000Z</time>
      </trkpt>
      <trkpt lat="44.78012" lon="5.05356">
        <ele>503</ele>
        <time>2020-02-07T12:24:22.000Z</time>
      </trkpt>
      <trkpt lat="44.78012" lon="5.05355">
        <ele>503</ele>
        <time>2020-02-07T12:24:23.000Z</time>
      </trkpt>
      <trkpt lat="44.78012" lon="5.05355">
        <ele>503</ele>
        <time>2020-02-07T12:24:24.000Z</time>
      </trkpt>
      <trkpt lat="44.78012" lon="5.05355">
        <ele>503</ele>
        <time>2020-02-07T12:24:25.000Z</time>
      </trkpt>
      <trkpt lat="44.78012" lon="5.05355">
        <ele>503</ele>
        <time>2020-02-07T12:24:26.000Z</time>
      </trkpt>
      <trkpt lat="44.78012" lon="5.05355">
        <ele>503</ele>
        <time>2020-02-07T12:24:27.000Z</time>
      </trkpt>
      <trkpt lat="44.78012" lon="5.05355">
        <ele>503</ele>
        <time>2020-02-07T12:24:28.000Z</time>
      </trkpt>
      <trkpt lat="44.78012" lon="5.05355">
        <ele>503</ele>
        <time>2020-02-07T12:24:29.000Z</time>
      </trkpt>
      <trkpt lat="44.78012" lon="5.05355">
        <ele>503</ele>
        <time>2020-02-07T12:24:30.000Z</time>
      </trkpt>
      <trkpt lat="44.78013" lon="5.05355">
        <ele>503</ele>
        <time>2020-02-07T12:24:31.000Z</time>
      </trkpt>
      <trkpt lat="44.78013" lon="5.05355">
        <ele>503</ele>
        <time>2020-02-07T12:24:32.000Z</time>
      </trkpt>
      <trkpt lat="44.78013" lon="5.05355">
        <ele>503</ele>
        <time>2020-02-07T12:24:33.000Z</time>
      </trkpt>
      <trkpt lat="44.78013" lon="5.05355">
        <ele>503</ele>
        <time>2020-02-07T12:24:34.000Z</time>
      </trkpt>
      <trkpt lat="44.78013" lon="5.05355">
        <ele>503</ele>
        <time>2020-02-07T12:24:35.000Z</time>
      </trkpt>
      <trkpt lat="44.78013" lon="5.05355">
        <ele>503</ele>
        <time>2020-02-07T12:24:36.000Z</time>
      </trkpt>
      <trkpt lat="44.78013" lon="5.05355">
        <ele>503</ele>
        <time>2020-02-07T12:24:37.000Z</time>
      </trkpt>
      <trkpt lat="44.78013" lon="5.05355">
        <ele>503</ele>
        <time>2020-02-07T12:24:38.000Z</time>
      </trkpt>
      <trkpt lat="44.78013" lon="5.05355">
        <ele>503</ele>
        <time>2020-02-07T12:24:39.000Z</time>
      </trkpt>
      <trkpt lat="44.78012" lon="5.05355">
        <ele>503</ele>
        <time>2020-02-07T12:24:40.000Z</time>
      </trkpt>
      <trkpt lat="44.78012" lon="5.05354">
        <ele>503</ele>
        <time>2020-02-07T12:24:41.000Z</time>
      </trkpt>
      <trkpt lat="44.78012" lon="5.05354">
        <ele>503</ele>
        <time>2020-02-07T12:24:42.000Z</time>
      </trkpt>
      <trkpt lat="44.78012" lon="5.05354">
        <ele>503</ele>
        <time>2020-02-07T12:24:43.000Z</time>
      </trkpt>
      <trkpt lat="44.78012" lon="5.05354">
        <ele>503</ele>
        <time>2020-02-07T12:24:44.000Z</time>
      </trkpt>
      <trkpt lat="44.78012" lon="5.05354">
        <ele>503</ele>
        <time>2020-02-07T12:24:45.000Z</time>
      </trkpt>
      <trkpt lat="44.78012" lon="5.05354">
        <ele>503</ele>
        <time>2020-02-07T12:24:46.000Z</time>
      </trkpt>
      <trkpt lat="44.78012" lon="5.05354">
        <ele>503</ele>
        <time>2020-02-07T12:24:47.000Z</time>
      </trkpt>
      <trkpt lat="44.78012" lon="5.05354">
        <ele>503</ele>
        <time>2020-02-07T12:24:48.000Z</time>
      </trkpt>
      <trkpt lat="44.78013" lon="5.05354">
        <ele>503</ele>
        <time>2020-02-07T12:24:49.000Z</time>
      </trkpt>
      <trkpt lat="44.78013" lon="5.05354">
        <ele>503</ele>
        <time>2020-02-07T12:24:50.000Z</time>
      </trkpt>
      <trkpt lat="44.78013" lon="5.05354">
        <ele>503</ele>
        <time>2020-02-07T12:24:51.000Z</time>
      </trkpt>
      <trkpt lat="44.78013" lon="5.05354">
        <ele>503</ele>
        <time>2020-02-07T12:24:52.000Z</time>
      </trkpt>
      <trkpt lat="44.78013" lon="5.05354">
        <ele>503</ele>
        <time>2020-02-07T12:24:53.000Z</time>
      </trkpt>
      <trkpt lat="44.78013" lon="5.05354">
        <ele>503</ele>
        <time>2020-02-07T12:24:54.000Z</time>
      </trkpt>
      <trkpt lat="44.78013" lon="5.05354">
        <ele>503</ele>
        <time>2020-02-07T12:24:55.000Z</time>
      </trkpt>
      <trkpt lat="44.78013" lon="5.05354">
        <ele>503</ele>
        <time>2020-02-07T12:24:56.000Z</time>
      </trkpt>
      <trkpt lat="44.78013" lon="5.05354">
        <ele>503</ele>
        <time>2020-02-07T12:24:57.000Z</time>
      </trkpt>
      <trkpt lat="44.78013" lon="5.05354">
        <ele>503</ele>
        <time>2020-02-07T12:24:58.000Z</time>
      </trkpt>
      <trkpt lat="44.78013" lon="5.05354">
        <ele>503</ele>
        <time>2020-02-07T12:24:59.000Z</time>
      </trkpt>
      <trkpt lat="44.78013" lon="5.05354">
        <ele>503</ele>
        <time>2020-02-07T12:25:00.000Z</time>
      </trkpt>
      <trkpt lat="44.78013" lon="5.05354">
        <ele>503</ele>
        <time>2020-02-07T12:25:01.000Z</time>
      </trkpt>
      <trkpt lat="44.78013" lon="5.05354">
        <ele>503</ele>
        <time>2020-02-07T12:25:02.000Z</time>
      </trkpt>
      <trkpt lat="44.78013" lon="5.05354">
        <ele>503</ele>
        <time>2020-02-07T12:25:03.000Z</time>
      </trkpt>
      <trkpt lat="44.78013" lon="5.05354">
        <ele>502</ele>
        <time>2020-02-07T12:25:04.000Z</time>
      </trkpt>
      <trkpt lat="44.78013" lon="5.05354">
        <ele>502</ele>
        <time>2020-02-07T12:25:05.000Z</time>
      </trkpt>
      <trkpt lat="44.78013" lon="5.05354">
        <ele>502</ele>
        <time>2020-02-07T12:25:06.000Z</time>
      </trkpt>
      <trkpt lat="44.78013" lon="5.05354">
        <ele>502</ele>
        <time>2020-02-07T12:25:07.000Z</time>
      </trkpt>
      <trkpt lat="44.78013" lon="5.05354">
        <ele>502</ele>
        <time>2020-02-07T12:25:08.000Z</time>
      </trkpt>
      <trkpt lat="44.78013" lon="5.05354">
        <ele>502</ele>
        <time>2020-02-07T12:25:09.000Z</time>
      </trkpt>
      <trkpt lat="44.78013" lon="5.05354">
        <ele>502</ele>
        <time>2020-02-07T12:25:10.000Z</time>
      </trkpt>
      <trkpt lat="44.78013" lon="5.05354">
        <ele>502</ele>
        <time>2020-02-07T12:25:11.000Z</time>
      </trkpt>
      <trkpt lat="44.78013" lon="5.05354">
        <ele>502</ele>
        <time>2020-02-07T12:25:12.000Z</time>
      </trkpt>
      <trkpt lat="44.78013" lon="5.05354">
        <ele>502</ele>
        <time>2020-02-07T12:25:13.000Z</time>
      </trkpt>
      <trkpt lat="44.78013" lon="5.05354">
        <ele>502</ele>
        <time>2020-02-07T12:25:14.000Z</time>
      </trkpt>
      <trkpt lat="44.78013" lon="5.05354">
        <ele>502</ele>
        <time>2020-02-07T12:25:15.000Z</time>
      </trkpt>
      <trkpt lat="44.78013" lon="5.05354">
        <ele>502</ele>
        <time>2020-02-07T12:25:16.000Z</time>
      </trkpt>
      <trkpt lat="44.78013" lon="5.05354">
        <ele>502</ele>
        <time>2020-02-07T12:25:17.000Z</time>
      </trkpt>
      <trkpt lat="44.78013" lon="5.05354">
        <ele>502</ele>
        <time>2020-02-07T12:25:18.000Z</time>
      </trkpt>
      <trkpt lat="44.78013" lon="5.05354">
        <ele>502</ele>
        <time>2020-02-07T12:25:19.000Z</time>
      </trkpt>
      <trkpt lat="44.78013" lon="5.05354">
        <ele>502</ele>
        <time>2020-02-07T12:25:20.000Z</time>
      </trkpt>
      <trkpt lat="44.78013" lon="5.05354">
        <ele>502</ele>
        <time>2020-02-07T12:25:21.000Z</time>
      </trkpt>
      <trkpt lat="44.78013" lon="5.05354">
        <ele>502</ele>
        <time>2020-02-07T12:25:22.000Z</time>
      </trkpt>
      <trkpt lat="44.78013" lon="5.05354">
        <ele>502</ele>
        <time>2020-02-07T12:25:23.000Z</time>
      </trkpt>
      <trkpt lat="44.78013" lon="5.05354">
        <ele>502</ele>
        <time>2020-02-07T12:25:24.000Z</time>
      </trkpt>
      <trkpt lat="44.78013" lon="5.05354">
        <ele>502</ele>
        <time>2020-02-07T12:25:25.000Z</time>
      </trkpt>
      <trkpt lat="44.78013" lon="5.05354">
        <ele>502</ele>
        <time>2020-02-07T12:25:26.000Z</time>
      </trkpt>
      <trkpt lat="44.78013" lon="5.05354">
        <ele>502</ele>
        <time>2020-02-07T12:25:27.000Z</time>
      </trkpt>
      <trkpt lat="44.78013" lon="5.05354">
        <ele>502</ele>
        <time>2020-02-07T12:25:28.000Z</time>
      </trkpt>
      <trkpt lat="44.78013" lon="5.05354">
        <ele>502</ele>
        <time>2020-02-07T12:25:29.000Z</time>
      </trkpt>
      <trkpt lat="44.78013" lon="5.05354">
        <ele>502</ele>
        <time>2020-02-07T12:25:30.000Z</time>
      </trkpt>
      <trkpt lat="44.78013" lon="5.05354">
        <ele>502</ele>
        <time>2020-02-07T12:25:31.000Z</time>
      </trkpt>
      <trkpt lat="44.78013" lon="5.05354">
        <ele>502</ele>
        <time>2020-02-07T12:25:32.000Z</time>
      </trkpt>
      <trkpt lat="44.78013" lon="5.05354">
        <ele>502</ele>
        <time>2020-02-07T12:25:33.000Z</time>
      </trkpt>
      <trkpt lat="44.78013" lon="5.05354">
        <ele>503</ele>
        <time>2020-02-07T12:25:34.000Z</time>
      </trkpt>
      <trkpt lat="44.78013" lon="5.05354">
        <ele>503</ele>
        <time>2020-02-07T12:25:35.000Z</time>
      </trkpt>
      <trkpt lat="44.78013" lon="5.05354">
        <ele>503</ele>
        <time>2020-02-07T12:25:36.000Z</time>
      </trkpt>
      <trkpt lat="44.78013" lon="5.05354">
        <ele>503</ele>
        <time>2020-02-07T12:25:37.000Z</time>
      </trkpt>
      <trkpt lat="44.78013" lon="5.05354">
        <ele>503</ele>
        <time>2020-02-07T12:25:38.000Z</time>
      </trkpt>
      <trkpt lat="44.78013" lon="5.05354">
        <ele>503</ele>
        <time>2020-02-07T12:25:39.000Z</time>
      </trkpt>
      <trkpt lat="44.78013" lon="5.05354">
        <ele>503</ele>
        <time>2020-02-07T12:25:40.000Z</time>
      </trkpt>
      <trkpt lat="44.78013" lon="5.05354">
        <ele>503</ele>
        <time>2020-02-07T12:25:41.000Z</time>
      </trkpt>
      <trkpt lat="44.78013" lon="5.05354">
        <ele>503</ele>
        <time>2020-02-07T12:25:42.000Z</time>
      </trkpt>
      <trkpt lat="44.78013" lon="5.05354">
        <ele>503</ele>
        <time>2020-02-07T12:25:43.000Z</time>
      </trkpt>
      <trkpt lat="44.78013" lon="5.05354">
        <ele>503</ele>
        <time>2020-02-07T12:25:44.000Z</time>
      </trkpt>
      <trkpt lat="44.78013" lon="5.05354">
        <ele>503</ele>
        <time>2020-02-07T12:25:45.000Z</time>
      </trkpt>
      <trkpt lat="44.78013" lon="5.05354">
        <ele>503</ele>
        <time>2020-02-07T12:25:46.000Z</time>
      </trkpt>
      <trkpt lat="44.78013" lon="5.05354">
        <ele>503</ele>
        <time>2020-02-07T12:25:47.000Z</time>
      </trkpt>
      <trkpt lat="44.78013" lon="5.05354">
        <ele>503</ele>
        <time>2020-02-07T12:25:48.000Z</time>
      </trkpt>
      <trkpt lat="44.78013" lon="5.05354">
        <ele>503</ele>
        <time>2020-02-07T12:25:49.000Z</time>
      </trkpt>
      <trkpt lat="44.78013" lon="5.05354">
        <ele>503</ele>
        <time>2020-02-07T12:25:50.000Z</time>
      </trkpt>
      <trkpt lat="44.78013" lon="5.05354">
        <ele>503</ele>
        <time>2020-02-07T12:25:51.000Z</time>
      </trkpt>
      <trkpt lat="44.78013" lon="5.05354">
        <ele>503</ele>
        <time>2020-02-07T12:25:52.000Z</time>
      </trkpt>
      <trkpt lat="44.78014" lon="5.05354">
        <ele>503</ele>
        <time>2020-02-07T12:25:53.000Z</time>
      </trkpt>
      <trkpt lat="44.78014" lon="5.05354">
        <ele>503</ele>
        <time>2020-02-07T12:25:54.000Z</time>
      </trkpt>
      <trkpt lat="44.78014" lon="5.05354">
        <ele>503</ele>
        <time>2020-02-07T12:25:55.000Z</time>
      </trkpt>
      <trkpt lat="44.78014" lon="5.05354">
        <ele>503</ele>
        <time>2020-02-07T12:25:56.000Z</time>
      </trkpt>
      <trkpt lat="44.78014" lon="5.05354">
        <ele>503</ele>
        <time>2020-02-07T12:25:57.000Z</time>
      </trkpt>
      <trkpt lat="44.78014" lon="5.05354">
        <ele>503</ele>
        <time>2020-02-07T12:25:58.000Z</time>
      </trkpt>
      <trkpt lat="44.78013" lon="5.05355">
        <ele>503</ele>
        <time>2020-02-07T12:25:59.000Z</time>
      </trkpt>
      <trkpt lat="44.78014" lon="5.05355">
        <ele>503</ele>
        <time>2020-02-07T12:26:00.000Z</time>
      </trkpt>
      <trkpt lat="44.78014" lon="5.05354">
        <ele>503</ele>
        <time>2020-02-07T12:26:01.000Z</time>
      </trkpt>
      <trkpt lat="44.78013" lon="5.05354">
        <ele>503</ele>
        <time>2020-02-07T12:26:02.000Z</time>
      </trkpt>
      <trkpt lat="44.78014" lon="5.05354">
        <ele>503</ele>
        <time>2020-02-07T12:26:03.000Z</time>
      </trkpt>
      <trkpt lat="44.78013" lon="5.05354">
        <ele>503</ele>
        <time>2020-02-07T12:26:04.000Z</time>
      </trkpt>
      <trkpt lat="44.78013" lon="5.05354">
        <ele>503</ele>
        <time>2020-02-07T12:26:05.000Z</time>
      </trkpt>
      <trkpt lat="44.78013" lon="5.05354">
        <ele>503</ele>
        <time>2020-02-07T12:26:06.000Z</time>
      </trkpt>
      <trkpt lat="44.78013" lon="5.05354">
        <ele>503</ele>
        <time>2020-02-07T12:26:07.000Z</time>
      </trkpt>
      <trkpt lat="44.78013" lon="5.05354">
        <ele>503</ele>
        <time>2020-02-07T12:26:08.000Z</time>
      </trkpt>
      <trkpt lat="44.78013" lon="5.05354">
        <ele>503</ele>
        <time>2020-02-07T12:26:09.000Z</time>
      </trkpt>
      <trkpt lat="44.78013" lon="5.05354">
        <ele>503</ele>
        <time>2020-02-07T12:26:10.000Z</time>
      </trkpt>
      <trkpt lat="44.78013" lon="5.05354">
        <ele>503</ele>
        <time>2020-02-07T12:26:11.000Z</time>
      </trkpt>
      <trkpt lat="44.78013" lon="5.05354">
        <ele>503</ele>
        <time>2020-02-07T12:26:12.000Z</time>
      </trkpt>
      <trkpt lat="44.78013" lon="5.05354">
        <ele>503</ele>
        <time>2020-02-07T12:26:13.000Z</time>
      </trkpt>
      <trkpt lat="44.78013" lon="5.05354">
        <ele>503</ele>
        <time>2020-02-07T12:26:14.000Z</time>
      </trkpt>
      <trkpt lat="44.78013" lon="5.05354">
        <ele>503</ele>
        <time>2020-02-07T12:26:15.000Z</time>
      </trkpt>
      <trkpt lat="44.78013" lon="5.05354">
        <ele>504</ele>
        <time>2020-02-07T12:26:16.000Z</time>
      </trkpt>
      <trkpt lat="44.78013" lon="5.05354">
        <ele>504</ele>
        <time>2020-02-07T12:26:17.000Z</time>
      </trkpt>
      <trkpt lat="44.78013" lon="5.05354">
        <ele>504</ele>
        <time>2020-02-07T12:26:18.000Z</time>
      </trkpt>
      <trkpt lat="44.78013" lon="5.05354">
        <ele>504</ele>
        <time>2020-02-07T12:26:19.000Z</time>
      </trkpt>
      <trkpt lat="44.78013" lon="5.05354">
        <ele>504</ele>
        <time>2020-02-07T12:26:20.000Z</time>
      </trkpt>
      <trkpt lat="44.78013" lon="5.05354">
        <ele>504</ele>
        <time>2020-02-07T12:26:21.000Z</time>
      </trkpt>
      <trkpt lat="44.78013" lon="5.05354">
        <ele>504</ele>
        <time>2020-02-07T12:26:22.000Z</time>
      </trkpt>
      <trkpt lat="44.78013" lon="5.05354">
        <ele>504</ele>
        <time>2020-02-07T12:26:23.000Z</time>
      </trkpt>
      <trkpt lat="44.78013" lon="5.05354">
        <ele>504</ele>
        <time>2020-02-07T12:26:24.000Z</time>
      </trkpt>
      <trkpt lat="44.78013" lon="5.05354">
        <ele>504</ele>
        <time>2020-02-07T12:26:25.000Z</time>
      </trkpt>
      <trkpt lat="44.78013" lon="5.05354">
        <ele>504</ele>
        <time>2020-02-07T12:26:26.000Z</time>
      </trkpt>
      <trkpt lat="44.78013" lon="5.05354">
        <ele>504</ele>
        <time>2020-02-07T12:26:27.000Z</time>
      </trkpt>
      <trkpt lat="44.78013" lon="5.05354">
        <ele>504</ele>
        <time>2020-02-07T12:26:28.000Z</time>
      </trkpt>
      <trkpt lat="44.78013" lon="5.05354">
        <ele>504</ele>
        <time>2020-02-07T12:26:29.000Z</time>
      </trkpt>
      <trkpt lat="44.78013" lon="5.05354">
        <ele>504</ele>
        <time>2020-02-07T12:26:30.000Z</time>
      </trkpt>
      <trkpt lat="44.78013" lon="5.05354">
        <ele>504</ele>
        <time>2020-02-07T12:26:31.000Z</time>
      </trkpt>
      <trkpt lat="44.78013" lon="5.05354">
        <ele>504</ele>
        <time>2020-02-07T12:26:32.000Z</time>
      </trkpt>
      <trkpt lat="44.78013" lon="5.05354">
        <ele>504</ele>
        <time>2020-02-07T12:26:33.000Z</time>
      </trkpt>
      <trkpt lat="44.78013" lon="5.05354">
        <ele>504</ele>
        <time>2020-02-07T12:26:34.000Z</time>
      </trkpt>
      <trkpt lat="44.78013" lon="5.05353">
        <ele>504</ele>
        <time>2020-02-07T12:26:35.000Z</time>
      </trkpt>
      <trkpt lat="44.78013" lon="5.05354">
        <ele>504</ele>
        <time>2020-02-07T12:26:36.000Z</time>
      </trkpt>
      <trkpt lat="44.78013" lon="5.05354">
        <ele>504</ele>
        <time>2020-02-07T12:26:37.000Z</time>
      </trkpt>
      <trkpt lat="44.78013" lon="5.05353">
        <ele>504</ele>
        <time>2020-02-07T12:26:38.000Z</time>
      </trkpt>
      <trkpt lat="44.78012" lon="5.05353">
        <ele>504</ele>
        <time>2020-02-07T12:26:39.000Z</time>
      </trkpt>
      <trkpt lat="44.78012" lon="5.05353">
        <ele>504</ele>
        <time>2020-02-07T12:26:40.000Z</time>
      </trkpt>
      <trkpt lat="44.78012" lon="5.05353">
        <ele>504</ele>
        <time>2020-02-07T12:26:41.000Z</time>
      </trkpt>
      <trkpt lat="44.78011" lon="5.05353">
        <ele>504</ele>
        <time>2020-02-07T12:26:42.000Z</time>
      </trkpt>
      <trkpt lat="44.7801" lon="5.05353">
        <ele>504</ele>
        <time>2020-02-07T12:26:43.000Z</time>
      </trkpt>
      <trkpt lat="44.78009" lon="5.05353">
        <ele>504</ele>
        <time>2020-02-07T12:26:44.000Z</time>
      </trkpt>
      <trkpt lat="44.78009" lon="5.05353">
        <ele>504</ele>
        <time>2020-02-07T12:26:45.000Z</time>
      </trkpt>
      <trkpt lat="44.78008" lon="5.05353">
        <ele>504</ele>
        <time>2020-02-07T12:26:46.000Z</time>
      </trkpt>
      <trkpt lat="44.78007" lon="5.05354">
        <ele>504</ele>
        <time>2020-02-07T12:26:47.000Z</time>
      </trkpt>
      <trkpt lat="44.78006" lon="5.05355">
        <ele>504</ele>
        <time>2020-02-07T12:26:48.000Z</time>
      </trkpt>
      <trkpt lat="44.78005" lon="5.05356">
        <ele>504</ele>
        <time>2020-02-07T12:26:49.000Z</time>
      </trkpt>
      <trkpt lat="44.78004" lon="5.05357">
        <ele>504</ele>
        <time>2020-02-07T12:26:50.000Z</time>
      </trkpt>
      <trkpt lat="44.78004" lon="5.05358">
        <ele>504</ele>
        <time>2020-02-07T12:26:51.000Z</time>
      </trkpt>
      <trkpt lat="44.78003" lon="5.05358">
        <ele>504</ele>
        <time>2020-02-07T12:26:52.000Z</time>
      </trkpt>
      <trkpt lat="44.78002" lon="5.05359">
        <ele>504</ele>
        <time>2020-02-07T12:26:53.000Z</time>
      </trkpt>
      <trkpt lat="44.78002" lon="5.0536">
        <ele>504</ele>
        <time>2020-02-07T12:26:54.000Z</time>
      </trkpt>
      <trkpt lat="44.78001" lon="5.05361">
        <ele>504</ele>
        <time>2020-02-07T12:26:55.000Z</time>
      </trkpt>
      <trkpt lat="44.78" lon="5.05362">
        <ele>504</ele>
        <time>2020-02-07T12:26:56.000Z</time>
      </trkpt>
      <trkpt lat="44.78" lon="5.05362">
        <ele>504</ele>
        <time>2020-02-07T12:26:57.000Z</time>
      </trkpt>
      <trkpt lat="44.78" lon="5.05362">
        <ele>504</ele>
        <time>2020-02-07T12:26:58.000Z</time>
      </trkpt>
      <trkpt lat="44.78" lon="5.05363">
        <ele>504</ele>
        <time>2020-02-07T12:26:59.000Z</time>
      </trkpt>
      <trkpt lat="44.77999" lon="5.05364">
        <ele>504</ele>
        <time>2020-02-07T12:27:00.000Z</time>
      </trkpt>
      <trkpt lat="44.77998" lon="5.05365">
        <ele>504</ele>
        <time>2020-02-07T12:27:01.000Z</time>
      </trkpt>
      <trkpt lat="44.77997" lon="5.05365">
        <ele>504</ele>
        <time>2020-02-07T12:27:02.000Z</time>
      </trkpt>
      <trkpt lat="44.77996" lon="5.05366">
        <ele>504</ele>
        <time>2020-02-07T12:27:03.000Z</time>
      </trkpt>
      <trkpt lat="44.77996" lon="5.05367">
        <ele>504</ele>
        <time>2020-02-07T12:27:04.000Z</time>
      </trkpt>
      <trkpt lat="44.77995" lon="5.05367">
        <ele>504</ele>
        <time>2020-02-07T12:27:05.000Z</time>
      </trkpt>
      <trkpt lat="44.77994" lon="5.05368">
        <ele>504</ele>
        <time>2020-02-07T12:27:06.000Z</time>
      </trkpt>
      <trkpt lat="44.77993" lon="5.05369">
        <ele>504</ele>
        <time>2020-02-07T12:27:07.000Z</time>
      </trkpt>
      <trkpt lat="44.77993" lon="5.05369">
        <ele>504</ele>
        <time>2020-02-07T12:27:08.000Z</time>
      </trkpt>
      <trkpt lat="44.77992" lon="5.0537">
        <ele>504</ele>
        <time>2020-02-07T12:27:09.000Z</time>
      </trkpt>
      <trkpt lat="44.77991" lon="5.0537">
        <ele>504</ele>
        <time>2020-02-07T12:27:10.000Z</time>
      </trkpt>
      <trkpt lat="44.7799" lon="5.05371">
        <ele>504</ele>
        <time>2020-02-07T12:27:11.000Z</time>
      </trkpt>
      <trkpt lat="44.7799" lon="5.05371">
        <ele>504</ele>
        <time>2020-02-07T12:27:12.000Z</time>
      </trkpt>
      <trkpt lat="44.77989" lon="5.05372">
        <ele>504</ele>
        <time>2020-02-07T12:27:13.000Z</time>
      </trkpt>
      <trkpt lat="44.77988" lon="5.05372">
        <ele>504</ele>
        <time>2020-02-07T12:27:14.000Z</time>
      </trkpt>
      <trkpt lat="44.77987" lon="5.05373">
        <ele>504</ele>
        <time>2020-02-07T12:27:15.000Z</time>
      </trkpt>
      <trkpt lat="44.77987" lon="5.05373">
        <ele>504</ele>
        <time>2020-02-07T12:27:16.000Z</time>
      </trkpt>
      <trkpt lat="44.77986" lon="5.05373">
        <ele>504</ele>
        <time>2020-02-07T12:27:17.000Z</time>
      </trkpt>
      <trkpt lat="44.77985" lon="5.05374">
        <ele>504</ele>
        <time>2020-02-07T12:27:18.000Z</time>
      </trkpt>
      <trkpt lat="44.77984" lon="5.05374">
        <ele>504</ele>
        <time>2020-02-07T12:27:19.000Z</time>
      </trkpt>
      <trkpt lat="44.77983" lon="5.05374">
        <ele>504</ele>
        <time>2020-02-07T12:27:20.000Z</time>
      </trkpt>
      <trkpt lat="44.77983" lon="5.05374">
        <ele>504</ele>
        <time>2020-02-07T12:27:21.000Z</time>
      </trkpt>
      <trkpt lat="44.77982" lon="5.05374">
        <ele>504</ele>
        <time>2020-02-07T12:27:22.000Z</time>
      </trkpt>
      <trkpt lat="44.77981" lon="5.05375">
        <ele>504</ele>
        <time>2020-02-07T12:27:23.000Z</time>
      </trkpt>
      <trkpt lat="44.7798" lon="5.05375">
        <ele>504</ele>
        <time>2020-02-07T12:27:24.000Z</time>
      </trkpt>
      <trkpt lat="44.77979" lon="5.05375">
        <ele>504</ele>
        <time>2020-02-07T12:27:25.000Z</time>
      </trkpt>
      <trkpt lat="44.77978" lon="5.05376">
        <ele>504</ele>
        <time>2020-02-07T12:27:26.000Z</time>
      </trkpt>
      <trkpt lat="44.77977" lon="5.05376">
        <ele>504</ele>
        <time>2020-02-07T12:27:27.000Z</time>
      </trkpt>
      <trkpt lat="44.77976" lon="5.05376">
        <ele>504</ele>
        <time>2020-02-07T12:27:28.000Z</time>
      </trkpt>
      <trkpt lat="44.77975" lon="5.05376">
        <ele>503</ele>
        <time>2020-02-07T12:27:29.000Z</time>
      </trkpt>
      <trkpt lat="44.77974" lon="5.05377">
        <ele>503</ele>
        <time>2020-02-07T12:27:30.000Z</time>
      </trkpt>
      <trkpt lat="44.77973" lon="5.05377">
        <ele>503</ele>
        <time>2020-02-07T12:27:31.000Z</time>
      </trkpt>
      <trkpt lat="44.77972" lon="5.05377">
        <ele>503</ele>
        <time>2020-02-07T12:27:32.000Z</time>
      </trkpt>
      <trkpt lat="44.77971" lon="5.05378">
        <ele>503</ele>
        <time>2020-02-07T12:27:33.000Z</time>
      </trkpt>
      <trkpt lat="44.77971" lon="5.05378">
        <ele>503</ele>
        <time>2020-02-07T12:27:34.000Z</time>
      </trkpt>
      <trkpt lat="44.7797" lon="5.05378">
        <ele>503</ele>
        <time>2020-02-07T12:27:35.000Z</time>
      </trkpt>
      <trkpt lat="44.77969" lon="5.05378">
        <ele>502</ele>
        <time>2020-02-07T12:27:36.000Z</time>
      </trkpt>
      <trkpt lat="44.77968" lon="5.05378">
        <ele>502</ele>
        <time>2020-02-07T12:27:37.000Z</time>
      </trkpt>
      <trkpt lat="44.77967" lon="5.05378">
        <ele>502</ele>
        <time>2020-02-07T12:27:38.000Z</time>
      </trkpt>
      <trkpt lat="44.77966" lon="5.05379">
        <ele>502</ele>
        <time>2020-02-07T12:27:39.000Z</time>
      </trkpt>
      <trkpt lat="44.77966" lon="5.05379">
        <ele>502</ele>
        <time>2020-02-07T12:27:40.000Z</time>
      </trkpt>
      <trkpt lat="44.77965" lon="5.05379">
        <ele>502</ele>
        <time>2020-02-07T12:27:41.000Z</time>
      </trkpt>
      <trkpt lat="44.77964" lon="5.05379">
        <ele>502</ele>
        <time>2020-02-07T12:27:42.000Z</time>
      </trkpt>
      <trkpt lat="44.77963" lon="5.05379">
        <ele>501</ele>
        <time>2020-02-07T12:27:43.000Z</time>
      </trkpt>
      <trkpt lat="44.77962" lon="5.05379">
        <ele>501</ele>
        <time>2020-02-07T12:27:44.000Z</time>
      </trkpt>
      <trkpt lat="44.77961" lon="5.05379">
        <ele>501</ele>
        <time>2020-02-07T12:27:45.000Z</time>
      </trkpt>
      <trkpt lat="44.7796" lon="5.0538">
        <ele>501</ele>
        <time>2020-02-07T12:27:46.000Z</time>
      </trkpt>
      <trkpt lat="44.77959" lon="5.0538">
        <ele>501</ele>
        <time>2020-02-07T12:27:47.000Z</time>
      </trkpt>
      <trkpt lat="44.77958" lon="5.0538">
        <ele>501</ele>
        <time>2020-02-07T12:27:48.000Z</time>
      </trkpt>
      <trkpt lat="44.77958" lon="5.0538">
        <ele>500</ele>
        <time>2020-02-07T12:27:49.000Z</time>
      </trkpt>
      <trkpt lat="44.77957" lon="5.0538">
        <ele>500</ele>
        <time>2020-02-07T12:27:50.000Z</time>
      </trkpt>
      <trkpt lat="44.77956" lon="5.0538">
        <ele>500</ele>
        <time>2020-02-07T12:27:51.000Z</time>
      </trkpt>
      <trkpt lat="44.77955" lon="5.05381">
        <ele>500</ele>
        <time>2020-02-07T12:27:52.000Z</time>
      </trkpt>
      <trkpt lat="44.77954" lon="5.05381">
        <ele>500</ele>
        <time>2020-02-07T12:27:53.000Z</time>
      </trkpt>
      <trkpt lat="44.77953" lon="5.05381">
        <ele>499</ele>
        <time>2020-02-07T12:27:54.000Z</time>
      </trkpt>
      <trkpt lat="44.77952" lon="5.05381">
        <ele>499</ele>
        <time>2020-02-07T12:27:55.000Z</time>
      </trkpt>
      <trkpt lat="44.77951" lon="5.05381">
        <ele>499</ele>
        <time>2020-02-07T12:27:56.000Z</time>
      </trkpt>
      <trkpt lat="44.7795" lon="5.05381">
        <ele>499</ele>
        <time>2020-02-07T12:27:57.000Z</time>
      </trkpt>
      <trkpt lat="44.7795" lon="5.05381">
        <ele>499</ele>
        <time>2020-02-07T12:27:58.000Z</time>
      </trkpt>
      <trkpt lat="44.77949" lon="5.05381">
        <ele>498</ele>
        <time>2020-02-07T12:27:59.000Z</time>
      </trkpt>
      <trkpt lat="44.77948" lon="5.05381">
        <ele>498</ele>
        <time>2020-02-07T12:28:00.000Z</time>
      </trkpt>
      <trkpt lat="44.77947" lon="5.0538">
        <ele>498</ele>
        <time>2020-02-07T12:28:01.000Z</time>
      </trkpt>
      <trkpt lat="44.77946" lon="5.05381">
        <ele>497</ele>
        <time>2020-02-07T12:28:02.000Z</time>
      </trkpt>
      <trkpt lat="44.77946" lon="5.05381">
        <ele>497</ele>
        <time>2020-02-07T12:28:03.000Z</time>
      </trkpt>
      <trkpt lat="44.77945" lon="5.05381">
        <ele>497</ele>
        <time>2020-02-07T12:28:04.000Z</time>
      </trkpt>
      <trkpt lat="44.77944" lon="5.05381">
        <ele>496</ele>
        <time>2020-02-07T12:28:05.000Z</time>
      </trkpt>
      <trkpt lat="44.77943" lon="5.05381">
        <ele>496</ele>
        <time>2020-02-07T12:28:06.000Z</time>
      </trkpt>
      <trkpt lat="44.77942" lon="5.05381">
        <ele>496</ele>
        <time>2020-02-07T12:28:07.000Z</time>
      </trkpt>
      <trkpt lat="44.77941" lon="5.05381">
        <ele>495</ele>
        <time>2020-02-07T12:28:08.000Z</time>
      </trkpt>
      <trkpt lat="44.7794" lon="5.05381">
        <ele>495</ele>
        <time>2020-02-07T12:28:09.000Z</time>
      </trkpt>
      <trkpt lat="44.7794" lon="5.05381">
        <ele>495</ele>
        <time>2020-02-07T12:28:10.000Z</time>
      </trkpt>
      <trkpt lat="44.77939" lon="5.05381">
        <ele>495</ele>
        <time>2020-02-07T12:28:11.000Z</time>
      </trkpt>
      <trkpt lat="44.77938" lon="5.05382">
        <ele>494</ele>
        <time>2020-02-07T12:28:12.000Z</time>
      </trkpt>
      <trkpt lat="44.77937" lon="5.05382">
        <ele>494</ele>
        <time>2020-02-07T12:28:13.000Z</time>
      </trkpt>
      <trkpt lat="44.77936" lon="5.05382">
        <ele>494</ele>
        <time>2020-02-07T12:28:14.000Z</time>
      </trkpt>
      <trkpt lat="44.77935" lon="5.05382">
        <ele>494</ele>
        <time>2020-02-07T12:28:15.000Z</time>
      </trkpt>
      <trkpt lat="44.77934" lon="5.05382">
        <ele>493</ele>
        <time>2020-02-07T12:28:16.000Z</time>
      </trkpt>
      <trkpt lat="44.77933" lon="5.05382">
        <ele>493</ele>
        <time>2020-02-07T12:28:17.000Z</time>
      </trkpt>
      <trkpt lat="44.77932" lon="5.05382">
        <ele>493</ele>
        <time>2020-02-07T12:28:18.000Z</time>
      </trkpt>
      <trkpt lat="44.77931" lon="5.05382">
        <ele>493</ele>
        <time>2020-02-07T12:28:19.000Z</time>
      </trkpt>
      <trkpt lat="44.7793" lon="5.05382">
        <ele>493</ele>
        <time>2020-02-07T12:28:20.000Z</time>
      </trkpt>
      <trkpt lat="44.77929" lon="5.05381">
        <ele>492</ele>
        <time>2020-02-07T12:28:21.000Z</time>
      </trkpt>
      <trkpt lat="44.77928" lon="5.05381">
        <ele>492</ele>
        <time>2020-02-07T12:28:22.000Z</time>
      </trkpt>
      <trkpt lat="44.77927" lon="5.05381">
        <ele>492</ele>
        <time>2020-02-07T12:28:23.000Z</time>
      </trkpt>
      <trkpt lat="44.77926" lon="5.05381">
        <ele>491</ele>
        <time>2020-02-07T12:28:24.000Z</time>
      </trkpt>
      <trkpt lat="44.77925" lon="5.0538">
        <ele>491</ele>
        <time>2020-02-07T12:28:25.000Z</time>
      </trkpt>
      <trkpt lat="44.77924" lon="5.05379">
        <ele>491</ele>
        <time>2020-02-07T12:28:26.000Z</time>
      </trkpt>
      <trkpt lat="44.77923" lon="5.05379">
        <ele>490</ele>
        <time>2020-02-07T12:28:27.000Z</time>
      </trkpt>
      <trkpt lat="44.77923" lon="5.05378">
        <ele>490</ele>
        <time>2020-02-07T12:28:28.000Z</time>
      </trkpt>
      <trkpt lat="44.77922" lon="5.05378">
        <ele>490</ele>
        <time>2020-02-07T12:28:29.000Z</time>
      </trkpt>
      <trkpt lat="44.77921" lon="5.05378">
        <ele>490</ele>
        <time>2020-02-07T12:28:30.000Z</time>
      </trkpt>
      <trkpt lat="44.7792" lon="5.05377">
        <ele>489</ele>
        <time>2020-02-07T12:28:31.000Z</time>
      </trkpt>
      <trkpt lat="44.77919" lon="5.05376">
        <ele>489</ele>
        <time>2020-02-07T12:28:32.000Z</time>
      </trkpt>
      <trkpt lat="44.77918" lon="5.05376">
        <ele>489</ele>
        <time>2020-02-07T12:28:33.000Z</time>
      </trkpt>
      <trkpt lat="44.77918" lon="5.05375">
        <ele>489</ele>
        <time>2020-02-07T12:28:34.000Z</time>
      </trkpt>
      <trkpt lat="44.77917" lon="5.05375">
        <ele>488</ele>
        <time>2020-02-07T12:28:35.000Z</time>
      </trkpt>
      <trkpt lat="44.77916" lon="5.05374">
        <ele>488</ele>
        <time>2020-02-07T12:28:36.000Z</time>
      </trkpt>
      <trkpt lat="44.77915" lon="5.05374">
        <ele>488</ele>
        <time>2020-02-07T12:28:37.000Z</time>
      </trkpt>
      <trkpt lat="44.77914" lon="5.05373">
        <ele>488</ele>
        <time>2020-02-07T12:28:38.000Z</time>
      </trkpt>
      <trkpt lat="44.77914" lon="5.05372">
        <ele>487</ele>
        <time>2020-02-07T12:28:39.000Z</time>
      </trkpt>
      <trkpt lat="44.77913" lon="5.05372">
        <ele>487</ele>
        <time>2020-02-07T12:28:40.000Z</time>
      </trkpt>
      <trkpt lat="44.77912" lon="5.05371">
        <ele>487</ele>
        <time>2020-02-07T12:28:41.000Z</time>
      </trkpt>
      <trkpt lat="44.77912" lon="5.05371">
        <ele>487</ele>
        <time>2020-02-07T12:28:42.000Z</time>
      </trkpt>
      <trkpt lat="44.77911" lon="5.0537">
        <ele>486</ele>
        <time>2020-02-07T12:28:43.000Z</time>
      </trkpt>
      <trkpt lat="44.7791" lon="5.0537">
        <ele>486</ele>
        <time>2020-02-07T12:28:44.000Z</time>
      </trkpt>
      <trkpt lat="44.77909" lon="5.05369">
        <ele>486</ele>
        <time>2020-02-07T12:28:45.000Z</time>
      </trkpt>
      <trkpt lat="44.77908" lon="5.05369">
        <ele>486</ele>
        <time>2020-02-07T12:28:46.000Z</time>
      </trkpt>
      <trkpt lat="44.77907" lon="5.05368">
        <ele>486</ele>
        <time>2020-02-07T12:28:47.000Z</time>
      </trkpt>
      <trkpt lat="44.77907" lon="5.05368">
        <ele>486</ele>
        <time>2020-02-07T12:28:48.000Z</time>
      </trkpt>
      <trkpt lat="44.77906" lon="5.05367">
        <ele>485</ele>
        <time>2020-02-07T12:28:49.000Z</time>
      </trkpt>
      <trkpt lat="44.77905" lon="5.05367">
        <ele>485</ele>
        <time>2020-02-07T12:28:50.000Z</time>
      </trkpt>
      <trkpt lat="44.77905" lon="5.05367">
        <ele>485</ele>
        <time>2020-02-07T12:28:51.000Z</time>
      </trkpt>
      <trkpt lat="44.77904" lon="5.05367">
        <ele>485</ele>
        <time>2020-02-07T12:28:52.000Z</time>
      </trkpt>
      <trkpt lat="44.77903" lon="5.05366">
        <ele>485</ele>
        <time>2020-02-07T12:28:53.000Z</time>
      </trkpt>
      <trkpt lat="44.77903" lon="5.05366">
        <ele>485</ele>
        <time>2020-02-07T12:28:54.000Z</time>
      </trkpt>
      <trkpt lat="44.77902" lon="5.05366">
        <ele>484</ele>
        <time>2020-02-07T12:28:55.000Z</time>
      </trkpt>
      <trkpt lat="44.77901" lon="5.05366">
        <ele>484</ele>
        <time>2020-02-07T12:28:56.000Z</time>
      </trkpt>
      <trkpt lat="44.779" lon="5.05366">
        <ele>484</ele>
        <time>2020-02-07T12:28:57.000Z</time>
      </trkpt>
      <trkpt lat="44.779" lon="5.05366">
        <ele>484</ele>
        <time>2020-02-07T12:28:58.000Z</time>
      </trkpt>
      <trkpt lat="44.77899" lon="5.05366">
        <ele>484</ele>
        <time>2020-02-07T12:28:59.000Z</time>
      </trkpt>
      <trkpt lat="44.77898" lon="5.05366">
        <ele>484</ele>
        <time>2020-02-07T12:29:00.000Z</time>
      </trkpt>
      <trkpt lat="44.77898" lon="5.05367">
        <ele>483</ele>
        <time>2020-02-07T12:29:01.000Z</time>
      </trkpt>
      <trkpt lat="44.77897" lon="5.05366">
        <ele>483</ele>
        <time>2020-02-07T12:29:02.000Z</time>
      </trkpt>
      <trkpt lat="44.77896" lon="5.05366">
        <ele>483</ele>
        <time>2020-02-07T12:29:03.000Z</time>
      </trkpt>
      <trkpt lat="44.77896" lon="5.05367">
        <ele>483</ele>
        <time>2020-02-07T12:29:04.000Z</time>
      </trkpt>
      <trkpt lat="44.77895" lon="5.05367">
        <ele>483</ele>
        <time>2020-02-07T12:29:05.000Z</time>
      </trkpt>
      <trkpt lat="44.77895" lon="5.05367">
        <ele>483</ele>
        <time>2020-02-07T12:29:06.000Z</time>
      </trkpt>
      <trkpt lat="44.77894" lon="5.05367">
        <ele>483</ele>
        <time>2020-02-07T12:29:07.000Z</time>
      </trkpt>
      <trkpt lat="44.77893" lon="5.05367">
        <ele>483</ele>
        <time>2020-02-07T12:29:08.000Z</time>
      </trkpt>
      <trkpt lat="44.77892" lon="5.05367">
        <ele>483</ele>
        <time>2020-02-07T12:29:09.000Z</time>
      </trkpt>
      <trkpt lat="44.77892" lon="5.05367">
        <ele>483</ele>
        <time>2020-02-07T12:29:10.000Z</time>
      </trkpt>
      <trkpt lat="44.77891" lon="5.05368">
        <ele>483</ele>
        <time>2020-02-07T12:29:11.000Z</time>
      </trkpt>
      <trkpt lat="44.7789" lon="5.05368">
        <ele>483</ele>
        <time>2020-02-07T12:29:12.000Z</time>
      </trkpt>
      <trkpt lat="44.77889" lon="5.05369">
        <ele>483</ele>
        <time>2020-02-07T12:29:13.000Z</time>
      </trkpt>
      <trkpt lat="44.77888" lon="5.05369">
        <ele>483</ele>
        <time>2020-02-07T12:29:14.000Z</time>
      </trkpt>
      <trkpt lat="44.77887" lon="5.05369">
        <ele>483</ele>
        <time>2020-02-07T12:29:15.000Z</time>
      </trkpt>
      <trkpt lat="44.77887" lon="5.0537">
        <ele>482</ele>
        <time>2020-02-07T12:29:16.000Z</time>
      </trkpt>
      <trkpt lat="44.77886" lon="5.0537">
        <ele>482</ele>
        <time>2020-02-07T12:29:17.000Z</time>
      </trkpt>
      <trkpt lat="44.77885" lon="5.05371">
        <ele>482</ele>
        <time>2020-02-07T12:29:18.000Z</time>
      </trkpt>
      <trkpt lat="44.77884" lon="5.05371">
        <ele>482</ele>
        <time>2020-02-07T12:29:19.000Z</time>
      </trkpt>
      <trkpt lat="44.77883" lon="5.05371">
        <ele>482</ele>
        <time>2020-02-07T12:29:20.000Z</time>
      </trkpt>
      <trkpt lat="44.77882" lon="5.05371">
        <ele>482</ele>
        <time>2020-02-07T12:29:21.000Z</time>
      </trkpt>
      <trkpt lat="44.77881" lon="5.05371">
        <ele>482</ele>
        <time>2020-02-07T12:29:22.000Z</time>
      </trkpt>
      <trkpt lat="44.7788" lon="5.05372">
        <ele>482</ele>
        <time>2020-02-07T12:29:23.000Z</time>
      </trkpt>
      <trkpt lat="44.77879" lon="5.05372">
        <ele>482</ele>
        <time>2020-02-07T12:29:24.000Z</time>
      </trkpt>
      <trkpt lat="44.77878" lon="5.05372">
        <ele>482</ele>
        <time>2020-02-07T12:29:25.000Z</time>
      </trkpt>
      <trkpt lat="44.77877" lon="5.05373">
        <ele>482</ele>
        <time>2020-02-07T12:29:26.000Z</time>
      </trkpt>
      <trkpt lat="44.77876" lon="5.05373">
        <ele>482</ele>
        <time>2020-02-07T12:29:27.000Z</time>
      </trkpt>
      <trkpt lat="44.77875" lon="5.05373">
        <ele>482</ele>
        <time>2020-02-07T12:29:28.000Z</time>
      </trkpt>
      <trkpt lat="44.77875" lon="5.05374">
        <ele>482</ele>
        <time>2020-02-07T12:29:29.000Z</time>
      </trkpt>
      <trkpt lat="44.77874" lon="5.05374">
        <ele>482</ele>
        <time>2020-02-07T12:29:30.000Z</time>
      </trkpt>
      <trkpt lat="44.77873" lon="5.05374">
        <ele>483</ele>
        <time>2020-02-07T12:29:31.000Z</time>
      </trkpt>
      <trkpt lat="44.77872" lon="5.05374">
        <ele>483</ele>
        <time>2020-02-07T12:29:32.000Z</time>
      </trkpt>
      <trkpt lat="44.77871" lon="5.05374">
        <ele>482</ele>
        <time>2020-02-07T12:29:33.000Z</time>
      </trkpt>
      <trkpt lat="44.7787" lon="5.05374">
        <ele>482</ele>
        <time>2020-02-07T12:29:34.000Z</time>
      </trkpt>
      <trkpt lat="44.77869" lon="5.05375">
        <ele>482</ele>
        <time>2020-02-07T12:29:35.000Z</time>
      </trkpt>
      <trkpt lat="44.77869" lon="5.05374">
        <ele>482</ele>
        <time>2020-02-07T12:29:36.000Z</time>
      </trkpt>
      <trkpt lat="44.77868" lon="5.05375">
        <ele>482</ele>
        <time>2020-02-07T12:29:37.000Z</time>
      </trkpt>
      <trkpt lat="44.77867" lon="5.05375">
        <ele>483</ele>
        <time>2020-02-07T12:29:38.000Z</time>
      </trkpt>
      <trkpt lat="44.77866" lon="5.05375">
        <ele>483</ele>
        <time>2020-02-07T12:29:39.000Z</time>
      </trkpt>
      <trkpt lat="44.77865" lon="5.05375">
        <ele>482</ele>
        <time>2020-02-07T12:29:40.000Z</time>
      </trkpt>
      <trkpt lat="44.77865" lon="5.05375">
        <ele>482</ele>
        <time>2020-02-07T12:29:41.000Z</time>
      </trkpt>
      <trkpt lat="44.77864" lon="5.05375">
        <ele>482</ele>
        <time>2020-02-07T12:29:42.000Z</time>
      </trkpt>
      <trkpt lat="44.77863" lon="5.05376">
        <ele>482</ele>
        <time>2020-02-07T12:29:43.000Z</time>
      </trkpt>
      <trkpt lat="44.77862" lon="5.05376">
        <ele>482</ele>
        <time>2020-02-07T12:29:44.000Z</time>
      </trkpt>
      <trkpt lat="44.77861" lon="5.05376">
        <ele>482</ele>
        <time>2020-02-07T12:29:45.000Z</time>
      </trkpt>
      <trkpt lat="44.7786" lon="5.05376">
        <ele>482</ele>
        <time>2020-02-07T12:29:46.000Z</time>
      </trkpt>
      <trkpt lat="44.7786" lon="5.05377">
        <ele>482</ele>
        <time>2020-02-07T12:29:47.000Z</time>
      </trkpt>
      <trkpt lat="44.77858" lon="5.05377">
        <ele>482</ele>
        <time>2020-02-07T12:29:48.000Z</time>
      </trkpt>
      <trkpt lat="44.77858" lon="5.05378">
        <ele>482</ele>
        <time>2020-02-07T12:29:49.000Z</time>
      </trkpt>
      <trkpt lat="44.77857" lon="5.05378">
        <ele>482</ele>
        <time>2020-02-07T12:29:50.000Z</time>
      </trkpt>
      <trkpt lat="44.77856" lon="5.05378">
        <ele>481</ele>
        <time>2020-02-07T12:29:51.000Z</time>
      </trkpt>
      <trkpt lat="44.77855" lon="5.05379">
        <ele>481</ele>
        <time>2020-02-07T12:29:52.000Z</time>
      </trkpt>
      <trkpt lat="44.77854" lon="5.05379">
        <ele>481</ele>
        <time>2020-02-07T12:29:53.000Z</time>
      </trkpt>
      <trkpt lat="44.77853" lon="5.0538">
        <ele>481</ele>
        <time>2020-02-07T12:29:54.000Z</time>
      </trkpt>
      <trkpt lat="44.77852" lon="5.0538">
        <ele>481</ele>
        <time>2020-02-07T12:29:55.000Z</time>
      </trkpt>
      <trkpt lat="44.77851" lon="5.05381">
        <ele>481</ele>
        <time>2020-02-07T12:29:56.000Z</time>
      </trkpt>
      <trkpt lat="44.77849" lon="5.05382">
        <ele>481</ele>
        <time>2020-02-07T12:29:57.000Z</time>
      </trkpt>
      <trkpt lat="44.77848" lon="5.05382">
        <ele>481</ele>
        <time>2020-02-07T12:29:58.000Z</time>
      </trkpt>
      <trkpt lat="44.77847" lon="5.05383">
        <ele>481</ele>
        <time>2020-02-07T12:29:59.000Z</time>
      </trkpt>
      <trkpt lat="44.77846" lon="5.05383">
        <ele>481</ele>
        <time>2020-02-07T12:30:00.000Z</time>
      </trkpt>
      <trkpt lat="44.77845" lon="5.05383">
        <ele>481</ele>
        <time>2020-02-07T12:30:01.000Z</time>
      </trkpt>
      <trkpt lat="44.77844" lon="5.05384">
        <ele>481</ele>
        <time>2020-02-07T12:30:02.000Z</time>
      </trkpt>
      <trkpt lat="44.77843" lon="5.05384">
        <ele>481</ele>
        <time>2020-02-07T12:30:03.000Z</time>
      </trkpt>
      <trkpt lat="44.77842" lon="5.05384">
        <ele>481</ele>
        <time>2020-02-07T12:30:04.000Z</time>
      </trkpt>
      <trkpt lat="44.77841" lon="5.05384">
        <ele>481</ele>
        <time>2020-02-07T12:30:05.000Z</time>
      </trkpt>
      <trkpt lat="44.7784" lon="5.05384">
        <ele>481</ele>
        <time>2020-02-07T12:30:06.000Z</time>
      </trkpt>
      <trkpt lat="44.77839" lon="5.05385">
        <ele>481</ele>
        <time>2020-02-07T12:30:07.000Z</time>
      </trkpt>
      <trkpt lat="44.77838" lon="5.05385">
        <ele>481</ele>
        <time>2020-02-07T12:30:08.000Z</time>
      </trkpt>
      <trkpt lat="44.77837" lon="5.05385">
        <ele>480</ele>
        <time>2020-02-07T12:30:09.000Z</time>
      </trkpt>
      <trkpt lat="44.77836" lon="5.05384">
        <ele>480</ele>
        <time>2020-02-07T12:30:10.000Z</time>
      </trkpt>
      <trkpt lat="44.77835" lon="5.05384">
        <ele>480</ele>
        <time>2020-02-07T12:30:11.000Z</time>
      </trkpt>
      <trkpt lat="44.77833" lon="5.05385">
        <ele>480</ele>
        <time>2020-02-07T12:30:12.000Z</time>
      </trkpt>
      <trkpt lat="44.77833" lon="5.05385">
        <ele>480</ele>
        <time>2020-02-07T12:30:13.000Z</time>
      </trkpt>
      <trkpt lat="44.77832" lon="5.05384">
        <ele>480</ele>
        <time>2020-02-07T12:30:14.000Z</time>
      </trkpt>
      <trkpt lat="44.77831" lon="5.05384">
        <ele>480</ele>
        <time>2020-02-07T12:30:15.000Z</time>
      </trkpt>
      <trkpt lat="44.7783" lon="5.05384">
        <ele>480</ele>
        <time>2020-02-07T12:30:16.000Z</time>
      </trkpt>
      <trkpt lat="44.77829" lon="5.05383">
        <ele>480</ele>
        <time>2020-02-07T12:30:17.000Z</time>
      </trkpt>
      <trkpt lat="44.77828" lon="5.05383">
        <ele>480</ele>
        <time>2020-02-07T12:30:18.000Z</time>
      </trkpt>
      <trkpt lat="44.77826" lon="5.05383">
        <ele>479</ele>
        <time>2020-02-07T12:30:19.000Z</time>
      </trkpt>
      <trkpt lat="44.77825" lon="5.05383">
        <ele>479</ele>
        <time>2020-02-07T12:30:20.000Z</time>
      </trkpt>
      <trkpt lat="44.77824" lon="5.05382">
        <ele>479</ele>
        <time>2020-02-07T12:30:21.000Z</time>
      </trkpt>
      <trkpt lat="44.77823" lon="5.05382">
        <ele>479</ele>
        <time>2020-02-07T12:30:22.000Z</time>
      </trkpt>
      <trkpt lat="44.77822" lon="5.05382">
        <ele>479</ele>
        <time>2020-02-07T12:30:23.000Z</time>
      </trkpt>
      <trkpt lat="44.77821" lon="5.05382">
        <ele>479</ele>
        <time>2020-02-07T12:30:24.000Z</time>
      </trkpt>
      <trkpt lat="44.7782" lon="5.05381">
        <ele>478</ele>
        <time>2020-02-07T12:30:25.000Z</time>
      </trkpt>
      <trkpt lat="44.77819" lon="5.05381">
        <ele>478</ele>
        <time>2020-02-07T12:30:26.000Z</time>
      </trkpt>
      <trkpt lat="44.77818" lon="5.0538">
        <ele>478</ele>
        <time>2020-02-07T12:30:27.000Z</time>
      </trkpt>
      <trkpt lat="44.77817" lon="5.0538">
        <ele>477</ele>
        <time>2020-02-07T12:30:28.000Z</time>
      </trkpt>
      <trkpt lat="44.77816" lon="5.0538">
        <ele>477</ele>
        <time>2020-02-07T12:30:29.000Z</time>
      </trkpt>
      <trkpt lat="44.77814" lon="5.0538">
        <ele>477</ele>
        <time>2020-02-07T12:30:30.000Z</time>
      </trkpt>
      <trkpt lat="44.77813" lon="5.05381">
        <ele>477</ele>
        <time>2020-02-07T12:30:31.000Z</time>
      </trkpt>
      <trkpt lat="44.77812" lon="5.05381">
        <ele>476</ele>
        <time>2020-02-07T12:30:32.000Z</time>
      </trkpt>
      <trkpt lat="44.77811" lon="5.0538">
        <ele>476</ele>
        <time>2020-02-07T12:30:33.000Z</time>
      </trkpt>
      <trkpt lat="44.7781" lon="5.0538">
        <ele>476</ele>
        <time>2020-02-07T12:30:34.000Z</time>
      </trkpt>
      <trkpt lat="44.77809" lon="5.0538">
        <ele>476</ele>
        <time>2020-02-07T12:30:35.000Z</time>
      </trkpt>
      <trkpt lat="44.77808" lon="5.0538">
        <ele>475</ele>
        <time>2020-02-07T12:30:36.000Z</time>
      </trkpt>
      <trkpt lat="44.77807" lon="5.0538">
        <ele>475</ele>
        <time>2020-02-07T12:30:37.000Z</time>
      </trkpt>
      <trkpt lat="44.77806" lon="5.0538">
        <ele>475</ele>
        <time>2020-02-07T12:30:38.000Z</time>
      </trkpt>
      <trkpt lat="44.77805" lon="5.0538">
        <ele>475</ele>
        <time>2020-02-07T12:30:39.000Z</time>
      </trkpt>
      <trkpt lat="44.77804" lon="5.0538">
        <ele>474</ele>
        <time>2020-02-07T12:30:40.000Z</time>
      </trkpt>
      <trkpt lat="44.77802" lon="5.0538">
        <ele>474</ele>
        <time>2020-02-07T12:30:41.000Z</time>
      </trkpt>
      <trkpt lat="44.77801" lon="5.0538">
        <ele>474</ele>
        <time>2020-02-07T12:30:42.000Z</time>
      </trkpt>
      <trkpt lat="44.778" lon="5.05381">
        <ele>474</ele>
        <time>2020-02-07T12:30:43.000Z</time>
      </trkpt>
      <trkpt lat="44.77799" lon="5.05381">
        <ele>474</ele>
        <time>2020-02-07T12:30:44.000Z</time>
      </trkpt>
      <trkpt lat="44.77798" lon="5.05382">
        <ele>474</ele>
        <time>2020-02-07T12:30:45.000Z</time>
      </trkpt>
      <trkpt lat="44.77797" lon="5.05382">
        <ele>474</ele>
        <time>2020-02-07T12:30:46.000Z</time>
      </trkpt>
      <trkpt lat="44.77796" lon="5.05383">
        <ele>474</ele>
        <time>2020-02-07T12:30:47.000Z</time>
      </trkpt>
      <trkpt lat="44.77795" lon="5.05383">
        <ele>474</ele>
        <time>2020-02-07T12:30:48.000Z</time>
      </trkpt>
      <trkpt lat="44.77794" lon="5.05383">
        <ele>474</ele>
        <time>2020-02-07T12:30:49.000Z</time>
      </trkpt>
      <trkpt lat="44.77793" lon="5.05383">
        <ele>473</ele>
        <time>2020-02-07T12:30:50.000Z</time>
      </trkpt>
      <trkpt lat="44.77792" lon="5.05383">
        <ele>473</ele>
        <time>2020-02-07T12:30:51.000Z</time>
      </trkpt>
      <trkpt lat="44.77791" lon="5.05383">
        <ele>473</ele>
        <time>2020-02-07T12:30:52.000Z</time>
      </trkpt>
      <trkpt lat="44.7779" lon="5.05383">
        <ele>473</ele>
        <time>2020-02-07T12:30:53.000Z</time>
      </trkpt>
      <trkpt lat="44.77789" lon="5.05383">
        <ele>473</ele>
        <time>2020-02-07T12:30:54.000Z</time>
      </trkpt>
      <trkpt lat="44.77788" lon="5.05384">
        <ele>473</ele>
        <time>2020-02-07T12:30:55.000Z</time>
      </trkpt>
      <trkpt lat="44.77786" lon="5.05384">
        <ele>473</ele>
        <time>2020-02-07T12:30:56.000Z</time>
      </trkpt>
      <trkpt lat="44.77785" lon="5.05384">
        <ele>473</ele>
        <time>2020-02-07T12:30:57.000Z</time>
      </trkpt>
      <trkpt lat="44.77784" lon="5.05384">
        <ele>473</ele>
        <time>2020-02-07T12:30:58.000Z</time>
      </trkpt>
      <trkpt lat="44.77783" lon="5.05385">
        <ele>473</ele>
        <time>2020-02-07T12:30:59.000Z</time>
      </trkpt>
      <trkpt lat="44.77782" lon="5.05385">
        <ele>473</ele>
        <time>2020-02-07T12:31:00.000Z</time>
      </trkpt>
      <trkpt lat="44.77781" lon="5.05385">
        <ele>473</ele>
        <time>2020-02-07T12:31:01.000Z</time>
      </trkpt>
      <trkpt lat="44.7778" lon="5.05385">
        <ele>473</ele>
        <time>2020-02-07T12:31:02.000Z</time>
      </trkpt>
      <trkpt lat="44.77779" lon="5.05385">
        <ele>473</ele>
        <time>2020-02-07T12:31:03.000Z</time>
      </trkpt>
      <trkpt lat="44.77778" lon="5.05385">
        <ele>473</ele>
        <time>2020-02-07T12:31:04.000Z</time>
      </trkpt>
      <trkpt lat="44.77777" lon="5.05385">
        <ele>473</ele>
        <time>2020-02-07T12:31:05.000Z</time>
      </trkpt>
      <trkpt lat="44.77776" lon="5.05385">
        <ele>473</ele>
        <time>2020-02-07T12:31:06.000Z</time>
      </trkpt>
      <trkpt lat="44.77775" lon="5.05385">
        <ele>473</ele>
        <time>2020-02-07T12:31:07.000Z</time>
      </trkpt>
      <trkpt lat="44.77774" lon="5.05386">
        <ele>473</ele>
        <time>2020-02-07T12:31:08.000Z</time>
      </trkpt>
      <trkpt lat="44.77773" lon="5.05386">
        <ele>473</ele>
        <time>2020-02-07T12:31:09.000Z</time>
      </trkpt>
      <trkpt lat="44.77771" lon="5.05386">
        <ele>473</ele>
        <time>2020-02-07T12:31:10.000Z</time>
      </trkpt>
      <trkpt lat="44.77771" lon="5.05386">
        <ele>473</ele>
        <time>2020-02-07T12:31:11.000Z</time>
      </trkpt>
      <trkpt lat="44.77769" lon="5.05386">
        <ele>473</ele>
        <time>2020-02-07T12:31:12.000Z</time>
      </trkpt>
      <trkpt lat="44.77768" lon="5.05386">
        <ele>473</ele>
        <time>2020-02-07T12:31:13.000Z</time>
      </trkpt>
      <trkpt lat="44.77767" lon="5.05387">
        <ele>473</ele>
        <time>2020-02-07T12:31:14.000Z</time>
      </trkpt>
      <trkpt lat="44.77766" lon="5.05387">
        <ele>473</ele>
        <time>2020-02-07T12:31:15.000Z</time>
      </trkpt>
      <trkpt lat="44.77765" lon="5.05388">
        <ele>473</ele>
        <time>2020-02-07T12:31:16.000Z</time>
      </trkpt>
      <trkpt lat="44.77764" lon="5.05388">
        <ele>473</ele>
        <time>2020-02-07T12:31:17.000Z</time>
      </trkpt>
      <trkpt lat="44.77763" lon="5.05389">
        <ele>473</ele>
        <time>2020-02-07T12:31:18.000Z</time>
      </trkpt>
      <trkpt lat="44.77762" lon="5.05389">
        <ele>473</ele>
        <time>2020-02-07T12:31:19.000Z</time>
      </trkpt>
      <trkpt lat="44.77761" lon="5.05389">
        <ele>473</ele>
        <time>2020-02-07T12:31:20.000Z</time>
      </trkpt>
      <trkpt lat="44.7776" lon="5.05389">
        <ele>473</ele>
        <time>2020-02-07T12:31:21.000Z</time>
      </trkpt>
      <trkpt lat="44.77759" lon="5.05389">
        <ele>473</ele>
        <time>2020-02-07T12:31:22.000Z</time>
      </trkpt>
      <trkpt lat="44.77758" lon="5.0539">
        <ele>473</ele>
        <time>2020-02-07T12:31:23.000Z</time>
      </trkpt>
      <trkpt lat="44.77757" lon="5.0539">
        <ele>473</ele>
        <time>2020-02-07T12:31:24.000Z</time>
      </trkpt>
      <trkpt lat="44.77756" lon="5.0539">
        <ele>473</ele>
        <time>2020-02-07T12:31:25.000Z</time>
      </trkpt>
      <trkpt lat="44.77754" lon="5.05391">
        <ele>473</ele>
        <time>2020-02-07T12:31:26.000Z</time>
      </trkpt>
      <trkpt lat="44.77753" lon="5.05391">
        <ele>473</ele>
        <time>2020-02-07T12:31:27.000Z</time>
      </trkpt>
      <trkpt lat="44.77752" lon="5.05391">
        <ele>473</ele>
        <time>2020-02-07T12:31:28.000Z</time>
      </trkpt>
      <trkpt lat="44.77751" lon="5.05391">
        <ele>473</ele>
        <time>2020-02-07T12:31:29.000Z</time>
      </trkpt>
      <trkpt lat="44.77751" lon="5.05391">
        <ele>472</ele>
        <time>2020-02-07T12:31:30.000Z</time>
      </trkpt>
      <trkpt lat="44.77749" lon="5.05391">
        <ele>472</ele>
        <time>2020-02-07T12:31:31.000Z</time>
      </trkpt>
      <trkpt lat="44.77748" lon="5.05391">
        <ele>472</ele>
        <time>2020-02-07T12:31:32.000Z</time>
      </trkpt>
      <trkpt lat="44.77747" lon="5.05391">
        <ele>472</ele>
        <time>2020-02-07T12:31:33.000Z</time>
      </trkpt>
      <trkpt lat="44.77746" lon="5.05391">
        <ele>472</ele>
        <time>2020-02-07T12:31:34.000Z</time>
      </trkpt>
      <trkpt lat="44.77745" lon="5.05391">
        <ele>471</ele>
        <time>2020-02-07T12:31:35.000Z</time>
      </trkpt>
      <trkpt lat="44.77744" lon="5.05391">
        <ele>471</ele>
        <time>2020-02-07T12:31:36.000Z</time>
      </trkpt>
      <trkpt lat="44.77742" lon="5.05391">
        <ele>471</ele>
        <time>2020-02-07T12:31:37.000Z</time>
      </trkpt>
      <trkpt lat="44.77741" lon="5.0539">
        <ele>471</ele>
        <time>2020-02-07T12:31:38.000Z</time>
      </trkpt>
      <trkpt lat="44.7774" lon="5.0539">
        <ele>470</ele>
        <time>2020-02-07T12:31:39.000Z</time>
      </trkpt>
      <trkpt lat="44.77739" lon="5.05389">
        <ele>470</ele>
        <time>2020-02-07T12:31:40.000Z</time>
      </trkpt>
      <trkpt lat="44.77738" lon="5.05389">
        <ele>469</ele>
        <time>2020-02-07T12:31:41.000Z</time>
      </trkpt>
      <trkpt lat="44.77737" lon="5.05389">
        <ele>469</ele>
        <time>2020-02-07T12:31:42.000Z</time>
      </trkpt>
      <trkpt lat="44.77735" lon="5.05389">
        <ele>468</ele>
        <time>2020-02-07T12:31:43.000Z</time>
      </trkpt>
      <trkpt lat="44.77734" lon="5.05388">
        <ele>468</ele>
        <time>2020-02-07T12:31:44.000Z</time>
      </trkpt>
      <trkpt lat="44.77733" lon="5.05387">
        <ele>468</ele>
        <time>2020-02-07T12:31:45.000Z</time>
      </trkpt>
      <trkpt lat="44.77731" lon="5.05387">
        <ele>467</ele>
        <time>2020-02-07T12:31:46.000Z</time>
      </trkpt>
      <trkpt lat="44.7773" lon="5.05386">
        <ele>467</ele>
        <time>2020-02-07T12:31:47.000Z</time>
      </trkpt>
      <trkpt lat="44.77729" lon="5.05385">
        <ele>466</ele>
        <time>2020-02-07T12:31:48.000Z</time>
      </trkpt>
      <trkpt lat="44.77728" lon="5.05384">
        <ele>465</ele>
        <time>2020-02-07T12:31:49.000Z</time>
      </trkpt>
      <trkpt lat="44.77727" lon="5.05383">
        <ele>465</ele>
        <time>2020-02-07T12:31:50.000Z</time>
      </trkpt>
      <trkpt lat="44.77727" lon="5.05381">
        <ele>464</ele>
        <time>2020-02-07T12:31:51.000Z</time>
      </trkpt>
      <trkpt lat="44.77726" lon="5.0538">
        <ele>464</ele>
        <time>2020-02-07T12:31:52.000Z</time>
      </trkpt>
      <trkpt lat="44.77725" lon="5.05378">
        <ele>463</ele>
        <time>2020-02-07T12:31:53.000Z</time>
      </trkpt>
      <trkpt lat="44.77725" lon="5.05376">
        <ele>463</ele>
        <time>2020-02-07T12:31:54.000Z</time>
      </trkpt>
      <trkpt lat="44.77724" lon="5.05375">
        <ele>462</ele>
        <time>2020-02-07T12:31:55.000Z</time>
      </trkpt>
      <trkpt lat="44.77724" lon="5.05373">
        <ele>462</ele>
        <time>2020-02-07T12:31:56.000Z</time>
      </trkpt>
      <trkpt lat="44.77723" lon="5.05371">
        <ele>461</ele>
        <time>2020-02-07T12:31:57.000Z</time>
      </trkpt>
      <trkpt lat="44.77722" lon="5.0537">
        <ele>461</ele>
        <time>2020-02-07T12:31:58.000Z</time>
      </trkpt>
      <trkpt lat="44.77722" lon="5.05368">
        <ele>461</ele>
        <time>2020-02-07T12:31:59.000Z</time>
      </trkpt>
      <trkpt lat="44.77721" lon="5.05367">
        <ele>460</ele>
        <time>2020-02-07T12:32:00.000Z</time>
      </trkpt>
      <trkpt lat="44.77721" lon="5.05365">
        <ele>460</ele>
        <time>2020-02-07T12:32:01.000Z</time>
      </trkpt>
      <trkpt lat="44.7772" lon="5.05364">
        <ele>460</ele>
        <time>2020-02-07T12:32:02.000Z</time>
      </trkpt>
      <trkpt lat="44.77719" lon="5.05362">
        <ele>460</ele>
        <time>2020-02-07T12:32:03.000Z</time>
      </trkpt>
      <trkpt lat="44.77719" lon="5.05361">
        <ele>459</ele>
        <time>2020-02-07T12:32:04.000Z</time>
      </trkpt>
      <trkpt lat="44.77719" lon="5.0536">
        <ele>459</ele>
        <time>2020-02-07T12:32:05.000Z</time>
      </trkpt>
      <trkpt lat="44.77719" lon="5.05358">
        <ele>459</ele>
        <time>2020-02-07T12:32:06.000Z</time>
      </trkpt>
      <trkpt lat="44.77718" lon="5.05357">
        <ele>459</ele>
        <time>2020-02-07T12:32:07.000Z</time>
      </trkpt>
      <trkpt lat="44.77717" lon="5.05356">
        <ele>458</ele>
        <time>2020-02-07T12:32:08.000Z</time>
      </trkpt>
      <trkpt lat="44.77716" lon="5.05354">
        <ele>458</ele>
        <time>2020-02-07T12:32:09.000Z</time>
      </trkpt>
      <trkpt lat="44.77716" lon="5.05353">
        <ele>458</ele>
        <time>2020-02-07T12:32:10.000Z</time>
      </trkpt>
      <trkpt lat="44.77715" lon="5.05352">
        <ele>458</ele>
        <time>2020-02-07T12:32:11.000Z</time>
      </trkpt>
      <trkpt lat="44.77714" lon="5.05351">
        <ele>458</ele>
        <time>2020-02-07T12:32:12.000Z</time>
      </trkpt>
      <trkpt lat="44.77714" lon="5.05349">
        <ele>457</ele>
        <time>2020-02-07T12:32:13.000Z</time>
      </trkpt>
      <trkpt lat="44.77714" lon="5.05348">
        <ele>457</ele>
        <time>2020-02-07T12:32:14.000Z</time>
      </trkpt>
      <trkpt lat="44.77713" lon="5.05346">
        <ele>457</ele>
        <time>2020-02-07T12:32:15.000Z</time>
      </trkpt>
      <trkpt lat="44.77713" lon="5.05345">
        <ele>457</ele>
        <time>2020-02-07T12:32:16.000Z</time>
      </trkpt>
      <trkpt lat="44.77712" lon="5.05344">
        <ele>457</ele>
        <time>2020-02-07T12:32:17.000Z</time>
      </trkpt>
      <trkpt lat="44.77711" lon="5.05343">
        <ele>457</ele>
        <time>2020-02-07T12:32:18.000Z</time>
      </trkpt>
      <trkpt lat="44.77711" lon="5.05342">
        <ele>456</ele>
        <time>2020-02-07T12:32:19.000Z</time>
      </trkpt>
      <trkpt lat="44.7771" lon="5.0534">
        <ele>456</ele>
        <time>2020-02-07T12:32:20.000Z</time>
      </trkpt>
      <trkpt lat="44.77709" lon="5.05339">
        <ele>456</ele>
        <time>2020-02-07T12:32:21.000Z</time>
      </trkpt>
      <trkpt lat="44.77709" lon="5.05338">
        <ele>456</ele>
        <time>2020-02-07T12:32:22.000Z</time>
      </trkpt>
      <trkpt lat="44.77708" lon="5.05337">
        <ele>456</ele>
        <time>2020-02-07T12:32:23.000Z</time>
      </trkpt>
      <trkpt lat="44.77707" lon="5.05335">
        <ele>455</ele>
        <time>2020-02-07T12:32:24.000Z</time>
      </trkpt>
      <trkpt lat="44.77707" lon="5.05334">
        <ele>455</ele>
        <time>2020-02-07T12:32:25.000Z</time>
      </trkpt>
      <trkpt lat="44.77706" lon="5.05333">
        <ele>455</ele>
        <time>2020-02-07T12:32:26.000Z</time>
      </trkpt>
      <trkpt lat="44.77705" lon="5.05332">
        <ele>455</ele>
        <time>2020-02-07T12:32:27.000Z</time>
      </trkpt>
      <trkpt lat="44.77705" lon="5.05331">
        <ele>454</ele>
        <time>2020-02-07T12:32:28.000Z</time>
      </trkpt>
      <trkpt lat="44.77704" lon="5.05329">
        <ele>454</ele>
        <time>2020-02-07T12:32:29.000Z</time>
      </trkpt>
      <trkpt lat="44.77704" lon="5.05328">
        <ele>454</ele>
        <time>2020-02-07T12:32:30.000Z</time>
      </trkpt>
      <trkpt lat="44.77703" lon="5.05326">
        <ele>453</ele>
        <time>2020-02-07T12:32:31.000Z</time>
      </trkpt>
      <trkpt lat="44.77703" lon="5.05325">
        <ele>453</ele>
        <time>2020-02-07T12:32:32.000Z</time>
      </trkpt>
      <trkpt lat="44.77702" lon="5.05324">
        <ele>453</ele>
        <time>2020-02-07T12:32:33.000Z</time>
      </trkpt>
      <trkpt lat="44.77702" lon="5.05323">
        <ele>452</ele>
        <time>2020-02-07T12:32:34.000Z</time>
      </trkpt>
      <trkpt lat="44.77701" lon="5.05321">
        <ele>452</ele>
        <time>2020-02-07T12:32:35.000Z</time>
      </trkpt>
      <trkpt lat="44.77701" lon="5.0532">
        <ele>452</ele>
        <time>2020-02-07T12:32:36.000Z</time>
      </trkpt>
      <trkpt lat="44.777" lon="5.05319">
        <ele>452</ele>
        <time>2020-02-07T12:32:37.000Z</time>
      </trkpt>
      <trkpt lat="44.777" lon="5.05317">
        <ele>452</ele>
        <time>2020-02-07T12:32:38.000Z</time>
      </trkpt>
      <trkpt lat="44.777" lon="5.05316">
        <ele>451</ele>
        <time>2020-02-07T12:32:39.000Z</time>
      </trkpt>
      <trkpt lat="44.77699" lon="5.05315">
        <ele>451</ele>
        <time>2020-02-07T12:32:40.000Z</time>
      </trkpt>
      <trkpt lat="44.77699" lon="5.05314">
        <ele>451</ele>
        <time>2020-02-07T12:32:41.000Z</time>
      </trkpt>
      <trkpt lat="44.77698" lon="5.05313">
        <ele>451</ele>
        <time>2020-02-07T12:32:42.000Z</time>
      </trkpt>
      <trkpt lat="44.77698" lon="5.05312">
        <ele>450</ele>
        <time>2020-02-07T12:32:43.000Z</time>
      </trkpt>
      <trkpt lat="44.77698" lon="5.0531">
        <ele>450</ele>
        <time>2020-02-07T12:32:44.000Z</time>
      </trkpt>
      <trkpt lat="44.77698" lon="5.05309">
        <ele>450</ele>
        <time>2020-02-07T12:32:45.000Z</time>
      </trkpt>
      <trkpt lat="44.77698" lon="5.05307">
        <ele>450</ele>
        <time>2020-02-07T12:32:46.000Z</time>
      </trkpt>
      <trkpt lat="44.77697" lon="5.05306">
        <ele>449</ele>
        <time>2020-02-07T12:32:47.000Z</time>
      </trkpt>
      <trkpt lat="44.77697" lon="5.05305">
        <ele>449</ele>
        <time>2020-02-07T12:32:48.000Z</time>
      </trkpt>
      <trkpt lat="44.77696" lon="5.05304">
        <ele>449</ele>
        <time>2020-02-07T12:32:49.000Z</time>
      </trkpt>
      <trkpt lat="44.77696" lon="5.05303">
        <ele>449</ele>
        <time>2020-02-07T12:32:50.000Z</time>
      </trkpt>
      <trkpt lat="44.77695" lon="5.05301">
        <ele>448</ele>
        <time>2020-02-07T12:32:51.000Z</time>
      </trkpt>
      <trkpt lat="44.77694" lon="5.053">
        <ele>448</ele>
        <time>2020-02-07T12:32:52.000Z</time>
      </trkpt>
      <trkpt lat="44.77694" lon="5.05299">
        <ele>448</ele>
        <time>2020-02-07T12:32:53.000Z</time>
      </trkpt>
      <trkpt lat="44.77693" lon="5.05298">
        <ele>448</ele>
        <time>2020-02-07T12:32:54.000Z</time>
      </trkpt>
      <trkpt lat="44.77693" lon="5.05297">
        <ele>448</ele>
        <time>2020-02-07T12:32:55.000Z</time>
      </trkpt>
      <trkpt lat="44.77692" lon="5.05296">
        <ele>448</ele>
        <time>2020-02-07T12:32:56.000Z</time>
      </trkpt>
      <trkpt lat="44.77691" lon="5.05295">
        <ele>448</ele>
        <time>2020-02-07T12:32:57.000Z</time>
      </trkpt>
      <trkpt lat="44.7769" lon="5.05294">
        <ele>447</ele>
        <time>2020-02-07T12:32:58.000Z</time>
      </trkpt>
      <trkpt lat="44.7769" lon="5.05293">
        <ele>447</ele>
        <time>2020-02-07T12:32:59.000Z</time>
      </trkpt>
      <trkpt lat="44.77689" lon="5.05292">
        <ele>447</ele>
        <time>2020-02-07T12:33:00.000Z</time>
      </trkpt>
      <trkpt lat="44.77688" lon="5.05291">
        <ele>447</ele>
        <time>2020-02-07T12:33:01.000Z</time>
      </trkpt>
      <trkpt lat="44.77688" lon="5.0529">
        <ele>447</ele>
        <time>2020-02-07T12:33:02.000Z</time>
      </trkpt>
      <trkpt lat="44.77687" lon="5.05289">
        <ele>447</ele>
        <time>2020-02-07T12:33:03.000Z</time>
      </trkpt>
      <trkpt lat="44.77686" lon="5.05288">
        <ele>447</ele>
        <time>2020-02-07T12:33:04.000Z</time>
      </trkpt>
      <trkpt lat="44.77686" lon="5.05286">
        <ele>447</ele>
        <time>2020-02-07T12:33:05.000Z</time>
      </trkpt>
      <trkpt lat="44.77685" lon="5.05285">
        <ele>446</ele>
        <time>2020-02-07T12:33:06.000Z</time>
      </trkpt>
      <trkpt lat="44.77685" lon="5.05284">
        <ele>446</ele>
        <time>2020-02-07T12:33:07.000Z</time>
      </trkpt>
      <trkpt lat="44.77684" lon="5.05283">
        <ele>446</ele>
        <time>2020-02-07T12:33:08.000Z</time>
      </trkpt>
      <trkpt lat="44.77684" lon="5.05282">
        <ele>445</ele>
        <time>2020-02-07T12:33:09.000Z</time>
      </trkpt>
      <trkpt lat="44.77683" lon="5.05281">
        <ele>445</ele>
        <time>2020-02-07T12:33:10.000Z</time>
      </trkpt>
      <trkpt lat="44.77682" lon="5.0528">
        <ele>445</ele>
        <time>2020-02-07T12:33:11.000Z</time>
      </trkpt>
      <trkpt lat="44.77681" lon="5.05279">
        <ele>444</ele>
        <time>2020-02-07T12:33:12.000Z</time>
      </trkpt>
      <trkpt lat="44.77681" lon="5.05278">
        <ele>444</ele>
        <time>2020-02-07T12:33:13.000Z</time>
      </trkpt>
      <trkpt lat="44.7768" lon="5.05277">
        <ele>444</ele>
        <time>2020-02-07T12:33:14.000Z</time>
      </trkpt>
      <trkpt lat="44.77679" lon="5.05276">
        <ele>444</ele>
        <time>2020-02-07T12:33:15.000Z</time>
      </trkpt>
      <trkpt lat="44.77679" lon="5.05275">
        <ele>443</ele>
        <time>2020-02-07T12:33:16.000Z</time>
      </trkpt>
      <trkpt lat="44.77678" lon="5.05274">
        <ele>443</ele>
        <time>2020-02-07T12:33:17.000Z</time>
      </trkpt>
      <trkpt lat="44.77678" lon="5.05273">
        <ele>443</ele>
        <time>2020-02-07T12:33:18.000Z</time>
      </trkpt>
      <trkpt lat="44.77677" lon="5.05272">
        <ele>442</ele>
        <time>2020-02-07T12:33:19.000Z</time>
      </trkpt>
      <trkpt lat="44.77676" lon="5.05271">
        <ele>442</ele>
        <time>2020-02-07T12:33:20.000Z</time>
      </trkpt>
      <trkpt lat="44.77676" lon="5.0527">
        <ele>442</ele>
        <time>2020-02-07T12:33:21.000Z</time>
      </trkpt>
      <trkpt lat="44.77675" lon="5.05269">
        <ele>441</ele>
        <time>2020-02-07T12:33:22.000Z</time>
      </trkpt>
      <trkpt lat="44.77674" lon="5.05268">
        <ele>441</ele>
        <time>2020-02-07T12:33:23.000Z</time>
      </trkpt>
      <trkpt lat="44.77674" lon="5.05267">
        <ele>441</ele>
        <time>2020-02-07T12:33:24.000Z</time>
      </trkpt>
      <trkpt lat="44.77673" lon="5.05265">
        <ele>440</ele>
        <time>2020-02-07T12:33:25.000Z</time>
      </trkpt>
      <trkpt lat="44.77673" lon="5.05264">
        <ele>440</ele>
        <time>2020-02-07T12:33:26.000Z</time>
      </trkpt>
      <trkpt lat="44.77672" lon="5.05263">
        <ele>440</ele>
        <time>2020-02-07T12:33:27.000Z</time>
      </trkpt>
      <trkpt lat="44.77671" lon="5.05262">
        <ele>440</ele>
        <time>2020-02-07T12:33:28.000Z</time>
      </trkpt>
      <trkpt lat="44.77671" lon="5.05261">
        <ele>440</ele>
        <time>2020-02-07T12:33:29.000Z</time>
      </trkpt>
      <trkpt lat="44.7767" lon="5.0526">
        <ele>439</ele>
        <time>2020-02-07T12:33:30.000Z</time>
      </trkpt>
      <trkpt lat="44.7767" lon="5.05259">
        <ele>439</ele>
        <time>2020-02-07T12:33:31.000Z</time>
      </trkpt>
      <trkpt lat="44.77669" lon="5.05259">
        <ele>439</ele>
        <time>2020-02-07T12:33:32.000Z</time>
      </trkpt>
      <trkpt lat="44.77669" lon="5.05258">
        <ele>439</ele>
        <time>2020-02-07T12:33:33.000Z</time>
      </trkpt>
      <trkpt lat="44.77668" lon="5.05257">
        <ele>439</ele>
        <time>2020-02-07T12:33:34.000Z</time>
      </trkpt>
      <trkpt lat="44.77668" lon="5.05256">
        <ele>439</ele>
        <time>2020-02-07T12:33:35.000Z</time>
      </trkpt>
      <trkpt lat="44.77668" lon="5.05255">
        <ele>438</ele>
        <time>2020-02-07T12:33:36.000Z</time>
      </trkpt>
      <trkpt lat="44.77667" lon="5.05254">
        <ele>438</ele>
        <time>2020-02-07T12:33:37.000Z</time>
      </trkpt>
      <trkpt lat="44.77667" lon="5.05253">
        <ele>438</ele>
        <time>2020-02-07T12:33:38.000Z</time>
      </trkpt>
      <trkpt lat="44.77666" lon="5.05252">
        <ele>438</ele>
        <time>2020-02-07T12:33:39.000Z</time>
      </trkpt>
      <trkpt lat="44.77666" lon="5.05252">
        <ele>437</ele>
        <time>2020-02-07T12:33:40.000Z</time>
      </trkpt>
      <trkpt lat="44.77666" lon="5.05251">
        <ele>437</ele>
        <time>2020-02-07T12:33:41.000Z</time>
      </trkpt>
      <trkpt lat="44.77665" lon="5.0525">
        <ele>437</ele>
        <time>2020-02-07T12:33:42.000Z</time>
      </trkpt>
      <trkpt lat="44.77665" lon="5.0525">
        <ele>437</ele>
        <time>2020-02-07T12:33:43.000Z</time>
      </trkpt>
      <trkpt lat="44.77664" lon="5.05249">
        <ele>436</ele>
        <time>2020-02-07T12:33:44.000Z</time>
      </trkpt>
      <trkpt lat="44.77664" lon="5.05248">
        <ele>436</ele>
        <time>2020-02-07T12:33:45.000Z</time>
      </trkpt>
      <trkpt lat="44.77663" lon="5.05247">
        <ele>436</ele>
        <time>2020-02-07T12:33:46.000Z</time>
      </trkpt>
      <trkpt lat="44.77663" lon="5.05246">
        <ele>436</ele>
        <time>2020-02-07T12:33:47.000Z</time>
      </trkpt>
      <trkpt lat="44.77663" lon="5.05245">
        <ele>436</ele>
        <time>2020-02-07T12:33:48.000Z</time>
      </trkpt>
      <trkpt lat="44.77662" lon="5.05244">
        <ele>435</ele>
        <time>2020-02-07T12:33:49.000Z</time>
      </trkpt>
      <trkpt lat="44.77661" lon="5.05243">
        <ele>435</ele>
        <time>2020-02-07T12:33:50.000Z</time>
      </trkpt>
      <trkpt lat="44.77661" lon="5.05242">
        <ele>435</ele>
        <time>2020-02-07T12:33:51.000Z</time>
      </trkpt>
      <trkpt lat="44.7766" lon="5.05241">
        <ele>435</ele>
        <time>2020-02-07T12:33:52.000Z</time>
      </trkpt>
      <trkpt lat="44.7766" lon="5.0524">
        <ele>435</ele>
        <time>2020-02-07T12:33:53.000Z</time>
      </trkpt>
      <trkpt lat="44.77659" lon="5.05239">
        <ele>435</ele>
        <time>2020-02-07T12:33:54.000Z</time>
      </trkpt>
      <trkpt lat="44.77659" lon="5.05238">
        <ele>434</ele>
        <time>2020-02-07T12:33:55.000Z</time>
      </trkpt>
      <trkpt lat="44.77658" lon="5.05237">
        <ele>434</ele>
        <time>2020-02-07T12:33:56.000Z</time>
      </trkpt>
      <trkpt lat="44.77657" lon="5.05237">
        <ele>434</ele>
        <time>2020-02-07T12:33:57.000Z</time>
      </trkpt>
      <trkpt lat="44.77656" lon="5.05236">
        <ele>434</ele>
        <time>2020-02-07T12:33:58.000Z</time>
      </trkpt>
      <trkpt lat="44.77656" lon="5.05235">
        <ele>434</ele>
        <time>2020-02-07T12:33:59.000Z</time>
      </trkpt>
      <trkpt lat="44.77655" lon="5.05235">
        <ele>434</ele>
        <time>2020-02-07T12:34:00.000Z</time>
      </trkpt>
      <trkpt lat="44.77655" lon="5.05235">
        <ele>434</ele>
        <time>2020-02-07T12:34:01.000Z</time>
      </trkpt>
      <trkpt lat="44.77655" lon="5.05235">
        <ele>434</ele>
        <time>2020-02-07T12:34:02.000Z</time>
      </trkpt>
      <trkpt lat="44.77654" lon="5.05234">
        <ele>434</ele>
        <time>2020-02-07T12:34:03.000Z</time>
      </trkpt>
      <trkpt lat="44.77653" lon="5.05234">
        <ele>434</ele>
        <time>2020-02-07T12:34:04.000Z</time>
      </trkpt>
      <trkpt lat="44.77652" lon="5.05235">
        <ele>434</ele>
        <time>2020-02-07T12:34:05.000Z</time>
      </trkpt>
      <trkpt lat="44.77651" lon="5.05235">
        <ele>434</ele>
        <time>2020-02-07T12:34:06.000Z</time>
      </trkpt>
      <trkpt lat="44.7765" lon="5.05235">
        <ele>435</ele>
        <time>2020-02-07T12:34:07.000Z</time>
      </trkpt>
      <trkpt lat="44.7765" lon="5.05235">
        <ele>435</ele>
        <time>2020-02-07T12:34:08.000Z</time>
      </trkpt>
      <trkpt lat="44.77649" lon="5.05235">
        <ele>435</ele>
        <time>2020-02-07T12:34:09.000Z</time>
      </trkpt>
      <trkpt lat="44.77648" lon="5.05235">
        <ele>435</ele>
        <time>2020-02-07T12:34:10.000Z</time>
      </trkpt>
      <trkpt lat="44.77647" lon="5.05235">
        <ele>435</ele>
        <time>2020-02-07T12:34:11.000Z</time>
      </trkpt>
      <trkpt lat="44.77646" lon="5.05235">
        <ele>435</ele>
        <time>2020-02-07T12:34:12.000Z</time>
      </trkpt>
      <trkpt lat="44.77645" lon="5.05235">
        <ele>435</ele>
        <time>2020-02-07T12:34:13.000Z</time>
      </trkpt>
      <trkpt lat="44.77644" lon="5.05235">
        <ele>435</ele>
        <time>2020-02-07T12:34:14.000Z</time>
      </trkpt>
      <trkpt lat="44.77643" lon="5.05235">
        <ele>435</ele>
        <time>2020-02-07T12:34:15.000Z</time>
      </trkpt>
      <trkpt lat="44.77642" lon="5.05235">
        <ele>435</ele>
        <time>2020-02-07T12:34:16.000Z</time>
      </trkpt>
      <trkpt lat="44.77641" lon="5.05235">
        <ele>435</ele>
        <time>2020-02-07T12:34:17.000Z</time>
      </trkpt>
      <trkpt lat="44.7764" lon="5.05235">
        <ele>435</ele>
        <time>2020-02-07T12:34:18.000Z</time>
      </trkpt>
      <trkpt lat="44.77639" lon="5.05234">
        <ele>435</ele>
        <time>2020-02-07T12:34:19.000Z</time>
      </trkpt>
      <trkpt lat="44.77639" lon="5.05234">
        <ele>435</ele>
        <time>2020-02-07T12:34:20.000Z</time>
      </trkpt>
      <trkpt lat="44.77638" lon="5.05233">
        <ele>435</ele>
        <time>2020-02-07T12:34:21.000Z</time>
      </trkpt>
      <trkpt lat="44.77637" lon="5.05233">
        <ele>435</ele>
        <time>2020-02-07T12:34:22.000Z</time>
      </trkpt>
      <trkpt lat="44.77636" lon="5.05232">
        <ele>435</ele>
        <time>2020-02-07T12:34:23.000Z</time>
      </trkpt>
      <trkpt lat="44.77635" lon="5.05232">
        <ele>435</ele>
        <time>2020-02-07T12:34:24.000Z</time>
      </trkpt>
      <trkpt lat="44.77634" lon="5.05231">
        <ele>434</ele>
        <time>2020-02-07T12:34:25.000Z</time>
      </trkpt>
      <trkpt lat="44.77634" lon="5.0523">
        <ele>434</ele>
        <time>2020-02-07T12:34:26.000Z</time>
      </trkpt>
      <trkpt lat="44.77633" lon="5.05229">
        <ele>434</ele>
        <time>2020-02-07T12:34:27.000Z</time>
      </trkpt>
      <trkpt lat="44.77632" lon="5.05228">
        <ele>434</ele>
        <time>2020-02-07T12:34:28.000Z</time>
      </trkpt>
      <trkpt lat="44.77631" lon="5.05226">
        <ele>433</ele>
        <time>2020-02-07T12:34:29.000Z</time>
      </trkpt>
      <trkpt lat="44.7763" lon="5.05225">
        <ele>433</ele>
        <time>2020-02-07T12:34:30.000Z</time>
      </trkpt>
      <trkpt lat="44.7763" lon="5.05224">
        <ele>433</ele>
        <time>2020-02-07T12:34:31.000Z</time>
      </trkpt>
      <trkpt lat="44.77629" lon="5.05223">
        <ele>432</ele>
        <time>2020-02-07T12:34:32.000Z</time>
      </trkpt>
      <trkpt lat="44.77628" lon="5.05221">
        <ele>432</ele>
        <time>2020-02-07T12:34:33.000Z</time>
      </trkpt>
      <trkpt lat="44.77627" lon="5.0522">
        <ele>432</ele>
        <time>2020-02-07T12:34:34.000Z</time>
      </trkpt>
      <trkpt lat="44.77626" lon="5.05219">
        <ele>431</ele>
        <time>2020-02-07T12:34:35.000Z</time>
      </trkpt>
      <trkpt lat="44.77625" lon="5.05218">
        <ele>431</ele>
        <time>2020-02-07T12:34:36.000Z</time>
      </trkpt>
      <trkpt lat="44.77624" lon="5.05217">
        <ele>431</ele>
        <time>2020-02-07T12:34:37.000Z</time>
      </trkpt>
      <trkpt lat="44.77624" lon="5.05215">
        <ele>430</ele>
        <time>2020-02-07T12:34:38.000Z</time>
      </trkpt>
      <trkpt lat="44.77623" lon="5.05214">
        <ele>430</ele>
        <time>2020-02-07T12:34:39.000Z</time>
      </trkpt>
      <trkpt lat="44.77622" lon="5.05213">
        <ele>429</ele>
        <time>2020-02-07T12:34:40.000Z</time>
      </trkpt>
      <trkpt lat="44.77621" lon="5.05212">
        <ele>429</ele>
        <time>2020-02-07T12:34:41.000Z</time>
      </trkpt>
      <trkpt lat="44.7762" lon="5.0521">
        <ele>429</ele>
        <time>2020-02-07T12:34:42.000Z</time>
      </trkpt>
      <trkpt lat="44.77619" lon="5.05209">
        <ele>428</ele>
        <time>2020-02-07T12:34:43.000Z</time>
      </trkpt>
      <trkpt lat="44.77618" lon="5.05207">
        <ele>428</ele>
        <time>2020-02-07T12:34:44.000Z</time>
      </trkpt>
      <trkpt lat="44.77618" lon="5.05206">
        <ele>428</ele>
        <time>2020-02-07T12:34:45.000Z</time>
      </trkpt>
      <trkpt lat="44.77617" lon="5.05204">
        <ele>427</ele>
        <time>2020-02-07T12:34:46.000Z</time>
      </trkpt>
      <trkpt lat="44.77616" lon="5.05203">
        <ele>427</ele>
        <time>2020-02-07T12:34:47.000Z</time>
      </trkpt>
      <trkpt lat="44.77615" lon="5.05201">
        <ele>427</ele>
        <time>2020-02-07T12:34:48.000Z</time>
      </trkpt>
      <trkpt lat="44.77615" lon="5.052">
        <ele>426</ele>
        <time>2020-02-07T12:34:49.000Z</time>
      </trkpt>
      <trkpt lat="44.77614" lon="5.05198">
        <ele>426</ele>
        <time>2020-02-07T12:34:50.000Z</time>
      </trkpt>
      <trkpt lat="44.77613" lon="5.05196">
        <ele>426</ele>
        <time>2020-02-07T12:34:51.000Z</time>
      </trkpt>
      <trkpt lat="44.77613" lon="5.05195">
        <ele>426</ele>
        <time>2020-02-07T12:34:52.000Z</time>
      </trkpt>
      <trkpt lat="44.77612" lon="5.05194">
        <ele>426</ele>
        <time>2020-02-07T12:34:53.000Z</time>
      </trkpt>
      <trkpt lat="44.77611" lon="5.05193">
        <ele>425</ele>
        <time>2020-02-07T12:34:54.000Z</time>
      </trkpt>
      <trkpt lat="44.7761" lon="5.05191">
        <ele>425</ele>
        <time>2020-02-07T12:34:55.000Z</time>
      </trkpt>
      <trkpt lat="44.7761" lon="5.0519">
        <ele>425</ele>
        <time>2020-02-07T12:34:56.000Z</time>
      </trkpt>
      <trkpt lat="44.77609" lon="5.05188">
        <ele>425</ele>
        <time>2020-02-07T12:34:57.000Z</time>
      </trkpt>
      <trkpt lat="44.77609" lon="5.05187">
        <ele>425</ele>
        <time>2020-02-07T12:34:58.000Z</time>
      </trkpt>
      <trkpt lat="44.77608" lon="5.05186">
        <ele>424</ele>
        <time>2020-02-07T12:34:59.000Z</time>
      </trkpt>
      <trkpt lat="44.77607" lon="5.05184">
        <ele>424</ele>
        <time>2020-02-07T12:35:00.000Z</time>
      </trkpt>
      <trkpt lat="44.77606" lon="5.05183">
        <ele>424</ele>
        <time>2020-02-07T12:35:01.000Z</time>
      </trkpt>
      <trkpt lat="44.77605" lon="5.05182">
        <ele>424</ele>
        <time>2020-02-07T12:35:02.000Z</time>
      </trkpt>
      <trkpt lat="44.77604" lon="5.05181">
        <ele>424</ele>
        <time>2020-02-07T12:35:03.000Z</time>
      </trkpt>
      <trkpt lat="44.77603" lon="5.0518">
        <ele>424</ele>
        <time>2020-02-07T12:35:04.000Z</time>
      </trkpt>
      <trkpt lat="44.77602" lon="5.05179">
        <ele>424</ele>
        <time>2020-02-07T12:35:05.000Z</time>
      </trkpt>
      <trkpt lat="44.77601" lon="5.05178">
        <ele>424</ele>
        <time>2020-02-07T12:35:06.000Z</time>
      </trkpt>
      <trkpt lat="44.776" lon="5.05177">
        <ele>424</ele>
        <time>2020-02-07T12:35:07.000Z</time>
      </trkpt>
      <trkpt lat="44.77599" lon="5.05176">
        <ele>424</ele>
        <time>2020-02-07T12:35:08.000Z</time>
      </trkpt>
      <trkpt lat="44.77597" lon="5.05176">
        <ele>423</ele>
        <time>2020-02-07T12:35:09.000Z</time>
      </trkpt>
      <trkpt lat="44.77596" lon="5.05175">
        <ele>423</ele>
        <time>2020-02-07T12:35:10.000Z</time>
      </trkpt>
      <trkpt lat="44.77595" lon="5.05174">
        <ele>423</ele>
        <time>2020-02-07T12:35:11.000Z</time>
      </trkpt>
      <trkpt lat="44.77594" lon="5.05172">
        <ele>423</ele>
        <time>2020-02-07T12:35:12.000Z</time>
      </trkpt>
      <trkpt lat="44.77593" lon="5.05171">
        <ele>423</ele>
        <time>2020-02-07T12:35:13.000Z</time>
      </trkpt>
      <trkpt lat="44.77592" lon="5.0517">
        <ele>423</ele>
        <time>2020-02-07T12:35:14.000Z</time>
      </trkpt>
      <trkpt lat="44.77591" lon="5.05169">
        <ele>423</ele>
        <time>2020-02-07T12:35:15.000Z</time>
      </trkpt>
      <trkpt lat="44.7759" lon="5.05168">
        <ele>423</ele>
        <time>2020-02-07T12:35:16.000Z</time>
      </trkpt>
      <trkpt lat="44.77589" lon="5.05167">
        <ele>423</ele>
        <time>2020-02-07T12:35:17.000Z</time>
      </trkpt>
      <trkpt lat="44.77588" lon="5.05166">
        <ele>423</ele>
        <time>2020-02-07T12:35:18.000Z</time>
      </trkpt>
      <trkpt lat="44.77587" lon="5.05164">
        <ele>423</ele>
        <time>2020-02-07T12:35:19.000Z</time>
      </trkpt>
      <trkpt lat="44.77586" lon="5.05163">
        <ele>423</ele>
        <time>2020-02-07T12:35:20.000Z</time>
      </trkpt>
      <trkpt lat="44.77585" lon="5.05162">
        <ele>423</ele>
        <time>2020-02-07T12:35:21.000Z</time>
      </trkpt>
      <trkpt lat="44.77584" lon="5.0516">
        <ele>423</ele>
        <time>2020-02-07T12:35:22.000Z</time>
      </trkpt>
      <trkpt lat="44.77583" lon="5.05159">
        <ele>423</ele>
        <time>2020-02-07T12:35:23.000Z</time>
      </trkpt>
      <trkpt lat="44.77582" lon="5.05158">
        <ele>423</ele>
        <time>2020-02-07T12:35:24.000Z</time>
      </trkpt>
      <trkpt lat="44.77581" lon="5.05157">
        <ele>423</ele>
        <time>2020-02-07T12:35:25.000Z</time>
      </trkpt>
      <trkpt lat="44.7758" lon="5.05156">
        <ele>423</ele>
        <time>2020-02-07T12:35:26.000Z</time>
      </trkpt>
      <trkpt lat="44.77579" lon="5.05155">
        <ele>423</ele>
        <time>2020-02-07T12:35:27.000Z</time>
      </trkpt>
      <trkpt lat="44.77578" lon="5.05154">
        <ele>423</ele>
        <time>2020-02-07T12:35:28.000Z</time>
      </trkpt>
      <trkpt lat="44.77577" lon="5.05153">
        <ele>423</ele>
        <time>2020-02-07T12:35:29.000Z</time>
      </trkpt>
      <trkpt lat="44.77576" lon="5.05152">
        <ele>423</ele>
        <time>2020-02-07T12:35:30.000Z</time>
      </trkpt>
      <trkpt lat="44.77575" lon="5.05151">
        <ele>423</ele>
        <time>2020-02-07T12:35:31.000Z</time>
      </trkpt>
      <trkpt lat="44.77574" lon="5.0515">
        <ele>423</ele>
        <time>2020-02-07T12:35:32.000Z</time>
      </trkpt>
      <trkpt lat="44.77573" lon="5.05149">
        <ele>423</ele>
        <time>2020-02-07T12:35:33.000Z</time>
      </trkpt>
      <trkpt lat="44.77572" lon="5.05148">
        <ele>423</ele>
        <time>2020-02-07T12:35:34.000Z</time>
      </trkpt>
      <trkpt lat="44.77571" lon="5.05147">
        <ele>423</ele>
        <time>2020-02-07T12:35:35.000Z</time>
      </trkpt>
      <trkpt lat="44.7757" lon="5.05146">
        <ele>422</ele>
        <time>2020-02-07T12:35:36.000Z</time>
      </trkpt>
      <trkpt lat="44.77569" lon="5.05146">
        <ele>422</ele>
        <time>2020-02-07T12:35:37.000Z</time>
      </trkpt>
      <trkpt lat="44.77568" lon="5.05145">
        <ele>422</ele>
        <time>2020-02-07T12:35:38.000Z</time>
      </trkpt>
      <trkpt lat="44.77567" lon="5.05144">
        <ele>422</ele>
        <time>2020-02-07T12:35:39.000Z</time>
      </trkpt>
      <trkpt lat="44.77566" lon="5.05144">
        <ele>422</ele>
        <time>2020-02-07T12:35:40.000Z</time>
      </trkpt>
      <trkpt lat="44.77566" lon="5.05143">
        <ele>422</ele>
        <time>2020-02-07T12:35:41.000Z</time>
      </trkpt>
      <trkpt lat="44.77565" lon="5.05142">
        <ele>422</ele>
        <time>2020-02-07T12:35:42.000Z</time>
      </trkpt>
      <trkpt lat="44.77564" lon="5.05141">
        <ele>422</ele>
        <time>2020-02-07T12:35:43.000Z</time>
      </trkpt>
      <trkpt lat="44.77564" lon="5.0514">
        <ele>421</ele>
        <time>2020-02-07T12:35:44.000Z</time>
      </trkpt>
      <trkpt lat="44.77563" lon="5.05139">
        <ele>421</ele>
        <time>2020-02-07T12:35:45.000Z</time>
      </trkpt>
      <trkpt lat="44.77562" lon="5.05138">
        <ele>421</ele>
        <time>2020-02-07T12:35:46.000Z</time>
      </trkpt>
      <trkpt lat="44.77561" lon="5.05137">
        <ele>421</ele>
        <time>2020-02-07T12:35:47.000Z</time>
      </trkpt>
      <trkpt lat="44.7756" lon="5.05135">
        <ele>421</ele>
        <time>2020-02-07T12:35:48.000Z</time>
      </trkpt>
      <trkpt lat="44.77559" lon="5.05134">
        <ele>420</ele>
        <time>2020-02-07T12:35:49.000Z</time>
      </trkpt>
      <trkpt lat="44.77559" lon="5.05133">
        <ele>420</ele>
        <time>2020-02-07T12:35:50.000Z</time>
      </trkpt>
      <trkpt lat="44.77558" lon="5.05132">
        <ele>420</ele>
        <time>2020-02-07T12:35:51.000Z</time>
      </trkpt>
      <trkpt lat="44.77557" lon="5.05131">
        <ele>420</ele>
        <time>2020-02-07T12:35:52.000Z</time>
      </trkpt>
      <trkpt lat="44.77556" lon="5.0513">
        <ele>420</ele>
        <time>2020-02-07T12:35:53.000Z</time>
      </trkpt>
      <trkpt lat="44.77555" lon="5.0513">
        <ele>420</ele>
        <time>2020-02-07T12:35:54.000Z</time>
      </trkpt>
      <trkpt lat="44.77553" lon="5.05129">
        <ele>419</ele>
        <time>2020-02-07T12:35:55.000Z</time>
      </trkpt>
      <trkpt lat="44.77553" lon="5.05127">
        <ele>419</ele>
        <time>2020-02-07T12:35:56.000Z</time>
      </trkpt>
      <trkpt lat="44.77552" lon="5.05126">
        <ele>419</ele>
        <time>2020-02-07T12:35:57.000Z</time>
      </trkpt>
      <trkpt lat="44.77551" lon="5.05125">
        <ele>419</ele>
        <time>2020-02-07T12:35:58.000Z</time>
      </trkpt>
      <trkpt lat="44.7755" lon="5.05124">
        <ele>419</ele>
        <time>2020-02-07T12:35:59.000Z</time>
      </trkpt>
      <trkpt lat="44.77549" lon="5.05122">
        <ele>419</ele>
        <time>2020-02-07T12:36:00.000Z</time>
      </trkpt>
      <trkpt lat="44.77549" lon="5.05121">
        <ele>419</ele>
        <time>2020-02-07T12:36:01.000Z</time>
      </trkpt>
      <trkpt lat="44.77548" lon="5.0512">
        <ele>419</ele>
        <time>2020-02-07T12:36:02.000Z</time>
      </trkpt>
      <trkpt lat="44.77547" lon="5.05119">
        <ele>419</ele>
        <time>2020-02-07T12:36:03.000Z</time>
      </trkpt>
      <trkpt lat="44.77546" lon="5.05117">
        <ele>419</ele>
        <time>2020-02-07T12:36:04.000Z</time>
      </trkpt>
      <trkpt lat="44.77545" lon="5.05116">
        <ele>418</ele>
        <time>2020-02-07T12:36:05.000Z</time>
      </trkpt>
      <trkpt lat="44.77544" lon="5.05116">
        <ele>418</ele>
        <time>2020-02-07T12:36:06.000Z</time>
      </trkpt>
      <trkpt lat="44.77542" lon="5.05114">
        <ele>418</ele>
        <time>2020-02-07T12:36:07.000Z</time>
      </trkpt>
      <trkpt lat="44.77541" lon="5.05113">
        <ele>418</ele>
        <time>2020-02-07T12:36:08.000Z</time>
      </trkpt>
      <trkpt lat="44.7754" lon="5.05112">
        <ele>418</ele>
        <time>2020-02-07T12:36:09.000Z</time>
      </trkpt>
      <trkpt lat="44.77539" lon="5.05111">
        <ele>418</ele>
        <time>2020-02-07T12:36:10.000Z</time>
      </trkpt>
      <trkpt lat="44.77538" lon="5.0511">
        <ele>418</ele>
        <time>2020-02-07T12:36:11.000Z</time>
      </trkpt>
      <trkpt lat="44.77537" lon="5.05109">
        <ele>418</ele>
        <time>2020-02-07T12:36:12.000Z</time>
      </trkpt>
      <trkpt lat="44.77536" lon="5.05107">
        <ele>417</ele>
        <time>2020-02-07T12:36:13.000Z</time>
      </trkpt>
      <trkpt lat="44.77535" lon="5.05106">
        <ele>417</ele>
        <time>2020-02-07T12:36:14.000Z</time>
      </trkpt>
      <trkpt lat="44.77534" lon="5.05105">
        <ele>417</ele>
        <time>2020-02-07T12:36:15.000Z</time>
      </trkpt>
      <trkpt lat="44.77533" lon="5.05104">
        <ele>417</ele>
        <time>2020-02-07T12:36:16.000Z</time>
      </trkpt>
      <trkpt lat="44.77532" lon="5.05103">
        <ele>417</ele>
        <time>2020-02-07T12:36:17.000Z</time>
      </trkpt>
      <trkpt lat="44.77531" lon="5.05102">
        <ele>417</ele>
        <time>2020-02-07T12:36:18.000Z</time>
      </trkpt>
      <trkpt lat="44.7753" lon="5.05101">
        <ele>417</ele>
        <time>2020-02-07T12:36:19.000Z</time>
      </trkpt>
      <trkpt lat="44.77529" lon="5.051">
        <ele>417</ele>
        <time>2020-02-07T12:36:20.000Z</time>
      </trkpt>
      <trkpt lat="44.77528" lon="5.05099">
        <ele>417</ele>
        <time>2020-02-07T12:36:21.000Z</time>
      </trkpt>
      <trkpt lat="44.77527" lon="5.05098">
        <ele>417</ele>
        <time>2020-02-07T12:36:22.000Z</time>
      </trkpt>
      <trkpt lat="44.77526" lon="5.05097">
        <ele>417</ele>
        <time>2020-02-07T12:36:23.000Z</time>
      </trkpt>
      <trkpt lat="44.77525" lon="5.05095">
        <ele>417</ele>
        <time>2020-02-07T12:36:24.000Z</time>
      </trkpt>
      <trkpt lat="44.77524" lon="5.05094">
        <ele>417</ele>
        <time>2020-02-07T12:36:25.000Z</time>
      </trkpt>
      <trkpt lat="44.77523" lon="5.05093">
        <ele>417</ele>
        <time>2020-02-07T12:36:26.000Z</time>
      </trkpt>
      <trkpt lat="44.77522" lon="5.05091">
        <ele>417</ele>
        <time>2020-02-07T12:36:27.000Z</time>
      </trkpt>
      <trkpt lat="44.77522" lon="5.0509">
        <ele>417</ele>
        <time>2020-02-07T12:36:28.000Z</time>
      </trkpt>
      <trkpt lat="44.77521" lon="5.05088">
        <ele>416</ele>
        <time>2020-02-07T12:36:29.000Z</time>
      </trkpt>
      <trkpt lat="44.7752" lon="5.05087">
        <ele>416</ele>
        <time>2020-02-07T12:36:30.000Z</time>
      </trkpt>
      <trkpt lat="44.77519" lon="5.05086">
        <ele>416</ele>
        <time>2020-02-07T12:36:31.000Z</time>
      </trkpt>
      <trkpt lat="44.77518" lon="5.05085">
        <ele>416</ele>
        <time>2020-02-07T12:36:32.000Z</time>
      </trkpt>
      <trkpt lat="44.77518" lon="5.05083">
        <ele>416</ele>
        <time>2020-02-07T12:36:33.000Z</time>
      </trkpt>
      <trkpt lat="44.77517" lon="5.05082">
        <ele>416</ele>
        <time>2020-02-07T12:36:34.000Z</time>
      </trkpt>
      <trkpt lat="44.77516" lon="5.05081">
        <ele>416</ele>
        <time>2020-02-07T12:36:35.000Z</time>
      </trkpt>
      <trkpt lat="44.77515" lon="5.0508">
        <ele>416</ele>
        <time>2020-02-07T12:36:36.000Z</time>
      </trkpt>
      <trkpt lat="44.77514" lon="5.05079">
        <ele>416</ele>
        <time>2020-02-07T12:36:37.000Z</time>
      </trkpt>
      <trkpt lat="44.77513" lon="5.05078">
        <ele>416</ele>
        <time>2020-02-07T12:36:38.000Z</time>
      </trkpt>
      <trkpt lat="44.77512" lon="5.05076">
        <ele>416</ele>
        <time>2020-02-07T12:36:39.000Z</time>
      </trkpt>
      <trkpt lat="44.77511" lon="5.05074">
        <ele>415</ele>
        <time>2020-02-07T12:36:40.000Z</time>
      </trkpt>
      <trkpt lat="44.77511" lon="5.05073">
        <ele>415</ele>
        <time>2020-02-07T12:36:41.000Z</time>
      </trkpt>
      <trkpt lat="44.7751" lon="5.05072">
        <ele>415</ele>
        <time>2020-02-07T12:36:42.000Z</time>
      </trkpt>
      <trkpt lat="44.77509" lon="5.05071">
        <ele>415</ele>
        <time>2020-02-07T12:36:43.000Z</time>
      </trkpt>
      <trkpt lat="44.77508" lon="5.05069">
        <ele>415</ele>
        <time>2020-02-07T12:36:44.000Z</time>
      </trkpt>
      <trkpt lat="44.77508" lon="5.05068">
        <ele>415</ele>
        <time>2020-02-07T12:36:45.000Z</time>
      </trkpt>
      <trkpt lat="44.77507" lon="5.05067">
        <ele>415</ele>
        <time>2020-02-07T12:36:46.000Z</time>
      </trkpt>
      <trkpt lat="44.77506" lon="5.05066">
        <ele>415</ele>
        <time>2020-02-07T12:36:47.000Z</time>
      </trkpt>
      <trkpt lat="44.77506" lon="5.05065">
        <ele>415</ele>
        <time>2020-02-07T12:36:48.000Z</time>
      </trkpt>
      <trkpt lat="44.77505" lon="5.05063">
        <ele>415</ele>
        <time>2020-02-07T12:36:49.000Z</time>
      </trkpt>
      <trkpt lat="44.77505" lon="5.05062">
        <ele>415</ele>
        <time>2020-02-07T12:36:50.000Z</time>
      </trkpt>
      <trkpt lat="44.77504" lon="5.05061">
        <ele>415</ele>
        <time>2020-02-07T12:36:51.000Z</time>
      </trkpt>
      <trkpt lat="44.77503" lon="5.05059">
        <ele>414</ele>
        <time>2020-02-07T12:36:52.000Z</time>
      </trkpt>
      <trkpt lat="44.77502" lon="5.05058">
        <ele>414</ele>
        <time>2020-02-07T12:36:53.000Z</time>
      </trkpt>
      <trkpt lat="44.77501" lon="5.05057">
        <ele>414</ele>
        <time>2020-02-07T12:36:54.000Z</time>
      </trkpt>
      <trkpt lat="44.775" lon="5.05056">
        <ele>414</ele>
        <time>2020-02-07T12:36:55.000Z</time>
      </trkpt>
      <trkpt lat="44.77499" lon="5.05055">
        <ele>414</ele>
        <time>2020-02-07T12:36:56.000Z</time>
      </trkpt>
      <trkpt lat="44.77498" lon="5.05054">
        <ele>414</ele>
        <time>2020-02-07T12:36:57.000Z</time>
      </trkpt>
      <trkpt lat="44.77497" lon="5.05053">
        <ele>414</ele>
        <time>2020-02-07T12:36:58.000Z</time>
      </trkpt>
      <trkpt lat="44.77496" lon="5.05052">
        <ele>414</ele>
        <time>2020-02-07T12:36:59.000Z</time>
      </trkpt>
      <trkpt lat="44.77495" lon="5.05052">
        <ele>414</ele>
        <time>2020-02-07T12:37:00.000Z</time>
      </trkpt>
      <trkpt lat="44.77494" lon="5.05051">
        <ele>414</ele>
        <time>2020-02-07T12:37:01.000Z</time>
      </trkpt>
      <trkpt lat="44.77493" lon="5.0505">
        <ele>414</ele>
        <time>2020-02-07T12:37:02.000Z</time>
      </trkpt>
      <trkpt lat="44.77492" lon="5.05049">
        <ele>413</ele>
        <time>2020-02-07T12:37:03.000Z</time>
      </trkpt>
      <trkpt lat="44.77491" lon="5.05047">
        <ele>413</ele>
        <time>2020-02-07T12:37:04.000Z</time>
      </trkpt>
      <trkpt lat="44.7749" lon="5.05046">
        <ele>413</ele>
        <time>2020-02-07T12:37:05.000Z</time>
      </trkpt>
      <trkpt lat="44.77489" lon="5.05044">
        <ele>413</ele>
        <time>2020-02-07T12:37:06.000Z</time>
      </trkpt>
      <trkpt lat="44.77488" lon="5.05043">
        <ele>412</ele>
        <time>2020-02-07T12:37:07.000Z</time>
      </trkpt>
      <trkpt lat="44.77486" lon="5.05042">
        <ele>412</ele>
        <time>2020-02-07T12:37:08.000Z</time>
      </trkpt>
      <trkpt lat="44.77485" lon="5.05041">
        <ele>412</ele>
        <time>2020-02-07T12:37:09.000Z</time>
      </trkpt>
      <trkpt lat="44.77484" lon="5.0504">
        <ele>412</ele>
        <time>2020-02-07T12:37:10.000Z</time>
      </trkpt>
      <trkpt lat="44.77483" lon="5.05039">
        <ele>412</ele>
        <time>2020-02-07T12:37:11.000Z</time>
      </trkpt>
      <trkpt lat="44.77482" lon="5.05038">
        <ele>412</ele>
        <time>2020-02-07T12:37:12.000Z</time>
      </trkpt>
      <trkpt lat="44.77481" lon="5.05036">
        <ele>411</ele>
        <time>2020-02-07T12:37:13.000Z</time>
      </trkpt>
      <trkpt lat="44.7748" lon="5.05035">
        <ele>411</ele>
        <time>2020-02-07T12:37:14.000Z</time>
      </trkpt>
      <trkpt lat="44.77479" lon="5.05034">
        <ele>411</ele>
        <time>2020-02-07T12:37:15.000Z</time>
      </trkpt>
      <trkpt lat="44.77478" lon="5.05033">
        <ele>411</ele>
        <time>2020-02-07T12:37:16.000Z</time>
      </trkpt>
      <trkpt lat="44.77477" lon="5.05032">
        <ele>412</ele>
        <time>2020-02-07T12:37:17.000Z</time>
      </trkpt>
      <trkpt lat="44.77476" lon="5.05031">
        <ele>412</ele>
        <time>2020-02-07T12:37:18.000Z</time>
      </trkpt>
      <trkpt lat="44.77475" lon="5.0503">
        <ele>412</ele>
        <time>2020-02-07T12:37:19.000Z</time>
      </trkpt>
      <trkpt lat="44.77475" lon="5.05029">
        <ele>412</ele>
        <time>2020-02-07T12:37:20.000Z</time>
      </trkpt>
      <trkpt lat="44.77474" lon="5.05028">
        <ele>412</ele>
        <time>2020-02-07T12:37:21.000Z</time>
      </trkpt>
      <trkpt lat="44.77473" lon="5.05027">
        <ele>412</ele>
        <time>2020-02-07T12:37:22.000Z</time>
      </trkpt>
      <trkpt lat="44.77472" lon="5.05026">
        <ele>412</ele>
        <time>2020-02-07T12:37:23.000Z</time>
      </trkpt>
      <trkpt lat="44.77471" lon="5.05025">
        <ele>412</ele>
        <time>2020-02-07T12:37:24.000Z</time>
      </trkpt>
      <trkpt lat="44.7747" lon="5.05024">
        <ele>411</ele>
        <time>2020-02-07T12:37:25.000Z</time>
      </trkpt>
      <trkpt lat="44.77468" lon="5.05023">
        <ele>411</ele>
        <time>2020-02-07T12:37:26.000Z</time>
      </trkpt>
      <trkpt lat="44.77467" lon="5.05021">
        <ele>411</ele>
        <time>2020-02-07T12:37:27.000Z</time>
      </trkpt>
      <trkpt lat="44.77466" lon="5.0502">
        <ele>411</ele>
        <time>2020-02-07T12:37:28.000Z</time>
      </trkpt>
      <trkpt lat="44.77465" lon="5.05019">
        <ele>411</ele>
        <time>2020-02-07T12:37:29.000Z</time>
      </trkpt>
      <trkpt lat="44.77464" lon="5.05018">
        <ele>411</ele>
        <time>2020-02-07T12:37:30.000Z</time>
      </trkpt>
      <trkpt lat="44.77464" lon="5.05017">
        <ele>411</ele>
        <time>2020-02-07T12:37:31.000Z</time>
      </trkpt>
      <trkpt lat="44.77463" lon="5.05016">
        <ele>411</ele>
        <time>2020-02-07T12:37:32.000Z</time>
      </trkpt>
      <trkpt lat="44.77462" lon="5.05014">
        <ele>411</ele>
        <time>2020-02-07T12:37:33.000Z</time>
      </trkpt>
      <trkpt lat="44.77461" lon="5.05013">
        <ele>411</ele>
        <time>2020-02-07T12:37:34.000Z</time>
      </trkpt>
      <trkpt lat="44.77461" lon="5.05012">
        <ele>411</ele>
        <time>2020-02-07T12:37:35.000Z</time>
      </trkpt>
      <trkpt lat="44.7746" lon="5.0501">
        <ele>411</ele>
        <time>2020-02-07T12:37:36.000Z</time>
      </trkpt>
      <trkpt lat="44.77459" lon="5.05009">
        <ele>411</ele>
        <time>2020-02-07T12:37:37.000Z</time>
      </trkpt>
      <trkpt lat="44.77458" lon="5.05008">
        <ele>411</ele>
        <time>2020-02-07T12:37:38.000Z</time>
      </trkpt>
      <trkpt lat="44.77457" lon="5.05006">
        <ele>411</ele>
        <time>2020-02-07T12:37:39.000Z</time>
      </trkpt>
      <trkpt lat="44.77456" lon="5.05005">
        <ele>411</ele>
        <time>2020-02-07T12:37:40.000Z</time>
      </trkpt>
      <trkpt lat="44.77455" lon="5.05004">
        <ele>411</ele>
        <time>2020-02-07T12:37:41.000Z</time>
      </trkpt>
      <trkpt lat="44.77454" lon="5.05003">
        <ele>411</ele>
        <time>2020-02-07T12:37:42.000Z</time>
      </trkpt>
      <trkpt lat="44.77453" lon="5.05002">
        <ele>411</ele>
        <time>2020-02-07T12:37:43.000Z</time>
      </trkpt>
      <trkpt lat="44.77453" lon="5.05">
        <ele>411</ele>
        <time>2020-02-07T12:37:44.000Z</time>
      </trkpt>
      <trkpt lat="44.77452" lon="5.04999">
        <ele>411</ele>
        <time>2020-02-07T12:37:45.000Z</time>
      </trkpt>
      <trkpt lat="44.77451" lon="5.04998">
        <ele>411</ele>
        <time>2020-02-07T12:37:46.000Z</time>
      </trkpt>
      <trkpt lat="44.7745" lon="5.04997">
        <ele>411</ele>
        <time>2020-02-07T12:37:47.000Z</time>
      </trkpt>
      <trkpt lat="44.77449" lon="5.04996">
        <ele>411</ele>
        <time>2020-02-07T12:37:48.000Z</time>
      </trkpt>
      <trkpt lat="44.77448" lon="5.04995">
        <ele>411</ele>
        <time>2020-02-07T12:37:49.000Z</time>
      </trkpt>
      <trkpt lat="44.77447" lon="5.04994">
        <ele>411</ele>
        <time>2020-02-07T12:37:50.000Z</time>
      </trkpt>
      <trkpt lat="44.77446" lon="5.04993">
        <ele>411</ele>
        <time>2020-02-07T12:37:51.000Z</time>
      </trkpt>
      <trkpt lat="44.77445" lon="5.04993">
        <ele>411</ele>
        <time>2020-02-07T12:37:52.000Z</time>
      </trkpt>
      <trkpt lat="44.77444" lon="5.04992">
        <ele>411</ele>
        <time>2020-02-07T12:37:53.000Z</time>
      </trkpt>
      <trkpt lat="44.77444" lon="5.04992">
        <ele>411</ele>
        <time>2020-02-07T12:37:54.000Z</time>
      </trkpt>
      <trkpt lat="44.77443" lon="5.04991">
        <ele>411</ele>
        <time>2020-02-07T12:37:55.000Z</time>
      </trkpt>
      <trkpt lat="44.77442" lon="5.0499">
        <ele>410</ele>
        <time>2020-02-07T12:37:56.000Z</time>
      </trkpt>
      <trkpt lat="44.77441" lon="5.0499">
        <ele>410</ele>
        <time>2020-02-07T12:37:57.000Z</time>
      </trkpt>
      <trkpt lat="44.7744" lon="5.0499">
        <ele>410</ele>
        <time>2020-02-07T12:37:58.000Z</time>
      </trkpt>
      <trkpt lat="44.77439" lon="5.04989">
        <ele>410</ele>
        <time>2020-02-07T12:37:59.000Z</time>
      </trkpt>
      <trkpt lat="44.77438" lon="5.04989">
        <ele>410</ele>
        <time>2020-02-07T12:38:00.000Z</time>
      </trkpt>
      <trkpt lat="44.77437" lon="5.04988">
        <ele>410</ele>
        <time>2020-02-07T12:38:01.000Z</time>
      </trkpt>
      <trkpt lat="44.77436" lon="5.04987">
        <ele>410</ele>
        <time>2020-02-07T12:38:02.000Z</time>
      </trkpt>
      <trkpt lat="44.77435" lon="5.04986">
        <ele>411</ele>
        <time>2020-02-07T12:38:03.000Z</time>
      </trkpt>
      <trkpt lat="44.77434" lon="5.04985">
        <ele>411</ele>
        <time>2020-02-07T12:38:04.000Z</time>
      </trkpt>
      <trkpt lat="44.77433" lon="5.04984">
        <ele>411</ele>
        <time>2020-02-07T12:38:05.000Z</time>
      </trkpt>
      <trkpt lat="44.77432" lon="5.04983">
        <ele>411</ele>
        <time>2020-02-07T12:38:06.000Z</time>
      </trkpt>
      <trkpt lat="44.77431" lon="5.04982">
        <ele>411</ele>
        <time>2020-02-07T12:38:07.000Z</time>
      </trkpt>
      <trkpt lat="44.7743" lon="5.04981">
        <ele>411</ele>
        <time>2020-02-07T12:38:08.000Z</time>
      </trkpt>
      <trkpt lat="44.7743" lon="5.0498">
        <ele>410</ele>
        <time>2020-02-07T12:38:09.000Z</time>
      </trkpt>
      <trkpt lat="44.77429" lon="5.04979">
        <ele>410</ele>
        <time>2020-02-07T12:38:10.000Z</time>
      </trkpt>
      <trkpt lat="44.77429" lon="5.04978">
        <ele>410</ele>
        <time>2020-02-07T12:38:11.000Z</time>
      </trkpt>
      <trkpt lat="44.77428" lon="5.04978">
        <ele>410</ele>
        <time>2020-02-07T12:38:12.000Z</time>
      </trkpt>
      <trkpt lat="44.77427" lon="5.04977">
        <ele>410</ele>
        <time>2020-02-07T12:38:13.000Z</time>
      </trkpt>
      <trkpt lat="44.77426" lon="5.04976">
        <ele>410</ele>
        <time>2020-02-07T12:38:14.000Z</time>
      </trkpt>
      <trkpt lat="44.77425" lon="5.04975">
        <ele>410</ele>
        <time>2020-02-07T12:38:15.000Z</time>
      </trkpt>
      <trkpt lat="44.77424" lon="5.04974">
        <ele>410</ele>
        <time>2020-02-07T12:38:16.000Z</time>
      </trkpt>
      <trkpt lat="44.77423" lon="5.04973">
        <ele>410</ele>
        <time>2020-02-07T12:38:17.000Z</time>
      </trkpt>
      <trkpt lat="44.77422" lon="5.04972">
        <ele>410</ele>
        <time>2020-02-07T12:38:18.000Z</time>
      </trkpt>
      <trkpt lat="44.77421" lon="5.04972">
        <ele>410</ele>
        <time>2020-02-07T12:38:19.000Z</time>
      </trkpt>
      <trkpt lat="44.7742" lon="5.04971">
        <ele>410</ele>
        <time>2020-02-07T12:38:20.000Z</time>
      </trkpt>
      <trkpt lat="44.77419" lon="5.0497">
        <ele>410</ele>
        <time>2020-02-07T12:38:21.000Z</time>
      </trkpt>
      <trkpt lat="44.77418" lon="5.0497">
        <ele>410</ele>
        <time>2020-02-07T12:38:22.000Z</time>
      </trkpt>
      <trkpt lat="44.77416" lon="5.04969">
        <ele>409</ele>
        <time>2020-02-07T12:38:23.000Z</time>
      </trkpt>
      <trkpt lat="44.77415" lon="5.04968">
        <ele>409</ele>
        <time>2020-02-07T12:38:24.000Z</time>
      </trkpt>
      <trkpt lat="44.77414" lon="5.04968">
        <ele>409</ele>
        <time>2020-02-07T12:38:25.000Z</time>
      </trkpt>
      <trkpt lat="44.77413" lon="5.04967">
        <ele>409</ele>
        <time>2020-02-07T12:38:26.000Z</time>
      </trkpt>
      <trkpt lat="44.77411" lon="5.04966">
        <ele>409</ele>
        <time>2020-02-07T12:38:27.000Z</time>
      </trkpt>
      <trkpt lat="44.7741" lon="5.04966">
        <ele>409</ele>
        <time>2020-02-07T12:38:28.000Z</time>
      </trkpt>
      <trkpt lat="44.77409" lon="5.04965">
        <ele>409</ele>
        <time>2020-02-07T12:38:29.000Z</time>
      </trkpt>
      <trkpt lat="44.77408" lon="5.04964">
        <ele>409</ele>
        <time>2020-02-07T12:38:30.000Z</time>
      </trkpt>
      <trkpt lat="44.77407" lon="5.04964">
        <ele>409</ele>
        <time>2020-02-07T12:38:31.000Z</time>
      </trkpt>
      <trkpt lat="44.77406" lon="5.04963">
        <ele>409</ele>
        <time>2020-02-07T12:38:32.000Z</time>
      </trkpt>
      <trkpt lat="44.77405" lon="5.04962">
        <ele>408</ele>
        <time>2020-02-07T12:38:33.000Z</time>
      </trkpt>
      <trkpt lat="44.77403" lon="5.04961">
        <ele>408</ele>
        <time>2020-02-07T12:38:34.000Z</time>
      </trkpt>
      <trkpt lat="44.77403" lon="5.04961">
        <ele>408</ele>
        <time>2020-02-07T12:38:35.000Z</time>
      </trkpt>
      <trkpt lat="44.77401" lon="5.0496">
        <ele>408</ele>
        <time>2020-02-07T12:38:36.000Z</time>
      </trkpt>
      <trkpt lat="44.774" lon="5.04959">
        <ele>408</ele>
        <time>2020-02-07T12:38:37.000Z</time>
      </trkpt>
      <trkpt lat="44.77399" lon="5.04958">
        <ele>408</ele>
        <time>2020-02-07T12:38:38.000Z</time>
      </trkpt>
      <trkpt lat="44.77398" lon="5.04957">
        <ele>408</ele>
        <time>2020-02-07T12:38:39.000Z</time>
      </trkpt>
      <trkpt lat="44.77396" lon="5.04955">
        <ele>407</ele>
        <time>2020-02-07T12:38:40.000Z</time>
      </trkpt>
      <trkpt lat="44.77395" lon="5.04954">
        <ele>407</ele>
        <time>2020-02-07T12:38:41.000Z</time>
      </trkpt>
      <trkpt lat="44.77394" lon="5.04953">
        <ele>407</ele>
        <time>2020-02-07T12:38:42.000Z</time>
      </trkpt>
      <trkpt lat="44.77393" lon="5.04952">
        <ele>407</ele>
        <time>2020-02-07T12:38:43.000Z</time>
      </trkpt>
      <trkpt lat="44.77392" lon="5.04951">
        <ele>407</ele>
        <time>2020-02-07T12:38:44.000Z</time>
      </trkpt>
      <trkpt lat="44.77391" lon="5.0495">
        <ele>407</ele>
        <time>2020-02-07T12:38:45.000Z</time>
      </trkpt>
      <trkpt lat="44.7739" lon="5.04949">
        <ele>406</ele>
        <time>2020-02-07T12:38:46.000Z</time>
      </trkpt>
      <trkpt lat="44.77389" lon="5.04948">
        <ele>406</ele>
        <time>2020-02-07T12:38:47.000Z</time>
      </trkpt>
      <trkpt lat="44.77388" lon="5.04947">
        <ele>406</ele>
        <time>2020-02-07T12:38:48.000Z</time>
      </trkpt>
      <trkpt lat="44.77387" lon="5.04946">
        <ele>406</ele>
        <time>2020-02-07T12:38:49.000Z</time>
      </trkpt>
      <trkpt lat="44.77386" lon="5.04945">
        <ele>406</ele>
        <time>2020-02-07T12:38:50.000Z</time>
      </trkpt>
      <trkpt lat="44.77385" lon="5.04944">
        <ele>406</ele>
        <time>2020-02-07T12:38:51.000Z</time>
      </trkpt>
      <trkpt lat="44.77384" lon="5.04943">
        <ele>406</ele>
        <time>2020-02-07T12:38:52.000Z</time>
      </trkpt>
      <trkpt lat="44.77383" lon="5.04942">
        <ele>406</ele>
        <time>2020-02-07T12:38:53.000Z</time>
      </trkpt>
      <trkpt lat="44.77383" lon="5.04941">
        <ele>406</ele>
        <time>2020-02-07T12:38:54.000Z</time>
      </trkpt>
      <trkpt lat="44.77382" lon="5.0494">
        <ele>406</ele>
        <time>2020-02-07T12:38:55.000Z</time>
      </trkpt>
      <trkpt lat="44.77381" lon="5.04939">
        <ele>406</ele>
        <time>2020-02-07T12:38:56.000Z</time>
      </trkpt>
      <trkpt lat="44.7738" lon="5.04938">
        <ele>406</ele>
        <time>2020-02-07T12:38:57.000Z</time>
      </trkpt>
      <trkpt lat="44.77379" lon="5.04937">
        <ele>406</ele>
        <time>2020-02-07T12:38:58.000Z</time>
      </trkpt>
      <trkpt lat="44.77378" lon="5.04936">
        <ele>405</ele>
        <time>2020-02-07T12:38:59.000Z</time>
      </trkpt>
      <trkpt lat="44.77377" lon="5.04935">
        <ele>405</ele>
        <time>2020-02-07T12:39:00.000Z</time>
      </trkpt>
      <trkpt lat="44.77376" lon="5.04934">
        <ele>405</ele>
        <time>2020-02-07T12:39:01.000Z</time>
      </trkpt>
      <trkpt lat="44.77375" lon="5.04933">
        <ele>405</ele>
        <time>2020-02-07T12:39:02.000Z</time>
      </trkpt>
      <trkpt lat="44.77374" lon="5.04932">
        <ele>405</ele>
        <time>2020-02-07T12:39:03.000Z</time>
      </trkpt>
      <trkpt lat="44.77373" lon="5.04931">
        <ele>404</ele>
        <time>2020-02-07T12:39:04.000Z</time>
      </trkpt>
      <trkpt lat="44.77372" lon="5.0493">
        <ele>404</ele>
        <time>2020-02-07T12:39:05.000Z</time>
      </trkpt>
      <trkpt lat="44.77372" lon="5.04929">
        <ele>404</ele>
        <time>2020-02-07T12:39:06.000Z</time>
      </trkpt>
      <trkpt lat="44.77371" lon="5.04928">
        <ele>404</ele>
        <time>2020-02-07T12:39:07.000Z</time>
      </trkpt>
      <trkpt lat="44.7737" lon="5.04927">
        <ele>404</ele>
        <time>2020-02-07T12:39:08.000Z</time>
      </trkpt>
      <trkpt lat="44.77369" lon="5.04927">
        <ele>403</ele>
        <time>2020-02-07T12:39:09.000Z</time>
      </trkpt>
      <trkpt lat="44.77368" lon="5.04926">
        <ele>403</ele>
        <time>2020-02-07T12:39:10.000Z</time>
      </trkpt>
      <trkpt lat="44.77367" lon="5.04925">
        <ele>403</ele>
        <time>2020-02-07T12:39:11.000Z</time>
      </trkpt>
      <trkpt lat="44.77366" lon="5.04924">
        <ele>403</ele>
        <time>2020-02-07T12:39:12.000Z</time>
      </trkpt>
      <trkpt lat="44.77365" lon="5.04923">
        <ele>403</ele>
        <time>2020-02-07T12:39:13.000Z</time>
      </trkpt>
      <trkpt lat="44.77364" lon="5.04922">
        <ele>403</ele>
        <time>2020-02-07T12:39:14.000Z</time>
      </trkpt>
      <trkpt lat="44.77364" lon="5.04921">
        <ele>403</ele>
        <time>2020-02-07T12:39:15.000Z</time>
      </trkpt>
      <trkpt lat="44.77363" lon="5.0492">
        <ele>402</ele>
        <time>2020-02-07T12:39:16.000Z</time>
      </trkpt>
      <trkpt lat="44.77362" lon="5.04919">
        <ele>402</ele>
        <time>2020-02-07T12:39:17.000Z</time>
      </trkpt>
      <trkpt lat="44.77361" lon="5.04918">
        <ele>402</ele>
        <time>2020-02-07T12:39:18.000Z</time>
      </trkpt>
      <trkpt lat="44.7736" lon="5.04917">
        <ele>402</ele>
        <time>2020-02-07T12:39:19.000Z</time>
      </trkpt>
      <trkpt lat="44.77359" lon="5.04916">
        <ele>402</ele>
        <time>2020-02-07T12:39:20.000Z</time>
      </trkpt>
      <trkpt lat="44.77358" lon="5.04914">
        <ele>402</ele>
        <time>2020-02-07T12:39:21.000Z</time>
      </trkpt>
      <trkpt lat="44.77357" lon="5.04913">
        <ele>402</ele>
        <time>2020-02-07T12:39:22.000Z</time>
      </trkpt>
      <trkpt lat="44.77356" lon="5.04912">
        <ele>402</ele>
        <time>2020-02-07T12:39:23.000Z</time>
      </trkpt>
      <trkpt lat="44.77355" lon="5.04911">
        <ele>402</ele>
        <time>2020-02-07T12:39:24.000Z</time>
      </trkpt>
      <trkpt lat="44.77354" lon="5.0491">
        <ele>402</ele>
        <time>2020-02-07T12:39:25.000Z</time>
      </trkpt>
      <trkpt lat="44.77354" lon="5.04909">
        <ele>401</ele>
        <time>2020-02-07T12:39:26.000Z</time>
      </trkpt>
      <trkpt lat="44.77353" lon="5.04908">
        <ele>401</ele>
        <time>2020-02-07T12:39:27.000Z</time>
      </trkpt>
      <trkpt lat="44.77352" lon="5.04907">
        <ele>401</ele>
        <time>2020-02-07T12:39:28.000Z</time>
      </trkpt>
      <trkpt lat="44.77351" lon="5.04906">
        <ele>401</ele>
        <time>2020-02-07T12:39:29.000Z</time>
      </trkpt>
      <trkpt lat="44.7735" lon="5.04905">
        <ele>401</ele>
        <time>2020-02-07T12:39:30.000Z</time>
      </trkpt>
      <trkpt lat="44.7735" lon="5.04904">
        <ele>401</ele>
        <time>2020-02-07T12:39:31.000Z</time>
      </trkpt>
      <trkpt lat="44.77349" lon="5.04903">
        <ele>401</ele>
        <time>2020-02-07T12:39:32.000Z</time>
      </trkpt>
      <trkpt lat="44.77348" lon="5.04902">
        <ele>401</ele>
        <time>2020-02-07T12:39:33.000Z</time>
      </trkpt>
      <trkpt lat="44.77347" lon="5.04901">
        <ele>401</ele>
        <time>2020-02-07T12:39:34.000Z</time>
      </trkpt>
      <trkpt lat="44.77346" lon="5.049">
        <ele>400</ele>
        <time>2020-02-07T12:39:35.000Z</time>
      </trkpt>
      <trkpt lat="44.77345" lon="5.04899">
        <ele>400</ele>
        <time>2020-02-07T12:39:36.000Z</time>
      </trkpt>
      <trkpt lat="44.77344" lon="5.04898">
        <ele>400</ele>
        <time>2020-02-07T12:39:37.000Z</time>
      </trkpt>
      <trkpt lat="44.77343" lon="5.04898">
        <ele>400</ele>
        <time>2020-02-07T12:39:38.000Z</time>
      </trkpt>
      <trkpt lat="44.77343" lon="5.04897">
        <ele>400</ele>
        <time>2020-02-07T12:39:39.000Z</time>
      </trkpt>
      <trkpt lat="44.77342" lon="5.04895">
        <ele>400</ele>
        <time>2020-02-07T12:39:40.000Z</time>
      </trkpt>
      <trkpt lat="44.77341" lon="5.04894">
        <ele>400</ele>
        <time>2020-02-07T12:39:41.000Z</time>
      </trkpt>
      <trkpt lat="44.7734" lon="5.04893">
        <ele>400</ele>
        <time>2020-02-07T12:39:42.000Z</time>
      </trkpt>
      <trkpt lat="44.7734" lon="5.04892">
        <ele>399</ele>
        <time>2020-02-07T12:39:43.000Z</time>
      </trkpt>
      <trkpt lat="44.77339" lon="5.04891">
        <ele>399</ele>
        <time>2020-02-07T12:39:44.000Z</time>
      </trkpt>
      <trkpt lat="44.77338" lon="5.0489">
        <ele>399</ele>
        <time>2020-02-07T12:39:45.000Z</time>
      </trkpt>
      <trkpt lat="44.77338" lon="5.04889">
        <ele>399</ele>
        <time>2020-02-07T12:39:46.000Z</time>
      </trkpt>
      <trkpt lat="44.77337" lon="5.04888">
        <ele>399</ele>
        <time>2020-02-07T12:39:47.000Z</time>
      </trkpt>
      <trkpt lat="44.77336" lon="5.04887">
        <ele>399</ele>
        <time>2020-02-07T12:39:48.000Z</time>
      </trkpt>
      <trkpt lat="44.77336" lon="5.04887">
        <ele>399</ele>
        <time>2020-02-07T12:39:49.000Z</time>
      </trkpt>
      <trkpt lat="44.77335" lon="5.04886">
        <ele>399</ele>
        <time>2020-02-07T12:39:50.000Z</time>
      </trkpt>
      <trkpt lat="44.77335" lon="5.04885">
        <ele>399</ele>
        <time>2020-02-07T12:39:51.000Z</time>
      </trkpt>
      <trkpt lat="44.77334" lon="5.04884">
        <ele>398</ele>
        <time>2020-02-07T12:39:52.000Z</time>
      </trkpt>
      <trkpt lat="44.77333" lon="5.04883">
        <ele>398</ele>
        <time>2020-02-07T12:39:53.000Z</time>
      </trkpt>
      <trkpt lat="44.77333" lon="5.04882">
        <ele>398</ele>
        <time>2020-02-07T12:39:54.000Z</time>
      </trkpt>
      <trkpt lat="44.77332" lon="5.04881">
        <ele>398</ele>
        <time>2020-02-07T12:39:55.000Z</time>
      </trkpt>
      <trkpt lat="44.77331" lon="5.0488">
        <ele>397</ele>
        <time>2020-02-07T12:39:56.000Z</time>
      </trkpt>
      <trkpt lat="44.7733" lon="5.04879">
        <ele>397</ele>
        <time>2020-02-07T12:39:57.000Z</time>
      </trkpt>
      <trkpt lat="44.7733" lon="5.04878">
        <ele>397</ele>
        <time>2020-02-07T12:39:58.000Z</time>
      </trkpt>
      <trkpt lat="44.77329" lon="5.04876">
        <ele>397</ele>
        <time>2020-02-07T12:39:59.000Z</time>
      </trkpt>
      <trkpt lat="44.77328" lon="5.04875">
        <ele>396</ele>
        <time>2020-02-07T12:40:00.000Z</time>
      </trkpt>
      <trkpt lat="44.77327" lon="5.04873">
        <ele>396</ele>
        <time>2020-02-07T12:40:01.000Z</time>
      </trkpt>
      <trkpt lat="44.77326" lon="5.04872">
        <ele>396</ele>
        <time>2020-02-07T12:40:02.000Z</time>
      </trkpt>
      <trkpt lat="44.77325" lon="5.04871">
        <ele>396</ele>
        <time>2020-02-07T12:40:03.000Z</time>
      </trkpt>
      <trkpt lat="44.77325" lon="5.04869">
        <ele>396</ele>
        <time>2020-02-07T12:40:04.000Z</time>
      </trkpt>
      <trkpt lat="44.77324" lon="5.04868">
        <ele>396</ele>
        <time>2020-02-07T12:40:05.000Z</time>
      </trkpt>
      <trkpt lat="44.77323" lon="5.04867">
        <ele>396</ele>
        <time>2020-02-07T12:40:06.000Z</time>
      </trkpt>
      <trkpt lat="44.77323" lon="5.04866">
        <ele>396</ele>
        <time>2020-02-07T12:40:07.000Z</time>
      </trkpt>
      <trkpt lat="44.77322" lon="5.04865">
        <ele>396</ele>
        <time>2020-02-07T12:40:08.000Z</time>
      </trkpt>
      <trkpt lat="44.77321" lon="5.04864">
        <ele>396</ele>
        <time>2020-02-07T12:40:09.000Z</time>
      </trkpt>
      <trkpt lat="44.77321" lon="5.04863">
        <ele>396</ele>
        <time>2020-02-07T12:40:10.000Z</time>
      </trkpt>
      <trkpt lat="44.7732" lon="5.04862">
        <ele>396</ele>
        <time>2020-02-07T12:40:11.000Z</time>
      </trkpt>
      <trkpt lat="44.77319" lon="5.0486">
        <ele>396</ele>
        <time>2020-02-07T12:40:12.000Z</time>
      </trkpt>
      <trkpt lat="44.77319" lon="5.04859">
        <ele>396</ele>
        <time>2020-02-07T12:40:13.000Z</time>
      </trkpt>
      <trkpt lat="44.77318" lon="5.04857">
        <ele>396</ele>
        <time>2020-02-07T12:40:14.000Z</time>
      </trkpt>
      <trkpt lat="44.77317" lon="5.04856">
        <ele>395</ele>
        <time>2020-02-07T12:40:15.000Z</time>
      </trkpt>
      <trkpt lat="44.77316" lon="5.04855">
        <ele>395</ele>
        <time>2020-02-07T12:40:16.000Z</time>
      </trkpt>
      <trkpt lat="44.77315" lon="5.04854">
        <ele>395</ele>
        <time>2020-02-07T12:40:17.000Z</time>
      </trkpt>
      <trkpt lat="44.77315" lon="5.04853">
        <ele>395</ele>
        <time>2020-02-07T12:40:18.000Z</time>
      </trkpt>
      <trkpt lat="44.77314" lon="5.04851">
        <ele>395</ele>
        <time>2020-02-07T12:40:19.000Z</time>
      </trkpt>
      <trkpt lat="44.77313" lon="5.0485">
        <ele>395</ele>
        <time>2020-02-07T12:40:20.000Z</time>
      </trkpt>
      <trkpt lat="44.77313" lon="5.04849">
        <ele>394</ele>
        <time>2020-02-07T12:40:21.000Z</time>
      </trkpt>
      <trkpt lat="44.77312" lon="5.04848">
        <ele>394</ele>
        <time>2020-02-07T12:40:22.000Z</time>
      </trkpt>
      <trkpt lat="44.77312" lon="5.04847">
        <ele>394</ele>
        <time>2020-02-07T12:40:23.000Z</time>
      </trkpt>
      <trkpt lat="44.77311" lon="5.04845">
        <ele>394</ele>
        <time>2020-02-07T12:40:24.000Z</time>
      </trkpt>
      <trkpt lat="44.77311" lon="5.04844">
        <ele>394</ele>
        <time>2020-02-07T12:40:25.000Z</time>
      </trkpt>
      <trkpt lat="44.7731" lon="5.04843">
        <ele>394</ele>
        <time>2020-02-07T12:40:26.000Z</time>
      </trkpt>
      <trkpt lat="44.7731" lon="5.04842">
        <ele>394</ele>
        <time>2020-02-07T12:40:27.000Z</time>
      </trkpt>
      <trkpt lat="44.77309" lon="5.04841">
        <ele>394</ele>
        <time>2020-02-07T12:40:28.000Z</time>
      </trkpt>
      <trkpt lat="44.77309" lon="5.04839">
        <ele>394</ele>
        <time>2020-02-07T12:40:29.000Z</time>
      </trkpt>
      <trkpt lat="44.77308" lon="5.04838">
        <ele>394</ele>
        <time>2020-02-07T12:40:30.000Z</time>
      </trkpt>
      <trkpt lat="44.77308" lon="5.04837">
        <ele>394</ele>
        <time>2020-02-07T12:40:31.000Z</time>
      </trkpt>
      <trkpt lat="44.77307" lon="5.04836">
        <ele>394</ele>
        <time>2020-02-07T12:40:32.000Z</time>
      </trkpt>
      <trkpt lat="44.77307" lon="5.04834">
        <ele>394</ele>
        <time>2020-02-07T12:40:33.000Z</time>
      </trkpt>
      <trkpt lat="44.77306" lon="5.04833">
        <ele>394</ele>
        <time>2020-02-07T12:40:34.000Z</time>
      </trkpt>
      <trkpt lat="44.77306" lon="5.04831">
        <ele>394</ele>
        <time>2020-02-07T12:40:35.000Z</time>
      </trkpt>
      <trkpt lat="44.77305" lon="5.04829">
        <ele>394</ele>
        <time>2020-02-07T12:40:36.000Z</time>
      </trkpt>
      <trkpt lat="44.77304" lon="5.04828">
        <ele>394</ele>
        <time>2020-02-07T12:40:37.000Z</time>
      </trkpt>
      <trkpt lat="44.77303" lon="5.04826">
        <ele>394</ele>
        <time>2020-02-07T12:40:38.000Z</time>
      </trkpt>
      <trkpt lat="44.77303" lon="5.04824">
        <ele>393</ele>
        <time>2020-02-07T12:40:39.000Z</time>
      </trkpt>
      <trkpt lat="44.77302" lon="5.04823">
        <ele>393</ele>
        <time>2020-02-07T12:40:40.000Z</time>
      </trkpt>
      <trkpt lat="44.77302" lon="5.04821">
        <ele>393</ele>
        <time>2020-02-07T12:40:41.000Z</time>
      </trkpt>
      <trkpt lat="44.77302" lon="5.04819">
        <ele>393</ele>
        <time>2020-02-07T12:40:42.000Z</time>
      </trkpt>
      <trkpt lat="44.77302" lon="5.04818">
        <ele>393</ele>
        <time>2020-02-07T12:40:43.000Z</time>
      </trkpt>
      <trkpt lat="44.77302" lon="5.04816">
        <ele>393</ele>
        <time>2020-02-07T12:40:44.000Z</time>
      </trkpt>
      <trkpt lat="44.77302" lon="5.04814">
        <ele>393</ele>
        <time>2020-02-07T12:40:45.000Z</time>
      </trkpt>
      <trkpt lat="44.77302" lon="5.04812">
        <ele>393</ele>
        <time>2020-02-07T12:40:46.000Z</time>
      </trkpt>
      <trkpt lat="44.77302" lon="5.0481">
        <ele>393</ele>
        <time>2020-02-07T12:40:47.000Z</time>
      </trkpt>
      <trkpt lat="44.77301" lon="5.04808">
        <ele>393</ele>
        <time>2020-02-07T12:40:48.000Z</time>
      </trkpt>
      <trkpt lat="44.77301" lon="5.04806">
        <ele>393</ele>
        <time>2020-02-07T12:40:49.000Z</time>
      </trkpt>
      <trkpt lat="44.77301" lon="5.04804">
        <ele>393</ele>
        <time>2020-02-07T12:40:50.000Z</time>
      </trkpt>
      <trkpt lat="44.77301" lon="5.04803">
        <ele>393</ele>
        <time>2020-02-07T12:40:51.000Z</time>
      </trkpt>
      <trkpt lat="44.77301" lon="5.04801">
        <ele>393</ele>
        <time>2020-02-07T12:40:52.000Z</time>
      </trkpt>
      <trkpt lat="44.77301" lon="5.04799">
        <ele>392</ele>
        <time>2020-02-07T12:40:53.000Z</time>
      </trkpt>
      <trkpt lat="44.77301" lon="5.04797">
        <ele>392</ele>
        <time>2020-02-07T12:40:54.000Z</time>
      </trkpt>
      <trkpt lat="44.77302" lon="5.04796">
        <ele>392</ele>
        <time>2020-02-07T12:40:55.000Z</time>
      </trkpt>
      <trkpt lat="44.77302" lon="5.04794">
        <ele>392</ele>
        <time>2020-02-07T12:40:56.000Z</time>
      </trkpt>
      <trkpt lat="44.77302" lon="5.04792">
        <ele>392</ele>
        <time>2020-02-07T12:40:57.000Z</time>
      </trkpt>
      <trkpt lat="44.77302" lon="5.04791">
        <ele>392</ele>
        <time>2020-02-07T12:40:58.000Z</time>
      </trkpt>
      <trkpt lat="44.77302" lon="5.04789">
        <ele>392</ele>
        <time>2020-02-07T12:40:59.000Z</time>
      </trkpt>
      <trkpt lat="44.77302" lon="5.04787">
        <ele>392</ele>
        <time>2020-02-07T12:41:00.000Z</time>
      </trkpt>
      <trkpt lat="44.77302" lon="5.04785">
        <ele>392</ele>
        <time>2020-02-07T12:41:01.000Z</time>
      </trkpt>
      <trkpt lat="44.77303" lon="5.04784">
        <ele>392</ele>
        <time>2020-02-07T12:41:02.000Z</time>
      </trkpt>
      <trkpt lat="44.77303" lon="5.04782">
        <ele>392</ele>
        <time>2020-02-07T12:41:03.000Z</time>
      </trkpt>
      <trkpt lat="44.77303" lon="5.0478">
        <ele>392</ele>
        <time>2020-02-07T12:41:04.000Z</time>
      </trkpt>
      <trkpt lat="44.77303" lon="5.04778">
        <ele>392</ele>
        <time>2020-02-07T12:41:05.000Z</time>
      </trkpt>
      <trkpt lat="44.77304" lon="5.04777">
        <ele>392</ele>
        <time>2020-02-07T12:41:06.000Z</time>
      </trkpt>
      <trkpt lat="44.77304" lon="5.04775">
        <ele>392</ele>
        <time>2020-02-07T12:41:07.000Z</time>
      </trkpt>
      <trkpt lat="44.77305" lon="5.04774">
        <ele>391</ele>
        <time>2020-02-07T12:41:08.000Z</time>
      </trkpt>
      <trkpt lat="44.77305" lon="5.04772">
        <ele>391</ele>
        <time>2020-02-07T12:41:09.000Z</time>
      </trkpt>
      <trkpt lat="44.77305" lon="5.0477">
        <ele>391</ele>
        <time>2020-02-07T12:41:10.000Z</time>
      </trkpt>
      <trkpt lat="44.77306" lon="5.04769">
        <ele>391</ele>
        <time>2020-02-07T12:41:11.000Z</time>
      </trkpt>
      <trkpt lat="44.77306" lon="5.04767">
        <ele>391</ele>
        <time>2020-02-07T12:41:12.000Z</time>
      </trkpt>
      <trkpt lat="44.77306" lon="5.04766">
        <ele>391</ele>
        <time>2020-02-07T12:41:13.000Z</time>
      </trkpt>
      <trkpt lat="44.77307" lon="5.04765">
        <ele>391</ele>
        <time>2020-02-07T12:41:14.000Z</time>
      </trkpt>
      <trkpt lat="44.77307" lon="5.04764">
        <ele>391</ele>
        <time>2020-02-07T12:41:15.000Z</time>
      </trkpt>
      <trkpt lat="44.77307" lon="5.04762">
        <ele>391</ele>
        <time>2020-02-07T12:41:16.000Z</time>
      </trkpt>
      <trkpt lat="44.77308" lon="5.04761">
        <ele>391</ele>
        <time>2020-02-07T12:41:17.000Z</time>
      </trkpt>
      <trkpt lat="44.77308" lon="5.04759">
        <ele>391</ele>
        <time>2020-02-07T12:41:18.000Z</time>
      </trkpt>
      <trkpt lat="44.77308" lon="5.04758">
        <ele>391</ele>
        <time>2020-02-07T12:41:19.000Z</time>
      </trkpt>
      <trkpt lat="44.77309" lon="5.04756">
        <ele>391</ele>
        <time>2020-02-07T12:41:20.000Z</time>
      </trkpt>
      <trkpt lat="44.77309" lon="5.04755">
        <ele>391</ele>
        <time>2020-02-07T12:41:21.000Z</time>
      </trkpt>
      <trkpt lat="44.7731" lon="5.04754">
        <ele>390</ele>
        <time>2020-02-07T12:41:22.000Z</time>
      </trkpt>
      <trkpt lat="44.7731" lon="5.04752">
        <ele>390</ele>
        <time>2020-02-07T12:41:23.000Z</time>
      </trkpt>
      <trkpt lat="44.77311" lon="5.04751">
        <ele>390</ele>
        <time>2020-02-07T12:41:24.000Z</time>
      </trkpt>
      <trkpt lat="44.77311" lon="5.04749">
        <ele>390</ele>
        <time>2020-02-07T12:41:25.000Z</time>
      </trkpt>
      <trkpt lat="44.77311" lon="5.04748">
        <ele>390</ele>
        <time>2020-02-07T12:41:26.000Z</time>
      </trkpt>
      <trkpt lat="44.77312" lon="5.04747">
        <ele>390</ele>
        <time>2020-02-07T12:41:27.000Z</time>
      </trkpt>
      <trkpt lat="44.77312" lon="5.04745">
        <ele>389</ele>
        <time>2020-02-07T12:41:28.000Z</time>
      </trkpt>
      <trkpt lat="44.77313" lon="5.04744">
        <ele>389</ele>
        <time>2020-02-07T12:41:29.000Z</time>
      </trkpt>
      <trkpt lat="44.77313" lon="5.04742">
        <ele>389</ele>
        <time>2020-02-07T12:41:30.000Z</time>
      </trkpt>
      <trkpt lat="44.77313" lon="5.0474">
        <ele>389</ele>
        <time>2020-02-07T12:41:31.000Z</time>
      </trkpt>
      <trkpt lat="44.77313" lon="5.04739">
        <ele>389</ele>
        <time>2020-02-07T12:41:32.000Z</time>
      </trkpt>
      <trkpt lat="44.77313" lon="5.04737">
        <ele>389</ele>
        <time>2020-02-07T12:41:33.000Z</time>
      </trkpt>
      <trkpt lat="44.77314" lon="5.04736">
        <ele>389</ele>
        <time>2020-02-07T12:41:34.000Z</time>
      </trkpt>
      <trkpt lat="44.77314" lon="5.04734">
        <ele>388</ele>
        <time>2020-02-07T12:41:35.000Z</time>
      </trkpt>
      <trkpt lat="44.77314" lon="5.04733">
        <ele>388</ele>
        <time>2020-02-07T12:41:36.000Z</time>
      </trkpt>
      <trkpt lat="44.77314" lon="5.04731">
        <ele>388</ele>
        <time>2020-02-07T12:41:37.000Z</time>
      </trkpt>
      <trkpt lat="44.77314" lon="5.04729">
        <ele>388</ele>
        <time>2020-02-07T12:41:38.000Z</time>
      </trkpt>
      <trkpt lat="44.77314" lon="5.04728">
        <ele>388</ele>
        <time>2020-02-07T12:41:39.000Z</time>
      </trkpt>
      <trkpt lat="44.77314" lon="5.04726">
        <ele>388</ele>
        <time>2020-02-07T12:41:40.000Z</time>
      </trkpt>
      <trkpt lat="44.77314" lon="5.04725">
        <ele>388</ele>
        <time>2020-02-07T12:41:41.000Z</time>
      </trkpt>
      <trkpt lat="44.77314" lon="5.04723">
        <ele>387</ele>
        <time>2020-02-07T12:41:42.000Z</time>
      </trkpt>
      <trkpt lat="44.77314" lon="5.04722">
        <ele>387</ele>
        <time>2020-02-07T12:41:43.000Z</time>
      </trkpt>
      <trkpt lat="44.77314" lon="5.0472">
        <ele>387</ele>
        <time>2020-02-07T12:41:44.000Z</time>
      </trkpt>
      <trkpt lat="44.77315" lon="5.04719">
        <ele>387</ele>
        <time>2020-02-07T12:41:45.000Z</time>
      </trkpt>
      <trkpt lat="44.77315" lon="5.04717">
        <ele>387</ele>
        <time>2020-02-07T12:41:46.000Z</time>
      </trkpt>
      <trkpt lat="44.77315" lon="5.04715">
        <ele>387</ele>
        <time>2020-02-07T12:41:47.000Z</time>
      </trkpt>
      <trkpt lat="44.77315" lon="5.04714">
        <ele>387</ele>
        <time>2020-02-07T12:41:48.000Z</time>
      </trkpt>
      <trkpt lat="44.77316" lon="5.04712">
        <ele>387</ele>
        <time>2020-02-07T12:41:49.000Z</time>
      </trkpt>
      <trkpt lat="44.77316" lon="5.04711">
        <ele>386</ele>
        <time>2020-02-07T12:41:50.000Z</time>
      </trkpt>
      <trkpt lat="44.77316" lon="5.04709">
        <ele>386</ele>
        <time>2020-02-07T12:41:51.000Z</time>
      </trkpt>
      <trkpt lat="44.77316" lon="5.04708">
        <ele>386</ele>
        <time>2020-02-07T12:41:52.000Z</time>
      </trkpt>
      <trkpt lat="44.77316" lon="5.04706">
        <ele>386</ele>
        <time>2020-02-07T12:41:53.000Z</time>
      </trkpt>
      <trkpt lat="44.77316" lon="5.04705">
        <ele>386</ele>
        <time>2020-02-07T12:41:54.000Z</time>
      </trkpt>
      <trkpt lat="44.77316" lon="5.04703">
        <ele>386</ele>
        <time>2020-02-07T12:41:55.000Z</time>
      </trkpt>
      <trkpt lat="44.77316" lon="5.04702">
        <ele>386</ele>
        <time>2020-02-07T12:41:56.000Z</time>
      </trkpt>
      <trkpt lat="44.77317" lon="5.047">
        <ele>386</ele>
        <time>2020-02-07T12:41:57.000Z</time>
      </trkpt>
      <trkpt lat="44.77317" lon="5.04699">
        <ele>386</ele>
        <time>2020-02-07T12:41:58.000Z</time>
      </trkpt>
      <trkpt lat="44.77317" lon="5.04697">
        <ele>386</ele>
        <time>2020-02-07T12:41:59.000Z</time>
      </trkpt>
      <trkpt lat="44.77317" lon="5.04696">
        <ele>386</ele>
        <time>2020-02-07T12:42:00.000Z</time>
      </trkpt>
      <trkpt lat="44.77317" lon="5.04694">
        <ele>386</ele>
        <time>2020-02-07T12:42:01.000Z</time>
      </trkpt>
      <trkpt lat="44.77317" lon="5.04693">
        <ele>386</ele>
        <time>2020-02-07T12:42:02.000Z</time>
      </trkpt>
      <trkpt lat="44.77318" lon="5.04691">
        <ele>385</ele>
        <time>2020-02-07T12:42:03.000Z</time>
      </trkpt>
      <trkpt lat="44.77318" lon="5.0469">
        <ele>385</ele>
        <time>2020-02-07T12:42:04.000Z</time>
      </trkpt>
      <trkpt lat="44.77318" lon="5.04688">
        <ele>385</ele>
        <time>2020-02-07T12:42:05.000Z</time>
      </trkpt>
      <trkpt lat="44.77318" lon="5.04687">
        <ele>385</ele>
        <time>2020-02-07T12:42:06.000Z</time>
      </trkpt>
      <trkpt lat="44.77318" lon="5.04685">
        <ele>385</ele>
        <time>2020-02-07T12:42:07.000Z</time>
      </trkpt>
      <trkpt lat="44.77319" lon="5.04684">
        <ele>385</ele>
        <time>2020-02-07T12:42:08.000Z</time>
      </trkpt>
      <trkpt lat="44.77319" lon="5.04682">
        <ele>385</ele>
        <time>2020-02-07T12:42:09.000Z</time>
      </trkpt>
      <trkpt lat="44.77319" lon="5.0468">
        <ele>385</ele>
        <time>2020-02-07T12:42:10.000Z</time>
      </trkpt>
      <trkpt lat="44.77319" lon="5.04679">
        <ele>385</ele>
        <time>2020-02-07T12:42:11.000Z</time>
      </trkpt>
      <trkpt lat="44.7732" lon="5.04677">
        <ele>385</ele>
        <time>2020-02-07T12:42:12.000Z</time>
      </trkpt>
      <trkpt lat="44.7732" lon="5.04675">
        <ele>385</ele>
        <time>2020-02-07T12:42:13.000Z</time>
      </trkpt>
      <trkpt lat="44.7732" lon="5.04674">
        <ele>385</ele>
        <time>2020-02-07T12:42:14.000Z</time>
      </trkpt>
      <trkpt lat="44.77321" lon="5.04672">
        <ele>385</ele>
        <time>2020-02-07T12:42:15.000Z</time>
      </trkpt>
      <trkpt lat="44.77321" lon="5.04671">
        <ele>385</ele>
        <time>2020-02-07T12:42:16.000Z</time>
      </trkpt>
      <trkpt lat="44.77321" lon="5.0467">
        <ele>385</ele>
        <time>2020-02-07T12:42:17.000Z</time>
      </trkpt>
      <trkpt lat="44.77322" lon="5.04668">
        <ele>384</ele>
        <time>2020-02-07T12:42:18.000Z</time>
      </trkpt>
      <trkpt lat="44.77322" lon="5.04667">
        <ele>384</ele>
        <time>2020-02-07T12:42:19.000Z</time>
      </trkpt>
      <trkpt lat="44.77322" lon="5.04665">
        <ele>384</ele>
        <time>2020-02-07T12:42:20.000Z</time>
      </trkpt>
      <trkpt lat="44.77322" lon="5.04664">
        <ele>384</ele>
        <time>2020-02-07T12:42:21.000Z</time>
      </trkpt>
      <trkpt lat="44.77322" lon="5.04663">
        <ele>384</ele>
        <time>2020-02-07T12:42:22.000Z</time>
      </trkpt>
      <trkpt lat="44.77322" lon="5.04661">
        <ele>384</ele>
        <time>2020-02-07T12:42:23.000Z</time>
      </trkpt>
      <trkpt lat="44.77322" lon="5.0466">
        <ele>384</ele>
        <time>2020-02-07T12:42:24.000Z</time>
      </trkpt>
      <trkpt lat="44.77322" lon="5.04659">
        <ele>384</ele>
        <time>2020-02-07T12:42:25.000Z</time>
      </trkpt>
      <trkpt lat="44.77322" lon="5.04658">
        <ele>384</ele>
        <time>2020-02-07T12:42:26.000Z</time>
      </trkpt>
      <trkpt lat="44.77322" lon="5.04657">
        <ele>384</ele>
        <time>2020-02-07T12:42:27.000Z</time>
      </trkpt>
      <trkpt lat="44.77323" lon="5.04656">
        <ele>384</ele>
        <time>2020-02-07T12:42:28.000Z</time>
      </trkpt>
      <trkpt lat="44.77323" lon="5.04655">
        <ele>384</ele>
        <time>2020-02-07T12:42:29.000Z</time>
      </trkpt>
      <trkpt lat="44.77323" lon="5.04654">
        <ele>384</ele>
        <time>2020-02-07T12:42:30.000Z</time>
      </trkpt>
      <trkpt lat="44.77323" lon="5.04653">
        <ele>384</ele>
        <time>2020-02-07T12:42:31.000Z</time>
      </trkpt>
      <trkpt lat="44.77323" lon="5.04653">
        <ele>384</ele>
        <time>2020-02-07T12:42:32.000Z</time>
      </trkpt>
      <trkpt lat="44.77323" lon="5.04653">
        <ele>384</ele>
        <time>2020-02-07T12:42:33.000Z</time>
      </trkpt>
      <trkpt lat="44.77323" lon="5.04653">
        <ele>384</ele>
        <time>2020-02-07T12:42:34.000Z</time>
      </trkpt>
      <trkpt lat="44.77323" lon="5.04652">
        <ele>384</ele>
        <time>2020-02-07T12:42:35.000Z</time>
      </trkpt>
      <trkpt lat="44.77323" lon="5.04652">
        <ele>384</ele>
        <time>2020-02-07T12:42:36.000Z</time>
      </trkpt>
      <trkpt lat="44.77323" lon="5.04651">
        <ele>384</ele>
        <time>2020-02-07T12:42:37.000Z</time>
      </trkpt>
      <trkpt lat="44.77323" lon="5.04651">
        <ele>384</ele>
        <time>2020-02-07T12:42:38.000Z</time>
      </trkpt>
      <trkpt lat="44.77323" lon="5.04651">
        <ele>384</ele>
        <time>2020-02-07T12:42:39.000Z</time>
      </trkpt>
      <trkpt lat="44.77323" lon="5.04651">
        <ele>384</ele>
        <time>2020-02-07T12:42:40.000Z</time>
      </trkpt>
      <trkpt lat="44.77323" lon="5.04651">
        <ele>384</ele>
        <time>2020-02-07T12:42:41.000Z</time>
      </trkpt>
      <trkpt lat="44.77323" lon="5.04651">
        <ele>384</ele>
        <time>2020-02-07T12:42:42.000Z</time>
      </trkpt>
      <trkpt lat="44.77323" lon="5.04651">
        <ele>384</ele>
        <time>2020-02-07T12:42:43.000Z</time>
      </trkpt>
      <trkpt lat="44.77323" lon="5.04651">
        <ele>384</ele>
        <time>2020-02-07T12:42:44.000Z</time>
      </trkpt>
      <trkpt lat="44.77323" lon="5.04651">
        <ele>384</ele>
        <time>2020-02-07T12:42:45.000Z</time>
      </trkpt>
      <trkpt lat="44.77323" lon="5.04651">
        <ele>384</ele>
        <time>2020-02-07T12:42:46.000Z</time>
      </trkpt>
      <trkpt lat="44.77323" lon="5.04651">
        <ele>384</ele>
        <time>2020-02-07T12:42:47.000Z</time>
      </trkpt>
      <trkpt lat="44.77323" lon="5.04651">
        <ele>384</ele>
        <time>2020-02-07T12:42:48.000Z</time>
      </trkpt>
      <trkpt lat="44.77323" lon="5.04651">
        <ele>384</ele>
        <time>2020-02-07T12:42:49.000Z</time>
      </trkpt>
      <trkpt lat="44.77323" lon="5.04651">
        <ele>384</ele>
        <time>2020-02-07T12:42:50.000Z</time>
      </trkpt>
      <trkpt lat="44.77323" lon="5.04651">
        <ele>384</ele>
        <time>2020-02-07T12:42:51.000Z</time>
      </trkpt>
      <trkpt lat="44.77323" lon="5.04651">
        <ele>384</ele>
        <time>2020-02-07T12:42:52.000Z</time>
      </trkpt>
      <trkpt lat="44.77323" lon="5.04651">
        <ele>384</ele>
        <time>2020-02-07T12:42:53.000Z</time>
      </trkpt>
      <trkpt lat="44.77323" lon="5.04651">
        <ele>384</ele>
        <time>2020-02-07T12:42:54.000Z</time>
      </trkpt>
      <trkpt lat="44.77323" lon="5.04651">
        <ele>384</ele>
        <time>2020-02-07T12:42:55.000Z</time>
      </trkpt>
      <trkpt lat="44.77323" lon="5.04651">
        <ele>384</ele>
        <time>2020-02-07T12:42:56.000Z</time>
      </trkpt>
      <trkpt lat="44.77323" lon="5.04651">
        <ele>384</ele>
        <time>2020-02-07T12:42:57.000Z</time>
      </trkpt>
      <trkpt lat="44.77323" lon="5.0465">
        <ele>384</ele>
        <time>2020-02-07T12:42:58.000Z</time>
      </trkpt>
      <trkpt lat="44.77323" lon="5.0465">
        <ele>384</ele>
        <time>2020-02-07T12:42:59.000Z</time>
      </trkpt>
      <trkpt lat="44.77323" lon="5.0465">
        <ele>384</ele>
        <time>2020-02-07T12:43:00.000Z</time>
      </trkpt>
      <trkpt lat="44.77323" lon="5.0465">
        <ele>384</ele>
        <time>2020-02-07T12:43:01.000Z</time>
      </trkpt>
      <trkpt lat="44.77323" lon="5.0465">
        <ele>384</ele>
        <time>2020-02-07T12:43:02.000Z</time>
      </trkpt>
      <trkpt lat="44.77323" lon="5.0465">
        <ele>384</ele>
        <time>2020-02-07T12:43:03.000Z</time>
      </trkpt>
      <trkpt lat="44.77323" lon="5.0465">
        <ele>384</ele>
        <time>2020-02-07T12:43:04.000Z</time>
      </trkpt>
      <trkpt lat="44.77323" lon="5.0465">
        <ele>384</ele>
        <time>2020-02-07T12:43:05.000Z</time>
      </trkpt>
      <trkpt lat="44.77323" lon="5.0465">
        <ele>384</ele>
        <time>2020-02-07T12:43:06.000Z</time>
      </trkpt>
      <trkpt lat="44.77323" lon="5.0465">
        <ele>384</ele>
        <time>2020-02-07T12:43:07.000Z</time>
      </trkpt>
      <trkpt lat="44.77323" lon="5.0465">
        <ele>384</ele>
        <time>2020-02-07T12:43:08.000Z</time>
      </trkpt>
      <trkpt lat="44.77323" lon="5.0465">
        <ele>384</ele>
        <time>2020-02-07T12:43:09.000Z</time>
      </trkpt>
      <trkpt lat="44.77323" lon="5.0465">
        <ele>384</ele>
        <time>2020-02-07T12:43:10.000Z</time>
      </trkpt>
      <trkpt lat="44.77323" lon="5.0465">
        <ele>384</ele>
        <time>2020-02-07T12:43:11.000Z</time>
      </trkpt>
      <trkpt lat="44.77323" lon="5.0465">
        <ele>384</ele>
        <time>2020-02-07T12:43:12.000Z</time>
      </trkpt>
      <trkpt lat="44.77323" lon="5.0465">
        <ele>384</ele>
        <time>2020-02-07T12:43:13.000Z</time>
      </trkpt>
      <trkpt lat="44.77323" lon="5.0465">
        <ele>384</ele>
        <time>2020-02-07T12:43:14.000Z</time>
      </trkpt>
      <trkpt lat="44.77323" lon="5.0465">
        <ele>384</ele>
        <time>2020-02-07T12:43:15.000Z</time>
      </trkpt>
      <trkpt lat="44.77323" lon="5.0465">
        <ele>384</ele>
        <time>2020-02-07T12:43:16.000Z</time>
      </trkpt>
      <trkpt lat="44.77323" lon="5.0465">
        <ele>384</ele>
        <time>2020-02-07T12:43:17.000Z</time>
      </trkpt>
      <trkpt lat="44.77323" lon="5.0465">
        <ele>384</ele>
        <time>2020-02-07T12:43:18.000Z</time>
      </trkpt>
      <trkpt lat="44.77323" lon="5.0465">
        <ele>384</ele>
        <time>2020-02-07T12:43:19.000Z</time>
      </trkpt>
      <trkpt lat="44.77323" lon="5.0465">
        <ele>384</ele>
        <time>2020-02-07T12:43:20.000Z</time>
      </trkpt>
      <trkpt lat="44.77323" lon="5.0465">
        <ele>384</ele>
        <time>2020-02-07T12:43:21.000Z</time>
      </trkpt>
      <trkpt lat="44.77323" lon="5.0465">
        <ele>384</ele>
        <time>2020-02-07T12:43:22.000Z</time>
      </trkpt>
      <trkpt lat="44.77323" lon="5.0465">
        <ele>384</ele>
        <time>2020-02-07T12:43:23.000Z</time>
      </trkpt>
      <trkpt lat="44.77324" lon="5.0465">
        <ele>384</ele>
        <time>2020-02-07T12:43:24.000Z</time>
      </trkpt>
      <trkpt lat="44.77324" lon="5.04649">
        <ele>384</ele>
        <time>2020-02-07T12:43:25.000Z</time>
      </trkpt>
      <trkpt lat="44.77324" lon="5.04649">
        <ele>384</ele>
        <time>2020-02-07T12:43:26.000Z</time>
      </trkpt>
      <trkpt lat="44.77324" lon="5.04649">
        <ele>384</ele>
        <time>2020-02-07T12:43:27.000Z</time>
      </trkpt>
      <trkpt lat="44.77324" lon="5.04649">
        <ele>384</ele>
        <time>2020-02-07T12:43:28.000Z</time>
      </trkpt>
      <trkpt lat="44.77324" lon="5.04649">
        <ele>384</ele>
        <time>2020-02-07T12:43:29.000Z</time>
      </trkpt>
      <trkpt lat="44.77324" lon="5.04649">
        <ele>384</ele>
        <time>2020-02-07T12:43:30.000Z</time>
      </trkpt>
      <trkpt lat="44.77324" lon="5.04649">
        <ele>384</ele>
        <time>2020-02-07T12:43:31.000Z</time>
      </trkpt>
      <trkpt lat="44.77324" lon="5.04649">
        <ele>384</ele>
        <time>2020-02-07T12:43:32.000Z</time>
      </trkpt>
      <trkpt lat="44.77324" lon="5.04649">
        <ele>384</ele>
        <time>2020-02-07T12:43:33.000Z</time>
      </trkpt>
      <trkpt lat="44.77324" lon="5.04649">
        <ele>384</ele>
        <time>2020-02-07T12:43:34.000Z</time>
      </trkpt>
      <trkpt lat="44.77324" lon="5.04649">
        <ele>384</ele>
        <time>2020-02-07T12:43:35.000Z</time>
      </trkpt>
      <trkpt lat="44.77324" lon="5.04649">
        <ele>384</ele>
        <time>2020-02-07T12:43:36.000Z</time>
      </trkpt>
      <trkpt lat="44.77324" lon="5.04649">
        <ele>384</ele>
        <time>2020-02-07T12:43:37.000Z</time>
      </trkpt>
      <trkpt lat="44.77324" lon="5.04648">
        <ele>384</ele>
        <time>2020-02-07T12:43:38.000Z</time>
      </trkpt>
      <trkpt lat="44.77324" lon="5.04648">
        <ele>384</ele>
        <time>2020-02-07T12:43:39.000Z</time>
      </trkpt>
      <trkpt lat="44.77324" lon="5.04648">
        <ele>384</ele>
        <time>2020-02-07T12:43:40.000Z</time>
      </trkpt>
      <trkpt lat="44.77324" lon="5.04648">
        <ele>384</ele>
        <time>2020-02-07T12:43:41.000Z</time>
      </trkpt>
      <trkpt lat="44.77324" lon="5.04648">
        <ele>384</ele>
        <time>2020-02-07T12:43:42.000Z</time>
      </trkpt>
      <trkpt lat="44.77324" lon="5.04648">
        <ele>384</ele>
        <time>2020-02-07T12:43:43.000Z</time>
      </trkpt>
      <trkpt lat="44.77324" lon="5.04648">
        <ele>384</ele>
        <time>2020-02-07T12:43:44.000Z</time>
      </trkpt>
      <trkpt lat="44.77324" lon="5.04648">
        <ele>384</ele>
        <time>2020-02-07T12:43:45.000Z</time>
      </trkpt>
      <trkpt lat="44.77324" lon="5.04648">
        <ele>384</ele>
        <time>2020-02-07T12:43:46.000Z</time>
      </trkpt>
      <trkpt lat="44.77324" lon="5.04648">
        <ele>384</ele>
        <time>2020-02-07T12:43:47.000Z</time>
      </trkpt>
      <trkpt lat="44.77324" lon="5.04648">
        <ele>384</ele>
        <time>2020-02-07T12:43:48.000Z</time>
      </trkpt>
      <trkpt lat="44.77324" lon="5.04648">
        <ele>384</ele>
        <time>2020-02-07T12:43:49.000Z</time>
      </trkpt>
      <trkpt lat="44.77324" lon="5.04648">
        <ele>384</ele>
        <time>2020-02-07T12:43:50.000Z</time>
      </trkpt>
      <trkpt lat="44.77324" lon="5.04648">
        <ele>384</ele>
        <time>2020-02-07T12:43:51.000Z</time>
      </trkpt>
      <trkpt lat="44.77324" lon="5.04648">
        <ele>384</ele>
        <time>2020-02-07T12:43:52.000Z</time>
      </trkpt>
      <trkpt lat="44.77324" lon="5.04648">
        <ele>384</ele>
        <time>2020-02-07T12:43:53.000Z</time>
      </trkpt>
      <trkpt lat="44.77324" lon="5.04648">
        <ele>384</ele>
        <time>2020-02-07T12:43:54.000Z</time>
      </trkpt>
      <trkpt lat="44.77324" lon="5.04648">
        <ele>384</ele>
        <time>2020-02-07T12:43:55.000Z</time>
      </trkpt>
      <trkpt lat="44.77324" lon="5.04648">
        <ele>384</ele>
        <time>2020-02-07T12:43:56.000Z</time>
      </trkpt>
      <trkpt lat="44.77324" lon="5.04647">
        <ele>384</ele>
        <time>2020-02-07T12:43:57.000Z</time>
      </trkpt>
      <trkpt lat="44.77324" lon="5.04646">
        <ele>384</ele>
        <time>2020-02-07T12:43:58.000Z</time>
      </trkpt>
      <trkpt lat="44.77325" lon="5.04646">
        <ele>384</ele>
        <time>2020-02-07T12:43:59.000Z</time>
      </trkpt>
      <trkpt lat="44.77326" lon="5.04645">
        <ele>384</ele>
        <time>2020-02-07T12:44:00.000Z</time>
      </trkpt>
      <trkpt lat="44.77326" lon="5.04645">
        <ele>384</ele>
        <time>2020-02-07T12:44:01.000Z</time>
      </trkpt>
      <trkpt lat="44.77327" lon="5.04645">
        <ele>383</ele>
        <time>2020-02-07T12:44:02.000Z</time>
      </trkpt>
      <trkpt lat="44.77327" lon="5.04645">
        <ele>383</ele>
        <time>2020-02-07T12:44:03.000Z</time>
      </trkpt>
      <trkpt lat="44.77327" lon="5.04645">
        <ele>383</ele>
        <time>2020-02-07T12:44:04.000Z</time>
      </trkpt>
      <trkpt lat="44.77327" lon="5.04645">
        <ele>383</ele>
        <time>2020-02-07T12:44:05.000Z</time>
      </trkpt>
      <trkpt lat="44.77327" lon="5.04644">
        <ele>383</ele>
        <time>2020-02-07T12:44:06.000Z</time>
      </trkpt>
      <trkpt lat="44.77327" lon="5.04644">
        <ele>383</ele>
        <time>2020-02-07T12:44:07.000Z</time>
      </trkpt>
      <trkpt lat="44.77327" lon="5.04644">
        <ele>383</ele>
        <time>2020-02-07T12:44:08.000Z</time>
      </trkpt>
      <trkpt lat="44.77327" lon="5.04644">
        <ele>383</ele>
        <time>2020-02-07T12:44:09.000Z</time>
      </trkpt>
      <trkpt lat="44.77327" lon="5.04644">
        <ele>383</ele>
        <time>2020-02-07T12:44:10.000Z</time>
      </trkpt>
      <trkpt lat="44.77327" lon="5.04644">
        <ele>383</ele>
        <time>2020-02-07T12:44:11.000Z</time>
      </trkpt>
      <trkpt lat="44.77327" lon="5.04644">
        <ele>383</ele>
        <time>2020-02-07T12:44:12.000Z</time>
      </trkpt>
      <trkpt lat="44.77327" lon="5.04644">
        <ele>383</ele>
        <time>2020-02-07T12:44:13.000Z</time>
      </trkpt>
      <trkpt lat="44.77326" lon="5.04644">
        <ele>383</ele>
        <time>2020-02-07T12:44:14.000Z</time>
      </trkpt>
      <trkpt lat="44.77326" lon="5.04644">
        <ele>383</ele>
        <time>2020-02-07T12:44:15.000Z</time>
      </trkpt>
      <trkpt lat="44.77326" lon="5.04644">
        <ele>383</ele>
        <time>2020-02-07T12:44:16.000Z</time>
      </trkpt>
      <trkpt lat="44.77326" lon="5.04644">
        <ele>383</ele>
        <time>2020-02-07T12:44:17.000Z</time>
      </trkpt>
      <trkpt lat="44.77326" lon="5.04644">
        <ele>383</ele>
        <time>2020-02-07T12:44:18.000Z</time>
      </trkpt>
      <trkpt lat="44.77326" lon="5.04644">
        <ele>383</ele>
        <time>2020-02-07T12:44:19.000Z</time>
      </trkpt>
      <trkpt lat="44.77326" lon="5.04644">
        <ele>383</ele>
        <time>2020-02-07T12:44:20.000Z</time>
      </trkpt>
      <trkpt lat="44.77327" lon="5.04643">
        <ele>383</ele>
        <time>2020-02-07T12:44:21.000Z</time>
      </trkpt>
      <trkpt lat="44.77328" lon="5.04643">
        <ele>383</ele>
        <time>2020-02-07T12:44:22.000Z</time>
      </trkpt>
      <trkpt lat="44.77329" lon="5.04642">
        <ele>383</ele>
        <time>2020-02-07T12:44:23.000Z</time>
      </trkpt>
      <trkpt lat="44.7733" lon="5.04641">
        <ele>383</ele>
        <time>2020-02-07T12:44:24.000Z</time>
      </trkpt>
      <trkpt lat="44.7733" lon="5.04641">
        <ele>383</ele>
        <time>2020-02-07T12:44:25.000Z</time>
      </trkpt>
      <trkpt lat="44.77331" lon="5.0464">
        <ele>383</ele>
        <time>2020-02-07T12:44:26.000Z</time>
      </trkpt>
      <trkpt lat="44.77332" lon="5.04639">
        <ele>383</ele>
        <time>2020-02-07T12:44:27.000Z</time>
      </trkpt>
      <trkpt lat="44.77332" lon="5.04639">
        <ele>383</ele>
        <time>2020-02-07T12:44:28.000Z</time>
      </trkpt>
      <trkpt lat="44.77333" lon="5.04638">
        <ele>383</ele>
        <time>2020-02-07T12:44:29.000Z</time>
      </trkpt>
      <trkpt lat="44.77334" lon="5.04637">
        <ele>383</ele>
        <time>2020-02-07T12:44:30.000Z</time>
      </trkpt>
      <trkpt lat="44.77335" lon="5.04637">
        <ele>383</ele>
        <time>2020-02-07T12:44:31.000Z</time>
      </trkpt>
      <trkpt lat="44.77336" lon="5.04637">
        <ele>383</ele>
        <time>2020-02-07T12:44:32.000Z</time>
      </trkpt>
      <trkpt lat="44.77337" lon="5.04636">
        <ele>383</ele>
        <time>2020-02-07T12:44:33.000Z</time>
      </trkpt>
      <trkpt lat="44.77338" lon="5.04635">
        <ele>383</ele>
        <time>2020-02-07T12:44:34.000Z</time>
      </trkpt>
      <trkpt lat="44.77339" lon="5.04635">
        <ele>384</ele>
        <time>2020-02-07T12:44:35.000Z</time>
      </trkpt>
      <trkpt lat="44.77339" lon="5.04635">
        <ele>384</ele>
        <time>2020-02-07T12:44:36.000Z</time>
      </trkpt>
      <trkpt lat="44.7734" lon="5.04634">
        <ele>383</ele>
        <time>2020-02-07T12:44:37.000Z</time>
      </trkpt>
      <trkpt lat="44.77341" lon="5.04634">
        <ele>384</ele>
        <time>2020-02-07T12:44:38.000Z</time>
      </trkpt>
      <trkpt lat="44.77342" lon="5.04633">
        <ele>383</ele>
        <time>2020-02-07T12:44:39.000Z</time>
      </trkpt>
      <trkpt lat="44.77342" lon="5.04633">
        <ele>383</ele>
        <time>2020-02-07T12:44:40.000Z</time>
      </trkpt>
      <trkpt lat="44.77343" lon="5.04632">
        <ele>383</ele>
        <time>2020-02-07T12:44:41.000Z</time>
      </trkpt>
      <trkpt lat="44.77344" lon="5.04631">
        <ele>383</ele>
        <time>2020-02-07T12:44:42.000Z</time>
      </trkpt>
      <trkpt lat="44.77345" lon="5.0463">
        <ele>383</ele>
        <time>2020-02-07T12:44:43.000Z</time>
      </trkpt>
      <trkpt lat="44.77346" lon="5.0463">
        <ele>383</ele>
        <time>2020-02-07T12:44:44.000Z</time>
      </trkpt>
      <trkpt lat="44.77347" lon="5.04629">
        <ele>383</ele>
        <time>2020-02-07T12:44:45.000Z</time>
      </trkpt>
      <trkpt lat="44.77348" lon="5.04629">
        <ele>383</ele>
        <time>2020-02-07T12:44:46.000Z</time>
      </trkpt>
      <trkpt lat="44.77349" lon="5.04628">
        <ele>383</ele>
        <time>2020-02-07T12:44:47.000Z</time>
      </trkpt>
      <trkpt lat="44.7735" lon="5.04627">
        <ele>383</ele>
        <time>2020-02-07T12:44:48.000Z</time>
      </trkpt>
      <trkpt lat="44.77351" lon="5.04626">
        <ele>383</ele>
        <time>2020-02-07T12:44:49.000Z</time>
      </trkpt>
      <trkpt lat="44.77352" lon="5.04626">
        <ele>383</ele>
        <time>2020-02-07T12:44:50.000Z</time>
      </trkpt>
      <trkpt lat="44.77353" lon="5.04625">
        <ele>383</ele>
        <time>2020-02-07T12:44:51.000Z</time>
      </trkpt>
      <trkpt lat="44.77353" lon="5.04625">
        <ele>383</ele>
        <time>2020-02-07T12:44:52.000Z</time>
      </trkpt>
      <trkpt lat="44.77354" lon="5.04624">
        <ele>383</ele>
        <time>2020-02-07T12:44:53.000Z</time>
      </trkpt>
      <trkpt lat="44.77355" lon="5.04623">
        <ele>383</ele>
        <time>2020-02-07T12:44:54.000Z</time>
      </trkpt>
      <trkpt lat="44.77356" lon="5.04622">
        <ele>383</ele>
        <time>2020-02-07T12:44:55.000Z</time>
      </trkpt>
      <trkpt lat="44.77356" lon="5.04621">
        <ele>383</ele>
        <time>2020-02-07T12:44:56.000Z</time>
      </trkpt>
      <trkpt lat="44.77357" lon="5.04621">
        <ele>383</ele>
        <time>2020-02-07T12:44:57.000Z</time>
      </trkpt>
      <trkpt lat="44.77358" lon="5.0462">
        <ele>383</ele>
        <time>2020-02-07T12:44:58.000Z</time>
      </trkpt>
      <trkpt lat="44.77358" lon="5.04619">
        <ele>383</ele>
        <time>2020-02-07T12:44:59.000Z</time>
      </trkpt>
      <trkpt lat="44.77358" lon="5.04619">
        <ele>383</ele>
        <time>2020-02-07T12:45:00.000Z</time>
      </trkpt>
      <trkpt lat="44.77359" lon="5.04618">
        <ele>383</ele>
        <time>2020-02-07T12:45:01.000Z</time>
      </trkpt>
      <trkpt lat="44.77359" lon="5.04617">
        <ele>383</ele>
        <time>2020-02-07T12:45:02.000Z</time>
      </trkpt>
      <trkpt lat="44.77359" lon="5.04616">
        <ele>383</ele>
        <time>2020-02-07T12:45:03.000Z</time>
      </trkpt>
      <trkpt lat="44.7736" lon="5.04615">
        <ele>383</ele>
        <time>2020-02-07T12:45:04.000Z</time>
      </trkpt>
      <trkpt lat="44.7736" lon="5.04614">
        <ele>383</ele>
        <time>2020-02-07T12:45:05.000Z</time>
      </trkpt>
      <trkpt lat="44.77361" lon="5.04613">
        <ele>383</ele>
        <time>2020-02-07T12:45:06.000Z</time>
      </trkpt>
      <trkpt lat="44.77362" lon="5.04613">
        <ele>383</ele>
        <time>2020-02-07T12:45:07.000Z</time>
      </trkpt>
      <trkpt lat="44.77363" lon="5.04612">
        <ele>383</ele>
        <time>2020-02-07T12:45:08.000Z</time>
      </trkpt>
      <trkpt lat="44.77363" lon="5.04612">
        <ele>383</ele>
        <time>2020-02-07T12:45:09.000Z</time>
      </trkpt>
      <trkpt lat="44.77363" lon="5.04612">
        <ele>382</ele>
        <time>2020-02-07T12:45:10.000Z</time>
      </trkpt>
      <trkpt lat="44.77363" lon="5.04612">
        <ele>382</ele>
        <time>2020-02-07T12:45:11.000Z</time>
      </trkpt>
      <trkpt lat="44.77363" lon="5.04612">
        <ele>382</ele>
        <time>2020-02-07T12:45:12.000Z</time>
      </trkpt>
      <trkpt lat="44.77363" lon="5.04612">
        <ele>382</ele>
        <time>2020-02-07T12:45:13.000Z</time>
      </trkpt>
      <trkpt lat="44.77363" lon="5.04612">
        <ele>382</ele>
        <time>2020-02-07T12:45:14.000Z</time>
      </trkpt>
      <trkpt lat="44.77363" lon="5.04612">
        <ele>382</ele>
        <time>2020-02-07T12:45:15.000Z</time>
      </trkpt>
      <trkpt lat="44.77363" lon="5.04612">
        <ele>382</ele>
        <time>2020-02-07T12:45:16.000Z</time>
      </trkpt>
      <trkpt lat="44.77363" lon="5.04612">
        <ele>382</ele>
        <time>2020-02-07T12:45:17.000Z</time>
      </trkpt>
      <trkpt lat="44.77363" lon="5.04612">
        <ele>382</ele>
        <time>2020-02-07T12:45:18.000Z</time>
      </trkpt>
      <trkpt lat="44.77363" lon="5.04612">
        <ele>382</ele>
        <time>2020-02-07T12:45:19.000Z</time>
      </trkpt>
      <trkpt lat="44.77363" lon="5.04612">
        <ele>382</ele>
        <time>2020-02-07T12:45:20.000Z</time>
      </trkpt>
      <trkpt lat="44.77363" lon="5.04612">
        <ele>382</ele>
        <time>2020-02-07T12:45:21.000Z</time>
      </trkpt>
      <trkpt lat="44.77363" lon="5.04612">
        <ele>382</ele>
        <time>2020-02-07T12:45:22.000Z</time>
      </trkpt>
      <trkpt lat="44.77364" lon="5.04611">
        <ele>382</ele>
        <time>2020-02-07T12:45:23.000Z</time>
      </trkpt>
      <trkpt lat="44.77364" lon="5.04611">
        <ele>382</ele>
        <time>2020-02-07T12:45:24.000Z</time>
      </trkpt>
      <trkpt lat="44.77364" lon="5.04611">
        <ele>382</ele>
        <time>2020-02-07T12:45:25.000Z</time>
      </trkpt>
      <trkpt lat="44.77364" lon="5.04611">
        <ele>382</ele>
        <time>2020-02-07T12:45:26.000Z</time>
      </trkpt>
      <trkpt lat="44.77364" lon="5.04611">
        <ele>382</ele>
        <time>2020-02-07T12:45:27.000Z</time>
      </trkpt>
      <trkpt lat="44.77364" lon="5.04611">
        <ele>382</ele>
        <time>2020-02-07T12:45:28.000Z</time>
      </trkpt>
      <trkpt lat="44.77364" lon="5.04611">
        <ele>382</ele>
        <time>2020-02-07T12:45:29.000Z</time>
      </trkpt>
      <trkpt lat="44.77364" lon="5.04611">
        <ele>382</ele>
        <time>2020-02-07T12:45:30.000Z</time>
      </trkpt>
      <trkpt lat="44.77364" lon="5.04611">
        <ele>382</ele>
        <time>2020-02-07T12:45:31.000Z</time>
      </trkpt>
      <trkpt lat="44.77364" lon="5.04611">
        <ele>382</ele>
        <time>2020-02-07T12:45:32.000Z</time>
      </trkpt>
      <trkpt lat="44.77364" lon="5.04611">
        <ele>382</ele>
        <time>2020-02-07T12:45:33.000Z</time>
      </trkpt>
      <trkpt lat="44.77364" lon="5.04611">
        <ele>382</ele>
        <time>2020-02-07T12:45:34.000Z</time>
      </trkpt>
      <trkpt lat="44.77364" lon="5.04611">
        <ele>382</ele>
        <time>2020-02-07T12:45:35.000Z</time>
      </trkpt>
      <trkpt lat="44.77364" lon="5.04611">
        <ele>382</ele>
        <time>2020-02-07T12:45:36.000Z</time>
      </trkpt>
      <trkpt lat="44.77364" lon="5.04611">
        <ele>382</ele>
        <time>2020-02-07T12:45:37.000Z</time>
      </trkpt>
      <trkpt lat="44.77364" lon="5.04611">
        <ele>382</ele>
        <time>2020-02-07T12:45:38.000Z</time>
      </trkpt>
      <trkpt lat="44.77364" lon="5.04611">
        <ele>382</ele>
        <time>2020-02-07T12:45:39.000Z</time>
      </trkpt>
      <trkpt lat="44.77364" lon="5.04611">
        <ele>382</ele>
        <time>2020-02-07T12:45:40.000Z</time>
      </trkpt>
      <trkpt lat="44.77364" lon="5.04611">
        <ele>382</ele>
        <time>2020-02-07T12:45:41.000Z</time>
      </trkpt>
      <trkpt lat="44.77364" lon="5.04611">
        <ele>382</ele>
        <time>2020-02-07T12:45:42.000Z</time>
      </trkpt>
      <trkpt lat="44.77364" lon="5.04611">
        <ele>382</ele>
        <time>2020-02-07T12:45:43.000Z</time>
      </trkpt>
      <trkpt lat="44.77365" lon="5.04611">
        <ele>382</ele>
        <time>2020-02-07T12:45:44.000Z</time>
      </trkpt>
      <trkpt lat="44.77365" lon="5.04611">
        <ele>382</ele>
        <time>2020-02-07T12:45:45.000Z</time>
      </trkpt>
      <trkpt lat="44.77365" lon="5.04612">
        <ele>382</ele>
        <time>2020-02-07T12:45:46.000Z</time>
      </trkpt>
      <trkpt lat="44.77365" lon="5.04612">
        <ele>382</ele>
        <time>2020-02-07T12:45:47.000Z</time>
      </trkpt>
      <trkpt lat="44.77365" lon="5.04612">
        <ele>382</ele>
        <time>2020-02-07T12:45:48.000Z</time>
      </trkpt>
      <trkpt lat="44.77365" lon="5.04612">
        <ele>382</ele>
        <time>2020-02-07T12:45:49.000Z</time>
      </trkpt>
      <trkpt lat="44.77365" lon="5.04612">
        <ele>382</ele>
        <time>2020-02-07T12:45:50.000Z</time>
      </trkpt>
      <trkpt lat="44.77365" lon="5.04612">
        <ele>382</ele>
        <time>2020-02-07T12:45:51.000Z</time>
      </trkpt>
      <trkpt lat="44.77365" lon="5.04612">
        <ele>382</ele>
        <time>2020-02-07T12:45:52.000Z</time>
      </trkpt>
      <trkpt lat="44.77365" lon="5.04612">
        <ele>382</ele>
        <time>2020-02-07T12:45:53.000Z</time>
      </trkpt>
      <trkpt lat="44.77365" lon="5.04612">
        <ele>382</ele>
        <time>2020-02-07T12:45:54.000Z</time>
      </trkpt>
      <trkpt lat="44.77365" lon="5.04612">
        <ele>382</ele>
        <time>2020-02-07T12:45:55.000Z</time>
      </trkpt>
      <trkpt lat="44.77365" lon="5.04612">
        <ele>382</ele>
        <time>2020-02-07T12:45:56.000Z</time>
      </trkpt>
      <trkpt lat="44.77365" lon="5.04612">
        <ele>382</ele>
        <time>2020-02-07T12:45:57.000Z</time>
      </trkpt>
      <trkpt lat="44.77365" lon="5.04612">
        <ele>382</ele>
        <time>2020-02-07T12:45:58.000Z</time>
      </trkpt>
      <trkpt lat="44.77365" lon="5.04612">
        <ele>382</ele>
        <time>2020-02-07T12:45:59.000Z</time>
      </trkpt>
      <trkpt lat="44.77365" lon="5.04612">
        <ele>382</ele>
        <time>2020-02-07T12:46:00.000Z</time>
      </trkpt>
      <trkpt lat="44.77365" lon="5.04612">
        <ele>382</ele>
        <time>2020-02-07T12:46:01.000Z</time>
      </trkpt>
      <trkpt lat="44.77365" lon="5.04612">
        <ele>382</ele>
        <time>2020-02-07T12:46:02.000Z</time>
      </trkpt>
      <trkpt lat="44.77365" lon="5.04612">
        <ele>382</ele>
        <time>2020-02-07T12:46:03.000Z</time>
      </trkpt>
      <trkpt lat="44.77365" lon="5.04612">
        <ele>382</ele>
        <time>2020-02-07T12:46:04.000Z</time>
      </trkpt>
      <trkpt lat="44.77365" lon="5.04612">
        <ele>382</ele>
        <time>2020-02-07T12:46:05.000Z</time>
      </trkpt>
      <trkpt lat="44.77365" lon="5.04612">
        <ele>382</ele>
        <time>2020-02-07T12:46:06.000Z</time>
      </trkpt>
      <trkpt lat="44.77365" lon="5.04612">
        <ele>382</ele>
        <time>2020-02-07T12:46:07.000Z</time>
      </trkpt>
      <trkpt lat="44.77364" lon="5.04611">
        <ele>382</ele>
        <time>2020-02-07T12:46:08.000Z</time>
      </trkpt>
      <trkpt lat="44.77364" lon="5.04611">
        <ele>382</ele>
        <time>2020-02-07T12:46:09.000Z</time>
      </trkpt>
      <trkpt lat="44.77364" lon="5.04611">
        <ele>382</ele>
        <time>2020-02-07T12:46:10.000Z</time>
      </trkpt>
      <trkpt lat="44.77364" lon="5.04611">
        <ele>382</ele>
        <time>2020-02-07T12:46:11.000Z</time>
      </trkpt>
      <trkpt lat="44.77364" lon="5.04611">
        <ele>382</ele>
        <time>2020-02-07T12:46:12.000Z</time>
      </trkpt>
      <trkpt lat="44.77364" lon="5.04611">
        <ele>382</ele>
        <time>2020-02-07T12:46:13.000Z</time>
      </trkpt>
      <trkpt lat="44.77364" lon="5.04611">
        <ele>382</ele>
        <time>2020-02-07T12:46:14.000Z</time>
      </trkpt>
      <trkpt lat="44.77364" lon="5.04611">
        <ele>382</ele>
        <time>2020-02-07T12:46:15.000Z</time>
      </trkpt>
      <trkpt lat="44.77364" lon="5.04611">
        <ele>382</ele>
        <time>2020-02-07T12:46:16.000Z</time>
      </trkpt>
      <trkpt lat="44.77364" lon="5.04611">
        <ele>382</ele>
        <time>2020-02-07T12:46:17.000Z</time>
      </trkpt>
      <trkpt lat="44.77364" lon="5.04611">
        <ele>382</ele>
        <time>2020-02-07T12:46:18.000Z</time>
      </trkpt>
      <trkpt lat="44.77364" lon="5.04611">
        <ele>382</ele>
        <time>2020-02-07T12:46:19.000Z</time>
      </trkpt>
      <trkpt lat="44.77364" lon="5.04611">
        <ele>382</ele>
        <time>2020-02-07T12:46:20.000Z</time>
      </trkpt>
      <trkpt lat="44.77364" lon="5.04611">
        <ele>382</ele>
        <time>2020-02-07T12:46:21.000Z</time>
      </trkpt>
      <trkpt lat="44.77364" lon="5.04611">
        <ele>382</ele>
        <time>2020-02-07T12:46:22.000Z</time>
      </trkpt>
      <trkpt lat="44.77364" lon="5.04611">
        <ele>382</ele>
        <time>2020-02-07T12:46:23.000Z</time>
      </trkpt>
      <trkpt lat="44.77364" lon="5.04611">
        <ele>382</ele>
        <time>2020-02-07T12:46:24.000Z</time>
      </trkpt>
      <trkpt lat="44.77364" lon="5.04611">
        <ele>382</ele>
        <time>2020-02-07T12:46:25.000Z</time>
      </trkpt>
      <trkpt lat="44.77363" lon="5.04611">
        <ele>382</ele>
        <time>2020-02-07T12:46:26.000Z</time>
      </trkpt>
      <trkpt lat="44.77363" lon="5.04611">
        <ele>382</ele>
        <time>2020-02-07T12:46:27.000Z</time>
      </trkpt>
      <trkpt lat="44.77363" lon="5.0461">
        <ele>382</ele>
        <time>2020-02-07T12:46:28.000Z</time>
      </trkpt>
      <trkpt lat="44.77363" lon="5.0461">
        <ele>382</ele>
        <time>2020-02-07T12:46:29.000Z</time>
      </trkpt>
      <trkpt lat="44.77363" lon="5.0461">
        <ele>382</ele>
        <time>2020-02-07T12:46:30.000Z</time>
      </trkpt>
      <trkpt lat="44.77363" lon="5.0461">
        <ele>382</ele>
        <time>2020-02-07T12:46:31.000Z</time>
      </trkpt>
      <trkpt lat="44.77363" lon="5.0461">
        <ele>382</ele>
        <time>2020-02-07T12:46:32.000Z</time>
      </trkpt>
      <trkpt lat="44.77363" lon="5.04609">
        <ele>382</ele>
        <time>2020-02-07T12:46:33.000Z</time>
      </trkpt>
      <trkpt lat="44.77363" lon="5.04609">
        <ele>382</ele>
        <time>2020-02-07T12:46:34.000Z</time>
      </trkpt>
      <trkpt lat="44.77363" lon="5.04608">
        <ele>382</ele>
        <time>2020-02-07T12:46:35.000Z</time>
      </trkpt>
      <trkpt lat="44.77363" lon="5.04607">
        <ele>382</ele>
        <time>2020-02-07T12:46:36.000Z</time>
      </trkpt>
      <trkpt lat="44.77362" lon="5.04606">
        <ele>382</ele>
        <time>2020-02-07T12:46:37.000Z</time>
      </trkpt>
      <trkpt lat="44.77362" lon="5.04605">
        <ele>382</ele>
        <time>2020-02-07T12:46:38.000Z</time>
      </trkpt>
      <trkpt lat="44.77362" lon="5.04604">
        <ele>382</ele>
        <time>2020-02-07T12:46:39.000Z</time>
      </trkpt>
      <trkpt lat="44.77362" lon="5.04604">
        <ele>382</ele>
        <time>2020-02-07T12:46:40.000Z</time>
      </trkpt>
      <trkpt lat="44.77361" lon="5.04603">
        <ele>382</ele>
        <time>2020-02-07T12:46:41.000Z</time>
      </trkpt>
      <trkpt lat="44.77361" lon="5.04602">
        <ele>381</ele>
        <time>2020-02-07T12:46:42.000Z</time>
      </trkpt>
      <trkpt lat="44.77361" lon="5.04601">
        <ele>381</ele>
        <time>2020-02-07T12:46:43.000Z</time>
      </trkpt>
      <trkpt lat="44.7736" lon="5.046">
        <ele>381</ele>
        <time>2020-02-07T12:46:44.000Z</time>
      </trkpt>
      <trkpt lat="44.7736" lon="5.04599">
        <ele>381</ele>
        <time>2020-02-07T12:46:45.000Z</time>
      </trkpt>
      <trkpt lat="44.7736" lon="5.04598">
        <ele>380</ele>
        <time>2020-02-07T12:46:46.000Z</time>
      </trkpt>
      <trkpt lat="44.7736" lon="5.04597">
        <ele>380</ele>
        <time>2020-02-07T12:46:47.000Z</time>
      </trkpt>
      <trkpt lat="44.77359" lon="5.04596">
        <ele>380</ele>
        <time>2020-02-07T12:46:48.000Z</time>
      </trkpt>
      <trkpt lat="44.77359" lon="5.04595">
        <ele>380</ele>
        <time>2020-02-07T12:46:49.000Z</time>
      </trkpt>
      <trkpt lat="44.77358" lon="5.04594">
        <ele>380</ele>
        <time>2020-02-07T12:46:50.000Z</time>
      </trkpt>
      <trkpt lat="44.77358" lon="5.04593">
        <ele>380</ele>
        <time>2020-02-07T12:46:51.000Z</time>
      </trkpt>
      <trkpt lat="44.77357" lon="5.04592">
        <ele>380</ele>
        <time>2020-02-07T12:46:52.000Z</time>
      </trkpt>
      <trkpt lat="44.77357" lon="5.04591">
        <ele>380</ele>
        <time>2020-02-07T12:46:53.000Z</time>
      </trkpt>
      <trkpt lat="44.77356" lon="5.0459">
        <ele>380</ele>
        <time>2020-02-07T12:46:54.000Z</time>
      </trkpt>
      <trkpt lat="44.77355" lon="5.04589">
        <ele>380</ele>
        <time>2020-02-07T12:46:55.000Z</time>
      </trkpt>
      <trkpt lat="44.77355" lon="5.04588">
        <ele>379</ele>
        <time>2020-02-07T12:46:56.000Z</time>
      </trkpt>
      <trkpt lat="44.77354" lon="5.04587">
        <ele>379</ele>
        <time>2020-02-07T12:46:57.000Z</time>
      </trkpt>
      <trkpt lat="44.77354" lon="5.04585">
        <ele>379</ele>
        <time>2020-02-07T12:46:58.000Z</time>
      </trkpt>
      <trkpt lat="44.77353" lon="5.04584">
        <ele>379</ele>
        <time>2020-02-07T12:46:59.000Z</time>
      </trkpt>
      <trkpt lat="44.77353" lon="5.04583">
        <ele>379</ele>
        <time>2020-02-07T12:47:00.000Z</time>
      </trkpt>
      <trkpt lat="44.77352" lon="5.04582">
        <ele>379</ele>
        <time>2020-02-07T12:47:01.000Z</time>
      </trkpt>
      <trkpt lat="44.77351" lon="5.0458">
        <ele>379</ele>
        <time>2020-02-07T12:47:02.000Z</time>
      </trkpt>
      <trkpt lat="44.77351" lon="5.04579">
        <ele>379</ele>
        <time>2020-02-07T12:47:03.000Z</time>
      </trkpt>
      <trkpt lat="44.7735" lon="5.04578">
        <ele>379</ele>
        <time>2020-02-07T12:47:04.000Z</time>
      </trkpt>
      <trkpt lat="44.77349" lon="5.04576">
        <ele>379</ele>
        <time>2020-02-07T12:47:05.000Z</time>
      </trkpt>
      <trkpt lat="44.77348" lon="5.04575">
        <ele>379</ele>
        <time>2020-02-07T12:47:06.000Z</time>
      </trkpt>
      <trkpt lat="44.77348" lon="5.04574">
        <ele>379</ele>
        <time>2020-02-07T12:47:07.000Z</time>
      </trkpt>
      <trkpt lat="44.77347" lon="5.04572">
        <ele>379</ele>
        <time>2020-02-07T12:47:08.000Z</time>
      </trkpt>
      <trkpt lat="44.77346" lon="5.04571">
        <ele>379</ele>
        <time>2020-02-07T12:47:09.000Z</time>
      </trkpt>
      <trkpt lat="44.77346" lon="5.04569">
        <ele>379</ele>
        <time>2020-02-07T12:47:10.000Z</time>
      </trkpt>
      <trkpt lat="44.77345" lon="5.04568">
        <ele>378</ele>
        <time>2020-02-07T12:47:11.000Z</time>
      </trkpt>
      <trkpt lat="44.77344" lon="5.04567">
        <ele>378</ele>
        <time>2020-02-07T12:47:12.000Z</time>
      </trkpt>
      <trkpt lat="44.77344" lon="5.04566">
        <ele>378</ele>
        <time>2020-02-07T12:47:13.000Z</time>
      </trkpt>
      <trkpt lat="44.77343" lon="5.04564">
        <ele>378</ele>
        <time>2020-02-07T12:47:14.000Z</time>
      </trkpt>
      <trkpt lat="44.77342" lon="5.04563">
        <ele>378</ele>
        <time>2020-02-07T12:47:15.000Z</time>
      </trkpt>
      <trkpt lat="44.77342" lon="5.04562">
        <ele>378</ele>
        <time>2020-02-07T12:47:16.000Z</time>
      </trkpt>
      <trkpt lat="44.77341" lon="5.04561">
        <ele>378</ele>
        <time>2020-02-07T12:47:17.000Z</time>
      </trkpt>
      <trkpt lat="44.7734" lon="5.0456">
        <ele>377</ele>
        <time>2020-02-07T12:47:18.000Z</time>
      </trkpt>
      <trkpt lat="44.7734" lon="5.04559">
        <ele>377</ele>
        <time>2020-02-07T12:47:19.000Z</time>
      </trkpt>
      <trkpt lat="44.77339" lon="5.04557">
        <ele>377</ele>
        <time>2020-02-07T12:47:20.000Z</time>
      </trkpt>
      <trkpt lat="44.77339" lon="5.04556">
        <ele>376</ele>
        <time>2020-02-07T12:47:21.000Z</time>
      </trkpt>
      <trkpt lat="44.77338" lon="5.04554">
        <ele>376</ele>
        <time>2020-02-07T12:47:22.000Z</time>
      </trkpt>
      <trkpt lat="44.77338" lon="5.04553">
        <ele>376</ele>
        <time>2020-02-07T12:47:23.000Z</time>
      </trkpt>
      <trkpt lat="44.77337" lon="5.04552">
        <ele>376</ele>
        <time>2020-02-07T12:47:24.000Z</time>
      </trkpt>
      <trkpt lat="44.77336" lon="5.0455">
        <ele>376</ele>
        <time>2020-02-07T12:47:25.000Z</time>
      </trkpt>
      <trkpt lat="44.77336" lon="5.04549">
        <ele>375</ele>
        <time>2020-02-07T12:47:26.000Z</time>
      </trkpt>
      <trkpt lat="44.77336" lon="5.04548">
        <ele>375</ele>
        <time>2020-02-07T12:47:27.000Z</time>
      </trkpt>
      <trkpt lat="44.77335" lon="5.04547">
        <ele>375</ele>
        <time>2020-02-07T12:47:28.000Z</time>
      </trkpt>
      <trkpt lat="44.77335" lon="5.04545">
        <ele>375</ele>
        <time>2020-02-07T12:47:29.000Z</time>
      </trkpt>
      <trkpt lat="44.77335" lon="5.04544">
        <ele>375</ele>
        <time>2020-02-07T12:47:30.000Z</time>
      </trkpt>
      <trkpt lat="44.77334" lon="5.04542">
        <ele>374</ele>
        <time>2020-02-07T12:47:31.000Z</time>
      </trkpt>
      <trkpt lat="44.77334" lon="5.04541">
        <ele>374</ele>
        <time>2020-02-07T12:47:32.000Z</time>
      </trkpt>
      <trkpt lat="44.77334" lon="5.04539">
        <ele>374</ele>
        <time>2020-02-07T12:47:33.000Z</time>
      </trkpt>
      <trkpt lat="44.77334" lon="5.04538">
        <ele>373</ele>
        <time>2020-02-07T12:47:34.000Z</time>
      </trkpt>
      <trkpt lat="44.77334" lon="5.04537">
        <ele>373</ele>
        <time>2020-02-07T12:47:35.000Z</time>
      </trkpt>
      <trkpt lat="44.77334" lon="5.04535">
        <ele>373</ele>
        <time>2020-02-07T12:47:36.000Z</time>
      </trkpt>
      <trkpt lat="44.77334" lon="5.04534">
        <ele>373</ele>
        <time>2020-02-07T12:47:37.000Z</time>
      </trkpt>
      <trkpt lat="44.77334" lon="5.04533">
        <ele>373</ele>
        <time>2020-02-07T12:47:38.000Z</time>
      </trkpt>
      <trkpt lat="44.77334" lon="5.04531">
        <ele>373</ele>
        <time>2020-02-07T12:47:39.000Z</time>
      </trkpt>
      <trkpt lat="44.77334" lon="5.0453">
        <ele>372</ele>
        <time>2020-02-07T12:47:40.000Z</time>
      </trkpt>
      <trkpt lat="44.77334" lon="5.04529">
        <ele>372</ele>
        <time>2020-02-07T12:47:41.000Z</time>
      </trkpt>
      <trkpt lat="44.77334" lon="5.04528">
        <ele>372</ele>
        <time>2020-02-07T12:47:42.000Z</time>
      </trkpt>
      <trkpt lat="44.77334" lon="5.04527">
        <ele>372</ele>
        <time>2020-02-07T12:47:43.000Z</time>
      </trkpt>
      <trkpt lat="44.77333" lon="5.04526">
        <ele>372</ele>
        <time>2020-02-07T12:47:44.000Z</time>
      </trkpt>
      <trkpt lat="44.77334" lon="5.04524">
        <ele>372</ele>
        <time>2020-02-07T12:47:45.000Z</time>
      </trkpt>
      <trkpt lat="44.77334" lon="5.04523">
        <ele>372</ele>
        <time>2020-02-07T12:47:46.000Z</time>
      </trkpt>
      <trkpt lat="44.77334" lon="5.04522">
        <ele>372</ele>
        <time>2020-02-07T12:47:47.000Z</time>
      </trkpt>
      <trkpt lat="44.77334" lon="5.0452">
        <ele>372</ele>
        <time>2020-02-07T12:47:48.000Z</time>
      </trkpt>
      <trkpt lat="44.77334" lon="5.04518">
        <ele>372</ele>
        <time>2020-02-07T12:47:49.000Z</time>
      </trkpt>
      <trkpt lat="44.77333" lon="5.04516">
        <ele>372</ele>
        <time>2020-02-07T12:47:50.000Z</time>
      </trkpt>
      <trkpt lat="44.77334" lon="5.04515">
        <ele>371</ele>
        <time>2020-02-07T12:47:51.000Z</time>
      </trkpt>
      <trkpt lat="44.77334" lon="5.04514">
        <ele>371</ele>
        <time>2020-02-07T12:47:52.000Z</time>
      </trkpt>
      <trkpt lat="44.77333" lon="5.04512">
        <ele>371</ele>
        <time>2020-02-07T12:47:53.000Z</time>
      </trkpt>
      <trkpt lat="44.77333" lon="5.04511">
        <ele>371</ele>
        <time>2020-02-07T12:47:54.000Z</time>
      </trkpt>
      <trkpt lat="44.77333" lon="5.0451">
        <ele>371</ele>
        <time>2020-02-07T12:47:55.000Z</time>
      </trkpt>
      <trkpt lat="44.77333" lon="5.04509">
        <ele>371</ele>
        <time>2020-02-07T12:47:56.000Z</time>
      </trkpt>
      <trkpt lat="44.77333" lon="5.04507">
        <ele>371</ele>
        <time>2020-02-07T12:47:57.000Z</time>
      </trkpt>
      <trkpt lat="44.77332" lon="5.04506">
        <ele>371</ele>
        <time>2020-02-07T12:47:58.000Z</time>
      </trkpt>
      <trkpt lat="44.77332" lon="5.04505">
        <ele>371</ele>
        <time>2020-02-07T12:47:59.000Z</time>
      </trkpt>
      <trkpt lat="44.77332" lon="5.04503">
        <ele>370</ele>
        <time>2020-02-07T12:48:00.000Z</time>
      </trkpt>
      <trkpt lat="44.77331" lon="5.04502">
        <ele>370</ele>
        <time>2020-02-07T12:48:01.000Z</time>
      </trkpt>
      <trkpt lat="44.7733" lon="5.04501">
        <ele>370</ele>
        <time>2020-02-07T12:48:02.000Z</time>
      </trkpt>
      <trkpt lat="44.7733" lon="5.04499">
        <ele>370</ele>
        <time>2020-02-07T12:48:03.000Z</time>
      </trkpt>
      <trkpt lat="44.77329" lon="5.04498">
        <ele>370</ele>
        <time>2020-02-07T12:48:04.000Z</time>
      </trkpt>
      <trkpt lat="44.77328" lon="5.04497">
        <ele>370</ele>
        <time>2020-02-07T12:48:05.000Z</time>
      </trkpt>
      <trkpt lat="44.77327" lon="5.04496">
        <ele>370</ele>
        <time>2020-02-07T12:48:06.000Z</time>
      </trkpt>
      <trkpt lat="44.77326" lon="5.04495">
        <ele>370</ele>
        <time>2020-02-07T12:48:07.000Z</time>
      </trkpt>
      <trkpt lat="44.77326" lon="5.04494">
        <ele>369</ele>
        <time>2020-02-07T12:48:08.000Z</time>
      </trkpt>
      <trkpt lat="44.77325" lon="5.04493">
        <ele>369</ele>
        <time>2020-02-07T12:48:09.000Z</time>
      </trkpt>
      <trkpt lat="44.77324" lon="5.04492">
        <ele>369</ele>
        <time>2020-02-07T12:48:10.000Z</time>
      </trkpt>
      <trkpt lat="44.77324" lon="5.04491">
        <ele>369</ele>
        <time>2020-02-07T12:48:11.000Z</time>
      </trkpt>
      <trkpt lat="44.77323" lon="5.04491">
        <ele>369</ele>
        <time>2020-02-07T12:48:12.000Z</time>
      </trkpt>
      <trkpt lat="44.77322" lon="5.0449">
        <ele>368</ele>
        <time>2020-02-07T12:48:13.000Z</time>
      </trkpt>
      <trkpt lat="44.77321" lon="5.04489">
        <ele>368</ele>
        <time>2020-02-07T12:48:14.000Z</time>
      </trkpt>
      <trkpt lat="44.7732" lon="5.04489">
        <ele>368</ele>
        <time>2020-02-07T12:48:15.000Z</time>
      </trkpt>
      <trkpt lat="44.77319" lon="5.04488">
        <ele>368</ele>
        <time>2020-02-07T12:48:16.000Z</time>
      </trkpt>
      <trkpt lat="44.77318" lon="5.04488">
        <ele>368</ele>
        <time>2020-02-07T12:48:17.000Z</time>
      </trkpt>
      <trkpt lat="44.77317" lon="5.04487">
        <ele>368</ele>
        <time>2020-02-07T12:48:18.000Z</time>
      </trkpt>
      <trkpt lat="44.77316" lon="5.04487">
        <ele>368</ele>
        <time>2020-02-07T12:48:19.000Z</time>
      </trkpt>
      <trkpt lat="44.77315" lon="5.04487">
        <ele>368</ele>
        <time>2020-02-07T12:48:20.000Z</time>
      </trkpt>
      <trkpt lat="44.77314" lon="5.04486">
        <ele>368</ele>
        <time>2020-02-07T12:48:21.000Z</time>
      </trkpt>
      <trkpt lat="44.77313" lon="5.04486">
        <ele>367</ele>
        <time>2020-02-07T12:48:22.000Z</time>
      </trkpt>
      <trkpt lat="44.77312" lon="5.04485">
        <ele>367</ele>
        <time>2020-02-07T12:48:23.000Z</time>
      </trkpt>
      <trkpt lat="44.77311" lon="5.04484">
        <ele>367</ele>
        <time>2020-02-07T12:48:24.000Z</time>
      </trkpt>
      <trkpt lat="44.7731" lon="5.04484">
        <ele>367</ele>
        <time>2020-02-07T12:48:25.000Z</time>
      </trkpt>
      <trkpt lat="44.77309" lon="5.04483">
        <ele>367</ele>
        <time>2020-02-07T12:48:26.000Z</time>
      </trkpt>
      <trkpt lat="44.77308" lon="5.04482">
        <ele>367</ele>
        <time>2020-02-07T12:48:27.000Z</time>
      </trkpt>
      <trkpt lat="44.77307" lon="5.04481">
        <ele>366</ele>
        <time>2020-02-07T12:48:28.000Z</time>
      </trkpt>
      <trkpt lat="44.77306" lon="5.04481">
        <ele>366</ele>
        <time>2020-02-07T12:48:29.000Z</time>
      </trkpt>
      <trkpt lat="44.77305" lon="5.0448">
        <ele>366</ele>
        <time>2020-02-07T12:48:30.000Z</time>
      </trkpt>
      <trkpt lat="44.77304" lon="5.04479">
        <ele>365</ele>
        <time>2020-02-07T12:48:31.000Z</time>
      </trkpt>
      <trkpt lat="44.77303" lon="5.04479">
        <ele>365</ele>
        <time>2020-02-07T12:48:32.000Z</time>
      </trkpt>
      <trkpt lat="44.77302" lon="5.04478">
        <ele>365</ele>
        <time>2020-02-07T12:48:33.000Z</time>
      </trkpt>
      <trkpt lat="44.77301" lon="5.04477">
        <ele>365</ele>
        <time>2020-02-07T12:48:34.000Z</time>
      </trkpt>
      <trkpt lat="44.77301" lon="5.04476">
        <ele>364</ele>
        <time>2020-02-07T12:48:35.000Z</time>
      </trkpt>
      <trkpt lat="44.773" lon="5.04476">
        <ele>364</ele>
        <time>2020-02-07T12:48:36.000Z</time>
      </trkpt>
      <trkpt lat="44.77299" lon="5.04475">
        <ele>364</ele>
        <time>2020-02-07T12:48:37.000Z</time>
      </trkpt>
      <trkpt lat="44.77298" lon="5.04474">
        <ele>364</ele>
        <time>2020-02-07T12:48:38.000Z</time>
      </trkpt>
      <trkpt lat="44.77297" lon="5.04473">
        <ele>364</ele>
        <time>2020-02-07T12:48:39.000Z</time>
      </trkpt>
      <trkpt lat="44.77296" lon="5.04472">
        <ele>363</ele>
        <time>2020-02-07T12:48:40.000Z</time>
      </trkpt>
      <trkpt lat="44.77296" lon="5.04471">
        <ele>363</ele>
        <time>2020-02-07T12:48:41.000Z</time>
      </trkpt>
      <trkpt lat="44.77295" lon="5.0447">
        <ele>363</ele>
        <time>2020-02-07T12:48:42.000Z</time>
      </trkpt>
      <trkpt lat="44.77294" lon="5.04469">
        <ele>363</ele>
        <time>2020-02-07T12:48:43.000Z</time>
      </trkpt>
      <trkpt lat="44.77293" lon="5.04469">
        <ele>363</ele>
        <time>2020-02-07T12:48:44.000Z</time>
      </trkpt>
      <trkpt lat="44.77292" lon="5.04468">
        <ele>363</ele>
        <time>2020-02-07T12:48:45.000Z</time>
      </trkpt>
      <trkpt lat="44.77291" lon="5.04466">
        <ele>363</ele>
        <time>2020-02-07T12:48:46.000Z</time>
      </trkpt>
      <trkpt lat="44.77291" lon="5.04465">
        <ele>363</ele>
        <time>2020-02-07T12:48:47.000Z</time>
      </trkpt>
      <trkpt lat="44.7729" lon="5.04464">
        <ele>363</ele>
        <time>2020-02-07T12:48:48.000Z</time>
      </trkpt>
      <trkpt lat="44.77289" lon="5.04463">
        <ele>363</ele>
        <time>2020-02-07T12:48:49.000Z</time>
      </trkpt>
      <trkpt lat="44.77288" lon="5.04462">
        <ele>363</ele>
        <time>2020-02-07T12:48:50.000Z</time>
      </trkpt>
      <trkpt lat="44.77287" lon="5.04461">
        <ele>363</ele>
        <time>2020-02-07T12:48:51.000Z</time>
      </trkpt>
      <trkpt lat="44.77286" lon="5.0446">
        <ele>363</ele>
        <time>2020-02-07T12:48:52.000Z</time>
      </trkpt>
      <trkpt lat="44.77285" lon="5.04459">
        <ele>362</ele>
        <time>2020-02-07T12:48:53.000Z</time>
      </trkpt>
      <trkpt lat="44.77284" lon="5.04458">
        <ele>362</ele>
        <time>2020-02-07T12:48:54.000Z</time>
      </trkpt>
      <trkpt lat="44.77284" lon="5.04457">
        <ele>362</ele>
        <time>2020-02-07T12:48:55.000Z</time>
      </trkpt>
      <trkpt lat="44.77283" lon="5.04455">
        <ele>362</ele>
        <time>2020-02-07T12:48:56.000Z</time>
      </trkpt>
      <trkpt lat="44.77283" lon="5.04454">
        <ele>362</ele>
        <time>2020-02-07T12:48:57.000Z</time>
      </trkpt>
      <trkpt lat="44.77282" lon="5.04453">
        <ele>362</ele>
        <time>2020-02-07T12:48:58.000Z</time>
      </trkpt>
      <trkpt lat="44.77281" lon="5.04452">
        <ele>362</ele>
        <time>2020-02-07T12:48:59.000Z</time>
      </trkpt>
      <trkpt lat="44.7728" lon="5.04451">
        <ele>362</ele>
        <time>2020-02-07T12:49:00.000Z</time>
      </trkpt>
      <trkpt lat="44.7728" lon="5.04449">
        <ele>361</ele>
        <time>2020-02-07T12:49:01.000Z</time>
      </trkpt>
      <trkpt lat="44.77279" lon="5.04448">
        <ele>361</ele>
        <time>2020-02-07T12:49:02.000Z</time>
      </trkpt>
      <trkpt lat="44.77278" lon="5.04447">
        <ele>361</ele>
        <time>2020-02-07T12:49:03.000Z</time>
      </trkpt>
      <trkpt lat="44.77278" lon="5.04446">
        <ele>361</ele>
        <time>2020-02-07T12:49:04.000Z</time>
      </trkpt>
      <trkpt lat="44.77277" lon="5.04444">
        <ele>361</ele>
        <time>2020-02-07T12:49:05.000Z</time>
      </trkpt>
      <trkpt lat="44.77276" lon="5.04443">
        <ele>360</ele>
        <time>2020-02-07T12:49:06.000Z</time>
      </trkpt>
      <trkpt lat="44.77276" lon="5.04442">
        <ele>360</ele>
        <time>2020-02-07T12:49:07.000Z</time>
      </trkpt>
      <trkpt lat="44.77275" lon="5.04441">
        <ele>360</ele>
        <time>2020-02-07T12:49:08.000Z</time>
      </trkpt>
      <trkpt lat="44.77274" lon="5.0444">
        <ele>360</ele>
        <time>2020-02-07T12:49:09.000Z</time>
      </trkpt>
      <trkpt lat="44.77273" lon="5.04439">
        <ele>359</ele>
        <time>2020-02-07T12:49:10.000Z</time>
      </trkpt>
      <trkpt lat="44.77272" lon="5.04438">
        <ele>359</ele>
        <time>2020-02-07T12:49:11.000Z</time>
      </trkpt>
      <trkpt lat="44.77272" lon="5.04437">
        <ele>359</ele>
        <time>2020-02-07T12:49:12.000Z</time>
      </trkpt>
      <trkpt lat="44.77271" lon="5.04436">
        <ele>359</ele>
        <time>2020-02-07T12:49:13.000Z</time>
      </trkpt>
      <trkpt lat="44.77271" lon="5.04435">
        <ele>359</ele>
        <time>2020-02-07T12:49:14.000Z</time>
      </trkpt>
      <trkpt lat="44.7727" lon="5.04434">
        <ele>359</ele>
        <time>2020-02-07T12:49:15.000Z</time>
      </trkpt>
      <trkpt lat="44.7727" lon="5.04433">
        <ele>358</ele>
        <time>2020-02-07T12:49:16.000Z</time>
      </trkpt>
      <trkpt lat="44.77269" lon="5.04432">
        <ele>358</ele>
        <time>2020-02-07T12:49:17.000Z</time>
      </trkpt>
      <trkpt lat="44.77268" lon="5.0443">
        <ele>358</ele>
        <time>2020-02-07T12:49:18.000Z</time>
      </trkpt>
      <trkpt lat="44.77267" lon="5.04429">
        <ele>358</ele>
        <time>2020-02-07T12:49:19.000Z</time>
      </trkpt>
      <trkpt lat="44.77266" lon="5.04428">
        <ele>358</ele>
        <time>2020-02-07T12:49:20.000Z</time>
      </trkpt>
      <trkpt lat="44.77266" lon="5.04427">
        <ele>358</ele>
        <time>2020-02-07T12:49:21.000Z</time>
      </trkpt>
      <trkpt lat="44.77265" lon="5.04425">
        <ele>358</ele>
        <time>2020-02-07T12:49:22.000Z</time>
      </trkpt>
      <trkpt lat="44.77264" lon="5.04425">
        <ele>358</ele>
        <time>2020-02-07T12:49:23.000Z</time>
      </trkpt>
      <trkpt lat="44.77264" lon="5.04423">
        <ele>357</ele>
        <time>2020-02-07T12:49:24.000Z</time>
      </trkpt>
      <trkpt lat="44.77263" lon="5.04422">
        <ele>357</ele>
        <time>2020-02-07T12:49:25.000Z</time>
      </trkpt>
      <trkpt lat="44.77262" lon="5.04421">
        <ele>357</ele>
        <time>2020-02-07T12:49:26.000Z</time>
      </trkpt>
      <trkpt lat="44.77261" lon="5.0442">
        <ele>357</ele>
        <time>2020-02-07T12:49:27.000Z</time>
      </trkpt>
      <trkpt lat="44.7726" lon="5.04418">
        <ele>357</ele>
        <time>2020-02-07T12:49:28.000Z</time>
      </trkpt>
      <trkpt lat="44.7726" lon="5.04417">
        <ele>357</ele>
        <time>2020-02-07T12:49:29.000Z</time>
      </trkpt>
      <trkpt lat="44.77259" lon="5.04416">
        <ele>356</ele>
        <time>2020-02-07T12:49:30.000Z</time>
      </trkpt>
      <trkpt lat="44.77258" lon="5.04415">
        <ele>356</ele>
        <time>2020-02-07T12:49:31.000Z</time>
      </trkpt>
      <trkpt lat="44.77257" lon="5.04414">
        <ele>356</ele>
        <time>2020-02-07T12:49:32.000Z</time>
      </trkpt>
      <trkpt lat="44.77256" lon="5.04413">
        <ele>356</ele>
        <time>2020-02-07T12:49:33.000Z</time>
      </trkpt>
      <trkpt lat="44.77255" lon="5.04412">
        <ele>356</ele>
        <time>2020-02-07T12:49:34.000Z</time>
      </trkpt>
      <trkpt lat="44.77255" lon="5.04411">
        <ele>356</ele>
        <time>2020-02-07T12:49:35.000Z</time>
      </trkpt>
      <trkpt lat="44.77254" lon="5.04409">
        <ele>356</ele>
        <time>2020-02-07T12:49:36.000Z</time>
      </trkpt>
      <trkpt lat="44.77253" lon="5.04408">
        <ele>356</ele>
        <time>2020-02-07T12:49:37.000Z</time>
      </trkpt>
      <trkpt lat="44.77252" lon="5.04407">
        <ele>356</ele>
        <time>2020-02-07T12:49:38.000Z</time>
      </trkpt>
      <trkpt lat="44.77251" lon="5.04406">
        <ele>356</ele>
        <time>2020-02-07T12:49:39.000Z</time>
      </trkpt>
      <trkpt lat="44.7725" lon="5.04404">
        <ele>356</ele>
        <time>2020-02-07T12:49:40.000Z</time>
      </trkpt>
      <trkpt lat="44.77249" lon="5.04403">
        <ele>356</ele>
        <time>2020-02-07T12:49:41.000Z</time>
      </trkpt>
      <trkpt lat="44.77249" lon="5.04402">
        <ele>356</ele>
        <time>2020-02-07T12:49:42.000Z</time>
      </trkpt>
      <trkpt lat="44.77248" lon="5.04401">
        <ele>356</ele>
        <time>2020-02-07T12:49:43.000Z</time>
      </trkpt>
      <trkpt lat="44.77247" lon="5.04399">
        <ele>355</ele>
        <time>2020-02-07T12:49:44.000Z</time>
      </trkpt>
      <trkpt lat="44.77247" lon="5.04398">
        <ele>355</ele>
        <time>2020-02-07T12:49:45.000Z</time>
      </trkpt>
      <trkpt lat="44.77246" lon="5.04397">
        <ele>355</ele>
        <time>2020-02-07T12:49:46.000Z</time>
      </trkpt>
      <trkpt lat="44.77246" lon="5.04396">
        <ele>355</ele>
        <time>2020-02-07T12:49:47.000Z</time>
      </trkpt>
      <trkpt lat="44.77245" lon="5.04395">
        <ele>355</ele>
        <time>2020-02-07T12:49:48.000Z</time>
      </trkpt>
      <trkpt lat="44.77245" lon="5.04394">
        <ele>355</ele>
        <time>2020-02-07T12:49:49.000Z</time>
      </trkpt>
      <trkpt lat="44.77244" lon="5.04393">
        <ele>354</ele>
        <time>2020-02-07T12:49:50.000Z</time>
      </trkpt>
      <trkpt lat="44.77243" lon="5.04392">
        <ele>354</ele>
        <time>2020-02-07T12:49:51.000Z</time>
      </trkpt>
      <trkpt lat="44.77243" lon="5.04391">
        <ele>354</ele>
        <time>2020-02-07T12:49:52.000Z</time>
      </trkpt>
      <trkpt lat="44.77242" lon="5.0439">
        <ele>354</ele>
        <time>2020-02-07T12:49:53.000Z</time>
      </trkpt>
      <trkpt lat="44.77241" lon="5.04389">
        <ele>354</ele>
        <time>2020-02-07T12:49:54.000Z</time>
      </trkpt>
      <trkpt lat="44.7724" lon="5.04387">
        <ele>354</ele>
        <time>2020-02-07T12:49:55.000Z</time>
      </trkpt>
      <trkpt lat="44.7724" lon="5.04386">
        <ele>353</ele>
        <time>2020-02-07T12:49:56.000Z</time>
      </trkpt>
      <trkpt lat="44.77239" lon="5.04384">
        <ele>353</ele>
        <time>2020-02-07T12:49:57.000Z</time>
      </trkpt>
      <trkpt lat="44.77238" lon="5.04383">
        <ele>353</ele>
        <time>2020-02-07T12:49:58.000Z</time>
      </trkpt>
      <trkpt lat="44.77237" lon="5.04382">
        <ele>353</ele>
        <time>2020-02-07T12:49:59.000Z</time>
      </trkpt>
      <trkpt lat="44.77236" lon="5.0438">
        <ele>353</ele>
        <time>2020-02-07T12:50:00.000Z</time>
      </trkpt>
      <trkpt lat="44.77236" lon="5.04379">
        <ele>353</ele>
        <time>2020-02-07T12:50:01.000Z</time>
      </trkpt>
      <trkpt lat="44.77235" lon="5.04378">
        <ele>353</ele>
        <time>2020-02-07T12:50:02.000Z</time>
      </trkpt>
      <trkpt lat="44.77234" lon="5.04377">
        <ele>353</ele>
        <time>2020-02-07T12:50:03.000Z</time>
      </trkpt>
      <trkpt lat="44.77234" lon="5.04376">
        <ele>352</ele>
        <time>2020-02-07T12:50:04.000Z</time>
      </trkpt>
      <trkpt lat="44.77234" lon="5.04375">
        <ele>352</ele>
        <time>2020-02-07T12:50:05.000Z</time>
      </trkpt>
      <trkpt lat="44.77233" lon="5.04373">
        <ele>352</ele>
        <time>2020-02-07T12:50:06.000Z</time>
      </trkpt>
      <trkpt lat="44.77233" lon="5.04372">
        <ele>352</ele>
        <time>2020-02-07T12:50:07.000Z</time>
      </trkpt>
      <trkpt lat="44.77233" lon="5.0437">
        <ele>351</ele>
        <time>2020-02-07T12:50:08.000Z</time>
      </trkpt>
      <trkpt lat="44.77233" lon="5.04369">
        <ele>351</ele>
        <time>2020-02-07T12:50:09.000Z</time>
      </trkpt>
      <trkpt lat="44.77233" lon="5.04367">
        <ele>351</ele>
        <time>2020-02-07T12:50:10.000Z</time>
      </trkpt>
      <trkpt lat="44.77233" lon="5.04365">
        <ele>351</ele>
        <time>2020-02-07T12:50:11.000Z</time>
      </trkpt>
      <trkpt lat="44.77233" lon="5.04364">
        <ele>350</ele>
        <time>2020-02-07T12:50:12.000Z</time>
      </trkpt>
      <trkpt lat="44.77233" lon="5.04362">
        <ele>350</ele>
        <time>2020-02-07T12:50:13.000Z</time>
      </trkpt>
      <trkpt lat="44.77233" lon="5.04361">
        <ele>350</ele>
        <time>2020-02-07T12:50:14.000Z</time>
      </trkpt>
      <trkpt lat="44.77233" lon="5.04359">
        <ele>350</ele>
        <time>2020-02-07T12:50:15.000Z</time>
      </trkpt>
      <trkpt lat="44.77234" lon="5.04358">
        <ele>350</ele>
        <time>2020-02-07T12:50:16.000Z</time>
      </trkpt>
      <trkpt lat="44.77234" lon="5.04357">
        <ele>350</ele>
        <time>2020-02-07T12:50:17.000Z</time>
      </trkpt>
      <trkpt lat="44.77234" lon="5.04355">
        <ele>349</ele>
        <time>2020-02-07T12:50:18.000Z</time>
      </trkpt>
      <trkpt lat="44.77235" lon="5.04354">
        <ele>349</ele>
        <time>2020-02-07T12:50:19.000Z</time>
      </trkpt>
      <trkpt lat="44.77236" lon="5.04353">
        <ele>349</ele>
        <time>2020-02-07T12:50:20.000Z</time>
      </trkpt>
      <trkpt lat="44.77236" lon="5.04352">
        <ele>349</ele>
        <time>2020-02-07T12:50:21.000Z</time>
      </trkpt>
      <trkpt lat="44.77237" lon="5.04351">
        <ele>349</ele>
        <time>2020-02-07T12:50:22.000Z</time>
      </trkpt>
      <trkpt lat="44.77237" lon="5.0435">
        <ele>349</ele>
        <time>2020-02-07T12:50:23.000Z</time>
      </trkpt>
      <trkpt lat="44.77238" lon="5.04349">
        <ele>349</ele>
        <time>2020-02-07T12:50:24.000Z</time>
      </trkpt>
      <trkpt lat="44.77239" lon="5.04348">
        <ele>349</ele>
        <time>2020-02-07T12:50:25.000Z</time>
      </trkpt>
      <trkpt lat="44.7724" lon="5.04346">
        <ele>349</ele>
        <time>2020-02-07T12:50:26.000Z</time>
      </trkpt>
      <trkpt lat="44.77241" lon="5.04345">
        <ele>349</ele>
        <time>2020-02-07T12:50:27.000Z</time>
      </trkpt>
      <trkpt lat="44.77241" lon="5.04344">
        <ele>349</ele>
        <time>2020-02-07T12:50:28.000Z</time>
      </trkpt>
      <trkpt lat="44.77242" lon="5.04343">
        <ele>349</ele>
        <time>2020-02-07T12:50:29.000Z</time>
      </trkpt>
      <trkpt lat="44.77243" lon="5.04342">
        <ele>349</ele>
        <time>2020-02-07T12:50:30.000Z</time>
      </trkpt>
      <trkpt lat="44.77244" lon="5.04341">
        <ele>349</ele>
        <time>2020-02-07T12:50:31.000Z</time>
      </trkpt>
      <trkpt lat="44.77245" lon="5.0434">
        <ele>349</ele>
        <time>2020-02-07T12:50:32.000Z</time>
      </trkpt>
      <trkpt lat="44.77246" lon="5.04339">
        <ele>348</ele>
        <time>2020-02-07T12:50:33.000Z</time>
      </trkpt>
      <trkpt lat="44.77247" lon="5.04338">
        <ele>348</ele>
        <time>2020-02-07T12:50:34.000Z</time>
      </trkpt>
      <trkpt lat="44.77248" lon="5.04337">
        <ele>348</ele>
        <time>2020-02-07T12:50:35.000Z</time>
      </trkpt>
      <trkpt lat="44.77249" lon="5.04336">
        <ele>348</ele>
        <time>2020-02-07T12:50:36.000Z</time>
      </trkpt>
      <trkpt lat="44.7725" lon="5.04335">
        <ele>348</ele>
        <time>2020-02-07T12:50:37.000Z</time>
      </trkpt>
      <trkpt lat="44.77251" lon="5.04334">
        <ele>348</ele>
        <time>2020-02-07T12:50:38.000Z</time>
      </trkpt>
      <trkpt lat="44.77252" lon="5.04333">
        <ele>348</ele>
        <time>2020-02-07T12:50:39.000Z</time>
      </trkpt>
      <trkpt lat="44.77252" lon="5.04332">
        <ele>348</ele>
        <time>2020-02-07T12:50:40.000Z</time>
      </trkpt>
      <trkpt lat="44.77253" lon="5.04332">
        <ele>348</ele>
        <time>2020-02-07T12:50:41.000Z</time>
      </trkpt>
      <trkpt lat="44.77253" lon="5.04332">
        <ele>348</ele>
        <time>2020-02-07T12:50:42.000Z</time>
      </trkpt>
      <trkpt lat="44.77253" lon="5.04332">
        <ele>348</ele>
        <time>2020-02-07T12:50:43.000Z</time>
      </trkpt>
      <trkpt lat="44.77253" lon="5.04331">
        <ele>348</ele>
        <time>2020-02-07T12:50:44.000Z</time>
      </trkpt>
      <trkpt lat="44.77253" lon="5.04331">
        <ele>348</ele>
        <time>2020-02-07T12:50:45.000Z</time>
      </trkpt>
      <trkpt lat="44.77253" lon="5.04331">
        <ele>348</ele>
        <time>2020-02-07T12:50:46.000Z</time>
      </trkpt>
      <trkpt lat="44.77253" lon="5.04331">
        <ele>348</ele>
        <time>2020-02-07T12:50:47.000Z</time>
      </trkpt>
      <trkpt lat="44.77253" lon="5.0433">
        <ele>348</ele>
        <time>2020-02-07T12:50:48.000Z</time>
      </trkpt>
      <trkpt lat="44.77254" lon="5.04329">
        <ele>348</ele>
        <time>2020-02-07T12:50:49.000Z</time>
      </trkpt>
      <trkpt lat="44.77254" lon="5.04329">
        <ele>348</ele>
        <time>2020-02-07T12:50:50.000Z</time>
      </trkpt>
      <trkpt lat="44.77255" lon="5.04328">
        <ele>348</ele>
        <time>2020-02-07T12:50:51.000Z</time>
      </trkpt>
      <trkpt lat="44.77255" lon="5.04327">
        <ele>348</ele>
        <time>2020-02-07T12:50:52.000Z</time>
      </trkpt>
      <trkpt lat="44.77255" lon="5.04326">
        <ele>348</ele>
        <time>2020-02-07T12:50:53.000Z</time>
      </trkpt>
      <trkpt lat="44.77254" lon="5.04326">
        <ele>348</ele>
        <time>2020-02-07T12:50:54.000Z</time>
      </trkpt>
      <trkpt lat="44.77254" lon="5.04325">
        <ele>348</ele>
        <time>2020-02-07T12:50:55.000Z</time>
      </trkpt>
      <trkpt lat="44.77254" lon="5.04325">
        <ele>348</ele>
        <time>2020-02-07T12:50:56.000Z</time>
      </trkpt>
      <trkpt lat="44.77254" lon="5.04325">
        <ele>348</ele>
        <time>2020-02-07T12:50:57.000Z</time>
      </trkpt>
      <trkpt lat="44.77253" lon="5.04325">
        <ele>348</ele>
        <time>2020-02-07T12:50:58.000Z</time>
      </trkpt>
      <trkpt lat="44.77253" lon="5.04325">
        <ele>348</ele>
        <time>2020-02-07T12:50:59.000Z</time>
      </trkpt>
      <trkpt lat="44.77254" lon="5.04325">
        <ele>348</ele>
        <time>2020-02-07T12:51:00.000Z</time>
      </trkpt>
      <trkpt lat="44.77254" lon="5.04325">
        <ele>348</ele>
        <time>2020-02-07T12:51:01.000Z</time>
      </trkpt>
      <trkpt lat="44.77254" lon="5.04325">
        <ele>348</ele>
        <time>2020-02-07T12:51:02.000Z</time>
      </trkpt>
      <trkpt lat="44.77253" lon="5.04325">
        <ele>348</ele>
        <time>2020-02-07T12:51:03.000Z</time>
      </trkpt>
      <trkpt lat="44.77254" lon="5.04324">
        <ele>348</ele>
        <time>2020-02-07T12:51:04.000Z</time>
      </trkpt>
      <trkpt lat="44.77255" lon="5.04324">
        <ele>348</ele>
        <time>2020-02-07T12:51:05.000Z</time>
      </trkpt>
      <trkpt lat="44.77256" lon="5.04323">
        <ele>348</ele>
        <time>2020-02-07T12:51:06.000Z</time>
      </trkpt>
      <trkpt lat="44.77257" lon="5.04323">
        <ele>347</ele>
        <time>2020-02-07T12:51:07.000Z</time>
      </trkpt>
      <trkpt lat="44.77257" lon="5.04324">
        <ele>347</ele>
        <time>2020-02-07T12:51:08.000Z</time>
      </trkpt>
      <trkpt lat="44.77258" lon="5.04324">
        <ele>347</ele>
        <time>2020-02-07T12:51:09.000Z</time>
      </trkpt>
      <trkpt lat="44.77259" lon="5.04324">
        <ele>347</ele>
        <time>2020-02-07T12:51:10.000Z</time>
      </trkpt>
      <trkpt lat="44.77259" lon="5.04324">
        <ele>347</ele>
        <time>2020-02-07T12:51:11.000Z</time>
      </trkpt>
      <trkpt lat="44.7726" lon="5.04324">
        <ele>347</ele>
        <time>2020-02-07T12:51:12.000Z</time>
      </trkpt>
      <trkpt lat="44.77261" lon="5.04323">
        <ele>347</ele>
        <time>2020-02-07T12:51:13.000Z</time>
      </trkpt>
      <trkpt lat="44.77262" lon="5.04322">
        <ele>347</ele>
        <time>2020-02-07T12:51:14.000Z</time>
      </trkpt>
      <trkpt lat="44.77263" lon="5.04321">
        <ele>347</ele>
        <time>2020-02-07T12:51:15.000Z</time>
      </trkpt>
      <trkpt lat="44.77264" lon="5.04321">
        <ele>347</ele>
        <time>2020-02-07T12:51:16.000Z</time>
      </trkpt>
      <trkpt lat="44.77264" lon="5.0432">
        <ele>346</ele>
        <time>2020-02-07T12:51:17.000Z</time>
      </trkpt>
      <trkpt lat="44.77265" lon="5.0432">
        <ele>346</ele>
        <time>2020-02-07T12:51:18.000Z</time>
      </trkpt>
      <trkpt lat="44.77266" lon="5.04319">
        <ele>346</ele>
        <time>2020-02-07T12:51:19.000Z</time>
      </trkpt>
      <trkpt lat="44.77267" lon="5.04318">
        <ele>346</ele>
        <time>2020-02-07T12:51:20.000Z</time>
      </trkpt>
      <trkpt lat="44.77268" lon="5.04318">
        <ele>346</ele>
        <time>2020-02-07T12:51:21.000Z</time>
      </trkpt>
      <trkpt lat="44.77269" lon="5.04317">
        <ele>346</ele>
        <time>2020-02-07T12:51:22.000Z</time>
      </trkpt>
      <trkpt lat="44.7727" lon="5.04316">
        <ele>346</ele>
        <time>2020-02-07T12:51:23.000Z</time>
      </trkpt>
      <trkpt lat="44.7727" lon="5.04315">
        <ele>346</ele>
        <time>2020-02-07T12:51:24.000Z</time>
      </trkpt>
      <trkpt lat="44.77271" lon="5.04315">
        <ele>346</ele>
        <time>2020-02-07T12:51:25.000Z</time>
      </trkpt>
      <trkpt lat="44.77272" lon="5.04314">
        <ele>346</ele>
        <time>2020-02-07T12:51:26.000Z</time>
      </trkpt>
      <trkpt lat="44.77273" lon="5.04313">
        <ele>346</ele>
        <time>2020-02-07T12:51:27.000Z</time>
      </trkpt>
      <trkpt lat="44.77274" lon="5.04313">
        <ele>346</ele>
        <time>2020-02-07T12:51:28.000Z</time>
      </trkpt>
      <trkpt lat="44.77275" lon="5.04312">
        <ele>346</ele>
        <time>2020-02-07T12:51:29.000Z</time>
      </trkpt>
      <trkpt lat="44.77275" lon="5.04311">
        <ele>346</ele>
        <time>2020-02-07T12:51:30.000Z</time>
      </trkpt>
      <trkpt lat="44.77276" lon="5.0431">
        <ele>346</ele>
        <time>2020-02-07T12:51:31.000Z</time>
      </trkpt>
      <trkpt lat="44.77277" lon="5.0431">
        <ele>346</ele>
        <time>2020-02-07T12:51:32.000Z</time>
      </trkpt>
      <trkpt lat="44.77278" lon="5.04309">
        <ele>346</ele>
        <time>2020-02-07T12:51:33.000Z</time>
      </trkpt>
      <trkpt lat="44.77279" lon="5.04309">
        <ele>346</ele>
        <time>2020-02-07T12:51:34.000Z</time>
      </trkpt>
      <trkpt lat="44.77281" lon="5.04308">
        <ele>346</ele>
        <time>2020-02-07T12:51:35.000Z</time>
      </trkpt>
      <trkpt lat="44.77282" lon="5.04307">
        <ele>346</ele>
        <time>2020-02-07T12:51:36.000Z</time>
      </trkpt>
      <trkpt lat="44.77282" lon="5.04306">
        <ele>346</ele>
        <time>2020-02-07T12:51:37.000Z</time>
      </trkpt>
      <trkpt lat="44.77283" lon="5.04306">
        <ele>346</ele>
        <time>2020-02-07T12:51:38.000Z</time>
      </trkpt>
      <trkpt lat="44.77284" lon="5.04305">
        <ele>346</ele>
        <time>2020-02-07T12:51:39.000Z</time>
      </trkpt>
      <trkpt lat="44.77285" lon="5.04304">
        <ele>346</ele>
        <time>2020-02-07T12:51:40.000Z</time>
      </trkpt>
      <trkpt lat="44.77286" lon="5.04303">
        <ele>346</ele>
        <time>2020-02-07T12:51:41.000Z</time>
      </trkpt>
      <trkpt lat="44.77287" lon="5.04302">
        <ele>346</ele>
        <time>2020-02-07T12:51:42.000Z</time>
      </trkpt>
      <trkpt lat="44.77288" lon="5.04302">
        <ele>346</ele>
        <time>2020-02-07T12:51:43.000Z</time>
      </trkpt>
      <trkpt lat="44.77289" lon="5.04302">
        <ele>346</ele>
        <time>2020-02-07T12:51:44.000Z</time>
      </trkpt>
      <trkpt lat="44.7729" lon="5.04301">
        <ele>346</ele>
        <time>2020-02-07T12:51:45.000Z</time>
      </trkpt>
      <trkpt lat="44.77291" lon="5.043">
        <ele>346</ele>
        <time>2020-02-07T12:51:46.000Z</time>
      </trkpt>
      <trkpt lat="44.77292" lon="5.043">
        <ele>346</ele>
        <time>2020-02-07T12:51:47.000Z</time>
      </trkpt>
      <trkpt lat="44.77293" lon="5.04299">
        <ele>346</ele>
        <time>2020-02-07T12:51:48.000Z</time>
      </trkpt>
      <trkpt lat="44.77294" lon="5.04299">
        <ele>346</ele>
        <time>2020-02-07T12:51:49.000Z</time>
      </trkpt>
      <trkpt lat="44.77295" lon="5.04298">
        <ele>346</ele>
        <time>2020-02-07T12:51:50.000Z</time>
      </trkpt>
      <trkpt lat="44.77296" lon="5.04297">
        <ele>345</ele>
        <time>2020-02-07T12:51:51.000Z</time>
      </trkpt>
      <trkpt lat="44.77297" lon="5.04296">
        <ele>345</ele>
        <time>2020-02-07T12:51:52.000Z</time>
      </trkpt>
      <trkpt lat="44.77298" lon="5.04295">
        <ele>345</ele>
        <time>2020-02-07T12:51:53.000Z</time>
      </trkpt>
      <trkpt lat="44.77299" lon="5.04295">
        <ele>345</ele>
        <time>2020-02-07T12:51:54.000Z</time>
      </trkpt>
      <trkpt lat="44.77299" lon="5.04294">
        <ele>345</ele>
        <time>2020-02-07T12:51:55.000Z</time>
      </trkpt>
      <trkpt lat="44.773" lon="5.04293">
        <ele>345</ele>
        <time>2020-02-07T12:51:56.000Z</time>
      </trkpt>
      <trkpt lat="44.77301" lon="5.04292">
        <ele>345</ele>
        <time>2020-02-07T12:51:57.000Z</time>
      </trkpt>
      <trkpt lat="44.77302" lon="5.04291">
        <ele>345</ele>
        <time>2020-02-07T12:51:58.000Z</time>
      </trkpt>
      <trkpt lat="44.77302" lon="5.0429">
        <ele>345</ele>
        <time>2020-02-07T12:51:59.000Z</time>
      </trkpt>
      <trkpt lat="44.77303" lon="5.0429">
        <ele>345</ele>
        <time>2020-02-07T12:52:00.000Z</time>
      </trkpt>
      <trkpt lat="44.77302" lon="5.0429">
        <ele>345</ele>
        <time>2020-02-07T12:52:01.000Z</time>
      </trkpt>
      <trkpt lat="44.77302" lon="5.0429">
        <ele>345</ele>
        <time>2020-02-07T12:52:02.000Z</time>
      </trkpt>
      <trkpt lat="44.77302" lon="5.0429">
        <ele>345</ele>
        <time>2020-02-07T12:52:03.000Z</time>
      </trkpt>
      <trkpt lat="44.77302" lon="5.0429">
        <ele>345</ele>
        <time>2020-02-07T12:52:04.000Z</time>
      </trkpt>
      <trkpt lat="44.77302" lon="5.04289">
        <ele>345</ele>
        <time>2020-02-07T12:52:05.000Z</time>
      </trkpt>
      <trkpt lat="44.77302" lon="5.04289">
        <ele>345</ele>
        <time>2020-02-07T12:52:06.000Z</time>
      </trkpt>
      <trkpt lat="44.77302" lon="5.04289">
        <ele>345</ele>
        <time>2020-02-07T12:52:07.000Z</time>
      </trkpt>
      <trkpt lat="44.77302" lon="5.04289">
        <ele>345</ele>
        <time>2020-02-07T12:52:08.000Z</time>
      </trkpt>
      <trkpt lat="44.77302" lon="5.04289">
        <ele>345</ele>
        <time>2020-02-07T12:52:09.000Z</time>
      </trkpt>
      <trkpt lat="44.77302" lon="5.04289">
        <ele>345</ele>
        <time>2020-02-07T12:52:10.000Z</time>
      </trkpt>
      <trkpt lat="44.77302" lon="5.04289">
        <ele>345</ele>
        <time>2020-02-07T12:52:11.000Z</time>
      </trkpt>
      <trkpt lat="44.77302" lon="5.04289">
        <ele>345</ele>
        <time>2020-02-07T12:52:12.000Z</time>
      </trkpt>
      <trkpt lat="44.77302" lon="5.04289">
        <ele>345</ele>
        <time>2020-02-07T12:52:13.000Z</time>
      </trkpt>
      <trkpt lat="44.77302" lon="5.04289">
        <ele>345</ele>
        <time>2020-02-07T12:52:14.000Z</time>
      </trkpt>
      <trkpt lat="44.77302" lon="5.04289">
        <ele>345</ele>
        <time>2020-02-07T12:52:15.000Z</time>
      </trkpt>
      <trkpt lat="44.77302" lon="5.04289">
        <ele>345</ele>
        <time>2020-02-07T12:52:16.000Z</time>
      </trkpt>
      <trkpt lat="44.77302" lon="5.04289">
        <ele>345</ele>
        <time>2020-02-07T12:52:17.000Z</time>
      </trkpt>
      <trkpt lat="44.77301" lon="5.04289">
        <ele>345</ele>
        <time>2020-02-07T12:52:18.000Z</time>
      </trkpt>
      <trkpt lat="44.77301" lon="5.04289">
        <ele>345</ele>
        <time>2020-02-07T12:52:19.000Z</time>
      </trkpt>
      <trkpt lat="44.77301" lon="5.04289">
        <ele>345</ele>
        <time>2020-02-07T12:52:20.000Z</time>
      </trkpt>
      <trkpt lat="44.77301" lon="5.04289">
        <ele>345</ele>
        <time>2020-02-07T12:52:21.000Z</time>
      </trkpt>
      <trkpt lat="44.77301" lon="5.04289">
        <ele>345</ele>
        <time>2020-02-07T12:52:22.000Z</time>
      </trkpt>
      <trkpt lat="44.77301" lon="5.04289">
        <ele>345</ele>
        <time>2020-02-07T12:52:23.000Z</time>
      </trkpt>
      <trkpt lat="44.77301" lon="5.04289">
        <ele>345</ele>
        <time>2020-02-07T12:52:24.000Z</time>
      </trkpt>
      <trkpt lat="44.77301" lon="5.04289">
        <ele>345</ele>
        <time>2020-02-07T12:52:25.000Z</time>
      </trkpt>
      <trkpt lat="44.77301" lon="5.04289">
        <ele>345</ele>
        <time>2020-02-07T12:52:26.000Z</time>
      </trkpt>
      <trkpt lat="44.77301" lon="5.04289">
        <ele>345</ele>
        <time>2020-02-07T12:52:27.000Z</time>
      </trkpt>
      <trkpt lat="44.77301" lon="5.0429">
        <ele>345</ele>
        <time>2020-02-07T12:52:28.000Z</time>
      </trkpt>
      <trkpt lat="44.77301" lon="5.0429">
        <ele>345</ele>
        <time>2020-02-07T12:52:29.000Z</time>
      </trkpt>
      <trkpt lat="44.77301" lon="5.0429">
        <ele>345</ele>
        <time>2020-02-07T12:52:30.000Z</time>
      </trkpt>
      <trkpt lat="44.77301" lon="5.0429">
        <ele>345</ele>
        <time>2020-02-07T12:52:31.000Z</time>
      </trkpt>
      <trkpt lat="44.77301" lon="5.0429">
        <ele>345</ele>
        <time>2020-02-07T12:52:32.000Z</time>
      </trkpt>
      <trkpt lat="44.77301" lon="5.0429">
        <ele>345</ele>
        <time>2020-02-07T12:52:33.000Z</time>
      </trkpt>
      <trkpt lat="44.77301" lon="5.0429">
        <ele>345</ele>
        <time>2020-02-07T12:52:34.000Z</time>
      </trkpt>
      <trkpt lat="44.77301" lon="5.0429">
        <ele>344</ele>
        <time>2020-02-07T12:52:35.000Z</time>
      </trkpt>
      <trkpt lat="44.77301" lon="5.0429">
        <ele>344</ele>
        <time>2020-02-07T12:52:36.000Z</time>
      </trkpt>
      <trkpt lat="44.77301" lon="5.0429">
        <ele>344</ele>
        <time>2020-02-07T12:52:37.000Z</time>
      </trkpt>
      <trkpt lat="44.77301" lon="5.0429">
        <ele>344</ele>
        <time>2020-02-07T12:52:38.000Z</time>
      </trkpt>
      <trkpt lat="44.77301" lon="5.0429">
        <ele>344</ele>
        <time>2020-02-07T12:52:39.000Z</time>
      </trkpt>
      <trkpt lat="44.77301" lon="5.0429">
        <ele>344</ele>
        <time>2020-02-07T12:52:40.000Z</time>
      </trkpt>
      <trkpt lat="44.77301" lon="5.0429">
        <ele>344</ele>
        <time>2020-02-07T12:52:41.000Z</time>
      </trkpt>
      <trkpt lat="44.77301" lon="5.0429">
        <ele>344</ele>
        <time>2020-02-07T12:52:42.000Z</time>
      </trkpt>
      <trkpt lat="44.77301" lon="5.0429">
        <ele>344</ele>
        <time>2020-02-07T12:52:43.000Z</time>
      </trkpt>
      <trkpt lat="44.77301" lon="5.0429">
        <ele>344</ele>
        <time>2020-02-07T12:52:44.000Z</time>
      </trkpt>
      <trkpt lat="44.77301" lon="5.0429">
        <ele>344</ele>
        <time>2020-02-07T12:52:45.000Z</time>
      </trkpt>
      <trkpt lat="44.77301" lon="5.0429">
        <ele>344</ele>
        <time>2020-02-07T12:52:46.000Z</time>
      </trkpt>
      <trkpt lat="44.77301" lon="5.0429">
        <ele>344</ele>
        <time>2020-02-07T12:52:47.000Z</time>
      </trkpt>
      <trkpt lat="44.77301" lon="5.0429">
        <ele>344</ele>
        <time>2020-02-07T12:52:48.000Z</time>
      </trkpt>
      <trkpt lat="44.77301" lon="5.0429">
        <ele>344</ele>
        <time>2020-02-07T12:52:49.000Z</time>
      </trkpt>
      <trkpt lat="44.77301" lon="5.0429">
        <ele>344</ele>
        <time>2020-02-07T12:52:50.000Z</time>
      </trkpt>
      <trkpt lat="44.77301" lon="5.0429">
        <ele>344</ele>
        <time>2020-02-07T12:52:51.000Z</time>
      </trkpt>
      <trkpt lat="44.77301" lon="5.0429">
        <ele>344</ele>
        <time>2020-02-07T12:52:52.000Z</time>
      </trkpt>
      <trkpt lat="44.77301" lon="5.0429">
        <ele>344</ele>
        <time>2020-02-07T12:52:53.000Z</time>
      </trkpt>
      <trkpt lat="44.77301" lon="5.0429">
        <ele>344</ele>
        <time>2020-02-07T12:52:54.000Z</time>
      </trkpt>
      <trkpt lat="44.77301" lon="5.0429">
        <ele>344</ele>
        <time>2020-02-07T12:52:55.000Z</time>
      </trkpt>
      <trkpt lat="44.77301" lon="5.0429">
        <ele>344</ele>
        <time>2020-02-07T12:52:56.000Z</time>
      </trkpt>
      <trkpt lat="44.77301" lon="5.0429">
        <ele>344</ele>
        <time>2020-02-07T12:52:57.000Z</time>
      </trkpt>
      <trkpt lat="44.77301" lon="5.0429">
        <ele>344</ele>
        <time>2020-02-07T12:52:58.000Z</time>
      </trkpt>
      <trkpt lat="44.77301" lon="5.0429">
        <ele>344</ele>
        <time>2020-02-07T12:52:59.000Z</time>
      </trkpt>
      <trkpt lat="44.77301" lon="5.0429">
        <ele>344</ele>
        <time>2020-02-07T12:53:00.000Z</time>
      </trkpt>
      <trkpt lat="44.77301" lon="5.0429">
        <ele>344</ele>
        <time>2020-02-07T12:53:01.000Z</time>
      </trkpt>
      <trkpt lat="44.77301" lon="5.0429">
        <ele>344</ele>
        <time>2020-02-07T12:53:02.000Z</time>
      </trkpt>
      <trkpt lat="44.773" lon="5.0429">
        <ele>344</ele>
        <time>2020-02-07T12:53:03.000Z</time>
      </trkpt>
      <trkpt lat="44.773" lon="5.0429">
        <ele>344</ele>
        <time>2020-02-07T12:53:04.000Z</time>
      </trkpt>
      <trkpt lat="44.773" lon="5.04291">
        <ele>344</ele>
        <time>2020-02-07T12:53:05.000Z</time>
      </trkpt>
      <trkpt lat="44.773" lon="5.04291">
        <ele>344</ele>
        <time>2020-02-07T12:53:06.000Z</time>
      </trkpt>
      <trkpt lat="44.773" lon="5.04291">
        <ele>344</ele>
        <time>2020-02-07T12:53:07.000Z</time>
      </trkpt>
      <trkpt lat="44.773" lon="5.04291">
        <ele>344</ele>
        <time>2020-02-07T12:53:08.000Z</time>
      </trkpt>
      <trkpt lat="44.773" lon="5.04291">
        <ele>344</ele>
        <time>2020-02-07T12:53:09.000Z</time>
      </trkpt>
      <trkpt lat="44.773" lon="5.04291">
        <ele>344</ele>
        <time>2020-02-07T12:53:10.000Z</time>
      </trkpt>
      <trkpt lat="44.773" lon="5.04292">
        <ele>344</ele>
        <time>2020-02-07T12:53:11.000Z</time>
      </trkpt>
      <trkpt lat="44.773" lon="5.04292">
        <ele>344</ele>
        <time>2020-02-07T12:53:12.000Z</time>
      </trkpt>
      <trkpt lat="44.77299" lon="5.04292">
        <ele>344</ele>
        <time>2020-02-07T12:53:13.000Z</time>
      </trkpt>
      <trkpt lat="44.77299" lon="5.04292">
        <ele>344</ele>
        <time>2020-02-07T12:53:14.000Z</time>
      </trkpt>
      <trkpt lat="44.77299" lon="5.04292">
        <ele>344</ele>
        <time>2020-02-07T12:53:15.000Z</time>
      </trkpt>
      <trkpt lat="44.77299" lon="5.04292">
        <ele>344</ele>
        <time>2020-02-07T12:53:16.000Z</time>
      </trkpt>
      <trkpt lat="44.773" lon="5.04292">
        <ele>344</ele>
        <time>2020-02-07T12:53:17.000Z</time>
      </trkpt>
      <trkpt lat="44.773" lon="5.04292">
        <ele>344</ele>
        <time>2020-02-07T12:53:18.000Z</time>
      </trkpt>
      <trkpt lat="44.773" lon="5.04292">
        <ele>344</ele>
        <time>2020-02-07T12:53:19.000Z</time>
      </trkpt>
      <trkpt lat="44.773" lon="5.04292">
        <ele>344</ele>
        <time>2020-02-07T12:53:20.000Z</time>
      </trkpt>
      <trkpt lat="44.773" lon="5.04293">
        <ele>344</ele>
        <time>2020-02-07T12:53:21.000Z</time>
      </trkpt>
      <trkpt lat="44.773" lon="5.04293">
        <ele>344</ele>
        <time>2020-02-07T12:53:22.000Z</time>
      </trkpt>
      <trkpt lat="44.773" lon="5.04293">
        <ele>344</ele>
        <time>2020-02-07T12:53:23.000Z</time>
      </trkpt>
      <trkpt lat="44.773" lon="5.04293">
        <ele>344</ele>
        <time>2020-02-07T12:53:24.000Z</time>
      </trkpt>
      <trkpt lat="44.773" lon="5.04294">
        <ele>344</ele>
        <time>2020-02-07T12:53:25.000Z</time>
      </trkpt>
      <trkpt lat="44.773" lon="5.04294">
        <ele>344</ele>
        <time>2020-02-07T12:53:26.000Z</time>
      </trkpt>
      <trkpt lat="44.773" lon="5.04294">
        <ele>344</ele>
        <time>2020-02-07T12:53:27.000Z</time>
      </trkpt>
      <trkpt lat="44.773" lon="5.04294">
        <ele>344</ele>
        <time>2020-02-07T12:53:28.000Z</time>
      </trkpt>
      <trkpt lat="44.773" lon="5.04294">
        <ele>344</ele>
        <time>2020-02-07T12:53:29.000Z</time>
      </trkpt>
      <trkpt lat="44.773" lon="5.04294">
        <ele>344</ele>
        <time>2020-02-07T12:53:30.000Z</time>
      </trkpt>
      <trkpt lat="44.773" lon="5.04294">
        <ele>344</ele>
        <time>2020-02-07T12:53:31.000Z</time>
      </trkpt>
      <trkpt lat="44.773" lon="5.04294">
        <ele>344</ele>
        <time>2020-02-07T12:53:32.000Z</time>
      </trkpt>
      <trkpt lat="44.773" lon="5.04294">
        <ele>344</ele>
        <time>2020-02-07T12:53:33.000Z</time>
      </trkpt>
      <trkpt lat="44.77299" lon="5.04294">
        <ele>344</ele>
        <time>2020-02-07T12:53:34.000Z</time>
      </trkpt>
      <trkpt lat="44.77299" lon="5.04294">
        <ele>343</ele>
        <time>2020-02-07T12:53:35.000Z</time>
      </trkpt>
      <trkpt lat="44.77298" lon="5.04295">
        <ele>343</ele>
        <time>2020-02-07T12:53:36.000Z</time>
      </trkpt>
      <trkpt lat="44.77298" lon="5.04295">
        <ele>343</ele>
        <time>2020-02-07T12:53:37.000Z</time>
      </trkpt>
      <trkpt lat="44.77297" lon="5.04296">
        <ele>343</ele>
        <time>2020-02-07T12:53:38.000Z</time>
      </trkpt>
      <trkpt lat="44.77297" lon="5.04297">
        <ele>343</ele>
        <time>2020-02-07T12:53:39.000Z</time>
      </trkpt>
      <trkpt lat="44.77296" lon="5.04297">
        <ele>343</ele>
        <time>2020-02-07T12:53:40.000Z</time>
      </trkpt>
      <trkpt lat="44.77296" lon="5.04298">
        <ele>343</ele>
        <time>2020-02-07T12:53:41.000Z</time>
      </trkpt>
      <trkpt lat="44.77295" lon="5.04298">
        <ele>343</ele>
        <time>2020-02-07T12:53:42.000Z</time>
      </trkpt>
      <trkpt lat="44.77294" lon="5.04299">
        <ele>343</ele>
        <time>2020-02-07T12:53:43.000Z</time>
      </trkpt>
      <trkpt lat="44.77294" lon="5.043">
        <ele>343</ele>
        <time>2020-02-07T12:53:44.000Z</time>
      </trkpt>
      <trkpt lat="44.77293" lon="5.04301">
        <ele>343</ele>
        <time>2020-02-07T12:53:45.000Z</time>
      </trkpt>
      <trkpt lat="44.77292" lon="5.04301">
        <ele>343</ele>
        <time>2020-02-07T12:53:46.000Z</time>
      </trkpt>
      <trkpt lat="44.77292" lon="5.04301">
        <ele>343</ele>
        <time>2020-02-07T12:53:47.000Z</time>
      </trkpt>
      <trkpt lat="44.77291" lon="5.04302">
        <ele>344</ele>
        <time>2020-02-07T12:53:48.000Z</time>
      </trkpt>
      <trkpt lat="44.77291" lon="5.04303">
        <ele>344</ele>
        <time>2020-02-07T12:53:49.000Z</time>
      </trkpt>
      <trkpt lat="44.7729" lon="5.04304">
        <ele>344</ele>
        <time>2020-02-07T12:53:50.000Z</time>
      </trkpt>
      <trkpt lat="44.77289" lon="5.04304">
        <ele>344</ele>
        <time>2020-02-07T12:53:51.000Z</time>
      </trkpt>
      <trkpt lat="44.77289" lon="5.04305">
        <ele>344</ele>
        <time>2020-02-07T12:53:52.000Z</time>
      </trkpt>
      <trkpt lat="44.77288" lon="5.04305">
        <ele>344</ele>
        <time>2020-02-07T12:53:53.000Z</time>
      </trkpt>
      <trkpt lat="44.77288" lon="5.04306">
        <ele>344</ele>
        <time>2020-02-07T12:53:54.000Z</time>
      </trkpt>
      <trkpt lat="44.77287" lon="5.04307">
        <ele>344</ele>
        <time>2020-02-07T12:53:55.000Z</time>
      </trkpt>
      <trkpt lat="44.77286" lon="5.04308">
        <ele>344</ele>
        <time>2020-02-07T12:53:56.000Z</time>
      </trkpt>
      <trkpt lat="44.77285" lon="5.04309">
        <ele>345</ele>
        <time>2020-02-07T12:53:57.000Z</time>
      </trkpt>
      <trkpt lat="44.77284" lon="5.0431">
        <ele>345</ele>
        <time>2020-02-07T12:53:58.000Z</time>
      </trkpt>
      <trkpt lat="44.77284" lon="5.0431">
        <ele>345</ele>
        <time>2020-02-07T12:53:59.000Z</time>
      </trkpt>
      <trkpt lat="44.77283" lon="5.04311">
        <ele>345</ele>
        <time>2020-02-07T12:54:00.000Z</time>
      </trkpt>
      <trkpt lat="44.77282" lon="5.04311">
        <ele>345</ele>
        <time>2020-02-07T12:54:01.000Z</time>
      </trkpt>
      <trkpt lat="44.77282" lon="5.04312">
        <ele>345</ele>
        <time>2020-02-07T12:54:02.000Z</time>
      </trkpt>
      <trkpt lat="44.77282" lon="5.04312">
        <ele>345</ele>
        <time>2020-02-07T12:54:03.000Z</time>
      </trkpt>
      <trkpt lat="44.77282" lon="5.04313">
        <ele>345</ele>
        <time>2020-02-07T12:54:04.000Z</time>
      </trkpt>
      <trkpt lat="44.77281" lon="5.04313">
        <ele>345</ele>
        <time>2020-02-07T12:54:05.000Z</time>
      </trkpt>
      <trkpt lat="44.7728" lon="5.04314">
        <ele>345</ele>
        <time>2020-02-07T12:54:06.000Z</time>
      </trkpt>
      <trkpt lat="44.7728" lon="5.04315">
        <ele>345</ele>
        <time>2020-02-07T12:54:07.000Z</time>
      </trkpt>
      <trkpt lat="44.77279" lon="5.04315">
        <ele>345</ele>
        <time>2020-02-07T12:54:08.000Z</time>
      </trkpt>
      <trkpt lat="44.77278" lon="5.04316">
        <ele>346</ele>
        <time>2020-02-07T12:54:09.000Z</time>
      </trkpt>
      <trkpt lat="44.77277" lon="5.04316">
        <ele>346</ele>
        <time>2020-02-07T12:54:10.000Z</time>
      </trkpt>
      <trkpt lat="44.77276" lon="5.04317">
        <ele>346</ele>
        <time>2020-02-07T12:54:11.000Z</time>
      </trkpt>
      <trkpt lat="44.77275" lon="5.04317">
        <ele>346</ele>
        <time>2020-02-07T12:54:12.000Z</time>
      </trkpt>
      <trkpt lat="44.77274" lon="5.04318">
        <ele>346</ele>
        <time>2020-02-07T12:54:13.000Z</time>
      </trkpt>
      <trkpt lat="44.77274" lon="5.04318">
        <ele>346</ele>
        <time>2020-02-07T12:54:14.000Z</time>
      </trkpt>
      <trkpt lat="44.77273" lon="5.04319">
        <ele>346</ele>
        <time>2020-02-07T12:54:15.000Z</time>
      </trkpt>
      <trkpt lat="44.77272" lon="5.0432">
        <ele>346</ele>
        <time>2020-02-07T12:54:16.000Z</time>
      </trkpt>
      <trkpt lat="44.77271" lon="5.0432">
        <ele>346</ele>
        <time>2020-02-07T12:54:17.000Z</time>
      </trkpt>
      <trkpt lat="44.7727" lon="5.04321">
        <ele>346</ele>
        <time>2020-02-07T12:54:18.000Z</time>
      </trkpt>
      <trkpt lat="44.7727" lon="5.04322">
        <ele>346</ele>
        <time>2020-02-07T12:54:19.000Z</time>
      </trkpt>
      <trkpt lat="44.77269" lon="5.04322">
        <ele>347</ele>
        <time>2020-02-07T12:54:20.000Z</time>
      </trkpt>
      <trkpt lat="44.77268" lon="5.04323">
        <ele>347</ele>
        <time>2020-02-07T12:54:21.000Z</time>
      </trkpt>
      <trkpt lat="44.77268" lon="5.04323">
        <ele>347</ele>
        <time>2020-02-07T12:54:22.000Z</time>
      </trkpt>
      <trkpt lat="44.77267" lon="5.04324">
        <ele>347</ele>
        <time>2020-02-07T12:54:23.000Z</time>
      </trkpt>
      <trkpt lat="44.77266" lon="5.04324">
        <ele>347</ele>
        <time>2020-02-07T12:54:24.000Z</time>
      </trkpt>
      <trkpt lat="44.77265" lon="5.04324">
        <ele>347</ele>
        <time>2020-02-07T12:54:25.000Z</time>
      </trkpt>
      <trkpt lat="44.77264" lon="5.04325">
        <ele>347</ele>
        <time>2020-02-07T12:54:26.000Z</time>
      </trkpt>
      <trkpt lat="44.77263" lon="5.04325">
        <ele>347</ele>
        <time>2020-02-07T12:54:27.000Z</time>
      </trkpt>
      <trkpt lat="44.77262" lon="5.04325">
        <ele>348</ele>
        <time>2020-02-07T12:54:28.000Z</time>
      </trkpt>
      <trkpt lat="44.77261" lon="5.04326">
        <ele>348</ele>
        <time>2020-02-07T12:54:29.000Z</time>
      </trkpt>
      <trkpt lat="44.7726" lon="5.04326">
        <ele>348</ele>
        <time>2020-02-07T12:54:30.000Z</time>
      </trkpt>
      <trkpt lat="44.77259" lon="5.04326">
        <ele>348</ele>
        <time>2020-02-07T12:54:31.000Z</time>
      </trkpt>
      <trkpt lat="44.77258" lon="5.04326">
        <ele>348</ele>
        <time>2020-02-07T12:54:32.000Z</time>
      </trkpt>
      <trkpt lat="44.77257" lon="5.04326">
        <ele>348</ele>
        <time>2020-02-07T12:54:33.000Z</time>
      </trkpt>
      <trkpt lat="44.77256" lon="5.04327">
        <ele>348</ele>
        <time>2020-02-07T12:54:34.000Z</time>
      </trkpt>
      <trkpt lat="44.77256" lon="5.04327">
        <ele>348</ele>
        <time>2020-02-07T12:54:35.000Z</time>
      </trkpt>
      <trkpt lat="44.77255" lon="5.04327">
        <ele>348</ele>
        <time>2020-02-07T12:54:36.000Z</time>
      </trkpt>
      <trkpt lat="44.77254" lon="5.04327">
        <ele>348</ele>
        <time>2020-02-07T12:54:37.000Z</time>
      </trkpt>
      <trkpt lat="44.77253" lon="5.04327">
        <ele>347</ele>
        <time>2020-02-07T12:54:38.000Z</time>
      </trkpt>
      <trkpt lat="44.77253" lon="5.04327">
        <ele>347</ele>
        <time>2020-02-07T12:54:39.000Z</time>
      </trkpt>
      <trkpt lat="44.77252" lon="5.04327">
        <ele>347</ele>
        <time>2020-02-07T12:54:40.000Z</time>
      </trkpt>
      <trkpt lat="44.77252" lon="5.04327">
        <ele>347</ele>
        <time>2020-02-07T12:54:41.000Z</time>
      </trkpt>
      <trkpt lat="44.77251" lon="5.04327">
        <ele>347</ele>
        <time>2020-02-07T12:54:42.000Z</time>
      </trkpt>
      <trkpt lat="44.77251" lon="5.04327">
        <ele>347</ele>
        <time>2020-02-07T12:54:43.000Z</time>
      </trkpt>
      <trkpt lat="44.77251" lon="5.04327">
        <ele>347</ele>
        <time>2020-02-07T12:54:44.000Z</time>
      </trkpt>
      <trkpt lat="44.77251" lon="5.04327">
        <ele>347</ele>
        <time>2020-02-07T12:54:45.000Z</time>
      </trkpt>
      <trkpt lat="44.77251" lon="5.04327">
        <ele>347</ele>
        <time>2020-02-07T12:54:46.000Z</time>
      </trkpt>
      <trkpt lat="44.77251" lon="5.04327">
        <ele>347</ele>
        <time>2020-02-07T12:54:47.000Z</time>
      </trkpt>
      <trkpt lat="44.77251" lon="5.04327">
        <ele>347</ele>
        <time>2020-02-07T12:54:48.000Z</time>
      </trkpt>
      <trkpt lat="44.7725" lon="5.04327">
        <ele>347</ele>
        <time>2020-02-07T12:54:49.000Z</time>
      </trkpt>
      <trkpt lat="44.7725" lon="5.04327">
        <ele>347</ele>
        <time>2020-02-07T12:54:50.000Z</time>
      </trkpt>
      <trkpt lat="44.7725" lon="5.04327">
        <ele>347</ele>
        <time>2020-02-07T12:54:51.000Z</time>
      </trkpt>
      <trkpt lat="44.7725" lon="5.04327">
        <ele>347</ele>
        <time>2020-02-07T12:54:52.000Z</time>
      </trkpt>
      <trkpt lat="44.7725" lon="5.04327">
        <ele>347</ele>
        <time>2020-02-07T12:54:53.000Z</time>
      </trkpt>
      <trkpt lat="44.7725" lon="5.04327">
        <ele>347</ele>
        <time>2020-02-07T12:54:54.000Z</time>
      </trkpt>
      <trkpt lat="44.7725" lon="5.04327">
        <ele>347</ele>
        <time>2020-02-07T12:54:55.000Z</time>
      </trkpt>
      <trkpt lat="44.7725" lon="5.04327">
        <ele>347</ele>
        <time>2020-02-07T12:54:56.000Z</time>
      </trkpt>
      <trkpt lat="44.77249" lon="5.04327">
        <ele>347</ele>
        <time>2020-02-07T12:54:57.000Z</time>
      </trkpt>
      <trkpt lat="44.77249" lon="5.04327">
        <ele>347</ele>
        <time>2020-02-07T12:54:58.000Z</time>
      </trkpt>
      <trkpt lat="44.77249" lon="5.04327">
        <ele>347</ele>
        <time>2020-02-07T12:54:59.000Z</time>
      </trkpt>
      <trkpt lat="44.77249" lon="5.04327">
        <ele>347</ele>
        <time>2020-02-07T12:55:00.000Z</time>
      </trkpt>
      <trkpt lat="44.77249" lon="5.04327">
        <ele>347</ele>
        <time>2020-02-07T12:55:01.000Z</time>
      </trkpt>
      <trkpt lat="44.77249" lon="5.04327">
        <ele>347</ele>
        <time>2020-02-07T12:55:02.000Z</time>
      </trkpt>
      <trkpt lat="44.77249" lon="5.04327">
        <ele>347</ele>
        <time>2020-02-07T12:55:03.000Z</time>
      </trkpt>
      <trkpt lat="44.77249" lon="5.04327">
        <ele>347</ele>
        <time>2020-02-07T12:55:04.000Z</time>
      </trkpt>
      <trkpt lat="44.77249" lon="5.04327">
        <ele>347</ele>
        <time>2020-02-07T12:55:05.000Z</time>
      </trkpt>
      <trkpt lat="44.77249" lon="5.04327">
        <ele>347</ele>
        <time>2020-02-07T12:55:06.000Z</time>
      </trkpt>
      <trkpt lat="44.77249" lon="5.04328">
        <ele>347</ele>
        <time>2020-02-07T12:55:07.000Z</time>
      </trkpt>
      <trkpt lat="44.77249" lon="5.04328">
        <ele>347</ele>
        <time>2020-02-07T12:55:08.000Z</time>
      </trkpt>
      <trkpt lat="44.77249" lon="5.04328">
        <ele>347</ele>
        <time>2020-02-07T12:55:09.000Z</time>
      </trkpt>
      <trkpt lat="44.77249" lon="5.04328">
        <ele>347</ele>
        <time>2020-02-07T12:55:10.000Z</time>
      </trkpt>
      <trkpt lat="44.77249" lon="5.04328">
        <ele>347</ele>
        <time>2020-02-07T12:55:11.000Z</time>
      </trkpt>
      <trkpt lat="44.77249" lon="5.04328">
        <ele>347</ele>
        <time>2020-02-07T12:55:12.000Z</time>
      </trkpt>
      <trkpt lat="44.77249" lon="5.04328">
        <ele>347</ele>
        <time>2020-02-07T12:55:13.000Z</time>
      </trkpt>
      <trkpt lat="44.77249" lon="5.04328">
        <ele>347</ele>
        <time>2020-02-07T12:55:14.000Z</time>
      </trkpt>
      <trkpt lat="44.77249" lon="5.04328">
        <ele>347</ele>
        <time>2020-02-07T12:55:15.000Z</time>
      </trkpt>
      <trkpt lat="44.77249" lon="5.04328">
        <ele>347</ele>
        <time>2020-02-07T12:55:16.000Z</time>
      </trkpt>
      <trkpt lat="44.77249" lon="5.04328">
        <ele>347</ele>
        <time>2020-02-07T12:55:17.000Z</time>
      </trkpt>
      <trkpt lat="44.77249" lon="5.04328">
        <ele>347</ele>
        <time>2020-02-07T12:55:18.000Z</time>
      </trkpt>
      <trkpt lat="44.77249" lon="5.04328">
        <ele>347</ele>
        <time>2020-02-07T12:55:19.000Z</time>
      </trkpt>
      <trkpt lat="44.77248" lon="5.04328">
        <ele>347</ele>
        <time>2020-02-07T12:55:20.000Z</time>
      </trkpt>
      <trkpt lat="44.77248" lon="5.04328">
        <ele>347</ele>
        <time>2020-02-07T12:55:21.000Z</time>
      </trkpt>
      <trkpt lat="44.77248" lon="5.04328">
        <ele>347</ele>
        <time>2020-02-07T12:55:22.000Z</time>
      </trkpt>
      <trkpt lat="44.77248" lon="5.04328">
        <ele>347</ele>
        <time>2020-02-07T12:55:23.000Z</time>
      </trkpt>
      <trkpt lat="44.77248" lon="5.04328">
        <ele>347</ele>
        <time>2020-02-07T12:55:24.000Z</time>
      </trkpt>
      <trkpt lat="44.77248" lon="5.04328">
        <ele>348</ele>
        <time>2020-02-07T12:55:25.000Z</time>
      </trkpt>
      <trkpt lat="44.77248" lon="5.04329">
        <ele>348</ele>
        <time>2020-02-07T12:55:26.000Z</time>
      </trkpt>
      <trkpt lat="44.77247" lon="5.04329">
        <ele>348</ele>
        <time>2020-02-07T12:55:27.000Z</time>
      </trkpt>
      <trkpt lat="44.77246" lon="5.04329">
        <ele>348</ele>
        <time>2020-02-07T12:55:28.000Z</time>
      </trkpt>
      <trkpt lat="44.77245" lon="5.04329">
        <ele>348</ele>
        <time>2020-02-07T12:55:29.000Z</time>
      </trkpt>
      <trkpt lat="44.77245" lon="5.04329">
        <ele>348</ele>
        <time>2020-02-07T12:55:30.000Z</time>
      </trkpt>
      <trkpt lat="44.77245" lon="5.04329">
        <ele>348</ele>
        <time>2020-02-07T12:55:31.000Z</time>
      </trkpt>
      <trkpt lat="44.77244" lon="5.04329">
        <ele>348</ele>
        <time>2020-02-07T12:55:32.000Z</time>
      </trkpt>
      <trkpt lat="44.77243" lon="5.0433">
        <ele>348</ele>
        <time>2020-02-07T12:55:33.000Z</time>
      </trkpt>
      <trkpt lat="44.77242" lon="5.0433">
        <ele>348</ele>
        <time>2020-02-07T12:55:34.000Z</time>
      </trkpt>
      <trkpt lat="44.77241" lon="5.0433">
        <ele>348</ele>
        <time>2020-02-07T12:55:35.000Z</time>
      </trkpt>
      <trkpt lat="44.7724" lon="5.0433">
        <ele>348</ele>
        <time>2020-02-07T12:55:36.000Z</time>
      </trkpt>
      <trkpt lat="44.7724" lon="5.04331">
        <ele>348</ele>
        <time>2020-02-07T12:55:37.000Z</time>
      </trkpt>
      <trkpt lat="44.77239" lon="5.04331">
        <ele>348</ele>
        <time>2020-02-07T12:55:38.000Z</time>
      </trkpt>
      <trkpt lat="44.77238" lon="5.04331">
        <ele>348</ele>
        <time>2020-02-07T12:55:39.000Z</time>
      </trkpt>
      <trkpt lat="44.77237" lon="5.04332">
        <ele>348</ele>
        <time>2020-02-07T12:55:40.000Z</time>
      </trkpt>
      <trkpt lat="44.77237" lon="5.04332">
        <ele>348</ele>
        <time>2020-02-07T12:55:41.000Z</time>
      </trkpt>
      <trkpt lat="44.77236" lon="5.04333">
        <ele>348</ele>
        <time>2020-02-07T12:55:42.000Z</time>
      </trkpt>
      <trkpt lat="44.77234" lon="5.04333">
        <ele>348</ele>
        <time>2020-02-07T12:55:43.000Z</time>
      </trkpt>
      <trkpt lat="44.77234" lon="5.04333">
        <ele>348</ele>
        <time>2020-02-07T12:55:44.000Z</time>
      </trkpt>
      <trkpt lat="44.77233" lon="5.04333">
        <ele>348</ele>
        <time>2020-02-07T12:55:45.000Z</time>
      </trkpt>
      <trkpt lat="44.77232" lon="5.04334">
        <ele>348</ele>
        <time>2020-02-07T12:55:46.000Z</time>
      </trkpt>
      <trkpt lat="44.77232" lon="5.04333">
        <ele>348</ele>
        <time>2020-02-07T12:55:47.000Z</time>
      </trkpt>
      <trkpt lat="44.77232" lon="5.04334">
        <ele>348</ele>
        <time>2020-02-07T12:55:48.000Z</time>
      </trkpt>
      <trkpt lat="44.77231" lon="5.04334">
        <ele>348</ele>
        <time>2020-02-07T12:55:49.000Z</time>
      </trkpt>
      <trkpt lat="44.77231" lon="5.04334">
        <ele>348</ele>
        <time>2020-02-07T12:55:50.000Z</time>
      </trkpt>
      <trkpt lat="44.77231" lon="5.04334">
        <ele>348</ele>
        <time>2020-02-07T12:55:51.000Z</time>
      </trkpt>
      <trkpt lat="44.77231" lon="5.04334">
        <ele>348</ele>
        <time>2020-02-07T12:55:52.000Z</time>
      </trkpt>
      <trkpt lat="44.77231" lon="5.04334">
        <ele>348</ele>
        <time>2020-02-07T12:55:53.000Z</time>
      </trkpt>
      <trkpt lat="44.77231" lon="5.04334">
        <ele>348</ele>
        <time>2020-02-07T12:55:54.000Z</time>
      </trkpt>
      <trkpt lat="44.7723" lon="5.04334">
        <ele>348</ele>
        <time>2020-02-07T12:55:55.000Z</time>
      </trkpt>
      <trkpt lat="44.77229" lon="5.04334">
        <ele>347</ele>
        <time>2020-02-07T12:55:56.000Z</time>
      </trkpt>
      <trkpt lat="44.77228" lon="5.04335">
        <ele>347</ele>
        <time>2020-02-07T12:55:57.000Z</time>
      </trkpt>
      <trkpt lat="44.77227" lon="5.04335">
        <ele>347</ele>
        <time>2020-02-07T12:55:58.000Z</time>
      </trkpt>
      <trkpt lat="44.77226" lon="5.04335">
        <ele>347</ele>
        <time>2020-02-07T12:55:59.000Z</time>
      </trkpt>
      <trkpt lat="44.77225" lon="5.04335">
        <ele>347</ele>
        <time>2020-02-07T12:56:00.000Z</time>
      </trkpt>
      <trkpt lat="44.77224" lon="5.04335">
        <ele>347</ele>
        <time>2020-02-07T12:56:01.000Z</time>
      </trkpt>
      <trkpt lat="44.77224" lon="5.04336">
        <ele>348</ele>
        <time>2020-02-07T12:56:02.000Z</time>
      </trkpt>
      <trkpt lat="44.77223" lon="5.04336">
        <ele>348</ele>
        <time>2020-02-07T12:56:03.000Z</time>
      </trkpt>
      <trkpt lat="44.77222" lon="5.04337">
        <ele>348</ele>
        <time>2020-02-07T12:56:04.000Z</time>
      </trkpt>
      <trkpt lat="44.77221" lon="5.04337">
        <ele>348</ele>
        <time>2020-02-07T12:56:05.000Z</time>
      </trkpt>
      <trkpt lat="44.7722" lon="5.04337">
        <ele>348</ele>
        <time>2020-02-07T12:56:06.000Z</time>
      </trkpt>
      <trkpt lat="44.77219" lon="5.04338">
        <ele>348</ele>
        <time>2020-02-07T12:56:07.000Z</time>
      </trkpt>
      <trkpt lat="44.77218" lon="5.04338">
        <ele>348</ele>
        <time>2020-02-07T12:56:08.000Z</time>
      </trkpt>
      <trkpt lat="44.77216" lon="5.04338">
        <ele>348</ele>
        <time>2020-02-07T12:56:09.000Z</time>
      </trkpt>
      <trkpt lat="44.77215" lon="5.04339">
        <ele>348</ele>
        <time>2020-02-07T12:56:10.000Z</time>
      </trkpt>
      <trkpt lat="44.77214" lon="5.04339">
        <ele>348</ele>
        <time>2020-02-07T12:56:11.000Z</time>
      </trkpt>
      <trkpt lat="44.77213" lon="5.0434">
        <ele>348</ele>
        <time>2020-02-07T12:56:12.000Z</time>
      </trkpt>
      <trkpt lat="44.77212" lon="5.0434">
        <ele>348</ele>
        <time>2020-02-07T12:56:13.000Z</time>
      </trkpt>
      <trkpt lat="44.77211" lon="5.04341">
        <ele>348</ele>
        <time>2020-02-07T12:56:14.000Z</time>
      </trkpt>
      <trkpt lat="44.7721" lon="5.04341">
        <ele>348</ele>
        <time>2020-02-07T12:56:15.000Z</time>
      </trkpt>
      <trkpt lat="44.77208" lon="5.04341">
        <ele>348</ele>
        <time>2020-02-07T12:56:16.000Z</time>
      </trkpt>
      <trkpt lat="44.77207" lon="5.04342">
        <ele>348</ele>
        <time>2020-02-07T12:56:17.000Z</time>
      </trkpt>
      <trkpt lat="44.77206" lon="5.04343">
        <ele>348</ele>
        <time>2020-02-07T12:56:18.000Z</time>
      </trkpt>
      <trkpt lat="44.77206" lon="5.04343">
        <ele>348</ele>
        <time>2020-02-07T12:56:19.000Z</time>
      </trkpt>
      <trkpt lat="44.77204" lon="5.04344">
        <ele>348</ele>
        <time>2020-02-07T12:56:20.000Z</time>
      </trkpt>
      <trkpt lat="44.77204" lon="5.04345">
        <ele>348</ele>
        <time>2020-02-07T12:56:21.000Z</time>
      </trkpt>
      <trkpt lat="44.77203" lon="5.04346">
        <ele>348</ele>
        <time>2020-02-07T12:56:22.000Z</time>
      </trkpt>
      <trkpt lat="44.77202" lon="5.04347">
        <ele>348</ele>
        <time>2020-02-07T12:56:23.000Z</time>
      </trkpt>
      <trkpt lat="44.77202" lon="5.04348">
        <ele>348</ele>
        <time>2020-02-07T12:56:24.000Z</time>
      </trkpt>
      <trkpt lat="44.77201" lon="5.04349">
        <ele>348</ele>
        <time>2020-02-07T12:56:25.000Z</time>
      </trkpt>
      <trkpt lat="44.77201" lon="5.0435">
        <ele>348</ele>
        <time>2020-02-07T12:56:26.000Z</time>
      </trkpt>
      <trkpt lat="44.77201" lon="5.04352">
        <ele>348</ele>
        <time>2020-02-07T12:56:27.000Z</time>
      </trkpt>
      <trkpt lat="44.772" lon="5.04353">
        <ele>348</ele>
        <time>2020-02-07T12:56:28.000Z</time>
      </trkpt>
      <trkpt lat="44.772" lon="5.04353">
        <ele>348</ele>
        <time>2020-02-07T12:56:29.000Z</time>
      </trkpt>
      <trkpt lat="44.772" lon="5.04353">
        <ele>348</ele>
        <time>2020-02-07T12:56:30.000Z</time>
      </trkpt>
      <trkpt lat="44.772" lon="5.04354">
        <ele>348</ele>
        <time>2020-02-07T12:56:31.000Z</time>
      </trkpt>
      <trkpt lat="44.772" lon="5.04356">
        <ele>348</ele>
        <time>2020-02-07T12:56:32.000Z</time>
      </trkpt>
      <trkpt lat="44.772" lon="5.04357">
        <ele>348</ele>
        <time>2020-02-07T12:56:33.000Z</time>
      </trkpt>
      <trkpt lat="44.77201" lon="5.04358">
        <ele>349</ele>
        <time>2020-02-07T12:56:34.000Z</time>
      </trkpt>
      <trkpt lat="44.772" lon="5.0436">
        <ele>349</ele>
        <time>2020-02-07T12:56:35.000Z</time>
      </trkpt>
      <trkpt lat="44.772" lon="5.04361">
        <ele>349</ele>
        <time>2020-02-07T12:56:36.000Z</time>
      </trkpt>
      <trkpt lat="44.77201" lon="5.04362">
        <ele>349</ele>
        <time>2020-02-07T12:56:37.000Z</time>
      </trkpt>
      <trkpt lat="44.77201" lon="5.04364">
        <ele>349</ele>
        <time>2020-02-07T12:56:38.000Z</time>
      </trkpt>
      <trkpt lat="44.77201" lon="5.04365">
        <ele>349</ele>
        <time>2020-02-07T12:56:39.000Z</time>
      </trkpt>
      <trkpt lat="44.77201" lon="5.04367">
        <ele>349</ele>
        <time>2020-02-07T12:56:40.000Z</time>
      </trkpt>
      <trkpt lat="44.772" lon="5.04368">
        <ele>349</ele>
        <time>2020-02-07T12:56:41.000Z</time>
      </trkpt>
      <trkpt lat="44.772" lon="5.0437">
        <ele>349</ele>
        <time>2020-02-07T12:56:42.000Z</time>
      </trkpt>
      <trkpt lat="44.772" lon="5.04371">
        <ele>349</ele>
        <time>2020-02-07T12:56:43.000Z</time>
      </trkpt>
      <trkpt lat="44.77201" lon="5.04373">
        <ele>349</ele>
        <time>2020-02-07T12:56:44.000Z</time>
      </trkpt>
      <trkpt lat="44.77201" lon="5.04375">
        <ele>349</ele>
        <time>2020-02-07T12:56:45.000Z</time>
      </trkpt>
      <trkpt lat="44.77201" lon="5.04376">
        <ele>349</ele>
        <time>2020-02-07T12:56:46.000Z</time>
      </trkpt>
      <trkpt lat="44.77201" lon="5.04378">
        <ele>349</ele>
        <time>2020-02-07T12:56:47.000Z</time>
      </trkpt>
      <trkpt lat="44.772" lon="5.04379">
        <ele>349</ele>
        <time>2020-02-07T12:56:48.000Z</time>
      </trkpt>
      <trkpt lat="44.772" lon="5.04381">
        <ele>349</ele>
        <time>2020-02-07T12:56:49.000Z</time>
      </trkpt>
      <trkpt lat="44.772" lon="5.04382">
        <ele>349</ele>
        <time>2020-02-07T12:56:50.000Z</time>
      </trkpt>
      <trkpt lat="44.772" lon="5.04384">
        <ele>349</ele>
        <time>2020-02-07T12:56:51.000Z</time>
      </trkpt>
      <trkpt lat="44.772" lon="5.04386">
        <ele>349</ele>
        <time>2020-02-07T12:56:52.000Z</time>
      </trkpt>
      <trkpt lat="44.772" lon="5.04387">
        <ele>349</ele>
        <time>2020-02-07T12:56:53.000Z</time>
      </trkpt>
      <trkpt lat="44.772" lon="5.04389">
        <ele>349</ele>
        <time>2020-02-07T12:56:54.000Z</time>
      </trkpt>
      <trkpt lat="44.772" lon="5.0439">
        <ele>349</ele>
        <time>2020-02-07T12:56:55.000Z</time>
      </trkpt>
      <trkpt lat="44.772" lon="5.04391">
        <ele>349</ele>
        <time>2020-02-07T12:56:56.000Z</time>
      </trkpt>
      <trkpt lat="44.772" lon="5.04393">
        <ele>349</ele>
        <time>2020-02-07T12:56:57.000Z</time>
      </trkpt>
      <trkpt lat="44.772" lon="5.04394">
        <ele>349</ele>
        <time>2020-02-07T12:56:58.000Z</time>
      </trkpt>
      <trkpt lat="44.772" lon="5.04396">
        <ele>349</ele>
        <time>2020-02-07T12:56:59.000Z</time>
      </trkpt>
      <trkpt lat="44.772" lon="5.04398">
        <ele>349</ele>
        <time>2020-02-07T12:57:00.000Z</time>
      </trkpt>
      <trkpt lat="44.772" lon="5.044">
        <ele>349</ele>
        <time>2020-02-07T12:57:01.000Z</time>
      </trkpt>
      <trkpt lat="44.772" lon="5.04401">
        <ele>349</ele>
        <time>2020-02-07T12:57:02.000Z</time>
      </trkpt>
      <trkpt lat="44.77201" lon="5.04403">
        <ele>349</ele>
        <time>2020-02-07T12:57:03.000Z</time>
      </trkpt>
      <trkpt lat="44.77201" lon="5.04404">
        <ele>349</ele>
        <time>2020-02-07T12:57:04.000Z</time>
      </trkpt>
      <trkpt lat="44.77201" lon="5.04406">
        <ele>349</ele>
        <time>2020-02-07T12:57:05.000Z</time>
      </trkpt>
      <trkpt lat="44.77201" lon="5.04407">
        <ele>349</ele>
        <time>2020-02-07T12:57:06.000Z</time>
      </trkpt>
      <trkpt lat="44.77201" lon="5.04408">
        <ele>349</ele>
        <time>2020-02-07T12:57:07.000Z</time>
      </trkpt>
      <trkpt lat="44.77201" lon="5.0441">
        <ele>349</ele>
        <time>2020-02-07T12:57:08.000Z</time>
      </trkpt>
      <trkpt lat="44.77201" lon="5.04411">
        <ele>349</ele>
        <time>2020-02-07T12:57:09.000Z</time>
      </trkpt>
      <trkpt lat="44.77201" lon="5.04413">
        <ele>349</ele>
        <time>2020-02-07T12:57:10.000Z</time>
      </trkpt>
      <trkpt lat="44.77201" lon="5.04414">
        <ele>349</ele>
        <time>2020-02-07T12:57:11.000Z</time>
      </trkpt>
      <trkpt lat="44.77201" lon="5.04416">
        <ele>349</ele>
        <time>2020-02-07T12:57:12.000Z</time>
      </trkpt>
      <trkpt lat="44.77202" lon="5.04417">
        <ele>349</ele>
        <time>2020-02-07T12:57:13.000Z</time>
      </trkpt>
      <trkpt lat="44.77202" lon="5.04419">
        <ele>349</ele>
        <time>2020-02-07T12:57:14.000Z</time>
      </trkpt>
      <trkpt lat="44.77202" lon="5.0442">
        <ele>349</ele>
        <time>2020-02-07T12:57:15.000Z</time>
      </trkpt>
      <trkpt lat="44.77202" lon="5.04422">
        <ele>349</ele>
        <time>2020-02-07T12:57:16.000Z</time>
      </trkpt>
      <trkpt lat="44.77203" lon="5.04424">
        <ele>349</ele>
        <time>2020-02-07T12:57:17.000Z</time>
      </trkpt>
      <trkpt lat="44.77203" lon="5.04425">
        <ele>349</ele>
        <time>2020-02-07T12:57:18.000Z</time>
      </trkpt>
      <trkpt lat="44.77203" lon="5.04427">
        <ele>349</ele>
        <time>2020-02-07T12:57:19.000Z</time>
      </trkpt>
      <trkpt lat="44.77204" lon="5.04428">
        <ele>349</ele>
        <time>2020-02-07T12:57:20.000Z</time>
      </trkpt>
      <trkpt lat="44.77204" lon="5.04429">
        <ele>349</ele>
        <time>2020-02-07T12:57:21.000Z</time>
      </trkpt>
      <trkpt lat="44.77204" lon="5.04431">
        <ele>349</ele>
        <time>2020-02-07T12:57:22.000Z</time>
      </trkpt>
      <trkpt lat="44.77205" lon="5.04433">
        <ele>348</ele>
        <time>2020-02-07T12:57:23.000Z</time>
      </trkpt>
      <trkpt lat="44.77205" lon="5.04434">
        <ele>348</ele>
        <time>2020-02-07T12:57:24.000Z</time>
      </trkpt>
      <trkpt lat="44.77205" lon="5.04436">
        <ele>348</ele>
        <time>2020-02-07T12:57:25.000Z</time>
      </trkpt>
      <trkpt lat="44.77205" lon="5.04438">
        <ele>348</ele>
        <time>2020-02-07T12:57:26.000Z</time>
      </trkpt>
      <trkpt lat="44.77206" lon="5.04439">
        <ele>348</ele>
        <time>2020-02-07T12:57:27.000Z</time>
      </trkpt>
      <trkpt lat="44.77206" lon="5.0444">
        <ele>348</ele>
        <time>2020-02-07T12:57:28.000Z</time>
      </trkpt>
      <trkpt lat="44.77207" lon="5.04441">
        <ele>348</ele>
        <time>2020-02-07T12:57:29.000Z</time>
      </trkpt>
      <trkpt lat="44.77207" lon="5.04443">
        <ele>348</ele>
        <time>2020-02-07T12:57:30.000Z</time>
      </trkpt>
      <trkpt lat="44.77207" lon="5.04444">
        <ele>348</ele>
        <time>2020-02-07T12:57:31.000Z</time>
      </trkpt>
      <trkpt lat="44.77207" lon="5.04446">
        <ele>348</ele>
        <time>2020-02-07T12:57:32.000Z</time>
      </trkpt>
      <trkpt lat="44.77208" lon="5.04447">
        <ele>348</ele>
        <time>2020-02-07T12:57:33.000Z</time>
      </trkpt>
      <trkpt lat="44.77208" lon="5.04449">
        <ele>348</ele>
        <time>2020-02-07T12:57:34.000Z</time>
      </trkpt>
      <trkpt lat="44.77208" lon="5.0445">
        <ele>348</ele>
        <time>2020-02-07T12:57:35.000Z</time>
      </trkpt>
      <trkpt lat="44.77208" lon="5.04452">
        <ele>348</ele>
        <time>2020-02-07T12:57:36.000Z</time>
      </trkpt>
      <trkpt lat="44.77208" lon="5.04453">
        <ele>348</ele>
        <time>2020-02-07T12:57:37.000Z</time>
      </trkpt>
      <trkpt lat="44.77208" lon="5.04455">
        <ele>348</ele>
        <time>2020-02-07T12:57:38.000Z</time>
      </trkpt>
      <trkpt lat="44.77208" lon="5.04456">
        <ele>348</ele>
        <time>2020-02-07T12:57:39.000Z</time>
      </trkpt>
      <trkpt lat="44.77208" lon="5.04458">
        <ele>347</ele>
        <time>2020-02-07T12:57:40.000Z</time>
      </trkpt>
      <trkpt lat="44.77208" lon="5.0446">
        <ele>347</ele>
        <time>2020-02-07T12:57:41.000Z</time>
      </trkpt>
      <trkpt lat="44.77208" lon="5.04461">
        <ele>347</ele>
        <time>2020-02-07T12:57:42.000Z</time>
      </trkpt>
      <trkpt lat="44.77208" lon="5.04463">
        <ele>347</ele>
        <time>2020-02-07T12:57:43.000Z</time>
      </trkpt>
      <trkpt lat="44.77208" lon="5.04465">
        <ele>347</ele>
        <time>2020-02-07T12:57:44.000Z</time>
      </trkpt>
      <trkpt lat="44.77208" lon="5.04466">
        <ele>347</ele>
        <time>2020-02-07T12:57:45.000Z</time>
      </trkpt>
      <trkpt lat="44.77208" lon="5.04468">
        <ele>347</ele>
        <time>2020-02-07T12:57:46.000Z</time>
      </trkpt>
      <trkpt lat="44.77208" lon="5.04469">
        <ele>346</ele>
        <time>2020-02-07T12:57:47.000Z</time>
      </trkpt>
      <trkpt lat="44.77208" lon="5.04471">
        <ele>346</ele>
        <time>2020-02-07T12:57:48.000Z</time>
      </trkpt>
      <trkpt lat="44.77208" lon="5.04473">
        <ele>346</ele>
        <time>2020-02-07T12:57:49.000Z</time>
      </trkpt>
      <trkpt lat="44.77207" lon="5.04474">
        <ele>346</ele>
        <time>2020-02-07T12:57:50.000Z</time>
      </trkpt>
      <trkpt lat="44.77207" lon="5.04476">
        <ele>346</ele>
        <time>2020-02-07T12:57:51.000Z</time>
      </trkpt>
      <trkpt lat="44.77207" lon="5.04478">
        <ele>346</ele>
        <time>2020-02-07T12:57:52.000Z</time>
      </trkpt>
      <trkpt lat="44.77207" lon="5.04479">
        <ele>346</ele>
        <time>2020-02-07T12:57:53.000Z</time>
      </trkpt>
      <trkpt lat="44.77206" lon="5.04481">
        <ele>345</ele>
        <time>2020-02-07T12:57:54.000Z</time>
      </trkpt>
      <trkpt lat="44.77206" lon="5.04482">
        <ele>345</ele>
        <time>2020-02-07T12:57:55.000Z</time>
      </trkpt>
      <trkpt lat="44.77206" lon="5.04484">
        <ele>345</ele>
        <time>2020-02-07T12:57:56.000Z</time>
      </trkpt>
      <trkpt lat="44.77206" lon="5.04486">
        <ele>345</ele>
        <time>2020-02-07T12:57:57.000Z</time>
      </trkpt>
      <trkpt lat="44.77206" lon="5.04487">
        <ele>345</ele>
        <time>2020-02-07T12:57:58.000Z</time>
      </trkpt>
      <trkpt lat="44.77206" lon="5.04489">
        <ele>345</ele>
        <time>2020-02-07T12:57:59.000Z</time>
      </trkpt>
      <trkpt lat="44.77206" lon="5.04491">
        <ele>345</ele>
        <time>2020-02-07T12:58:00.000Z</time>
      </trkpt>
      <trkpt lat="44.77206" lon="5.04493">
        <ele>345</ele>
        <time>2020-02-07T12:58:01.000Z</time>
      </trkpt>
      <trkpt lat="44.77206" lon="5.04495">
        <ele>345</ele>
        <time>2020-02-07T12:58:02.000Z</time>
      </trkpt>
      <trkpt lat="44.77206" lon="5.04496">
        <ele>345</ele>
        <time>2020-02-07T12:58:03.000Z</time>
      </trkpt>
      <trkpt lat="44.77206" lon="5.04498">
        <ele>345</ele>
        <time>2020-02-07T12:58:04.000Z</time>
      </trkpt>
      <trkpt lat="44.77206" lon="5.045">
        <ele>345</ele>
        <time>2020-02-07T12:58:05.000Z</time>
      </trkpt>
      <trkpt lat="44.77206" lon="5.04502">
        <ele>345</ele>
        <time>2020-02-07T12:58:06.000Z</time>
      </trkpt>
      <trkpt lat="44.77206" lon="5.04504">
        <ele>345</ele>
        <time>2020-02-07T12:58:07.000Z</time>
      </trkpt>
      <trkpt lat="44.77207" lon="5.04505">
        <ele>345</ele>
        <time>2020-02-07T12:58:08.000Z</time>
      </trkpt>
      <trkpt lat="44.77207" lon="5.04507">
        <ele>345</ele>
        <time>2020-02-07T12:58:09.000Z</time>
      </trkpt>
      <trkpt lat="44.77208" lon="5.04508">
        <ele>345</ele>
        <time>2020-02-07T12:58:10.000Z</time>
      </trkpt>
      <trkpt lat="44.77208" lon="5.04509">
        <ele>345</ele>
        <time>2020-02-07T12:58:11.000Z</time>
      </trkpt>
      <trkpt lat="44.77209" lon="5.04511">
        <ele>345</ele>
        <time>2020-02-07T12:58:12.000Z</time>
      </trkpt>
      <trkpt lat="44.77209" lon="5.04512">
        <ele>344</ele>
        <time>2020-02-07T12:58:13.000Z</time>
      </trkpt>
      <trkpt lat="44.7721" lon="5.04514">
        <ele>344</ele>
        <time>2020-02-07T12:58:14.000Z</time>
      </trkpt>
      <trkpt lat="44.7721" lon="5.04515">
        <ele>344</ele>
        <time>2020-02-07T12:58:15.000Z</time>
      </trkpt>
      <trkpt lat="44.7721" lon="5.04516">
        <ele>344</ele>
        <time>2020-02-07T12:58:16.000Z</time>
      </trkpt>
      <trkpt lat="44.77211" lon="5.04518">
        <ele>344</ele>
        <time>2020-02-07T12:58:17.000Z</time>
      </trkpt>
      <trkpt lat="44.77211" lon="5.04519">
        <ele>344</ele>
        <time>2020-02-07T12:58:18.000Z</time>
      </trkpt>
      <trkpt lat="44.77211" lon="5.04521">
        <ele>344</ele>
        <time>2020-02-07T12:58:19.000Z</time>
      </trkpt>
      <trkpt lat="44.77212" lon="5.04522">
        <ele>344</ele>
        <time>2020-02-07T12:58:20.000Z</time>
      </trkpt>
      <trkpt lat="44.77212" lon="5.04523">
        <ele>344</ele>
        <time>2020-02-07T12:58:21.000Z</time>
      </trkpt>
      <trkpt lat="44.77213" lon="5.04524">
        <ele>344</ele>
        <time>2020-02-07T12:58:22.000Z</time>
      </trkpt>
      <trkpt lat="44.77213" lon="5.04525">
        <ele>344</ele>
        <time>2020-02-07T12:58:23.000Z</time>
      </trkpt>
      <trkpt lat="44.77213" lon="5.04527">
        <ele>344</ele>
        <time>2020-02-07T12:58:24.000Z</time>
      </trkpt>
      <trkpt lat="44.77213" lon="5.04528">
        <ele>344</ele>
        <time>2020-02-07T12:58:25.000Z</time>
      </trkpt>
      <trkpt lat="44.77213" lon="5.04529">
        <ele>344</ele>
        <time>2020-02-07T12:58:26.000Z</time>
      </trkpt>
      <trkpt lat="44.77214" lon="5.04531">
        <ele>344</ele>
        <time>2020-02-07T12:58:27.000Z</time>
      </trkpt>
      <trkpt lat="44.77214" lon="5.04532">
        <ele>344</ele>
        <time>2020-02-07T12:58:28.000Z</time>
      </trkpt>
      <trkpt lat="44.77214" lon="5.04534">
        <ele>344</ele>
        <time>2020-02-07T12:58:29.000Z</time>
      </trkpt>
      <trkpt lat="44.77215" lon="5.04536">
        <ele>344</ele>
        <time>2020-02-07T12:58:30.000Z</time>
      </trkpt>
      <trkpt lat="44.77215" lon="5.04537">
        <ele>344</ele>
        <time>2020-02-07T12:58:31.000Z</time>
      </trkpt>
      <trkpt lat="44.77215" lon="5.04539">
        <ele>344</ele>
        <time>2020-02-07T12:58:32.000Z</time>
      </trkpt>
      <trkpt lat="44.77215" lon="5.0454">
        <ele>344</ele>
        <time>2020-02-07T12:58:33.000Z</time>
      </trkpt>
      <trkpt lat="44.77215" lon="5.04542">
        <ele>344</ele>
        <time>2020-02-07T12:58:34.000Z</time>
      </trkpt>
      <trkpt lat="44.77215" lon="5.04543">
        <ele>343</ele>
        <time>2020-02-07T12:58:35.000Z</time>
      </trkpt>
      <trkpt lat="44.77215" lon="5.04545">
        <ele>343</ele>
        <time>2020-02-07T12:58:36.000Z</time>
      </trkpt>
      <trkpt lat="44.77216" lon="5.04546">
        <ele>343</ele>
        <time>2020-02-07T12:58:37.000Z</time>
      </trkpt>
      <trkpt lat="44.77216" lon="5.04548">
        <ele>343</ele>
        <time>2020-02-07T12:58:38.000Z</time>
      </trkpt>
      <trkpt lat="44.77216" lon="5.04549">
        <ele>343</ele>
        <time>2020-02-07T12:58:39.000Z</time>
      </trkpt>
      <trkpt lat="44.77217" lon="5.04551">
        <ele>343</ele>
        <time>2020-02-07T12:58:40.000Z</time>
      </trkpt>
      <trkpt lat="44.77217" lon="5.04553">
        <ele>343</ele>
        <time>2020-02-07T12:58:41.000Z</time>
      </trkpt>
      <trkpt lat="44.77218" lon="5.04554">
        <ele>343</ele>
        <time>2020-02-07T12:58:42.000Z</time>
      </trkpt>
      <trkpt lat="44.77218" lon="5.04556">
        <ele>343</ele>
        <time>2020-02-07T12:58:43.000Z</time>
      </trkpt>
      <trkpt lat="44.77219" lon="5.04557">
        <ele>343</ele>
        <time>2020-02-07T12:58:44.000Z</time>
      </trkpt>
      <trkpt lat="44.77219" lon="5.04559">
        <ele>343</ele>
        <time>2020-02-07T12:58:45.000Z</time>
      </trkpt>
      <trkpt lat="44.77219" lon="5.04559">
        <ele>343</ele>
        <time>2020-02-07T12:58:46.000Z</time>
      </trkpt>
      <trkpt lat="44.7722" lon="5.0456">
        <ele>343</ele>
        <time>2020-02-07T12:58:47.000Z</time>
      </trkpt>
      <trkpt lat="44.7722" lon="5.04561">
        <ele>343</ele>
        <time>2020-02-07T12:58:48.000Z</time>
      </trkpt>
      <trkpt lat="44.7722" lon="5.04562">
        <ele>343</ele>
        <time>2020-02-07T12:58:49.000Z</time>
      </trkpt>
      <trkpt lat="44.77221" lon="5.04563">
        <ele>343</ele>
        <time>2020-02-07T12:58:50.000Z</time>
      </trkpt>
      <trkpt lat="44.77222" lon="5.04563">
        <ele>343</ele>
        <time>2020-02-07T12:58:51.000Z</time>
      </trkpt>
      <trkpt lat="44.77222" lon="5.04564">
        <ele>343</ele>
        <time>2020-02-07T12:58:52.000Z</time>
      </trkpt>
      <trkpt lat="44.77222" lon="5.04565">
        <ele>343</ele>
        <time>2020-02-07T12:58:53.000Z</time>
      </trkpt>
      <trkpt lat="44.77222" lon="5.04566">
        <ele>343</ele>
        <time>2020-02-07T12:58:54.000Z</time>
      </trkpt>
      <trkpt lat="44.77223" lon="5.04567">
        <ele>343</ele>
        <time>2020-02-07T12:58:55.000Z</time>
      </trkpt>
      <trkpt lat="44.77223" lon="5.04568">
        <ele>343</ele>
        <time>2020-02-07T12:58:56.000Z</time>
      </trkpt>
      <trkpt lat="44.77223" lon="5.04568">
        <ele>343</ele>
        <time>2020-02-07T12:58:57.000Z</time>
      </trkpt>
      <trkpt lat="44.77223" lon="5.04569">
        <ele>344</ele>
        <time>2020-02-07T12:58:58.000Z</time>
      </trkpt>
      <trkpt lat="44.77223" lon="5.0457">
        <ele>344</ele>
        <time>2020-02-07T12:58:59.000Z</time>
      </trkpt>
      <trkpt lat="44.77223" lon="5.04571">
        <ele>344</ele>
        <time>2020-02-07T12:59:00.000Z</time>
      </trkpt>
      <trkpt lat="44.77223" lon="5.04572">
        <ele>344</ele>
        <time>2020-02-07T12:59:01.000Z</time>
      </trkpt>
      <trkpt lat="44.77223" lon="5.04573">
        <ele>345</ele>
        <time>2020-02-07T12:59:02.000Z</time>
      </trkpt>
      <trkpt lat="44.77222" lon="5.04574">
        <ele>345</ele>
        <time>2020-02-07T12:59:03.000Z</time>
      </trkpt>
      <trkpt lat="44.77222" lon="5.04575">
        <ele>345</ele>
        <time>2020-02-07T12:59:04.000Z</time>
      </trkpt>
      <trkpt lat="44.77222" lon="5.04576">
        <ele>345</ele>
        <time>2020-02-07T12:59:05.000Z</time>
      </trkpt>
      <trkpt lat="44.77221" lon="5.04577">
        <ele>346</ele>
        <time>2020-02-07T12:59:06.000Z</time>
      </trkpt>
      <trkpt lat="44.77221" lon="5.04578">
        <ele>346</ele>
        <time>2020-02-07T12:59:07.000Z</time>
      </trkpt>
      <trkpt lat="44.77221" lon="5.04578">
        <ele>346</ele>
        <time>2020-02-07T12:59:08.000Z</time>
      </trkpt>
      <trkpt lat="44.7722" lon="5.04579">
        <ele>346</ele>
        <time>2020-02-07T12:59:09.000Z</time>
      </trkpt>
      <trkpt lat="44.77219" lon="5.04579">
        <ele>347</ele>
        <time>2020-02-07T12:59:10.000Z</time>
      </trkpt>
      <trkpt lat="44.77218" lon="5.0458">
        <ele>347</ele>
        <time>2020-02-07T12:59:11.000Z</time>
      </trkpt>
      <trkpt lat="44.77217" lon="5.0458">
        <ele>348</ele>
        <time>2020-02-07T12:59:12.000Z</time>
      </trkpt>
      <trkpt lat="44.77217" lon="5.0458">
        <ele>348</ele>
        <time>2020-02-07T12:59:13.000Z</time>
      </trkpt>
      <trkpt lat="44.77216" lon="5.0458">
        <ele>348</ele>
        <time>2020-02-07T12:59:14.000Z</time>
      </trkpt>
      <trkpt lat="44.77215" lon="5.04581">
        <ele>348</ele>
        <time>2020-02-07T12:59:15.000Z</time>
      </trkpt>
      <trkpt lat="44.77214" lon="5.04581">
        <ele>349</ele>
        <time>2020-02-07T12:59:16.000Z</time>
      </trkpt>
      <trkpt lat="44.77213" lon="5.04581">
        <ele>349</ele>
        <time>2020-02-07T12:59:17.000Z</time>
      </trkpt>
      <trkpt lat="44.77212" lon="5.04581">
        <ele>349</ele>
        <time>2020-02-07T12:59:18.000Z</time>
      </trkpt>
      <trkpt lat="44.77211" lon="5.04581">
        <ele>349</ele>
        <time>2020-02-07T12:59:19.000Z</time>
      </trkpt>
      <trkpt lat="44.7721" lon="5.0458">
        <ele>349</ele>
        <time>2020-02-07T12:59:20.000Z</time>
      </trkpt>
      <trkpt lat="44.7721" lon="5.0458">
        <ele>349</ele>
        <time>2020-02-07T12:59:21.000Z</time>
      </trkpt>
      <trkpt lat="44.77209" lon="5.0458">
        <ele>349</ele>
        <time>2020-02-07T12:59:22.000Z</time>
      </trkpt>
      <trkpt lat="44.77208" lon="5.04579">
        <ele>349</ele>
        <time>2020-02-07T12:59:23.000Z</time>
      </trkpt>
      <trkpt lat="44.77207" lon="5.04579">
        <ele>349</ele>
        <time>2020-02-07T12:59:24.000Z</time>
      </trkpt>
      <trkpt lat="44.77206" lon="5.04578">
        <ele>349</ele>
        <time>2020-02-07T12:59:25.000Z</time>
      </trkpt>
      <trkpt lat="44.77205" lon="5.04578">
        <ele>349</ele>
        <time>2020-02-07T12:59:26.000Z</time>
      </trkpt>
      <trkpt lat="44.77204" lon="5.04578">
        <ele>349</ele>
        <time>2020-02-07T12:59:27.000Z</time>
      </trkpt>
      <trkpt lat="44.77203" lon="5.04578">
        <ele>349</ele>
        <time>2020-02-07T12:59:28.000Z</time>
      </trkpt>
      <trkpt lat="44.77202" lon="5.04578">
        <ele>349</ele>
        <time>2020-02-07T12:59:29.000Z</time>
      </trkpt>
      <trkpt lat="44.77201" lon="5.04577">
        <ele>349</ele>
        <time>2020-02-07T12:59:30.000Z</time>
      </trkpt>
      <trkpt lat="44.772" lon="5.04577">
        <ele>349</ele>
        <time>2020-02-07T12:59:31.000Z</time>
      </trkpt>
      <trkpt lat="44.772" lon="5.04578">
        <ele>349</ele>
        <time>2020-02-07T12:59:32.000Z</time>
      </trkpt>
      <trkpt lat="44.77198" lon="5.04578">
        <ele>350</ele>
        <time>2020-02-07T12:59:33.000Z</time>
      </trkpt>
      <trkpt lat="44.77197" lon="5.04578">
        <ele>350</ele>
        <time>2020-02-07T12:59:34.000Z</time>
      </trkpt>
      <trkpt lat="44.77196" lon="5.04578">
        <ele>350</ele>
        <time>2020-02-07T12:59:35.000Z</time>
      </trkpt>
      <trkpt lat="44.77196" lon="5.04578">
        <ele>350</ele>
        <time>2020-02-07T12:59:36.000Z</time>
      </trkpt>
      <trkpt lat="44.77195" lon="5.04579">
        <ele>350</ele>
        <time>2020-02-07T12:59:37.000Z</time>
      </trkpt>
      <trkpt lat="44.77194" lon="5.04579">
        <ele>350</ele>
        <time>2020-02-07T12:59:38.000Z</time>
      </trkpt>
      <trkpt lat="44.77194" lon="5.0458">
        <ele>350</ele>
        <time>2020-02-07T12:59:39.000Z</time>
      </trkpt>
      <trkpt lat="44.77193" lon="5.0458">
        <ele>351</ele>
        <time>2020-02-07T12:59:40.000Z</time>
      </trkpt>
      <trkpt lat="44.77192" lon="5.04581">
        <ele>351</ele>
        <time>2020-02-07T12:59:41.000Z</time>
      </trkpt>
      <trkpt lat="44.77191" lon="5.04582">
        <ele>351</ele>
        <time>2020-02-07T12:59:42.000Z</time>
      </trkpt>
      <trkpt lat="44.77191" lon="5.04582">
        <ele>351</ele>
        <time>2020-02-07T12:59:43.000Z</time>
      </trkpt>
      <trkpt lat="44.77189" lon="5.04583">
        <ele>351</ele>
        <time>2020-02-07T12:59:44.000Z</time>
      </trkpt>
      <trkpt lat="44.77189" lon="5.04583">
        <ele>351</ele>
        <time>2020-02-07T12:59:45.000Z</time>
      </trkpt>
      <trkpt lat="44.77188" lon="5.04584">
        <ele>352</ele>
        <time>2020-02-07T12:59:46.000Z</time>
      </trkpt>
      <trkpt lat="44.77187" lon="5.04584">
        <ele>352</ele>
        <time>2020-02-07T12:59:47.000Z</time>
      </trkpt>
      <trkpt lat="44.77187" lon="5.04585">
        <ele>352</ele>
        <time>2020-02-07T12:59:48.000Z</time>
      </trkpt>
      <trkpt lat="44.77186" lon="5.04586">
        <ele>352</ele>
        <time>2020-02-07T12:59:49.000Z</time>
      </trkpt>
      <trkpt lat="44.77185" lon="5.04586">
        <ele>352</ele>
        <time>2020-02-07T12:59:50.000Z</time>
      </trkpt>
      <trkpt lat="44.77184" lon="5.04587">
        <ele>352</ele>
        <time>2020-02-07T12:59:51.000Z</time>
      </trkpt>
      <trkpt lat="44.77184" lon="5.04587">
        <ele>352</ele>
        <time>2020-02-07T12:59:52.000Z</time>
      </trkpt>
      <trkpt lat="44.77183" lon="5.04588">
        <ele>352</ele>
        <time>2020-02-07T12:59:53.000Z</time>
      </trkpt>
      <trkpt lat="44.77182" lon="5.04588">
        <ele>353</ele>
        <time>2020-02-07T12:59:54.000Z</time>
      </trkpt>
      <trkpt lat="44.77182" lon="5.04589">
        <ele>353</ele>
        <time>2020-02-07T12:59:55.000Z</time>
      </trkpt>
      <trkpt lat="44.77181" lon="5.04589">
        <ele>353</ele>
        <time>2020-02-07T12:59:56.000Z</time>
      </trkpt>
      <trkpt lat="44.7718" lon="5.04589">
        <ele>353</ele>
        <time>2020-02-07T12:59:57.000Z</time>
      </trkpt>
      <trkpt lat="44.77179" lon="5.04589">
        <ele>354</ele>
        <time>2020-02-07T12:59:58.000Z</time>
      </trkpt>
      <trkpt lat="44.77179" lon="5.0459">
        <ele>354</ele>
        <time>2020-02-07T12:59:59.000Z</time>
      </trkpt>
      <trkpt lat="44.77177" lon="5.0459">
        <ele>354</ele>
        <time>2020-02-07T13:00:00.000Z</time>
      </trkpt>
      <trkpt lat="44.77176" lon="5.0459">
        <ele>354</ele>
        <time>2020-02-07T13:00:01.000Z</time>
      </trkpt>
      <trkpt lat="44.77175" lon="5.0459">
        <ele>354</ele>
        <time>2020-02-07T13:00:02.000Z</time>
      </trkpt>
      <trkpt lat="44.77175" lon="5.0459">
        <ele>354</ele>
        <time>2020-02-07T13:00:03.000Z</time>
      </trkpt>
      <trkpt lat="44.77174" lon="5.0459">
        <ele>354</ele>
        <time>2020-02-07T13:00:04.000Z</time>
      </trkpt>
      <trkpt lat="44.77174" lon="5.0459">
        <ele>355</ele>
        <time>2020-02-07T13:00:05.000Z</time>
      </trkpt>
      <trkpt lat="44.77174" lon="5.0459">
        <ele>355</ele>
        <time>2020-02-07T13:00:06.000Z</time>
      </trkpt>
      <trkpt lat="44.77173" lon="5.0459">
        <ele>355</ele>
        <time>2020-02-07T13:00:07.000Z</time>
      </trkpt>
      <trkpt lat="44.77172" lon="5.04589">
        <ele>354</ele>
        <time>2020-02-07T13:00:08.000Z</time>
      </trkpt>
      <trkpt lat="44.77171" lon="5.04589">
        <ele>354</ele>
        <time>2020-02-07T13:00:09.000Z</time>
      </trkpt>
      <trkpt lat="44.7717" lon="5.04588">
        <ele>354</ele>
        <time>2020-02-07T13:00:10.000Z</time>
      </trkpt>
      <trkpt lat="44.7717" lon="5.04588">
        <ele>354</ele>
        <time>2020-02-07T13:00:11.000Z</time>
      </trkpt>
      <trkpt lat="44.77169" lon="5.04587">
        <ele>354</ele>
        <time>2020-02-07T13:00:12.000Z</time>
      </trkpt>
      <trkpt lat="44.77167" lon="5.04586">
        <ele>354</ele>
        <time>2020-02-07T13:00:13.000Z</time>
      </trkpt>
      <trkpt lat="44.77166" lon="5.04585">
        <ele>355</ele>
        <time>2020-02-07T13:00:14.000Z</time>
      </trkpt>
      <trkpt lat="44.77165" lon="5.04584">
        <ele>355</ele>
        <time>2020-02-07T13:00:15.000Z</time>
      </trkpt>
      <trkpt lat="44.77164" lon="5.04583">
        <ele>355</ele>
        <time>2020-02-07T13:00:16.000Z</time>
      </trkpt>
      <trkpt lat="44.77163" lon="5.04583">
        <ele>355</ele>
        <time>2020-02-07T13:00:17.000Z</time>
      </trkpt>
      <trkpt lat="44.77162" lon="5.04582">
        <ele>355</ele>
        <time>2020-02-07T13:00:18.000Z</time>
      </trkpt>
      <trkpt lat="44.77162" lon="5.04581">
        <ele>355</ele>
        <time>2020-02-07T13:00:19.000Z</time>
      </trkpt>
      <trkpt lat="44.77161" lon="5.0458">
        <ele>355</ele>
        <time>2020-02-07T13:00:20.000Z</time>
      </trkpt>
      <trkpt lat="44.7716" lon="5.0458">
        <ele>355</ele>
        <time>2020-02-07T13:00:21.000Z</time>
      </trkpt>
      <trkpt lat="44.77159" lon="5.04579">
        <ele>355</ele>
        <time>2020-02-07T13:00:22.000Z</time>
      </trkpt>
      <trkpt lat="44.77158" lon="5.04578">
        <ele>355</ele>
        <time>2020-02-07T13:00:23.000Z</time>
      </trkpt>
      <trkpt lat="44.77157" lon="5.04578">
        <ele>355</ele>
        <time>2020-02-07T13:00:24.000Z</time>
      </trkpt>
      <trkpt lat="44.77156" lon="5.04577">
        <ele>355</ele>
        <time>2020-02-07T13:00:25.000Z</time>
      </trkpt>
      <trkpt lat="44.77155" lon="5.04576">
        <ele>356</ele>
        <time>2020-02-07T13:00:26.000Z</time>
      </trkpt>
      <trkpt lat="44.77154" lon="5.04576">
        <ele>356</ele>
        <time>2020-02-07T13:00:27.000Z</time>
      </trkpt>
      <trkpt lat="44.77153" lon="5.04575">
        <ele>356</ele>
        <time>2020-02-07T13:00:28.000Z</time>
      </trkpt>
      <trkpt lat="44.77152" lon="5.04575">
        <ele>356</ele>
        <time>2020-02-07T13:00:29.000Z</time>
      </trkpt>
      <trkpt lat="44.77151" lon="5.04574">
        <ele>356</ele>
        <time>2020-02-07T13:00:30.000Z</time>
      </trkpt>
      <trkpt lat="44.7715" lon="5.04574">
        <ele>357</ele>
        <time>2020-02-07T13:00:31.000Z</time>
      </trkpt>
      <trkpt lat="44.77149" lon="5.04574">
        <ele>357</ele>
        <time>2020-02-07T13:00:32.000Z</time>
      </trkpt>
      <trkpt lat="44.77148" lon="5.04574">
        <ele>357</ele>
        <time>2020-02-07T13:00:33.000Z</time>
      </trkpt>
      <trkpt lat="44.77147" lon="5.04573">
        <ele>358</ele>
        <time>2020-02-07T13:00:34.000Z</time>
      </trkpt>
      <trkpt lat="44.77146" lon="5.04572">
        <ele>358</ele>
        <time>2020-02-07T13:00:35.000Z</time>
      </trkpt>
      <trkpt lat="44.77145" lon="5.04572">
        <ele>358</ele>
        <time>2020-02-07T13:00:36.000Z</time>
      </trkpt>
      <trkpt lat="44.77145" lon="5.04571">
        <ele>358</ele>
        <time>2020-02-07T13:00:37.000Z</time>
      </trkpt>
      <trkpt lat="44.77144" lon="5.0457">
        <ele>358</ele>
        <time>2020-02-07T13:00:38.000Z</time>
      </trkpt>
      <trkpt lat="44.77143" lon="5.0457">
        <ele>358</ele>
        <time>2020-02-07T13:00:39.000Z</time>
      </trkpt>
      <trkpt lat="44.77142" lon="5.04569">
        <ele>358</ele>
        <time>2020-02-07T13:00:40.000Z</time>
      </trkpt>
      <trkpt lat="44.77141" lon="5.04568">
        <ele>358</ele>
        <time>2020-02-07T13:00:41.000Z</time>
      </trkpt>
      <trkpt lat="44.7714" lon="5.04567">
        <ele>358</ele>
        <time>2020-02-07T13:00:42.000Z</time>
      </trkpt>
      <trkpt lat="44.7714" lon="5.04567">
        <ele>358</ele>
        <time>2020-02-07T13:00:43.000Z</time>
      </trkpt>
      <trkpt lat="44.7714" lon="5.04566">
        <ele>358</ele>
        <time>2020-02-07T13:00:44.000Z</time>
      </trkpt>
      <trkpt lat="44.77139" lon="5.04566">
        <ele>358</ele>
        <time>2020-02-07T13:00:45.000Z</time>
      </trkpt>
      <trkpt lat="44.77139" lon="5.04565">
        <ele>358</ele>
        <time>2020-02-07T13:00:46.000Z</time>
      </trkpt>
      <trkpt lat="44.77138" lon="5.04564">
        <ele>358</ele>
        <time>2020-02-07T13:00:47.000Z</time>
      </trkpt>
      <trkpt lat="44.77137" lon="5.04564">
        <ele>358</ele>
        <time>2020-02-07T13:00:48.000Z</time>
      </trkpt>
      <trkpt lat="44.77136" lon="5.04563">
        <ele>358</ele>
        <time>2020-02-07T13:00:49.000Z</time>
      </trkpt>
      <trkpt lat="44.77135" lon="5.04562">
        <ele>358</ele>
        <time>2020-02-07T13:00:50.000Z</time>
      </trkpt>
      <trkpt lat="44.77135" lon="5.04561">
        <ele>358</ele>
        <time>2020-02-07T13:00:51.000Z</time>
      </trkpt>
      <trkpt lat="44.77134" lon="5.0456">
        <ele>358</ele>
        <time>2020-02-07T13:00:52.000Z</time>
      </trkpt>
      <trkpt lat="44.77133" lon="5.04559">
        <ele>358</ele>
        <time>2020-02-07T13:00:53.000Z</time>
      </trkpt>
      <trkpt lat="44.77132" lon="5.04559">
        <ele>358</ele>
        <time>2020-02-07T13:00:54.000Z</time>
      </trkpt>
      <trkpt lat="44.77131" lon="5.04558">
        <ele>358</ele>
        <time>2020-02-07T13:00:55.000Z</time>
      </trkpt>
      <trkpt lat="44.7713" lon="5.04557">
        <ele>358</ele>
        <time>2020-02-07T13:00:56.000Z</time>
      </trkpt>
      <trkpt lat="44.77129" lon="5.04557">
        <ele>358</ele>
        <time>2020-02-07T13:00:57.000Z</time>
      </trkpt>
      <trkpt lat="44.77128" lon="5.04556">
        <ele>359</ele>
        <time>2020-02-07T13:00:58.000Z</time>
      </trkpt>
      <trkpt lat="44.77127" lon="5.04555">
        <ele>359</ele>
        <time>2020-02-07T13:00:59.000Z</time>
      </trkpt>
      <trkpt lat="44.77126" lon="5.04555">
        <ele>359</ele>
        <time>2020-02-07T13:01:00.000Z</time>
      </trkpt>
      <trkpt lat="44.77125" lon="5.04554">
        <ele>359</ele>
        <time>2020-02-07T13:01:01.000Z</time>
      </trkpt>
      <trkpt lat="44.77124" lon="5.04553">
        <ele>360</ele>
        <time>2020-02-07T13:01:02.000Z</time>
      </trkpt>
      <trkpt lat="44.77123" lon="5.04552">
        <ele>360</ele>
        <time>2020-02-07T13:01:03.000Z</time>
      </trkpt>
      <trkpt lat="44.77123" lon="5.04551">
        <ele>360</ele>
        <time>2020-02-07T13:01:04.000Z</time>
      </trkpt>
      <trkpt lat="44.77122" lon="5.0455">
        <ele>360</ele>
        <time>2020-02-07T13:01:05.000Z</time>
      </trkpt>
      <trkpt lat="44.77121" lon="5.0455">
        <ele>360</ele>
        <time>2020-02-07T13:01:06.000Z</time>
      </trkpt>
      <trkpt lat="44.7712" lon="5.04549">
        <ele>360</ele>
        <time>2020-02-07T13:01:07.000Z</time>
      </trkpt>
      <trkpt lat="44.77119" lon="5.04548">
        <ele>361</ele>
        <time>2020-02-07T13:01:08.000Z</time>
      </trkpt>
      <trkpt lat="44.77118" lon="5.04547">
        <ele>361</ele>
        <time>2020-02-07T13:01:09.000Z</time>
      </trkpt>
      <trkpt lat="44.77117" lon="5.04546">
        <ele>361</ele>
        <time>2020-02-07T13:01:10.000Z</time>
      </trkpt>
      <trkpt lat="44.77117" lon="5.04545">
        <ele>361</ele>
        <time>2020-02-07T13:01:11.000Z</time>
      </trkpt>
      <trkpt lat="44.77116" lon="5.04545">
        <ele>361</ele>
        <time>2020-02-07T13:01:12.000Z</time>
      </trkpt>
      <trkpt lat="44.77115" lon="5.04544">
        <ele>361</ele>
        <time>2020-02-07T13:01:13.000Z</time>
      </trkpt>
      <trkpt lat="44.77114" lon="5.04543">
        <ele>361</ele>
        <time>2020-02-07T13:01:14.000Z</time>
      </trkpt>
      <trkpt lat="44.77113" lon="5.04542">
        <ele>362</ele>
        <time>2020-02-07T13:01:15.000Z</time>
      </trkpt>
      <trkpt lat="44.77112" lon="5.04542">
        <ele>362</ele>
        <time>2020-02-07T13:01:16.000Z</time>
      </trkpt>
      <trkpt lat="44.77111" lon="5.04541">
        <ele>362</ele>
        <time>2020-02-07T13:01:17.000Z</time>
      </trkpt>
      <trkpt lat="44.7711" lon="5.04541">
        <ele>362</ele>
        <time>2020-02-07T13:01:18.000Z</time>
      </trkpt>
      <trkpt lat="44.77109" lon="5.0454">
        <ele>362</ele>
        <time>2020-02-07T13:01:19.000Z</time>
      </trkpt>
      <trkpt lat="44.77108" lon="5.0454">
        <ele>362</ele>
        <time>2020-02-07T13:01:20.000Z</time>
      </trkpt>
      <trkpt lat="44.77107" lon="5.0454">
        <ele>362</ele>
        <time>2020-02-07T13:01:21.000Z</time>
      </trkpt>
      <trkpt lat="44.77106" lon="5.0454">
        <ele>362</ele>
        <time>2020-02-07T13:01:22.000Z</time>
      </trkpt>
      <trkpt lat="44.77105" lon="5.04539">
        <ele>362</ele>
        <time>2020-02-07T13:01:23.000Z</time>
      </trkpt>
      <trkpt lat="44.77104" lon="5.04539">
        <ele>362</ele>
        <time>2020-02-07T13:01:24.000Z</time>
      </trkpt>
      <trkpt lat="44.77103" lon="5.04538">
        <ele>363</ele>
        <time>2020-02-07T13:01:25.000Z</time>
      </trkpt>
      <trkpt lat="44.77102" lon="5.04538">
        <ele>363</ele>
        <time>2020-02-07T13:01:26.000Z</time>
      </trkpt>
      <trkpt lat="44.77101" lon="5.04538">
        <ele>363</ele>
        <time>2020-02-07T13:01:27.000Z</time>
      </trkpt>
      <trkpt lat="44.771" lon="5.04537">
        <ele>362</ele>
        <time>2020-02-07T13:01:28.000Z</time>
      </trkpt>
      <trkpt lat="44.77099" lon="5.04537">
        <ele>362</ele>
        <time>2020-02-07T13:01:29.000Z</time>
      </trkpt>
      <trkpt lat="44.77098" lon="5.04536">
        <ele>362</ele>
        <time>2020-02-07T13:01:30.000Z</time>
      </trkpt>
      <trkpt lat="44.77097" lon="5.04535">
        <ele>362</ele>
        <time>2020-02-07T13:01:31.000Z</time>
      </trkpt>
      <trkpt lat="44.77096" lon="5.04535">
        <ele>362</ele>
        <time>2020-02-07T13:01:32.000Z</time>
      </trkpt>
      <trkpt lat="44.77095" lon="5.04535">
        <ele>363</ele>
        <time>2020-02-07T13:01:33.000Z</time>
      </trkpt>
      <trkpt lat="44.77094" lon="5.04534">
        <ele>363</ele>
        <time>2020-02-07T13:01:34.000Z</time>
      </trkpt>
      <trkpt lat="44.77093" lon="5.04533">
        <ele>363</ele>
        <time>2020-02-07T13:01:35.000Z</time>
      </trkpt>
      <trkpt lat="44.77091" lon="5.04533">
        <ele>363</ele>
        <time>2020-02-07T13:01:36.000Z</time>
      </trkpt>
      <trkpt lat="44.77091" lon="5.04532">
        <ele>363</ele>
        <time>2020-02-07T13:01:37.000Z</time>
      </trkpt>
      <trkpt lat="44.7709" lon="5.04532">
        <ele>364</ele>
        <time>2020-02-07T13:01:38.000Z</time>
      </trkpt>
      <trkpt lat="44.77088" lon="5.04532">
        <ele>364</ele>
        <time>2020-02-07T13:01:39.000Z</time>
      </trkpt>
      <trkpt lat="44.77088" lon="5.04531">
        <ele>364</ele>
        <time>2020-02-07T13:01:40.000Z</time>
      </trkpt>
      <trkpt lat="44.77087" lon="5.04531">
        <ele>364</ele>
        <time>2020-02-07T13:01:41.000Z</time>
      </trkpt>
      <trkpt lat="44.77086" lon="5.04531">
        <ele>365</ele>
        <time>2020-02-07T13:01:42.000Z</time>
      </trkpt>
      <trkpt lat="44.77085" lon="5.04531">
        <ele>365</ele>
        <time>2020-02-07T13:01:43.000Z</time>
      </trkpt>
      <trkpt lat="44.77084" lon="5.04531">
        <ele>365</ele>
        <time>2020-02-07T13:01:44.000Z</time>
      </trkpt>
      <trkpt lat="44.77082" lon="5.0453">
        <ele>365</ele>
        <time>2020-02-07T13:01:45.000Z</time>
      </trkpt>
      <trkpt lat="44.77081" lon="5.04531">
        <ele>365</ele>
        <time>2020-02-07T13:01:46.000Z</time>
      </trkpt>
      <trkpt lat="44.7708" lon="5.04531">
        <ele>366</ele>
        <time>2020-02-07T13:01:47.000Z</time>
      </trkpt>
      <trkpt lat="44.77079" lon="5.0453">
        <ele>366</ele>
        <time>2020-02-07T13:01:48.000Z</time>
      </trkpt>
      <trkpt lat="44.77078" lon="5.0453">
        <ele>366</ele>
        <time>2020-02-07T13:01:49.000Z</time>
      </trkpt>
      <trkpt lat="44.77077" lon="5.0453">
        <ele>367</ele>
        <time>2020-02-07T13:01:50.000Z</time>
      </trkpt>
      <trkpt lat="44.77076" lon="5.0453">
        <ele>367</ele>
        <time>2020-02-07T13:01:51.000Z</time>
      </trkpt>
      <trkpt lat="44.77076" lon="5.0453">
        <ele>367</ele>
        <time>2020-02-07T13:01:52.000Z</time>
      </trkpt>
      <trkpt lat="44.77075" lon="5.04529">
        <ele>367</ele>
        <time>2020-02-07T13:01:53.000Z</time>
      </trkpt>
      <trkpt lat="44.77074" lon="5.04529">
        <ele>368</ele>
        <time>2020-02-07T13:01:54.000Z</time>
      </trkpt>
      <trkpt lat="44.77073" lon="5.04528">
        <ele>368</ele>
        <time>2020-02-07T13:01:55.000Z</time>
      </trkpt>
      <trkpt lat="44.77072" lon="5.04528">
        <ele>368</ele>
        <time>2020-02-07T13:01:56.000Z</time>
      </trkpt>
      <trkpt lat="44.77071" lon="5.04528">
        <ele>368</ele>
        <time>2020-02-07T13:01:57.000Z</time>
      </trkpt>
      <trkpt lat="44.7707" lon="5.04528">
        <ele>369</ele>
        <time>2020-02-07T13:01:58.000Z</time>
      </trkpt>
      <trkpt lat="44.77069" lon="5.04528">
        <ele>369</ele>
        <time>2020-02-07T13:01:59.000Z</time>
      </trkpt>
      <trkpt lat="44.77068" lon="5.04528">
        <ele>369</ele>
        <time>2020-02-07T13:02:00.000Z</time>
      </trkpt>
      <trkpt lat="44.77066" lon="5.04528">
        <ele>370</ele>
        <time>2020-02-07T13:02:01.000Z</time>
      </trkpt>
      <trkpt lat="44.77065" lon="5.04528">
        <ele>370</ele>
        <time>2020-02-07T13:02:02.000Z</time>
      </trkpt>
      <trkpt lat="44.77064" lon="5.04528">
        <ele>370</ele>
        <time>2020-02-07T13:02:03.000Z</time>
      </trkpt>
      <trkpt lat="44.77063" lon="5.04528">
        <ele>371</ele>
        <time>2020-02-07T13:02:04.000Z</time>
      </trkpt>
      <trkpt lat="44.77062" lon="5.04528">
        <ele>371</ele>
        <time>2020-02-07T13:02:05.000Z</time>
      </trkpt>
      <trkpt lat="44.7706" lon="5.04528">
        <ele>371</ele>
        <time>2020-02-07T13:02:06.000Z</time>
      </trkpt>
      <trkpt lat="44.77059" lon="5.04528">
        <ele>372</ele>
        <time>2020-02-07T13:02:07.000Z</time>
      </trkpt>
      <trkpt lat="44.77058" lon="5.04528">
        <ele>372</ele>
        <time>2020-02-07T13:02:08.000Z</time>
      </trkpt>
      <trkpt lat="44.77057" lon="5.04528">
        <ele>372</ele>
        <time>2020-02-07T13:02:09.000Z</time>
      </trkpt>
      <trkpt lat="44.77056" lon="5.04528">
        <ele>372</ele>
        <time>2020-02-07T13:02:10.000Z</time>
      </trkpt>
      <trkpt lat="44.77055" lon="5.04529">
        <ele>372</ele>
        <time>2020-02-07T13:02:11.000Z</time>
      </trkpt>
      <trkpt lat="44.77054" lon="5.04529">
        <ele>372</ele>
        <time>2020-02-07T13:02:12.000Z</time>
      </trkpt>
      <trkpt lat="44.77053" lon="5.0453">
        <ele>373</ele>
        <time>2020-02-07T13:02:13.000Z</time>
      </trkpt>
      <trkpt lat="44.77052" lon="5.0453">
        <ele>373</ele>
        <time>2020-02-07T13:02:14.000Z</time>
      </trkpt>
      <trkpt lat="44.77051" lon="5.04531">
        <ele>373</ele>
        <time>2020-02-07T13:02:15.000Z</time>
      </trkpt>
      <trkpt lat="44.7705" lon="5.04531">
        <ele>373</ele>
        <time>2020-02-07T13:02:16.000Z</time>
      </trkpt>
      <trkpt lat="44.77049" lon="5.04532">
        <ele>373</ele>
        <time>2020-02-07T13:02:17.000Z</time>
      </trkpt>
      <trkpt lat="44.77048" lon="5.04532">
        <ele>373</ele>
        <time>2020-02-07T13:02:18.000Z</time>
      </trkpt>
      <trkpt lat="44.77047" lon="5.04532">
        <ele>374</ele>
        <time>2020-02-07T13:02:19.000Z</time>
      </trkpt>
      <trkpt lat="44.77046" lon="5.04533">
        <ele>374</ele>
        <time>2020-02-07T13:02:20.000Z</time>
      </trkpt>
      <trkpt lat="44.77045" lon="5.04534">
        <ele>374</ele>
        <time>2020-02-07T13:02:21.000Z</time>
      </trkpt>
      <trkpt lat="44.77044" lon="5.04534">
        <ele>374</ele>
        <time>2020-02-07T13:02:22.000Z</time>
      </trkpt>
      <trkpt lat="44.77043" lon="5.04535">
        <ele>374</ele>
        <time>2020-02-07T13:02:23.000Z</time>
      </trkpt>
      <trkpt lat="44.77042" lon="5.04535">
        <ele>374</ele>
        <time>2020-02-07T13:02:24.000Z</time>
      </trkpt>
      <trkpt lat="44.77041" lon="5.04535">
        <ele>375</ele>
        <time>2020-02-07T13:02:25.000Z</time>
      </trkpt>
      <trkpt lat="44.7704" lon="5.04536">
        <ele>375</ele>
        <time>2020-02-07T13:02:26.000Z</time>
      </trkpt>
      <trkpt lat="44.77039" lon="5.04536">
        <ele>375</ele>
        <time>2020-02-07T13:02:27.000Z</time>
      </trkpt>
      <trkpt lat="44.77038" lon="5.04537">
        <ele>375</ele>
        <time>2020-02-07T13:02:28.000Z</time>
      </trkpt>
      <trkpt lat="44.77038" lon="5.04537">
        <ele>375</ele>
        <time>2020-02-07T13:02:29.000Z</time>
      </trkpt>
      <trkpt lat="44.77037" lon="5.04537">
        <ele>375</ele>
        <time>2020-02-07T13:02:30.000Z</time>
      </trkpt>
      <trkpt lat="44.77036" lon="5.04537">
        <ele>376</ele>
        <time>2020-02-07T13:02:31.000Z</time>
      </trkpt>
      <trkpt lat="44.77035" lon="5.04538">
        <ele>376</ele>
        <time>2020-02-07T13:02:32.000Z</time>
      </trkpt>
      <trkpt lat="44.77034" lon="5.04538">
        <ele>376</ele>
        <time>2020-02-07T13:02:33.000Z</time>
      </trkpt>
      <trkpt lat="44.77033" lon="5.04538">
        <ele>376</ele>
        <time>2020-02-07T13:02:34.000Z</time>
      </trkpt>
      <trkpt lat="44.77032" lon="5.04538">
        <ele>376</ele>
        <time>2020-02-07T13:02:35.000Z</time>
      </trkpt>
      <trkpt lat="44.77031" lon="5.04538">
        <ele>376</ele>
        <time>2020-02-07T13:02:36.000Z</time>
      </trkpt>
      <trkpt lat="44.77029" lon="5.04539">
        <ele>377</ele>
        <time>2020-02-07T13:02:37.000Z</time>
      </trkpt>
      <trkpt lat="44.77028" lon="5.04539">
        <ele>377</ele>
        <time>2020-02-07T13:02:38.000Z</time>
      </trkpt>
      <trkpt lat="44.77027" lon="5.04539">
        <ele>377</ele>
        <time>2020-02-07T13:02:39.000Z</time>
      </trkpt>
      <trkpt lat="44.77026" lon="5.04539">
        <ele>377</ele>
        <time>2020-02-07T13:02:40.000Z</time>
      </trkpt>
      <trkpt lat="44.77026" lon="5.04539">
        <ele>377</ele>
        <time>2020-02-07T13:02:41.000Z</time>
      </trkpt>
      <trkpt lat="44.77024" lon="5.04539">
        <ele>377</ele>
        <time>2020-02-07T13:02:42.000Z</time>
      </trkpt>
      <trkpt lat="44.77023" lon="5.04539">
        <ele>378</ele>
        <time>2020-02-07T13:02:43.000Z</time>
      </trkpt>
      <trkpt lat="44.77022" lon="5.04539">
        <ele>378</ele>
        <time>2020-02-07T13:02:44.000Z</time>
      </trkpt>
      <trkpt lat="44.77021" lon="5.04539">
        <ele>378</ele>
        <time>2020-02-07T13:02:45.000Z</time>
      </trkpt>
      <trkpt lat="44.7702" lon="5.04539">
        <ele>378</ele>
        <time>2020-02-07T13:02:46.000Z</time>
      </trkpt>
      <trkpt lat="44.77019" lon="5.04539">
        <ele>378</ele>
        <time>2020-02-07T13:02:47.000Z</time>
      </trkpt>
      <trkpt lat="44.77018" lon="5.04539">
        <ele>378</ele>
        <time>2020-02-07T13:02:48.000Z</time>
      </trkpt>
      <trkpt lat="44.77017" lon="5.0454">
        <ele>378</ele>
        <time>2020-02-07T13:02:49.000Z</time>
      </trkpt>
      <trkpt lat="44.77016" lon="5.0454">
        <ele>378</ele>
        <time>2020-02-07T13:02:50.000Z</time>
      </trkpt>
      <trkpt lat="44.77015" lon="5.0454">
        <ele>378</ele>
        <time>2020-02-07T13:02:51.000Z</time>
      </trkpt>
      <trkpt lat="44.77013" lon="5.0454">
        <ele>379</ele>
        <time>2020-02-07T13:02:52.000Z</time>
      </trkpt>
      <trkpt lat="44.77012" lon="5.0454">
        <ele>379</ele>
        <time>2020-02-07T13:02:53.000Z</time>
      </trkpt>
      <trkpt lat="44.77012" lon="5.0454">
        <ele>379</ele>
        <time>2020-02-07T13:02:54.000Z</time>
      </trkpt>
      <trkpt lat="44.77011" lon="5.0454">
        <ele>379</ele>
        <time>2020-02-07T13:02:55.000Z</time>
      </trkpt>
      <trkpt lat="44.7701" lon="5.04541">
        <ele>379</ele>
        <time>2020-02-07T13:02:56.000Z</time>
      </trkpt>
      <trkpt lat="44.77009" lon="5.04541">
        <ele>380</ele>
        <time>2020-02-07T13:02:57.000Z</time>
      </trkpt>
      <trkpt lat="44.77009" lon="5.04541">
        <ele>380</ele>
        <time>2020-02-07T13:02:58.000Z</time>
      </trkpt>
      <trkpt lat="44.77008" lon="5.04541">
        <ele>380</ele>
        <time>2020-02-07T13:02:59.000Z</time>
      </trkpt>
      <trkpt lat="44.77007" lon="5.04541">
        <ele>380</ele>
        <time>2020-02-07T13:03:00.000Z</time>
      </trkpt>
      <trkpt lat="44.77006" lon="5.04542">
        <ele>380</ele>
        <time>2020-02-07T13:03:01.000Z</time>
      </trkpt>
      <trkpt lat="44.77005" lon="5.04542">
        <ele>380</ele>
        <time>2020-02-07T13:03:02.000Z</time>
      </trkpt>
      <trkpt lat="44.77004" lon="5.04542">
        <ele>381</ele>
        <time>2020-02-07T13:03:03.000Z</time>
      </trkpt>
      <trkpt lat="44.77003" lon="5.04543">
        <ele>381</ele>
        <time>2020-02-07T13:03:04.000Z</time>
      </trkpt>
      <trkpt lat="44.77003" lon="5.04543">
        <ele>381</ele>
        <time>2020-02-07T13:03:05.000Z</time>
      </trkpt>
      <trkpt lat="44.77002" lon="5.04543">
        <ele>381</ele>
        <time>2020-02-07T13:03:06.000Z</time>
      </trkpt>
      <trkpt lat="44.77001" lon="5.04544">
        <ele>381</ele>
        <time>2020-02-07T13:03:07.000Z</time>
      </trkpt>
      <trkpt lat="44.77" lon="5.04544">
        <ele>381</ele>
        <time>2020-02-07T13:03:08.000Z</time>
      </trkpt>
      <trkpt lat="44.76999" lon="5.04545">
        <ele>382</ele>
        <time>2020-02-07T13:03:09.000Z</time>
      </trkpt>
      <trkpt lat="44.76998" lon="5.04545">
        <ele>382</ele>
        <time>2020-02-07T13:03:10.000Z</time>
      </trkpt>
      <trkpt lat="44.76996" lon="5.04545">
        <ele>382</ele>
        <time>2020-02-07T13:03:11.000Z</time>
      </trkpt>
      <trkpt lat="44.76995" lon="5.04545">
        <ele>382</ele>
        <time>2020-02-07T13:03:12.000Z</time>
      </trkpt>
      <trkpt lat="44.76994" lon="5.04545">
        <ele>382</ele>
        <time>2020-02-07T13:03:13.000Z</time>
      </trkpt>
      <trkpt lat="44.76993" lon="5.04546">
        <ele>382</ele>
        <time>2020-02-07T13:03:14.000Z</time>
      </trkpt>
      <trkpt lat="44.76993" lon="5.04546">
        <ele>382</ele>
        <time>2020-02-07T13:03:15.000Z</time>
      </trkpt>
      <trkpt lat="44.76992" lon="5.04546">
        <ele>382</ele>
        <time>2020-02-07T13:03:16.000Z</time>
      </trkpt>
      <trkpt lat="44.76992" lon="5.04547">
        <ele>382</ele>
        <time>2020-02-07T13:03:17.000Z</time>
      </trkpt>
      <trkpt lat="44.76991" lon="5.04548">
        <ele>382</ele>
        <time>2020-02-07T13:03:18.000Z</time>
      </trkpt>
      <trkpt lat="44.76991" lon="5.04549">
        <ele>382</ele>
        <time>2020-02-07T13:03:19.000Z</time>
      </trkpt>
      <trkpt lat="44.76991" lon="5.04551">
        <ele>382</ele>
        <time>2020-02-07T13:03:20.000Z</time>
      </trkpt>
      <trkpt lat="44.7699" lon="5.04552">
        <ele>382</ele>
        <time>2020-02-07T13:03:21.000Z</time>
      </trkpt>
      <trkpt lat="44.76989" lon="5.04553">
        <ele>382</ele>
        <time>2020-02-07T13:03:22.000Z</time>
      </trkpt>
      <trkpt lat="44.76988" lon="5.04554">
        <ele>382</ele>
        <time>2020-02-07T13:03:23.000Z</time>
      </trkpt>
      <trkpt lat="44.76988" lon="5.04554">
        <ele>382</ele>
        <time>2020-02-07T13:03:24.000Z</time>
      </trkpt>
      <trkpt lat="44.76987" lon="5.04555">
        <ele>382</ele>
        <time>2020-02-07T13:03:25.000Z</time>
      </trkpt>
      <trkpt lat="44.76986" lon="5.04556">
        <ele>382</ele>
        <time>2020-02-07T13:03:26.000Z</time>
      </trkpt>
      <trkpt lat="44.76986" lon="5.04557">
        <ele>382</ele>
        <time>2020-02-07T13:03:27.000Z</time>
      </trkpt>
      <trkpt lat="44.76985" lon="5.04558">
        <ele>382</ele>
        <time>2020-02-07T13:03:28.000Z</time>
      </trkpt>
      <trkpt lat="44.76984" lon="5.04559">
        <ele>382</ele>
        <time>2020-02-07T13:03:29.000Z</time>
      </trkpt>
      <trkpt lat="44.76984" lon="5.0456">
        <ele>382</ele>
        <time>2020-02-07T13:03:30.000Z</time>
      </trkpt>
      <trkpt lat="44.76983" lon="5.0456">
        <ele>382</ele>
        <time>2020-02-07T13:03:31.000Z</time>
      </trkpt>
      <trkpt lat="44.76983" lon="5.04561">
        <ele>382</ele>
        <time>2020-02-07T13:03:32.000Z</time>
      </trkpt>
      <trkpt lat="44.76983" lon="5.04561">
        <ele>382</ele>
        <time>2020-02-07T13:03:33.000Z</time>
      </trkpt>
      <trkpt lat="44.76982" lon="5.04561">
        <ele>383</ele>
        <time>2020-02-07T13:03:34.000Z</time>
      </trkpt>
      <trkpt lat="44.76982" lon="5.04561">
        <ele>383</ele>
        <time>2020-02-07T13:03:35.000Z</time>
      </trkpt>
      <trkpt lat="44.76982" lon="5.04561">
        <ele>383</ele>
        <time>2020-02-07T13:03:36.000Z</time>
      </trkpt>
      <trkpt lat="44.76982" lon="5.04561">
        <ele>383</ele>
        <time>2020-02-07T13:03:37.000Z</time>
      </trkpt>
      <trkpt lat="44.76982" lon="5.04561">
        <ele>383</ele>
        <time>2020-02-07T13:03:38.000Z</time>
      </trkpt>
      <trkpt lat="44.76982" lon="5.04562">
        <ele>383</ele>
        <time>2020-02-07T13:03:39.000Z</time>
      </trkpt>
      <trkpt lat="44.76982" lon="5.04562">
        <ele>383</ele>
        <time>2020-02-07T13:03:40.000Z</time>
      </trkpt>
      <trkpt lat="44.76981" lon="5.04563">
        <ele>383</ele>
        <time>2020-02-07T13:03:41.000Z</time>
      </trkpt>
      <trkpt lat="44.7698" lon="5.04563">
        <ele>383</ele>
        <time>2020-02-07T13:03:42.000Z</time>
      </trkpt>
      <trkpt lat="44.7698" lon="5.04564">
        <ele>384</ele>
        <time>2020-02-07T13:03:43.000Z</time>
      </trkpt>
      <trkpt lat="44.76979" lon="5.04564">
        <ele>384</ele>
        <time>2020-02-07T13:03:44.000Z</time>
      </trkpt>
      <trkpt lat="44.76978" lon="5.04565">
        <ele>384</ele>
        <time>2020-02-07T13:03:45.000Z</time>
      </trkpt>
      <trkpt lat="44.76977" lon="5.04565">
        <ele>384</ele>
        <time>2020-02-07T13:03:46.000Z</time>
      </trkpt>
      <trkpt lat="44.76976" lon="5.04566">
        <ele>384</ele>
        <time>2020-02-07T13:03:47.000Z</time>
      </trkpt>
      <trkpt lat="44.76976" lon="5.04566">
        <ele>385</ele>
        <time>2020-02-07T13:03:48.000Z</time>
      </trkpt>
      <trkpt lat="44.76975" lon="5.04567">
        <ele>385</ele>
        <time>2020-02-07T13:03:49.000Z</time>
      </trkpt>
      <trkpt lat="44.76974" lon="5.04567">
        <ele>385</ele>
        <time>2020-02-07T13:03:50.000Z</time>
      </trkpt>
      <trkpt lat="44.76973" lon="5.04568">
        <ele>385</ele>
        <time>2020-02-07T13:03:51.000Z</time>
      </trkpt>
      <trkpt lat="44.76973" lon="5.04568">
        <ele>385</ele>
        <time>2020-02-07T13:03:52.000Z</time>
      </trkpt>
      <trkpt lat="44.76972" lon="5.04569">
        <ele>385</ele>
        <time>2020-02-07T13:03:53.000Z</time>
      </trkpt>
      <trkpt lat="44.76971" lon="5.04569">
        <ele>386</ele>
        <time>2020-02-07T13:03:54.000Z</time>
      </trkpt>
      <trkpt lat="44.76969" lon="5.0457">
        <ele>386</ele>
        <time>2020-02-07T13:03:55.000Z</time>
      </trkpt>
      <trkpt lat="44.76968" lon="5.0457">
        <ele>386</ele>
        <time>2020-02-07T13:03:56.000Z</time>
      </trkpt>
      <trkpt lat="44.76967" lon="5.04571">
        <ele>386</ele>
        <time>2020-02-07T13:03:57.000Z</time>
      </trkpt>
      <trkpt lat="44.76966" lon="5.04571">
        <ele>386</ele>
        <time>2020-02-07T13:03:58.000Z</time>
      </trkpt>
      <trkpt lat="44.76965" lon="5.04572">
        <ele>386</ele>
        <time>2020-02-07T13:03:59.000Z</time>
      </trkpt>
      <trkpt lat="44.76964" lon="5.04572">
        <ele>386</ele>
        <time>2020-02-07T13:04:00.000Z</time>
      </trkpt>
      <trkpt lat="44.76963" lon="5.04573">
        <ele>386</ele>
        <time>2020-02-07T13:04:01.000Z</time>
      </trkpt>
      <trkpt lat="44.76962" lon="5.04573">
        <ele>387</ele>
        <time>2020-02-07T13:04:02.000Z</time>
      </trkpt>
      <trkpt lat="44.76961" lon="5.04574">
        <ele>387</ele>
        <time>2020-02-07T13:04:03.000Z</time>
      </trkpt>
      <trkpt lat="44.7696" lon="5.04574">
        <ele>387</ele>
        <time>2020-02-07T13:04:04.000Z</time>
      </trkpt>
      <trkpt lat="44.76959" lon="5.04575">
        <ele>387</ele>
        <time>2020-02-07T13:04:05.000Z</time>
      </trkpt>
      <trkpt lat="44.76959" lon="5.04576">
        <ele>387</ele>
        <time>2020-02-07T13:04:06.000Z</time>
      </trkpt>
      <trkpt lat="44.76958" lon="5.04576">
        <ele>387</ele>
        <time>2020-02-07T13:04:07.000Z</time>
      </trkpt>
      <trkpt lat="44.76957" lon="5.04577">
        <ele>387</ele>
        <time>2020-02-07T13:04:08.000Z</time>
      </trkpt>
      <trkpt lat="44.76956" lon="5.04578">
        <ele>387</ele>
        <time>2020-02-07T13:04:09.000Z</time>
      </trkpt>
      <trkpt lat="44.76955" lon="5.04578">
        <ele>387</ele>
        <time>2020-02-07T13:04:10.000Z</time>
      </trkpt>
      <trkpt lat="44.76954" lon="5.04578">
        <ele>387</ele>
        <time>2020-02-07T13:04:11.000Z</time>
      </trkpt>
      <trkpt lat="44.76953" lon="5.04579">
        <ele>387</ele>
        <time>2020-02-07T13:04:12.000Z</time>
      </trkpt>
      <trkpt lat="44.76953" lon="5.0458">
        <ele>387</ele>
        <time>2020-02-07T13:04:13.000Z</time>
      </trkpt>
      <trkpt lat="44.76952" lon="5.0458">
        <ele>387</ele>
        <time>2020-02-07T13:04:14.000Z</time>
      </trkpt>
      <trkpt lat="44.76951" lon="5.04581">
        <ele>387</ele>
        <time>2020-02-07T13:04:15.000Z</time>
      </trkpt>
      <trkpt lat="44.7695" lon="5.04581">
        <ele>387</ele>
        <time>2020-02-07T13:04:16.000Z</time>
      </trkpt>
      <trkpt lat="44.76949" lon="5.04582">
        <ele>388</ele>
        <time>2020-02-07T13:04:17.000Z</time>
      </trkpt>
      <trkpt lat="44.76948" lon="5.04582">
        <ele>388</ele>
        <time>2020-02-07T13:04:18.000Z</time>
      </trkpt>
      <trkpt lat="44.76947" lon="5.04583">
        <ele>388</ele>
        <time>2020-02-07T13:04:19.000Z</time>
      </trkpt>
      <trkpt lat="44.76946" lon="5.04583">
        <ele>388</ele>
        <time>2020-02-07T13:04:20.000Z</time>
      </trkpt>
      <trkpt lat="44.76945" lon="5.04584">
        <ele>388</ele>
        <time>2020-02-07T13:04:21.000Z</time>
      </trkpt>
      <trkpt lat="44.76945" lon="5.04584">
        <ele>388</ele>
        <time>2020-02-07T13:04:22.000Z</time>
      </trkpt>
      <trkpt lat="44.76943" lon="5.04585">
        <ele>388</ele>
        <time>2020-02-07T13:04:23.000Z</time>
      </trkpt>
      <trkpt lat="44.76943" lon="5.04585">
        <ele>388</ele>
        <time>2020-02-07T13:04:24.000Z</time>
      </trkpt>
      <trkpt lat="44.76942" lon="5.04586">
        <ele>389</ele>
        <time>2020-02-07T13:04:25.000Z</time>
      </trkpt>
      <trkpt lat="44.76941" lon="5.04586">
        <ele>389</ele>
        <time>2020-02-07T13:04:26.000Z</time>
      </trkpt>
      <trkpt lat="44.7694" lon="5.04586">
        <ele>389</ele>
        <time>2020-02-07T13:04:27.000Z</time>
      </trkpt>
      <trkpt lat="44.7694" lon="5.04587">
        <ele>389</ele>
        <time>2020-02-07T13:04:28.000Z</time>
      </trkpt>
      <trkpt lat="44.76939" lon="5.04587">
        <ele>389</ele>
        <time>2020-02-07T13:04:29.000Z</time>
      </trkpt>
      <trkpt lat="44.76938" lon="5.04588">
        <ele>389</ele>
        <time>2020-02-07T13:04:30.000Z</time>
      </trkpt>
      <trkpt lat="44.76937" lon="5.04588">
        <ele>389</ele>
        <time>2020-02-07T13:04:31.000Z</time>
      </trkpt>
      <trkpt lat="44.76936" lon="5.04589">
        <ele>389</ele>
        <time>2020-02-07T13:04:32.000Z</time>
      </trkpt>
      <trkpt lat="44.76935" lon="5.0459">
        <ele>389</ele>
        <time>2020-02-07T13:04:33.000Z</time>
      </trkpt>
      <trkpt lat="44.76934" lon="5.04591">
        <ele>389</ele>
        <time>2020-02-07T13:04:34.000Z</time>
      </trkpt>
      <trkpt lat="44.76933" lon="5.04592">
        <ele>389</ele>
        <time>2020-02-07T13:04:35.000Z</time>
      </trkpt>
      <trkpt lat="44.76932" lon="5.04592">
        <ele>390</ele>
        <time>2020-02-07T13:04:36.000Z</time>
      </trkpt>
      <trkpt lat="44.76931" lon="5.04593">
        <ele>390</ele>
        <time>2020-02-07T13:04:37.000Z</time>
      </trkpt>
      <trkpt lat="44.7693" lon="5.04594">
        <ele>390</ele>
        <time>2020-02-07T13:04:38.000Z</time>
      </trkpt>
      <trkpt lat="44.76929" lon="5.04595">
        <ele>390</ele>
        <time>2020-02-07T13:04:39.000Z</time>
      </trkpt>
      <trkpt lat="44.76928" lon="5.04596">
        <ele>390</ele>
        <time>2020-02-07T13:04:40.000Z</time>
      </trkpt>
      <trkpt lat="44.76927" lon="5.04597">
        <ele>390</ele>
        <time>2020-02-07T13:04:41.000Z</time>
      </trkpt>
      <trkpt lat="44.76926" lon="5.04598">
        <ele>390</ele>
        <time>2020-02-07T13:04:42.000Z</time>
      </trkpt>
      <trkpt lat="44.76925" lon="5.04599">
        <ele>391</ele>
        <time>2020-02-07T13:04:43.000Z</time>
      </trkpt>
      <trkpt lat="44.76924" lon="5.046">
        <ele>391</ele>
        <time>2020-02-07T13:04:44.000Z</time>
      </trkpt>
      <trkpt lat="44.76923" lon="5.04602">
        <ele>391</ele>
        <time>2020-02-07T13:04:45.000Z</time>
      </trkpt>
      <trkpt lat="44.76922" lon="5.04602">
        <ele>391</ele>
        <time>2020-02-07T13:04:46.000Z</time>
      </trkpt>
      <trkpt lat="44.76922" lon="5.04603">
        <ele>391</ele>
        <time>2020-02-07T13:04:47.000Z</time>
      </trkpt>
      <trkpt lat="44.76921" lon="5.04604">
        <ele>391</ele>
        <time>2020-02-07T13:04:48.000Z</time>
      </trkpt>
      <trkpt lat="44.7692" lon="5.04605">
        <ele>391</ele>
        <time>2020-02-07T13:04:49.000Z</time>
      </trkpt>
      <trkpt lat="44.76919" lon="5.04605">
        <ele>391</ele>
        <time>2020-02-07T13:04:50.000Z</time>
      </trkpt>
      <trkpt lat="44.76919" lon="5.04606">
        <ele>391</ele>
        <time>2020-02-07T13:04:51.000Z</time>
      </trkpt>
      <trkpt lat="44.76919" lon="5.04606">
        <ele>391</ele>
        <time>2020-02-07T13:04:52.000Z</time>
      </trkpt>
      <trkpt lat="44.76919" lon="5.04606">
        <ele>391</ele>
        <time>2020-02-07T13:04:53.000Z</time>
      </trkpt>
      <trkpt lat="44.76918" lon="5.04606">
        <ele>391</ele>
        <time>2020-02-07T13:04:54.000Z</time>
      </trkpt>
      <trkpt lat="44.76918" lon="5.04607">
        <ele>392</ele>
        <time>2020-02-07T13:04:55.000Z</time>
      </trkpt>
      <trkpt lat="44.76917" lon="5.04607">
        <ele>392</ele>
        <time>2020-02-07T13:04:56.000Z</time>
      </trkpt>
      <trkpt lat="44.76917" lon="5.04607">
        <ele>392</ele>
        <time>2020-02-07T13:04:57.000Z</time>
      </trkpt>
      <trkpt lat="44.76917" lon="5.04608">
        <ele>392</ele>
        <time>2020-02-07T13:04:58.000Z</time>
      </trkpt>
      <trkpt lat="44.76916" lon="5.04608">
        <ele>392</ele>
        <time>2020-02-07T13:04:59.000Z</time>
      </trkpt>
      <trkpt lat="44.76916" lon="5.04608">
        <ele>392</ele>
        <time>2020-02-07T13:05:00.000Z</time>
      </trkpt>
      <trkpt lat="44.76916" lon="5.04608">
        <ele>392</ele>
        <time>2020-02-07T13:05:01.000Z</time>
      </trkpt>
      <trkpt lat="44.76915" lon="5.04608">
        <ele>392</ele>
        <time>2020-02-07T13:05:02.000Z</time>
      </trkpt>
      <trkpt lat="44.76915" lon="5.04608">
        <ele>392</ele>
        <time>2020-02-07T13:05:03.000Z</time>
      </trkpt>
      <trkpt lat="44.76915" lon="5.04608">
        <ele>392</ele>
        <time>2020-02-07T13:05:04.000Z</time>
      </trkpt>
      <trkpt lat="44.76915" lon="5.04608">
        <ele>392</ele>
        <time>2020-02-07T13:05:05.000Z</time>
      </trkpt>
      <trkpt lat="44.76915" lon="5.04608">
        <ele>392</ele>
        <time>2020-02-07T13:05:06.000Z</time>
      </trkpt>
      <trkpt lat="44.76915" lon="5.04608">
        <ele>392</ele>
        <time>2020-02-07T13:05:07.000Z</time>
      </trkpt>
      <trkpt lat="44.76915" lon="5.04608">
        <ele>392</ele>
        <time>2020-02-07T13:05:08.000Z</time>
      </trkpt>
      <trkpt lat="44.76915" lon="5.04608">
        <ele>392</ele>
        <time>2020-02-07T13:05:09.000Z</time>
      </trkpt>
      <trkpt lat="44.76915" lon="5.04608">
        <ele>392</ele>
        <time>2020-02-07T13:05:10.000Z</time>
      </trkpt>
      <trkpt lat="44.76915" lon="5.04608">
        <ele>391</ele>
        <time>2020-02-07T13:05:11.000Z</time>
      </trkpt>
      <trkpt lat="44.76915" lon="5.04608">
        <ele>391</ele>
        <time>2020-02-07T13:05:12.000Z</time>
      </trkpt>
      <trkpt lat="44.76915" lon="5.04608">
        <ele>391</ele>
        <time>2020-02-07T13:05:13.000Z</time>
      </trkpt>
      <trkpt lat="44.76915" lon="5.04608">
        <ele>391</ele>
        <time>2020-02-07T13:05:14.000Z</time>
      </trkpt>
      <trkpt lat="44.76915" lon="5.04608">
        <ele>391</ele>
        <time>2020-02-07T13:05:15.000Z</time>
      </trkpt>
      <trkpt lat="44.76915" lon="5.04608">
        <ele>391</ele>
        <time>2020-02-07T13:05:16.000Z</time>
      </trkpt>
      <trkpt lat="44.76915" lon="5.04608">
        <ele>391</ele>
        <time>2020-02-07T13:05:17.000Z</time>
      </trkpt>
      <trkpt lat="44.76915" lon="5.04608">
        <ele>391</ele>
        <time>2020-02-07T13:05:18.000Z</time>
      </trkpt>
      <trkpt lat="44.76915" lon="5.04607">
        <ele>391</ele>
        <time>2020-02-07T13:05:19.000Z</time>
      </trkpt>
      <trkpt lat="44.76915" lon="5.04607">
        <ele>391</ele>
        <time>2020-02-07T13:05:20.000Z</time>
      </trkpt>
      <trkpt lat="44.76916" lon="5.04607">
        <ele>391</ele>
        <time>2020-02-07T13:05:21.000Z</time>
      </trkpt>
      <trkpt lat="44.76916" lon="5.04607">
        <ele>391</ele>
        <time>2020-02-07T13:05:22.000Z</time>
      </trkpt>
      <trkpt lat="44.76917" lon="5.04606">
        <ele>391</ele>
        <time>2020-02-07T13:05:23.000Z</time>
      </trkpt>
      <trkpt lat="44.76917" lon="5.04606">
        <ele>391</ele>
        <time>2020-02-07T13:05:24.000Z</time>
      </trkpt>
      <trkpt lat="44.76917" lon="5.04606">
        <ele>391</ele>
        <time>2020-02-07T13:05:25.000Z</time>
      </trkpt>
      <trkpt lat="44.76917" lon="5.04606">
        <ele>391</ele>
        <time>2020-02-07T13:05:26.000Z</time>
      </trkpt>
      <trkpt lat="44.76917" lon="5.04606">
        <ele>391</ele>
        <time>2020-02-07T13:05:27.000Z</time>
      </trkpt>
      <trkpt lat="44.76917" lon="5.04606">
        <ele>391</ele>
        <time>2020-02-07T13:05:28.000Z</time>
      </trkpt>
      <trkpt lat="44.76917" lon="5.04606">
        <ele>391</ele>
        <time>2020-02-07T13:05:29.000Z</time>
      </trkpt>
      <trkpt lat="44.76917" lon="5.04606">
        <ele>391</ele>
        <time>2020-02-07T13:05:30.000Z</time>
      </trkpt>
      <trkpt lat="44.76917" lon="5.04606">
        <ele>391</ele>
        <time>2020-02-07T13:05:31.000Z</time>
      </trkpt>
      <trkpt lat="44.76917" lon="5.04605">
        <ele>391</ele>
        <time>2020-02-07T13:05:32.000Z</time>
      </trkpt>
      <trkpt lat="44.76917" lon="5.04605">
        <ele>391</ele>
        <time>2020-02-07T13:05:33.000Z</time>
      </trkpt>
      <trkpt lat="44.76917" lon="5.04605">
        <ele>391</ele>
        <time>2020-02-07T13:05:34.000Z</time>
      </trkpt>
      <trkpt lat="44.76917" lon="5.04605">
        <ele>391</ele>
        <time>2020-02-07T13:05:35.000Z</time>
      </trkpt>
      <trkpt lat="44.76917" lon="5.04605">
        <ele>391</ele>
        <time>2020-02-07T13:05:36.000Z</time>
      </trkpt>
      <trkpt lat="44.76917" lon="5.04605">
        <ele>391</ele>
        <time>2020-02-07T13:05:37.000Z</time>
      </trkpt>
      <trkpt lat="44.76917" lon="5.04605">
        <ele>391</ele>
        <time>2020-02-07T13:05:38.000Z</time>
      </trkpt>
      <trkpt lat="44.76917" lon="5.04605">
        <ele>391</ele>
        <time>2020-02-07T13:05:39.000Z</time>
      </trkpt>
      <trkpt lat="44.76917" lon="5.04605">
        <ele>391</ele>
        <time>2020-02-07T13:05:40.000Z</time>
      </trkpt>
      <trkpt lat="44.76917" lon="5.04605">
        <ele>391</ele>
        <time>2020-02-07T13:05:41.000Z</time>
      </trkpt>
      <trkpt lat="44.76917" lon="5.04604">
        <ele>391</ele>
        <time>2020-02-07T13:05:42.000Z</time>
      </trkpt>
      <trkpt lat="44.76917" lon="5.04604">
        <ele>392</ele>
        <time>2020-02-07T13:05:43.000Z</time>
      </trkpt>
      <trkpt lat="44.76917" lon="5.04604">
        <ele>392</ele>
        <time>2020-02-07T13:05:44.000Z</time>
      </trkpt>
      <trkpt lat="44.76917" lon="5.04604">
        <ele>392</ele>
        <time>2020-02-07T13:05:45.000Z</time>
      </trkpt>
      <trkpt lat="44.76917" lon="5.04604">
        <ele>392</ele>
        <time>2020-02-07T13:05:46.000Z</time>
      </trkpt>
      <trkpt lat="44.76917" lon="5.04604">
        <ele>392</ele>
        <time>2020-02-07T13:05:47.000Z</time>
      </trkpt>
      <trkpt lat="44.76917" lon="5.04604">
        <ele>392</ele>
        <time>2020-02-07T13:05:48.000Z</time>
      </trkpt>
      <trkpt lat="44.76917" lon="5.04604">
        <ele>392</ele>
        <time>2020-02-07T13:05:49.000Z</time>
      </trkpt>
      <trkpt lat="44.76917" lon="5.04604">
        <ele>392</ele>
        <time>2020-02-07T13:05:50.000Z</time>
      </trkpt>
      <trkpt lat="44.76917" lon="5.04604">
        <ele>392</ele>
        <time>2020-02-07T13:05:51.000Z</time>
      </trkpt>
      <trkpt lat="44.76917" lon="5.04604">
        <ele>392</ele>
        <time>2020-02-07T13:05:52.000Z</time>
      </trkpt>
      <trkpt lat="44.76917" lon="5.04604">
        <ele>392</ele>
        <time>2020-02-07T13:05:53.000Z</time>
      </trkpt>
      <trkpt lat="44.76917" lon="5.04604">
        <ele>392</ele>
        <time>2020-02-07T13:05:54.000Z</time>
      </trkpt>
      <trkpt lat="44.76917" lon="5.04604">
        <ele>392</ele>
        <time>2020-02-07T13:05:55.000Z</time>
      </trkpt>
      <trkpt lat="44.76917" lon="5.04604">
        <ele>392</ele>
        <time>2020-02-07T13:05:56.000Z</time>
      </trkpt>
      <trkpt lat="44.76917" lon="5.04604">
        <ele>392</ele>
        <time>2020-02-07T13:05:57.000Z</time>
      </trkpt>
      <trkpt lat="44.76917" lon="5.04604">
        <ele>392</ele>
        <time>2020-02-07T13:05:58.000Z</time>
      </trkpt>
      <trkpt lat="44.76917" lon="5.04604">
        <ele>392</ele>
        <time>2020-02-07T13:05:59.000Z</time>
      </trkpt>
      <trkpt lat="44.76917" lon="5.04604">
        <ele>392</ele>
        <time>2020-02-07T13:06:00.000Z</time>
      </trkpt>
      <trkpt lat="44.76917" lon="5.04604">
        <ele>392</ele>
        <time>2020-02-07T13:06:01.000Z</time>
      </trkpt>
      <trkpt lat="44.76917" lon="5.04604">
        <ele>392</ele>
        <time>2020-02-07T13:06:02.000Z</time>
      </trkpt>
      <trkpt lat="44.76917" lon="5.04604">
        <ele>392</ele>
        <time>2020-02-07T13:06:03.000Z</time>
      </trkpt>
      <trkpt lat="44.76917" lon="5.04604">
        <ele>392</ele>
        <time>2020-02-07T13:06:04.000Z</time>
      </trkpt>
      <trkpt lat="44.76917" lon="5.04604">
        <ele>392</ele>
        <time>2020-02-07T13:06:05.000Z</time>
      </trkpt>
      <trkpt lat="44.76917" lon="5.04603">
        <ele>392</ele>
        <time>2020-02-07T13:06:06.000Z</time>
      </trkpt>
      <trkpt lat="44.76917" lon="5.04603">
        <ele>392</ele>
        <time>2020-02-07T13:06:07.000Z</time>
      </trkpt>
      <trkpt lat="44.76917" lon="5.04602">
        <ele>392</ele>
        <time>2020-02-07T13:06:08.000Z</time>
      </trkpt>
      <trkpt lat="44.76917" lon="5.04602">
        <ele>392</ele>
        <time>2020-02-07T13:06:09.000Z</time>
      </trkpt>
      <trkpt lat="44.76917" lon="5.04602">
        <ele>392</ele>
        <time>2020-02-07T13:06:10.000Z</time>
      </trkpt>
      <trkpt lat="44.76917" lon="5.04602">
        <ele>392</ele>
        <time>2020-02-07T13:06:11.000Z</time>
      </trkpt>
      <trkpt lat="44.76917" lon="5.04602">
        <ele>392</ele>
        <time>2020-02-07T13:06:12.000Z</time>
      </trkpt>
      <trkpt lat="44.76917" lon="5.04602">
        <ele>392</ele>
        <time>2020-02-07T13:06:13.000Z</time>
      </trkpt>
      <trkpt lat="44.76917" lon="5.04602">
        <ele>392</ele>
        <time>2020-02-07T13:06:14.000Z</time>
      </trkpt>
      <trkpt lat="44.76917" lon="5.04602">
        <ele>392</ele>
        <time>2020-02-07T13:06:15.000Z</time>
      </trkpt>
      <trkpt lat="44.76917" lon="5.04602">
        <ele>392</ele>
        <time>2020-02-07T13:06:16.000Z</time>
      </trkpt>
      <trkpt lat="44.76917" lon="5.04602">
        <ele>392</ele>
        <time>2020-02-07T13:06:17.000Z</time>
      </trkpt>
      <trkpt lat="44.76917" lon="5.04601">
        <ele>392</ele>
        <time>2020-02-07T13:06:18.000Z</time>
      </trkpt>
      <trkpt lat="44.76917" lon="5.04601">
        <ele>392</ele>
        <time>2020-02-07T13:06:19.000Z</time>
      </trkpt>
      <trkpt lat="44.76917" lon="5.04601">
        <ele>392</ele>
        <time>2020-02-07T13:06:20.000Z</time>
      </trkpt>
      <trkpt lat="44.76917" lon="5.04601">
        <ele>392</ele>
        <time>2020-02-07T13:06:21.000Z</time>
      </trkpt>
      <trkpt lat="44.76917" lon="5.04601">
        <ele>392</ele>
        <time>2020-02-07T13:06:22.000Z</time>
      </trkpt>
      <trkpt lat="44.76917" lon="5.04601">
        <ele>392</ele>
        <time>2020-02-07T13:06:23.000Z</time>
      </trkpt>
      <trkpt lat="44.76917" lon="5.04601">
        <ele>392</ele>
        <time>2020-02-07T13:06:24.000Z</time>
      </trkpt>
      <trkpt lat="44.76917" lon="5.04601">
        <ele>392</ele>
        <time>2020-02-07T13:06:25.000Z</time>
      </trkpt>
      <trkpt lat="44.76917" lon="5.04601">
        <ele>392</ele>
        <time>2020-02-07T13:06:26.000Z</time>
      </trkpt>
      <trkpt lat="44.76917" lon="5.04601">
        <ele>392</ele>
        <time>2020-02-07T13:06:27.000Z</time>
      </trkpt>
      <trkpt lat="44.76917" lon="5.04601">
        <ele>392</ele>
        <time>2020-02-07T13:06:28.000Z</time>
      </trkpt>
      <trkpt lat="44.76917" lon="5.04601">
        <ele>392</ele>
        <time>2020-02-07T13:06:29.000Z</time>
      </trkpt>
      <trkpt lat="44.76917" lon="5.04601">
        <ele>392</ele>
        <time>2020-02-07T13:06:30.000Z</time>
      </trkpt>
      <trkpt lat="44.76917" lon="5.04601">
        <ele>392</ele>
        <time>2020-02-07T13:06:31.000Z</time>
      </trkpt>
      <trkpt lat="44.76917" lon="5.04601">
        <ele>392</ele>
        <time>2020-02-07T13:06:32.000Z</time>
      </trkpt>
      <trkpt lat="44.76917" lon="5.04601">
        <ele>392</ele>
        <time>2020-02-07T13:06:33.000Z</time>
      </trkpt>
      <trkpt lat="44.76917" lon="5.04601">
        <ele>392</ele>
        <time>2020-02-07T13:06:34.000Z</time>
      </trkpt>
      <trkpt lat="44.76917" lon="5.04601">
        <ele>392</ele>
        <time>2020-02-07T13:06:35.000Z</time>
      </trkpt>
      <trkpt lat="44.76917" lon="5.04601">
        <ele>392</ele>
        <time>2020-02-07T13:06:36.000Z</time>
      </trkpt>
      <trkpt lat="44.76917" lon="5.04601">
        <ele>392</ele>
        <time>2020-02-07T13:06:37.000Z</time>
      </trkpt>
      <trkpt lat="44.76917" lon="5.04601">
        <ele>392</ele>
        <time>2020-02-07T13:06:38.000Z</time>
      </trkpt>
      <trkpt lat="44.76917" lon="5.04601">
        <ele>392</ele>
        <time>2020-02-07T13:06:39.000Z</time>
      </trkpt>
      <trkpt lat="44.76917" lon="5.04601">
        <ele>392</ele>
        <time>2020-02-07T13:06:40.000Z</time>
      </trkpt>
      <trkpt lat="44.76917" lon="5.04601">
        <ele>392</ele>
        <time>2020-02-07T13:06:41.000Z</time>
      </trkpt>
      <trkpt lat="44.76917" lon="5.04601">
        <ele>392</ele>
        <time>2020-02-07T13:06:42.000Z</time>
      </trkpt>
      <trkpt lat="44.76917" lon="5.04601">
        <ele>392</ele>
        <time>2020-02-07T13:06:43.000Z</time>
      </trkpt>
      <trkpt lat="44.76917" lon="5.04601">
        <ele>392</ele>
        <time>2020-02-07T13:06:44.000Z</time>
      </trkpt>
      <trkpt lat="44.76917" lon="5.04601">
        <ele>392</ele>
        <time>2020-02-07T13:06:45.000Z</time>
      </trkpt>
      <trkpt lat="44.76917" lon="5.04601">
        <ele>392</ele>
        <time>2020-02-07T13:06:46.000Z</time>
      </trkpt>
      <trkpt lat="44.76917" lon="5.04601">
        <ele>393</ele>
        <time>2020-02-07T13:06:47.000Z</time>
      </trkpt>
      <trkpt lat="44.76917" lon="5.04601">
        <ele>393</ele>
        <time>2020-02-07T13:06:48.000Z</time>
      </trkpt>
      <trkpt lat="44.76917" lon="5.04601">
        <ele>393</ele>
        <time>2020-02-07T13:06:49.000Z</time>
      </trkpt>
      <trkpt lat="44.76917" lon="5.04601">
        <ele>393</ele>
        <time>2020-02-07T13:06:50.000Z</time>
      </trkpt>
      <trkpt lat="44.76917" lon="5.04601">
        <ele>393</ele>
        <time>2020-02-07T13:06:51.000Z</time>
      </trkpt>
      <trkpt lat="44.76917" lon="5.04601">
        <ele>393</ele>
        <time>2020-02-07T13:06:52.000Z</time>
      </trkpt>
      <trkpt lat="44.76917" lon="5.04601">
        <ele>393</ele>
        <time>2020-02-07T13:06:53.000Z</time>
      </trkpt>
      <trkpt lat="44.76917" lon="5.04601">
        <ele>393</ele>
        <time>2020-02-07T13:06:54.000Z</time>
      </trkpt>
      <trkpt lat="44.76917" lon="5.04601">
        <ele>393</ele>
        <time>2020-02-07T13:06:55.000Z</time>
      </trkpt>
      <trkpt lat="44.76917" lon="5.04601">
        <ele>393</ele>
        <time>2020-02-07T13:06:56.000Z</time>
      </trkpt>
      <trkpt lat="44.76917" lon="5.04601">
        <ele>393</ele>
        <time>2020-02-07T13:06:57.000Z</time>
      </trkpt>
      <trkpt lat="44.76917" lon="5.04602">
        <ele>393</ele>
        <time>2020-02-07T13:06:58.000Z</time>
      </trkpt>
      <trkpt lat="44.76917" lon="5.04602">
        <ele>393</ele>
        <time>2020-02-07T13:06:59.000Z</time>
      </trkpt>
      <trkpt lat="44.76916" lon="5.04602">
        <ele>393</ele>
        <time>2020-02-07T13:07:00.000Z</time>
      </trkpt>
      <trkpt lat="44.76915" lon="5.04603">
        <ele>393</ele>
        <time>2020-02-07T13:07:01.000Z</time>
      </trkpt>
      <trkpt lat="44.76915" lon="5.04603">
        <ele>392</ele>
        <time>2020-02-07T13:07:02.000Z</time>
      </trkpt>
      <trkpt lat="44.76914" lon="5.04604">
        <ele>392</ele>
        <time>2020-02-07T13:07:03.000Z</time>
      </trkpt>
      <trkpt lat="44.76913" lon="5.04605">
        <ele>392</ele>
        <time>2020-02-07T13:07:04.000Z</time>
      </trkpt>
      <trkpt lat="44.76912" lon="5.04606">
        <ele>392</ele>
        <time>2020-02-07T13:07:05.000Z</time>
      </trkpt>
      <trkpt lat="44.76911" lon="5.04606">
        <ele>392</ele>
        <time>2020-02-07T13:07:06.000Z</time>
      </trkpt>
      <trkpt lat="44.7691" lon="5.04607">
        <ele>392</ele>
        <time>2020-02-07T13:07:07.000Z</time>
      </trkpt>
      <trkpt lat="44.7691" lon="5.04608">
        <ele>392</ele>
        <time>2020-02-07T13:07:08.000Z</time>
      </trkpt>
      <trkpt lat="44.76909" lon="5.04609">
        <ele>392</ele>
        <time>2020-02-07T13:07:09.000Z</time>
      </trkpt>
      <trkpt lat="44.76908" lon="5.04609">
        <ele>392</ele>
        <time>2020-02-07T13:07:10.000Z</time>
      </trkpt>
      <trkpt lat="44.76906" lon="5.0461">
        <ele>392</ele>
        <time>2020-02-07T13:07:11.000Z</time>
      </trkpt>
      <trkpt lat="44.76905" lon="5.0461">
        <ele>392</ele>
        <time>2020-02-07T13:07:12.000Z</time>
      </trkpt>
      <trkpt lat="44.76904" lon="5.04611">
        <ele>392</ele>
        <time>2020-02-07T13:07:13.000Z</time>
      </trkpt>
      <trkpt lat="44.76904" lon="5.04611">
        <ele>392</ele>
        <time>2020-02-07T13:07:14.000Z</time>
      </trkpt>
      <trkpt lat="44.76903" lon="5.04612">
        <ele>393</ele>
        <time>2020-02-07T13:07:15.000Z</time>
      </trkpt>
      <trkpt lat="44.76902" lon="5.04613">
        <ele>393</ele>
        <time>2020-02-07T13:07:16.000Z</time>
      </trkpt>
      <trkpt lat="44.76901" lon="5.04613">
        <ele>393</ele>
        <time>2020-02-07T13:07:17.000Z</time>
      </trkpt>
      <trkpt lat="44.769" lon="5.04614">
        <ele>393</ele>
        <time>2020-02-07T13:07:18.000Z</time>
      </trkpt>
      <trkpt lat="44.76899" lon="5.04615">
        <ele>393</ele>
        <time>2020-02-07T13:07:19.000Z</time>
      </trkpt>
      <trkpt lat="44.76898" lon="5.04615">
        <ele>393</ele>
        <time>2020-02-07T13:07:20.000Z</time>
      </trkpt>
      <trkpt lat="44.76897" lon="5.04616">
        <ele>393</ele>
        <time>2020-02-07T13:07:21.000Z</time>
      </trkpt>
      <trkpt lat="44.76897" lon="5.04616">
        <ele>393</ele>
        <time>2020-02-07T13:07:22.000Z</time>
      </trkpt>
      <trkpt lat="44.76896" lon="5.04617">
        <ele>393</ele>
        <time>2020-02-07T13:07:23.000Z</time>
      </trkpt>
      <trkpt lat="44.76895" lon="5.04618">
        <ele>393</ele>
        <time>2020-02-07T13:07:24.000Z</time>
      </trkpt>
      <trkpt lat="44.76894" lon="5.04618">
        <ele>393</ele>
        <time>2020-02-07T13:07:25.000Z</time>
      </trkpt>
      <trkpt lat="44.76893" lon="5.04619">
        <ele>393</ele>
        <time>2020-02-07T13:07:26.000Z</time>
      </trkpt>
      <trkpt lat="44.76893" lon="5.04619">
        <ele>393</ele>
        <time>2020-02-07T13:07:27.000Z</time>
      </trkpt>
      <trkpt lat="44.76892" lon="5.04619">
        <ele>393</ele>
        <time>2020-02-07T13:07:28.000Z</time>
      </trkpt>
      <trkpt lat="44.76892" lon="5.04619">
        <ele>393</ele>
        <time>2020-02-07T13:07:29.000Z</time>
      </trkpt>
      <trkpt lat="44.76892" lon="5.04619">
        <ele>393</ele>
        <time>2020-02-07T13:07:30.000Z</time>
      </trkpt>
      <trkpt lat="44.76892" lon="5.04619">
        <ele>393</ele>
        <time>2020-02-07T13:07:31.000Z</time>
      </trkpt>
      <trkpt lat="44.76891" lon="5.04619">
        <ele>393</ele>
        <time>2020-02-07T13:07:32.000Z</time>
      </trkpt>
      <trkpt lat="44.76891" lon="5.04619">
        <ele>393</ele>
        <time>2020-02-07T13:07:33.000Z</time>
      </trkpt>
      <trkpt lat="44.76891" lon="5.04619">
        <ele>393</ele>
        <time>2020-02-07T13:07:34.000Z</time>
      </trkpt>
      <trkpt lat="44.76891" lon="5.04619">
        <ele>393</ele>
        <time>2020-02-07T13:07:35.000Z</time>
      </trkpt>
      <trkpt lat="44.76891" lon="5.04619">
        <ele>393</ele>
        <time>2020-02-07T13:07:36.000Z</time>
      </trkpt>
      <trkpt lat="44.76891" lon="5.04619">
        <ele>393</ele>
        <time>2020-02-07T13:07:37.000Z</time>
      </trkpt>
      <trkpt lat="44.76891" lon="5.04619">
        <ele>393</ele>
        <time>2020-02-07T13:07:38.000Z</time>
      </trkpt>
      <trkpt lat="44.76891" lon="5.04619">
        <ele>393</ele>
        <time>2020-02-07T13:07:39.000Z</time>
      </trkpt>
      <trkpt lat="44.76891" lon="5.04619">
        <ele>393</ele>
        <time>2020-02-07T13:07:40.000Z</time>
      </trkpt>
      <trkpt lat="44.76891" lon="5.0462">
        <ele>393</ele>
        <time>2020-02-07T13:07:41.000Z</time>
      </trkpt>
      <trkpt lat="44.76891" lon="5.0462">
        <ele>393</ele>
        <time>2020-02-07T13:07:42.000Z</time>
      </trkpt>
      <trkpt lat="44.7689" lon="5.0462">
        <ele>393</ele>
        <time>2020-02-07T13:07:43.000Z</time>
      </trkpt>
      <trkpt lat="44.76889" lon="5.0462">
        <ele>393</ele>
        <time>2020-02-07T13:07:44.000Z</time>
      </trkpt>
      <trkpt lat="44.76889" lon="5.0462">
        <ele>393</ele>
        <time>2020-02-07T13:07:45.000Z</time>
      </trkpt>
      <trkpt lat="44.76888" lon="5.04621">
        <ele>393</ele>
        <time>2020-02-07T13:07:46.000Z</time>
      </trkpt>
      <trkpt lat="44.76888" lon="5.04621">
        <ele>393</ele>
        <time>2020-02-07T13:07:47.000Z</time>
      </trkpt>
      <trkpt lat="44.76887" lon="5.04622">
        <ele>393</ele>
        <time>2020-02-07T13:07:48.000Z</time>
      </trkpt>
      <trkpt lat="44.76886" lon="5.04623">
        <ele>393</ele>
        <time>2020-02-07T13:07:49.000Z</time>
      </trkpt>
      <trkpt lat="44.76886" lon="5.04623">
        <ele>393</ele>
        <time>2020-02-07T13:07:50.000Z</time>
      </trkpt>
      <trkpt lat="44.76886" lon="5.04622">
        <ele>393</ele>
        <time>2020-02-07T13:07:51.000Z</time>
      </trkpt>
      <trkpt lat="44.76885" lon="5.04622">
        <ele>393</ele>
        <time>2020-02-07T13:07:52.000Z</time>
      </trkpt>
      <trkpt lat="44.76885" lon="5.04622">
        <ele>393</ele>
        <time>2020-02-07T13:07:53.000Z</time>
      </trkpt>
      <trkpt lat="44.76884" lon="5.04622">
        <ele>392</ele>
        <time>2020-02-07T13:07:54.000Z</time>
      </trkpt>
      <trkpt lat="44.76883" lon="5.04623">
        <ele>392</ele>
        <time>2020-02-07T13:07:55.000Z</time>
      </trkpt>
      <trkpt lat="44.76882" lon="5.04622">
        <ele>392</ele>
        <time>2020-02-07T13:07:56.000Z</time>
      </trkpt>
      <trkpt lat="44.76881" lon="5.04623">
        <ele>392</ele>
        <time>2020-02-07T13:07:57.000Z</time>
      </trkpt>
      <trkpt lat="44.7688" lon="5.04623">
        <ele>392</ele>
        <time>2020-02-07T13:07:58.000Z</time>
      </trkpt>
      <trkpt lat="44.76879" lon="5.04623">
        <ele>392</ele>
        <time>2020-02-07T13:07:59.000Z</time>
      </trkpt>
      <trkpt lat="44.76878" lon="5.04623">
        <ele>392</ele>
        <time>2020-02-07T13:08:00.000Z</time>
      </trkpt>
      <trkpt lat="44.76877" lon="5.04623">
        <ele>392</ele>
        <time>2020-02-07T13:08:01.000Z</time>
      </trkpt>
      <trkpt lat="44.76876" lon="5.04623">
        <ele>391</ele>
        <time>2020-02-07T13:08:02.000Z</time>
      </trkpt>
      <trkpt lat="44.76874" lon="5.04624">
        <ele>391</ele>
        <time>2020-02-07T13:08:03.000Z</time>
      </trkpt>
      <trkpt lat="44.76873" lon="5.04624">
        <ele>391</ele>
        <time>2020-02-07T13:08:04.000Z</time>
      </trkpt>
      <trkpt lat="44.76872" lon="5.04624">
        <ele>391</ele>
        <time>2020-02-07T13:08:05.000Z</time>
      </trkpt>
      <trkpt lat="44.76871" lon="5.04625">
        <ele>391</ele>
        <time>2020-02-07T13:08:06.000Z</time>
      </trkpt>
      <trkpt lat="44.7687" lon="5.04625">
        <ele>391</ele>
        <time>2020-02-07T13:08:07.000Z</time>
      </trkpt>
      <trkpt lat="44.76869" lon="5.04625">
        <ele>391</ele>
        <time>2020-02-07T13:08:08.000Z</time>
      </trkpt>
      <trkpt lat="44.76868" lon="5.04625">
        <ele>391</ele>
        <time>2020-02-07T13:08:09.000Z</time>
      </trkpt>
      <trkpt lat="44.76866" lon="5.04625">
        <ele>391</ele>
        <time>2020-02-07T13:08:10.000Z</time>
      </trkpt>
      <trkpt lat="44.76865" lon="5.04625">
        <ele>391</ele>
        <time>2020-02-07T13:08:11.000Z</time>
      </trkpt>
      <trkpt lat="44.76864" lon="5.04626">
        <ele>391</ele>
        <time>2020-02-07T13:08:12.000Z</time>
      </trkpt>
      <trkpt lat="44.76862" lon="5.04626">
        <ele>391</ele>
        <time>2020-02-07T13:08:13.000Z</time>
      </trkpt>
      <trkpt lat="44.76861" lon="5.04627">
        <ele>391</ele>
        <time>2020-02-07T13:08:14.000Z</time>
      </trkpt>
      <trkpt lat="44.7686" lon="5.04627">
        <ele>391</ele>
        <time>2020-02-07T13:08:15.000Z</time>
      </trkpt>
      <trkpt lat="44.76859" lon="5.04628">
        <ele>391</ele>
        <time>2020-02-07T13:08:16.000Z</time>
      </trkpt>
      <trkpt lat="44.76857" lon="5.04628">
        <ele>391</ele>
        <time>2020-02-07T13:08:17.000Z</time>
      </trkpt>
      <trkpt lat="44.76856" lon="5.04628">
        <ele>391</ele>
        <time>2020-02-07T13:08:18.000Z</time>
      </trkpt>
      <trkpt lat="44.76854" lon="5.04628">
        <ele>392</ele>
        <time>2020-02-07T13:08:19.000Z</time>
      </trkpt>
      <trkpt lat="44.76853" lon="5.04628">
        <ele>392</ele>
        <time>2020-02-07T13:08:20.000Z</time>
      </trkpt>
      <trkpt lat="44.76852" lon="5.04628">
        <ele>392</ele>
        <time>2020-02-07T13:08:21.000Z</time>
      </trkpt>
      <trkpt lat="44.76851" lon="5.04629">
        <ele>392</ele>
        <time>2020-02-07T13:08:22.000Z</time>
      </trkpt>
      <trkpt lat="44.7685" lon="5.04629">
        <ele>392</ele>
        <time>2020-02-07T13:08:23.000Z</time>
      </trkpt>
      <trkpt lat="44.76849" lon="5.04629">
        <ele>392</ele>
        <time>2020-02-07T13:08:24.000Z</time>
      </trkpt>
      <trkpt lat="44.76848" lon="5.0463">
        <ele>392</ele>
        <time>2020-02-07T13:08:25.000Z</time>
      </trkpt>
      <trkpt lat="44.76847" lon="5.0463">
        <ele>392</ele>
        <time>2020-02-07T13:08:26.000Z</time>
      </trkpt>
      <trkpt lat="44.76846" lon="5.0463">
        <ele>392</ele>
        <time>2020-02-07T13:08:27.000Z</time>
      </trkpt>
      <trkpt lat="44.76845" lon="5.0463">
        <ele>392</ele>
        <time>2020-02-07T13:08:28.000Z</time>
      </trkpt>
      <trkpt lat="44.76843" lon="5.0463">
        <ele>392</ele>
        <time>2020-02-07T13:08:29.000Z</time>
      </trkpt>
      <trkpt lat="44.76841" lon="5.0463">
        <ele>392</ele>
        <time>2020-02-07T13:08:30.000Z</time>
      </trkpt>
      <trkpt lat="44.7684" lon="5.0463">
        <ele>392</ele>
        <time>2020-02-07T13:08:31.000Z</time>
      </trkpt>
      <trkpt lat="44.76839" lon="5.0463">
        <ele>392</ele>
        <time>2020-02-07T13:08:32.000Z</time>
      </trkpt>
      <trkpt lat="44.76838" lon="5.0463">
        <ele>392</ele>
        <time>2020-02-07T13:08:33.000Z</time>
      </trkpt>
      <trkpt lat="44.76836" lon="5.0463">
        <ele>392</ele>
        <time>2020-02-07T13:08:34.000Z</time>
      </trkpt>
      <trkpt lat="44.76835" lon="5.0463">
        <ele>392</ele>
        <time>2020-02-07T13:08:35.000Z</time>
      </trkpt>
      <trkpt lat="44.76834" lon="5.0463">
        <ele>392</ele>
        <time>2020-02-07T13:08:36.000Z</time>
      </trkpt>
      <trkpt lat="44.76832" lon="5.0463">
        <ele>392</ele>
        <time>2020-02-07T13:08:37.000Z</time>
      </trkpt>
      <trkpt lat="44.76831" lon="5.0463">
        <ele>392</ele>
        <time>2020-02-07T13:08:38.000Z</time>
      </trkpt>
      <trkpt lat="44.7683" lon="5.0463">
        <ele>392</ele>
        <time>2020-02-07T13:08:39.000Z</time>
      </trkpt>
      <trkpt lat="44.76828" lon="5.0463">
        <ele>392</ele>
        <time>2020-02-07T13:08:40.000Z</time>
      </trkpt>
      <trkpt lat="44.76827" lon="5.0463">
        <ele>392</ele>
        <time>2020-02-07T13:08:41.000Z</time>
      </trkpt>
      <trkpt lat="44.76825" lon="5.04631">
        <ele>392</ele>
        <time>2020-02-07T13:08:42.000Z</time>
      </trkpt>
      <trkpt lat="44.76823" lon="5.04631">
        <ele>392</ele>
        <time>2020-02-07T13:08:43.000Z</time>
      </trkpt>
      <trkpt lat="44.76822" lon="5.04631">
        <ele>392</ele>
        <time>2020-02-07T13:08:44.000Z</time>
      </trkpt>
      <trkpt lat="44.76821" lon="5.04631">
        <ele>392</ele>
        <time>2020-02-07T13:08:45.000Z</time>
      </trkpt>
      <trkpt lat="44.76819" lon="5.04631">
        <ele>393</ele>
        <time>2020-02-07T13:08:46.000Z</time>
      </trkpt>
      <trkpt lat="44.76818" lon="5.0463">
        <ele>393</ele>
        <time>2020-02-07T13:08:47.000Z</time>
      </trkpt>
      <trkpt lat="44.76817" lon="5.0463">
        <ele>393</ele>
        <time>2020-02-07T13:08:48.000Z</time>
      </trkpt>
      <trkpt lat="44.76816" lon="5.0463">
        <ele>393</ele>
        <time>2020-02-07T13:08:49.000Z</time>
      </trkpt>
      <trkpt lat="44.76815" lon="5.0463">
        <ele>393</ele>
        <time>2020-02-07T13:08:50.000Z</time>
      </trkpt>
      <trkpt lat="44.76813" lon="5.0463">
        <ele>393</ele>
        <time>2020-02-07T13:08:51.000Z</time>
      </trkpt>
      <trkpt lat="44.76812" lon="5.0463">
        <ele>393</ele>
        <time>2020-02-07T13:08:52.000Z</time>
      </trkpt>
      <trkpt lat="44.7681" lon="5.04631">
        <ele>394</ele>
        <time>2020-02-07T13:08:53.000Z</time>
      </trkpt>
      <trkpt lat="44.76809" lon="5.04631">
        <ele>394</ele>
        <time>2020-02-07T13:08:54.000Z</time>
      </trkpt>
      <trkpt lat="44.76807" lon="5.04631">
        <ele>394</ele>
        <time>2020-02-07T13:08:55.000Z</time>
      </trkpt>
      <trkpt lat="44.76806" lon="5.04631">
        <ele>394</ele>
        <time>2020-02-07T13:08:56.000Z</time>
      </trkpt>
      <trkpt lat="44.76805" lon="5.04631">
        <ele>394</ele>
        <time>2020-02-07T13:08:57.000Z</time>
      </trkpt>
      <trkpt lat="44.76804" lon="5.04632">
        <ele>394</ele>
        <time>2020-02-07T13:08:58.000Z</time>
      </trkpt>
      <trkpt lat="44.76802" lon="5.04632">
        <ele>394</ele>
        <time>2020-02-07T13:08:59.000Z</time>
      </trkpt>
      <trkpt lat="44.76801" lon="5.04633">
        <ele>394</ele>
        <time>2020-02-07T13:09:00.000Z</time>
      </trkpt>
      <trkpt lat="44.768" lon="5.04634">
        <ele>394</ele>
        <time>2020-02-07T13:09:01.000Z</time>
      </trkpt>
      <trkpt lat="44.76799" lon="5.04635">
        <ele>394</ele>
        <time>2020-02-07T13:09:02.000Z</time>
      </trkpt>
      <trkpt lat="44.76797" lon="5.04635">
        <ele>394</ele>
        <time>2020-02-07T13:09:03.000Z</time>
      </trkpt>
      <trkpt lat="44.76796" lon="5.04635">
        <ele>394</ele>
        <time>2020-02-07T13:09:04.000Z</time>
      </trkpt>
      <trkpt lat="44.76795" lon="5.04635">
        <ele>394</ele>
        <time>2020-02-07T13:09:05.000Z</time>
      </trkpt>
      <trkpt lat="44.76794" lon="5.04636">
        <ele>394</ele>
        <time>2020-02-07T13:09:06.000Z</time>
      </trkpt>
      <trkpt lat="44.76793" lon="5.04636">
        <ele>394</ele>
        <time>2020-02-07T13:09:07.000Z</time>
      </trkpt>
      <trkpt lat="44.76791" lon="5.04637">
        <ele>394</ele>
        <time>2020-02-07T13:09:08.000Z</time>
      </trkpt>
      <trkpt lat="44.7679" lon="5.04637">
        <ele>394</ele>
        <time>2020-02-07T13:09:09.000Z</time>
      </trkpt>
      <trkpt lat="44.76789" lon="5.04638">
        <ele>394</ele>
        <time>2020-02-07T13:09:10.000Z</time>
      </trkpt>
      <trkpt lat="44.76788" lon="5.04638">
        <ele>394</ele>
        <time>2020-02-07T13:09:11.000Z</time>
      </trkpt>
      <trkpt lat="44.76787" lon="5.04639">
        <ele>394</ele>
        <time>2020-02-07T13:09:12.000Z</time>
      </trkpt>
      <trkpt lat="44.76785" lon="5.04639">
        <ele>394</ele>
        <time>2020-02-07T13:09:13.000Z</time>
      </trkpt>
      <trkpt lat="44.76784" lon="5.0464">
        <ele>394</ele>
        <time>2020-02-07T13:09:14.000Z</time>
      </trkpt>
      <trkpt lat="44.76782" lon="5.0464">
        <ele>394</ele>
        <time>2020-02-07T13:09:15.000Z</time>
      </trkpt>
      <trkpt lat="44.76781" lon="5.04641">
        <ele>394</ele>
        <time>2020-02-07T13:09:16.000Z</time>
      </trkpt>
      <trkpt lat="44.7678" lon="5.04641">
        <ele>394</ele>
        <time>2020-02-07T13:09:17.000Z</time>
      </trkpt>
      <trkpt lat="44.76778" lon="5.04641">
        <ele>394</ele>
        <time>2020-02-07T13:09:18.000Z</time>
      </trkpt>
      <trkpt lat="44.76778" lon="5.04642">
        <ele>394</ele>
        <time>2020-02-07T13:09:19.000Z</time>
      </trkpt>
      <trkpt lat="44.76776" lon="5.04642">
        <ele>394</ele>
        <time>2020-02-07T13:09:20.000Z</time>
      </trkpt>
      <trkpt lat="44.76775" lon="5.04643">
        <ele>394</ele>
        <time>2020-02-07T13:09:21.000Z</time>
      </trkpt>
      <trkpt lat="44.76774" lon="5.04643">
        <ele>394</ele>
        <time>2020-02-07T13:09:22.000Z</time>
      </trkpt>
      <trkpt lat="44.76773" lon="5.04643">
        <ele>394</ele>
        <time>2020-02-07T13:09:23.000Z</time>
      </trkpt>
      <trkpt lat="44.76771" lon="5.04644">
        <ele>394</ele>
        <time>2020-02-07T13:09:24.000Z</time>
      </trkpt>
      <trkpt lat="44.7677" lon="5.04644">
        <ele>394</ele>
        <time>2020-02-07T13:09:25.000Z</time>
      </trkpt>
      <trkpt lat="44.76768" lon="5.04644">
        <ele>394</ele>
        <time>2020-02-07T13:09:26.000Z</time>
      </trkpt>
      <trkpt lat="44.76766" lon="5.04644">
        <ele>394</ele>
        <time>2020-02-07T13:09:27.000Z</time>
      </trkpt>
      <trkpt lat="44.76765" lon="5.04644">
        <ele>394</ele>
        <time>2020-02-07T13:09:28.000Z</time>
      </trkpt>
      <trkpt lat="44.76764" lon="5.04645">
        <ele>394</ele>
        <time>2020-02-07T13:09:29.000Z</time>
      </trkpt>
      <trkpt lat="44.76763" lon="5.04646">
        <ele>394</ele>
        <time>2020-02-07T13:09:30.000Z</time>
      </trkpt>
      <trkpt lat="44.76761" lon="5.04646">
        <ele>394</ele>
        <time>2020-02-07T13:09:31.000Z</time>
      </trkpt>
      <trkpt lat="44.7676" lon="5.04647">
        <ele>394</ele>
        <time>2020-02-07T13:09:32.000Z</time>
      </trkpt>
      <trkpt lat="44.7676" lon="5.04648">
        <ele>394</ele>
        <time>2020-02-07T13:09:33.000Z</time>
      </trkpt>
      <trkpt lat="44.76759" lon="5.04648">
        <ele>394</ele>
        <time>2020-02-07T13:09:34.000Z</time>
      </trkpt>
      <trkpt lat="44.76758" lon="5.04648">
        <ele>394</ele>
        <time>2020-02-07T13:09:35.000Z</time>
      </trkpt>
      <trkpt lat="44.76758" lon="5.04648">
        <ele>394</ele>
        <time>2020-02-07T13:09:36.000Z</time>
      </trkpt>
      <trkpt lat="44.76758" lon="5.04648">
        <ele>394</ele>
        <time>2020-02-07T13:09:37.000Z</time>
      </trkpt>
      <trkpt lat="44.76758" lon="5.04647">
        <ele>394</ele>
        <time>2020-02-07T13:09:38.000Z</time>
      </trkpt>
      <trkpt lat="44.76758" lon="5.04647">
        <ele>394</ele>
        <time>2020-02-07T13:09:39.000Z</time>
      </trkpt>
      <trkpt lat="44.76759" lon="5.04648">
        <ele>394</ele>
        <time>2020-02-07T13:09:40.000Z</time>
      </trkpt>
      <trkpt lat="44.76759" lon="5.04648">
        <ele>394</ele>
        <time>2020-02-07T13:09:41.000Z</time>
      </trkpt>
      <trkpt lat="44.7676" lon="5.04648">
        <ele>394</ele>
        <time>2020-02-07T13:09:42.000Z</time>
      </trkpt>
      <trkpt lat="44.76761" lon="5.04648">
        <ele>394</ele>
        <time>2020-02-07T13:09:43.000Z</time>
      </trkpt>
      <trkpt lat="44.76761" lon="5.04649">
        <ele>394</ele>
        <time>2020-02-07T13:09:44.000Z</time>
      </trkpt>
      <trkpt lat="44.76762" lon="5.04648">
        <ele>393</ele>
        <time>2020-02-07T13:09:45.000Z</time>
      </trkpt>
      <trkpt lat="44.76762" lon="5.04649">
        <ele>393</ele>
        <time>2020-02-07T13:09:46.000Z</time>
      </trkpt>
      <trkpt lat="44.76762" lon="5.04649">
        <ele>393</ele>
        <time>2020-02-07T13:09:47.000Z</time>
      </trkpt>
      <trkpt lat="44.76762" lon="5.04649">
        <ele>393</ele>
        <time>2020-02-07T13:09:48.000Z</time>
      </trkpt>
      <trkpt lat="44.76762" lon="5.04648">
        <ele>393</ele>
        <time>2020-02-07T13:09:49.000Z</time>
      </trkpt>
      <trkpt lat="44.76762" lon="5.04648">
        <ele>393</ele>
        <time>2020-02-07T13:09:50.000Z</time>
      </trkpt>
      <trkpt lat="44.76762" lon="5.04648">
        <ele>393</ele>
        <time>2020-02-07T13:09:51.000Z</time>
      </trkpt>
      <trkpt lat="44.76762" lon="5.04648">
        <ele>393</ele>
        <time>2020-02-07T13:09:52.000Z</time>
      </trkpt>
      <trkpt lat="44.76762" lon="5.04648">
        <ele>393</ele>
        <time>2020-02-07T13:09:53.000Z</time>
      </trkpt>
      <trkpt lat="44.76762" lon="5.04648">
        <ele>393</ele>
        <time>2020-02-07T13:09:54.000Z</time>
      </trkpt>
      <trkpt lat="44.76763" lon="5.04648">
        <ele>393</ele>
        <time>2020-02-07T13:09:55.000Z</time>
      </trkpt>
      <trkpt lat="44.76763" lon="5.04648">
        <ele>393</ele>
        <time>2020-02-07T13:09:56.000Z</time>
      </trkpt>
      <trkpt lat="44.76763" lon="5.04648">
        <ele>393</ele>
        <time>2020-02-07T13:09:57.000Z</time>
      </trkpt>
      <trkpt lat="44.76763" lon="5.04648">
        <ele>393</ele>
        <time>2020-02-07T13:09:58.000Z</time>
      </trkpt>
      <trkpt lat="44.76762" lon="5.04648">
        <ele>393</ele>
        <time>2020-02-07T13:09:59.000Z</time>
      </trkpt>
      <trkpt lat="44.76762" lon="5.04648">
        <ele>392</ele>
        <time>2020-02-07T13:10:00.000Z</time>
      </trkpt>
      <trkpt lat="44.76761" lon="5.04647">
        <ele>392</ele>
        <time>2020-02-07T13:10:01.000Z</time>
      </trkpt>
      <trkpt lat="44.7676" lon="5.04647">
        <ele>392</ele>
        <time>2020-02-07T13:10:02.000Z</time>
      </trkpt>
      <trkpt lat="44.76759" lon="5.04647">
        <ele>392</ele>
        <time>2020-02-07T13:10:03.000Z</time>
      </trkpt>
      <trkpt lat="44.76758" lon="5.04647">
        <ele>392</ele>
        <time>2020-02-07T13:10:04.000Z</time>
      </trkpt>
      <trkpt lat="44.76757" lon="5.04647">
        <ele>392</ele>
        <time>2020-02-07T13:10:05.000Z</time>
      </trkpt>
      <trkpt lat="44.76756" lon="5.04647">
        <ele>392</ele>
        <time>2020-02-07T13:10:06.000Z</time>
      </trkpt>
      <trkpt lat="44.76755" lon="5.04647">
        <ele>392</ele>
        <time>2020-02-07T13:10:07.000Z</time>
      </trkpt>
      <trkpt lat="44.76754" lon="5.04648">
        <ele>392</ele>
        <time>2020-02-07T13:10:08.000Z</time>
      </trkpt>
      <trkpt lat="44.76753" lon="5.04648">
        <ele>392</ele>
        <time>2020-02-07T13:10:09.000Z</time>
      </trkpt>
      <trkpt lat="44.76752" lon="5.04648">
        <ele>392</ele>
        <time>2020-02-07T13:10:10.000Z</time>
      </trkpt>
      <trkpt lat="44.76751" lon="5.04648">
        <ele>392</ele>
        <time>2020-02-07T13:10:11.000Z</time>
      </trkpt>
      <trkpt lat="44.7675" lon="5.04648">
        <ele>392</ele>
        <time>2020-02-07T13:10:12.000Z</time>
      </trkpt>
      <trkpt lat="44.7675" lon="5.04649">
        <ele>392</ele>
        <time>2020-02-07T13:10:13.000Z</time>
      </trkpt>
      <trkpt lat="44.76749" lon="5.04649">
        <ele>392</ele>
        <time>2020-02-07T13:10:14.000Z</time>
      </trkpt>
      <trkpt lat="44.76748" lon="5.0465">
        <ele>392</ele>
        <time>2020-02-07T13:10:15.000Z</time>
      </trkpt>
      <trkpt lat="44.76747" lon="5.0465">
        <ele>393</ele>
        <time>2020-02-07T13:10:16.000Z</time>
      </trkpt>
      <trkpt lat="44.76746" lon="5.0465">
        <ele>393</ele>
        <time>2020-02-07T13:10:17.000Z</time>
      </trkpt>
      <trkpt lat="44.76745" lon="5.0465">
        <ele>393</ele>
        <time>2020-02-07T13:10:18.000Z</time>
      </trkpt>
      <trkpt lat="44.76744" lon="5.04651">
        <ele>393</ele>
        <time>2020-02-07T13:10:19.000Z</time>
      </trkpt>
      <trkpt lat="44.76742" lon="5.04651">
        <ele>393</ele>
        <time>2020-02-07T13:10:20.000Z</time>
      </trkpt>
      <trkpt lat="44.76741" lon="5.04651">
        <ele>393</ele>
        <time>2020-02-07T13:10:21.000Z</time>
      </trkpt>
      <trkpt lat="44.7674" lon="5.04652">
        <ele>393</ele>
        <time>2020-02-07T13:10:22.000Z</time>
      </trkpt>
      <trkpt lat="44.76739" lon="5.04652">
        <ele>393</ele>
        <time>2020-02-07T13:10:23.000Z</time>
      </trkpt>
      <trkpt lat="44.76738" lon="5.04652">
        <ele>392</ele>
        <time>2020-02-07T13:10:24.000Z</time>
      </trkpt>
      <trkpt lat="44.76736" lon="5.04653">
        <ele>392</ele>
        <time>2020-02-07T13:10:25.000Z</time>
      </trkpt>
      <trkpt lat="44.76735" lon="5.04653">
        <ele>392</ele>
        <time>2020-02-07T13:10:26.000Z</time>
      </trkpt>
      <trkpt lat="44.76734" lon="5.04654">
        <ele>392</ele>
        <time>2020-02-07T13:10:27.000Z</time>
      </trkpt>
      <trkpt lat="44.76733" lon="5.04654">
        <ele>392</ele>
        <time>2020-02-07T13:10:28.000Z</time>
      </trkpt>
      <trkpt lat="44.76732" lon="5.04655">
        <ele>392</ele>
        <time>2020-02-07T13:10:29.000Z</time>
      </trkpt>
      <trkpt lat="44.76731" lon="5.04655">
        <ele>392</ele>
        <time>2020-02-07T13:10:30.000Z</time>
      </trkpt>
      <trkpt lat="44.76729" lon="5.04656">
        <ele>392</ele>
        <time>2020-02-07T13:10:31.000Z</time>
      </trkpt>
      <trkpt lat="44.76728" lon="5.04656">
        <ele>392</ele>
        <time>2020-02-07T13:10:32.000Z</time>
      </trkpt>
      <trkpt lat="44.76728" lon="5.04656">
        <ele>392</ele>
        <time>2020-02-07T13:10:33.000Z</time>
      </trkpt>
      <trkpt lat="44.76727" lon="5.04656">
        <ele>393</ele>
        <time>2020-02-07T13:10:34.000Z</time>
      </trkpt>
      <trkpt lat="44.76726" lon="5.04656">
        <ele>393</ele>
        <time>2020-02-07T13:10:35.000Z</time>
      </trkpt>
      <trkpt lat="44.76725" lon="5.04656">
        <ele>393</ele>
        <time>2020-02-07T13:10:36.000Z</time>
      </trkpt>
      <trkpt lat="44.76724" lon="5.04657">
        <ele>393</ele>
        <time>2020-02-07T13:10:37.000Z</time>
      </trkpt>
      <trkpt lat="44.76723" lon="5.04657">
        <ele>393</ele>
        <time>2020-02-07T13:10:38.000Z</time>
      </trkpt>
      <trkpt lat="44.76722" lon="5.04658">
        <ele>393</ele>
        <time>2020-02-07T13:10:39.000Z</time>
      </trkpt>
      <trkpt lat="44.76722" lon="5.04658">
        <ele>393</ele>
        <time>2020-02-07T13:10:40.000Z</time>
      </trkpt>
      <trkpt lat="44.76721" lon="5.04659">
        <ele>393</ele>
        <time>2020-02-07T13:10:41.000Z</time>
      </trkpt>
      <trkpt lat="44.7672" lon="5.04659">
        <ele>393</ele>
        <time>2020-02-07T13:10:42.000Z</time>
      </trkpt>
      <trkpt lat="44.76719" lon="5.04659">
        <ele>393</ele>
        <time>2020-02-07T13:10:43.000Z</time>
      </trkpt>
      <trkpt lat="44.76718" lon="5.0466">
        <ele>393</ele>
        <time>2020-02-07T13:10:44.000Z</time>
      </trkpt>
      <trkpt lat="44.76717" lon="5.0466">
        <ele>393</ele>
        <time>2020-02-07T13:10:45.000Z</time>
      </trkpt>
      <trkpt lat="44.76716" lon="5.0466">
        <ele>393</ele>
        <time>2020-02-07T13:10:46.000Z</time>
      </trkpt>
      <trkpt lat="44.76715" lon="5.0466">
        <ele>393</ele>
        <time>2020-02-07T13:10:47.000Z</time>
      </trkpt>
      <trkpt lat="44.76714" lon="5.0466">
        <ele>393</ele>
        <time>2020-02-07T13:10:48.000Z</time>
      </trkpt>
      <trkpt lat="44.76713" lon="5.0466">
        <ele>393</ele>
        <time>2020-02-07T13:10:49.000Z</time>
      </trkpt>
      <trkpt lat="44.76712" lon="5.04661">
        <ele>393</ele>
        <time>2020-02-07T13:10:50.000Z</time>
      </trkpt>
      <trkpt lat="44.76711" lon="5.04661">
        <ele>393</ele>
        <time>2020-02-07T13:10:51.000Z</time>
      </trkpt>
      <trkpt lat="44.76711" lon="5.0466">
        <ele>393</ele>
        <time>2020-02-07T13:10:52.000Z</time>
      </trkpt>
      <trkpt lat="44.76711" lon="5.0466">
        <ele>393</ele>
        <time>2020-02-07T13:10:53.000Z</time>
      </trkpt>
      <trkpt lat="44.76711" lon="5.0466">
        <ele>393</ele>
        <time>2020-02-07T13:10:54.000Z</time>
      </trkpt>
      <trkpt lat="44.76711" lon="5.0466">
        <ele>393</ele>
        <time>2020-02-07T13:10:55.000Z</time>
      </trkpt>
      <trkpt lat="44.7671" lon="5.0466">
        <ele>393</ele>
        <time>2020-02-07T13:10:56.000Z</time>
      </trkpt>
      <trkpt lat="44.7671" lon="5.0466">
        <ele>393</ele>
        <time>2020-02-07T13:10:57.000Z</time>
      </trkpt>
      <trkpt lat="44.7671" lon="5.0466">
        <ele>393</ele>
        <time>2020-02-07T13:10:58.000Z</time>
      </trkpt>
      <trkpt lat="44.7671" lon="5.0466">
        <ele>393</ele>
        <time>2020-02-07T13:10:59.000Z</time>
      </trkpt>
      <trkpt lat="44.7671" lon="5.0466">
        <ele>393</ele>
        <time>2020-02-07T13:11:00.000Z</time>
      </trkpt>
      <trkpt lat="44.7671" lon="5.0466">
        <ele>393</ele>
        <time>2020-02-07T13:11:01.000Z</time>
      </trkpt>
      <trkpt lat="44.7671" lon="5.04659">
        <ele>393</ele>
        <time>2020-02-07T13:11:02.000Z</time>
      </trkpt>
      <trkpt lat="44.7671" lon="5.04659">
        <ele>393</ele>
        <time>2020-02-07T13:11:03.000Z</time>
      </trkpt>
      <trkpt lat="44.7671" lon="5.0466">
        <ele>393</ele>
        <time>2020-02-07T13:11:04.000Z</time>
      </trkpt>
      <trkpt lat="44.7671" lon="5.0466">
        <ele>393</ele>
        <time>2020-02-07T13:11:05.000Z</time>
      </trkpt>
      <trkpt lat="44.7671" lon="5.04659">
        <ele>393</ele>
        <time>2020-02-07T13:11:06.000Z</time>
      </trkpt>
      <trkpt lat="44.7671" lon="5.04659">
        <ele>393</ele>
        <time>2020-02-07T13:11:07.000Z</time>
      </trkpt>
      <trkpt lat="44.7671" lon="5.04659">
        <ele>393</ele>
        <time>2020-02-07T13:11:08.000Z</time>
      </trkpt>
      <trkpt lat="44.76711" lon="5.04659">
        <ele>393</ele>
        <time>2020-02-07T13:11:09.000Z</time>
      </trkpt>
      <trkpt lat="44.7671" lon="5.04659">
        <ele>393</ele>
        <time>2020-02-07T13:11:10.000Z</time>
      </trkpt>
      <trkpt lat="44.76711" lon="5.04659">
        <ele>393</ele>
        <time>2020-02-07T13:11:11.000Z</time>
      </trkpt>
      <trkpt lat="44.76711" lon="5.04659">
        <ele>393</ele>
        <time>2020-02-07T13:11:12.000Z</time>
      </trkpt>
      <trkpt lat="44.7671" lon="5.04659">
        <ele>393</ele>
        <time>2020-02-07T13:11:13.000Z</time>
      </trkpt>
      <trkpt lat="44.7671" lon="5.04659">
        <ele>393</ele>
        <time>2020-02-07T13:11:14.000Z</time>
      </trkpt>
      <trkpt lat="44.7671" lon="5.04658">
        <ele>393</ele>
        <time>2020-02-07T13:11:15.000Z</time>
      </trkpt>
      <trkpt lat="44.7671" lon="5.04658">
        <ele>393</ele>
        <time>2020-02-07T13:11:16.000Z</time>
      </trkpt>
      <trkpt lat="44.76711" lon="5.04658">
        <ele>393</ele>
        <time>2020-02-07T13:11:17.000Z</time>
      </trkpt>
      <trkpt lat="44.76711" lon="5.04658">
        <ele>393</ele>
        <time>2020-02-07T13:11:18.000Z</time>
      </trkpt>
      <trkpt lat="44.76711" lon="5.04658">
        <ele>393</ele>
        <time>2020-02-07T13:11:19.000Z</time>
      </trkpt>
      <trkpt lat="44.76711" lon="5.04658">
        <ele>393</ele>
        <time>2020-02-07T13:11:20.000Z</time>
      </trkpt>
      <trkpt lat="44.7671" lon="5.04658">
        <ele>393</ele>
        <time>2020-02-07T13:11:21.000Z</time>
      </trkpt>
      <trkpt lat="44.7671" lon="5.04658">
        <ele>393</ele>
        <time>2020-02-07T13:11:22.000Z</time>
      </trkpt>
      <trkpt lat="44.7671" lon="5.04658">
        <ele>393</ele>
        <time>2020-02-07T13:11:23.000Z</time>
      </trkpt>
      <trkpt lat="44.7671" lon="5.04658">
        <ele>393</ele>
        <time>2020-02-07T13:11:24.000Z</time>
      </trkpt>
      <trkpt lat="44.7671" lon="5.04658">
        <ele>393</ele>
        <time>2020-02-07T13:11:25.000Z</time>
      </trkpt>
      <trkpt lat="44.7671" lon="5.04658">
        <ele>393</ele>
        <time>2020-02-07T13:11:26.000Z</time>
      </trkpt>
      <trkpt lat="44.7671" lon="5.04658">
        <ele>393</ele>
        <time>2020-02-07T13:11:27.000Z</time>
      </trkpt>
      <trkpt lat="44.7671" lon="5.04658">
        <ele>393</ele>
        <time>2020-02-07T13:11:28.000Z</time>
      </trkpt>
      <trkpt lat="44.7671" lon="5.04658">
        <ele>393</ele>
        <time>2020-02-07T13:11:29.000Z</time>
      </trkpt>
      <trkpt lat="44.7671" lon="5.04658">
        <ele>393</ele>
        <time>2020-02-07T13:11:30.000Z</time>
      </trkpt>
      <trkpt lat="44.7671" lon="5.04658">
        <ele>393</ele>
        <time>2020-02-07T13:11:31.000Z</time>
      </trkpt>
      <trkpt lat="44.7671" lon="5.04657">
        <ele>393</ele>
        <time>2020-02-07T13:11:32.000Z</time>
      </trkpt>
      <trkpt lat="44.7671" lon="5.04657">
        <ele>393</ele>
        <time>2020-02-07T13:11:33.000Z</time>
      </trkpt>
      <trkpt lat="44.7671" lon="5.04657">
        <ele>393</ele>
        <time>2020-02-07T13:11:34.000Z</time>
      </trkpt>
      <trkpt lat="44.7671" lon="5.04657">
        <ele>393</ele>
        <time>2020-02-07T13:11:35.000Z</time>
      </trkpt>
      <trkpt lat="44.7671" lon="5.04657">
        <ele>393</ele>
        <time>2020-02-07T13:11:36.000Z</time>
      </trkpt>
      <trkpt lat="44.76709" lon="5.04657">
        <ele>393</ele>
        <time>2020-02-07T13:11:37.000Z</time>
      </trkpt>
      <trkpt lat="44.7671" lon="5.04657">
        <ele>393</ele>
        <time>2020-02-07T13:11:38.000Z</time>
      </trkpt>
      <trkpt lat="44.7671" lon="5.04657">
        <ele>393</ele>
        <time>2020-02-07T13:11:39.000Z</time>
      </trkpt>
      <trkpt lat="44.7671" lon="5.04657">
        <ele>393</ele>
        <time>2020-02-07T13:11:40.000Z</time>
      </trkpt>
      <trkpt lat="44.7671" lon="5.04657">
        <ele>393</ele>
        <time>2020-02-07T13:11:41.000Z</time>
      </trkpt>
      <trkpt lat="44.76709" lon="5.04657">
        <ele>393</ele>
        <time>2020-02-07T13:11:42.000Z</time>
      </trkpt>
      <trkpt lat="44.76709" lon="5.04657">
        <ele>393</ele>
        <time>2020-02-07T13:11:43.000Z</time>
      </trkpt>
      <trkpt lat="44.76709" lon="5.04657">
        <ele>393</ele>
        <time>2020-02-07T13:11:44.000Z</time>
      </trkpt>
      <trkpt lat="44.76709" lon="5.04657">
        <ele>393</ele>
        <time>2020-02-07T13:11:45.000Z</time>
      </trkpt>
      <trkpt lat="44.76709" lon="5.04657">
        <ele>393</ele>
        <time>2020-02-07T13:11:46.000Z</time>
      </trkpt>
      <trkpt lat="44.76709" lon="5.04657">
        <ele>393</ele>
        <time>2020-02-07T13:11:47.000Z</time>
      </trkpt>
      <trkpt lat="44.76709" lon="5.04657">
        <ele>393</ele>
        <time>2020-02-07T13:11:48.000Z</time>
      </trkpt>
      <trkpt lat="44.76709" lon="5.04657">
        <ele>393</ele>
        <time>2020-02-07T13:11:49.000Z</time>
      </trkpt>
      <trkpt lat="44.76709" lon="5.04657">
        <ele>393</ele>
        <time>2020-02-07T13:11:50.000Z</time>
      </trkpt>
      <trkpt lat="44.76709" lon="5.04657">
        <ele>393</ele>
        <time>2020-02-07T13:11:51.000Z</time>
      </trkpt>
      <trkpt lat="44.76709" lon="5.04658">
        <ele>393</ele>
        <time>2020-02-07T13:11:52.000Z</time>
      </trkpt>
      <trkpt lat="44.76709" lon="5.04658">
        <ele>393</ele>
        <time>2020-02-07T13:11:53.000Z</time>
      </trkpt>
      <trkpt lat="44.76708" lon="5.04659">
        <ele>393</ele>
        <time>2020-02-07T13:11:54.000Z</time>
      </trkpt>
      <trkpt lat="44.76708" lon="5.04659">
        <ele>393</ele>
        <time>2020-02-07T13:11:55.000Z</time>
      </trkpt>
      <trkpt lat="44.76707" lon="5.04658">
        <ele>393</ele>
        <time>2020-02-07T13:11:56.000Z</time>
      </trkpt>
      <trkpt lat="44.76707" lon="5.04658">
        <ele>393</ele>
        <time>2020-02-07T13:11:57.000Z</time>
      </trkpt>
      <trkpt lat="44.76707" lon="5.04657">
        <ele>393</ele>
        <time>2020-02-07T13:11:58.000Z</time>
      </trkpt>
      <trkpt lat="44.76707" lon="5.04657">
        <ele>393</ele>
        <time>2020-02-07T13:11:59.000Z</time>
      </trkpt>
      <trkpt lat="44.76707" lon="5.04657">
        <ele>393</ele>
        <time>2020-02-07T13:12:00.000Z</time>
      </trkpt>
      <trkpt lat="44.76708" lon="5.04658">
        <ele>393</ele>
        <time>2020-02-07T13:12:01.000Z</time>
      </trkpt>
      <trkpt lat="44.76708" lon="5.04658">
        <ele>393</ele>
        <time>2020-02-07T13:12:02.000Z</time>
      </trkpt>
      <trkpt lat="44.76708" lon="5.04658">
        <ele>393</ele>
        <time>2020-02-07T13:12:03.000Z</time>
      </trkpt>
      <trkpt lat="44.76708" lon="5.04658">
        <ele>393</ele>
        <time>2020-02-07T13:12:04.000Z</time>
      </trkpt>
      <trkpt lat="44.76708" lon="5.04658">
        <ele>393</ele>
        <time>2020-02-07T13:12:05.000Z</time>
      </trkpt>
      <trkpt lat="44.76708" lon="5.04658">
        <ele>393</ele>
        <time>2020-02-07T13:12:06.000Z</time>
      </trkpt>
      <trkpt lat="44.76708" lon="5.04658">
        <ele>393</ele>
        <time>2020-02-07T13:12:07.000Z</time>
      </trkpt>
      <trkpt lat="44.76708" lon="5.04658">
        <ele>393</ele>
        <time>2020-02-07T13:12:08.000Z</time>
      </trkpt>
      <trkpt lat="44.76708" lon="5.04658">
        <ele>393</ele>
        <time>2020-02-07T13:12:09.000Z</time>
      </trkpt>
      <trkpt lat="44.76708" lon="5.04658">
        <ele>394</ele>
        <time>2020-02-07T13:12:10.000Z</time>
      </trkpt>
      <trkpt lat="44.76708" lon="5.04658">
        <ele>394</ele>
        <time>2020-02-07T13:12:11.000Z</time>
      </trkpt>
      <trkpt lat="44.76708" lon="5.04658">
        <ele>394</ele>
        <time>2020-02-07T13:12:12.000Z</time>
      </trkpt>
      <trkpt lat="44.76708" lon="5.04658">
        <ele>394</ele>
        <time>2020-02-07T13:12:13.000Z</time>
      </trkpt>
      <trkpt lat="44.76708" lon="5.04659">
        <ele>394</ele>
        <time>2020-02-07T13:12:14.000Z</time>
      </trkpt>
      <trkpt lat="44.76708" lon="5.0466">
        <ele>394</ele>
        <time>2020-02-07T13:12:15.000Z</time>
      </trkpt>
      <trkpt lat="44.76708" lon="5.0466">
        <ele>394</ele>
        <time>2020-02-07T13:12:16.000Z</time>
      </trkpt>
      <trkpt lat="44.76708" lon="5.04659">
        <ele>394</ele>
        <time>2020-02-07T13:12:17.000Z</time>
      </trkpt>
      <trkpt lat="44.76708" lon="5.04659">
        <ele>394</ele>
        <time>2020-02-07T13:12:18.000Z</time>
      </trkpt>
      <trkpt lat="44.76708" lon="5.04659">
        <ele>394</ele>
        <time>2020-02-07T13:12:19.000Z</time>
      </trkpt>
      <trkpt lat="44.76708" lon="5.04659">
        <ele>394</ele>
        <time>2020-02-07T13:12:20.000Z</time>
      </trkpt>
      <trkpt lat="44.76708" lon="5.04659">
        <ele>394</ele>
        <time>2020-02-07T13:12:21.000Z</time>
      </trkpt>
      <trkpt lat="44.76708" lon="5.04659">
        <ele>395</ele>
        <time>2020-02-07T13:12:22.000Z</time>
      </trkpt>
      <trkpt lat="44.76708" lon="5.04659">
        <ele>395</ele>
        <time>2020-02-07T13:12:23.000Z</time>
      </trkpt>
      <trkpt lat="44.76708" lon="5.04659">
        <ele>395</ele>
        <time>2020-02-07T13:12:24.000Z</time>
      </trkpt>
      <trkpt lat="44.76708" lon="5.04659">
        <ele>395</ele>
        <time>2020-02-07T13:12:25.000Z</time>
      </trkpt>
      <trkpt lat="44.76708" lon="5.04659">
        <ele>395</ele>
        <time>2020-02-07T13:12:26.000Z</time>
      </trkpt>
      <trkpt lat="44.76708" lon="5.04659">
        <ele>395</ele>
        <time>2020-02-07T13:12:27.000Z</time>
      </trkpt>
      <trkpt lat="44.76708" lon="5.04659">
        <ele>395</ele>
        <time>2020-02-07T13:12:28.000Z</time>
      </trkpt>
      <trkpt lat="44.76708" lon="5.04659">
        <ele>395</ele>
        <time>2020-02-07T13:12:29.000Z</time>
      </trkpt>
      <trkpt lat="44.76708" lon="5.04659">
        <ele>395</ele>
        <time>2020-02-07T13:12:30.000Z</time>
      </trkpt>
      <trkpt lat="44.76708" lon="5.04659">
        <ele>395</ele>
        <time>2020-02-07T13:12:31.000Z</time>
      </trkpt>
      <trkpt lat="44.76708" lon="5.04659">
        <ele>395</ele>
        <time>2020-02-07T13:12:32.000Z</time>
      </trkpt>
      <trkpt lat="44.76708" lon="5.04659">
        <ele>395</ele>
        <time>2020-02-07T13:12:33.000Z</time>
      </trkpt>
      <trkpt lat="44.76708" lon="5.04659">
        <ele>395</ele>
        <time>2020-02-07T13:12:34.000Z</time>
      </trkpt>
      <trkpt lat="44.76708" lon="5.04659">
        <ele>395</ele>
        <time>2020-02-07T13:12:35.000Z</time>
      </trkpt>
      <trkpt lat="44.76708" lon="5.0466">
        <ele>395</ele>
        <time>2020-02-07T13:12:36.000Z</time>
      </trkpt>
      <trkpt lat="44.76708" lon="5.0466">
        <ele>395</ele>
        <time>2020-02-07T13:12:37.000Z</time>
      </trkpt>
      <trkpt lat="44.76708" lon="5.0466">
        <ele>395</ele>
        <time>2020-02-07T13:12:38.000Z</time>
      </trkpt>
      <trkpt lat="44.76708" lon="5.0466">
        <ele>395</ele>
        <time>2020-02-07T13:12:39.000Z</time>
      </trkpt>
      <trkpt lat="44.76708" lon="5.0466">
        <ele>395</ele>
        <time>2020-02-07T13:12:40.000Z</time>
      </trkpt>
      <trkpt lat="44.76708" lon="5.0466">
        <ele>395</ele>
        <time>2020-02-07T13:12:41.000Z</time>
      </trkpt>
      <trkpt lat="44.76708" lon="5.0466">
        <ele>395</ele>
        <time>2020-02-07T13:12:42.000Z</time>
      </trkpt>
      <trkpt lat="44.76708" lon="5.0466">
        <ele>395</ele>
        <time>2020-02-07T13:12:43.000Z</time>
      </trkpt>
      <trkpt lat="44.76708" lon="5.0466">
        <ele>395</ele>
        <time>2020-02-07T13:12:44.000Z</time>
      </trkpt>
      <trkpt lat="44.76708" lon="5.0466">
        <ele>395</ele>
        <time>2020-02-07T13:12:45.000Z</time>
      </trkpt>
      <trkpt lat="44.76708" lon="5.0466">
        <ele>395</ele>
        <time>2020-02-07T13:12:46.000Z</time>
      </trkpt>
      <trkpt lat="44.76708" lon="5.0466">
        <ele>395</ele>
        <time>2020-02-07T13:12:47.000Z</time>
      </trkpt>
      <trkpt lat="44.76708" lon="5.0466">
        <ele>395</ele>
        <time>2020-02-07T13:12:48.000Z</time>
      </trkpt>
      <trkpt lat="44.76708" lon="5.0466">
        <ele>395</ele>
        <time>2020-02-07T13:12:49.000Z</time>
      </trkpt>
      <trkpt lat="44.76708" lon="5.0466">
        <ele>395</ele>
        <time>2020-02-07T13:12:50.000Z</time>
      </trkpt>
      <trkpt lat="44.76708" lon="5.0466">
        <ele>395</ele>
        <time>2020-02-07T13:12:51.000Z</time>
      </trkpt>
      <trkpt lat="44.76708" lon="5.0466">
        <ele>395</ele>
        <time>2020-02-07T13:12:52.000Z</time>
      </trkpt>
      <trkpt lat="44.76708" lon="5.0466">
        <ele>395</ele>
        <time>2020-02-07T13:12:53.000Z</time>
      </trkpt>
      <trkpt lat="44.76708" lon="5.0466">
        <ele>395</ele>
        <time>2020-02-07T13:12:54.000Z</time>
      </trkpt>
      <trkpt lat="44.76708" lon="5.0466">
        <ele>395</ele>
        <time>2020-02-07T13:12:55.000Z</time>
      </trkpt>
      <trkpt lat="44.76708" lon="5.0466">
        <ele>395</ele>
        <time>2020-02-07T13:12:56.000Z</time>
      </trkpt>
      <trkpt lat="44.76708" lon="5.0466">
        <ele>395</ele>
        <time>2020-02-07T13:12:57.000Z</time>
      </trkpt>
      <trkpt lat="44.76708" lon="5.0466">
        <ele>395</ele>
        <time>2020-02-07T13:12:58.000Z</time>
      </trkpt>
      <trkpt lat="44.76708" lon="5.0466">
        <ele>395</ele>
        <time>2020-02-07T13:12:59.000Z</time>
      </trkpt>
      <trkpt lat="44.76708" lon="5.0466">
        <ele>395</ele>
        <time>2020-02-07T13:13:00.000Z</time>
      </trkpt>
      <trkpt lat="44.76708" lon="5.0466">
        <ele>395</ele>
        <time>2020-02-07T13:13:01.000Z</time>
      </trkpt>
      <trkpt lat="44.76708" lon="5.0466">
        <ele>395</ele>
        <time>2020-02-07T13:13:02.000Z</time>
      </trkpt>
      <trkpt lat="44.76708" lon="5.0466">
        <ele>395</ele>
        <time>2020-02-07T13:13:03.000Z</time>
      </trkpt>
      <trkpt lat="44.76708" lon="5.0466">
        <ele>395</ele>
        <time>2020-02-07T13:13:04.000Z</time>
      </trkpt>
      <trkpt lat="44.76708" lon="5.0466">
        <ele>395</ele>
        <time>2020-02-07T13:13:05.000Z</time>
      </trkpt>
      <trkpt lat="44.76708" lon="5.0466">
        <ele>395</ele>
        <time>2020-02-07T13:13:06.000Z</time>
      </trkpt>
      <trkpt lat="44.76708" lon="5.0466">
        <ele>395</ele>
        <time>2020-02-07T13:13:07.000Z</time>
      </trkpt>
      <trkpt lat="44.76708" lon="5.04659">
        <ele>395</ele>
        <time>2020-02-07T13:13:08.000Z</time>
      </trkpt>
      <trkpt lat="44.76708" lon="5.04659">
        <ele>395</ele>
        <time>2020-02-07T13:13:09.000Z</time>
      </trkpt>
      <trkpt lat="44.76708" lon="5.04659">
        <ele>395</ele>
        <time>2020-02-07T13:13:10.000Z</time>
      </trkpt>
      <trkpt lat="44.76708" lon="5.04659">
        <ele>395</ele>
        <time>2020-02-07T13:13:11.000Z</time>
      </trkpt>
      <trkpt lat="44.76708" lon="5.04659">
        <ele>395</ele>
        <time>2020-02-07T13:13:12.000Z</time>
      </trkpt>
      <trkpt lat="44.76708" lon="5.04659">
        <ele>395</ele>
        <time>2020-02-07T13:13:13.000Z</time>
      </trkpt>
      <trkpt lat="44.76708" lon="5.04659">
        <ele>395</ele>
        <time>2020-02-07T13:13:14.000Z</time>
      </trkpt>
      <trkpt lat="44.76708" lon="5.04659">
        <ele>395</ele>
        <time>2020-02-07T13:13:15.000Z</time>
      </trkpt>
      <trkpt lat="44.76708" lon="5.04659">
        <ele>395</ele>
        <time>2020-02-07T13:13:16.000Z</time>
      </trkpt>
      <trkpt lat="44.76708" lon="5.04659">
        <ele>395</ele>
        <time>2020-02-07T13:13:17.000Z</time>
      </trkpt>
      <trkpt lat="44.76708" lon="5.04659">
        <ele>395</ele>
        <time>2020-02-07T13:13:18.000Z</time>
      </trkpt>
      <trkpt lat="44.76708" lon="5.04659">
        <ele>395</ele>
        <time>2020-02-07T13:13:19.000Z</time>
      </trkpt>
      <trkpt lat="44.76708" lon="5.04659">
        <ele>395</ele>
        <time>2020-02-07T13:13:20.000Z</time>
      </trkpt>
      <trkpt lat="44.76708" lon="5.04659">
        <ele>395</ele>
        <time>2020-02-07T13:13:21.000Z</time>
      </trkpt>
      <trkpt lat="44.76708" lon="5.04659">
        <ele>395</ele>
        <time>2020-02-07T13:13:22.000Z</time>
      </trkpt>
      <trkpt lat="44.76708" lon="5.04659">
        <ele>395</ele>
        <time>2020-02-07T13:13:23.000Z</time>
      </trkpt>
      <trkpt lat="44.76708" lon="5.04659">
        <ele>395</ele>
        <time>2020-02-07T13:13:24.000Z</time>
      </trkpt>
      <trkpt lat="44.76707" lon="5.04659">
        <ele>395</ele>
        <time>2020-02-07T13:13:25.000Z</time>
      </trkpt>
      <trkpt lat="44.76708" lon="5.04658">
        <ele>395</ele>
        <time>2020-02-07T13:13:26.000Z</time>
      </trkpt>
      <trkpt lat="44.76708" lon="5.04658">
        <ele>395</ele>
        <time>2020-02-07T13:13:27.000Z</time>
      </trkpt>
      <trkpt lat="44.76708" lon="5.04657">
        <ele>395</ele>
        <time>2020-02-07T13:13:28.000Z</time>
      </trkpt>
      <trkpt lat="44.76708" lon="5.04657">
        <ele>395</ele>
        <time>2020-02-07T13:13:29.000Z</time>
      </trkpt>
      <trkpt lat="44.76708" lon="5.04657">
        <ele>395</ele>
        <time>2020-02-07T13:13:30.000Z</time>
      </trkpt>
      <trkpt lat="44.76708" lon="5.04657">
        <ele>395</ele>
        <time>2020-02-07T13:13:31.000Z</time>
      </trkpt>
      <trkpt lat="44.76708" lon="5.04657">
        <ele>395</ele>
        <time>2020-02-07T13:13:32.000Z</time>
      </trkpt>
      <trkpt lat="44.76708" lon="5.04657">
        <ele>395</ele>
        <time>2020-02-07T13:13:33.000Z</time>
      </trkpt>
      <trkpt lat="44.76708" lon="5.04657">
        <ele>395</ele>
        <time>2020-02-07T13:13:34.000Z</time>
      </trkpt>
      <trkpt lat="44.76708" lon="5.04657">
        <ele>395</ele>
        <time>2020-02-07T13:13:35.000Z</time>
      </trkpt>
      <trkpt lat="44.76708" lon="5.04657">
        <ele>395</ele>
        <time>2020-02-07T13:13:36.000Z</time>
      </trkpt>
      <trkpt lat="44.76708" lon="5.04657">
        <ele>395</ele>
        <time>2020-02-07T13:13:37.000Z</time>
      </trkpt>
      <trkpt lat="44.76708" lon="5.04657">
        <ele>395</ele>
        <time>2020-02-07T13:13:38.000Z</time>
      </trkpt>
      <trkpt lat="44.76708" lon="5.04657">
        <ele>395</ele>
        <time>2020-02-07T13:13:39.000Z</time>
      </trkpt>
      <trkpt lat="44.76708" lon="5.04657">
        <ele>395</ele>
        <time>2020-02-07T13:13:40.000Z</time>
      </trkpt>
      <trkpt lat="44.76708" lon="5.04657">
        <ele>395</ele>
        <time>2020-02-07T13:13:41.000Z</time>
      </trkpt>
      <trkpt lat="44.76708" lon="5.04657">
        <ele>395</ele>
        <time>2020-02-07T13:13:42.000Z</time>
      </trkpt>
      <trkpt lat="44.76708" lon="5.04657">
        <ele>395</ele>
        <time>2020-02-07T13:13:43.000Z</time>
      </trkpt>
      <trkpt lat="44.76708" lon="5.04657">
        <ele>395</ele>
        <time>2020-02-07T13:13:44.000Z</time>
      </trkpt>
      <trkpt lat="44.76708" lon="5.04657">
        <ele>395</ele>
        <time>2020-02-07T13:13:45.000Z</time>
      </trkpt>
      <trkpt lat="44.76708" lon="5.04657">
        <ele>395</ele>
        <time>2020-02-07T13:13:46.000Z</time>
      </trkpt>
      <trkpt lat="44.76708" lon="5.04657">
        <ele>395</ele>
        <time>2020-02-07T13:13:47.000Z</time>
      </trkpt>
      <trkpt lat="44.76708" lon="5.04656">
        <ele>395</ele>
        <time>2020-02-07T13:13:48.000Z</time>
      </trkpt>
      <trkpt lat="44.76708" lon="5.04656">
        <ele>395</ele>
        <time>2020-02-07T13:13:49.000Z</time>
      </trkpt>
      <trkpt lat="44.76708" lon="5.04656">
        <ele>395</ele>
        <time>2020-02-07T13:13:50.000Z</time>
      </trkpt>
      <trkpt lat="44.76708" lon="5.04657">
        <ele>395</ele>
        <time>2020-02-07T13:13:51.000Z</time>
      </trkpt>
      <trkpt lat="44.76708" lon="5.04657">
        <ele>395</ele>
        <time>2020-02-07T13:13:52.000Z</time>
      </trkpt>
      <trkpt lat="44.76708" lon="5.04657">
        <ele>395</ele>
        <time>2020-02-07T13:13:53.000Z</time>
      </trkpt>
      <trkpt lat="44.76708" lon="5.04657">
        <ele>395</ele>
        <time>2020-02-07T13:13:54.000Z</time>
      </trkpt>
      <trkpt lat="44.76708" lon="5.04657">
        <ele>395</ele>
        <time>2020-02-07T13:13:55.000Z</time>
      </trkpt>
      <trkpt lat="44.76708" lon="5.04657">
        <ele>395</ele>
        <time>2020-02-07T13:13:56.000Z</time>
      </trkpt>
      <trkpt lat="44.76708" lon="5.04657">
        <ele>395</ele>
        <time>2020-02-07T13:13:57.000Z</time>
      </trkpt>
      <trkpt lat="44.76708" lon="5.04657">
        <ele>395</ele>
        <time>2020-02-07T13:13:58.000Z</time>
      </trkpt>
      <trkpt lat="44.76708" lon="5.04657">
        <ele>395</ele>
        <time>2020-02-07T13:13:59.000Z</time>
      </trkpt>
      <trkpt lat="44.76708" lon="5.04657">
        <ele>395</ele>
        <time>2020-02-07T13:14:00.000Z</time>
      </trkpt>
      <trkpt lat="44.76708" lon="5.04657">
        <ele>395</ele>
        <time>2020-02-07T13:14:01.000Z</time>
      </trkpt>
      <trkpt lat="44.76708" lon="5.04657">
        <ele>395</ele>
        <time>2020-02-07T13:14:02.000Z</time>
      </trkpt>
      <trkpt lat="44.76708" lon="5.04657">
        <ele>395</ele>
        <time>2020-02-07T13:14:03.000Z</time>
      </trkpt>
      <trkpt lat="44.76708" lon="5.04657">
        <ele>395</ele>
        <time>2020-02-07T13:14:04.000Z</time>
      </trkpt>
      <trkpt lat="44.76708" lon="5.04657">
        <ele>395</ele>
        <time>2020-02-07T13:14:05.000Z</time>
      </trkpt>
      <trkpt lat="44.76708" lon="5.04657">
        <ele>395</ele>
        <time>2020-02-07T13:14:06.000Z</time>
      </trkpt>
      <trkpt lat="44.76708" lon="5.04657">
        <ele>395</ele>
        <time>2020-02-07T13:14:07.000Z</time>
      </trkpt>
      <trkpt lat="44.76708" lon="5.04657">
        <ele>395</ele>
        <time>2020-02-07T13:14:08.000Z</time>
      </trkpt>
      <trkpt lat="44.76708" lon="5.04657">
        <ele>395</ele>
        <time>2020-02-07T13:14:09.000Z</time>
      </trkpt>
      <trkpt lat="44.76708" lon="5.04657">
        <ele>395</ele>
        <time>2020-02-07T13:14:10.000Z</time>
      </trkpt>
      <trkpt lat="44.76708" lon="5.04657">
        <ele>395</ele>
        <time>2020-02-07T13:14:11.000Z</time>
      </trkpt>
      <trkpt lat="44.76708" lon="5.04657">
        <ele>395</ele>
        <time>2020-02-07T13:14:12.000Z</time>
      </trkpt>
      <trkpt lat="44.76709" lon="5.04657">
        <ele>395</ele>
        <time>2020-02-07T13:14:13.000Z</time>
      </trkpt>
      <trkpt lat="44.76709" lon="5.04657">
        <ele>395</ele>
        <time>2020-02-07T13:14:14.000Z</time>
      </trkpt>
      <trkpt lat="44.76709" lon="5.04657">
        <ele>395</ele>
        <time>2020-02-07T13:14:15.000Z</time>
      </trkpt>
      <trkpt lat="44.76709" lon="5.04657">
        <ele>395</ele>
        <time>2020-02-07T13:14:16.000Z</time>
      </trkpt>
      <trkpt lat="44.76709" lon="5.04657">
        <ele>395</ele>
        <time>2020-02-07T13:14:17.000Z</time>
      </trkpt>
      <trkpt lat="44.76709" lon="5.04657">
        <ele>395</ele>
        <time>2020-02-07T13:14:18.000Z</time>
      </trkpt>
      <trkpt lat="44.76709" lon="5.04657">
        <ele>395</ele>
        <time>2020-02-07T13:14:19.000Z</time>
      </trkpt>
      <trkpt lat="44.76708" lon="5.04657">
        <ele>395</ele>
        <time>2020-02-07T13:14:20.000Z</time>
      </trkpt>
      <trkpt lat="44.76708" lon="5.04657">
        <ele>395</ele>
        <time>2020-02-07T13:14:21.000Z</time>
      </trkpt>
      <trkpt lat="44.76708" lon="5.04657">
        <ele>395</ele>
        <time>2020-02-07T13:14:22.000Z</time>
      </trkpt>
      <trkpt lat="44.76708" lon="5.04657">
        <ele>395</ele>
        <time>2020-02-07T13:14:23.000Z</time>
      </trkpt>
      <trkpt lat="44.76708" lon="5.04657">
        <ele>395</ele>
        <time>2020-02-07T13:14:24.000Z</time>
      </trkpt>
      <trkpt lat="44.76708" lon="5.04657">
        <ele>395</ele>
        <time>2020-02-07T13:14:25.000Z</time>
      </trkpt>
      <trkpt lat="44.76708" lon="5.04657">
        <ele>395</ele>
        <time>2020-02-07T13:14:26.000Z</time>
      </trkpt>
      <trkpt lat="44.76708" lon="5.04657">
        <ele>395</ele>
        <time>2020-02-07T13:14:27.000Z</time>
      </trkpt>
      <trkpt lat="44.76708" lon="5.04657">
        <ele>395</ele>
        <time>2020-02-07T13:14:28.000Z</time>
      </trkpt>
      <trkpt lat="44.76708" lon="5.04657">
        <ele>395</ele>
        <time>2020-02-07T13:14:29.000Z</time>
      </trkpt>
      <trkpt lat="44.76708" lon="5.04657">
        <ele>395</ele>
        <time>2020-02-07T13:14:30.000Z</time>
      </trkpt>
      <trkpt lat="44.76708" lon="5.04657">
        <ele>395</ele>
        <time>2020-02-07T13:14:31.000Z</time>
      </trkpt>
      <trkpt lat="44.76708" lon="5.04657">
        <ele>395</ele>
        <time>2020-02-07T13:14:32.000Z</time>
      </trkpt>
      <trkpt lat="44.76708" lon="5.04657">
        <ele>395</ele>
        <time>2020-02-07T13:14:33.000Z</time>
      </trkpt>
      <trkpt lat="44.76708" lon="5.04657">
        <ele>395</ele>
        <time>2020-02-07T13:14:34.000Z</time>
      </trkpt>
      <trkpt lat="44.76708" lon="5.04657">
        <ele>395</ele>
        <time>2020-02-07T13:14:35.000Z</time>
      </trkpt>
      <trkpt lat="44.76708" lon="5.04657">
        <ele>395</ele>
        <time>2020-02-07T13:14:36.000Z</time>
      </trkpt>
      <trkpt lat="44.76708" lon="5.04657">
        <ele>395</ele>
        <time>2020-02-07T13:14:37.000Z</time>
      </trkpt>
      <trkpt lat="44.76708" lon="5.04657">
        <ele>395</ele>
        <time>2020-02-07T13:14:38.000Z</time>
      </trkpt>
      <trkpt lat="44.76708" lon="5.04657">
        <ele>395</ele>
        <time>2020-02-07T13:14:39.000Z</time>
      </trkpt>
      <trkpt lat="44.76708" lon="5.04657">
        <ele>395</ele>
        <time>2020-02-07T13:14:40.000Z</time>
      </trkpt>
      <trkpt lat="44.76708" lon="5.04657">
        <ele>395</ele>
        <time>2020-02-07T13:14:41.000Z</time>
      </trkpt>
      <trkpt lat="44.76708" lon="5.04657">
        <ele>395</ele>
        <time>2020-02-07T13:14:42.000Z</time>
      </trkpt>
      <trkpt lat="44.76708" lon="5.04657">
        <ele>395</ele>
        <time>2020-02-07T13:14:43.000Z</time>
      </trkpt>
      <trkpt lat="44.76708" lon="5.04657">
        <ele>395</ele>
        <time>2020-02-07T13:14:44.000Z</time>
      </trkpt>
      <trkpt lat="44.76708" lon="5.04657">
        <ele>395</ele>
        <time>2020-02-07T13:14:45.000Z</time>
      </trkpt>
      <trkpt lat="44.76708" lon="5.04657">
        <ele>395</ele>
        <time>2020-02-07T13:14:46.000Z</time>
      </trkpt>
      <trkpt lat="44.76708" lon="5.04657">
        <ele>395</ele>
        <time>2020-02-07T13:14:47.000Z</time>
      </trkpt>
      <trkpt lat="44.76708" lon="5.04657">
        <ele>395</ele>
        <time>2020-02-07T13:14:48.000Z</time>
      </trkpt>
      <trkpt lat="44.76708" lon="5.04657">
        <ele>395</ele>
        <time>2020-02-07T13:14:49.000Z</time>
      </trkpt>
      <trkpt lat="44.76708" lon="5.04658">
        <ele>395</ele>
        <time>2020-02-07T13:14:50.000Z</time>
      </trkpt>
      <trkpt lat="44.76708" lon="5.04658">
        <ele>395</ele>
        <time>2020-02-07T13:14:51.000Z</time>
      </trkpt>
      <trkpt lat="44.76708" lon="5.04658">
        <ele>395</ele>
        <time>2020-02-07T13:14:52.000Z</time>
      </trkpt>
      <trkpt lat="44.76708" lon="5.04658">
        <ele>395</ele>
        <time>2020-02-07T13:14:53.000Z</time>
      </trkpt>
      <trkpt lat="44.76708" lon="5.04658">
        <ele>395</ele>
        <time>2020-02-07T13:14:54.000Z</time>
      </trkpt>
      <trkpt lat="44.76708" lon="5.04658">
        <ele>395</ele>
        <time>2020-02-07T13:14:55.000Z</time>
      </trkpt>
      <trkpt lat="44.76708" lon="5.04657">
        <ele>395</ele>
        <time>2020-02-07T13:14:56.000Z</time>
      </trkpt>
      <trkpt lat="44.76708" lon="5.04657">
        <ele>395</ele>
        <time>2020-02-07T13:14:57.000Z</time>
      </trkpt>
      <trkpt lat="44.76708" lon="5.04657">
        <ele>395</ele>
        <time>2020-02-07T13:14:58.000Z</time>
      </trkpt>
      <trkpt lat="44.76708" lon="5.04657">
        <ele>395</ele>
        <time>2020-02-07T13:14:59.000Z</time>
      </trkpt>
      <trkpt lat="44.76708" lon="5.04658">
        <ele>395</ele>
        <time>2020-02-07T13:15:00.000Z</time>
      </trkpt>
      <trkpt lat="44.76708" lon="5.04658">
        <ele>395</ele>
        <time>2020-02-07T13:15:01.000Z</time>
      </trkpt>
      <trkpt lat="44.76708" lon="5.04658">
        <ele>394</ele>
        <time>2020-02-07T13:15:02.000Z</time>
      </trkpt>
      <trkpt lat="44.76708" lon="5.04658">
        <ele>394</ele>
        <time>2020-02-07T13:15:03.000Z</time>
      </trkpt>
      <trkpt lat="44.76708" lon="5.04658">
        <ele>394</ele>
        <time>2020-02-07T13:15:04.000Z</time>
      </trkpt>
      <trkpt lat="44.76708" lon="5.04658">
        <ele>394</ele>
        <time>2020-02-07T13:15:05.000Z</time>
      </trkpt>
      <trkpt lat="44.76708" lon="5.04658">
        <ele>394</ele>
        <time>2020-02-07T13:15:06.000Z</time>
      </trkpt>
      <trkpt lat="44.76708" lon="5.04658">
        <ele>394</ele>
        <time>2020-02-07T13:15:07.000Z</time>
      </trkpt>
      <trkpt lat="44.76708" lon="5.04658">
        <ele>394</ele>
        <time>2020-02-07T13:15:08.000Z</time>
      </trkpt>
      <trkpt lat="44.76708" lon="5.04658">
        <ele>394</ele>
        <time>2020-02-07T13:15:09.000Z</time>
      </trkpt>
      <trkpt lat="44.76708" lon="5.04658">
        <ele>394</ele>
        <time>2020-02-07T13:15:10.000Z</time>
      </trkpt>
      <trkpt lat="44.76708" lon="5.04658">
        <ele>394</ele>
        <time>2020-02-07T13:15:11.000Z</time>
      </trkpt>
      <trkpt lat="44.76708" lon="5.04658">
        <ele>394</ele>
        <time>2020-02-07T13:15:12.000Z</time>
      </trkpt>
      <trkpt lat="44.76708" lon="5.04658">
        <ele>394</ele>
        <time>2020-02-07T13:15:13.000Z</time>
      </trkpt>
      <trkpt lat="44.76708" lon="5.04658">
        <ele>394</ele>
        <time>2020-02-07T13:15:14.000Z</time>
      </trkpt>
      <trkpt lat="44.76707" lon="5.04657">
        <ele>394</ele>
        <time>2020-02-07T13:15:15.000Z</time>
      </trkpt>
      <trkpt lat="44.76707" lon="5.04657">
        <ele>394</ele>
        <time>2020-02-07T13:15:16.000Z</time>
      </trkpt>
      <trkpt lat="44.76707" lon="5.04657">
        <ele>394</ele>
        <time>2020-02-07T13:15:17.000Z</time>
      </trkpt>
      <trkpt lat="44.76707" lon="5.04657">
        <ele>394</ele>
        <time>2020-02-07T13:15:18.000Z</time>
      </trkpt>
      <trkpt lat="44.76707" lon="5.04657">
        <ele>394</ele>
        <time>2020-02-07T13:15:19.000Z</time>
      </trkpt>
      <trkpt lat="44.76707" lon="5.04657">
        <ele>394</ele>
        <time>2020-02-07T13:15:20.000Z</time>
      </trkpt>
      <trkpt lat="44.76707" lon="5.04657">
        <ele>394</ele>
        <time>2020-02-07T13:15:21.000Z</time>
      </trkpt>
      <trkpt lat="44.76708" lon="5.04657">
        <ele>394</ele>
        <time>2020-02-07T13:15:22.000Z</time>
      </trkpt>
      <trkpt lat="44.76707" lon="5.04657">
        <ele>394</ele>
        <time>2020-02-07T13:15:23.000Z</time>
      </trkpt>
      <trkpt lat="44.76707" lon="5.04657">
        <ele>394</ele>
        <time>2020-02-07T13:15:24.000Z</time>
      </trkpt>
      <trkpt lat="44.76707" lon="5.04657">
        <ele>394</ele>
        <time>2020-02-07T13:15:25.000Z</time>
      </trkpt>
      <trkpt lat="44.76707" lon="5.04657">
        <ele>394</ele>
        <time>2020-02-07T13:15:26.000Z</time>
      </trkpt>
      <trkpt lat="44.76707" lon="5.04657">
        <ele>394</ele>
        <time>2020-02-07T13:15:27.000Z</time>
      </trkpt>
      <trkpt lat="44.76707" lon="5.04657">
        <ele>394</ele>
        <time>2020-02-07T13:15:28.000Z</time>
      </trkpt>
      <trkpt lat="44.76707" lon="5.04657">
        <ele>394</ele>
        <time>2020-02-07T13:15:29.000Z</time>
      </trkpt>
      <trkpt lat="44.76707" lon="5.04657">
        <ele>394</ele>
        <time>2020-02-07T13:15:30.000Z</time>
      </trkpt>
      <trkpt lat="44.76707" lon="5.04657">
        <ele>394</ele>
        <time>2020-02-07T13:15:31.000Z</time>
      </trkpt>
      <trkpt lat="44.76707" lon="5.04657">
        <ele>394</ele>
        <time>2020-02-07T13:15:32.000Z</time>
      </trkpt>
      <trkpt lat="44.76707" lon="5.04658">
        <ele>394</ele>
        <time>2020-02-07T13:15:33.000Z</time>
      </trkpt>
      <trkpt lat="44.76707" lon="5.04658">
        <ele>394</ele>
        <time>2020-02-07T13:15:34.000Z</time>
      </trkpt>
      <trkpt lat="44.76707" lon="5.04658">
        <ele>394</ele>
        <time>2020-02-07T13:15:35.000Z</time>
      </trkpt>
      <trkpt lat="44.76707" lon="5.04658">
        <ele>394</ele>
        <time>2020-02-07T13:15:36.000Z</time>
      </trkpt>
      <trkpt lat="44.76707" lon="5.04657">
        <ele>394</ele>
        <time>2020-02-07T13:15:37.000Z</time>
      </trkpt>
      <trkpt lat="44.76707" lon="5.04657">
        <ele>394</ele>
        <time>2020-02-07T13:15:38.000Z</time>
      </trkpt>
      <trkpt lat="44.76707" lon="5.04657">
        <ele>394</ele>
        <time>2020-02-07T13:15:39.000Z</time>
      </trkpt>
      <trkpt lat="44.76707" lon="5.04657">
        <ele>394</ele>
        <time>2020-02-07T13:15:40.000Z</time>
      </trkpt>
      <trkpt lat="44.76707" lon="5.04657">
        <ele>394</ele>
        <time>2020-02-07T13:15:41.000Z</time>
      </trkpt>
      <trkpt lat="44.76707" lon="5.04657">
        <ele>394</ele>
        <time>2020-02-07T13:15:42.000Z</time>
      </trkpt>
      <trkpt lat="44.76707" lon="5.04657">
        <ele>394</ele>
        <time>2020-02-07T13:15:43.000Z</time>
      </trkpt>
      <trkpt lat="44.76707" lon="5.04657">
        <ele>394</ele>
        <time>2020-02-07T13:15:44.000Z</time>
      </trkpt>
      <trkpt lat="44.76707" lon="5.04657">
        <ele>394</ele>
        <time>2020-02-07T13:15:45.000Z</time>
      </trkpt>
      <trkpt lat="44.76707" lon="5.04657">
        <ele>394</ele>
        <time>2020-02-07T13:15:46.000Z</time>
      </trkpt>
      <trkpt lat="44.76707" lon="5.04657">
        <ele>394</ele>
        <time>2020-02-07T13:15:47.000Z</time>
      </trkpt>
      <trkpt lat="44.76707" lon="5.04657">
        <ele>394</ele>
        <time>2020-02-07T13:15:48.000Z</time>
      </trkpt>
      <trkpt lat="44.76707" lon="5.04657">
        <ele>394</ele>
        <time>2020-02-07T13:15:49.000Z</time>
      </trkpt>
      <trkpt lat="44.76707" lon="5.04658">
        <ele>394</ele>
        <time>2020-02-07T13:15:50.000Z</time>
      </trkpt>
      <trkpt lat="44.76707" lon="5.04658">
        <ele>394</ele>
        <time>2020-02-07T13:15:51.000Z</time>
      </trkpt>
      <trkpt lat="44.76706" lon="5.04658">
        <ele>394</ele>
        <time>2020-02-07T13:15:52.000Z</time>
      </trkpt>
      <trkpt lat="44.76705" lon="5.04658">
        <ele>394</ele>
        <time>2020-02-07T13:15:53.000Z</time>
      </trkpt>
      <trkpt lat="44.76704" lon="5.04658">
        <ele>394</ele>
        <time>2020-02-07T13:15:54.000Z</time>
      </trkpt>
      <trkpt lat="44.76703" lon="5.04659">
        <ele>394</ele>
        <time>2020-02-07T13:15:55.000Z</time>
      </trkpt>
      <trkpt lat="44.76702" lon="5.04658">
        <ele>394</ele>
        <time>2020-02-07T13:15:56.000Z</time>
      </trkpt>
      <trkpt lat="44.76702" lon="5.04658">
        <ele>394</ele>
        <time>2020-02-07T13:15:57.000Z</time>
      </trkpt>
      <trkpt lat="44.76701" lon="5.04658">
        <ele>394</ele>
        <time>2020-02-07T13:15:58.000Z</time>
      </trkpt>
      <trkpt lat="44.767" lon="5.04658">
        <ele>394</ele>
        <time>2020-02-07T13:15:59.000Z</time>
      </trkpt>
      <trkpt lat="44.76699" lon="5.04658">
        <ele>394</ele>
        <time>2020-02-07T13:16:00.000Z</time>
      </trkpt>
      <trkpt lat="44.76698" lon="5.04658">
        <ele>394</ele>
        <time>2020-02-07T13:16:01.000Z</time>
      </trkpt>
      <trkpt lat="44.76697" lon="5.04658">
        <ele>393</ele>
        <time>2020-02-07T13:16:02.000Z</time>
      </trkpt>
      <trkpt lat="44.76696" lon="5.04658">
        <ele>393</ele>
        <time>2020-02-07T13:16:03.000Z</time>
      </trkpt>
      <trkpt lat="44.76695" lon="5.04658">
        <ele>394</ele>
        <time>2020-02-07T13:16:04.000Z</time>
      </trkpt>
      <trkpt lat="44.76694" lon="5.04657">
        <ele>393</ele>
        <time>2020-02-07T13:16:05.000Z</time>
      </trkpt>
      <trkpt lat="44.76693" lon="5.04657">
        <ele>393</ele>
        <time>2020-02-07T13:16:06.000Z</time>
      </trkpt>
      <trkpt lat="44.76692" lon="5.04657">
        <ele>393</ele>
        <time>2020-02-07T13:16:07.000Z</time>
      </trkpt>
      <trkpt lat="44.76691" lon="5.04657">
        <ele>393</ele>
        <time>2020-02-07T13:16:08.000Z</time>
      </trkpt>
      <trkpt lat="44.7669" lon="5.04656">
        <ele>393</ele>
        <time>2020-02-07T13:16:09.000Z</time>
      </trkpt>
      <trkpt lat="44.76689" lon="5.04656">
        <ele>393</ele>
        <time>2020-02-07T13:16:10.000Z</time>
      </trkpt>
      <trkpt lat="44.76689" lon="5.04656">
        <ele>393</ele>
        <time>2020-02-07T13:16:11.000Z</time>
      </trkpt>
      <trkpt lat="44.76688" lon="5.04656">
        <ele>393</ele>
        <time>2020-02-07T13:16:12.000Z</time>
      </trkpt>
      <trkpt lat="44.76687" lon="5.04656">
        <ele>393</ele>
        <time>2020-02-07T13:16:13.000Z</time>
      </trkpt>
      <trkpt lat="44.76686" lon="5.04656">
        <ele>393</ele>
        <time>2020-02-07T13:16:14.000Z</time>
      </trkpt>
      <trkpt lat="44.76686" lon="5.04656">
        <ele>393</ele>
        <time>2020-02-07T13:16:15.000Z</time>
      </trkpt>
      <trkpt lat="44.76685" lon="5.04656">
        <ele>393</ele>
        <time>2020-02-07T13:16:16.000Z</time>
      </trkpt>
      <trkpt lat="44.76684" lon="5.04655">
        <ele>393</ele>
        <time>2020-02-07T13:16:17.000Z</time>
      </trkpt>
      <trkpt lat="44.76683" lon="5.04655">
        <ele>393</ele>
        <time>2020-02-07T13:16:18.000Z</time>
      </trkpt>
      <trkpt lat="44.76682" lon="5.04655">
        <ele>393</ele>
        <time>2020-02-07T13:16:19.000Z</time>
      </trkpt>
      <trkpt lat="44.76681" lon="5.04654">
        <ele>393</ele>
        <time>2020-02-07T13:16:20.000Z</time>
      </trkpt>
      <trkpt lat="44.76681" lon="5.04654">
        <ele>393</ele>
        <time>2020-02-07T13:16:21.000Z</time>
      </trkpt>
      <trkpt lat="44.7668" lon="5.04654">
        <ele>393</ele>
        <time>2020-02-07T13:16:22.000Z</time>
      </trkpt>
      <trkpt lat="44.76679" lon="5.04654">
        <ele>393</ele>
        <time>2020-02-07T13:16:23.000Z</time>
      </trkpt>
      <trkpt lat="44.76678" lon="5.04653">
        <ele>393</ele>
        <time>2020-02-07T13:16:24.000Z</time>
      </trkpt>
      <trkpt lat="44.76677" lon="5.04653">
        <ele>392</ele>
        <time>2020-02-07T13:16:25.000Z</time>
      </trkpt>
      <trkpt lat="44.76676" lon="5.04653">
        <ele>392</ele>
        <time>2020-02-07T13:16:26.000Z</time>
      </trkpt>
      <trkpt lat="44.76675" lon="5.04652">
        <ele>392</ele>
        <time>2020-02-07T13:16:27.000Z</time>
      </trkpt>
      <trkpt lat="44.76675" lon="5.04652">
        <ele>392</ele>
        <time>2020-02-07T13:16:28.000Z</time>
      </trkpt>
      <trkpt lat="44.76674" lon="5.04652">
        <ele>392</ele>
        <time>2020-02-07T13:16:29.000Z</time>
      </trkpt>
      <trkpt lat="44.76674" lon="5.04651">
        <ele>392</ele>
        <time>2020-02-07T13:16:30.000Z</time>
      </trkpt>
      <trkpt lat="44.76673" lon="5.04651">
        <ele>392</ele>
        <time>2020-02-07T13:16:31.000Z</time>
      </trkpt>
      <trkpt lat="44.76672" lon="5.0465">
        <ele>392</ele>
        <time>2020-02-07T13:16:32.000Z</time>
      </trkpt>
      <trkpt lat="44.76672" lon="5.0465">
        <ele>392</ele>
        <time>2020-02-07T13:16:33.000Z</time>
      </trkpt>
      <trkpt lat="44.76671" lon="5.04649">
        <ele>392</ele>
        <time>2020-02-07T13:16:34.000Z</time>
      </trkpt>
      <trkpt lat="44.7667" lon="5.04649">
        <ele>392</ele>
        <time>2020-02-07T13:16:35.000Z</time>
      </trkpt>
      <trkpt lat="44.76669" lon="5.04648">
        <ele>392</ele>
        <time>2020-02-07T13:16:36.000Z</time>
      </trkpt>
      <trkpt lat="44.76669" lon="5.04647">
        <ele>392</ele>
        <time>2020-02-07T13:16:37.000Z</time>
      </trkpt>
      <trkpt lat="44.76668" lon="5.04647">
        <ele>391</ele>
        <time>2020-02-07T13:16:38.000Z</time>
      </trkpt>
      <trkpt lat="44.76667" lon="5.04646">
        <ele>391</ele>
        <time>2020-02-07T13:16:39.000Z</time>
      </trkpt>
      <trkpt lat="44.76667" lon="5.04645">
        <ele>391</ele>
        <time>2020-02-07T13:16:40.000Z</time>
      </trkpt>
      <trkpt lat="44.76666" lon="5.04644">
        <ele>391</ele>
        <time>2020-02-07T13:16:41.000Z</time>
      </trkpt>
      <trkpt lat="44.76665" lon="5.04643">
        <ele>391</ele>
        <time>2020-02-07T13:16:42.000Z</time>
      </trkpt>
      <trkpt lat="44.76664" lon="5.04642">
        <ele>391</ele>
        <time>2020-02-07T13:16:43.000Z</time>
      </trkpt>
      <trkpt lat="44.76663" lon="5.04642">
        <ele>391</ele>
        <time>2020-02-07T13:16:44.000Z</time>
      </trkpt>
      <trkpt lat="44.76663" lon="5.04641">
        <ele>391</ele>
        <time>2020-02-07T13:16:45.000Z</time>
      </trkpt>
      <trkpt lat="44.76662" lon="5.0464">
        <ele>391</ele>
        <time>2020-02-07T13:16:46.000Z</time>
      </trkpt>
      <trkpt lat="44.76661" lon="5.04639">
        <ele>391</ele>
        <time>2020-02-07T13:16:47.000Z</time>
      </trkpt>
      <trkpt lat="44.76661" lon="5.04638">
        <ele>391</ele>
        <time>2020-02-07T13:16:48.000Z</time>
      </trkpt>
      <trkpt lat="44.7666" lon="5.04637">
        <ele>391</ele>
        <time>2020-02-07T13:16:49.000Z</time>
      </trkpt>
      <trkpt lat="44.76659" lon="5.04636">
        <ele>390</ele>
        <time>2020-02-07T13:16:50.000Z</time>
      </trkpt>
      <trkpt lat="44.76658" lon="5.04635">
        <ele>390</ele>
        <time>2020-02-07T13:16:51.000Z</time>
      </trkpt>
      <trkpt lat="44.76658" lon="5.04633">
        <ele>390</ele>
        <time>2020-02-07T13:16:52.000Z</time>
      </trkpt>
      <trkpt lat="44.76657" lon="5.04632">
        <ele>390</ele>
        <time>2020-02-07T13:16:53.000Z</time>
      </trkpt>
      <trkpt lat="44.76656" lon="5.0463">
        <ele>390</ele>
        <time>2020-02-07T13:16:54.000Z</time>
      </trkpt>
      <trkpt lat="44.76656" lon="5.04629">
        <ele>390</ele>
        <time>2020-02-07T13:16:55.000Z</time>
      </trkpt>
      <trkpt lat="44.76655" lon="5.04628">
        <ele>390</ele>
        <time>2020-02-07T13:16:56.000Z</time>
      </trkpt>
      <trkpt lat="44.76655" lon="5.04626">
        <ele>389</ele>
        <time>2020-02-07T13:16:57.000Z</time>
      </trkpt>
      <trkpt lat="44.76655" lon="5.04625">
        <ele>389</ele>
        <time>2020-02-07T13:16:58.000Z</time>
      </trkpt>
      <trkpt lat="44.76654" lon="5.04624">
        <ele>389</ele>
        <time>2020-02-07T13:16:59.000Z</time>
      </trkpt>
      <trkpt lat="44.76654" lon="5.04622">
        <ele>389</ele>
        <time>2020-02-07T13:17:00.000Z</time>
      </trkpt>
      <trkpt lat="44.76654" lon="5.04621">
        <ele>388</ele>
        <time>2020-02-07T13:17:01.000Z</time>
      </trkpt>
      <trkpt lat="44.76653" lon="5.04619">
        <ele>388</ele>
        <time>2020-02-07T13:17:02.000Z</time>
      </trkpt>
      <trkpt lat="44.76653" lon="5.04618">
        <ele>388</ele>
        <time>2020-02-07T13:17:03.000Z</time>
      </trkpt>
      <trkpt lat="44.76652" lon="5.04616">
        <ele>388</ele>
        <time>2020-02-07T13:17:04.000Z</time>
      </trkpt>
      <trkpt lat="44.76652" lon="5.04615">
        <ele>387</ele>
        <time>2020-02-07T13:17:05.000Z</time>
      </trkpt>
      <trkpt lat="44.76651" lon="5.04614">
        <ele>387</ele>
        <time>2020-02-07T13:17:06.000Z</time>
      </trkpt>
      <trkpt lat="44.76651" lon="5.04612">
        <ele>387</ele>
        <time>2020-02-07T13:17:07.000Z</time>
      </trkpt>
      <trkpt lat="44.7665" lon="5.04611">
        <ele>387</ele>
        <time>2020-02-07T13:17:08.000Z</time>
      </trkpt>
      <trkpt lat="44.7665" lon="5.04609">
        <ele>387</ele>
        <time>2020-02-07T13:17:09.000Z</time>
      </trkpt>
      <trkpt lat="44.7665" lon="5.04608">
        <ele>386</ele>
        <time>2020-02-07T13:17:10.000Z</time>
      </trkpt>
      <trkpt lat="44.76649" lon="5.04607">
        <ele>386</ele>
        <time>2020-02-07T13:17:11.000Z</time>
      </trkpt>
      <trkpt lat="44.76649" lon="5.04605">
        <ele>386</ele>
        <time>2020-02-07T13:17:12.000Z</time>
      </trkpt>
      <trkpt lat="44.76649" lon="5.04604">
        <ele>386</ele>
        <time>2020-02-07T13:17:13.000Z</time>
      </trkpt>
      <trkpt lat="44.76648" lon="5.04603">
        <ele>385</ele>
        <time>2020-02-07T13:17:14.000Z</time>
      </trkpt>
      <trkpt lat="44.76648" lon="5.04602">
        <ele>385</ele>
        <time>2020-02-07T13:17:15.000Z</time>
      </trkpt>
      <trkpt lat="44.76647" lon="5.04601">
        <ele>385</ele>
        <time>2020-02-07T13:17:16.000Z</time>
      </trkpt>
      <trkpt lat="44.76646" lon="5.046">
        <ele>385</ele>
        <time>2020-02-07T13:17:17.000Z</time>
      </trkpt>
      <trkpt lat="44.76645" lon="5.04599">
        <ele>385</ele>
        <time>2020-02-07T13:17:18.000Z</time>
      </trkpt>
      <trkpt lat="44.76644" lon="5.04598">
        <ele>385</ele>
        <time>2020-02-07T13:17:19.000Z</time>
      </trkpt>
      <trkpt lat="44.76644" lon="5.04597">
        <ele>384</ele>
        <time>2020-02-07T13:17:20.000Z</time>
      </trkpt>
      <trkpt lat="44.76643" lon="5.04596">
        <ele>384</ele>
        <time>2020-02-07T13:17:21.000Z</time>
      </trkpt>
      <trkpt lat="44.76642" lon="5.04596">
        <ele>384</ele>
        <time>2020-02-07T13:17:22.000Z</time>
      </trkpt>
      <trkpt lat="44.76641" lon="5.04595">
        <ele>384</ele>
        <time>2020-02-07T13:17:23.000Z</time>
      </trkpt>
      <trkpt lat="44.7664" lon="5.04595">
        <ele>384</ele>
        <time>2020-02-07T13:17:24.000Z</time>
      </trkpt>
      <trkpt lat="44.76639" lon="5.04594">
        <ele>384</ele>
        <time>2020-02-07T13:17:25.000Z</time>
      </trkpt>
      <trkpt lat="44.76638" lon="5.04594">
        <ele>384</ele>
        <time>2020-02-07T13:17:26.000Z</time>
      </trkpt>
      <trkpt lat="44.76637" lon="5.04593">
        <ele>384</ele>
        <time>2020-02-07T13:17:27.000Z</time>
      </trkpt>
      <trkpt lat="44.76636" lon="5.04593">
        <ele>383</ele>
        <time>2020-02-07T13:17:28.000Z</time>
      </trkpt>
      <trkpt lat="44.76635" lon="5.04593">
        <ele>383</ele>
        <time>2020-02-07T13:17:29.000Z</time>
      </trkpt>
      <trkpt lat="44.76634" lon="5.04593">
        <ele>383</ele>
        <time>2020-02-07T13:17:30.000Z</time>
      </trkpt>
      <trkpt lat="44.76633" lon="5.04593">
        <ele>383</ele>
        <time>2020-02-07T13:17:31.000Z</time>
      </trkpt>
      <trkpt lat="44.76631" lon="5.04593">
        <ele>383</ele>
        <time>2020-02-07T13:17:32.000Z</time>
      </trkpt>
      <trkpt lat="44.7663" lon="5.04593">
        <ele>383</ele>
        <time>2020-02-07T13:17:33.000Z</time>
      </trkpt>
      <trkpt lat="44.76629" lon="5.04593">
        <ele>383</ele>
        <time>2020-02-07T13:17:34.000Z</time>
      </trkpt>
      <trkpt lat="44.76628" lon="5.04594">
        <ele>382</ele>
        <time>2020-02-07T13:17:35.000Z</time>
      </trkpt>
      <trkpt lat="44.76627" lon="5.04594">
        <ele>382</ele>
        <time>2020-02-07T13:17:36.000Z</time>
      </trkpt>
      <trkpt lat="44.76626" lon="5.04595">
        <ele>382</ele>
        <time>2020-02-07T13:17:37.000Z</time>
      </trkpt>
      <trkpt lat="44.76625" lon="5.04595">
        <ele>382</ele>
        <time>2020-02-07T13:17:38.000Z</time>
      </trkpt>
      <trkpt lat="44.76624" lon="5.04595">
        <ele>382</ele>
        <time>2020-02-07T13:17:39.000Z</time>
      </trkpt>
      <trkpt lat="44.76623" lon="5.04596">
        <ele>382</ele>
        <time>2020-02-07T13:17:40.000Z</time>
      </trkpt>
      <trkpt lat="44.76621" lon="5.04596">
        <ele>382</ele>
        <time>2020-02-07T13:17:41.000Z</time>
      </trkpt>
      <trkpt lat="44.7662" lon="5.04596">
        <ele>382</ele>
        <time>2020-02-07T13:17:42.000Z</time>
      </trkpt>
      <trkpt lat="44.76619" lon="5.04596">
        <ele>381</ele>
        <time>2020-02-07T13:17:43.000Z</time>
      </trkpt>
      <trkpt lat="44.76618" lon="5.04597">
        <ele>381</ele>
        <time>2020-02-07T13:17:44.000Z</time>
      </trkpt>
      <trkpt lat="44.76617" lon="5.04597">
        <ele>381</ele>
        <time>2020-02-07T13:17:45.000Z</time>
      </trkpt>
      <trkpt lat="44.76616" lon="5.04597">
        <ele>381</ele>
        <time>2020-02-07T13:17:46.000Z</time>
      </trkpt>
      <trkpt lat="44.76615" lon="5.04597">
        <ele>381</ele>
        <time>2020-02-07T13:17:47.000Z</time>
      </trkpt>
      <trkpt lat="44.76614" lon="5.04597">
        <ele>381</ele>
        <time>2020-02-07T13:17:48.000Z</time>
      </trkpt>
      <trkpt lat="44.76614" lon="5.04597">
        <ele>381</ele>
        <time>2020-02-07T13:17:49.000Z</time>
      </trkpt>
      <trkpt lat="44.76613" lon="5.04597">
        <ele>381</ele>
        <time>2020-02-07T13:17:50.000Z</time>
      </trkpt>
      <trkpt lat="44.76612" lon="5.04598">
        <ele>380</ele>
        <time>2020-02-07T13:17:51.000Z</time>
      </trkpt>
      <trkpt lat="44.76611" lon="5.04598">
        <ele>380</ele>
        <time>2020-02-07T13:17:52.000Z</time>
      </trkpt>
      <trkpt lat="44.7661" lon="5.04598">
        <ele>380</ele>
        <time>2020-02-07T13:17:53.000Z</time>
      </trkpt>
      <trkpt lat="44.76609" lon="5.04599">
        <ele>380</ele>
        <time>2020-02-07T13:17:54.000Z</time>
      </trkpt>
      <trkpt lat="44.76608" lon="5.04599">
        <ele>380</ele>
        <time>2020-02-07T13:17:55.000Z</time>
      </trkpt>
      <trkpt lat="44.76606" lon="5.04599">
        <ele>380</ele>
        <time>2020-02-07T13:17:56.000Z</time>
      </trkpt>
      <trkpt lat="44.76605" lon="5.04599">
        <ele>380</ele>
        <time>2020-02-07T13:17:57.000Z</time>
      </trkpt>
      <trkpt lat="44.76604" lon="5.046">
        <ele>380</ele>
        <time>2020-02-07T13:17:58.000Z</time>
      </trkpt>
      <trkpt lat="44.76603" lon="5.046">
        <ele>380</ele>
        <time>2020-02-07T13:17:59.000Z</time>
      </trkpt>
      <trkpt lat="44.76602" lon="5.046">
        <ele>380</ele>
        <time>2020-02-07T13:18:00.000Z</time>
      </trkpt>
      <trkpt lat="44.76601" lon="5.04601">
        <ele>379</ele>
        <time>2020-02-07T13:18:01.000Z</time>
      </trkpt>
      <trkpt lat="44.76599" lon="5.04601">
        <ele>379</ele>
        <time>2020-02-07T13:18:02.000Z</time>
      </trkpt>
      <trkpt lat="44.76598" lon="5.04602">
        <ele>379</ele>
        <time>2020-02-07T13:18:03.000Z</time>
      </trkpt>
      <trkpt lat="44.76596" lon="5.04602">
        <ele>379</ele>
        <time>2020-02-07T13:18:04.000Z</time>
      </trkpt>
      <trkpt lat="44.76595" lon="5.04602">
        <ele>379</ele>
        <time>2020-02-07T13:18:05.000Z</time>
      </trkpt>
      <trkpt lat="44.76594" lon="5.04603">
        <ele>379</ele>
        <time>2020-02-07T13:18:06.000Z</time>
      </trkpt>
      <trkpt lat="44.76592" lon="5.04603">
        <ele>379</ele>
        <time>2020-02-07T13:18:07.000Z</time>
      </trkpt>
      <trkpt lat="44.76591" lon="5.04603">
        <ele>379</ele>
        <time>2020-02-07T13:18:08.000Z</time>
      </trkpt>
      <trkpt lat="44.7659" lon="5.04603">
        <ele>379</ele>
        <time>2020-02-07T13:18:09.000Z</time>
      </trkpt>
      <trkpt lat="44.76589" lon="5.04603">
        <ele>378</ele>
        <time>2020-02-07T13:18:10.000Z</time>
      </trkpt>
      <trkpt lat="44.76588" lon="5.04604">
        <ele>378</ele>
        <time>2020-02-07T13:18:11.000Z</time>
      </trkpt>
      <trkpt lat="44.76587" lon="5.04604">
        <ele>378</ele>
        <time>2020-02-07T13:18:12.000Z</time>
      </trkpt>
      <trkpt lat="44.76586" lon="5.04605">
        <ele>378</ele>
        <time>2020-02-07T13:18:13.000Z</time>
      </trkpt>
      <trkpt lat="44.76585" lon="5.04605">
        <ele>378</ele>
        <time>2020-02-07T13:18:14.000Z</time>
      </trkpt>
      <trkpt lat="44.76583" lon="5.04605">
        <ele>378</ele>
        <time>2020-02-07T13:18:15.000Z</time>
      </trkpt>
      <trkpt lat="44.76582" lon="5.04606">
        <ele>378</ele>
        <time>2020-02-07T13:18:16.000Z</time>
      </trkpt>
      <trkpt lat="44.76581" lon="5.04606">
        <ele>378</ele>
        <time>2020-02-07T13:18:17.000Z</time>
      </trkpt>
      <trkpt lat="44.7658" lon="5.04606">
        <ele>378</ele>
        <time>2020-02-07T13:18:18.000Z</time>
      </trkpt>
      <trkpt lat="44.76579" lon="5.04607">
        <ele>378</ele>
        <time>2020-02-07T13:18:19.000Z</time>
      </trkpt>
      <trkpt lat="44.76578" lon="5.04607">
        <ele>378</ele>
        <time>2020-02-07T13:18:20.000Z</time>
      </trkpt>
      <trkpt lat="44.76576" lon="5.04606">
        <ele>378</ele>
        <time>2020-02-07T13:18:21.000Z</time>
      </trkpt>
      <trkpt lat="44.76575" lon="5.04606">
        <ele>378</ele>
        <time>2020-02-07T13:18:22.000Z</time>
      </trkpt>
      <trkpt lat="44.76574" lon="5.04606">
        <ele>377</ele>
        <time>2020-02-07T13:18:23.000Z</time>
      </trkpt>
      <trkpt lat="44.76573" lon="5.04606">
        <ele>377</ele>
        <time>2020-02-07T13:18:24.000Z</time>
      </trkpt>
      <trkpt lat="44.76572" lon="5.04606">
        <ele>377</ele>
        <time>2020-02-07T13:18:25.000Z</time>
      </trkpt>
      <trkpt lat="44.76571" lon="5.04607">
        <ele>377</ele>
        <time>2020-02-07T13:18:26.000Z</time>
      </trkpt>
      <trkpt lat="44.7657" lon="5.04606">
        <ele>377</ele>
        <time>2020-02-07T13:18:27.000Z</time>
      </trkpt>
      <trkpt lat="44.76569" lon="5.04606">
        <ele>377</ele>
        <time>2020-02-07T13:18:28.000Z</time>
      </trkpt>
      <trkpt lat="44.76568" lon="5.04607">
        <ele>377</ele>
        <time>2020-02-07T13:18:29.000Z</time>
      </trkpt>
      <trkpt lat="44.76567" lon="5.04606">
        <ele>377</ele>
        <time>2020-02-07T13:18:30.000Z</time>
      </trkpt>
      <trkpt lat="44.76566" lon="5.04606">
        <ele>377</ele>
        <time>2020-02-07T13:18:31.000Z</time>
      </trkpt>
      <trkpt lat="44.76565" lon="5.04607">
        <ele>377</ele>
        <time>2020-02-07T13:18:32.000Z</time>
      </trkpt>
      <trkpt lat="44.76564" lon="5.04607">
        <ele>377</ele>
        <time>2020-02-07T13:18:33.000Z</time>
      </trkpt>
      <trkpt lat="44.76562" lon="5.04607">
        <ele>376</ele>
        <time>2020-02-07T13:18:34.000Z</time>
      </trkpt>
      <trkpt lat="44.76561" lon="5.04607">
        <ele>376</ele>
        <time>2020-02-07T13:18:35.000Z</time>
      </trkpt>
      <trkpt lat="44.7656" lon="5.04607">
        <ele>377</ele>
        <time>2020-02-07T13:18:36.000Z</time>
      </trkpt>
      <trkpt lat="44.76559" lon="5.04607">
        <ele>377</ele>
        <time>2020-02-07T13:18:37.000Z</time>
      </trkpt>
      <trkpt lat="44.76558" lon="5.04606">
        <ele>377</ele>
        <time>2020-02-07T13:18:38.000Z</time>
      </trkpt>
      <trkpt lat="44.76557" lon="5.04606">
        <ele>377</ele>
        <time>2020-02-07T13:18:39.000Z</time>
      </trkpt>
      <trkpt lat="44.76556" lon="5.04606">
        <ele>376</ele>
        <time>2020-02-07T13:18:40.000Z</time>
      </trkpt>
      <trkpt lat="44.76554" lon="5.04606">
        <ele>376</ele>
        <time>2020-02-07T13:18:41.000Z</time>
      </trkpt>
      <trkpt lat="44.76553" lon="5.04606">
        <ele>376</ele>
        <time>2020-02-07T13:18:42.000Z</time>
      </trkpt>
      <trkpt lat="44.76553" lon="5.04606">
        <ele>376</ele>
        <time>2020-02-07T13:18:43.000Z</time>
      </trkpt>
      <trkpt lat="44.76551" lon="5.04606">
        <ele>376</ele>
        <time>2020-02-07T13:18:44.000Z</time>
      </trkpt>
      <trkpt lat="44.7655" lon="5.04606">
        <ele>376</ele>
        <time>2020-02-07T13:18:45.000Z</time>
      </trkpt>
      <trkpt lat="44.76549" lon="5.04605">
        <ele>376</ele>
        <time>2020-02-07T13:18:46.000Z</time>
      </trkpt>
      <trkpt lat="44.76548" lon="5.04605">
        <ele>376</ele>
        <time>2020-02-07T13:18:47.000Z</time>
      </trkpt>
      <trkpt lat="44.76547" lon="5.04605">
        <ele>376</ele>
        <time>2020-02-07T13:18:48.000Z</time>
      </trkpt>
      <trkpt lat="44.76546" lon="5.04605">
        <ele>376</ele>
        <time>2020-02-07T13:18:49.000Z</time>
      </trkpt>
      <trkpt lat="44.76545" lon="5.04605">
        <ele>376</ele>
        <time>2020-02-07T13:18:50.000Z</time>
      </trkpt>
      <trkpt lat="44.76544" lon="5.04605">
        <ele>376</ele>
        <time>2020-02-07T13:18:51.000Z</time>
      </trkpt>
      <trkpt lat="44.76542" lon="5.04605">
        <ele>376</ele>
        <time>2020-02-07T13:18:52.000Z</time>
      </trkpt>
      <trkpt lat="44.76541" lon="5.04604">
        <ele>376</ele>
        <time>2020-02-07T13:18:53.000Z</time>
      </trkpt>
      <trkpt lat="44.7654" lon="5.04604">
        <ele>376</ele>
        <time>2020-02-07T13:18:54.000Z</time>
      </trkpt>
      <trkpt lat="44.76539" lon="5.04604">
        <ele>376</ele>
        <time>2020-02-07T13:18:55.000Z</time>
      </trkpt>
      <trkpt lat="44.76538" lon="5.04604">
        <ele>376</ele>
        <time>2020-02-07T13:18:56.000Z</time>
      </trkpt>
      <trkpt lat="44.76537" lon="5.04604">
        <ele>376</ele>
        <time>2020-02-07T13:18:57.000Z</time>
      </trkpt>
      <trkpt lat="44.76536" lon="5.04604">
        <ele>376</ele>
        <time>2020-02-07T13:18:58.000Z</time>
      </trkpt>
      <trkpt lat="44.76535" lon="5.04604">
        <ele>376</ele>
        <time>2020-02-07T13:18:59.000Z</time>
      </trkpt>
      <trkpt lat="44.76534" lon="5.04603">
        <ele>376</ele>
        <time>2020-02-07T13:19:00.000Z</time>
      </trkpt>
      <trkpt lat="44.76533" lon="5.04603">
        <ele>376</ele>
        <time>2020-02-07T13:19:01.000Z</time>
      </trkpt>
      <trkpt lat="44.76531" lon="5.04602">
        <ele>376</ele>
        <time>2020-02-07T13:19:02.000Z</time>
      </trkpt>
      <trkpt lat="44.7653" lon="5.04602">
        <ele>376</ele>
        <time>2020-02-07T13:19:03.000Z</time>
      </trkpt>
      <trkpt lat="44.76529" lon="5.04603">
        <ele>376</ele>
        <time>2020-02-07T13:19:04.000Z</time>
      </trkpt>
      <trkpt lat="44.76528" lon="5.04602">
        <ele>376</ele>
        <time>2020-02-07T13:19:05.000Z</time>
      </trkpt>
      <trkpt lat="44.76527" lon="5.04602">
        <ele>376</ele>
        <time>2020-02-07T13:19:06.000Z</time>
      </trkpt>
      <trkpt lat="44.76526" lon="5.04602">
        <ele>376</ele>
        <time>2020-02-07T13:19:07.000Z</time>
      </trkpt>
      <trkpt lat="44.76525" lon="5.04601">
        <ele>375</ele>
        <time>2020-02-07T13:19:08.000Z</time>
      </trkpt>
      <trkpt lat="44.76523" lon="5.04601">
        <ele>375</ele>
        <time>2020-02-07T13:19:09.000Z</time>
      </trkpt>
      <trkpt lat="44.76522" lon="5.046">
        <ele>375</ele>
        <time>2020-02-07T13:19:10.000Z</time>
      </trkpt>
      <trkpt lat="44.76521" lon="5.046">
        <ele>375</ele>
        <time>2020-02-07T13:19:11.000Z</time>
      </trkpt>
      <trkpt lat="44.76519" lon="5.04599">
        <ele>375</ele>
        <time>2020-02-07T13:19:12.000Z</time>
      </trkpt>
      <trkpt lat="44.76518" lon="5.04599">
        <ele>375</ele>
        <time>2020-02-07T13:19:13.000Z</time>
      </trkpt>
      <trkpt lat="44.76517" lon="5.046">
        <ele>374</ele>
        <time>2020-02-07T13:19:14.000Z</time>
      </trkpt>
      <trkpt lat="44.76516" lon="5.046">
        <ele>374</ele>
        <time>2020-02-07T13:19:15.000Z</time>
      </trkpt>
      <trkpt lat="44.76515" lon="5.046">
        <ele>374</ele>
        <time>2020-02-07T13:19:16.000Z</time>
      </trkpt>
      <trkpt lat="44.76514" lon="5.04599">
        <ele>374</ele>
        <time>2020-02-07T13:19:17.000Z</time>
      </trkpt>
      <trkpt lat="44.76514" lon="5.04599">
        <ele>374</ele>
        <time>2020-02-07T13:19:18.000Z</time>
      </trkpt>
      <trkpt lat="44.76513" lon="5.04599">
        <ele>373</ele>
        <time>2020-02-07T13:19:19.000Z</time>
      </trkpt>
      <trkpt lat="44.76512" lon="5.04599">
        <ele>373</ele>
        <time>2020-02-07T13:19:20.000Z</time>
      </trkpt>
      <trkpt lat="44.76511" lon="5.04599">
        <ele>373</ele>
        <time>2020-02-07T13:19:21.000Z</time>
      </trkpt>
      <trkpt lat="44.7651" lon="5.04599">
        <ele>373</ele>
        <time>2020-02-07T13:19:22.000Z</time>
      </trkpt>
      <trkpt lat="44.76509" lon="5.04598">
        <ele>372</ele>
        <time>2020-02-07T13:19:23.000Z</time>
      </trkpt>
      <trkpt lat="44.76508" lon="5.04598">
        <ele>372</ele>
        <time>2020-02-07T13:19:24.000Z</time>
      </trkpt>
      <trkpt lat="44.76507" lon="5.04598">
        <ele>372</ele>
        <time>2020-02-07T13:19:25.000Z</time>
      </trkpt>
      <trkpt lat="44.76505" lon="5.04598">
        <ele>372</ele>
        <time>2020-02-07T13:19:26.000Z</time>
      </trkpt>
      <trkpt lat="44.76504" lon="5.04598">
        <ele>372</ele>
        <time>2020-02-07T13:19:27.000Z</time>
      </trkpt>
      <trkpt lat="44.76503" lon="5.04598">
        <ele>371</ele>
        <time>2020-02-07T13:19:28.000Z</time>
      </trkpt>
      <trkpt lat="44.76501" lon="5.04598">
        <ele>371</ele>
        <time>2020-02-07T13:19:29.000Z</time>
      </trkpt>
      <trkpt lat="44.765" lon="5.04597">
        <ele>371</ele>
        <time>2020-02-07T13:19:30.000Z</time>
      </trkpt>
      <trkpt lat="44.76499" lon="5.04597">
        <ele>371</ele>
        <time>2020-02-07T13:19:31.000Z</time>
      </trkpt>
      <trkpt lat="44.76498" lon="5.04596">
        <ele>370</ele>
        <time>2020-02-07T13:19:32.000Z</time>
      </trkpt>
      <trkpt lat="44.76497" lon="5.04596">
        <ele>370</ele>
        <time>2020-02-07T13:19:33.000Z</time>
      </trkpt>
      <trkpt lat="44.76496" lon="5.04595">
        <ele>370</ele>
        <time>2020-02-07T13:19:34.000Z</time>
      </trkpt>
      <trkpt lat="44.76494" lon="5.04595">
        <ele>370</ele>
        <time>2020-02-07T13:19:35.000Z</time>
      </trkpt>
      <trkpt lat="44.76493" lon="5.04594">
        <ele>370</ele>
        <time>2020-02-07T13:19:36.000Z</time>
      </trkpt>
      <trkpt lat="44.76492" lon="5.04594">
        <ele>370</ele>
        <time>2020-02-07T13:19:37.000Z</time>
      </trkpt>
      <trkpt lat="44.76491" lon="5.04595">
        <ele>370</ele>
        <time>2020-02-07T13:19:38.000Z</time>
      </trkpt>
      <trkpt lat="44.7649" lon="5.04595">
        <ele>370</ele>
        <time>2020-02-07T13:19:39.000Z</time>
      </trkpt>
      <trkpt lat="44.76489" lon="5.04594">
        <ele>369</ele>
        <time>2020-02-07T13:19:40.000Z</time>
      </trkpt>
      <trkpt lat="44.76488" lon="5.04594">
        <ele>369</ele>
        <time>2020-02-07T13:19:41.000Z</time>
      </trkpt>
      <trkpt lat="44.76487" lon="5.04594">
        <ele>369</ele>
        <time>2020-02-07T13:19:42.000Z</time>
      </trkpt>
      <trkpt lat="44.76486" lon="5.04593">
        <ele>369</ele>
        <time>2020-02-07T13:19:43.000Z</time>
      </trkpt>
      <trkpt lat="44.76485" lon="5.04593">
        <ele>369</ele>
        <time>2020-02-07T13:19:44.000Z</time>
      </trkpt>
      <trkpt lat="44.76484" lon="5.04593">
        <ele>369</ele>
        <time>2020-02-07T13:19:45.000Z</time>
      </trkpt>
      <trkpt lat="44.76483" lon="5.04592">
        <ele>369</ele>
        <time>2020-02-07T13:19:46.000Z</time>
      </trkpt>
      <trkpt lat="44.76482" lon="5.04592">
        <ele>369</ele>
        <time>2020-02-07T13:19:47.000Z</time>
      </trkpt>
      <trkpt lat="44.76481" lon="5.04592">
        <ele>369</ele>
        <time>2020-02-07T13:19:48.000Z</time>
      </trkpt>
      <trkpt lat="44.76479" lon="5.04592">
        <ele>368</ele>
        <time>2020-02-07T13:19:49.000Z</time>
      </trkpt>
      <trkpt lat="44.76478" lon="5.04592">
        <ele>368</ele>
        <time>2020-02-07T13:19:50.000Z</time>
      </trkpt>
      <trkpt lat="44.76477" lon="5.04591">
        <ele>368</ele>
        <time>2020-02-07T13:19:51.000Z</time>
      </trkpt>
      <trkpt lat="44.76476" lon="5.04591">
        <ele>368</ele>
        <time>2020-02-07T13:19:52.000Z</time>
      </trkpt>
      <trkpt lat="44.76475" lon="5.04591">
        <ele>368</ele>
        <time>2020-02-07T13:19:53.000Z</time>
      </trkpt>
      <trkpt lat="44.76474" lon="5.04591">
        <ele>368</ele>
        <time>2020-02-07T13:19:54.000Z</time>
      </trkpt>
      <trkpt lat="44.76472" lon="5.04591">
        <ele>368</ele>
        <time>2020-02-07T13:19:55.000Z</time>
      </trkpt>
      <trkpt lat="44.76471" lon="5.04591">
        <ele>368</ele>
        <time>2020-02-07T13:19:56.000Z</time>
      </trkpt>
      <trkpt lat="44.7647" lon="5.04591">
        <ele>368</ele>
        <time>2020-02-07T13:19:57.000Z</time>
      </trkpt>
      <trkpt lat="44.76469" lon="5.04591">
        <ele>367</ele>
        <time>2020-02-07T13:19:58.000Z</time>
      </trkpt>
      <trkpt lat="44.76468" lon="5.04591">
        <ele>367</ele>
        <time>2020-02-07T13:19:59.000Z</time>
      </trkpt>
      <trkpt lat="44.76467" lon="5.04591">
        <ele>367</ele>
        <time>2020-02-07T13:20:00.000Z</time>
      </trkpt>
      <trkpt lat="44.76466" lon="5.04591">
        <ele>367</ele>
        <time>2020-02-07T13:20:01.000Z</time>
      </trkpt>
      <trkpt lat="44.76465" lon="5.04591">
        <ele>367</ele>
        <time>2020-02-07T13:20:02.000Z</time>
      </trkpt>
      <trkpt lat="44.76464" lon="5.04591">
        <ele>367</ele>
        <time>2020-02-07T13:20:03.000Z</time>
      </trkpt>
      <trkpt lat="44.76463" lon="5.04591">
        <ele>367</ele>
        <time>2020-02-07T13:20:04.000Z</time>
      </trkpt>
      <trkpt lat="44.76461" lon="5.04591">
        <ele>367</ele>
        <time>2020-02-07T13:20:05.000Z</time>
      </trkpt>
      <trkpt lat="44.7646" lon="5.04591">
        <ele>367</ele>
        <time>2020-02-07T13:20:06.000Z</time>
      </trkpt>
      <trkpt lat="44.76459" lon="5.04591">
        <ele>367</ele>
        <time>2020-02-07T13:20:07.000Z</time>
      </trkpt>
      <trkpt lat="44.76458" lon="5.04591">
        <ele>367</ele>
        <time>2020-02-07T13:20:08.000Z</time>
      </trkpt>
      <trkpt lat="44.76457" lon="5.04591">
        <ele>366</ele>
        <time>2020-02-07T13:20:09.000Z</time>
      </trkpt>
      <trkpt lat="44.76455" lon="5.04591">
        <ele>366</ele>
        <time>2020-02-07T13:20:10.000Z</time>
      </trkpt>
      <trkpt lat="44.76454" lon="5.04591">
        <ele>366</ele>
        <time>2020-02-07T13:20:11.000Z</time>
      </trkpt>
      <trkpt lat="44.76453" lon="5.04591">
        <ele>366</ele>
        <time>2020-02-07T13:20:12.000Z</time>
      </trkpt>
      <trkpt lat="44.76452" lon="5.04591">
        <ele>366</ele>
        <time>2020-02-07T13:20:13.000Z</time>
      </trkpt>
      <trkpt lat="44.7645" lon="5.04591">
        <ele>366</ele>
        <time>2020-02-07T13:20:14.000Z</time>
      </trkpt>
      <trkpt lat="44.76449" lon="5.0459">
        <ele>366</ele>
        <time>2020-02-07T13:20:15.000Z</time>
      </trkpt>
      <trkpt lat="44.76448" lon="5.0459">
        <ele>366</ele>
        <time>2020-02-07T13:20:16.000Z</time>
      </trkpt>
      <trkpt lat="44.76447" lon="5.04589">
        <ele>366</ele>
        <time>2020-02-07T13:20:17.000Z</time>
      </trkpt>
      <trkpt lat="44.76445" lon="5.04589">
        <ele>366</ele>
        <time>2020-02-07T13:20:18.000Z</time>
      </trkpt>
      <trkpt lat="44.76445" lon="5.04589">
        <ele>366</ele>
        <time>2020-02-07T13:20:19.000Z</time>
      </trkpt>
      <trkpt lat="44.76443" lon="5.04588">
        <ele>366</ele>
        <time>2020-02-07T13:20:20.000Z</time>
      </trkpt>
      <trkpt lat="44.76442" lon="5.04588">
        <ele>366</ele>
        <time>2020-02-07T13:20:21.000Z</time>
      </trkpt>
      <trkpt lat="44.76441" lon="5.04588">
        <ele>366</ele>
        <time>2020-02-07T13:20:22.000Z</time>
      </trkpt>
      <trkpt lat="44.7644" lon="5.04588">
        <ele>366</ele>
        <time>2020-02-07T13:20:23.000Z</time>
      </trkpt>
      <trkpt lat="44.76439" lon="5.04588">
        <ele>366</ele>
        <time>2020-02-07T13:20:24.000Z</time>
      </trkpt>
      <trkpt lat="44.76438" lon="5.04588">
        <ele>366</ele>
        <time>2020-02-07T13:20:25.000Z</time>
      </trkpt>
      <trkpt lat="44.76437" lon="5.04588">
        <ele>366</ele>
        <time>2020-02-07T13:20:26.000Z</time>
      </trkpt>
      <trkpt lat="44.76435" lon="5.04588">
        <ele>366</ele>
        <time>2020-02-07T13:20:27.000Z</time>
      </trkpt>
      <trkpt lat="44.76434" lon="5.04589">
        <ele>366</ele>
        <time>2020-02-07T13:20:28.000Z</time>
      </trkpt>
      <trkpt lat="44.76433" lon="5.04589">
        <ele>366</ele>
        <time>2020-02-07T13:20:29.000Z</time>
      </trkpt>
      <trkpt lat="44.76432" lon="5.04589">
        <ele>366</ele>
        <time>2020-02-07T13:20:30.000Z</time>
      </trkpt>
      <trkpt lat="44.76432" lon="5.04589">
        <ele>366</ele>
        <time>2020-02-07T13:20:31.000Z</time>
      </trkpt>
      <trkpt lat="44.76431" lon="5.0459">
        <ele>366</ele>
        <time>2020-02-07T13:20:32.000Z</time>
      </trkpt>
      <trkpt lat="44.7643" lon="5.0459">
        <ele>366</ele>
        <time>2020-02-07T13:20:33.000Z</time>
      </trkpt>
      <trkpt lat="44.76429" lon="5.0459">
        <ele>366</ele>
        <time>2020-02-07T13:20:34.000Z</time>
      </trkpt>
      <trkpt lat="44.76429" lon="5.04589">
        <ele>366</ele>
        <time>2020-02-07T13:20:35.000Z</time>
      </trkpt>
      <trkpt lat="44.76428" lon="5.04589">
        <ele>365</ele>
        <time>2020-02-07T13:20:36.000Z</time>
      </trkpt>
      <trkpt lat="44.76428" lon="5.04589">
        <ele>365</ele>
        <time>2020-02-07T13:20:37.000Z</time>
      </trkpt>
      <trkpt lat="44.76428" lon="5.04589">
        <ele>365</ele>
        <time>2020-02-07T13:20:38.000Z</time>
      </trkpt>
      <trkpt lat="44.76428" lon="5.04589">
        <ele>365</ele>
        <time>2020-02-07T13:20:39.000Z</time>
      </trkpt>
      <trkpt lat="44.76428" lon="5.04589">
        <ele>365</ele>
        <time>2020-02-07T13:20:40.000Z</time>
      </trkpt>
      <trkpt lat="44.76428" lon="5.04588">
        <ele>365</ele>
        <time>2020-02-07T13:20:41.000Z</time>
      </trkpt>
      <trkpt lat="44.76428" lon="5.04588">
        <ele>365</ele>
        <time>2020-02-07T13:20:42.000Z</time>
      </trkpt>
      <trkpt lat="44.76428" lon="5.04587">
        <ele>365</ele>
        <time>2020-02-07T13:20:43.000Z</time>
      </trkpt>
      <trkpt lat="44.76428" lon="5.04586">
        <ele>364</ele>
        <time>2020-02-07T13:20:44.000Z</time>
      </trkpt>
      <trkpt lat="44.76429" lon="5.04585">
        <ele>364</ele>
        <time>2020-02-07T13:20:45.000Z</time>
      </trkpt>
      <trkpt lat="44.7643" lon="5.04585">
        <ele>364</ele>
        <time>2020-02-07T13:20:46.000Z</time>
      </trkpt>
      <trkpt lat="44.7643" lon="5.04585">
        <ele>364</ele>
        <time>2020-02-07T13:20:47.000Z</time>
      </trkpt>
      <trkpt lat="44.76431" lon="5.04584">
        <ele>364</ele>
        <time>2020-02-07T13:20:48.000Z</time>
      </trkpt>
      <trkpt lat="44.76431" lon="5.04583">
        <ele>364</ele>
        <time>2020-02-07T13:20:49.000Z</time>
      </trkpt>
      <trkpt lat="44.76431" lon="5.04583">
        <ele>364</ele>
        <time>2020-02-07T13:20:50.000Z</time>
      </trkpt>
      <trkpt lat="44.76432" lon="5.04582">
        <ele>363</ele>
        <time>2020-02-07T13:20:51.000Z</time>
      </trkpt>
      <trkpt lat="44.76432" lon="5.04582">
        <ele>363</ele>
        <time>2020-02-07T13:20:52.000Z</time>
      </trkpt>
      <trkpt lat="44.76432" lon="5.04581">
        <ele>363</ele>
        <time>2020-02-07T13:20:53.000Z</time>
      </trkpt>
      <trkpt lat="44.76433" lon="5.0458">
        <ele>363</ele>
        <time>2020-02-07T13:20:54.000Z</time>
      </trkpt>
      <trkpt lat="44.76433" lon="5.0458">
        <ele>363</ele>
        <time>2020-02-07T13:20:55.000Z</time>
      </trkpt>
      <trkpt lat="44.76433" lon="5.0458">
        <ele>363</ele>
        <time>2020-02-07T13:20:56.000Z</time>
      </trkpt>
      <trkpt lat="44.76433" lon="5.04579">
        <ele>363</ele>
        <time>2020-02-07T13:20:57.000Z</time>
      </trkpt>
      <trkpt lat="44.76434" lon="5.04579">
        <ele>362</ele>
        <time>2020-02-07T13:20:58.000Z</time>
      </trkpt>
      <trkpt lat="44.76434" lon="5.04578">
        <ele>362</ele>
        <time>2020-02-07T13:20:59.000Z</time>
      </trkpt>
      <trkpt lat="44.76435" lon="5.04578">
        <ele>362</ele>
        <time>2020-02-07T13:21:00.000Z</time>
      </trkpt>
      <trkpt lat="44.76435" lon="5.04577">
        <ele>362</ele>
        <time>2020-02-07T13:21:01.000Z</time>
      </trkpt>
      <trkpt lat="44.76436" lon="5.04577">
        <ele>362</ele>
        <time>2020-02-07T13:21:02.000Z</time>
      </trkpt>
      <trkpt lat="44.76437" lon="5.04576">
        <ele>362</ele>
        <time>2020-02-07T13:21:03.000Z</time>
      </trkpt>
      <trkpt lat="44.76438" lon="5.04576">
        <ele>362</ele>
        <time>2020-02-07T13:21:04.000Z</time>
      </trkpt>
      <trkpt lat="44.76439" lon="5.04575">
        <ele>362</ele>
        <time>2020-02-07T13:21:05.000Z</time>
      </trkpt>
      <trkpt lat="44.7644" lon="5.04575">
        <ele>361</ele>
        <time>2020-02-07T13:21:06.000Z</time>
      </trkpt>
      <trkpt lat="44.76441" lon="5.04575">
        <ele>361</ele>
        <time>2020-02-07T13:21:07.000Z</time>
      </trkpt>
      <trkpt lat="44.76441" lon="5.04574">
        <ele>361</ele>
        <time>2020-02-07T13:21:08.000Z</time>
      </trkpt>
      <trkpt lat="44.76442" lon="5.04574">
        <ele>361</ele>
        <time>2020-02-07T13:21:09.000Z</time>
      </trkpt>
      <trkpt lat="44.76442" lon="5.04574">
        <ele>361</ele>
        <time>2020-02-07T13:21:10.000Z</time>
      </trkpt>
      <trkpt lat="44.76443" lon="5.04574">
        <ele>361</ele>
        <time>2020-02-07T13:21:11.000Z</time>
      </trkpt>
      <trkpt lat="44.76444" lon="5.04574">
        <ele>361</ele>
        <time>2020-02-07T13:21:12.000Z</time>
      </trkpt>
      <trkpt lat="44.76445" lon="5.04574">
        <ele>361</ele>
        <time>2020-02-07T13:21:13.000Z</time>
      </trkpt>
      <trkpt lat="44.76446" lon="5.04574">
        <ele>361</ele>
        <time>2020-02-07T13:21:14.000Z</time>
      </trkpt>
      <trkpt lat="44.76447" lon="5.04573">
        <ele>361</ele>
        <time>2020-02-07T13:21:15.000Z</time>
      </trkpt>
      <trkpt lat="44.76448" lon="5.04573">
        <ele>360</ele>
        <time>2020-02-07T13:21:16.000Z</time>
      </trkpt>
      <trkpt lat="44.76448" lon="5.04574">
        <ele>360</ele>
        <time>2020-02-07T13:21:17.000Z</time>
      </trkpt>
      <trkpt lat="44.76449" lon="5.04574">
        <ele>360</ele>
        <time>2020-02-07T13:21:18.000Z</time>
      </trkpt>
      <trkpt lat="44.76449" lon="5.04574">
        <ele>360</ele>
        <time>2020-02-07T13:21:19.000Z</time>
      </trkpt>
      <trkpt lat="44.7645" lon="5.04573">
        <ele>360</ele>
        <time>2020-02-07T13:21:20.000Z</time>
      </trkpt>
      <trkpt lat="44.7645" lon="5.04572">
        <ele>360</ele>
        <time>2020-02-07T13:21:21.000Z</time>
      </trkpt>
      <trkpt lat="44.76451" lon="5.04572">
        <ele>359</ele>
        <time>2020-02-07T13:21:22.000Z</time>
      </trkpt>
      <trkpt lat="44.76451" lon="5.04572">
        <ele>359</ele>
        <time>2020-02-07T13:21:23.000Z</time>
      </trkpt>
      <trkpt lat="44.76452" lon="5.04571">
        <ele>359</ele>
        <time>2020-02-07T13:21:24.000Z</time>
      </trkpt>
      <trkpt lat="44.76453" lon="5.04571">
        <ele>359</ele>
        <time>2020-02-07T13:21:25.000Z</time>
      </trkpt>
      <trkpt lat="44.76454" lon="5.04571">
        <ele>358</ele>
        <time>2020-02-07T13:21:26.000Z</time>
      </trkpt>
      <trkpt lat="44.76455" lon="5.0457">
        <ele>358</ele>
        <time>2020-02-07T13:21:27.000Z</time>
      </trkpt>
      <trkpt lat="44.76455" lon="5.0457">
        <ele>358</ele>
        <time>2020-02-07T13:21:28.000Z</time>
      </trkpt>
      <trkpt lat="44.76456" lon="5.04569">
        <ele>358</ele>
        <time>2020-02-07T13:21:29.000Z</time>
      </trkpt>
      <trkpt lat="44.76457" lon="5.04568">
        <ele>358</ele>
        <time>2020-02-07T13:21:30.000Z</time>
      </trkpt>
      <trkpt lat="44.76458" lon="5.04567">
        <ele>357</ele>
        <time>2020-02-07T13:21:31.000Z</time>
      </trkpt>
      <trkpt lat="44.76458" lon="5.04565">
        <ele>357</ele>
        <time>2020-02-07T13:21:32.000Z</time>
      </trkpt>
      <trkpt lat="44.76459" lon="5.04564">
        <ele>356</ele>
        <time>2020-02-07T13:21:33.000Z</time>
      </trkpt>
      <trkpt lat="44.7646" lon="5.04564">
        <ele>356</ele>
        <time>2020-02-07T13:21:34.000Z</time>
      </trkpt>
      <trkpt lat="44.7646" lon="5.04563">
        <ele>355</ele>
        <time>2020-02-07T13:21:35.000Z</time>
      </trkpt>
      <trkpt lat="44.76461" lon="5.04562">
        <ele>355</ele>
        <time>2020-02-07T13:21:36.000Z</time>
      </trkpt>
      <trkpt lat="44.76461" lon="5.04561">
        <ele>355</ele>
        <time>2020-02-07T13:21:37.000Z</time>
      </trkpt>
      <trkpt lat="44.76461" lon="5.0456">
        <ele>355</ele>
        <time>2020-02-07T13:21:38.000Z</time>
      </trkpt>
      <trkpt lat="44.76462" lon="5.0456">
        <ele>354</ele>
        <time>2020-02-07T13:21:39.000Z</time>
      </trkpt>
      <trkpt lat="44.76462" lon="5.04559">
        <ele>354</ele>
        <time>2020-02-07T13:21:40.000Z</time>
      </trkpt>
      <trkpt lat="44.76462" lon="5.04559">
        <ele>354</ele>
        <time>2020-02-07T13:21:41.000Z</time>
      </trkpt>
      <trkpt lat="44.76462" lon="5.04558">
        <ele>354</ele>
        <time>2020-02-07T13:21:42.000Z</time>
      </trkpt>
      <trkpt lat="44.76463" lon="5.04557">
        <ele>354</ele>
        <time>2020-02-07T13:21:43.000Z</time>
      </trkpt>
      <trkpt lat="44.76463" lon="5.04556">
        <ele>353</ele>
        <time>2020-02-07T13:21:44.000Z</time>
      </trkpt>
      <trkpt lat="44.76463" lon="5.04556">
        <ele>353</ele>
        <time>2020-02-07T13:21:45.000Z</time>
      </trkpt>
      <trkpt lat="44.76463" lon="5.04555">
        <ele>353</ele>
        <time>2020-02-07T13:21:46.000Z</time>
      </trkpt>
      <trkpt lat="44.76463" lon="5.04554">
        <ele>352</ele>
        <time>2020-02-07T13:21:47.000Z</time>
      </trkpt>
      <trkpt lat="44.76464" lon="5.04552">
        <ele>352</ele>
        <time>2020-02-07T13:21:48.000Z</time>
      </trkpt>
      <trkpt lat="44.76464" lon="5.04551">
        <ele>352</ele>
        <time>2020-02-07T13:21:49.000Z</time>
      </trkpt>
      <trkpt lat="44.76464" lon="5.0455">
        <ele>352</ele>
        <time>2020-02-07T13:21:50.000Z</time>
      </trkpt>
      <trkpt lat="44.76465" lon="5.04549">
        <ele>351</ele>
        <time>2020-02-07T13:21:51.000Z</time>
      </trkpt>
      <trkpt lat="44.76465" lon="5.04547">
        <ele>351</ele>
        <time>2020-02-07T13:21:52.000Z</time>
      </trkpt>
      <trkpt lat="44.76465" lon="5.04546">
        <ele>350</ele>
        <time>2020-02-07T13:21:53.000Z</time>
      </trkpt>
      <trkpt lat="44.76465" lon="5.04545">
        <ele>350</ele>
        <time>2020-02-07T13:21:54.000Z</time>
      </trkpt>
      <trkpt lat="44.76465" lon="5.04543">
        <ele>349</ele>
        <time>2020-02-07T13:21:55.000Z</time>
      </trkpt>
      <trkpt lat="44.76464" lon="5.04542">
        <ele>349</ele>
        <time>2020-02-07T13:21:56.000Z</time>
      </trkpt>
      <trkpt lat="44.76464" lon="5.04541">
        <ele>348</ele>
        <time>2020-02-07T13:21:57.000Z</time>
      </trkpt>
      <trkpt lat="44.76463" lon="5.04541">
        <ele>348</ele>
        <time>2020-02-07T13:21:58.000Z</time>
      </trkpt>
      <trkpt lat="44.76463" lon="5.0454">
        <ele>348</ele>
        <time>2020-02-07T13:21:59.000Z</time>
      </trkpt>
      <trkpt lat="44.76463" lon="5.04539">
        <ele>347</ele>
        <time>2020-02-07T13:22:00.000Z</time>
      </trkpt>
      <trkpt lat="44.76463" lon="5.04538">
        <ele>347</ele>
        <time>2020-02-07T13:22:01.000Z</time>
      </trkpt>
      <trkpt lat="44.76462" lon="5.04538">
        <ele>347</ele>
        <time>2020-02-07T13:22:02.000Z</time>
      </trkpt>
      <trkpt lat="44.76462" lon="5.04537">
        <ele>347</ele>
        <time>2020-02-07T13:22:03.000Z</time>
      </trkpt>
      <trkpt lat="44.76462" lon="5.04536">
        <ele>346</ele>
        <time>2020-02-07T13:22:04.000Z</time>
      </trkpt>
      <trkpt lat="44.76461" lon="5.04535">
        <ele>346</ele>
        <time>2020-02-07T13:22:05.000Z</time>
      </trkpt>
      <trkpt lat="44.76461" lon="5.04533">
        <ele>346</ele>
        <time>2020-02-07T13:22:06.000Z</time>
      </trkpt>
      <trkpt lat="44.76461" lon="5.04532">
        <ele>345</ele>
        <time>2020-02-07T13:22:07.000Z</time>
      </trkpt>
      <trkpt lat="44.7646" lon="5.04531">
        <ele>345</ele>
        <time>2020-02-07T13:22:08.000Z</time>
      </trkpt>
      <trkpt lat="44.7646" lon="5.0453">
        <ele>345</ele>
        <time>2020-02-07T13:22:09.000Z</time>
      </trkpt>
      <trkpt lat="44.7646" lon="5.04529">
        <ele>345</ele>
        <time>2020-02-07T13:22:10.000Z</time>
      </trkpt>
      <trkpt lat="44.7646" lon="5.04528">
        <ele>345</ele>
        <time>2020-02-07T13:22:11.000Z</time>
      </trkpt>
      <trkpt lat="44.76459" lon="5.04526">
        <ele>345</ele>
        <time>2020-02-07T13:22:12.000Z</time>
      </trkpt>
      <trkpt lat="44.76459" lon="5.04525">
        <ele>345</ele>
        <time>2020-02-07T13:22:13.000Z</time>
      </trkpt>
      <trkpt lat="44.76458" lon="5.04524">
        <ele>344</ele>
        <time>2020-02-07T13:22:14.000Z</time>
      </trkpt>
      <trkpt lat="44.76458" lon="5.04522">
        <ele>344</ele>
        <time>2020-02-07T13:22:15.000Z</time>
      </trkpt>
      <trkpt lat="44.76458" lon="5.04521">
        <ele>344</ele>
        <time>2020-02-07T13:22:16.000Z</time>
      </trkpt>
      <trkpt lat="44.76458" lon="5.04519">
        <ele>344</ele>
        <time>2020-02-07T13:22:17.000Z</time>
      </trkpt>
      <trkpt lat="44.76457" lon="5.04518">
        <ele>344</ele>
        <time>2020-02-07T13:22:18.000Z</time>
      </trkpt>
      <trkpt lat="44.76457" lon="5.04517">
        <ele>344</ele>
        <time>2020-02-07T13:22:19.000Z</time>
      </trkpt>
      <trkpt lat="44.76457" lon="5.04515">
        <ele>344</ele>
        <time>2020-02-07T13:22:20.000Z</time>
      </trkpt>
      <trkpt lat="44.76457" lon="5.04513">
        <ele>344</ele>
        <time>2020-02-07T13:22:21.000Z</time>
      </trkpt>
      <trkpt lat="44.76457" lon="5.04512">
        <ele>344</ele>
        <time>2020-02-07T13:22:22.000Z</time>
      </trkpt>
      <trkpt lat="44.76457" lon="5.04511">
        <ele>343</ele>
        <time>2020-02-07T13:22:23.000Z</time>
      </trkpt>
      <trkpt lat="44.76458" lon="5.0451">
        <ele>343</ele>
        <time>2020-02-07T13:22:24.000Z</time>
      </trkpt>
      <trkpt lat="44.76458" lon="5.04509">
        <ele>343</ele>
        <time>2020-02-07T13:22:25.000Z</time>
      </trkpt>
      <trkpt lat="44.76458" lon="5.04508">
        <ele>343</ele>
        <time>2020-02-07T13:22:26.000Z</time>
      </trkpt>
      <trkpt lat="44.76458" lon="5.04507">
        <ele>343</ele>
        <time>2020-02-07T13:22:27.000Z</time>
      </trkpt>
      <trkpt lat="44.76458" lon="5.04507">
        <ele>343</ele>
        <time>2020-02-07T13:22:28.000Z</time>
      </trkpt>
      <trkpt lat="44.76458" lon="5.04507">
        <ele>343</ele>
        <time>2020-02-07T13:22:29.000Z</time>
      </trkpt>
      <trkpt lat="44.76458" lon="5.04507">
        <ele>343</ele>
        <time>2020-02-07T13:22:30.000Z</time>
      </trkpt>
      <trkpt lat="44.76458" lon="5.04507">
        <ele>342</ele>
        <time>2020-02-07T13:22:31.000Z</time>
      </trkpt>
      <trkpt lat="44.76458" lon="5.04507">
        <ele>342</ele>
        <time>2020-02-07T13:22:32.000Z</time>
      </trkpt>
      <trkpt lat="44.76458" lon="5.04507">
        <ele>342</ele>
        <time>2020-02-07T13:22:33.000Z</time>
      </trkpt>
      <trkpt lat="44.76458" lon="5.04506">
        <ele>342</ele>
        <time>2020-02-07T13:22:34.000Z</time>
      </trkpt>
      <trkpt lat="44.76458" lon="5.04505">
        <ele>342</ele>
        <time>2020-02-07T13:22:35.000Z</time>
      </trkpt>
      <trkpt lat="44.76458" lon="5.04503">
        <ele>342</ele>
        <time>2020-02-07T13:22:36.000Z</time>
      </trkpt>
      <trkpt lat="44.76458" lon="5.04502">
        <ele>342</ele>
        <time>2020-02-07T13:22:37.000Z</time>
      </trkpt>
      <trkpt lat="44.76457" lon="5.04501">
        <ele>342</ele>
        <time>2020-02-07T13:22:38.000Z</time>
      </trkpt>
      <trkpt lat="44.76456" lon="5.045">
        <ele>342</ele>
        <time>2020-02-07T13:22:39.000Z</time>
      </trkpt>
      <trkpt lat="44.76456" lon="5.04498">
        <ele>342</ele>
        <time>2020-02-07T13:22:40.000Z</time>
      </trkpt>
      <trkpt lat="44.76455" lon="5.04497">
        <ele>342</ele>
        <time>2020-02-07T13:22:41.000Z</time>
      </trkpt>
      <trkpt lat="44.76455" lon="5.04496">
        <ele>342</ele>
        <time>2020-02-07T13:22:42.000Z</time>
      </trkpt>
      <trkpt lat="44.76454" lon="5.04494">
        <ele>342</ele>
        <time>2020-02-07T13:22:43.000Z</time>
      </trkpt>
      <trkpt lat="44.76454" lon="5.04493">
        <ele>342</ele>
        <time>2020-02-07T13:22:44.000Z</time>
      </trkpt>
      <trkpt lat="44.76454" lon="5.04492">
        <ele>342</ele>
        <time>2020-02-07T13:22:45.000Z</time>
      </trkpt>
      <trkpt lat="44.76454" lon="5.0449">
        <ele>341</ele>
        <time>2020-02-07T13:22:46.000Z</time>
      </trkpt>
      <trkpt lat="44.76454" lon="5.04489">
        <ele>341</ele>
        <time>2020-02-07T13:22:47.000Z</time>
      </trkpt>
      <trkpt lat="44.76454" lon="5.04487">
        <ele>341</ele>
        <time>2020-02-07T13:22:48.000Z</time>
      </trkpt>
      <trkpt lat="44.76454" lon="5.04486">
        <ele>341</ele>
        <time>2020-02-07T13:22:49.000Z</time>
      </trkpt>
      <trkpt lat="44.76454" lon="5.04484">
        <ele>341</ele>
        <time>2020-02-07T13:22:50.000Z</time>
      </trkpt>
      <trkpt lat="44.76454" lon="5.04483">
        <ele>341</ele>
        <time>2020-02-07T13:22:51.000Z</time>
      </trkpt>
      <trkpt lat="44.76454" lon="5.04482">
        <ele>340</ele>
        <time>2020-02-07T13:22:52.000Z</time>
      </trkpt>
      <trkpt lat="44.76454" lon="5.0448">
        <ele>340</ele>
        <time>2020-02-07T13:22:53.000Z</time>
      </trkpt>
      <trkpt lat="44.76454" lon="5.04479">
        <ele>340</ele>
        <time>2020-02-07T13:22:54.000Z</time>
      </trkpt>
      <trkpt lat="44.76454" lon="5.04478">
        <ele>339</ele>
        <time>2020-02-07T13:22:55.000Z</time>
      </trkpt>
      <trkpt lat="44.76454" lon="5.04476">
        <ele>339</ele>
        <time>2020-02-07T13:22:56.000Z</time>
      </trkpt>
      <trkpt lat="44.76454" lon="5.04475">
        <ele>339</ele>
        <time>2020-02-07T13:22:57.000Z</time>
      </trkpt>
      <trkpt lat="44.76454" lon="5.04474">
        <ele>338</ele>
        <time>2020-02-07T13:22:58.000Z</time>
      </trkpt>
      <trkpt lat="44.76453" lon="5.04473">
        <ele>338</ele>
        <time>2020-02-07T13:22:59.000Z</time>
      </trkpt>
      <trkpt lat="44.76452" lon="5.04473">
        <ele>338</ele>
        <time>2020-02-07T13:23:00.000Z</time>
      </trkpt>
      <trkpt lat="44.76451" lon="5.04473">
        <ele>338</ele>
        <time>2020-02-07T13:23:01.000Z</time>
      </trkpt>
      <trkpt lat="44.7645" lon="5.04473">
        <ele>338</ele>
        <time>2020-02-07T13:23:02.000Z</time>
      </trkpt>
      <trkpt lat="44.76449" lon="5.04473">
        <ele>337</ele>
        <time>2020-02-07T13:23:03.000Z</time>
      </trkpt>
      <trkpt lat="44.76448" lon="5.04473">
        <ele>337</ele>
        <time>2020-02-07T13:23:04.000Z</time>
      </trkpt>
      <trkpt lat="44.76447" lon="5.04473">
        <ele>337</ele>
        <time>2020-02-07T13:23:05.000Z</time>
      </trkpt>
      <trkpt lat="44.76446" lon="5.04472">
        <ele>337</ele>
        <time>2020-02-07T13:23:06.000Z</time>
      </trkpt>
      <trkpt lat="44.76445" lon="5.04472">
        <ele>337</ele>
        <time>2020-02-07T13:23:07.000Z</time>
      </trkpt>
      <trkpt lat="44.76445" lon="5.04472">
        <ele>337</ele>
        <time>2020-02-07T13:23:08.000Z</time>
      </trkpt>
      <trkpt lat="44.76444" lon="5.04471">
        <ele>337</ele>
        <time>2020-02-07T13:23:09.000Z</time>
      </trkpt>
      <trkpt lat="44.76443" lon="5.04471">
        <ele>337</ele>
        <time>2020-02-07T13:23:10.000Z</time>
      </trkpt>
      <trkpt lat="44.76442" lon="5.04471">
        <ele>336</ele>
        <time>2020-02-07T13:23:11.000Z</time>
      </trkpt>
      <trkpt lat="44.76441" lon="5.04471">
        <ele>336</ele>
        <time>2020-02-07T13:23:12.000Z</time>
      </trkpt>
      <trkpt lat="44.7644" lon="5.04471">
        <ele>336</ele>
        <time>2020-02-07T13:23:13.000Z</time>
      </trkpt>
      <trkpt lat="44.76439" lon="5.04472">
        <ele>336</ele>
        <time>2020-02-07T13:23:14.000Z</time>
      </trkpt>
      <trkpt lat="44.76439" lon="5.04472">
        <ele>336</ele>
        <time>2020-02-07T13:23:15.000Z</time>
      </trkpt>
      <trkpt lat="44.76438" lon="5.04472">
        <ele>336</ele>
        <time>2020-02-07T13:23:16.000Z</time>
      </trkpt>
      <trkpt lat="44.76437" lon="5.04473">
        <ele>336</ele>
        <time>2020-02-07T13:23:17.000Z</time>
      </trkpt>
      <trkpt lat="44.76436" lon="5.04473">
        <ele>336</ele>
        <time>2020-02-07T13:23:18.000Z</time>
      </trkpt>
      <trkpt lat="44.76435" lon="5.04473">
        <ele>335</ele>
        <time>2020-02-07T13:23:19.000Z</time>
      </trkpt>
      <trkpt lat="44.76434" lon="5.04474">
        <ele>335</ele>
        <time>2020-02-07T13:23:20.000Z</time>
      </trkpt>
      <trkpt lat="44.76433" lon="5.04474">
        <ele>335</ele>
        <time>2020-02-07T13:23:21.000Z</time>
      </trkpt>
      <trkpt lat="44.76432" lon="5.04475">
        <ele>335</ele>
        <time>2020-02-07T13:23:22.000Z</time>
      </trkpt>
      <trkpt lat="44.76431" lon="5.04475">
        <ele>335</ele>
        <time>2020-02-07T13:23:23.000Z</time>
      </trkpt>
      <trkpt lat="44.76431" lon="5.04476">
        <ele>335</ele>
        <time>2020-02-07T13:23:24.000Z</time>
      </trkpt>
      <trkpt lat="44.7643" lon="5.04476">
        <ele>335</ele>
        <time>2020-02-07T13:23:25.000Z</time>
      </trkpt>
      <trkpt lat="44.76429" lon="5.04476">
        <ele>335</ele>
        <time>2020-02-07T13:23:26.000Z</time>
      </trkpt>
      <trkpt lat="44.76428" lon="5.04476">
        <ele>335</ele>
        <time>2020-02-07T13:23:27.000Z</time>
      </trkpt>
      <trkpt lat="44.76427" lon="5.04476">
        <ele>335</ele>
        <time>2020-02-07T13:23:28.000Z</time>
      </trkpt>
      <trkpt lat="44.76427" lon="5.04476">
        <ele>335</ele>
        <time>2020-02-07T13:23:29.000Z</time>
      </trkpt>
      <trkpt lat="44.76426" lon="5.04475">
        <ele>335</ele>
        <time>2020-02-07T13:23:30.000Z</time>
      </trkpt>
      <trkpt lat="44.76426" lon="5.04475">
        <ele>335</ele>
        <time>2020-02-07T13:23:31.000Z</time>
      </trkpt>
      <trkpt lat="44.76425" lon="5.04475">
        <ele>335</ele>
        <time>2020-02-07T13:23:32.000Z</time>
      </trkpt>
      <trkpt lat="44.76424" lon="5.04475">
        <ele>335</ele>
        <time>2020-02-07T13:23:33.000Z</time>
      </trkpt>
      <trkpt lat="44.76424" lon="5.04474">
        <ele>335</ele>
        <time>2020-02-07T13:23:34.000Z</time>
      </trkpt>
      <trkpt lat="44.76423" lon="5.04474">
        <ele>335</ele>
        <time>2020-02-07T13:23:35.000Z</time>
      </trkpt>
      <trkpt lat="44.76423" lon="5.04473">
        <ele>335</ele>
        <time>2020-02-07T13:23:36.000Z</time>
      </trkpt>
      <trkpt lat="44.76422" lon="5.04473">
        <ele>335</ele>
        <time>2020-02-07T13:23:37.000Z</time>
      </trkpt>
      <trkpt lat="44.76421" lon="5.04472">
        <ele>335</ele>
        <time>2020-02-07T13:23:38.000Z</time>
      </trkpt>
      <trkpt lat="44.7642" lon="5.04472">
        <ele>335</ele>
        <time>2020-02-07T13:23:39.000Z</time>
      </trkpt>
      <trkpt lat="44.76419" lon="5.04472">
        <ele>335</ele>
        <time>2020-02-07T13:23:40.000Z</time>
      </trkpt>
      <trkpt lat="44.76418" lon="5.04472">
        <ele>335</ele>
        <time>2020-02-07T13:23:41.000Z</time>
      </trkpt>
      <trkpt lat="44.76417" lon="5.04472">
        <ele>334</ele>
        <time>2020-02-07T13:23:42.000Z</time>
      </trkpt>
      <trkpt lat="44.76416" lon="5.04472">
        <ele>334</ele>
        <time>2020-02-07T13:23:43.000Z</time>
      </trkpt>
      <trkpt lat="44.76416" lon="5.04471">
        <ele>334</ele>
        <time>2020-02-07T13:23:44.000Z</time>
      </trkpt>
      <trkpt lat="44.76415" lon="5.04471">
        <ele>334</ele>
        <time>2020-02-07T13:23:45.000Z</time>
      </trkpt>
      <trkpt lat="44.76414" lon="5.04471">
        <ele>334</ele>
        <time>2020-02-07T13:23:46.000Z</time>
      </trkpt>
      <trkpt lat="44.76413" lon="5.04471">
        <ele>334</ele>
        <time>2020-02-07T13:23:47.000Z</time>
      </trkpt>
      <trkpt lat="44.76412" lon="5.04471">
        <ele>334</ele>
        <time>2020-02-07T13:23:48.000Z</time>
      </trkpt>
      <trkpt lat="44.76411" lon="5.04471">
        <ele>334</ele>
        <time>2020-02-07T13:23:49.000Z</time>
      </trkpt>
      <trkpt lat="44.7641" lon="5.04471">
        <ele>334</ele>
        <time>2020-02-07T13:23:50.000Z</time>
      </trkpt>
      <trkpt lat="44.76409" lon="5.04471">
        <ele>334</ele>
        <time>2020-02-07T13:23:51.000Z</time>
      </trkpt>
      <trkpt lat="44.76408" lon="5.04471">
        <ele>335</ele>
        <time>2020-02-07T13:23:52.000Z</time>
      </trkpt>
      <trkpt lat="44.76407" lon="5.04471">
        <ele>335</ele>
        <time>2020-02-07T13:23:53.000Z</time>
      </trkpt>
      <trkpt lat="44.76406" lon="5.04471">
        <ele>335</ele>
        <time>2020-02-07T13:23:54.000Z</time>
      </trkpt>
      <trkpt lat="44.76405" lon="5.04471">
        <ele>335</ele>
        <time>2020-02-07T13:23:55.000Z</time>
      </trkpt>
      <trkpt lat="44.76404" lon="5.04471">
        <ele>335</ele>
        <time>2020-02-07T13:23:56.000Z</time>
      </trkpt>
      <trkpt lat="44.76403" lon="5.04472">
        <ele>335</ele>
        <time>2020-02-07T13:23:57.000Z</time>
      </trkpt>
      <trkpt lat="44.76403" lon="5.04472">
        <ele>335</ele>
        <time>2020-02-07T13:23:58.000Z</time>
      </trkpt>
      <trkpt lat="44.76402" lon="5.04472">
        <ele>335</ele>
        <time>2020-02-07T13:23:59.000Z</time>
      </trkpt>
      <trkpt lat="44.76401" lon="5.04472">
        <ele>335</ele>
        <time>2020-02-07T13:24:00.000Z</time>
      </trkpt>
      <trkpt lat="44.764" lon="5.04472">
        <ele>336</ele>
        <time>2020-02-07T13:24:01.000Z</time>
      </trkpt>
      <trkpt lat="44.76399" lon="5.04472">
        <ele>336</ele>
        <time>2020-02-07T13:24:02.000Z</time>
      </trkpt>
      <trkpt lat="44.76399" lon="5.04472">
        <ele>336</ele>
        <time>2020-02-07T13:24:03.000Z</time>
      </trkpt>
      <trkpt lat="44.76397" lon="5.04473">
        <ele>336</ele>
        <time>2020-02-07T13:24:04.000Z</time>
      </trkpt>
      <trkpt lat="44.76396" lon="5.04473">
        <ele>336</ele>
        <time>2020-02-07T13:24:05.000Z</time>
      </trkpt>
      <trkpt lat="44.76395" lon="5.04473">
        <ele>336</ele>
        <time>2020-02-07T13:24:06.000Z</time>
      </trkpt>
      <trkpt lat="44.76394" lon="5.04473">
        <ele>336</ele>
        <time>2020-02-07T13:24:07.000Z</time>
      </trkpt>
      <trkpt lat="44.76393" lon="5.04474">
        <ele>336</ele>
        <time>2020-02-07T13:24:08.000Z</time>
      </trkpt>
      <trkpt lat="44.76392" lon="5.04474">
        <ele>336</ele>
        <time>2020-02-07T13:24:09.000Z</time>
      </trkpt>
      <trkpt lat="44.76391" lon="5.04474">
        <ele>336</ele>
        <time>2020-02-07T13:24:10.000Z</time>
      </trkpt>
      <trkpt lat="44.7639" lon="5.04474">
        <ele>336</ele>
        <time>2020-02-07T13:24:11.000Z</time>
      </trkpt>
      <trkpt lat="44.76389" lon="5.04474">
        <ele>336</ele>
        <time>2020-02-07T13:24:12.000Z</time>
      </trkpt>
      <trkpt lat="44.76388" lon="5.04473">
        <ele>336</ele>
        <time>2020-02-07T13:24:13.000Z</time>
      </trkpt>
      <trkpt lat="44.76387" lon="5.04473">
        <ele>335</ele>
        <time>2020-02-07T13:24:14.000Z</time>
      </trkpt>
      <trkpt lat="44.76386" lon="5.04473">
        <ele>335</ele>
        <time>2020-02-07T13:24:15.000Z</time>
      </trkpt>
      <trkpt lat="44.76385" lon="5.04472">
        <ele>335</ele>
        <time>2020-02-07T13:24:16.000Z</time>
      </trkpt>
      <trkpt lat="44.76384" lon="5.04472">
        <ele>335</ele>
        <time>2020-02-07T13:24:17.000Z</time>
      </trkpt>
      <trkpt lat="44.76383" lon="5.04471">
        <ele>335</ele>
        <time>2020-02-07T13:24:18.000Z</time>
      </trkpt>
      <trkpt lat="44.76381" lon="5.04471">
        <ele>335</ele>
        <time>2020-02-07T13:24:19.000Z</time>
      </trkpt>
      <trkpt lat="44.7638" lon="5.04471">
        <ele>335</ele>
        <time>2020-02-07T13:24:20.000Z</time>
      </trkpt>
      <trkpt lat="44.76379" lon="5.04471">
        <ele>335</ele>
        <time>2020-02-07T13:24:21.000Z</time>
      </trkpt>
      <trkpt lat="44.76378" lon="5.04471">
        <ele>335</ele>
        <time>2020-02-07T13:24:22.000Z</time>
      </trkpt>
      <trkpt lat="44.76377" lon="5.04471">
        <ele>335</ele>
        <time>2020-02-07T13:24:23.000Z</time>
      </trkpt>
      <trkpt lat="44.76376" lon="5.04471">
        <ele>335</ele>
        <time>2020-02-07T13:24:24.000Z</time>
      </trkpt>
      <trkpt lat="44.76374" lon="5.04471">
        <ele>335</ele>
        <time>2020-02-07T13:24:25.000Z</time>
      </trkpt>
      <trkpt lat="44.76374" lon="5.0447">
        <ele>335</ele>
        <time>2020-02-07T13:24:26.000Z</time>
      </trkpt>
      <trkpt lat="44.76373" lon="5.0447">
        <ele>335</ele>
        <time>2020-02-07T13:24:27.000Z</time>
      </trkpt>
      <trkpt lat="44.76372" lon="5.0447">
        <ele>335</ele>
        <time>2020-02-07T13:24:28.000Z</time>
      </trkpt>
      <trkpt lat="44.76371" lon="5.0447">
        <ele>335</ele>
        <time>2020-02-07T13:24:29.000Z</time>
      </trkpt>
      <trkpt lat="44.7637" lon="5.0447">
        <ele>335</ele>
        <time>2020-02-07T13:24:30.000Z</time>
      </trkpt>
      <trkpt lat="44.76369" lon="5.0447">
        <ele>335</ele>
        <time>2020-02-07T13:24:31.000Z</time>
      </trkpt>
      <trkpt lat="44.76368" lon="5.0447">
        <ele>335</ele>
        <time>2020-02-07T13:24:32.000Z</time>
      </trkpt>
      <trkpt lat="44.76366" lon="5.0447">
        <ele>335</ele>
        <time>2020-02-07T13:24:33.000Z</time>
      </trkpt>
      <trkpt lat="44.76365" lon="5.0447">
        <ele>335</ele>
        <time>2020-02-07T13:24:34.000Z</time>
      </trkpt>
      <trkpt lat="44.76364" lon="5.0447">
        <ele>335</ele>
        <time>2020-02-07T13:24:35.000Z</time>
      </trkpt>
      <trkpt lat="44.76363" lon="5.0447">
        <ele>335</ele>
        <time>2020-02-07T13:24:36.000Z</time>
      </trkpt>
      <trkpt lat="44.76361" lon="5.0447">
        <ele>335</ele>
        <time>2020-02-07T13:24:37.000Z</time>
      </trkpt>
      <trkpt lat="44.7636" lon="5.0447">
        <ele>335</ele>
        <time>2020-02-07T13:24:38.000Z</time>
      </trkpt>
      <trkpt lat="44.76359" lon="5.0447">
        <ele>335</ele>
        <time>2020-02-07T13:24:39.000Z</time>
      </trkpt>
      <trkpt lat="44.76358" lon="5.04469">
        <ele>335</ele>
        <time>2020-02-07T13:24:40.000Z</time>
      </trkpt>
      <trkpt lat="44.76357" lon="5.04469">
        <ele>335</ele>
        <time>2020-02-07T13:24:41.000Z</time>
      </trkpt>
      <trkpt lat="44.76356" lon="5.04469">
        <ele>335</ele>
        <time>2020-02-07T13:24:42.000Z</time>
      </trkpt>
      <trkpt lat="44.76355" lon="5.0447">
        <ele>335</ele>
        <time>2020-02-07T13:24:43.000Z</time>
      </trkpt>
      <trkpt lat="44.76354" lon="5.0447">
        <ele>335</ele>
        <time>2020-02-07T13:24:44.000Z</time>
      </trkpt>
      <trkpt lat="44.76353" lon="5.0447">
        <ele>336</ele>
        <time>2020-02-07T13:24:45.000Z</time>
      </trkpt>
      <trkpt lat="44.76352" lon="5.0447">
        <ele>336</ele>
        <time>2020-02-07T13:24:46.000Z</time>
      </trkpt>
      <trkpt lat="44.76351" lon="5.0447">
        <ele>336</ele>
        <time>2020-02-07T13:24:47.000Z</time>
      </trkpt>
      <trkpt lat="44.7635" lon="5.0447">
        <ele>336</ele>
        <time>2020-02-07T13:24:48.000Z</time>
      </trkpt>
      <trkpt lat="44.76348" lon="5.0447">
        <ele>336</ele>
        <time>2020-02-07T13:24:49.000Z</time>
      </trkpt>
      <trkpt lat="44.76347" lon="5.0447">
        <ele>336</ele>
        <time>2020-02-07T13:24:50.000Z</time>
      </trkpt>
      <trkpt lat="44.76346" lon="5.0447">
        <ele>336</ele>
        <time>2020-02-07T13:24:51.000Z</time>
      </trkpt>
      <trkpt lat="44.76344" lon="5.0447">
        <ele>336</ele>
        <time>2020-02-07T13:24:52.000Z</time>
      </trkpt>
      <trkpt lat="44.76343" lon="5.0447">
        <ele>336</ele>
        <time>2020-02-07T13:24:53.000Z</time>
      </trkpt>
      <trkpt lat="44.76342" lon="5.04471">
        <ele>336</ele>
        <time>2020-02-07T13:24:54.000Z</time>
      </trkpt>
      <trkpt lat="44.76341" lon="5.04471">
        <ele>336</ele>
        <time>2020-02-07T13:24:55.000Z</time>
      </trkpt>
      <trkpt lat="44.7634" lon="5.04471">
        <ele>336</ele>
        <time>2020-02-07T13:24:56.000Z</time>
      </trkpt>
      <trkpt lat="44.76339" lon="5.04471">
        <ele>336</ele>
        <time>2020-02-07T13:24:57.000Z</time>
      </trkpt>
      <trkpt lat="44.76338" lon="5.04472">
        <ele>336</ele>
        <time>2020-02-07T13:24:58.000Z</time>
      </trkpt>
      <trkpt lat="44.76337" lon="5.04472">
        <ele>336</ele>
        <time>2020-02-07T13:24:59.000Z</time>
      </trkpt>
      <trkpt lat="44.76336" lon="5.04472">
        <ele>336</ele>
        <time>2020-02-07T13:25:00.000Z</time>
      </trkpt>
      <trkpt lat="44.76335" lon="5.04472">
        <ele>336</ele>
        <time>2020-02-07T13:25:01.000Z</time>
      </trkpt>
      <trkpt lat="44.76334" lon="5.04472">
        <ele>336</ele>
        <time>2020-02-07T13:25:02.000Z</time>
      </trkpt>
      <trkpt lat="44.76334" lon="5.04472">
        <ele>336</ele>
        <time>2020-02-07T13:25:03.000Z</time>
      </trkpt>
      <trkpt lat="44.76333" lon="5.04472">
        <ele>336</ele>
        <time>2020-02-07T13:25:04.000Z</time>
      </trkpt>
      <trkpt lat="44.76333" lon="5.04472">
        <ele>336</ele>
        <time>2020-02-07T13:25:05.000Z</time>
      </trkpt>
      <trkpt lat="44.76332" lon="5.04472">
        <ele>335</ele>
        <time>2020-02-07T13:25:06.000Z</time>
      </trkpt>
      <trkpt lat="44.76331" lon="5.04472">
        <ele>335</ele>
        <time>2020-02-07T13:25:07.000Z</time>
      </trkpt>
      <trkpt lat="44.7633" lon="5.04473">
        <ele>335</ele>
        <time>2020-02-07T13:25:08.000Z</time>
      </trkpt>
      <trkpt lat="44.76329" lon="5.04473">
        <ele>335</ele>
        <time>2020-02-07T13:25:09.000Z</time>
      </trkpt>
      <trkpt lat="44.76328" lon="5.04472">
        <ele>335</ele>
        <time>2020-02-07T13:25:10.000Z</time>
      </trkpt>
      <trkpt lat="44.76327" lon="5.04472">
        <ele>335</ele>
        <time>2020-02-07T13:25:11.000Z</time>
      </trkpt>
      <trkpt lat="44.76326" lon="5.04472">
        <ele>335</ele>
        <time>2020-02-07T13:25:12.000Z</time>
      </trkpt>
      <trkpt lat="44.76326" lon="5.04472">
        <ele>335</ele>
        <time>2020-02-07T13:25:13.000Z</time>
      </trkpt>
      <trkpt lat="44.76325" lon="5.04472">
        <ele>335</ele>
        <time>2020-02-07T13:25:14.000Z</time>
      </trkpt>
      <trkpt lat="44.76324" lon="5.04473">
        <ele>335</ele>
        <time>2020-02-07T13:25:15.000Z</time>
      </trkpt>
      <trkpt lat="44.76323" lon="5.04473">
        <ele>335</ele>
        <time>2020-02-07T13:25:16.000Z</time>
      </trkpt>
      <trkpt lat="44.76322" lon="5.04473">
        <ele>335</ele>
        <time>2020-02-07T13:25:17.000Z</time>
      </trkpt>
      <trkpt lat="44.76321" lon="5.04473">
        <ele>335</ele>
        <time>2020-02-07T13:25:18.000Z</time>
      </trkpt>
      <trkpt lat="44.7632" lon="5.04473">
        <ele>335</ele>
        <time>2020-02-07T13:25:19.000Z</time>
      </trkpt>
      <trkpt lat="44.76319" lon="5.04473">
        <ele>335</ele>
        <time>2020-02-07T13:25:20.000Z</time>
      </trkpt>
      <trkpt lat="44.76318" lon="5.04474">
        <ele>335</ele>
        <time>2020-02-07T13:25:21.000Z</time>
      </trkpt>
      <trkpt lat="44.76317" lon="5.04475">
        <ele>335</ele>
        <time>2020-02-07T13:25:22.000Z</time>
      </trkpt>
      <trkpt lat="44.76317" lon="5.04475">
        <ele>335</ele>
        <time>2020-02-07T13:25:23.000Z</time>
      </trkpt>
      <trkpt lat="44.76316" lon="5.04476">
        <ele>336</ele>
        <time>2020-02-07T13:25:24.000Z</time>
      </trkpt>
      <trkpt lat="44.76315" lon="5.04476">
        <ele>336</ele>
        <time>2020-02-07T13:25:25.000Z</time>
      </trkpt>
      <trkpt lat="44.76314" lon="5.04477">
        <ele>336</ele>
        <time>2020-02-07T13:25:26.000Z</time>
      </trkpt>
      <trkpt lat="44.76313" lon="5.04478">
        <ele>336</ele>
        <time>2020-02-07T13:25:27.000Z</time>
      </trkpt>
      <trkpt lat="44.76312" lon="5.04478">
        <ele>336</ele>
        <time>2020-02-07T13:25:28.000Z</time>
      </trkpt>
      <trkpt lat="44.76311" lon="5.04478">
        <ele>336</ele>
        <time>2020-02-07T13:25:29.000Z</time>
      </trkpt>
      <trkpt lat="44.7631" lon="5.04478">
        <ele>336</ele>
        <time>2020-02-07T13:25:30.000Z</time>
      </trkpt>
      <trkpt lat="44.76309" lon="5.04479">
        <ele>336</ele>
        <time>2020-02-07T13:25:31.000Z</time>
      </trkpt>
      <trkpt lat="44.76308" lon="5.04479">
        <ele>337</ele>
        <time>2020-02-07T13:25:32.000Z</time>
      </trkpt>
      <trkpt lat="44.76307" lon="5.04479">
        <ele>337</ele>
        <time>2020-02-07T13:25:33.000Z</time>
      </trkpt>
      <trkpt lat="44.76306" lon="5.04479">
        <ele>337</ele>
        <time>2020-02-07T13:25:34.000Z</time>
      </trkpt>
      <trkpt lat="44.76305" lon="5.0448">
        <ele>337</ele>
        <time>2020-02-07T13:25:35.000Z</time>
      </trkpt>
      <trkpt lat="44.76304" lon="5.0448">
        <ele>338</ele>
        <time>2020-02-07T13:25:36.000Z</time>
      </trkpt>
      <trkpt lat="44.76303" lon="5.04481">
        <ele>338</ele>
        <time>2020-02-07T13:25:37.000Z</time>
      </trkpt>
      <trkpt lat="44.76302" lon="5.04481">
        <ele>338</ele>
        <time>2020-02-07T13:25:38.000Z</time>
      </trkpt>
      <trkpt lat="44.76301" lon="5.04481">
        <ele>338</ele>
        <time>2020-02-07T13:25:39.000Z</time>
      </trkpt>
      <trkpt lat="44.76301" lon="5.04482">
        <ele>339</ele>
        <time>2020-02-07T13:25:40.000Z</time>
      </trkpt>
      <trkpt lat="44.763" lon="5.04482">
        <ele>339</ele>
        <time>2020-02-07T13:25:41.000Z</time>
      </trkpt>
      <trkpt lat="44.76299" lon="5.04483">
        <ele>339</ele>
        <time>2020-02-07T13:25:42.000Z</time>
      </trkpt>
      <trkpt lat="44.76298" lon="5.04483">
        <ele>339</ele>
        <time>2020-02-07T13:25:43.000Z</time>
      </trkpt>
      <trkpt lat="44.76298" lon="5.04483">
        <ele>339</ele>
        <time>2020-02-07T13:25:44.000Z</time>
      </trkpt>
      <trkpt lat="44.76297" lon="5.04484">
        <ele>339</ele>
        <time>2020-02-07T13:25:45.000Z</time>
      </trkpt>
      <trkpt lat="44.76296" lon="5.04484">
        <ele>339</ele>
        <time>2020-02-07T13:25:46.000Z</time>
      </trkpt>
      <trkpt lat="44.76295" lon="5.04484">
        <ele>340</ele>
        <time>2020-02-07T13:25:47.000Z</time>
      </trkpt>
      <trkpt lat="44.76294" lon="5.04484">
        <ele>340</ele>
        <time>2020-02-07T13:25:48.000Z</time>
      </trkpt>
      <trkpt lat="44.76293" lon="5.04484">
        <ele>340</ele>
        <time>2020-02-07T13:25:49.000Z</time>
      </trkpt>
      <trkpt lat="44.76292" lon="5.04485">
        <ele>340</ele>
        <time>2020-02-07T13:25:50.000Z</time>
      </trkpt>
      <trkpt lat="44.76291" lon="5.04485">
        <ele>340</ele>
        <time>2020-02-07T13:25:51.000Z</time>
      </trkpt>
      <trkpt lat="44.7629" lon="5.04485">
        <ele>340</ele>
        <time>2020-02-07T13:25:52.000Z</time>
      </trkpt>
      <trkpt lat="44.7629" lon="5.04486">
        <ele>340</ele>
        <time>2020-02-07T13:25:53.000Z</time>
      </trkpt>
      <trkpt lat="44.76289" lon="5.04486">
        <ele>341</ele>
        <time>2020-02-07T13:25:54.000Z</time>
      </trkpt>
      <trkpt lat="44.76289" lon="5.04486">
        <ele>341</ele>
        <time>2020-02-07T13:25:55.000Z</time>
      </trkpt>
      <trkpt lat="44.76289" lon="5.04487">
        <ele>341</ele>
        <time>2020-02-07T13:25:56.000Z</time>
      </trkpt>
      <trkpt lat="44.76288" lon="5.04487">
        <ele>341</ele>
        <time>2020-02-07T13:25:57.000Z</time>
      </trkpt>
      <trkpt lat="44.76288" lon="5.04487">
        <ele>341</ele>
        <time>2020-02-07T13:25:58.000Z</time>
      </trkpt>
      <trkpt lat="44.76288" lon="5.04487">
        <ele>342</ele>
        <time>2020-02-07T13:25:59.000Z</time>
      </trkpt>
      <trkpt lat="44.76288" lon="5.04488">
        <ele>342</ele>
        <time>2020-02-07T13:26:00.000Z</time>
      </trkpt>
      <trkpt lat="44.76288" lon="5.04488">
        <ele>342</ele>
        <time>2020-02-07T13:26:01.000Z</time>
      </trkpt>
      <trkpt lat="44.76288" lon="5.04488">
        <ele>342</ele>
        <time>2020-02-07T13:26:02.000Z</time>
      </trkpt>
      <trkpt lat="44.76288" lon="5.04489">
        <ele>342</ele>
        <time>2020-02-07T13:26:03.000Z</time>
      </trkpt>
      <trkpt lat="44.76288" lon="5.0449">
        <ele>342</ele>
        <time>2020-02-07T13:26:04.000Z</time>
      </trkpt>
      <trkpt lat="44.76287" lon="5.04491">
        <ele>342</ele>
        <time>2020-02-07T13:26:05.000Z</time>
      </trkpt>
      <trkpt lat="44.76287" lon="5.04492">
        <ele>342</ele>
        <time>2020-02-07T13:26:06.000Z</time>
      </trkpt>
      <trkpt lat="44.76286" lon="5.04493">
        <ele>342</ele>
        <time>2020-02-07T13:26:07.000Z</time>
      </trkpt>
      <trkpt lat="44.76285" lon="5.04494">
        <ele>342</ele>
        <time>2020-02-07T13:26:08.000Z</time>
      </trkpt>
      <trkpt lat="44.76284" lon="5.04495">
        <ele>342</ele>
        <time>2020-02-07T13:26:09.000Z</time>
      </trkpt>
      <trkpt lat="44.76283" lon="5.04495">
        <ele>342</ele>
        <time>2020-02-07T13:26:10.000Z</time>
      </trkpt>
      <trkpt lat="44.76282" lon="5.04496">
        <ele>342</ele>
        <time>2020-02-07T13:26:11.000Z</time>
      </trkpt>
      <trkpt lat="44.76282" lon="5.04497">
        <ele>342</ele>
        <time>2020-02-07T13:26:12.000Z</time>
      </trkpt>
      <trkpt lat="44.76281" lon="5.04498">
        <ele>341</ele>
        <time>2020-02-07T13:26:13.000Z</time>
      </trkpt>
      <trkpt lat="44.76281" lon="5.04499">
        <ele>341</ele>
        <time>2020-02-07T13:26:14.000Z</time>
      </trkpt>
      <trkpt lat="44.7628" lon="5.045">
        <ele>341</ele>
        <time>2020-02-07T13:26:15.000Z</time>
      </trkpt>
      <trkpt lat="44.7628" lon="5.045">
        <ele>341</ele>
        <time>2020-02-07T13:26:16.000Z</time>
      </trkpt>
      <trkpt lat="44.76279" lon="5.04501">
        <ele>341</ele>
        <time>2020-02-07T13:26:17.000Z</time>
      </trkpt>
      <trkpt lat="44.76278" lon="5.04501">
        <ele>341</ele>
        <time>2020-02-07T13:26:18.000Z</time>
      </trkpt>
      <trkpt lat="44.76277" lon="5.04502">
        <ele>341</ele>
        <time>2020-02-07T13:26:19.000Z</time>
      </trkpt>
      <trkpt lat="44.76276" lon="5.04502">
        <ele>341</ele>
        <time>2020-02-07T13:26:20.000Z</time>
      </trkpt>
      <trkpt lat="44.76275" lon="5.04502">
        <ele>341</ele>
        <time>2020-02-07T13:26:21.000Z</time>
      </trkpt>
      <trkpt lat="44.76274" lon="5.04502">
        <ele>341</ele>
        <time>2020-02-07T13:26:22.000Z</time>
      </trkpt>
      <trkpt lat="44.76273" lon="5.04503">
        <ele>341</ele>
        <time>2020-02-07T13:26:23.000Z</time>
      </trkpt>
      <trkpt lat="44.76272" lon="5.04502">
        <ele>341</ele>
        <time>2020-02-07T13:26:24.000Z</time>
      </trkpt>
      <trkpt lat="44.7627" lon="5.04503">
        <ele>341</ele>
        <time>2020-02-07T13:26:25.000Z</time>
      </trkpt>
      <trkpt lat="44.76269" lon="5.04503">
        <ele>341</ele>
        <time>2020-02-07T13:26:26.000Z</time>
      </trkpt>
      <trkpt lat="44.76268" lon="5.04503">
        <ele>341</ele>
        <time>2020-02-07T13:26:27.000Z</time>
      </trkpt>
      <trkpt lat="44.76267" lon="5.04503">
        <ele>341</ele>
        <time>2020-02-07T13:26:28.000Z</time>
      </trkpt>
      <trkpt lat="44.76266" lon="5.04504">
        <ele>341</ele>
        <time>2020-02-07T13:26:29.000Z</time>
      </trkpt>
      <trkpt lat="44.76264" lon="5.04504">
        <ele>341</ele>
        <time>2020-02-07T13:26:30.000Z</time>
      </trkpt>
      <trkpt lat="44.76263" lon="5.04504">
        <ele>341</ele>
        <time>2020-02-07T13:26:31.000Z</time>
      </trkpt>
      <trkpt lat="44.76262" lon="5.04504">
        <ele>340</ele>
        <time>2020-02-07T13:26:32.000Z</time>
      </trkpt>
      <trkpt lat="44.76261" lon="5.04504">
        <ele>340</ele>
        <time>2020-02-07T13:26:33.000Z</time>
      </trkpt>
      <trkpt lat="44.7626" lon="5.04504">
        <ele>340</ele>
        <time>2020-02-07T13:26:34.000Z</time>
      </trkpt>
      <trkpt lat="44.76259" lon="5.04504">
        <ele>340</ele>
        <time>2020-02-07T13:26:35.000Z</time>
      </trkpt>
      <trkpt lat="44.76258" lon="5.04504">
        <ele>340</ele>
        <time>2020-02-07T13:26:36.000Z</time>
      </trkpt>
      <trkpt lat="44.76257" lon="5.04504">
        <ele>341</ele>
        <time>2020-02-07T13:26:37.000Z</time>
      </trkpt>
      <trkpt lat="44.76255" lon="5.04504">
        <ele>341</ele>
        <time>2020-02-07T13:26:38.000Z</time>
      </trkpt>
      <trkpt lat="44.76254" lon="5.04504">
        <ele>341</ele>
        <time>2020-02-07T13:26:39.000Z</time>
      </trkpt>
      <trkpt lat="44.76253" lon="5.04504">
        <ele>341</ele>
        <time>2020-02-07T13:26:40.000Z</time>
      </trkpt>
      <trkpt lat="44.76252" lon="5.04504">
        <ele>341</ele>
        <time>2020-02-07T13:26:41.000Z</time>
      </trkpt>
      <trkpt lat="44.76251" lon="5.04504">
        <ele>341</ele>
        <time>2020-02-07T13:26:42.000Z</time>
      </trkpt>
      <trkpt lat="44.76251" lon="5.04505">
        <ele>341</ele>
        <time>2020-02-07T13:26:43.000Z</time>
      </trkpt>
      <trkpt lat="44.7625" lon="5.04505">
        <ele>341</ele>
        <time>2020-02-07T13:26:44.000Z</time>
      </trkpt>
      <trkpt lat="44.76249" lon="5.04505">
        <ele>341</ele>
        <time>2020-02-07T13:26:45.000Z</time>
      </trkpt>
      <trkpt lat="44.76248" lon="5.04506">
        <ele>341</ele>
        <time>2020-02-07T13:26:46.000Z</time>
      </trkpt>
      <trkpt lat="44.76247" lon="5.04506">
        <ele>341</ele>
        <time>2020-02-07T13:26:47.000Z</time>
      </trkpt>
      <trkpt lat="44.76245" lon="5.04506">
        <ele>341</ele>
        <time>2020-02-07T13:26:48.000Z</time>
      </trkpt>
      <trkpt lat="44.76244" lon="5.04505">
        <ele>341</ele>
        <time>2020-02-07T13:26:49.000Z</time>
      </trkpt>
      <trkpt lat="44.76243" lon="5.04505">
        <ele>341</ele>
        <time>2020-02-07T13:26:50.000Z</time>
      </trkpt>
      <trkpt lat="44.76242" lon="5.04505">
        <ele>341</ele>
        <time>2020-02-07T13:26:51.000Z</time>
      </trkpt>
      <trkpt lat="44.76241" lon="5.04505">
        <ele>341</ele>
        <time>2020-02-07T13:26:52.000Z</time>
      </trkpt>
      <trkpt lat="44.7624" lon="5.04504">
        <ele>341</ele>
        <time>2020-02-07T13:26:53.000Z</time>
      </trkpt>
      <trkpt lat="44.76239" lon="5.04504">
        <ele>341</ele>
        <time>2020-02-07T13:26:54.000Z</time>
      </trkpt>
      <trkpt lat="44.76238" lon="5.04504">
        <ele>342</ele>
        <time>2020-02-07T13:26:55.000Z</time>
      </trkpt>
      <trkpt lat="44.76237" lon="5.04505">
        <ele>342</ele>
        <time>2020-02-07T13:26:56.000Z</time>
      </trkpt>
      <trkpt lat="44.76236" lon="5.04505">
        <ele>342</ele>
        <time>2020-02-07T13:26:57.000Z</time>
      </trkpt>
      <trkpt lat="44.76235" lon="5.04505">
        <ele>342</ele>
        <time>2020-02-07T13:26:58.000Z</time>
      </trkpt>
      <trkpt lat="44.76234" lon="5.04505">
        <ele>342</ele>
        <time>2020-02-07T13:26:59.000Z</time>
      </trkpt>
      <trkpt lat="44.76233" lon="5.04505">
        <ele>342</ele>
        <time>2020-02-07T13:27:00.000Z</time>
      </trkpt>
      <trkpt lat="44.76232" lon="5.04505">
        <ele>343</ele>
        <time>2020-02-07T13:27:01.000Z</time>
      </trkpt>
      <trkpt lat="44.76231" lon="5.04505">
        <ele>343</ele>
        <time>2020-02-07T13:27:02.000Z</time>
      </trkpt>
      <trkpt lat="44.76231" lon="5.04505">
        <ele>343</ele>
        <time>2020-02-07T13:27:03.000Z</time>
      </trkpt>
      <trkpt lat="44.7623" lon="5.04505">
        <ele>343</ele>
        <time>2020-02-07T13:27:04.000Z</time>
      </trkpt>
      <trkpt lat="44.76229" lon="5.04505">
        <ele>343</ele>
        <time>2020-02-07T13:27:05.000Z</time>
      </trkpt>
      <trkpt lat="44.76228" lon="5.04504">
        <ele>344</ele>
        <time>2020-02-07T13:27:06.000Z</time>
      </trkpt>
      <trkpt lat="44.76227" lon="5.04504">
        <ele>344</ele>
        <time>2020-02-07T13:27:07.000Z</time>
      </trkpt>
      <trkpt lat="44.76226" lon="5.04504">
        <ele>344</ele>
        <time>2020-02-07T13:27:08.000Z</time>
      </trkpt>
      <trkpt lat="44.76225" lon="5.04503">
        <ele>344</ele>
        <time>2020-02-07T13:27:09.000Z</time>
      </trkpt>
      <trkpt lat="44.76224" lon="5.04503">
        <ele>344</ele>
        <time>2020-02-07T13:27:10.000Z</time>
      </trkpt>
      <trkpt lat="44.76223" lon="5.04502">
        <ele>344</ele>
        <time>2020-02-07T13:27:11.000Z</time>
      </trkpt>
      <trkpt lat="44.76222" lon="5.04501">
        <ele>344</ele>
        <time>2020-02-07T13:27:12.000Z</time>
      </trkpt>
      <trkpt lat="44.76221" lon="5.04501">
        <ele>344</ele>
        <time>2020-02-07T13:27:13.000Z</time>
      </trkpt>
      <trkpt lat="44.7622" lon="5.045">
        <ele>344</ele>
        <time>2020-02-07T13:27:14.000Z</time>
      </trkpt>
      <trkpt lat="44.76219" lon="5.045">
        <ele>344</ele>
        <time>2020-02-07T13:27:15.000Z</time>
      </trkpt>
      <trkpt lat="44.76218" lon="5.04499">
        <ele>344</ele>
        <time>2020-02-07T13:27:16.000Z</time>
      </trkpt>
      <trkpt lat="44.76217" lon="5.04499">
        <ele>344</ele>
        <time>2020-02-07T13:27:17.000Z</time>
      </trkpt>
      <trkpt lat="44.76216" lon="5.04499">
        <ele>344</ele>
        <time>2020-02-07T13:27:18.000Z</time>
      </trkpt>
      <trkpt lat="44.76215" lon="5.04498">
        <ele>344</ele>
        <time>2020-02-07T13:27:19.000Z</time>
      </trkpt>
      <trkpt lat="44.76215" lon="5.04498">
        <ele>344</ele>
        <time>2020-02-07T13:27:20.000Z</time>
      </trkpt>
      <trkpt lat="44.76214" lon="5.04497">
        <ele>344</ele>
        <time>2020-02-07T13:27:21.000Z</time>
      </trkpt>
      <trkpt lat="44.76213" lon="5.04497">
        <ele>344</ele>
        <time>2020-02-07T13:27:22.000Z</time>
      </trkpt>
      <trkpt lat="44.76212" lon="5.04497">
        <ele>344</ele>
        <time>2020-02-07T13:27:23.000Z</time>
      </trkpt>
      <trkpt lat="44.76211" lon="5.04496">
        <ele>344</ele>
        <time>2020-02-07T13:27:24.000Z</time>
      </trkpt>
      <trkpt lat="44.7621" lon="5.04496">
        <ele>344</ele>
        <time>2020-02-07T13:27:25.000Z</time>
      </trkpt>
      <trkpt lat="44.76209" lon="5.04495">
        <ele>344</ele>
        <time>2020-02-07T13:27:26.000Z</time>
      </trkpt>
      <trkpt lat="44.76208" lon="5.04494">
        <ele>344</ele>
        <time>2020-02-07T13:27:27.000Z</time>
      </trkpt>
      <trkpt lat="44.76207" lon="5.04494">
        <ele>344</ele>
        <time>2020-02-07T13:27:28.000Z</time>
      </trkpt>
      <trkpt lat="44.76207" lon="5.04494">
        <ele>344</ele>
        <time>2020-02-07T13:27:29.000Z</time>
      </trkpt>
      <trkpt lat="44.76206" lon="5.04493">
        <ele>344</ele>
        <time>2020-02-07T13:27:30.000Z</time>
      </trkpt>
      <trkpt lat="44.76205" lon="5.04493">
        <ele>344</ele>
        <time>2020-02-07T13:27:31.000Z</time>
      </trkpt>
      <trkpt lat="44.76204" lon="5.04492">
        <ele>344</ele>
        <time>2020-02-07T13:27:32.000Z</time>
      </trkpt>
      <trkpt lat="44.76204" lon="5.04492">
        <ele>344</ele>
        <time>2020-02-07T13:27:33.000Z</time>
      </trkpt>
      <trkpt lat="44.76203" lon="5.04492">
        <ele>344</ele>
        <time>2020-02-07T13:27:34.000Z</time>
      </trkpt>
      <trkpt lat="44.76203" lon="5.04491">
        <ele>344</ele>
        <time>2020-02-07T13:27:35.000Z</time>
      </trkpt>
      <trkpt lat="44.76202" lon="5.04491">
        <ele>344</ele>
        <time>2020-02-07T13:27:36.000Z</time>
      </trkpt>
      <trkpt lat="44.76202" lon="5.04491">
        <ele>344</ele>
        <time>2020-02-07T13:27:37.000Z</time>
      </trkpt>
      <trkpt lat="44.76201" lon="5.04491">
        <ele>344</ele>
        <time>2020-02-07T13:27:38.000Z</time>
      </trkpt>
      <trkpt lat="44.762" lon="5.04491">
        <ele>344</ele>
        <time>2020-02-07T13:27:39.000Z</time>
      </trkpt>
      <trkpt lat="44.762" lon="5.04491">
        <ele>345</ele>
        <time>2020-02-07T13:27:40.000Z</time>
      </trkpt>
      <trkpt lat="44.76199" lon="5.04491">
        <ele>345</ele>
        <time>2020-02-07T13:27:41.000Z</time>
      </trkpt>
      <trkpt lat="44.76199" lon="5.04491">
        <ele>345</ele>
        <time>2020-02-07T13:27:42.000Z</time>
      </trkpt>
      <trkpt lat="44.76199" lon="5.04491">
        <ele>345</ele>
        <time>2020-02-07T13:27:43.000Z</time>
      </trkpt>
      <trkpt lat="44.76199" lon="5.04491">
        <ele>345</ele>
        <time>2020-02-07T13:27:44.000Z</time>
      </trkpt>
      <trkpt lat="44.76198" lon="5.04491">
        <ele>345</ele>
        <time>2020-02-07T13:27:45.000Z</time>
      </trkpt>
      <trkpt lat="44.76198" lon="5.04492">
        <ele>345</ele>
        <time>2020-02-07T13:27:46.000Z</time>
      </trkpt>
      <trkpt lat="44.76198" lon="5.04492">
        <ele>345</ele>
        <time>2020-02-07T13:27:47.000Z</time>
      </trkpt>
      <trkpt lat="44.76198" lon="5.04492">
        <ele>345</ele>
        <time>2020-02-07T13:27:48.000Z</time>
      </trkpt>
      <trkpt lat="44.76198" lon="5.04492">
        <ele>345</ele>
        <time>2020-02-07T13:27:49.000Z</time>
      </trkpt>
      <trkpt lat="44.76198" lon="5.04492">
        <ele>345</ele>
        <time>2020-02-07T13:27:50.000Z</time>
      </trkpt>
      <trkpt lat="44.76198" lon="5.04492">
        <ele>345</ele>
        <time>2020-02-07T13:27:51.000Z</time>
      </trkpt>
      <trkpt lat="44.76198" lon="5.04492">
        <ele>345</ele>
        <time>2020-02-07T13:27:52.000Z</time>
      </trkpt>
      <trkpt lat="44.76198" lon="5.04492">
        <ele>346</ele>
        <time>2020-02-07T13:27:53.000Z</time>
      </trkpt>
      <trkpt lat="44.76198" lon="5.04491">
        <ele>346</ele>
        <time>2020-02-07T13:27:54.000Z</time>
      </trkpt>
      <trkpt lat="44.76198" lon="5.04491">
        <ele>346</ele>
        <time>2020-02-07T13:27:55.000Z</time>
      </trkpt>
      <trkpt lat="44.76198" lon="5.04491">
        <ele>346</ele>
        <time>2020-02-07T13:27:56.000Z</time>
      </trkpt>
      <trkpt lat="44.76199" lon="5.04491">
        <ele>346</ele>
        <time>2020-02-07T13:27:57.000Z</time>
      </trkpt>
      <trkpt lat="44.76199" lon="5.04491">
        <ele>346</ele>
        <time>2020-02-07T13:27:58.000Z</time>
      </trkpt>
      <trkpt lat="44.76198" lon="5.04491">
        <ele>346</ele>
        <time>2020-02-07T13:27:59.000Z</time>
      </trkpt>
      <trkpt lat="44.76198" lon="5.04492">
        <ele>346</ele>
        <time>2020-02-07T13:28:00.000Z</time>
      </trkpt>
      <trkpt lat="44.76198" lon="5.04492">
        <ele>346</ele>
        <time>2020-02-07T13:28:01.000Z</time>
      </trkpt>
      <trkpt lat="44.76197" lon="5.04492">
        <ele>346</ele>
        <time>2020-02-07T13:28:02.000Z</time>
      </trkpt>
      <trkpt lat="44.76197" lon="5.04492">
        <ele>346</ele>
        <time>2020-02-07T13:28:03.000Z</time>
      </trkpt>
      <trkpt lat="44.76198" lon="5.04492">
        <ele>346</ele>
        <time>2020-02-07T13:28:04.000Z</time>
      </trkpt>
      <trkpt lat="44.76198" lon="5.04492">
        <ele>346</ele>
        <time>2020-02-07T13:28:05.000Z</time>
      </trkpt>
      <trkpt lat="44.76198" lon="5.04492">
        <ele>346</ele>
        <time>2020-02-07T13:28:06.000Z</time>
      </trkpt>
      <trkpt lat="44.76198" lon="5.04492">
        <ele>346</ele>
        <time>2020-02-07T13:28:07.000Z</time>
      </trkpt>
      <trkpt lat="44.76198" lon="5.04492">
        <ele>346</ele>
        <time>2020-02-07T13:28:08.000Z</time>
      </trkpt>
      <trkpt lat="44.76198" lon="5.04492">
        <ele>346</ele>
        <time>2020-02-07T13:28:09.000Z</time>
      </trkpt>
      <trkpt lat="44.76198" lon="5.04492">
        <ele>347</ele>
        <time>2020-02-07T13:28:10.000Z</time>
      </trkpt>
      <trkpt lat="44.76198" lon="5.04492">
        <ele>347</ele>
        <time>2020-02-07T13:28:11.000Z</time>
      </trkpt>
      <trkpt lat="44.76198" lon="5.04492">
        <ele>347</ele>
        <time>2020-02-07T13:28:12.000Z</time>
      </trkpt>
      <trkpt lat="44.76198" lon="5.04492">
        <ele>347</ele>
        <time>2020-02-07T13:28:13.000Z</time>
      </trkpt>
      <trkpt lat="44.76198" lon="5.04492">
        <ele>347</ele>
        <time>2020-02-07T13:28:14.000Z</time>
      </trkpt>
      <trkpt lat="44.76198" lon="5.04492">
        <ele>347</ele>
        <time>2020-02-07T13:28:15.000Z</time>
      </trkpt>
      <trkpt lat="44.76198" lon="5.04492">
        <ele>347</ele>
        <time>2020-02-07T13:28:16.000Z</time>
      </trkpt>
      <trkpt lat="44.76198" lon="5.04492">
        <ele>347</ele>
        <time>2020-02-07T13:28:17.000Z</time>
      </trkpt>
      <trkpt lat="44.76198" lon="5.04492">
        <ele>347</ele>
        <time>2020-02-07T13:28:18.000Z</time>
      </trkpt>
      <trkpt lat="44.76198" lon="5.04493">
        <ele>347</ele>
        <time>2020-02-07T13:28:19.000Z</time>
      </trkpt>
      <trkpt lat="44.76198" lon="5.04493">
        <ele>347</ele>
        <time>2020-02-07T13:28:20.000Z</time>
      </trkpt>
      <trkpt lat="44.76198" lon="5.04492">
        <ele>347</ele>
        <time>2020-02-07T13:28:21.000Z</time>
      </trkpt>
      <trkpt lat="44.76198" lon="5.04493">
        <ele>347</ele>
        <time>2020-02-07T13:28:22.000Z</time>
      </trkpt>
      <trkpt lat="44.76197" lon="5.04493">
        <ele>347</ele>
        <time>2020-02-07T13:28:23.000Z</time>
      </trkpt>
      <trkpt lat="44.76197" lon="5.04493">
        <ele>347</ele>
        <time>2020-02-07T13:28:24.000Z</time>
      </trkpt>
      <trkpt lat="44.76197" lon="5.04493">
        <ele>347</ele>
        <time>2020-02-07T13:28:25.000Z</time>
      </trkpt>
      <trkpt lat="44.76197" lon="5.04493">
        <ele>347</ele>
        <time>2020-02-07T13:28:26.000Z</time>
      </trkpt>
      <trkpt lat="44.76197" lon="5.04493">
        <ele>347</ele>
        <time>2020-02-07T13:28:27.000Z</time>
      </trkpt>
      <trkpt lat="44.76197" lon="5.04493">
        <ele>348</ele>
        <time>2020-02-07T13:28:28.000Z</time>
      </trkpt>
      <trkpt lat="44.76197" lon="5.04493">
        <ele>348</ele>
        <time>2020-02-07T13:28:29.000Z</time>
      </trkpt>
      <trkpt lat="44.76197" lon="5.04493">
        <ele>348</ele>
        <time>2020-02-07T13:28:30.000Z</time>
      </trkpt>
      <trkpt lat="44.76197" lon="5.04493">
        <ele>348</ele>
        <time>2020-02-07T13:28:31.000Z</time>
      </trkpt>
      <trkpt lat="44.76197" lon="5.04494">
        <ele>348</ele>
        <time>2020-02-07T13:28:32.000Z</time>
      </trkpt>
      <trkpt lat="44.76197" lon="5.04494">
        <ele>348</ele>
        <time>2020-02-07T13:28:33.000Z</time>
      </trkpt>
      <trkpt lat="44.76197" lon="5.04494">
        <ele>348</ele>
        <time>2020-02-07T13:28:34.000Z</time>
      </trkpt>
      <trkpt lat="44.76197" lon="5.04494">
        <ele>348</ele>
        <time>2020-02-07T13:28:35.000Z</time>
      </trkpt>
      <trkpt lat="44.76197" lon="5.04494">
        <ele>348</ele>
        <time>2020-02-07T13:28:36.000Z</time>
      </trkpt>
      <trkpt lat="44.76197" lon="5.04494">
        <ele>348</ele>
        <time>2020-02-07T13:28:37.000Z</time>
      </trkpt>
      <trkpt lat="44.76197" lon="5.04494">
        <ele>348</ele>
        <time>2020-02-07T13:28:38.000Z</time>
      </trkpt>
      <trkpt lat="44.76197" lon="5.04494">
        <ele>348</ele>
        <time>2020-02-07T13:28:39.000Z</time>
      </trkpt>
      <trkpt lat="44.76197" lon="5.04494">
        <ele>348</ele>
        <time>2020-02-07T13:28:40.000Z</time>
      </trkpt>
      <trkpt lat="44.76197" lon="5.04494">
        <ele>348</ele>
        <time>2020-02-07T13:28:41.000Z</time>
      </trkpt>
      <trkpt lat="44.76197" lon="5.04494">
        <ele>348</ele>
        <time>2020-02-07T13:28:42.000Z</time>
      </trkpt>
      <trkpt lat="44.76197" lon="5.04494">
        <ele>348</ele>
        <time>2020-02-07T13:28:43.000Z</time>
      </trkpt>
      <trkpt lat="44.76197" lon="5.04494">
        <ele>348</ele>
        <time>2020-02-07T13:28:44.000Z</time>
      </trkpt>
      <trkpt lat="44.76197" lon="5.04494">
        <ele>348</ele>
        <time>2020-02-07T13:28:45.000Z</time>
      </trkpt>
      <trkpt lat="44.76197" lon="5.04494">
        <ele>348</ele>
        <time>2020-02-07T13:28:46.000Z</time>
      </trkpt>
      <trkpt lat="44.76197" lon="5.04494">
        <ele>348</ele>
        <time>2020-02-07T13:28:47.000Z</time>
      </trkpt>
      <trkpt lat="44.76197" lon="5.04494">
        <ele>348</ele>
        <time>2020-02-07T13:28:48.000Z</time>
      </trkpt>
      <trkpt lat="44.76197" lon="5.04494">
        <ele>348</ele>
        <time>2020-02-07T13:28:49.000Z</time>
      </trkpt>
      <trkpt lat="44.76197" lon="5.04494">
        <ele>348</ele>
        <time>2020-02-07T13:28:50.000Z</time>
      </trkpt>
      <trkpt lat="44.76197" lon="5.04494">
        <ele>348</ele>
        <time>2020-02-07T13:28:51.000Z</time>
      </trkpt>
      <trkpt lat="44.76197" lon="5.04494">
        <ele>348</ele>
        <time>2020-02-07T13:28:52.000Z</time>
      </trkpt>
      <trkpt lat="44.76197" lon="5.04494">
        <ele>348</ele>
        <time>2020-02-07T13:28:53.000Z</time>
      </trkpt>
      <trkpt lat="44.76197" lon="5.04493">
        <ele>348</ele>
        <time>2020-02-07T13:28:54.000Z</time>
      </trkpt>
      <trkpt lat="44.76197" lon="5.04493">
        <ele>348</ele>
        <time>2020-02-07T13:28:55.000Z</time>
      </trkpt>
      <trkpt lat="44.76197" lon="5.04493">
        <ele>348</ele>
        <time>2020-02-07T13:28:56.000Z</time>
      </trkpt>
      <trkpt lat="44.76196" lon="5.04493">
        <ele>348</ele>
        <time>2020-02-07T13:28:57.000Z</time>
      </trkpt>
      <trkpt lat="44.76196" lon="5.04493">
        <ele>348</ele>
        <time>2020-02-07T13:28:58.000Z</time>
      </trkpt>
      <trkpt lat="44.76196" lon="5.04493">
        <ele>348</ele>
        <time>2020-02-07T13:28:59.000Z</time>
      </trkpt>
      <trkpt lat="44.76196" lon="5.04493">
        <ele>348</ele>
        <time>2020-02-07T13:29:00.000Z</time>
      </trkpt>
      <trkpt lat="44.76196" lon="5.04493">
        <ele>348</ele>
        <time>2020-02-07T13:29:01.000Z</time>
      </trkpt>
      <trkpt lat="44.76196" lon="5.04493">
        <ele>348</ele>
        <time>2020-02-07T13:29:02.000Z</time>
      </trkpt>
      <trkpt lat="44.76196" lon="5.04493">
        <ele>348</ele>
        <time>2020-02-07T13:29:03.000Z</time>
      </trkpt>
      <trkpt lat="44.76196" lon="5.04493">
        <ele>348</ele>
        <time>2020-02-07T13:29:04.000Z</time>
      </trkpt>
      <trkpt lat="44.76196" lon="5.04493">
        <ele>348</ele>
        <time>2020-02-07T13:29:05.000Z</time>
      </trkpt>
      <trkpt lat="44.76196" lon="5.04493">
        <ele>348</ele>
        <time>2020-02-07T13:29:06.000Z</time>
      </trkpt>
      <trkpt lat="44.76196" lon="5.04493">
        <ele>348</ele>
        <time>2020-02-07T13:29:07.000Z</time>
      </trkpt>
      <trkpt lat="44.76195" lon="5.04493">
        <ele>348</ele>
        <time>2020-02-07T13:29:08.000Z</time>
      </trkpt>
      <trkpt lat="44.76195" lon="5.04493">
        <ele>349</ele>
        <time>2020-02-07T13:29:09.000Z</time>
      </trkpt>
      <trkpt lat="44.76195" lon="5.04493">
        <ele>349</ele>
        <time>2020-02-07T13:29:10.000Z</time>
      </trkpt>
      <trkpt lat="44.76195" lon="5.04493">
        <ele>349</ele>
        <time>2020-02-07T13:29:11.000Z</time>
      </trkpt>
      <trkpt lat="44.76195" lon="5.04493">
        <ele>349</ele>
        <time>2020-02-07T13:29:12.000Z</time>
      </trkpt>
      <trkpt lat="44.76195" lon="5.04493">
        <ele>349</ele>
        <time>2020-02-07T13:29:13.000Z</time>
      </trkpt>
      <trkpt lat="44.76195" lon="5.04493">
        <ele>349</ele>
        <time>2020-02-07T13:29:14.000Z</time>
      </trkpt>
      <trkpt lat="44.76195" lon="5.04493">
        <ele>349</ele>
        <time>2020-02-07T13:29:15.000Z</time>
      </trkpt>
      <trkpt lat="44.76195" lon="5.04493">
        <ele>349</ele>
        <time>2020-02-07T13:29:16.000Z</time>
      </trkpt>
      <trkpt lat="44.76195" lon="5.04493">
        <ele>349</ele>
        <time>2020-02-07T13:29:17.000Z</time>
      </trkpt>
      <trkpt lat="44.76195" lon="5.04493">
        <ele>349</ele>
        <time>2020-02-07T13:29:18.000Z</time>
      </trkpt>
      <trkpt lat="44.76195" lon="5.04493">
        <ele>349</ele>
        <time>2020-02-07T13:29:19.000Z</time>
      </trkpt>
      <trkpt lat="44.76195" lon="5.04493">
        <ele>350</ele>
        <time>2020-02-07T13:29:20.000Z</time>
      </trkpt>
      <trkpt lat="44.76195" lon="5.04492">
        <ele>350</ele>
        <time>2020-02-07T13:29:21.000Z</time>
      </trkpt>
      <trkpt lat="44.76195" lon="5.04493">
        <ele>350</ele>
        <time>2020-02-07T13:29:22.000Z</time>
      </trkpt>
      <trkpt lat="44.76195" lon="5.04492">
        <ele>350</ele>
        <time>2020-02-07T13:29:23.000Z</time>
      </trkpt>
      <trkpt lat="44.76196" lon="5.04493">
        <ele>350</ele>
        <time>2020-02-07T13:29:24.000Z</time>
      </trkpt>
      <trkpt lat="44.76196" lon="5.04493">
        <ele>350</ele>
        <time>2020-02-07T13:29:25.000Z</time>
      </trkpt>
      <trkpt lat="44.76196" lon="5.04492">
        <ele>350</ele>
        <time>2020-02-07T13:29:26.000Z</time>
      </trkpt>
      <trkpt lat="44.76196" lon="5.04492">
        <ele>350</ele>
        <time>2020-02-07T13:29:27.000Z</time>
      </trkpt>
      <trkpt lat="44.76196" lon="5.04492">
        <ele>351</ele>
        <time>2020-02-07T13:29:28.000Z</time>
      </trkpt>
      <trkpt lat="44.76196" lon="5.04492">
        <ele>351</ele>
        <time>2020-02-07T13:29:29.000Z</time>
      </trkpt>
      <trkpt lat="44.76196" lon="5.04492">
        <ele>351</ele>
        <time>2020-02-07T13:29:30.000Z</time>
      </trkpt>
      <trkpt lat="44.76196" lon="5.04492">
        <ele>351</ele>
        <time>2020-02-07T13:29:31.000Z</time>
      </trkpt>
      <trkpt lat="44.76196" lon="5.04492">
        <ele>351</ele>
        <time>2020-02-07T13:29:32.000Z</time>
      </trkpt>
      <trkpt lat="44.76196" lon="5.04492">
        <ele>351</ele>
        <time>2020-02-07T13:29:33.000Z</time>
      </trkpt>
      <trkpt lat="44.76196" lon="5.04492">
        <ele>351</ele>
        <time>2020-02-07T13:29:34.000Z</time>
      </trkpt>
      <trkpt lat="44.76196" lon="5.04492">
        <ele>351</ele>
        <time>2020-02-07T13:29:35.000Z</time>
      </trkpt>
      <trkpt lat="44.76196" lon="5.04492">
        <ele>351</ele>
        <time>2020-02-07T13:29:36.000Z</time>
      </trkpt>
      <trkpt lat="44.76196" lon="5.04493">
        <ele>352</ele>
        <time>2020-02-07T13:29:37.000Z</time>
      </trkpt>
      <trkpt lat="44.76196" lon="5.04493">
        <ele>352</ele>
        <time>2020-02-07T13:29:38.000Z</time>
      </trkpt>
      <trkpt lat="44.76196" lon="5.04493">
        <ele>352</ele>
        <time>2020-02-07T13:29:39.000Z</time>
      </trkpt>
      <trkpt lat="44.76196" lon="5.04493">
        <ele>352</ele>
        <time>2020-02-07T13:29:40.000Z</time>
      </trkpt>
      <trkpt lat="44.76196" lon="5.04493">
        <ele>352</ele>
        <time>2020-02-07T13:29:41.000Z</time>
      </trkpt>
      <trkpt lat="44.76197" lon="5.04493">
        <ele>352</ele>
        <time>2020-02-07T13:29:42.000Z</time>
      </trkpt>
      <trkpt lat="44.76197" lon="5.04493">
        <ele>352</ele>
        <time>2020-02-07T13:29:43.000Z</time>
      </trkpt>
      <trkpt lat="44.76197" lon="5.04493">
        <ele>353</ele>
        <time>2020-02-07T13:29:44.000Z</time>
      </trkpt>
      <trkpt lat="44.76197" lon="5.04494">
        <ele>353</ele>
        <time>2020-02-07T13:29:45.000Z</time>
      </trkpt>
      <trkpt lat="44.76197" lon="5.04494">
        <ele>353</ele>
        <time>2020-02-07T13:29:46.000Z</time>
      </trkpt>
      <trkpt lat="44.76197" lon="5.04494">
        <ele>353</ele>
        <time>2020-02-07T13:29:47.000Z</time>
      </trkpt>
      <trkpt lat="44.76197" lon="5.04493">
        <ele>353</ele>
        <time>2020-02-07T13:29:48.000Z</time>
      </trkpt>
      <trkpt lat="44.76197" lon="5.04494">
        <ele>353</ele>
        <time>2020-02-07T13:29:49.000Z</time>
      </trkpt>
      <trkpt lat="44.76197" lon="5.04494">
        <ele>353</ele>
        <time>2020-02-07T13:29:50.000Z</time>
      </trkpt>
      <trkpt lat="44.76197" lon="5.04494">
        <ele>354</ele>
        <time>2020-02-07T13:29:51.000Z</time>
      </trkpt>
      <trkpt lat="44.76197" lon="5.04494">
        <ele>354</ele>
        <time>2020-02-07T13:29:52.000Z</time>
      </trkpt>
      <trkpt lat="44.76197" lon="5.04495">
        <ele>354</ele>
        <time>2020-02-07T13:29:53.000Z</time>
      </trkpt>
      <trkpt lat="44.76197" lon="5.04495">
        <ele>354</ele>
        <time>2020-02-07T13:29:54.000Z</time>
      </trkpt>
      <trkpt lat="44.76197" lon="5.04495">
        <ele>354</ele>
        <time>2020-02-07T13:29:55.000Z</time>
      </trkpt>
      <trkpt lat="44.76197" lon="5.04495">
        <ele>355</ele>
        <time>2020-02-07T13:29:56.000Z</time>
      </trkpt>
      <trkpt lat="44.76197" lon="5.04495">
        <ele>355</ele>
        <time>2020-02-07T13:29:57.000Z</time>
      </trkpt>
      <trkpt lat="44.76197" lon="5.04495">
        <ele>355</ele>
        <time>2020-02-07T13:29:58.000Z</time>
      </trkpt>
      <trkpt lat="44.76197" lon="5.04495">
        <ele>355</ele>
        <time>2020-02-07T13:29:59.000Z</time>
      </trkpt>
      <trkpt lat="44.76198" lon="5.04495">
        <ele>355</ele>
        <time>2020-02-07T13:30:00.000Z</time>
      </trkpt>
      <trkpt lat="44.76198" lon="5.04496">
        <ele>355</ele>
        <time>2020-02-07T13:30:01.000Z</time>
      </trkpt>
      <trkpt lat="44.76198" lon="5.04496">
        <ele>355</ele>
        <time>2020-02-07T13:30:02.000Z</time>
      </trkpt>
      <trkpt lat="44.76198" lon="5.04496">
        <ele>355</ele>
        <time>2020-02-07T13:30:03.000Z</time>
      </trkpt>
      <trkpt lat="44.76198" lon="5.04496">
        <ele>355</ele>
        <time>2020-02-07T13:30:04.000Z</time>
      </trkpt>
      <trkpt lat="44.76198" lon="5.04496">
        <ele>355</ele>
        <time>2020-02-07T13:30:05.000Z</time>
      </trkpt>
      <trkpt lat="44.76198" lon="5.04496">
        <ele>355</ele>
        <time>2020-02-07T13:30:06.000Z</time>
      </trkpt>
      <trkpt lat="44.76198" lon="5.04496">
        <ele>355</ele>
        <time>2020-02-07T13:30:07.000Z</time>
      </trkpt>
      <trkpt lat="44.76198" lon="5.04496">
        <ele>355</ele>
        <time>2020-02-07T13:30:08.000Z</time>
      </trkpt>
      <trkpt lat="44.76198" lon="5.04496">
        <ele>355</ele>
        <time>2020-02-07T13:30:09.000Z</time>
      </trkpt>
      <trkpt lat="44.76198" lon="5.04496">
        <ele>355</ele>
        <time>2020-02-07T13:30:10.000Z</time>
      </trkpt>
      <trkpt lat="44.76198" lon="5.04496">
        <ele>355</ele>
        <time>2020-02-07T13:30:11.000Z</time>
      </trkpt>
      <trkpt lat="44.76198" lon="5.04496">
        <ele>355</ele>
        <time>2020-02-07T13:30:12.000Z</time>
      </trkpt>
      <trkpt lat="44.76198" lon="5.04496">
        <ele>356</ele>
        <time>2020-02-07T13:30:13.000Z</time>
      </trkpt>
      <trkpt lat="44.76198" lon="5.04496">
        <ele>356</ele>
        <time>2020-02-07T13:30:14.000Z</time>
      </trkpt>
      <trkpt lat="44.76198" lon="5.04496">
        <ele>355</ele>
        <time>2020-02-07T13:30:15.000Z</time>
      </trkpt>
      <trkpt lat="44.76198" lon="5.04497">
        <ele>355</ele>
        <time>2020-02-07T13:30:16.000Z</time>
      </trkpt>
      <trkpt lat="44.76198" lon="5.04497">
        <ele>355</ele>
        <time>2020-02-07T13:30:17.000Z</time>
      </trkpt>
      <trkpt lat="44.76198" lon="5.04497">
        <ele>355</ele>
        <time>2020-02-07T13:30:18.000Z</time>
      </trkpt>
      <trkpt lat="44.76198" lon="5.04497">
        <ele>355</ele>
        <time>2020-02-07T13:30:19.000Z</time>
      </trkpt>
      <trkpt lat="44.76198" lon="5.04497">
        <ele>355</ele>
        <time>2020-02-07T13:30:20.000Z</time>
      </trkpt>
      <trkpt lat="44.76197" lon="5.04497">
        <ele>356</ele>
        <time>2020-02-07T13:30:21.000Z</time>
      </trkpt>
      <trkpt lat="44.76197" lon="5.04497">
        <ele>356</ele>
        <time>2020-02-07T13:30:22.000Z</time>
      </trkpt>
      <trkpt lat="44.76197" lon="5.04497">
        <ele>356</ele>
        <time>2020-02-07T13:30:23.000Z</time>
      </trkpt>
      <trkpt lat="44.76197" lon="5.04497">
        <ele>356</ele>
        <time>2020-02-07T13:30:24.000Z</time>
      </trkpt>
      <trkpt lat="44.76197" lon="5.04497">
        <ele>356</ele>
        <time>2020-02-07T13:30:25.000Z</time>
      </trkpt>
      <trkpt lat="44.76197" lon="5.04497">
        <ele>356</ele>
        <time>2020-02-07T13:30:26.000Z</time>
      </trkpt>
      <trkpt lat="44.76197" lon="5.04497">
        <ele>356</ele>
        <time>2020-02-07T13:30:27.000Z</time>
      </trkpt>
      <trkpt lat="44.76197" lon="5.04497">
        <ele>356</ele>
        <time>2020-02-07T13:30:28.000Z</time>
      </trkpt>
      <trkpt lat="44.76196" lon="5.04497">
        <ele>356</ele>
        <time>2020-02-07T13:30:29.000Z</time>
      </trkpt>
      <trkpt lat="44.76196" lon="5.04498">
        <ele>356</ele>
        <time>2020-02-07T13:30:30.000Z</time>
      </trkpt>
      <trkpt lat="44.76196" lon="5.04498">
        <ele>356</ele>
        <time>2020-02-07T13:30:31.000Z</time>
      </trkpt>
      <trkpt lat="44.76195" lon="5.04498">
        <ele>356</ele>
        <time>2020-02-07T13:30:32.000Z</time>
      </trkpt>
      <trkpt lat="44.76194" lon="5.04498">
        <ele>357</ele>
        <time>2020-02-07T13:30:33.000Z</time>
      </trkpt>
      <trkpt lat="44.76194" lon="5.04498">
        <ele>357</ele>
        <time>2020-02-07T13:30:34.000Z</time>
      </trkpt>
      <trkpt lat="44.76193" lon="5.04498">
        <ele>357</ele>
        <time>2020-02-07T13:30:35.000Z</time>
      </trkpt>
      <trkpt lat="44.76193" lon="5.04498">
        <ele>357</ele>
        <time>2020-02-07T13:30:36.000Z</time>
      </trkpt>
      <trkpt lat="44.76192" lon="5.04498">
        <ele>357</ele>
        <time>2020-02-07T13:30:37.000Z</time>
      </trkpt>
      <trkpt lat="44.76191" lon="5.04499">
        <ele>358</ele>
        <time>2020-02-07T13:30:38.000Z</time>
      </trkpt>
      <trkpt lat="44.76191" lon="5.04499">
        <ele>358</ele>
        <time>2020-02-07T13:30:39.000Z</time>
      </trkpt>
      <trkpt lat="44.7619" lon="5.04498">
        <ele>358</ele>
        <time>2020-02-07T13:30:40.000Z</time>
      </trkpt>
      <trkpt lat="44.76189" lon="5.04499">
        <ele>358</ele>
        <time>2020-02-07T13:30:41.000Z</time>
      </trkpt>
      <trkpt lat="44.76189" lon="5.04499">
        <ele>358</ele>
        <time>2020-02-07T13:30:42.000Z</time>
      </trkpt>
      <trkpt lat="44.76188" lon="5.04499">
        <ele>358</ele>
        <time>2020-02-07T13:30:43.000Z</time>
      </trkpt>
      <trkpt lat="44.76187" lon="5.04498">
        <ele>358</ele>
        <time>2020-02-07T13:30:44.000Z</time>
      </trkpt>
      <trkpt lat="44.76186" lon="5.04498">
        <ele>358</ele>
        <time>2020-02-07T13:30:45.000Z</time>
      </trkpt>
      <trkpt lat="44.76185" lon="5.04498">
        <ele>358</ele>
        <time>2020-02-07T13:30:46.000Z</time>
      </trkpt>
      <trkpt lat="44.76184" lon="5.04498">
        <ele>358</ele>
        <time>2020-02-07T13:30:47.000Z</time>
      </trkpt>
      <trkpt lat="44.76183" lon="5.04498">
        <ele>358</ele>
        <time>2020-02-07T13:30:48.000Z</time>
      </trkpt>
      <trkpt lat="44.76182" lon="5.04497">
        <ele>358</ele>
        <time>2020-02-07T13:30:49.000Z</time>
      </trkpt>
      <trkpt lat="44.76181" lon="5.04497">
        <ele>358</ele>
        <time>2020-02-07T13:30:50.000Z</time>
      </trkpt>
      <trkpt lat="44.7618" lon="5.04497">
        <ele>358</ele>
        <time>2020-02-07T13:30:51.000Z</time>
      </trkpt>
      <trkpt lat="44.76179" lon="5.04496">
        <ele>358</ele>
        <time>2020-02-07T13:30:52.000Z</time>
      </trkpt>
      <trkpt lat="44.76179" lon="5.04496">
        <ele>358</ele>
        <time>2020-02-07T13:30:53.000Z</time>
      </trkpt>
      <trkpt lat="44.76178" lon="5.04496">
        <ele>358</ele>
        <time>2020-02-07T13:30:54.000Z</time>
      </trkpt>
      <trkpt lat="44.76177" lon="5.04495">
        <ele>358</ele>
        <time>2020-02-07T13:30:55.000Z</time>
      </trkpt>
      <trkpt lat="44.76176" lon="5.04495">
        <ele>358</ele>
        <time>2020-02-07T13:30:56.000Z</time>
      </trkpt>
      <trkpt lat="44.76175" lon="5.04494">
        <ele>358</ele>
        <time>2020-02-07T13:30:57.000Z</time>
      </trkpt>
      <trkpt lat="44.76175" lon="5.04494">
        <ele>358</ele>
        <time>2020-02-07T13:30:58.000Z</time>
      </trkpt>
      <trkpt lat="44.76174" lon="5.04494">
        <ele>357</ele>
        <time>2020-02-07T13:30:59.000Z</time>
      </trkpt>
      <trkpt lat="44.76173" lon="5.04494">
        <ele>357</ele>
        <time>2020-02-07T13:31:00.000Z</time>
      </trkpt>
      <trkpt lat="44.76173" lon="5.04494">
        <ele>357</ele>
        <time>2020-02-07T13:31:01.000Z</time>
      </trkpt>
      <trkpt lat="44.76172" lon="5.04494">
        <ele>357</ele>
        <time>2020-02-07T13:31:02.000Z</time>
      </trkpt>
      <trkpt lat="44.76171" lon="5.04494">
        <ele>357</ele>
        <time>2020-02-07T13:31:03.000Z</time>
      </trkpt>
      <trkpt lat="44.76171" lon="5.04494">
        <ele>357</ele>
        <time>2020-02-07T13:31:04.000Z</time>
      </trkpt>
      <trkpt lat="44.7617" lon="5.04493">
        <ele>357</ele>
        <time>2020-02-07T13:31:05.000Z</time>
      </trkpt>
      <trkpt lat="44.76169" lon="5.04493">
        <ele>357</ele>
        <time>2020-02-07T13:31:06.000Z</time>
      </trkpt>
      <trkpt lat="44.76168" lon="5.04492">
        <ele>357</ele>
        <time>2020-02-07T13:31:07.000Z</time>
      </trkpt>
      <trkpt lat="44.76167" lon="5.04492">
        <ele>357</ele>
        <time>2020-02-07T13:31:08.000Z</time>
      </trkpt>
      <trkpt lat="44.76167" lon="5.04491">
        <ele>357</ele>
        <time>2020-02-07T13:31:09.000Z</time>
      </trkpt>
      <trkpt lat="44.76166" lon="5.04489">
        <ele>356</ele>
        <time>2020-02-07T13:31:10.000Z</time>
      </trkpt>
      <trkpt lat="44.76166" lon="5.04488">
        <ele>356</ele>
        <time>2020-02-07T13:31:11.000Z</time>
      </trkpt>
      <trkpt lat="44.76165" lon="5.04487">
        <ele>356</ele>
        <time>2020-02-07T13:31:12.000Z</time>
      </trkpt>
      <trkpt lat="44.76165" lon="5.04486">
        <ele>356</ele>
        <time>2020-02-07T13:31:13.000Z</time>
      </trkpt>
      <trkpt lat="44.76164" lon="5.04485">
        <ele>356</ele>
        <time>2020-02-07T13:31:14.000Z</time>
      </trkpt>
      <trkpt lat="44.76164" lon="5.04484">
        <ele>356</ele>
        <time>2020-02-07T13:31:15.000Z</time>
      </trkpt>
      <trkpt lat="44.76163" lon="5.04484">
        <ele>355</ele>
        <time>2020-02-07T13:31:16.000Z</time>
      </trkpt>
      <trkpt lat="44.76163" lon="5.04483">
        <ele>355</ele>
        <time>2020-02-07T13:31:17.000Z</time>
      </trkpt>
      <trkpt lat="44.76162" lon="5.04482">
        <ele>355</ele>
        <time>2020-02-07T13:31:18.000Z</time>
      </trkpt>
      <trkpt lat="44.76162" lon="5.04481">
        <ele>355</ele>
        <time>2020-02-07T13:31:19.000Z</time>
      </trkpt>
      <trkpt lat="44.76161" lon="5.0448">
        <ele>355</ele>
        <time>2020-02-07T13:31:20.000Z</time>
      </trkpt>
      <trkpt lat="44.76161" lon="5.04479">
        <ele>354</ele>
        <time>2020-02-07T13:31:21.000Z</time>
      </trkpt>
      <trkpt lat="44.7616" lon="5.04478">
        <ele>354</ele>
        <time>2020-02-07T13:31:22.000Z</time>
      </trkpt>
      <trkpt lat="44.7616" lon="5.04477">
        <ele>354</ele>
        <time>2020-02-07T13:31:23.000Z</time>
      </trkpt>
      <trkpt lat="44.76159" lon="5.04476">
        <ele>354</ele>
        <time>2020-02-07T13:31:24.000Z</time>
      </trkpt>
      <trkpt lat="44.76158" lon="5.04476">
        <ele>354</ele>
        <time>2020-02-07T13:31:25.000Z</time>
      </trkpt>
      <trkpt lat="44.76158" lon="5.04475">
        <ele>354</ele>
        <time>2020-02-07T13:31:26.000Z</time>
      </trkpt>
      <trkpt lat="44.76157" lon="5.04475">
        <ele>354</ele>
        <time>2020-02-07T13:31:27.000Z</time>
      </trkpt>
      <trkpt lat="44.76157" lon="5.04474">
        <ele>354</ele>
        <time>2020-02-07T13:31:28.000Z</time>
      </trkpt>
      <trkpt lat="44.76156" lon="5.04473">
        <ele>354</ele>
        <time>2020-02-07T13:31:29.000Z</time>
      </trkpt>
      <trkpt lat="44.76156" lon="5.04473">
        <ele>354</ele>
        <time>2020-02-07T13:31:30.000Z</time>
      </trkpt>
      <trkpt lat="44.76155" lon="5.04472">
        <ele>354</ele>
        <time>2020-02-07T13:31:31.000Z</time>
      </trkpt>
      <trkpt lat="44.76155" lon="5.04471">
        <ele>353</ele>
        <time>2020-02-07T13:31:32.000Z</time>
      </trkpt>
      <trkpt lat="44.76154" lon="5.0447">
        <ele>353</ele>
        <time>2020-02-07T13:31:33.000Z</time>
      </trkpt>
      <trkpt lat="44.76154" lon="5.0447">
        <ele>353</ele>
        <time>2020-02-07T13:31:34.000Z</time>
      </trkpt>
      <trkpt lat="44.76153" lon="5.0447">
        <ele>353</ele>
        <time>2020-02-07T13:31:35.000Z</time>
      </trkpt>
      <trkpt lat="44.76153" lon="5.04469">
        <ele>353</ele>
        <time>2020-02-07T13:31:36.000Z</time>
      </trkpt>
      <trkpt lat="44.76153" lon="5.04469">
        <ele>353</ele>
        <time>2020-02-07T13:31:37.000Z</time>
      </trkpt>
      <trkpt lat="44.76152" lon="5.04469">
        <ele>353</ele>
        <time>2020-02-07T13:31:38.000Z</time>
      </trkpt>
      <trkpt lat="44.76152" lon="5.04468">
        <ele>353</ele>
        <time>2020-02-07T13:31:39.000Z</time>
      </trkpt>
      <trkpt lat="44.76151" lon="5.04468">
        <ele>353</ele>
        <time>2020-02-07T13:31:40.000Z</time>
      </trkpt>
      <trkpt lat="44.76151" lon="5.04468">
        <ele>353</ele>
        <time>2020-02-07T13:31:41.000Z</time>
      </trkpt>
      <trkpt lat="44.7615" lon="5.04468">
        <ele>353</ele>
        <time>2020-02-07T13:31:42.000Z</time>
      </trkpt>
      <trkpt lat="44.7615" lon="5.04468">
        <ele>354</ele>
        <time>2020-02-07T13:31:43.000Z</time>
      </trkpt>
      <trkpt lat="44.76149" lon="5.04467">
        <ele>354</ele>
        <time>2020-02-07T13:31:44.000Z</time>
      </trkpt>
      <trkpt lat="44.76149" lon="5.04467">
        <ele>354</ele>
        <time>2020-02-07T13:31:45.000Z</time>
      </trkpt>
      <trkpt lat="44.76148" lon="5.04466">
        <ele>354</ele>
        <time>2020-02-07T13:31:46.000Z</time>
      </trkpt>
      <trkpt lat="44.76147" lon="5.04466">
        <ele>354</ele>
        <time>2020-02-07T13:31:47.000Z</time>
      </trkpt>
      <trkpt lat="44.76147" lon="5.04466">
        <ele>354</ele>
        <time>2020-02-07T13:31:48.000Z</time>
      </trkpt>
      <trkpt lat="44.76146" lon="5.04466">
        <ele>354</ele>
        <time>2020-02-07T13:31:49.000Z</time>
      </trkpt>
      <trkpt lat="44.76146" lon="5.04465">
        <ele>354</ele>
        <time>2020-02-07T13:31:50.000Z</time>
      </trkpt>
      <trkpt lat="44.76146" lon="5.04465">
        <ele>354</ele>
        <time>2020-02-07T13:31:51.000Z</time>
      </trkpt>
      <trkpt lat="44.76145" lon="5.04465">
        <ele>354</ele>
        <time>2020-02-07T13:31:52.000Z</time>
      </trkpt>
      <trkpt lat="44.76145" lon="5.04464">
        <ele>354</ele>
        <time>2020-02-07T13:31:53.000Z</time>
      </trkpt>
      <trkpt lat="44.76144" lon="5.04464">
        <ele>354</ele>
        <time>2020-02-07T13:31:54.000Z</time>
      </trkpt>
      <trkpt lat="44.76144" lon="5.04464">
        <ele>354</ele>
        <time>2020-02-07T13:31:55.000Z</time>
      </trkpt>
      <trkpt lat="44.76143" lon="5.04463">
        <ele>354</ele>
        <time>2020-02-07T13:31:56.000Z</time>
      </trkpt>
      <trkpt lat="44.76143" lon="5.04463">
        <ele>354</ele>
        <time>2020-02-07T13:31:57.000Z</time>
      </trkpt>
      <trkpt lat="44.76142" lon="5.04462">
        <ele>354</ele>
        <time>2020-02-07T13:31:58.000Z</time>
      </trkpt>
      <trkpt lat="44.76142" lon="5.04462">
        <ele>354</ele>
        <time>2020-02-07T13:31:59.000Z</time>
      </trkpt>
      <trkpt lat="44.76141" lon="5.04461">
        <ele>354</ele>
        <time>2020-02-07T13:32:00.000Z</time>
      </trkpt>
      <trkpt lat="44.76141" lon="5.04461">
        <ele>354</ele>
        <time>2020-02-07T13:32:01.000Z</time>
      </trkpt>
      <trkpt lat="44.7614" lon="5.04461">
        <ele>354</ele>
        <time>2020-02-07T13:32:02.000Z</time>
      </trkpt>
      <trkpt lat="44.7614" lon="5.04461">
        <ele>354</ele>
        <time>2020-02-07T13:32:03.000Z</time>
      </trkpt>
      <trkpt lat="44.76139" lon="5.0446">
        <ele>354</ele>
        <time>2020-02-07T13:32:04.000Z</time>
      </trkpt>
      <trkpt lat="44.76138" lon="5.0446">
        <ele>354</ele>
        <time>2020-02-07T13:32:05.000Z</time>
      </trkpt>
      <trkpt lat="44.76138" lon="5.0446">
        <ele>354</ele>
        <time>2020-02-07T13:32:06.000Z</time>
      </trkpt>
      <trkpt lat="44.76137" lon="5.0446">
        <ele>354</ele>
        <time>2020-02-07T13:32:07.000Z</time>
      </trkpt>
      <trkpt lat="44.76136" lon="5.04459">
        <ele>354</ele>
        <time>2020-02-07T13:32:08.000Z</time>
      </trkpt>
      <trkpt lat="44.76136" lon="5.04459">
        <ele>354</ele>
        <time>2020-02-07T13:32:09.000Z</time>
      </trkpt>
      <trkpt lat="44.76135" lon="5.04459">
        <ele>354</ele>
        <time>2020-02-07T13:32:10.000Z</time>
      </trkpt>
      <trkpt lat="44.76134" lon="5.04458">
        <ele>354</ele>
        <time>2020-02-07T13:32:11.000Z</time>
      </trkpt>
      <trkpt lat="44.76134" lon="5.04458">
        <ele>354</ele>
        <time>2020-02-07T13:32:12.000Z</time>
      </trkpt>
      <trkpt lat="44.76133" lon="5.04457">
        <ele>354</ele>
        <time>2020-02-07T13:32:13.000Z</time>
      </trkpt>
      <trkpt lat="44.76133" lon="5.04457">
        <ele>354</ele>
        <time>2020-02-07T13:32:14.000Z</time>
      </trkpt>
      <trkpt lat="44.76132" lon="5.04457">
        <ele>354</ele>
        <time>2020-02-07T13:32:15.000Z</time>
      </trkpt>
      <trkpt lat="44.76131" lon="5.04456">
        <ele>354</ele>
        <time>2020-02-07T13:32:16.000Z</time>
      </trkpt>
      <trkpt lat="44.76131" lon="5.04456">
        <ele>354</ele>
        <time>2020-02-07T13:32:17.000Z</time>
      </trkpt>
      <trkpt lat="44.7613" lon="5.04456">
        <ele>354</ele>
        <time>2020-02-07T13:32:18.000Z</time>
      </trkpt>
      <trkpt lat="44.76129" lon="5.04456">
        <ele>355</ele>
        <time>2020-02-07T13:32:19.000Z</time>
      </trkpt>
      <trkpt lat="44.76129" lon="5.04456">
        <ele>355</ele>
        <time>2020-02-07T13:32:20.000Z</time>
      </trkpt>
      <trkpt lat="44.76128" lon="5.04455">
        <ele>355</ele>
        <time>2020-02-07T13:32:21.000Z</time>
      </trkpt>
      <trkpt lat="44.76128" lon="5.04454">
        <ele>355</ele>
        <time>2020-02-07T13:32:22.000Z</time>
      </trkpt>
      <trkpt lat="44.76128" lon="5.04454">
        <ele>355</ele>
        <time>2020-02-07T13:32:23.000Z</time>
      </trkpt>
      <trkpt lat="44.76127" lon="5.04453">
        <ele>355</ele>
        <time>2020-02-07T13:32:24.000Z</time>
      </trkpt>
      <trkpt lat="44.76126" lon="5.04453">
        <ele>355</ele>
        <time>2020-02-07T13:32:25.000Z</time>
      </trkpt>
      <trkpt lat="44.76126" lon="5.04453">
        <ele>356</ele>
        <time>2020-02-07T13:32:26.000Z</time>
      </trkpt>
      <trkpt lat="44.76125" lon="5.04453">
        <ele>356</ele>
        <time>2020-02-07T13:32:27.000Z</time>
      </trkpt>
      <trkpt lat="44.76124" lon="5.04452">
        <ele>356</ele>
        <time>2020-02-07T13:32:28.000Z</time>
      </trkpt>
      <trkpt lat="44.76124" lon="5.04452">
        <ele>356</ele>
        <time>2020-02-07T13:32:29.000Z</time>
      </trkpt>
      <trkpt lat="44.76123" lon="5.04451">
        <ele>356</ele>
        <time>2020-02-07T13:32:30.000Z</time>
      </trkpt>
      <trkpt lat="44.76122" lon="5.04451">
        <ele>356</ele>
        <time>2020-02-07T13:32:31.000Z</time>
      </trkpt>
      <trkpt lat="44.76122" lon="5.0445">
        <ele>356</ele>
        <time>2020-02-07T13:32:32.000Z</time>
      </trkpt>
      <trkpt lat="44.76122" lon="5.0445">
        <ele>357</ele>
        <time>2020-02-07T13:32:33.000Z</time>
      </trkpt>
      <trkpt lat="44.76121" lon="5.04449">
        <ele>357</ele>
        <time>2020-02-07T13:32:34.000Z</time>
      </trkpt>
      <trkpt lat="44.7612" lon="5.04449">
        <ele>357</ele>
        <time>2020-02-07T13:32:35.000Z</time>
      </trkpt>
      <trkpt lat="44.76119" lon="5.04449">
        <ele>357</ele>
        <time>2020-02-07T13:32:36.000Z</time>
      </trkpt>
      <trkpt lat="44.76119" lon="5.04448">
        <ele>357</ele>
        <time>2020-02-07T13:32:37.000Z</time>
      </trkpt>
      <trkpt lat="44.76118" lon="5.04447">
        <ele>357</ele>
        <time>2020-02-07T13:32:38.000Z</time>
      </trkpt>
      <trkpt lat="44.76118" lon="5.04447">
        <ele>357</ele>
        <time>2020-02-07T13:32:39.000Z</time>
      </trkpt>
      <trkpt lat="44.76118" lon="5.04447">
        <ele>357</ele>
        <time>2020-02-07T13:32:40.000Z</time>
      </trkpt>
      <trkpt lat="44.76118" lon="5.04446">
        <ele>357</ele>
        <time>2020-02-07T13:32:41.000Z</time>
      </trkpt>
      <trkpt lat="44.76117" lon="5.04446">
        <ele>357</ele>
        <time>2020-02-07T13:32:42.000Z</time>
      </trkpt>
      <trkpt lat="44.76117" lon="5.04445">
        <ele>357</ele>
        <time>2020-02-07T13:32:43.000Z</time>
      </trkpt>
      <trkpt lat="44.76116" lon="5.04445">
        <ele>357</ele>
        <time>2020-02-07T13:32:44.000Z</time>
      </trkpt>
      <trkpt lat="44.76115" lon="5.04444">
        <ele>357</ele>
        <time>2020-02-07T13:32:45.000Z</time>
      </trkpt>
      <trkpt lat="44.76115" lon="5.04444">
        <ele>357</ele>
        <time>2020-02-07T13:32:46.000Z</time>
      </trkpt>
      <trkpt lat="44.76115" lon="5.04443">
        <ele>358</ele>
        <time>2020-02-07T13:32:47.000Z</time>
      </trkpt>
      <trkpt lat="44.76114" lon="5.04443">
        <ele>358</ele>
        <time>2020-02-07T13:32:48.000Z</time>
      </trkpt>
      <trkpt lat="44.76114" lon="5.04442">
        <ele>358</ele>
        <time>2020-02-07T13:32:49.000Z</time>
      </trkpt>
      <trkpt lat="44.76114" lon="5.04442">
        <ele>358</ele>
        <time>2020-02-07T13:32:50.000Z</time>
      </trkpt>
      <trkpt lat="44.76113" lon="5.04441">
        <ele>358</ele>
        <time>2020-02-07T13:32:51.000Z</time>
      </trkpt>
      <trkpt lat="44.76113" lon="5.04441">
        <ele>358</ele>
        <time>2020-02-07T13:32:52.000Z</time>
      </trkpt>
      <trkpt lat="44.76113" lon="5.0444">
        <ele>359</ele>
        <time>2020-02-07T13:32:53.000Z</time>
      </trkpt>
      <trkpt lat="44.76112" lon="5.0444">
        <ele>359</ele>
        <time>2020-02-07T13:32:54.000Z</time>
      </trkpt>
      <trkpt lat="44.76112" lon="5.04439">
        <ele>359</ele>
        <time>2020-02-07T13:32:55.000Z</time>
      </trkpt>
      <trkpt lat="44.76111" lon="5.04439">
        <ele>359</ele>
        <time>2020-02-07T13:32:56.000Z</time>
      </trkpt>
      <trkpt lat="44.76111" lon="5.04438">
        <ele>359</ele>
        <time>2020-02-07T13:32:57.000Z</time>
      </trkpt>
      <trkpt lat="44.76111" lon="5.04437">
        <ele>360</ele>
        <time>2020-02-07T13:32:58.000Z</time>
      </trkpt>
      <trkpt lat="44.7611" lon="5.04437">
        <ele>360</ele>
        <time>2020-02-07T13:32:59.000Z</time>
      </trkpt>
      <trkpt lat="44.7611" lon="5.04436">
        <ele>360</ele>
        <time>2020-02-07T13:33:00.000Z</time>
      </trkpt>
      <trkpt lat="44.76109" lon="5.04436">
        <ele>360</ele>
        <time>2020-02-07T13:33:01.000Z</time>
      </trkpt>
      <trkpt lat="44.76109" lon="5.04435">
        <ele>360</ele>
        <time>2020-02-07T13:33:02.000Z</time>
      </trkpt>
      <trkpt lat="44.76108" lon="5.04434">
        <ele>359</ele>
        <time>2020-02-07T13:33:03.000Z</time>
      </trkpt>
      <trkpt lat="44.76108" lon="5.04433">
        <ele>359</ele>
        <time>2020-02-07T13:33:04.000Z</time>
      </trkpt>
      <trkpt lat="44.76107" lon="5.04433">
        <ele>359</ele>
        <time>2020-02-07T13:33:05.000Z</time>
      </trkpt>
      <trkpt lat="44.76107" lon="5.04432">
        <ele>359</ele>
        <time>2020-02-07T13:33:06.000Z</time>
      </trkpt>
      <trkpt lat="44.76107" lon="5.04431">
        <ele>359</ele>
        <time>2020-02-07T13:33:07.000Z</time>
      </trkpt>
      <trkpt lat="44.76107" lon="5.0443">
        <ele>359</ele>
        <time>2020-02-07T13:33:08.000Z</time>
      </trkpt>
      <trkpt lat="44.76106" lon="5.04429">
        <ele>359</ele>
        <time>2020-02-07T13:33:09.000Z</time>
      </trkpt>
      <trkpt lat="44.76106" lon="5.04429">
        <ele>359</ele>
        <time>2020-02-07T13:33:10.000Z</time>
      </trkpt>
      <trkpt lat="44.76106" lon="5.04428">
        <ele>359</ele>
        <time>2020-02-07T13:33:11.000Z</time>
      </trkpt>
      <trkpt lat="44.76106" lon="5.04427">
        <ele>359</ele>
        <time>2020-02-07T13:33:12.000Z</time>
      </trkpt>
      <trkpt lat="44.76106" lon="5.04427">
        <ele>359</ele>
        <time>2020-02-07T13:33:13.000Z</time>
      </trkpt>
      <trkpt lat="44.76105" lon="5.04426">
        <ele>359</ele>
        <time>2020-02-07T13:33:14.000Z</time>
      </trkpt>
      <trkpt lat="44.76105" lon="5.04426">
        <ele>360</ele>
        <time>2020-02-07T13:33:15.000Z</time>
      </trkpt>
      <trkpt lat="44.76105" lon="5.04425">
        <ele>360</ele>
        <time>2020-02-07T13:33:16.000Z</time>
      </trkpt>
      <trkpt lat="44.76104" lon="5.04424">
        <ele>360</ele>
        <time>2020-02-07T13:33:17.000Z</time>
      </trkpt>
      <trkpt lat="44.76104" lon="5.04424">
        <ele>360</ele>
        <time>2020-02-07T13:33:18.000Z</time>
      </trkpt>
      <trkpt lat="44.76104" lon="5.04423">
        <ele>360</ele>
        <time>2020-02-07T13:33:19.000Z</time>
      </trkpt>
      <trkpt lat="44.76104" lon="5.04422">
        <ele>360</ele>
        <time>2020-02-07T13:33:20.000Z</time>
      </trkpt>
      <trkpt lat="44.76104" lon="5.04421">
        <ele>360</ele>
        <time>2020-02-07T13:33:21.000Z</time>
      </trkpt>
      <trkpt lat="44.76103" lon="5.0442">
        <ele>360</ele>
        <time>2020-02-07T13:33:22.000Z</time>
      </trkpt>
      <trkpt lat="44.76103" lon="5.04419">
        <ele>360</ele>
        <time>2020-02-07T13:33:23.000Z</time>
      </trkpt>
      <trkpt lat="44.76103" lon="5.04418">
        <ele>360</ele>
        <time>2020-02-07T13:33:24.000Z</time>
      </trkpt>
      <trkpt lat="44.76102" lon="5.04417">
        <ele>360</ele>
        <time>2020-02-07T13:33:25.000Z</time>
      </trkpt>
      <trkpt lat="44.76102" lon="5.04416">
        <ele>360</ele>
        <time>2020-02-07T13:33:26.000Z</time>
      </trkpt>
      <trkpt lat="44.76102" lon="5.04416">
        <ele>359</ele>
        <time>2020-02-07T13:33:27.000Z</time>
      </trkpt>
      <trkpt lat="44.76101" lon="5.04415">
        <ele>359</ele>
        <time>2020-02-07T13:33:28.000Z</time>
      </trkpt>
      <trkpt lat="44.76101" lon="5.04414">
        <ele>359</ele>
        <time>2020-02-07T13:33:29.000Z</time>
      </trkpt>
      <trkpt lat="44.76101" lon="5.04414">
        <ele>359</ele>
        <time>2020-02-07T13:33:30.000Z</time>
      </trkpt>
      <trkpt lat="44.761" lon="5.04413">
        <ele>359</ele>
        <time>2020-02-07T13:33:31.000Z</time>
      </trkpt>
      <trkpt lat="44.761" lon="5.04412">
        <ele>359</ele>
        <time>2020-02-07T13:33:32.000Z</time>
      </trkpt>
      <trkpt lat="44.761" lon="5.04411">
        <ele>359</ele>
        <time>2020-02-07T13:33:33.000Z</time>
      </trkpt>
      <trkpt lat="44.761" lon="5.04411">
        <ele>359</ele>
        <time>2020-02-07T13:33:34.000Z</time>
      </trkpt>
      <trkpt lat="44.76099" lon="5.0441">
        <ele>359</ele>
        <time>2020-02-07T13:33:35.000Z</time>
      </trkpt>
      <trkpt lat="44.76099" lon="5.04408">
        <ele>359</ele>
        <time>2020-02-07T13:33:36.000Z</time>
      </trkpt>
      <trkpt lat="44.76098" lon="5.04407">
        <ele>359</ele>
        <time>2020-02-07T13:33:37.000Z</time>
      </trkpt>
      <trkpt lat="44.76098" lon="5.04406">
        <ele>359</ele>
        <time>2020-02-07T13:33:38.000Z</time>
      </trkpt>
      <trkpt lat="44.76098" lon="5.04405">
        <ele>359</ele>
        <time>2020-02-07T13:33:39.000Z</time>
      </trkpt>
      <trkpt lat="44.76097" lon="5.04403">
        <ele>359</ele>
        <time>2020-02-07T13:33:40.000Z</time>
      </trkpt>
      <trkpt lat="44.76097" lon="5.04402">
        <ele>359</ele>
        <time>2020-02-07T13:33:41.000Z</time>
      </trkpt>
      <trkpt lat="44.76097" lon="5.044">
        <ele>359</ele>
        <time>2020-02-07T13:33:42.000Z</time>
      </trkpt>
      <trkpt lat="44.76097" lon="5.04399">
        <ele>359</ele>
        <time>2020-02-07T13:33:43.000Z</time>
      </trkpt>
      <trkpt lat="44.76096" lon="5.04398">
        <ele>359</ele>
        <time>2020-02-07T13:33:44.000Z</time>
      </trkpt>
      <trkpt lat="44.76096" lon="5.04397">
        <ele>359</ele>
        <time>2020-02-07T13:33:45.000Z</time>
      </trkpt>
      <trkpt lat="44.76096" lon="5.04396">
        <ele>359</ele>
        <time>2020-02-07T13:33:46.000Z</time>
      </trkpt>
      <trkpt lat="44.76095" lon="5.04395">
        <ele>359</ele>
        <time>2020-02-07T13:33:47.000Z</time>
      </trkpt>
      <trkpt lat="44.76095" lon="5.04393">
        <ele>359</ele>
        <time>2020-02-07T13:33:48.000Z</time>
      </trkpt>
      <trkpt lat="44.76094" lon="5.04392">
        <ele>359</ele>
        <time>2020-02-07T13:33:49.000Z</time>
      </trkpt>
      <trkpt lat="44.76094" lon="5.04391">
        <ele>359</ele>
        <time>2020-02-07T13:33:50.000Z</time>
      </trkpt>
      <trkpt lat="44.76093" lon="5.0439">
        <ele>359</ele>
        <time>2020-02-07T13:33:51.000Z</time>
      </trkpt>
      <trkpt lat="44.76092" lon="5.04389">
        <ele>359</ele>
        <time>2020-02-07T13:33:52.000Z</time>
      </trkpt>
      <trkpt lat="44.76092" lon="5.04388">
        <ele>359</ele>
        <time>2020-02-07T13:33:53.000Z</time>
      </trkpt>
      <trkpt lat="44.76092" lon="5.04387">
        <ele>359</ele>
        <time>2020-02-07T13:33:54.000Z</time>
      </trkpt>
      <trkpt lat="44.76092" lon="5.04386">
        <ele>359</ele>
        <time>2020-02-07T13:33:55.000Z</time>
      </trkpt>
      <trkpt lat="44.76091" lon="5.04385">
        <ele>359</ele>
        <time>2020-02-07T13:33:56.000Z</time>
      </trkpt>
      <trkpt lat="44.76091" lon="5.04384">
        <ele>359</ele>
        <time>2020-02-07T13:33:57.000Z</time>
      </trkpt>
      <trkpt lat="44.7609" lon="5.04383">
        <ele>359</ele>
        <time>2020-02-07T13:33:58.000Z</time>
      </trkpt>
      <trkpt lat="44.7609" lon="5.04383">
        <ele>359</ele>
        <time>2020-02-07T13:33:59.000Z</time>
      </trkpt>
      <trkpt lat="44.76089" lon="5.04382">
        <ele>359</ele>
        <time>2020-02-07T13:34:00.000Z</time>
      </trkpt>
      <trkpt lat="44.76089" lon="5.04382">
        <ele>359</ele>
        <time>2020-02-07T13:34:01.000Z</time>
      </trkpt>
      <trkpt lat="44.76088" lon="5.04381">
        <ele>359</ele>
        <time>2020-02-07T13:34:02.000Z</time>
      </trkpt>
      <trkpt lat="44.76088" lon="5.0438">
        <ele>359</ele>
        <time>2020-02-07T13:34:03.000Z</time>
      </trkpt>
      <trkpt lat="44.76087" lon="5.04379">
        <ele>359</ele>
        <time>2020-02-07T13:34:04.000Z</time>
      </trkpt>
      <trkpt lat="44.76087" lon="5.04378">
        <ele>359</ele>
        <time>2020-02-07T13:34:05.000Z</time>
      </trkpt>
      <trkpt lat="44.76086" lon="5.04377">
        <ele>359</ele>
        <time>2020-02-07T13:34:06.000Z</time>
      </trkpt>
      <trkpt lat="44.76086" lon="5.04376">
        <ele>359</ele>
        <time>2020-02-07T13:34:07.000Z</time>
      </trkpt>
      <trkpt lat="44.76086" lon="5.04375">
        <ele>359</ele>
        <time>2020-02-07T13:34:08.000Z</time>
      </trkpt>
      <trkpt lat="44.76085" lon="5.04374">
        <ele>359</ele>
        <time>2020-02-07T13:34:09.000Z</time>
      </trkpt>
      <trkpt lat="44.76084" lon="5.04374">
        <ele>360</ele>
        <time>2020-02-07T13:34:10.000Z</time>
      </trkpt>
      <trkpt lat="44.76084" lon="5.04373">
        <ele>360</ele>
        <time>2020-02-07T13:34:11.000Z</time>
      </trkpt>
      <trkpt lat="44.76083" lon="5.04372">
        <ele>360</ele>
        <time>2020-02-07T13:34:12.000Z</time>
      </trkpt>
      <trkpt lat="44.76082" lon="5.04371">
        <ele>360</ele>
        <time>2020-02-07T13:34:13.000Z</time>
      </trkpt>
      <trkpt lat="44.76081" lon="5.04371">
        <ele>360</ele>
        <time>2020-02-07T13:34:14.000Z</time>
      </trkpt>
      <trkpt lat="44.76081" lon="5.0437">
        <ele>360</ele>
        <time>2020-02-07T13:34:15.000Z</time>
      </trkpt>
      <trkpt lat="44.7608" lon="5.0437">
        <ele>360</ele>
        <time>2020-02-07T13:34:16.000Z</time>
      </trkpt>
      <trkpt lat="44.76079" lon="5.04369">
        <ele>361</ele>
        <time>2020-02-07T13:34:17.000Z</time>
      </trkpt>
      <trkpt lat="44.76078" lon="5.04368">
        <ele>361</ele>
        <time>2020-02-07T13:34:18.000Z</time>
      </trkpt>
      <trkpt lat="44.76077" lon="5.04367">
        <ele>361</ele>
        <time>2020-02-07T13:34:19.000Z</time>
      </trkpt>
      <trkpt lat="44.76077" lon="5.04367">
        <ele>361</ele>
        <time>2020-02-07T13:34:20.000Z</time>
      </trkpt>
      <trkpt lat="44.76076" lon="5.04366">
        <ele>361</ele>
        <time>2020-02-07T13:34:21.000Z</time>
      </trkpt>
      <trkpt lat="44.76075" lon="5.04366">
        <ele>361</ele>
        <time>2020-02-07T13:34:22.000Z</time>
      </trkpt>
      <trkpt lat="44.76074" lon="5.04366">
        <ele>362</ele>
        <time>2020-02-07T13:34:23.000Z</time>
      </trkpt>
      <trkpt lat="44.76074" lon="5.04365">
        <ele>362</ele>
        <time>2020-02-07T13:34:24.000Z</time>
      </trkpt>
      <trkpt lat="44.76073" lon="5.04365">
        <ele>362</ele>
        <time>2020-02-07T13:34:25.000Z</time>
      </trkpt>
      <trkpt lat="44.76072" lon="5.04364">
        <ele>362</ele>
        <time>2020-02-07T13:34:26.000Z</time>
      </trkpt>
      <trkpt lat="44.76071" lon="5.04364">
        <ele>362</ele>
        <time>2020-02-07T13:34:27.000Z</time>
      </trkpt>
      <trkpt lat="44.7607" lon="5.04363">
        <ele>362</ele>
        <time>2020-02-07T13:34:28.000Z</time>
      </trkpt>
      <trkpt lat="44.7607" lon="5.04362">
        <ele>362</ele>
        <time>2020-02-07T13:34:29.000Z</time>
      </trkpt>
      <trkpt lat="44.76069" lon="5.04362">
        <ele>362</ele>
        <time>2020-02-07T13:34:30.000Z</time>
      </trkpt>
      <trkpt lat="44.76068" lon="5.04361">
        <ele>363</ele>
        <time>2020-02-07T13:34:31.000Z</time>
      </trkpt>
      <trkpt lat="44.76067" lon="5.04361">
        <ele>363</ele>
        <time>2020-02-07T13:34:32.000Z</time>
      </trkpt>
      <trkpt lat="44.76066" lon="5.0436">
        <ele>363</ele>
        <time>2020-02-07T13:34:33.000Z</time>
      </trkpt>
      <trkpt lat="44.76065" lon="5.0436">
        <ele>363</ele>
        <time>2020-02-07T13:34:34.000Z</time>
      </trkpt>
      <trkpt lat="44.76064" lon="5.04359">
        <ele>363</ele>
        <time>2020-02-07T13:34:35.000Z</time>
      </trkpt>
      <trkpt lat="44.76064" lon="5.04359">
        <ele>363</ele>
        <time>2020-02-07T13:34:36.000Z</time>
      </trkpt>
      <trkpt lat="44.76062" lon="5.04359">
        <ele>363</ele>
        <time>2020-02-07T13:34:37.000Z</time>
      </trkpt>
      <trkpt lat="44.76061" lon="5.04358">
        <ele>363</ele>
        <time>2020-02-07T13:34:38.000Z</time>
      </trkpt>
      <trkpt lat="44.7606" lon="5.04357">
        <ele>363</ele>
        <time>2020-02-07T13:34:39.000Z</time>
      </trkpt>
      <trkpt lat="44.7606" lon="5.04357">
        <ele>363</ele>
        <time>2020-02-07T13:34:40.000Z</time>
      </trkpt>
      <trkpt lat="44.76059" lon="5.04356">
        <ele>363</ele>
        <time>2020-02-07T13:34:41.000Z</time>
      </trkpt>
      <trkpt lat="44.76058" lon="5.04356">
        <ele>364</ele>
        <time>2020-02-07T13:34:42.000Z</time>
      </trkpt>
      <trkpt lat="44.76057" lon="5.04356">
        <ele>364</ele>
        <time>2020-02-07T13:34:43.000Z</time>
      </trkpt>
      <trkpt lat="44.76057" lon="5.04356">
        <ele>364</ele>
        <time>2020-02-07T13:34:44.000Z</time>
      </trkpt>
      <trkpt lat="44.76056" lon="5.04356">
        <ele>364</ele>
        <time>2020-02-07T13:34:45.000Z</time>
      </trkpt>
      <trkpt lat="44.76055" lon="5.04356">
        <ele>364</ele>
        <time>2020-02-07T13:34:46.000Z</time>
      </trkpt>
      <trkpt lat="44.76055" lon="5.04356">
        <ele>364</ele>
        <time>2020-02-07T13:34:47.000Z</time>
      </trkpt>
      <trkpt lat="44.76054" lon="5.04355">
        <ele>365</ele>
        <time>2020-02-07T13:34:48.000Z</time>
      </trkpt>
      <trkpt lat="44.76053" lon="5.04355">
        <ele>365</ele>
        <time>2020-02-07T13:34:49.000Z</time>
      </trkpt>
      <trkpt lat="44.76053" lon="5.04354">
        <ele>365</ele>
        <time>2020-02-07T13:34:50.000Z</time>
      </trkpt>
      <trkpt lat="44.76052" lon="5.04354">
        <ele>366</ele>
        <time>2020-02-07T13:34:51.000Z</time>
      </trkpt>
      <trkpt lat="44.76051" lon="5.04354">
        <ele>366</ele>
        <time>2020-02-07T13:34:52.000Z</time>
      </trkpt>
      <trkpt lat="44.7605" lon="5.04354">
        <ele>366</ele>
        <time>2020-02-07T13:34:53.000Z</time>
      </trkpt>
      <trkpt lat="44.7605" lon="5.04353">
        <ele>366</ele>
        <time>2020-02-07T13:34:54.000Z</time>
      </trkpt>
      <trkpt lat="44.76049" lon="5.04353">
        <ele>366</ele>
        <time>2020-02-07T13:34:55.000Z</time>
      </trkpt>
      <trkpt lat="44.76048" lon="5.04353">
        <ele>367</ele>
        <time>2020-02-07T13:34:56.000Z</time>
      </trkpt>
      <trkpt lat="44.76048" lon="5.04353">
        <ele>367</ele>
        <time>2020-02-07T13:34:57.000Z</time>
      </trkpt>
      <trkpt lat="44.76047" lon="5.04353">
        <ele>367</ele>
        <time>2020-02-07T13:34:58.000Z</time>
      </trkpt>
      <trkpt lat="44.76046" lon="5.04352">
        <ele>367</ele>
        <time>2020-02-07T13:34:59.000Z</time>
      </trkpt>
      <trkpt lat="44.76045" lon="5.04352">
        <ele>368</ele>
        <time>2020-02-07T13:35:00.000Z</time>
      </trkpt>
      <trkpt lat="44.76045" lon="5.04352">
        <ele>368</ele>
        <time>2020-02-07T13:35:01.000Z</time>
      </trkpt>
      <trkpt lat="44.76044" lon="5.04352">
        <ele>368</ele>
        <time>2020-02-07T13:35:02.000Z</time>
      </trkpt>
      <trkpt lat="44.76043" lon="5.04351">
        <ele>368</ele>
        <time>2020-02-07T13:35:03.000Z</time>
      </trkpt>
      <trkpt lat="44.76043" lon="5.04351">
        <ele>369</ele>
        <time>2020-02-07T13:35:04.000Z</time>
      </trkpt>
      <trkpt lat="44.76042" lon="5.04351">
        <ele>369</ele>
        <time>2020-02-07T13:35:05.000Z</time>
      </trkpt>
      <trkpt lat="44.76042" lon="5.04351">
        <ele>369</ele>
        <time>2020-02-07T13:35:06.000Z</time>
      </trkpt>
      <trkpt lat="44.76041" lon="5.0435">
        <ele>369</ele>
        <time>2020-02-07T13:35:07.000Z</time>
      </trkpt>
      <trkpt lat="44.76041" lon="5.0435">
        <ele>369</ele>
        <time>2020-02-07T13:35:08.000Z</time>
      </trkpt>
      <trkpt lat="44.76041" lon="5.0435">
        <ele>370</ele>
        <time>2020-02-07T13:35:09.000Z</time>
      </trkpt>
      <trkpt lat="44.76041" lon="5.0435">
        <ele>370</ele>
        <time>2020-02-07T13:35:10.000Z</time>
      </trkpt>
      <trkpt lat="44.76041" lon="5.04349">
        <ele>370</ele>
        <time>2020-02-07T13:35:11.000Z</time>
      </trkpt>
      <trkpt lat="44.76041" lon="5.04349">
        <ele>370</ele>
        <time>2020-02-07T13:35:12.000Z</time>
      </trkpt>
      <trkpt lat="44.76041" lon="5.04349">
        <ele>370</ele>
        <time>2020-02-07T13:35:13.000Z</time>
      </trkpt>
      <trkpt lat="44.76041" lon="5.04349">
        <ele>371</ele>
        <time>2020-02-07T13:35:14.000Z</time>
      </trkpt>
      <trkpt lat="44.7604" lon="5.04349">
        <ele>371</ele>
        <time>2020-02-07T13:35:15.000Z</time>
      </trkpt>
      <trkpt lat="44.7604" lon="5.04348">
        <ele>371</ele>
        <time>2020-02-07T13:35:16.000Z</time>
      </trkpt>
      <trkpt lat="44.76039" lon="5.04348">
        <ele>371</ele>
        <time>2020-02-07T13:35:17.000Z</time>
      </trkpt>
      <trkpt lat="44.76039" lon="5.04348">
        <ele>371</ele>
        <time>2020-02-07T13:35:18.000Z</time>
      </trkpt>
      <trkpt lat="44.76039" lon="5.04348">
        <ele>372</ele>
        <time>2020-02-07T13:35:19.000Z</time>
      </trkpt>
      <trkpt lat="44.76039" lon="5.04348">
        <ele>372</ele>
        <time>2020-02-07T13:35:20.000Z</time>
      </trkpt>
      <trkpt lat="44.76039" lon="5.04348">
        <ele>372</ele>
        <time>2020-02-07T13:35:21.000Z</time>
      </trkpt>
      <trkpt lat="44.76038" lon="5.04347">
        <ele>372</ele>
        <time>2020-02-07T13:35:22.000Z</time>
      </trkpt>
      <trkpt lat="44.76038" lon="5.04347">
        <ele>372</ele>
        <time>2020-02-07T13:35:23.000Z</time>
      </trkpt>
      <trkpt lat="44.76037" lon="5.04347">
        <ele>372</ele>
        <time>2020-02-07T13:35:24.000Z</time>
      </trkpt>
      <trkpt lat="44.76037" lon="5.04347">
        <ele>373</ele>
        <time>2020-02-07T13:35:25.000Z</time>
      </trkpt>
      <trkpt lat="44.76036" lon="5.04347">
        <ele>373</ele>
        <time>2020-02-07T13:35:26.000Z</time>
      </trkpt>
      <trkpt lat="44.76036" lon="5.04346">
        <ele>373</ele>
        <time>2020-02-07T13:35:27.000Z</time>
      </trkpt>
      <trkpt lat="44.76035" lon="5.04346">
        <ele>373</ele>
        <time>2020-02-07T13:35:28.000Z</time>
      </trkpt>
      <trkpt lat="44.76035" lon="5.04346">
        <ele>373</ele>
        <time>2020-02-07T13:35:29.000Z</time>
      </trkpt>
      <trkpt lat="44.76035" lon="5.04345">
        <ele>373</ele>
        <time>2020-02-07T13:35:30.000Z</time>
      </trkpt>
      <trkpt lat="44.76034" lon="5.04345">
        <ele>373</ele>
        <time>2020-02-07T13:35:31.000Z</time>
      </trkpt>
      <trkpt lat="44.76034" lon="5.04345">
        <ele>374</ele>
        <time>2020-02-07T13:35:32.000Z</time>
      </trkpt>
      <trkpt lat="44.76034" lon="5.04345">
        <ele>374</ele>
        <time>2020-02-07T13:35:33.000Z</time>
      </trkpt>
      <trkpt lat="44.76034" lon="5.04344">
        <ele>374</ele>
        <time>2020-02-07T13:35:34.000Z</time>
      </trkpt>
      <trkpt lat="44.76033" lon="5.04344">
        <ele>374</ele>
        <time>2020-02-07T13:35:35.000Z</time>
      </trkpt>
      <trkpt lat="44.76033" lon="5.04344">
        <ele>374</ele>
        <time>2020-02-07T13:35:36.000Z</time>
      </trkpt>
      <trkpt lat="44.76033" lon="5.04343">
        <ele>374</ele>
        <time>2020-02-07T13:35:37.000Z</time>
      </trkpt>
      <trkpt lat="44.76033" lon="5.04343">
        <ele>374</ele>
        <time>2020-02-07T13:35:38.000Z</time>
      </trkpt>
      <trkpt lat="44.76032" lon="5.04343">
        <ele>374</ele>
        <time>2020-02-07T13:35:39.000Z</time>
      </trkpt>
      <trkpt lat="44.76032" lon="5.04343">
        <ele>374</ele>
        <time>2020-02-07T13:35:40.000Z</time>
      </trkpt>
      <trkpt lat="44.76031" lon="5.04342">
        <ele>374</ele>
        <time>2020-02-07T13:35:41.000Z</time>
      </trkpt>
      <trkpt lat="44.76031" lon="5.04342">
        <ele>374</ele>
        <time>2020-02-07T13:35:42.000Z</time>
      </trkpt>
      <trkpt lat="44.76031" lon="5.04342">
        <ele>375</ele>
        <time>2020-02-07T13:35:43.000Z</time>
      </trkpt>
      <trkpt lat="44.7603" lon="5.04342">
        <ele>375</ele>
        <time>2020-02-07T13:35:44.000Z</time>
      </trkpt>
      <trkpt lat="44.7603" lon="5.04341">
        <ele>375</ele>
        <time>2020-02-07T13:35:45.000Z</time>
      </trkpt>
      <trkpt lat="44.76029" lon="5.04341">
        <ele>375</ele>
        <time>2020-02-07T13:35:46.000Z</time>
      </trkpt>
      <trkpt lat="44.76029" lon="5.0434">
        <ele>375</ele>
        <time>2020-02-07T13:35:47.000Z</time>
      </trkpt>
      <trkpt lat="44.76029" lon="5.0434">
        <ele>375</ele>
        <time>2020-02-07T13:35:48.000Z</time>
      </trkpt>
      <trkpt lat="44.76029" lon="5.04339">
        <ele>375</ele>
        <time>2020-02-07T13:35:49.000Z</time>
      </trkpt>
      <trkpt lat="44.76028" lon="5.04339">
        <ele>375</ele>
        <time>2020-02-07T13:35:50.000Z</time>
      </trkpt>
      <trkpt lat="44.76028" lon="5.04339">
        <ele>375</ele>
        <time>2020-02-07T13:35:51.000Z</time>
      </trkpt>
      <trkpt lat="44.76028" lon="5.04338">
        <ele>375</ele>
        <time>2020-02-07T13:35:52.000Z</time>
      </trkpt>
      <trkpt lat="44.76027" lon="5.04337">
        <ele>375</ele>
        <time>2020-02-07T13:35:53.000Z</time>
      </trkpt>
      <trkpt lat="44.76027" lon="5.04336">
        <ele>375</ele>
        <time>2020-02-07T13:35:54.000Z</time>
      </trkpt>
      <trkpt lat="44.76026" lon="5.04335">
        <ele>375</ele>
        <time>2020-02-07T13:35:55.000Z</time>
      </trkpt>
      <trkpt lat="44.76026" lon="5.04335">
        <ele>375</ele>
        <time>2020-02-07T13:35:56.000Z</time>
      </trkpt>
      <trkpt lat="44.76025" lon="5.04334">
        <ele>375</ele>
        <time>2020-02-07T13:35:57.000Z</time>
      </trkpt>
      <trkpt lat="44.76024" lon="5.04334">
        <ele>375</ele>
        <time>2020-02-07T13:35:58.000Z</time>
      </trkpt>
      <trkpt lat="44.76023" lon="5.04333">
        <ele>375</ele>
        <time>2020-02-07T13:35:59.000Z</time>
      </trkpt>
      <trkpt lat="44.76023" lon="5.04333">
        <ele>375</ele>
        <time>2020-02-07T13:36:00.000Z</time>
      </trkpt>
      <trkpt lat="44.76022" lon="5.04332">
        <ele>375</ele>
        <time>2020-02-07T13:36:01.000Z</time>
      </trkpt>
      <trkpt lat="44.76022" lon="5.04332">
        <ele>375</ele>
        <time>2020-02-07T13:36:02.000Z</time>
      </trkpt>
      <trkpt lat="44.76021" lon="5.04331">
        <ele>375</ele>
        <time>2020-02-07T13:36:03.000Z</time>
      </trkpt>
      <trkpt lat="44.76021" lon="5.0433">
        <ele>375</ele>
        <time>2020-02-07T13:36:04.000Z</time>
      </trkpt>
      <trkpt lat="44.7602" lon="5.04329">
        <ele>375</ele>
        <time>2020-02-07T13:36:05.000Z</time>
      </trkpt>
      <trkpt lat="44.7602" lon="5.04329">
        <ele>375</ele>
        <time>2020-02-07T13:36:06.000Z</time>
      </trkpt>
      <trkpt lat="44.76019" lon="5.04328">
        <ele>375</ele>
        <time>2020-02-07T13:36:07.000Z</time>
      </trkpt>
      <trkpt lat="44.76018" lon="5.04327">
        <ele>376</ele>
        <time>2020-02-07T13:36:08.000Z</time>
      </trkpt>
      <trkpt lat="44.76018" lon="5.04326">
        <ele>375</ele>
        <time>2020-02-07T13:36:09.000Z</time>
      </trkpt>
      <trkpt lat="44.76017" lon="5.04325">
        <ele>375</ele>
        <time>2020-02-07T13:36:10.000Z</time>
      </trkpt>
      <trkpt lat="44.76017" lon="5.04325">
        <ele>375</ele>
        <time>2020-02-07T13:36:11.000Z</time>
      </trkpt>
      <trkpt lat="44.76016" lon="5.04324">
        <ele>375</ele>
        <time>2020-02-07T13:36:12.000Z</time>
      </trkpt>
      <trkpt lat="44.76016" lon="5.04323">
        <ele>375</ele>
        <time>2020-02-07T13:36:13.000Z</time>
      </trkpt>
      <trkpt lat="44.76015" lon="5.04323">
        <ele>375</ele>
        <time>2020-02-07T13:36:14.000Z</time>
      </trkpt>
      <trkpt lat="44.76015" lon="5.04322">
        <ele>376</ele>
        <time>2020-02-07T13:36:15.000Z</time>
      </trkpt>
      <trkpt lat="44.76014" lon="5.04322">
        <ele>376</ele>
        <time>2020-02-07T13:36:16.000Z</time>
      </trkpt>
      <trkpt lat="44.76013" lon="5.04321">
        <ele>376</ele>
        <time>2020-02-07T13:36:17.000Z</time>
      </trkpt>
      <trkpt lat="44.76013" lon="5.04321">
        <ele>376</ele>
        <time>2020-02-07T13:36:18.000Z</time>
      </trkpt>
      <trkpt lat="44.76012" lon="5.04321">
        <ele>376</ele>
        <time>2020-02-07T13:36:19.000Z</time>
      </trkpt>
      <trkpt lat="44.76012" lon="5.0432">
        <ele>376</ele>
        <time>2020-02-07T13:36:20.000Z</time>
      </trkpt>
      <trkpt lat="44.76012" lon="5.0432">
        <ele>376</ele>
        <time>2020-02-07T13:36:21.000Z</time>
      </trkpt>
      <trkpt lat="44.76011" lon="5.04319">
        <ele>376</ele>
        <time>2020-02-07T13:36:22.000Z</time>
      </trkpt>
      <trkpt lat="44.7601" lon="5.04319">
        <ele>376</ele>
        <time>2020-02-07T13:36:23.000Z</time>
      </trkpt>
      <trkpt lat="44.7601" lon="5.04318">
        <ele>376</ele>
        <time>2020-02-07T13:36:24.000Z</time>
      </trkpt>
      <trkpt lat="44.76009" lon="5.04317">
        <ele>376</ele>
        <time>2020-02-07T13:36:25.000Z</time>
      </trkpt>
      <trkpt lat="44.76009" lon="5.04317">
        <ele>376</ele>
        <time>2020-02-07T13:36:26.000Z</time>
      </trkpt>
      <trkpt lat="44.76009" lon="5.04317">
        <ele>376</ele>
        <time>2020-02-07T13:36:27.000Z</time>
      </trkpt>
      <trkpt lat="44.76009" lon="5.04317">
        <ele>376</ele>
        <time>2020-02-07T13:36:28.000Z</time>
      </trkpt>
      <trkpt lat="44.76009" lon="5.04317">
        <ele>376</ele>
        <time>2020-02-07T13:36:29.000Z</time>
      </trkpt>
      <trkpt lat="44.76009" lon="5.04317">
        <ele>376</ele>
        <time>2020-02-07T13:36:30.000Z</time>
      </trkpt>
      <trkpt lat="44.76009" lon="5.04317">
        <ele>376</ele>
        <time>2020-02-07T13:36:31.000Z</time>
      </trkpt>
      <trkpt lat="44.76008" lon="5.04316">
        <ele>377</ele>
        <time>2020-02-07T13:36:32.000Z</time>
      </trkpt>
      <trkpt lat="44.76008" lon="5.04315">
        <ele>377</ele>
        <time>2020-02-07T13:36:33.000Z</time>
      </trkpt>
      <trkpt lat="44.76008" lon="5.04315">
        <ele>377</ele>
        <time>2020-02-07T13:36:34.000Z</time>
      </trkpt>
      <trkpt lat="44.76008" lon="5.04315">
        <ele>377</ele>
        <time>2020-02-07T13:36:35.000Z</time>
      </trkpt>
      <trkpt lat="44.76008" lon="5.04315">
        <ele>377</ele>
        <time>2020-02-07T13:36:36.000Z</time>
      </trkpt>
      <trkpt lat="44.76007" lon="5.04314">
        <ele>377</ele>
        <time>2020-02-07T13:36:37.000Z</time>
      </trkpt>
      <trkpt lat="44.76007" lon="5.04314">
        <ele>377</ele>
        <time>2020-02-07T13:36:38.000Z</time>
      </trkpt>
      <trkpt lat="44.76007" lon="5.04314">
        <ele>377</ele>
        <time>2020-02-07T13:36:39.000Z</time>
      </trkpt>
      <trkpt lat="44.76006" lon="5.04313">
        <ele>377</ele>
        <time>2020-02-07T13:36:40.000Z</time>
      </trkpt>
      <trkpt lat="44.76006" lon="5.04313">
        <ele>377</ele>
        <time>2020-02-07T13:36:41.000Z</time>
      </trkpt>
      <trkpt lat="44.76006" lon="5.04313">
        <ele>377</ele>
        <time>2020-02-07T13:36:42.000Z</time>
      </trkpt>
      <trkpt lat="44.76006" lon="5.04313">
        <ele>377</ele>
        <time>2020-02-07T13:36:43.000Z</time>
      </trkpt>
      <trkpt lat="44.76005" lon="5.04312">
        <ele>377</ele>
        <time>2020-02-07T13:36:44.000Z</time>
      </trkpt>
      <trkpt lat="44.76005" lon="5.04312">
        <ele>377</ele>
        <time>2020-02-07T13:36:45.000Z</time>
      </trkpt>
      <trkpt lat="44.76005" lon="5.04312">
        <ele>377</ele>
        <time>2020-02-07T13:36:46.000Z</time>
      </trkpt>
      <trkpt lat="44.76005" lon="5.04312">
        <ele>377</ele>
        <time>2020-02-07T13:36:47.000Z</time>
      </trkpt>
      <trkpt lat="44.76005" lon="5.04312">
        <ele>377</ele>
        <time>2020-02-07T13:36:48.000Z</time>
      </trkpt>
      <trkpt lat="44.76005" lon="5.04312">
        <ele>377</ele>
        <time>2020-02-07T13:36:49.000Z</time>
      </trkpt>
      <trkpt lat="44.76004" lon="5.04311">
        <ele>377</ele>
        <time>2020-02-07T13:36:50.000Z</time>
      </trkpt>
      <trkpt lat="44.76004" lon="5.04311">
        <ele>377</ele>
        <time>2020-02-07T13:36:51.000Z</time>
      </trkpt>
      <trkpt lat="44.76003" lon="5.04311">
        <ele>377</ele>
        <time>2020-02-07T13:36:52.000Z</time>
      </trkpt>
      <trkpt lat="44.76003" lon="5.04311">
        <ele>377</ele>
        <time>2020-02-07T13:36:53.000Z</time>
      </trkpt>
      <trkpt lat="44.76002" lon="5.0431">
        <ele>377</ele>
        <time>2020-02-07T13:36:54.000Z</time>
      </trkpt>
      <trkpt lat="44.76001" lon="5.0431">
        <ele>377</ele>
        <time>2020-02-07T13:36:55.000Z</time>
      </trkpt>
      <trkpt lat="44.76001" lon="5.0431">
        <ele>377</ele>
        <time>2020-02-07T13:36:56.000Z</time>
      </trkpt>
      <trkpt lat="44.76001" lon="5.04309">
        <ele>377</ele>
        <time>2020-02-07T13:36:57.000Z</time>
      </trkpt>
      <trkpt lat="44.76" lon="5.04309">
        <ele>377</ele>
        <time>2020-02-07T13:36:58.000Z</time>
      </trkpt>
      <trkpt lat="44.76" lon="5.04309">
        <ele>377</ele>
        <time>2020-02-07T13:36:59.000Z</time>
      </trkpt>
      <trkpt lat="44.76" lon="5.04308">
        <ele>378</ele>
        <time>2020-02-07T13:37:00.000Z</time>
      </trkpt>
      <trkpt lat="44.75999" lon="5.04308">
        <ele>378</ele>
        <time>2020-02-07T13:37:01.000Z</time>
      </trkpt>
      <trkpt lat="44.75999" lon="5.04308">
        <ele>378</ele>
        <time>2020-02-07T13:37:02.000Z</time>
      </trkpt>
      <trkpt lat="44.75998" lon="5.04308">
        <ele>378</ele>
        <time>2020-02-07T13:37:03.000Z</time>
      </trkpt>
      <trkpt lat="44.75998" lon="5.04307">
        <ele>378</ele>
        <time>2020-02-07T13:37:04.000Z</time>
      </trkpt>
      <trkpt lat="44.75997" lon="5.04307">
        <ele>378</ele>
        <time>2020-02-07T13:37:05.000Z</time>
      </trkpt>
      <trkpt lat="44.75996" lon="5.04307">
        <ele>378</ele>
        <time>2020-02-07T13:37:06.000Z</time>
      </trkpt>
      <trkpt lat="44.75996" lon="5.04306">
        <ele>378</ele>
        <time>2020-02-07T13:37:07.000Z</time>
      </trkpt>
      <trkpt lat="44.75995" lon="5.04305">
        <ele>378</ele>
        <time>2020-02-07T13:37:08.000Z</time>
      </trkpt>
      <trkpt lat="44.75995" lon="5.04305">
        <ele>378</ele>
        <time>2020-02-07T13:37:09.000Z</time>
      </trkpt>
      <trkpt lat="44.75994" lon="5.04304">
        <ele>378</ele>
        <time>2020-02-07T13:37:10.000Z</time>
      </trkpt>
      <trkpt lat="44.75994" lon="5.04304">
        <ele>378</ele>
        <time>2020-02-07T13:37:11.000Z</time>
      </trkpt>
      <trkpt lat="44.75993" lon="5.04303">
        <ele>378</ele>
        <time>2020-02-07T13:37:12.000Z</time>
      </trkpt>
      <trkpt lat="44.75993" lon="5.04302">
        <ele>378</ele>
        <time>2020-02-07T13:37:13.000Z</time>
      </trkpt>
      <trkpt lat="44.75992" lon="5.04302">
        <ele>378</ele>
        <time>2020-02-07T13:37:14.000Z</time>
      </trkpt>
      <trkpt lat="44.75991" lon="5.04302">
        <ele>378</ele>
        <time>2020-02-07T13:37:15.000Z</time>
      </trkpt>
      <trkpt lat="44.7599" lon="5.04301">
        <ele>378</ele>
        <time>2020-02-07T13:37:16.000Z</time>
      </trkpt>
      <trkpt lat="44.75989" lon="5.04301">
        <ele>378</ele>
        <time>2020-02-07T13:37:17.000Z</time>
      </trkpt>
      <trkpt lat="44.75988" lon="5.043">
        <ele>378</ele>
        <time>2020-02-07T13:37:18.000Z</time>
      </trkpt>
      <trkpt lat="44.75987" lon="5.043">
        <ele>378</ele>
        <time>2020-02-07T13:37:19.000Z</time>
      </trkpt>
      <trkpt lat="44.75986" lon="5.04299">
        <ele>379</ele>
        <time>2020-02-07T13:37:20.000Z</time>
      </trkpt>
      <trkpt lat="44.75986" lon="5.04298">
        <ele>379</ele>
        <time>2020-02-07T13:37:21.000Z</time>
      </trkpt>
      <trkpt lat="44.75985" lon="5.04297">
        <ele>379</ele>
        <time>2020-02-07T13:37:22.000Z</time>
      </trkpt>
      <trkpt lat="44.75984" lon="5.04296">
        <ele>379</ele>
        <time>2020-02-07T13:37:23.000Z</time>
      </trkpt>
      <trkpt lat="44.75983" lon="5.04295">
        <ele>379</ele>
        <time>2020-02-07T13:37:24.000Z</time>
      </trkpt>
      <trkpt lat="44.75982" lon="5.04295">
        <ele>379</ele>
        <time>2020-02-07T13:37:25.000Z</time>
      </trkpt>
      <trkpt lat="44.75981" lon="5.04294">
        <ele>379</ele>
        <time>2020-02-07T13:37:26.000Z</time>
      </trkpt>
      <trkpt lat="44.7598" lon="5.04293">
        <ele>379</ele>
        <time>2020-02-07T13:37:27.000Z</time>
      </trkpt>
      <trkpt lat="44.75979" lon="5.04293">
        <ele>379</ele>
        <time>2020-02-07T13:37:28.000Z</time>
      </trkpt>
      <trkpt lat="44.75978" lon="5.04292">
        <ele>379</ele>
        <time>2020-02-07T13:37:29.000Z</time>
      </trkpt>
      <trkpt lat="44.75978" lon="5.04292">
        <ele>379</ele>
        <time>2020-02-07T13:37:30.000Z</time>
      </trkpt>
      <trkpt lat="44.75978" lon="5.04292">
        <ele>379</ele>
        <time>2020-02-07T13:37:31.000Z</time>
      </trkpt>
      <trkpt lat="44.75978" lon="5.04292">
        <ele>379</ele>
        <time>2020-02-07T13:37:32.000Z</time>
      </trkpt>
      <trkpt lat="44.75978" lon="5.04292">
        <ele>379</ele>
        <time>2020-02-07T13:37:33.000Z</time>
      </trkpt>
      <trkpt lat="44.75977" lon="5.04292">
        <ele>379</ele>
        <time>2020-02-07T13:37:34.000Z</time>
      </trkpt>
      <trkpt lat="44.75977" lon="5.04291">
        <ele>379</ele>
        <time>2020-02-07T13:37:35.000Z</time>
      </trkpt>
      <trkpt lat="44.75977" lon="5.04291">
        <ele>379</ele>
        <time>2020-02-07T13:37:36.000Z</time>
      </trkpt>
      <trkpt lat="44.75977" lon="5.04291">
        <ele>379</ele>
        <time>2020-02-07T13:37:37.000Z</time>
      </trkpt>
      <trkpt lat="44.75977" lon="5.04291">
        <ele>379</ele>
        <time>2020-02-07T13:37:38.000Z</time>
      </trkpt>
      <trkpt lat="44.75977" lon="5.04291">
        <ele>379</ele>
        <time>2020-02-07T13:37:39.000Z</time>
      </trkpt>
      <trkpt lat="44.75977" lon="5.04291">
        <ele>379</ele>
        <time>2020-02-07T13:37:40.000Z</time>
      </trkpt>
      <trkpt lat="44.75977" lon="5.04291">
        <ele>379</ele>
        <time>2020-02-07T13:37:41.000Z</time>
      </trkpt>
      <trkpt lat="44.75977" lon="5.04291">
        <ele>380</ele>
        <time>2020-02-07T13:37:42.000Z</time>
      </trkpt>
      <trkpt lat="44.75977" lon="5.04291">
        <ele>380</ele>
        <time>2020-02-07T13:37:43.000Z</time>
      </trkpt>
      <trkpt lat="44.75976" lon="5.04291">
        <ele>380</ele>
        <time>2020-02-07T13:37:44.000Z</time>
      </trkpt>
      <trkpt lat="44.75976" lon="5.04291">
        <ele>380</ele>
        <time>2020-02-07T13:37:45.000Z</time>
      </trkpt>
      <trkpt lat="44.75975" lon="5.0429">
        <ele>380</ele>
        <time>2020-02-07T13:37:46.000Z</time>
      </trkpt>
      <trkpt lat="44.75975" lon="5.0429">
        <ele>380</ele>
        <time>2020-02-07T13:37:47.000Z</time>
      </trkpt>
      <trkpt lat="44.75974" lon="5.0429">
        <ele>380</ele>
        <time>2020-02-07T13:37:48.000Z</time>
      </trkpt>
      <trkpt lat="44.75973" lon="5.0429">
        <ele>380</ele>
        <time>2020-02-07T13:37:49.000Z</time>
      </trkpt>
      <trkpt lat="44.75972" lon="5.0429">
        <ele>380</ele>
        <time>2020-02-07T13:37:50.000Z</time>
      </trkpt>
      <trkpt lat="44.75971" lon="5.04289">
        <ele>380</ele>
        <time>2020-02-07T13:37:51.000Z</time>
      </trkpt>
      <trkpt lat="44.75971" lon="5.04289">
        <ele>380</ele>
        <time>2020-02-07T13:37:52.000Z</time>
      </trkpt>
      <trkpt lat="44.7597" lon="5.04289">
        <ele>380</ele>
        <time>2020-02-07T13:37:53.000Z</time>
      </trkpt>
      <trkpt lat="44.75969" lon="5.04289">
        <ele>380</ele>
        <time>2020-02-07T13:37:54.000Z</time>
      </trkpt>
      <trkpt lat="44.75968" lon="5.04289">
        <ele>380</ele>
        <time>2020-02-07T13:37:55.000Z</time>
      </trkpt>
      <trkpt lat="44.75967" lon="5.04288">
        <ele>380</ele>
        <time>2020-02-07T13:37:56.000Z</time>
      </trkpt>
      <trkpt lat="44.75966" lon="5.04288">
        <ele>380</ele>
        <time>2020-02-07T13:37:57.000Z</time>
      </trkpt>
      <trkpt lat="44.75965" lon="5.04288">
        <ele>380</ele>
        <time>2020-02-07T13:37:58.000Z</time>
      </trkpt>
      <trkpt lat="44.75964" lon="5.04288">
        <ele>380</ele>
        <time>2020-02-07T13:37:59.000Z</time>
      </trkpt>
      <trkpt lat="44.75963" lon="5.04288">
        <ele>380</ele>
        <time>2020-02-07T13:38:00.000Z</time>
      </trkpt>
      <trkpt lat="44.75962" lon="5.04288">
        <ele>380</ele>
        <time>2020-02-07T13:38:01.000Z</time>
      </trkpt>
      <trkpt lat="44.75961" lon="5.04287">
        <ele>380</ele>
        <time>2020-02-07T13:38:02.000Z</time>
      </trkpt>
      <trkpt lat="44.7596" lon="5.04287">
        <ele>380</ele>
        <time>2020-02-07T13:38:03.000Z</time>
      </trkpt>
      <trkpt lat="44.7596" lon="5.04287">
        <ele>380</ele>
        <time>2020-02-07T13:38:04.000Z</time>
      </trkpt>
      <trkpt lat="44.75959" lon="5.04287">
        <ele>380</ele>
        <time>2020-02-07T13:38:05.000Z</time>
      </trkpt>
      <trkpt lat="44.75958" lon="5.04287">
        <ele>380</ele>
        <time>2020-02-07T13:38:06.000Z</time>
      </trkpt>
      <trkpt lat="44.75956" lon="5.04287">
        <ele>380</ele>
        <time>2020-02-07T13:38:07.000Z</time>
      </trkpt>
      <trkpt lat="44.75955" lon="5.04287">
        <ele>380</ele>
        <time>2020-02-07T13:38:08.000Z</time>
      </trkpt>
      <trkpt lat="44.75954" lon="5.04286">
        <ele>380</ele>
        <time>2020-02-07T13:38:09.000Z</time>
      </trkpt>
      <trkpt lat="44.75954" lon="5.04286">
        <ele>380</ele>
        <time>2020-02-07T13:38:10.000Z</time>
      </trkpt>
      <trkpt lat="44.75953" lon="5.04285">
        <ele>380</ele>
        <time>2020-02-07T13:38:11.000Z</time>
      </trkpt>
      <trkpt lat="44.75952" lon="5.04284">
        <ele>380</ele>
        <time>2020-02-07T13:38:12.000Z</time>
      </trkpt>
      <trkpt lat="44.75951" lon="5.04283">
        <ele>380</ele>
        <time>2020-02-07T13:38:13.000Z</time>
      </trkpt>
      <trkpt lat="44.7595" lon="5.04283">
        <ele>380</ele>
        <time>2020-02-07T13:38:14.000Z</time>
      </trkpt>
      <trkpt lat="44.75949" lon="5.04282">
        <ele>380</ele>
        <time>2020-02-07T13:38:15.000Z</time>
      </trkpt>
      <trkpt lat="44.75948" lon="5.04281">
        <ele>380</ele>
        <time>2020-02-07T13:38:16.000Z</time>
      </trkpt>
      <trkpt lat="44.75946" lon="5.04281">
        <ele>380</ele>
        <time>2020-02-07T13:38:17.000Z</time>
      </trkpt>
      <trkpt lat="44.75945" lon="5.04281">
        <ele>380</ele>
        <time>2020-02-07T13:38:18.000Z</time>
      </trkpt>
      <trkpt lat="44.75944" lon="5.0428">
        <ele>380</ele>
        <time>2020-02-07T13:38:19.000Z</time>
      </trkpt>
      <trkpt lat="44.75943" lon="5.0428">
        <ele>380</ele>
        <time>2020-02-07T13:38:20.000Z</time>
      </trkpt>
      <trkpt lat="44.75942" lon="5.0428">
        <ele>380</ele>
        <time>2020-02-07T13:38:21.000Z</time>
      </trkpt>
      <trkpt lat="44.7594" lon="5.0428">
        <ele>380</ele>
        <time>2020-02-07T13:38:22.000Z</time>
      </trkpt>
      <trkpt lat="44.75939" lon="5.0428">
        <ele>380</ele>
        <time>2020-02-07T13:38:23.000Z</time>
      </trkpt>
      <trkpt lat="44.75938" lon="5.0428">
        <ele>380</ele>
        <time>2020-02-07T13:38:24.000Z</time>
      </trkpt>
      <trkpt lat="44.75937" lon="5.04279">
        <ele>379</ele>
        <time>2020-02-07T13:38:25.000Z</time>
      </trkpt>
      <trkpt lat="44.75936" lon="5.04279">
        <ele>379</ele>
        <time>2020-02-07T13:38:26.000Z</time>
      </trkpt>
      <trkpt lat="44.75935" lon="5.04279">
        <ele>379</ele>
        <time>2020-02-07T13:38:27.000Z</time>
      </trkpt>
      <trkpt lat="44.75934" lon="5.04278">
        <ele>379</ele>
        <time>2020-02-07T13:38:28.000Z</time>
      </trkpt>
      <trkpt lat="44.75933" lon="5.04278">
        <ele>379</ele>
        <time>2020-02-07T13:38:29.000Z</time>
      </trkpt>
      <trkpt lat="44.75932" lon="5.04277">
        <ele>379</ele>
        <time>2020-02-07T13:38:30.000Z</time>
      </trkpt>
      <trkpt lat="44.75931" lon="5.04276">
        <ele>379</ele>
        <time>2020-02-07T13:38:31.000Z</time>
      </trkpt>
      <trkpt lat="44.7593" lon="5.04275">
        <ele>379</ele>
        <time>2020-02-07T13:38:32.000Z</time>
      </trkpt>
      <trkpt lat="44.75929" lon="5.04274">
        <ele>379</ele>
        <time>2020-02-07T13:38:33.000Z</time>
      </trkpt>
      <trkpt lat="44.75929" lon="5.04274">
        <ele>378</ele>
        <time>2020-02-07T13:38:34.000Z</time>
      </trkpt>
      <trkpt lat="44.75928" lon="5.04273">
        <ele>378</ele>
        <time>2020-02-07T13:38:35.000Z</time>
      </trkpt>
      <trkpt lat="44.75927" lon="5.04273">
        <ele>378</ele>
        <time>2020-02-07T13:38:36.000Z</time>
      </trkpt>
      <trkpt lat="44.75927" lon="5.04272">
        <ele>378</ele>
        <time>2020-02-07T13:38:37.000Z</time>
      </trkpt>
      <trkpt lat="44.75926" lon="5.04272">
        <ele>378</ele>
        <time>2020-02-07T13:38:38.000Z</time>
      </trkpt>
      <trkpt lat="44.75925" lon="5.04271">
        <ele>378</ele>
        <time>2020-02-07T13:38:39.000Z</time>
      </trkpt>
      <trkpt lat="44.75924" lon="5.04271">
        <ele>378</ele>
        <time>2020-02-07T13:38:40.000Z</time>
      </trkpt>
      <trkpt lat="44.75923" lon="5.04271">
        <ele>378</ele>
        <time>2020-02-07T13:38:41.000Z</time>
      </trkpt>
      <trkpt lat="44.75923" lon="5.04271">
        <ele>378</ele>
        <time>2020-02-07T13:38:42.000Z</time>
      </trkpt>
      <trkpt lat="44.75922" lon="5.04271">
        <ele>378</ele>
        <time>2020-02-07T13:38:43.000Z</time>
      </trkpt>
      <trkpt lat="44.75921" lon="5.04271">
        <ele>378</ele>
        <time>2020-02-07T13:38:44.000Z</time>
      </trkpt>
      <trkpt lat="44.7592" lon="5.04271">
        <ele>378</ele>
        <time>2020-02-07T13:38:45.000Z</time>
      </trkpt>
      <trkpt lat="44.75919" lon="5.04271">
        <ele>378</ele>
        <time>2020-02-07T13:38:46.000Z</time>
      </trkpt>
      <trkpt lat="44.75918" lon="5.04271">
        <ele>378</ele>
        <time>2020-02-07T13:38:47.000Z</time>
      </trkpt>
      <trkpt lat="44.75917" lon="5.04271">
        <ele>378</ele>
        <time>2020-02-07T13:38:48.000Z</time>
      </trkpt>
      <trkpt lat="44.75916" lon="5.04271">
        <ele>378</ele>
        <time>2020-02-07T13:38:49.000Z</time>
      </trkpt>
      <trkpt lat="44.75914" lon="5.04271">
        <ele>378</ele>
        <time>2020-02-07T13:38:50.000Z</time>
      </trkpt>
      <trkpt lat="44.75913" lon="5.04271">
        <ele>378</ele>
        <time>2020-02-07T13:38:51.000Z</time>
      </trkpt>
      <trkpt lat="44.75912" lon="5.04271">
        <ele>378</ele>
        <time>2020-02-07T13:38:52.000Z</time>
      </trkpt>
      <trkpt lat="44.75911" lon="5.04271">
        <ele>378</ele>
        <time>2020-02-07T13:38:53.000Z</time>
      </trkpt>
      <trkpt lat="44.7591" lon="5.0427">
        <ele>378</ele>
        <time>2020-02-07T13:38:54.000Z</time>
      </trkpt>
      <trkpt lat="44.75909" lon="5.0427">
        <ele>378</ele>
        <time>2020-02-07T13:38:55.000Z</time>
      </trkpt>
      <trkpt lat="44.75909" lon="5.0427">
        <ele>378</ele>
        <time>2020-02-07T13:38:56.000Z</time>
      </trkpt>
      <trkpt lat="44.75908" lon="5.0427">
        <ele>378</ele>
        <time>2020-02-07T13:38:57.000Z</time>
      </trkpt>
      <trkpt lat="44.75908" lon="5.0427">
        <ele>378</ele>
        <time>2020-02-07T13:38:58.000Z</time>
      </trkpt>
      <trkpt lat="44.75907" lon="5.0427">
        <ele>379</ele>
        <time>2020-02-07T13:38:59.000Z</time>
      </trkpt>
      <trkpt lat="44.75906" lon="5.04269">
        <ele>379</ele>
        <time>2020-02-07T13:39:00.000Z</time>
      </trkpt>
      <trkpt lat="44.75906" lon="5.04269">
        <ele>379</ele>
        <time>2020-02-07T13:39:01.000Z</time>
      </trkpt>
      <trkpt lat="44.75905" lon="5.04268">
        <ele>379</ele>
        <time>2020-02-07T13:39:02.000Z</time>
      </trkpt>
      <trkpt lat="44.75904" lon="5.04268">
        <ele>379</ele>
        <time>2020-02-07T13:39:03.000Z</time>
      </trkpt>
      <trkpt lat="44.75903" lon="5.04268">
        <ele>379</ele>
        <time>2020-02-07T13:39:04.000Z</time>
      </trkpt>
      <trkpt lat="44.75903" lon="5.04268">
        <ele>379</ele>
        <time>2020-02-07T13:39:05.000Z</time>
      </trkpt>
      <trkpt lat="44.75902" lon="5.04269">
        <ele>380</ele>
        <time>2020-02-07T13:39:06.000Z</time>
      </trkpt>
      <trkpt lat="44.75901" lon="5.04269">
        <ele>380</ele>
        <time>2020-02-07T13:39:07.000Z</time>
      </trkpt>
      <trkpt lat="44.759" lon="5.0427">
        <ele>380</ele>
        <time>2020-02-07T13:39:08.000Z</time>
      </trkpt>
      <trkpt lat="44.75898" lon="5.0427">
        <ele>380</ele>
        <time>2020-02-07T13:39:09.000Z</time>
      </trkpt>
      <trkpt lat="44.75898" lon="5.0427">
        <ele>380</ele>
        <time>2020-02-07T13:39:10.000Z</time>
      </trkpt>
      <trkpt lat="44.75896" lon="5.0427">
        <ele>380</ele>
        <time>2020-02-07T13:39:11.000Z</time>
      </trkpt>
      <trkpt lat="44.75895" lon="5.04269">
        <ele>380</ele>
        <time>2020-02-07T13:39:12.000Z</time>
      </trkpt>
      <trkpt lat="44.75894" lon="5.04269">
        <ele>380</ele>
        <time>2020-02-07T13:39:13.000Z</time>
      </trkpt>
      <trkpt lat="44.75893" lon="5.0427">
        <ele>380</ele>
        <time>2020-02-07T13:39:14.000Z</time>
      </trkpt>
      <trkpt lat="44.75892" lon="5.0427">
        <ele>380</ele>
        <time>2020-02-07T13:39:15.000Z</time>
      </trkpt>
      <trkpt lat="44.75891" lon="5.0427">
        <ele>380</ele>
        <time>2020-02-07T13:39:16.000Z</time>
      </trkpt>
      <trkpt lat="44.7589" lon="5.04269">
        <ele>380</ele>
        <time>2020-02-07T13:39:17.000Z</time>
      </trkpt>
      <trkpt lat="44.75889" lon="5.04269">
        <ele>380</ele>
        <time>2020-02-07T13:39:18.000Z</time>
      </trkpt>
      <trkpt lat="44.75888" lon="5.04269">
        <ele>380</ele>
        <time>2020-02-07T13:39:19.000Z</time>
      </trkpt>
      <trkpt lat="44.75887" lon="5.04269">
        <ele>381</ele>
        <time>2020-02-07T13:39:20.000Z</time>
      </trkpt>
      <trkpt lat="44.75885" lon="5.04269">
        <ele>381</ele>
        <time>2020-02-07T13:39:21.000Z</time>
      </trkpt>
      <trkpt lat="44.75884" lon="5.0427">
        <ele>381</ele>
        <time>2020-02-07T13:39:22.000Z</time>
      </trkpt>
      <trkpt lat="44.75883" lon="5.0427">
        <ele>381</ele>
        <time>2020-02-07T13:39:23.000Z</time>
      </trkpt>
      <trkpt lat="44.75882" lon="5.0427">
        <ele>381</ele>
        <time>2020-02-07T13:39:24.000Z</time>
      </trkpt>
      <trkpt lat="44.75881" lon="5.0427">
        <ele>381</ele>
        <time>2020-02-07T13:39:25.000Z</time>
      </trkpt>
      <trkpt lat="44.7588" lon="5.0427">
        <ele>381</ele>
        <time>2020-02-07T13:39:26.000Z</time>
      </trkpt>
      <trkpt lat="44.75879" lon="5.0427">
        <ele>381</ele>
        <time>2020-02-07T13:39:27.000Z</time>
      </trkpt>
      <trkpt lat="44.75878" lon="5.04269">
        <ele>381</ele>
        <time>2020-02-07T13:39:28.000Z</time>
      </trkpt>
      <trkpt lat="44.75877" lon="5.04269">
        <ele>381</ele>
        <time>2020-02-07T13:39:29.000Z</time>
      </trkpt>
      <trkpt lat="44.75876" lon="5.04269">
        <ele>381</ele>
        <time>2020-02-07T13:39:30.000Z</time>
      </trkpt>
      <trkpt lat="44.75876" lon="5.04268">
        <ele>381</ele>
        <time>2020-02-07T13:39:31.000Z</time>
      </trkpt>
      <trkpt lat="44.75875" lon="5.04268">
        <ele>381</ele>
        <time>2020-02-07T13:39:32.000Z</time>
      </trkpt>
      <trkpt lat="44.75874" lon="5.04267">
        <ele>381</ele>
        <time>2020-02-07T13:39:33.000Z</time>
      </trkpt>
      <trkpt lat="44.75873" lon="5.04267">
        <ele>381</ele>
        <time>2020-02-07T13:39:34.000Z</time>
      </trkpt>
      <trkpt lat="44.75872" lon="5.04266">
        <ele>381</ele>
        <time>2020-02-07T13:39:35.000Z</time>
      </trkpt>
      <trkpt lat="44.75871" lon="5.04266">
        <ele>381</ele>
        <time>2020-02-07T13:39:36.000Z</time>
      </trkpt>
      <trkpt lat="44.75871" lon="5.04266">
        <ele>381</ele>
        <time>2020-02-07T13:39:37.000Z</time>
      </trkpt>
      <trkpt lat="44.7587" lon="5.04265">
        <ele>381</ele>
        <time>2020-02-07T13:39:38.000Z</time>
      </trkpt>
      <trkpt lat="44.75869" lon="5.04265">
        <ele>381</ele>
        <time>2020-02-07T13:39:39.000Z</time>
      </trkpt>
      <trkpt lat="44.75868" lon="5.04265">
        <ele>381</ele>
        <time>2020-02-07T13:39:40.000Z</time>
      </trkpt>
      <trkpt lat="44.75868" lon="5.04265">
        <ele>381</ele>
        <time>2020-02-07T13:39:41.000Z</time>
      </trkpt>
      <trkpt lat="44.75867" lon="5.04265">
        <ele>381</ele>
        <time>2020-02-07T13:39:42.000Z</time>
      </trkpt>
      <trkpt lat="44.75866" lon="5.04266">
        <ele>381</ele>
        <time>2020-02-07T13:39:43.000Z</time>
      </trkpt>
      <trkpt lat="44.75865" lon="5.04266">
        <ele>381</ele>
        <time>2020-02-07T13:39:44.000Z</time>
      </trkpt>
      <trkpt lat="44.75864" lon="5.04266">
        <ele>381</ele>
        <time>2020-02-07T13:39:45.000Z</time>
      </trkpt>
      <trkpt lat="44.75863" lon="5.04266">
        <ele>381</ele>
        <time>2020-02-07T13:39:46.000Z</time>
      </trkpt>
      <trkpt lat="44.75862" lon="5.04266">
        <ele>381</ele>
        <time>2020-02-07T13:39:47.000Z</time>
      </trkpt>
      <trkpt lat="44.75862" lon="5.04266">
        <ele>381</ele>
        <time>2020-02-07T13:39:48.000Z</time>
      </trkpt>
      <trkpt lat="44.75861" lon="5.04266">
        <ele>381</ele>
        <time>2020-02-07T13:39:49.000Z</time>
      </trkpt>
      <trkpt lat="44.7586" lon="5.04266">
        <ele>381</ele>
        <time>2020-02-07T13:39:50.000Z</time>
      </trkpt>
      <trkpt lat="44.75859" lon="5.04265">
        <ele>382</ele>
        <time>2020-02-07T13:39:51.000Z</time>
      </trkpt>
      <trkpt lat="44.75858" lon="5.04265">
        <ele>382</ele>
        <time>2020-02-07T13:39:52.000Z</time>
      </trkpt>
      <trkpt lat="44.75857" lon="5.04265">
        <ele>382</ele>
        <time>2020-02-07T13:39:53.000Z</time>
      </trkpt>
      <trkpt lat="44.75856" lon="5.04265">
        <ele>382</ele>
        <time>2020-02-07T13:39:54.000Z</time>
      </trkpt>
      <trkpt lat="44.75855" lon="5.04265">
        <ele>382</ele>
        <time>2020-02-07T13:39:55.000Z</time>
      </trkpt>
      <trkpt lat="44.75854" lon="5.04265">
        <ele>382</ele>
        <time>2020-02-07T13:39:56.000Z</time>
      </trkpt>
      <trkpt lat="44.75853" lon="5.04264">
        <ele>382</ele>
        <time>2020-02-07T13:39:57.000Z</time>
      </trkpt>
      <trkpt lat="44.75853" lon="5.04263">
        <ele>382</ele>
        <time>2020-02-07T13:39:58.000Z</time>
      </trkpt>
      <trkpt lat="44.75852" lon="5.04262">
        <ele>382</ele>
        <time>2020-02-07T13:39:59.000Z</time>
      </trkpt>
      <trkpt lat="44.75851" lon="5.04261">
        <ele>382</ele>
        <time>2020-02-07T13:40:00.000Z</time>
      </trkpt>
      <trkpt lat="44.75851" lon="5.04261">
        <ele>382</ele>
        <time>2020-02-07T13:40:01.000Z</time>
      </trkpt>
      <trkpt lat="44.7585" lon="5.0426">
        <ele>383</ele>
        <time>2020-02-07T13:40:02.000Z</time>
      </trkpt>
      <trkpt lat="44.75849" lon="5.0426">
        <ele>383</ele>
        <time>2020-02-07T13:40:03.000Z</time>
      </trkpt>
      <trkpt lat="44.75848" lon="5.0426">
        <ele>383</ele>
        <time>2020-02-07T13:40:04.000Z</time>
      </trkpt>
      <trkpt lat="44.75847" lon="5.0426">
        <ele>383</ele>
        <time>2020-02-07T13:40:05.000Z</time>
      </trkpt>
      <trkpt lat="44.75846" lon="5.0426">
        <ele>383</ele>
        <time>2020-02-07T13:40:06.000Z</time>
      </trkpt>
      <trkpt lat="44.75845" lon="5.0426">
        <ele>383</ele>
        <time>2020-02-07T13:40:07.000Z</time>
      </trkpt>
      <trkpt lat="44.75844" lon="5.0426">
        <ele>383</ele>
        <time>2020-02-07T13:40:08.000Z</time>
      </trkpt>
      <trkpt lat="44.75843" lon="5.0426">
        <ele>383</ele>
        <time>2020-02-07T13:40:09.000Z</time>
      </trkpt>
      <trkpt lat="44.75843" lon="5.04261">
        <ele>383</ele>
        <time>2020-02-07T13:40:10.000Z</time>
      </trkpt>
      <trkpt lat="44.75842" lon="5.0426">
        <ele>383</ele>
        <time>2020-02-07T13:40:11.000Z</time>
      </trkpt>
      <trkpt lat="44.75841" lon="5.0426">
        <ele>383</ele>
        <time>2020-02-07T13:40:12.000Z</time>
      </trkpt>
      <trkpt lat="44.75841" lon="5.0426">
        <ele>383</ele>
        <time>2020-02-07T13:40:13.000Z</time>
      </trkpt>
      <trkpt lat="44.7584" lon="5.0426">
        <ele>383</ele>
        <time>2020-02-07T13:40:14.000Z</time>
      </trkpt>
      <trkpt lat="44.75839" lon="5.04259">
        <ele>383</ele>
        <time>2020-02-07T13:40:15.000Z</time>
      </trkpt>
      <trkpt lat="44.75839" lon="5.04258">
        <ele>384</ele>
        <time>2020-02-07T13:40:16.000Z</time>
      </trkpt>
      <trkpt lat="44.75838" lon="5.04258">
        <ele>384</ele>
        <time>2020-02-07T13:40:17.000Z</time>
      </trkpt>
      <trkpt lat="44.75838" lon="5.04258">
        <ele>384</ele>
        <time>2020-02-07T13:40:18.000Z</time>
      </trkpt>
      <trkpt lat="44.75838" lon="5.04258">
        <ele>384</ele>
        <time>2020-02-07T13:40:19.000Z</time>
      </trkpt>
      <trkpt lat="44.75838" lon="5.04258">
        <ele>384</ele>
        <time>2020-02-07T13:40:20.000Z</time>
      </trkpt>
      <trkpt lat="44.75838" lon="5.04258">
        <ele>384</ele>
        <time>2020-02-07T13:40:21.000Z</time>
      </trkpt>
      <trkpt lat="44.75838" lon="5.04258">
        <ele>384</ele>
        <time>2020-02-07T13:40:22.000Z</time>
      </trkpt>
      <trkpt lat="44.75838" lon="5.04258">
        <ele>384</ele>
        <time>2020-02-07T13:40:23.000Z</time>
      </trkpt>
      <trkpt lat="44.75838" lon="5.04257">
        <ele>384</ele>
        <time>2020-02-07T13:40:24.000Z</time>
      </trkpt>
      <trkpt lat="44.75838" lon="5.04257">
        <ele>383</ele>
        <time>2020-02-07T13:40:25.000Z</time>
      </trkpt>
      <trkpt lat="44.75838" lon="5.04257">
        <ele>383</ele>
        <time>2020-02-07T13:40:26.000Z</time>
      </trkpt>
      <trkpt lat="44.75838" lon="5.04257">
        <ele>383</ele>
        <time>2020-02-07T13:40:27.000Z</time>
      </trkpt>
      <trkpt lat="44.75838" lon="5.04257">
        <ele>383</ele>
        <time>2020-02-07T13:40:28.000Z</time>
      </trkpt>
      <trkpt lat="44.75838" lon="5.04257">
        <ele>383</ele>
        <time>2020-02-07T13:40:29.000Z</time>
      </trkpt>
      <trkpt lat="44.75838" lon="5.04257">
        <ele>383</ele>
        <time>2020-02-07T13:40:30.000Z</time>
      </trkpt>
      <trkpt lat="44.75838" lon="5.04256">
        <ele>383</ele>
        <time>2020-02-07T13:40:31.000Z</time>
      </trkpt>
      <trkpt lat="44.75838" lon="5.04257">
        <ele>383</ele>
        <time>2020-02-07T13:40:32.000Z</time>
      </trkpt>
      <trkpt lat="44.75837" lon="5.04257">
        <ele>383</ele>
        <time>2020-02-07T13:40:33.000Z</time>
      </trkpt>
      <trkpt lat="44.75837" lon="5.04257">
        <ele>383</ele>
        <time>2020-02-07T13:40:34.000Z</time>
      </trkpt>
      <trkpt lat="44.75836" lon="5.04257">
        <ele>383</ele>
        <time>2020-02-07T13:40:35.000Z</time>
      </trkpt>
      <trkpt lat="44.75836" lon="5.04257">
        <ele>384</ele>
        <time>2020-02-07T13:40:36.000Z</time>
      </trkpt>
      <trkpt lat="44.75835" lon="5.04257">
        <ele>384</ele>
        <time>2020-02-07T13:40:37.000Z</time>
      </trkpt>
      <trkpt lat="44.75835" lon="5.04257">
        <ele>384</ele>
        <time>2020-02-07T13:40:38.000Z</time>
      </trkpt>
      <trkpt lat="44.75834" lon="5.04258">
        <ele>384</ele>
        <time>2020-02-07T13:40:39.000Z</time>
      </trkpt>
      <trkpt lat="44.75833" lon="5.04257">
        <ele>384</ele>
        <time>2020-02-07T13:40:40.000Z</time>
      </trkpt>
      <trkpt lat="44.75833" lon="5.04257">
        <ele>384</ele>
        <time>2020-02-07T13:40:41.000Z</time>
      </trkpt>
      <trkpt lat="44.75832" lon="5.04256">
        <ele>384</ele>
        <time>2020-02-07T13:40:42.000Z</time>
      </trkpt>
      <trkpt lat="44.75831" lon="5.04257">
        <ele>384</ele>
        <time>2020-02-07T13:40:43.000Z</time>
      </trkpt>
      <trkpt lat="44.75831" lon="5.04257">
        <ele>384</ele>
        <time>2020-02-07T13:40:44.000Z</time>
      </trkpt>
      <trkpt lat="44.7583" lon="5.04258">
        <ele>384</ele>
        <time>2020-02-07T13:40:45.000Z</time>
      </trkpt>
      <trkpt lat="44.7583" lon="5.04258">
        <ele>384</ele>
        <time>2020-02-07T13:40:46.000Z</time>
      </trkpt>
      <trkpt lat="44.75829" lon="5.04259">
        <ele>385</ele>
        <time>2020-02-07T13:40:47.000Z</time>
      </trkpt>
      <trkpt lat="44.75828" lon="5.0426">
        <ele>385</ele>
        <time>2020-02-07T13:40:48.000Z</time>
      </trkpt>
      <trkpt lat="44.75828" lon="5.0426">
        <ele>385</ele>
        <time>2020-02-07T13:40:49.000Z</time>
      </trkpt>
      <trkpt lat="44.75828" lon="5.0426">
        <ele>385</ele>
        <time>2020-02-07T13:40:50.000Z</time>
      </trkpt>
      <trkpt lat="44.75827" lon="5.0426">
        <ele>385</ele>
        <time>2020-02-07T13:40:51.000Z</time>
      </trkpt>
      <trkpt lat="44.75827" lon="5.0426">
        <ele>385</ele>
        <time>2020-02-07T13:40:52.000Z</time>
      </trkpt>
      <trkpt lat="44.75827" lon="5.0426">
        <ele>385</ele>
        <time>2020-02-07T13:40:53.000Z</time>
      </trkpt>
      <trkpt lat="44.75827" lon="5.0426">
        <ele>385</ele>
        <time>2020-02-07T13:40:54.000Z</time>
      </trkpt>
      <trkpt lat="44.75827" lon="5.0426">
        <ele>385</ele>
        <time>2020-02-07T13:40:55.000Z</time>
      </trkpt>
      <trkpt lat="44.75828" lon="5.0426">
        <ele>385</ele>
        <time>2020-02-07T13:40:56.000Z</time>
      </trkpt>
      <trkpt lat="44.75828" lon="5.0426">
        <ele>385</ele>
        <time>2020-02-07T13:40:57.000Z</time>
      </trkpt>
      <trkpt lat="44.75828" lon="5.0426">
        <ele>385</ele>
        <time>2020-02-07T13:40:58.000Z</time>
      </trkpt>
      <trkpt lat="44.75828" lon="5.0426">
        <ele>385</ele>
        <time>2020-02-07T13:40:59.000Z</time>
      </trkpt>
      <trkpt lat="44.75828" lon="5.0426">
        <ele>385</ele>
        <time>2020-02-07T13:41:00.000Z</time>
      </trkpt>
      <trkpt lat="44.75828" lon="5.0426">
        <ele>385</ele>
        <time>2020-02-07T13:41:01.000Z</time>
      </trkpt>
      <trkpt lat="44.75828" lon="5.0426">
        <ele>385</ele>
        <time>2020-02-07T13:41:02.000Z</time>
      </trkpt>
      <trkpt lat="44.75828" lon="5.04259">
        <ele>385</ele>
        <time>2020-02-07T13:41:03.000Z</time>
      </trkpt>
      <trkpt lat="44.75828" lon="5.0426">
        <ele>385</ele>
        <time>2020-02-07T13:41:04.000Z</time>
      </trkpt>
      <trkpt lat="44.75828" lon="5.0426">
        <ele>385</ele>
        <time>2020-02-07T13:41:05.000Z</time>
      </trkpt>
      <trkpt lat="44.75827" lon="5.0426">
        <ele>385</ele>
        <time>2020-02-07T13:41:06.000Z</time>
      </trkpt>
      <trkpt lat="44.75827" lon="5.0426">
        <ele>385</ele>
        <time>2020-02-07T13:41:07.000Z</time>
      </trkpt>
      <trkpt lat="44.75827" lon="5.0426">
        <ele>385</ele>
        <time>2020-02-07T13:41:08.000Z</time>
      </trkpt>
      <trkpt lat="44.75828" lon="5.0426">
        <ele>385</ele>
        <time>2020-02-07T13:41:09.000Z</time>
      </trkpt>
      <trkpt lat="44.75828" lon="5.0426">
        <ele>385</ele>
        <time>2020-02-07T13:41:10.000Z</time>
      </trkpt>
      <trkpt lat="44.75828" lon="5.04259">
        <ele>385</ele>
        <time>2020-02-07T13:41:11.000Z</time>
      </trkpt>
      <trkpt lat="44.75828" lon="5.04259">
        <ele>385</ele>
        <time>2020-02-07T13:41:12.000Z</time>
      </trkpt>
      <trkpt lat="44.75828" lon="5.04259">
        <ele>385</ele>
        <time>2020-02-07T13:41:13.000Z</time>
      </trkpt>
      <trkpt lat="44.75827" lon="5.04259">
        <ele>385</ele>
        <time>2020-02-07T13:41:14.000Z</time>
      </trkpt>
      <trkpt lat="44.75827" lon="5.04259">
        <ele>385</ele>
        <time>2020-02-07T13:41:15.000Z</time>
      </trkpt>
      <trkpt lat="44.75827" lon="5.04259">
        <ele>385</ele>
        <time>2020-02-07T13:41:16.000Z</time>
      </trkpt>
      <trkpt lat="44.75827" lon="5.04259">
        <ele>385</ele>
        <time>2020-02-07T13:41:17.000Z</time>
      </trkpt>
      <trkpt lat="44.75827" lon="5.04259">
        <ele>385</ele>
        <time>2020-02-07T13:41:18.000Z</time>
      </trkpt>
      <trkpt lat="44.75827" lon="5.04259">
        <ele>385</ele>
        <time>2020-02-07T13:41:19.000Z</time>
      </trkpt>
      <trkpt lat="44.75827" lon="5.04259">
        <ele>385</ele>
        <time>2020-02-07T13:41:20.000Z</time>
      </trkpt>
      <trkpt lat="44.75828" lon="5.04259">
        <ele>385</ele>
        <time>2020-02-07T13:41:21.000Z</time>
      </trkpt>
      <trkpt lat="44.75828" lon="5.04259">
        <ele>385</ele>
        <time>2020-02-07T13:41:22.000Z</time>
      </trkpt>
      <trkpt lat="44.75828" lon="5.04259">
        <ele>385</ele>
        <time>2020-02-07T13:41:23.000Z</time>
      </trkpt>
      <trkpt lat="44.75828" lon="5.04259">
        <ele>386</ele>
        <time>2020-02-07T13:41:24.000Z</time>
      </trkpt>
      <trkpt lat="44.75828" lon="5.04259">
        <ele>386</ele>
        <time>2020-02-07T13:41:25.000Z</time>
      </trkpt>
      <trkpt lat="44.75828" lon="5.04259">
        <ele>386</ele>
        <time>2020-02-07T13:41:26.000Z</time>
      </trkpt>
      <trkpt lat="44.75828" lon="5.04259">
        <ele>386</ele>
        <time>2020-02-07T13:41:27.000Z</time>
      </trkpt>
      <trkpt lat="44.75828" lon="5.04259">
        <ele>386</ele>
        <time>2020-02-07T13:41:28.000Z</time>
      </trkpt>
      <trkpt lat="44.75828" lon="5.04259">
        <ele>386</ele>
        <time>2020-02-07T13:41:29.000Z</time>
      </trkpt>
      <trkpt lat="44.75828" lon="5.04259">
        <ele>386</ele>
        <time>2020-02-07T13:41:30.000Z</time>
      </trkpt>
      <trkpt lat="44.75828" lon="5.04259">
        <ele>386</ele>
        <time>2020-02-07T13:41:31.000Z</time>
      </trkpt>
      <trkpt lat="44.75828" lon="5.04259">
        <ele>386</ele>
        <time>2020-02-07T13:41:32.000Z</time>
      </trkpt>
      <trkpt lat="44.75828" lon="5.04259">
        <ele>386</ele>
        <time>2020-02-07T13:41:33.000Z</time>
      </trkpt>
      <trkpt lat="44.75828" lon="5.04259">
        <ele>386</ele>
        <time>2020-02-07T13:41:34.000Z</time>
      </trkpt>
      <trkpt lat="44.75828" lon="5.04258">
        <ele>386</ele>
        <time>2020-02-07T13:41:35.000Z</time>
      </trkpt>
      <trkpt lat="44.75828" lon="5.04258">
        <ele>386</ele>
        <time>2020-02-07T13:41:36.000Z</time>
      </trkpt>
      <trkpt lat="44.75828" lon="5.04259">
        <ele>386</ele>
        <time>2020-02-07T13:41:37.000Z</time>
      </trkpt>
      <trkpt lat="44.75828" lon="5.04259">
        <ele>386</ele>
        <time>2020-02-07T13:41:38.000Z</time>
      </trkpt>
      <trkpt lat="44.75828" lon="5.04259">
        <ele>386</ele>
        <time>2020-02-07T13:41:39.000Z</time>
      </trkpt>
      <trkpt lat="44.75828" lon="5.04259">
        <ele>386</ele>
        <time>2020-02-07T13:41:40.000Z</time>
      </trkpt>
      <trkpt lat="44.75828" lon="5.04259">
        <ele>386</ele>
        <time>2020-02-07T13:41:41.000Z</time>
      </trkpt>
      <trkpt lat="44.75828" lon="5.04259">
        <ele>386</ele>
        <time>2020-02-07T13:41:42.000Z</time>
      </trkpt>
      <trkpt lat="44.75828" lon="5.04259">
        <ele>386</ele>
        <time>2020-02-07T13:41:43.000Z</time>
      </trkpt>
      <trkpt lat="44.75828" lon="5.04259">
        <ele>386</ele>
        <time>2020-02-07T13:41:44.000Z</time>
      </trkpt>
      <trkpt lat="44.75828" lon="5.04259">
        <ele>386</ele>
        <time>2020-02-07T13:41:45.000Z</time>
      </trkpt>
      <trkpt lat="44.75828" lon="5.04259">
        <ele>386</ele>
        <time>2020-02-07T13:41:46.000Z</time>
      </trkpt>
      <trkpt lat="44.75828" lon="5.04259">
        <ele>386</ele>
        <time>2020-02-07T13:41:47.000Z</time>
      </trkpt>
      <trkpt lat="44.75828" lon="5.04259">
        <ele>386</ele>
        <time>2020-02-07T13:41:48.000Z</time>
      </trkpt>
      <trkpt lat="44.75828" lon="5.04259">
        <ele>386</ele>
        <time>2020-02-07T13:41:49.000Z</time>
      </trkpt>
      <trkpt lat="44.75828" lon="5.04259">
        <ele>386</ele>
        <time>2020-02-07T13:41:50.000Z</time>
      </trkpt>
      <trkpt lat="44.75828" lon="5.04259">
        <ele>386</ele>
        <time>2020-02-07T13:41:51.000Z</time>
      </trkpt>
      <trkpt lat="44.75828" lon="5.04259">
        <ele>386</ele>
        <time>2020-02-07T13:41:52.000Z</time>
      </trkpt>
      <trkpt lat="44.75828" lon="5.04259">
        <ele>386</ele>
        <time>2020-02-07T13:41:53.000Z</time>
      </trkpt>
      <trkpt lat="44.75828" lon="5.04259">
        <ele>386</ele>
        <time>2020-02-07T13:41:54.000Z</time>
      </trkpt>
      <trkpt lat="44.75828" lon="5.04259">
        <ele>386</ele>
        <time>2020-02-07T13:41:55.000Z</time>
      </trkpt>
      <trkpt lat="44.75828" lon="5.04259">
        <ele>386</ele>
        <time>2020-02-07T13:41:56.000Z</time>
      </trkpt>
      <trkpt lat="44.75828" lon="5.04259">
        <ele>386</ele>
        <time>2020-02-07T13:41:57.000Z</time>
      </trkpt>
      <trkpt lat="44.75828" lon="5.04259">
        <ele>386</ele>
        <time>2020-02-07T13:41:58.000Z</time>
      </trkpt>
      <trkpt lat="44.75828" lon="5.04259">
        <ele>387</ele>
        <time>2020-02-07T13:41:59.000Z</time>
      </trkpt>
      <trkpt lat="44.75828" lon="5.04259">
        <ele>387</ele>
        <time>2020-02-07T13:42:00.000Z</time>
      </trkpt>
      <trkpt lat="44.75828" lon="5.04259">
        <ele>387</ele>
        <time>2020-02-07T13:42:01.000Z</time>
      </trkpt>
      <trkpt lat="44.75828" lon="5.04259">
        <ele>387</ele>
        <time>2020-02-07T13:42:02.000Z</time>
      </trkpt>
      <trkpt lat="44.75828" lon="5.04259">
        <ele>387</ele>
        <time>2020-02-07T13:42:03.000Z</time>
      </trkpt>
      <trkpt lat="44.75828" lon="5.04259">
        <ele>387</ele>
        <time>2020-02-07T13:42:04.000Z</time>
      </trkpt>
      <trkpt lat="44.75828" lon="5.04259">
        <ele>387</ele>
        <time>2020-02-07T13:42:05.000Z</time>
      </trkpt>
      <trkpt lat="44.75828" lon="5.04259">
        <ele>387</ele>
        <time>2020-02-07T13:42:06.000Z</time>
      </trkpt>
      <trkpt lat="44.75828" lon="5.04259">
        <ele>387</ele>
        <time>2020-02-07T13:42:07.000Z</time>
      </trkpt>
      <trkpt lat="44.75828" lon="5.04259">
        <ele>387</ele>
        <time>2020-02-07T13:42:08.000Z</time>
      </trkpt>
      <trkpt lat="44.75828" lon="5.04259">
        <ele>387</ele>
        <time>2020-02-07T13:42:09.000Z</time>
      </trkpt>
      <trkpt lat="44.75828" lon="5.04259">
        <ele>387</ele>
        <time>2020-02-07T13:42:10.000Z</time>
      </trkpt>
      <trkpt lat="44.75828" lon="5.04259">
        <ele>387</ele>
        <time>2020-02-07T13:42:11.000Z</time>
      </trkpt>
      <trkpt lat="44.75828" lon="5.04259">
        <ele>387</ele>
        <time>2020-02-07T13:42:12.000Z</time>
      </trkpt>
      <trkpt lat="44.75828" lon="5.04259">
        <ele>387</ele>
        <time>2020-02-07T13:42:13.000Z</time>
      </trkpt>
      <trkpt lat="44.75828" lon="5.04259">
        <ele>387</ele>
        <time>2020-02-07T13:42:14.000Z</time>
      </trkpt>
      <trkpt lat="44.75828" lon="5.04258">
        <ele>387</ele>
        <time>2020-02-07T13:42:15.000Z</time>
      </trkpt>
      <trkpt lat="44.75828" lon="5.04258">
        <ele>387</ele>
        <time>2020-02-07T13:42:16.000Z</time>
      </trkpt>
      <trkpt lat="44.75829" lon="5.04258">
        <ele>387</ele>
        <time>2020-02-07T13:42:17.000Z</time>
      </trkpt>
      <trkpt lat="44.75829" lon="5.04258">
        <ele>387</ele>
        <time>2020-02-07T13:42:18.000Z</time>
      </trkpt>
      <trkpt lat="44.75829" lon="5.04258">
        <ele>387</ele>
        <time>2020-02-07T13:42:19.000Z</time>
      </trkpt>
      <trkpt lat="44.75829" lon="5.04258">
        <ele>387</ele>
        <time>2020-02-07T13:42:20.000Z</time>
      </trkpt>
      <trkpt lat="44.75829" lon="5.04258">
        <ele>387</ele>
        <time>2020-02-07T13:42:21.000Z</time>
      </trkpt>
      <trkpt lat="44.75829" lon="5.04258">
        <ele>387</ele>
        <time>2020-02-07T13:42:22.000Z</time>
      </trkpt>
      <trkpt lat="44.75829" lon="5.04258">
        <ele>387</ele>
        <time>2020-02-07T13:42:23.000Z</time>
      </trkpt>
      <trkpt lat="44.75829" lon="5.04259">
        <ele>387</ele>
        <time>2020-02-07T13:42:24.000Z</time>
      </trkpt>
      <trkpt lat="44.75828" lon="5.04259">
        <ele>387</ele>
        <time>2020-02-07T13:42:25.000Z</time>
      </trkpt>
      <trkpt lat="44.75828" lon="5.04259">
        <ele>387</ele>
        <time>2020-02-07T13:42:26.000Z</time>
      </trkpt>
      <trkpt lat="44.75828" lon="5.04259">
        <ele>387</ele>
        <time>2020-02-07T13:42:27.000Z</time>
      </trkpt>
      <trkpt lat="44.75828" lon="5.04258">
        <ele>387</ele>
        <time>2020-02-07T13:42:28.000Z</time>
      </trkpt>
      <trkpt lat="44.75827" lon="5.04258">
        <ele>387</ele>
        <time>2020-02-07T13:42:29.000Z</time>
      </trkpt>
      <trkpt lat="44.75827" lon="5.04258">
        <ele>387</ele>
        <time>2020-02-07T13:42:30.000Z</time>
      </trkpt>
      <trkpt lat="44.75828" lon="5.04258">
        <ele>387</ele>
        <time>2020-02-07T13:42:31.000Z</time>
      </trkpt>
      <trkpt lat="44.75828" lon="5.04258">
        <ele>387</ele>
        <time>2020-02-07T13:42:32.000Z</time>
      </trkpt>
      <trkpt lat="44.75828" lon="5.04258">
        <ele>387</ele>
        <time>2020-02-07T13:42:33.000Z</time>
      </trkpt>
      <trkpt lat="44.75828" lon="5.04258">
        <ele>387</ele>
        <time>2020-02-07T13:42:34.000Z</time>
      </trkpt>
      <trkpt lat="44.75828" lon="5.04258">
        <ele>387</ele>
        <time>2020-02-07T13:42:35.000Z</time>
      </trkpt>
      <trkpt lat="44.75828" lon="5.04258">
        <ele>387</ele>
        <time>2020-02-07T13:42:36.000Z</time>
      </trkpt>
      <trkpt lat="44.75828" lon="5.04258">
        <ele>387</ele>
        <time>2020-02-07T13:42:37.000Z</time>
      </trkpt>
      <trkpt lat="44.75828" lon="5.04258">
        <ele>387</ele>
        <time>2020-02-07T13:42:38.000Z</time>
      </trkpt>
      <trkpt lat="44.75828" lon="5.04258">
        <ele>387</ele>
        <time>2020-02-07T13:42:39.000Z</time>
      </trkpt>
      <trkpt lat="44.75828" lon="5.04258">
        <ele>387</ele>
        <time>2020-02-07T13:42:40.000Z</time>
      </trkpt>
      <trkpt lat="44.75828" lon="5.04258">
        <ele>387</ele>
        <time>2020-02-07T13:42:41.000Z</time>
      </trkpt>
      <trkpt lat="44.75828" lon="5.04257">
        <ele>387</ele>
        <time>2020-02-07T13:42:42.000Z</time>
      </trkpt>
      <trkpt lat="44.75827" lon="5.04257">
        <ele>387</ele>
        <time>2020-02-07T13:42:43.000Z</time>
      </trkpt>
      <trkpt lat="44.75827" lon="5.04256">
        <ele>387</ele>
        <time>2020-02-07T13:42:44.000Z</time>
      </trkpt>
      <trkpt lat="44.75826" lon="5.04256">
        <ele>387</ele>
        <time>2020-02-07T13:42:45.000Z</time>
      </trkpt>
      <trkpt lat="44.75826" lon="5.04256">
        <ele>387</ele>
        <time>2020-02-07T13:42:46.000Z</time>
      </trkpt>
      <trkpt lat="44.75826" lon="5.04255">
        <ele>387</ele>
        <time>2020-02-07T13:42:47.000Z</time>
      </trkpt>
      <trkpt lat="44.75826" lon="5.04255">
        <ele>387</ele>
        <time>2020-02-07T13:42:48.000Z</time>
      </trkpt>
      <trkpt lat="44.75825" lon="5.04256">
        <ele>387</ele>
        <time>2020-02-07T13:42:49.000Z</time>
      </trkpt>
      <trkpt lat="44.75825" lon="5.04256">
        <ele>387</ele>
        <time>2020-02-07T13:42:50.000Z</time>
      </trkpt>
      <trkpt lat="44.75825" lon="5.04256">
        <ele>387</ele>
        <time>2020-02-07T13:42:51.000Z</time>
      </trkpt>
      <trkpt lat="44.75825" lon="5.04256">
        <ele>387</ele>
        <time>2020-02-07T13:42:52.000Z</time>
      </trkpt>
      <trkpt lat="44.75825" lon="5.04256">
        <ele>387</ele>
        <time>2020-02-07T13:42:53.000Z</time>
      </trkpt>
      <trkpt lat="44.75825" lon="5.04256">
        <ele>387</ele>
        <time>2020-02-07T13:42:54.000Z</time>
      </trkpt>
      <trkpt lat="44.75825" lon="5.04256">
        <ele>387</ele>
        <time>2020-02-07T13:42:55.000Z</time>
      </trkpt>
      <trkpt lat="44.75825" lon="5.04256">
        <ele>387</ele>
        <time>2020-02-07T13:42:56.000Z</time>
      </trkpt>
      <trkpt lat="44.75825" lon="5.04256">
        <ele>387</ele>
        <time>2020-02-07T13:42:57.000Z</time>
      </trkpt>
      <trkpt lat="44.75825" lon="5.04256">
        <ele>387</ele>
        <time>2020-02-07T13:42:58.000Z</time>
      </trkpt>
      <trkpt lat="44.75825" lon="5.04256">
        <ele>387</ele>
        <time>2020-02-07T13:42:59.000Z</time>
      </trkpt>
      <trkpt lat="44.75825" lon="5.04256">
        <ele>387</ele>
        <time>2020-02-07T13:43:00.000Z</time>
      </trkpt>
      <trkpt lat="44.75825" lon="5.04256">
        <ele>387</ele>
        <time>2020-02-07T13:43:01.000Z</time>
      </trkpt>
      <trkpt lat="44.75825" lon="5.04256">
        <ele>387</ele>
        <time>2020-02-07T13:43:02.000Z</time>
      </trkpt>
      <trkpt lat="44.75825" lon="5.04256">
        <ele>387</ele>
        <time>2020-02-07T13:43:03.000Z</time>
      </trkpt>
      <trkpt lat="44.75825" lon="5.04256">
        <ele>387</ele>
        <time>2020-02-07T13:43:04.000Z</time>
      </trkpt>
      <trkpt lat="44.75825" lon="5.04256">
        <ele>387</ele>
        <time>2020-02-07T13:43:05.000Z</time>
      </trkpt>
      <trkpt lat="44.75825" lon="5.04256">
        <ele>387</ele>
        <time>2020-02-07T13:43:06.000Z</time>
      </trkpt>
      <trkpt lat="44.75825" lon="5.04256">
        <ele>387</ele>
        <time>2020-02-07T13:43:07.000Z</time>
      </trkpt>
      <trkpt lat="44.75825" lon="5.04256">
        <ele>387</ele>
        <time>2020-02-07T13:43:08.000Z</time>
      </trkpt>
      <trkpt lat="44.75825" lon="5.04256">
        <ele>387</ele>
        <time>2020-02-07T13:43:09.000Z</time>
      </trkpt>
      <trkpt lat="44.75825" lon="5.04256">
        <ele>387</ele>
        <time>2020-02-07T13:43:10.000Z</time>
      </trkpt>
      <trkpt lat="44.75825" lon="5.04256">
        <ele>387</ele>
        <time>2020-02-07T13:43:11.000Z</time>
      </trkpt>
      <trkpt lat="44.75825" lon="5.04256">
        <ele>387</ele>
        <time>2020-02-07T13:43:12.000Z</time>
      </trkpt>
      <trkpt lat="44.75825" lon="5.04256">
        <ele>387</ele>
        <time>2020-02-07T13:43:13.000Z</time>
      </trkpt>
      <trkpt lat="44.75825" lon="5.04256">
        <ele>387</ele>
        <time>2020-02-07T13:43:14.000Z</time>
      </trkpt>
      <trkpt lat="44.75825" lon="5.04256">
        <ele>387</ele>
        <time>2020-02-07T13:43:15.000Z</time>
      </trkpt>
      <trkpt lat="44.75825" lon="5.04256">
        <ele>387</ele>
        <time>2020-02-07T13:43:16.000Z</time>
      </trkpt>
      <trkpt lat="44.75825" lon="5.04256">
        <ele>387</ele>
        <time>2020-02-07T13:43:17.000Z</time>
      </trkpt>
      <trkpt lat="44.75825" lon="5.04256">
        <ele>387</ele>
        <time>2020-02-07T13:43:18.000Z</time>
      </trkpt>
      <trkpt lat="44.75825" lon="5.04256">
        <ele>387</ele>
        <time>2020-02-07T13:43:19.000Z</time>
      </trkpt>
      <trkpt lat="44.75825" lon="5.04256">
        <ele>387</ele>
        <time>2020-02-07T13:43:20.000Z</time>
      </trkpt>
      <trkpt lat="44.75825" lon="5.04256">
        <ele>387</ele>
        <time>2020-02-07T13:43:21.000Z</time>
      </trkpt>
      <trkpt lat="44.75825" lon="5.04256">
        <ele>387</ele>
        <time>2020-02-07T13:43:22.000Z</time>
      </trkpt>
      <trkpt lat="44.75825" lon="5.04256">
        <ele>387</ele>
        <time>2020-02-07T13:43:23.000Z</time>
      </trkpt>
      <trkpt lat="44.75825" lon="5.04256">
        <ele>387</ele>
        <time>2020-02-07T13:43:24.000Z</time>
      </trkpt>
      <trkpt lat="44.75825" lon="5.04256">
        <ele>387</ele>
        <time>2020-02-07T13:43:25.000Z</time>
      </trkpt>
      <trkpt lat="44.75825" lon="5.04256">
        <ele>387</ele>
        <time>2020-02-07T13:43:26.000Z</time>
      </trkpt>
      <trkpt lat="44.75825" lon="5.04256">
        <ele>387</ele>
        <time>2020-02-07T13:43:27.000Z</time>
      </trkpt>
      <trkpt lat="44.75825" lon="5.04256">
        <ele>387</ele>
        <time>2020-02-07T13:43:28.000Z</time>
      </trkpt>
      <trkpt lat="44.75825" lon="5.04256">
        <ele>387</ele>
        <time>2020-02-07T13:43:29.000Z</time>
      </trkpt>
      <trkpt lat="44.75825" lon="5.04256">
        <ele>387</ele>
        <time>2020-02-07T13:43:30.000Z</time>
      </trkpt>
      <trkpt lat="44.75825" lon="5.04256">
        <ele>387</ele>
        <time>2020-02-07T13:43:31.000Z</time>
      </trkpt>
      <trkpt lat="44.75825" lon="5.04256">
        <ele>387</ele>
        <time>2020-02-07T13:43:32.000Z</time>
      </trkpt>
      <trkpt lat="44.75825" lon="5.04255">
        <ele>387</ele>
        <time>2020-02-07T13:43:33.000Z</time>
      </trkpt>
      <trkpt lat="44.75825" lon="5.04255">
        <ele>387</ele>
        <time>2020-02-07T13:43:34.000Z</time>
      </trkpt>
      <trkpt lat="44.75825" lon="5.04255">
        <ele>387</ele>
        <time>2020-02-07T13:43:35.000Z</time>
      </trkpt>
      <trkpt lat="44.75825" lon="5.04255">
        <ele>387</ele>
        <time>2020-02-07T13:43:36.000Z</time>
      </trkpt>
      <trkpt lat="44.75825" lon="5.04255">
        <ele>387</ele>
        <time>2020-02-07T13:43:37.000Z</time>
      </trkpt>
      <trkpt lat="44.75825" lon="5.04255">
        <ele>387</ele>
        <time>2020-02-07T13:43:38.000Z</time>
      </trkpt>
      <trkpt lat="44.75825" lon="5.04255">
        <ele>387</ele>
        <time>2020-02-07T13:43:39.000Z</time>
      </trkpt>
      <trkpt lat="44.75825" lon="5.04255">
        <ele>387</ele>
        <time>2020-02-07T13:43:40.000Z</time>
      </trkpt>
      <trkpt lat="44.75825" lon="5.04255">
        <ele>387</ele>
        <time>2020-02-07T13:43:41.000Z</time>
      </trkpt>
      <trkpt lat="44.75825" lon="5.04255">
        <ele>387</ele>
        <time>2020-02-07T13:43:42.000Z</time>
      </trkpt>
      <trkpt lat="44.75825" lon="5.04255">
        <ele>387</ele>
        <time>2020-02-07T13:43:43.000Z</time>
      </trkpt>
      <trkpt lat="44.75825" lon="5.04255">
        <ele>387</ele>
        <time>2020-02-07T13:43:44.000Z</time>
      </trkpt>
      <trkpt lat="44.75825" lon="5.04255">
        <ele>387</ele>
        <time>2020-02-07T13:43:45.000Z</time>
      </trkpt>
      <trkpt lat="44.75825" lon="5.04256">
        <ele>387</ele>
        <time>2020-02-07T13:43:46.000Z</time>
      </trkpt>
      <trkpt lat="44.75825" lon="5.04256">
        <ele>387</ele>
        <time>2020-02-07T13:43:47.000Z</time>
      </trkpt>
      <trkpt lat="44.75825" lon="5.04255">
        <ele>387</ele>
        <time>2020-02-07T13:43:48.000Z</time>
      </trkpt>
      <trkpt lat="44.75825" lon="5.04255">
        <ele>387</ele>
        <time>2020-02-07T13:43:49.000Z</time>
      </trkpt>
      <trkpt lat="44.75825" lon="5.04255">
        <ele>387</ele>
        <time>2020-02-07T13:43:50.000Z</time>
      </trkpt>
      <trkpt lat="44.75825" lon="5.04255">
        <ele>387</ele>
        <time>2020-02-07T13:43:51.000Z</time>
      </trkpt>
      <trkpt lat="44.75825" lon="5.04255">
        <ele>387</ele>
        <time>2020-02-07T13:43:52.000Z</time>
      </trkpt>
      <trkpt lat="44.75825" lon="5.04255">
        <ele>387</ele>
        <time>2020-02-07T13:43:53.000Z</time>
      </trkpt>
      <trkpt lat="44.75825" lon="5.04256">
        <ele>387</ele>
        <time>2020-02-07T13:43:54.000Z</time>
      </trkpt>
      <trkpt lat="44.75825" lon="5.04256">
        <ele>387</ele>
        <time>2020-02-07T13:43:55.000Z</time>
      </trkpt>
      <trkpt lat="44.75825" lon="5.04255">
        <ele>387</ele>
        <time>2020-02-07T13:43:56.000Z</time>
      </trkpt>
      <trkpt lat="44.75825" lon="5.04256">
        <ele>387</ele>
        <time>2020-02-07T13:43:57.000Z</time>
      </trkpt>
      <trkpt lat="44.75825" lon="5.04256">
        <ele>387</ele>
        <time>2020-02-07T13:43:58.000Z</time>
      </trkpt>
      <trkpt lat="44.75825" lon="5.04256">
        <ele>387</ele>
        <time>2020-02-07T13:43:59.000Z</time>
      </trkpt>
      <trkpt lat="44.75825" lon="5.04256">
        <ele>387</ele>
        <time>2020-02-07T13:44:00.000Z</time>
      </trkpt>
      <trkpt lat="44.75824" lon="5.04256">
        <ele>387</ele>
        <time>2020-02-07T13:44:01.000Z</time>
      </trkpt>
      <trkpt lat="44.75823" lon="5.04255">
        <ele>387</ele>
        <time>2020-02-07T13:44:02.000Z</time>
      </trkpt>
      <trkpt lat="44.75823" lon="5.04255">
        <ele>387</ele>
        <time>2020-02-07T13:44:03.000Z</time>
      </trkpt>
      <trkpt lat="44.75823" lon="5.04255">
        <ele>387</ele>
        <time>2020-02-07T13:44:04.000Z</time>
      </trkpt>
      <trkpt lat="44.75822" lon="5.04254">
        <ele>387</ele>
        <time>2020-02-07T13:44:05.000Z</time>
      </trkpt>
      <trkpt lat="44.75822" lon="5.04254">
        <ele>387</ele>
        <time>2020-02-07T13:44:06.000Z</time>
      </trkpt>
      <trkpt lat="44.75821" lon="5.04253">
        <ele>387</ele>
        <time>2020-02-07T13:44:07.000Z</time>
      </trkpt>
      <trkpt lat="44.75821" lon="5.04253">
        <ele>387</ele>
        <time>2020-02-07T13:44:08.000Z</time>
      </trkpt>
      <trkpt lat="44.7582" lon="5.04252">
        <ele>387</ele>
        <time>2020-02-07T13:44:09.000Z</time>
      </trkpt>
      <trkpt lat="44.7582" lon="5.04252">
        <ele>386</ele>
        <time>2020-02-07T13:44:10.000Z</time>
      </trkpt>
      <trkpt lat="44.75819" lon="5.04251">
        <ele>386</ele>
        <time>2020-02-07T13:44:11.000Z</time>
      </trkpt>
      <trkpt lat="44.75818" lon="5.04251">
        <ele>386</ele>
        <time>2020-02-07T13:44:12.000Z</time>
      </trkpt>
      <trkpt lat="44.75818" lon="5.0425">
        <ele>386</ele>
        <time>2020-02-07T13:44:13.000Z</time>
      </trkpt>
      <trkpt lat="44.75817" lon="5.04249">
        <ele>386</ele>
        <time>2020-02-07T13:44:14.000Z</time>
      </trkpt>
      <trkpt lat="44.75816" lon="5.04248">
        <ele>386</ele>
        <time>2020-02-07T13:44:15.000Z</time>
      </trkpt>
      <trkpt lat="44.75816" lon="5.04248">
        <ele>385</ele>
        <time>2020-02-07T13:44:16.000Z</time>
      </trkpt>
      <trkpt lat="44.75815" lon="5.04247">
        <ele>385</ele>
        <time>2020-02-07T13:44:17.000Z</time>
      </trkpt>
      <trkpt lat="44.75814" lon="5.04246">
        <ele>385</ele>
        <time>2020-02-07T13:44:18.000Z</time>
      </trkpt>
      <trkpt lat="44.75814" lon="5.04245">
        <ele>385</ele>
        <time>2020-02-07T13:44:19.000Z</time>
      </trkpt>
      <trkpt lat="44.75813" lon="5.04245">
        <ele>384</ele>
        <time>2020-02-07T13:44:20.000Z</time>
      </trkpt>
      <trkpt lat="44.75812" lon="5.04244">
        <ele>384</ele>
        <time>2020-02-07T13:44:21.000Z</time>
      </trkpt>
      <trkpt lat="44.75812" lon="5.04243">
        <ele>384</ele>
        <time>2020-02-07T13:44:22.000Z</time>
      </trkpt>
      <trkpt lat="44.75811" lon="5.04243">
        <ele>384</ele>
        <time>2020-02-07T13:44:23.000Z</time>
      </trkpt>
      <trkpt lat="44.7581" lon="5.04242">
        <ele>384</ele>
        <time>2020-02-07T13:44:24.000Z</time>
      </trkpt>
      <trkpt lat="44.7581" lon="5.04241">
        <ele>384</ele>
        <time>2020-02-07T13:44:25.000Z</time>
      </trkpt>
      <trkpt lat="44.75809" lon="5.0424">
        <ele>384</ele>
        <time>2020-02-07T13:44:26.000Z</time>
      </trkpt>
      <trkpt lat="44.75809" lon="5.04239">
        <ele>384</ele>
        <time>2020-02-07T13:44:27.000Z</time>
      </trkpt>
      <trkpt lat="44.75808" lon="5.04238">
        <ele>384</ele>
        <time>2020-02-07T13:44:28.000Z</time>
      </trkpt>
      <trkpt lat="44.75808" lon="5.04237">
        <ele>384</ele>
        <time>2020-02-07T13:44:29.000Z</time>
      </trkpt>
      <trkpt lat="44.75807" lon="5.04236">
        <ele>384</ele>
        <time>2020-02-07T13:44:30.000Z</time>
      </trkpt>
      <trkpt lat="44.75807" lon="5.04235">
        <ele>384</ele>
        <time>2020-02-07T13:44:31.000Z</time>
      </trkpt>
      <trkpt lat="44.75806" lon="5.04234">
        <ele>384</ele>
        <time>2020-02-07T13:44:32.000Z</time>
      </trkpt>
      <trkpt lat="44.75806" lon="5.04233">
        <ele>384</ele>
        <time>2020-02-07T13:44:33.000Z</time>
      </trkpt>
      <trkpt lat="44.75805" lon="5.04231">
        <ele>384</ele>
        <time>2020-02-07T13:44:34.000Z</time>
      </trkpt>
      <trkpt lat="44.75805" lon="5.0423">
        <ele>384</ele>
        <time>2020-02-07T13:44:35.000Z</time>
      </trkpt>
      <trkpt lat="44.75805" lon="5.04229">
        <ele>384</ele>
        <time>2020-02-07T13:44:36.000Z</time>
      </trkpt>
      <trkpt lat="44.75805" lon="5.04227">
        <ele>384</ele>
        <time>2020-02-07T13:44:37.000Z</time>
      </trkpt>
      <trkpt lat="44.75805" lon="5.04226">
        <ele>384</ele>
        <time>2020-02-07T13:44:38.000Z</time>
      </trkpt>
      <trkpt lat="44.75805" lon="5.04224">
        <ele>384</ele>
        <time>2020-02-07T13:44:39.000Z</time>
      </trkpt>
      <trkpt lat="44.75805" lon="5.04223">
        <ele>384</ele>
        <time>2020-02-07T13:44:40.000Z</time>
      </trkpt>
      <trkpt lat="44.75805" lon="5.04221">
        <ele>384</ele>
        <time>2020-02-07T13:44:41.000Z</time>
      </trkpt>
      <trkpt lat="44.75805" lon="5.0422">
        <ele>384</ele>
        <time>2020-02-07T13:44:42.000Z</time>
      </trkpt>
      <trkpt lat="44.75805" lon="5.04218">
        <ele>384</ele>
        <time>2020-02-07T13:44:43.000Z</time>
      </trkpt>
      <trkpt lat="44.75805" lon="5.04217">
        <ele>384</ele>
        <time>2020-02-07T13:44:44.000Z</time>
      </trkpt>
      <trkpt lat="44.75805" lon="5.04215">
        <ele>384</ele>
        <time>2020-02-07T13:44:45.000Z</time>
      </trkpt>
      <trkpt lat="44.75805" lon="5.04214">
        <ele>384</ele>
        <time>2020-02-07T13:44:46.000Z</time>
      </trkpt>
      <trkpt lat="44.75805" lon="5.04213">
        <ele>384</ele>
        <time>2020-02-07T13:44:47.000Z</time>
      </trkpt>
      <trkpt lat="44.75805" lon="5.04212">
        <ele>384</ele>
        <time>2020-02-07T13:44:48.000Z</time>
      </trkpt>
      <trkpt lat="44.75806" lon="5.0421">
        <ele>384</ele>
        <time>2020-02-07T13:44:49.000Z</time>
      </trkpt>
      <trkpt lat="44.75806" lon="5.04209">
        <ele>384</ele>
        <time>2020-02-07T13:44:50.000Z</time>
      </trkpt>
      <trkpt lat="44.75806" lon="5.04208">
        <ele>384</ele>
        <time>2020-02-07T13:44:51.000Z</time>
      </trkpt>
      <trkpt lat="44.75806" lon="5.04207">
        <ele>384</ele>
        <time>2020-02-07T13:44:52.000Z</time>
      </trkpt>
      <trkpt lat="44.75806" lon="5.04206">
        <ele>384</ele>
        <time>2020-02-07T13:44:53.000Z</time>
      </trkpt>
      <trkpt lat="44.75806" lon="5.04205">
        <ele>384</ele>
        <time>2020-02-07T13:44:54.000Z</time>
      </trkpt>
      <trkpt lat="44.75806" lon="5.04204">
        <ele>384</ele>
        <time>2020-02-07T13:44:55.000Z</time>
      </trkpt>
      <trkpt lat="44.75806" lon="5.04203">
        <ele>384</ele>
        <time>2020-02-07T13:44:56.000Z</time>
      </trkpt>
      <trkpt lat="44.75806" lon="5.04202">
        <ele>384</ele>
        <time>2020-02-07T13:44:57.000Z</time>
      </trkpt>
      <trkpt lat="44.75806" lon="5.04201">
        <ele>384</ele>
        <time>2020-02-07T13:44:58.000Z</time>
      </trkpt>
      <trkpt lat="44.75806" lon="5.04199">
        <ele>384</ele>
        <time>2020-02-07T13:44:59.000Z</time>
      </trkpt>
      <trkpt lat="44.75806" lon="5.04199">
        <ele>384</ele>
        <time>2020-02-07T13:45:00.000Z</time>
      </trkpt>
      <trkpt lat="44.75806" lon="5.04198">
        <ele>384</ele>
        <time>2020-02-07T13:45:01.000Z</time>
      </trkpt>
      <trkpt lat="44.75806" lon="5.04197">
        <ele>384</ele>
        <time>2020-02-07T13:45:02.000Z</time>
      </trkpt>
      <trkpt lat="44.75805" lon="5.04196">
        <ele>384</ele>
        <time>2020-02-07T13:45:03.000Z</time>
      </trkpt>
      <trkpt lat="44.75805" lon="5.04195">
        <ele>384</ele>
        <time>2020-02-07T13:45:04.000Z</time>
      </trkpt>
      <trkpt lat="44.75805" lon="5.04194">
        <ele>384</ele>
        <time>2020-02-07T13:45:05.000Z</time>
      </trkpt>
      <trkpt lat="44.75805" lon="5.04193">
        <ele>384</ele>
        <time>2020-02-07T13:45:06.000Z</time>
      </trkpt>
      <trkpt lat="44.75804" lon="5.04192">
        <ele>385</ele>
        <time>2020-02-07T13:45:07.000Z</time>
      </trkpt>
      <trkpt lat="44.75804" lon="5.0419">
        <ele>385</ele>
        <time>2020-02-07T13:45:08.000Z</time>
      </trkpt>
      <trkpt lat="44.75803" lon="5.04189">
        <ele>385</ele>
        <time>2020-02-07T13:45:09.000Z</time>
      </trkpt>
      <trkpt lat="44.75803" lon="5.04188">
        <ele>385</ele>
        <time>2020-02-07T13:45:10.000Z</time>
      </trkpt>
      <trkpt lat="44.75802" lon="5.04187">
        <ele>385</ele>
        <time>2020-02-07T13:45:11.000Z</time>
      </trkpt>
      <trkpt lat="44.75802" lon="5.04186">
        <ele>385</ele>
        <time>2020-02-07T13:45:12.000Z</time>
      </trkpt>
      <trkpt lat="44.75801" lon="5.04185">
        <ele>385</ele>
        <time>2020-02-07T13:45:13.000Z</time>
      </trkpt>
      <trkpt lat="44.75801" lon="5.04184">
        <ele>385</ele>
        <time>2020-02-07T13:45:14.000Z</time>
      </trkpt>
      <trkpt lat="44.758" lon="5.04183">
        <ele>385</ele>
        <time>2020-02-07T13:45:15.000Z</time>
      </trkpt>
      <trkpt lat="44.758" lon="5.04182">
        <ele>385</ele>
        <time>2020-02-07T13:45:16.000Z</time>
      </trkpt>
      <trkpt lat="44.75799" lon="5.0418">
        <ele>384</ele>
        <time>2020-02-07T13:45:17.000Z</time>
      </trkpt>
      <trkpt lat="44.75799" lon="5.04179">
        <ele>384</ele>
        <time>2020-02-07T13:45:18.000Z</time>
      </trkpt>
      <trkpt lat="44.75798" lon="5.04178">
        <ele>384</ele>
        <time>2020-02-07T13:45:19.000Z</time>
      </trkpt>
      <trkpt lat="44.75798" lon="5.04177">
        <ele>384</ele>
        <time>2020-02-07T13:45:20.000Z</time>
      </trkpt>
      <trkpt lat="44.75797" lon="5.04176">
        <ele>384</ele>
        <time>2020-02-07T13:45:21.000Z</time>
      </trkpt>
      <trkpt lat="44.75797" lon="5.04175">
        <ele>384</ele>
        <time>2020-02-07T13:45:22.000Z</time>
      </trkpt>
      <trkpt lat="44.75796" lon="5.04174">
        <ele>384</ele>
        <time>2020-02-07T13:45:23.000Z</time>
      </trkpt>
      <trkpt lat="44.75796" lon="5.04173">
        <ele>384</ele>
        <time>2020-02-07T13:45:24.000Z</time>
      </trkpt>
      <trkpt lat="44.75795" lon="5.04172">
        <ele>384</ele>
        <time>2020-02-07T13:45:25.000Z</time>
      </trkpt>
      <trkpt lat="44.75795" lon="5.0417">
        <ele>384</ele>
        <time>2020-02-07T13:45:26.000Z</time>
      </trkpt>
      <trkpt lat="44.75794" lon="5.04169">
        <ele>384</ele>
        <time>2020-02-07T13:45:27.000Z</time>
      </trkpt>
      <trkpt lat="44.75794" lon="5.04169">
        <ele>384</ele>
        <time>2020-02-07T13:45:28.000Z</time>
      </trkpt>
      <trkpt lat="44.75793" lon="5.04168">
        <ele>384</ele>
        <time>2020-02-07T13:45:29.000Z</time>
      </trkpt>
      <trkpt lat="44.75792" lon="5.04167">
        <ele>384</ele>
        <time>2020-02-07T13:45:30.000Z</time>
      </trkpt>
      <trkpt lat="44.75792" lon="5.04166">
        <ele>384</ele>
        <time>2020-02-07T13:45:31.000Z</time>
      </trkpt>
      <trkpt lat="44.75792" lon="5.04165">
        <ele>384</ele>
        <time>2020-02-07T13:45:32.000Z</time>
      </trkpt>
      <trkpt lat="44.75792" lon="5.04164">
        <ele>384</ele>
        <time>2020-02-07T13:45:33.000Z</time>
      </trkpt>
      <trkpt lat="44.75791" lon="5.04163">
        <ele>384</ele>
        <time>2020-02-07T13:45:34.000Z</time>
      </trkpt>
      <trkpt lat="44.75791" lon="5.04161">
        <ele>384</ele>
        <time>2020-02-07T13:45:35.000Z</time>
      </trkpt>
      <trkpt lat="44.75791" lon="5.04161">
        <ele>384</ele>
        <time>2020-02-07T13:45:36.000Z</time>
      </trkpt>
      <trkpt lat="44.75791" lon="5.0416">
        <ele>384</ele>
        <time>2020-02-07T13:45:37.000Z</time>
      </trkpt>
      <trkpt lat="44.75791" lon="5.04158">
        <ele>384</ele>
        <time>2020-02-07T13:45:38.000Z</time>
      </trkpt>
      <trkpt lat="44.75791" lon="5.04158">
        <ele>384</ele>
        <time>2020-02-07T13:45:39.000Z</time>
      </trkpt>
      <trkpt lat="44.75791" lon="5.04157">
        <ele>385</ele>
        <time>2020-02-07T13:45:40.000Z</time>
      </trkpt>
      <trkpt lat="44.7579" lon="5.04157">
        <ele>385</ele>
        <time>2020-02-07T13:45:41.000Z</time>
      </trkpt>
      <trkpt lat="44.75789" lon="5.04156">
        <ele>385</ele>
        <time>2020-02-07T13:45:42.000Z</time>
      </trkpt>
      <trkpt lat="44.75789" lon="5.04155">
        <ele>385</ele>
        <time>2020-02-07T13:45:43.000Z</time>
      </trkpt>
      <trkpt lat="44.75789" lon="5.04154">
        <ele>385</ele>
        <time>2020-02-07T13:45:44.000Z</time>
      </trkpt>
      <trkpt lat="44.75788" lon="5.04154">
        <ele>385</ele>
        <time>2020-02-07T13:45:45.000Z</time>
      </trkpt>
      <trkpt lat="44.75788" lon="5.04153">
        <ele>385</ele>
        <time>2020-02-07T13:45:46.000Z</time>
      </trkpt>
      <trkpt lat="44.75788" lon="5.04153">
        <ele>386</ele>
        <time>2020-02-07T13:45:47.000Z</time>
      </trkpt>
      <trkpt lat="44.75787" lon="5.04153">
        <ele>386</ele>
        <time>2020-02-07T13:45:48.000Z</time>
      </trkpt>
      <trkpt lat="44.75786" lon="5.04153">
        <ele>386</ele>
        <time>2020-02-07T13:45:49.000Z</time>
      </trkpt>
      <trkpt lat="44.75786" lon="5.04153">
        <ele>386</ele>
        <time>2020-02-07T13:45:50.000Z</time>
      </trkpt>
      <trkpt lat="44.75786" lon="5.04153">
        <ele>386</ele>
        <time>2020-02-07T13:45:51.000Z</time>
      </trkpt>
      <trkpt lat="44.75786" lon="5.04153">
        <ele>386</ele>
        <time>2020-02-07T13:45:52.000Z</time>
      </trkpt>
      <trkpt lat="44.75785" lon="5.04152">
        <ele>386</ele>
        <time>2020-02-07T13:45:53.000Z</time>
      </trkpt>
      <trkpt lat="44.75784" lon="5.04152">
        <ele>386</ele>
        <time>2020-02-07T13:45:54.000Z</time>
      </trkpt>
      <trkpt lat="44.75784" lon="5.04152">
        <ele>386</ele>
        <time>2020-02-07T13:45:55.000Z</time>
      </trkpt>
      <trkpt lat="44.75783" lon="5.04152">
        <ele>386</ele>
        <time>2020-02-07T13:45:56.000Z</time>
      </trkpt>
      <trkpt lat="44.75783" lon="5.04152">
        <ele>386</ele>
        <time>2020-02-07T13:45:57.000Z</time>
      </trkpt>
      <trkpt lat="44.75782" lon="5.04152">
        <ele>386</ele>
        <time>2020-02-07T13:45:58.000Z</time>
      </trkpt>
      <trkpt lat="44.75781" lon="5.04151">
        <ele>387</ele>
        <time>2020-02-07T13:45:59.000Z</time>
      </trkpt>
      <trkpt lat="44.75781" lon="5.04151">
        <ele>387</ele>
        <time>2020-02-07T13:46:00.000Z</time>
      </trkpt>
      <trkpt lat="44.7578" lon="5.04151">
        <ele>387</ele>
        <time>2020-02-07T13:46:01.000Z</time>
      </trkpt>
      <trkpt lat="44.75779" lon="5.04151">
        <ele>387</ele>
        <time>2020-02-07T13:46:02.000Z</time>
      </trkpt>
      <trkpt lat="44.75778" lon="5.0415">
        <ele>387</ele>
        <time>2020-02-07T13:46:03.000Z</time>
      </trkpt>
      <trkpt lat="44.75777" lon="5.0415">
        <ele>387</ele>
        <time>2020-02-07T13:46:04.000Z</time>
      </trkpt>
      <trkpt lat="44.75777" lon="5.0415">
        <ele>387</ele>
        <time>2020-02-07T13:46:05.000Z</time>
      </trkpt>
      <trkpt lat="44.75776" lon="5.0415">
        <ele>387</ele>
        <time>2020-02-07T13:46:06.000Z</time>
      </trkpt>
      <trkpt lat="44.75775" lon="5.0415">
        <ele>388</ele>
        <time>2020-02-07T13:46:07.000Z</time>
      </trkpt>
      <trkpt lat="44.75775" lon="5.0415">
        <ele>388</ele>
        <time>2020-02-07T13:46:08.000Z</time>
      </trkpt>
      <trkpt lat="44.75774" lon="5.0415">
        <ele>388</ele>
        <time>2020-02-07T13:46:09.000Z</time>
      </trkpt>
      <trkpt lat="44.75773" lon="5.0415">
        <ele>388</ele>
        <time>2020-02-07T13:46:10.000Z</time>
      </trkpt>
      <trkpt lat="44.75772" lon="5.04149">
        <ele>388</ele>
        <time>2020-02-07T13:46:11.000Z</time>
      </trkpt>
      <trkpt lat="44.75771" lon="5.04149">
        <ele>388</ele>
        <time>2020-02-07T13:46:12.000Z</time>
      </trkpt>
      <trkpt lat="44.7577" lon="5.04149">
        <ele>388</ele>
        <time>2020-02-07T13:46:13.000Z</time>
      </trkpt>
      <trkpt lat="44.7577" lon="5.04148">
        <ele>388</ele>
        <time>2020-02-07T13:46:14.000Z</time>
      </trkpt>
      <trkpt lat="44.75769" lon="5.04148">
        <ele>388</ele>
        <time>2020-02-07T13:46:15.000Z</time>
      </trkpt>
      <trkpt lat="44.75768" lon="5.04148">
        <ele>388</ele>
        <time>2020-02-07T13:46:16.000Z</time>
      </trkpt>
      <trkpt lat="44.75768" lon="5.04148">
        <ele>388</ele>
        <time>2020-02-07T13:46:17.000Z</time>
      </trkpt>
      <trkpt lat="44.75767" lon="5.04147">
        <ele>388</ele>
        <time>2020-02-07T13:46:18.000Z</time>
      </trkpt>
      <trkpt lat="44.75766" lon="5.04147">
        <ele>388</ele>
        <time>2020-02-07T13:46:19.000Z</time>
      </trkpt>
      <trkpt lat="44.75765" lon="5.04146">
        <ele>388</ele>
        <time>2020-02-07T13:46:20.000Z</time>
      </trkpt>
      <trkpt lat="44.75764" lon="5.04146">
        <ele>388</ele>
        <time>2020-02-07T13:46:21.000Z</time>
      </trkpt>
      <trkpt lat="44.75763" lon="5.04146">
        <ele>388</ele>
        <time>2020-02-07T13:46:22.000Z</time>
      </trkpt>
      <trkpt lat="44.75762" lon="5.04146">
        <ele>388</ele>
        <time>2020-02-07T13:46:23.000Z</time>
      </trkpt>
      <trkpt lat="44.75761" lon="5.04145">
        <ele>388</ele>
        <time>2020-02-07T13:46:24.000Z</time>
      </trkpt>
      <trkpt lat="44.75761" lon="5.04145">
        <ele>388</ele>
        <time>2020-02-07T13:46:25.000Z</time>
      </trkpt>
      <trkpt lat="44.7576" lon="5.04144">
        <ele>387</ele>
        <time>2020-02-07T13:46:26.000Z</time>
      </trkpt>
      <trkpt lat="44.75759" lon="5.04144">
        <ele>387</ele>
        <time>2020-02-07T13:46:27.000Z</time>
      </trkpt>
      <trkpt lat="44.75758" lon="5.04144">
        <ele>387</ele>
        <time>2020-02-07T13:46:28.000Z</time>
      </trkpt>
      <trkpt lat="44.75757" lon="5.04143">
        <ele>387</ele>
        <time>2020-02-07T13:46:29.000Z</time>
      </trkpt>
      <trkpt lat="44.75756" lon="5.04143">
        <ele>387</ele>
        <time>2020-02-07T13:46:30.000Z</time>
      </trkpt>
      <trkpt lat="44.75756" lon="5.04142">
        <ele>387</ele>
        <time>2020-02-07T13:46:31.000Z</time>
      </trkpt>
      <trkpt lat="44.75755" lon="5.04142">
        <ele>387</ele>
        <time>2020-02-07T13:46:32.000Z</time>
      </trkpt>
      <trkpt lat="44.75754" lon="5.04141">
        <ele>386</ele>
        <time>2020-02-07T13:46:33.000Z</time>
      </trkpt>
      <trkpt lat="44.75753" lon="5.04141">
        <ele>386</ele>
        <time>2020-02-07T13:46:34.000Z</time>
      </trkpt>
      <trkpt lat="44.75752" lon="5.0414">
        <ele>386</ele>
        <time>2020-02-07T13:46:35.000Z</time>
      </trkpt>
      <trkpt lat="44.75751" lon="5.0414">
        <ele>386</ele>
        <time>2020-02-07T13:46:36.000Z</time>
      </trkpt>
      <trkpt lat="44.7575" lon="5.0414">
        <ele>386</ele>
        <time>2020-02-07T13:46:37.000Z</time>
      </trkpt>
      <trkpt lat="44.75749" lon="5.0414">
        <ele>386</ele>
        <time>2020-02-07T13:46:38.000Z</time>
      </trkpt>
      <trkpt lat="44.75748" lon="5.04139">
        <ele>386</ele>
        <time>2020-02-07T13:46:39.000Z</time>
      </trkpt>
      <trkpt lat="44.75748" lon="5.04139">
        <ele>386</ele>
        <time>2020-02-07T13:46:40.000Z</time>
      </trkpt>
      <trkpt lat="44.75747" lon="5.04139">
        <ele>385</ele>
        <time>2020-02-07T13:46:41.000Z</time>
      </trkpt>
      <trkpt lat="44.75746" lon="5.04139">
        <ele>385</ele>
        <time>2020-02-07T13:46:42.000Z</time>
      </trkpt>
      <trkpt lat="44.75745" lon="5.04138">
        <ele>385</ele>
        <time>2020-02-07T13:46:43.000Z</time>
      </trkpt>
      <trkpt lat="44.75744" lon="5.04138">
        <ele>385</ele>
        <time>2020-02-07T13:46:44.000Z</time>
      </trkpt>
      <trkpt lat="44.75744" lon="5.04138">
        <ele>385</ele>
        <time>2020-02-07T13:46:45.000Z</time>
      </trkpt>
      <trkpt lat="44.75743" lon="5.04138">
        <ele>385</ele>
        <time>2020-02-07T13:46:46.000Z</time>
      </trkpt>
      <trkpt lat="44.75742" lon="5.04138">
        <ele>384</ele>
        <time>2020-02-07T13:46:47.000Z</time>
      </trkpt>
      <trkpt lat="44.75741" lon="5.04138">
        <ele>384</ele>
        <time>2020-02-07T13:46:48.000Z</time>
      </trkpt>
      <trkpt lat="44.7574" lon="5.04137">
        <ele>384</ele>
        <time>2020-02-07T13:46:49.000Z</time>
      </trkpt>
      <trkpt lat="44.75739" lon="5.04137">
        <ele>384</ele>
        <time>2020-02-07T13:46:50.000Z</time>
      </trkpt>
      <trkpt lat="44.75738" lon="5.04136">
        <ele>384</ele>
        <time>2020-02-07T13:46:51.000Z</time>
      </trkpt>
      <trkpt lat="44.75737" lon="5.04136">
        <ele>384</ele>
        <time>2020-02-07T13:46:52.000Z</time>
      </trkpt>
      <trkpt lat="44.75736" lon="5.04136">
        <ele>384</ele>
        <time>2020-02-07T13:46:53.000Z</time>
      </trkpt>
      <trkpt lat="44.75735" lon="5.04135">
        <ele>384</ele>
        <time>2020-02-07T13:46:54.000Z</time>
      </trkpt>
      <trkpt lat="44.75734" lon="5.04135">
        <ele>384</ele>
        <time>2020-02-07T13:46:55.000Z</time>
      </trkpt>
      <trkpt lat="44.75733" lon="5.04135">
        <ele>383</ele>
        <time>2020-02-07T13:46:56.000Z</time>
      </trkpt>
      <trkpt lat="44.75732" lon="5.04135">
        <ele>383</ele>
        <time>2020-02-07T13:46:57.000Z</time>
      </trkpt>
      <trkpt lat="44.75731" lon="5.04134">
        <ele>383</ele>
        <time>2020-02-07T13:46:58.000Z</time>
      </trkpt>
      <trkpt lat="44.7573" lon="5.04134">
        <ele>383</ele>
        <time>2020-02-07T13:46:59.000Z</time>
      </trkpt>
      <trkpt lat="44.75729" lon="5.04133">
        <ele>383</ele>
        <time>2020-02-07T13:47:00.000Z</time>
      </trkpt>
      <trkpt lat="44.75728" lon="5.04133">
        <ele>383</ele>
        <time>2020-02-07T13:47:01.000Z</time>
      </trkpt>
      <trkpt lat="44.75727" lon="5.04133">
        <ele>383</ele>
        <time>2020-02-07T13:47:02.000Z</time>
      </trkpt>
      <trkpt lat="44.75726" lon="5.04133">
        <ele>383</ele>
        <time>2020-02-07T13:47:03.000Z</time>
      </trkpt>
      <trkpt lat="44.75725" lon="5.04133">
        <ele>383</ele>
        <time>2020-02-07T13:47:04.000Z</time>
      </trkpt>
      <trkpt lat="44.75724" lon="5.04132">
        <ele>383</ele>
        <time>2020-02-07T13:47:05.000Z</time>
      </trkpt>
      <trkpt lat="44.75723" lon="5.04132">
        <ele>383</ele>
        <time>2020-02-07T13:47:06.000Z</time>
      </trkpt>
      <trkpt lat="44.75722" lon="5.04132">
        <ele>383</ele>
        <time>2020-02-07T13:47:07.000Z</time>
      </trkpt>
      <trkpt lat="44.75721" lon="5.04132">
        <ele>383</ele>
        <time>2020-02-07T13:47:08.000Z</time>
      </trkpt>
      <trkpt lat="44.7572" lon="5.04131">
        <ele>383</ele>
        <time>2020-02-07T13:47:09.000Z</time>
      </trkpt>
      <trkpt lat="44.75719" lon="5.04131">
        <ele>383</ele>
        <time>2020-02-07T13:47:10.000Z</time>
      </trkpt>
      <trkpt lat="44.75718" lon="5.04131">
        <ele>383</ele>
        <time>2020-02-07T13:47:11.000Z</time>
      </trkpt>
      <trkpt lat="44.75717" lon="5.04131">
        <ele>383</ele>
        <time>2020-02-07T13:47:12.000Z</time>
      </trkpt>
      <trkpt lat="44.75717" lon="5.04131">
        <ele>383</ele>
        <time>2020-02-07T13:47:13.000Z</time>
      </trkpt>
      <trkpt lat="44.75716" lon="5.0413">
        <ele>383</ele>
        <time>2020-02-07T13:47:14.000Z</time>
      </trkpt>
      <trkpt lat="44.75715" lon="5.0413">
        <ele>383</ele>
        <time>2020-02-07T13:47:15.000Z</time>
      </trkpt>
      <trkpt lat="44.75714" lon="5.0413">
        <ele>383</ele>
        <time>2020-02-07T13:47:16.000Z</time>
      </trkpt>
      <trkpt lat="44.75713" lon="5.04129">
        <ele>383</ele>
        <time>2020-02-07T13:47:17.000Z</time>
      </trkpt>
      <trkpt lat="44.75712" lon="5.04129">
        <ele>383</ele>
        <time>2020-02-07T13:47:18.000Z</time>
      </trkpt>
      <trkpt lat="44.75711" lon="5.04129">
        <ele>383</ele>
        <time>2020-02-07T13:47:19.000Z</time>
      </trkpt>
      <trkpt lat="44.7571" lon="5.04129">
        <ele>383</ele>
        <time>2020-02-07T13:47:20.000Z</time>
      </trkpt>
      <trkpt lat="44.75709" lon="5.04128">
        <ele>383</ele>
        <time>2020-02-07T13:47:21.000Z</time>
      </trkpt>
      <trkpt lat="44.75708" lon="5.04128">
        <ele>383</ele>
        <time>2020-02-07T13:47:22.000Z</time>
      </trkpt>
      <trkpt lat="44.75707" lon="5.04127">
        <ele>383</ele>
        <time>2020-02-07T13:47:23.000Z</time>
      </trkpt>
      <trkpt lat="44.75706" lon="5.04127">
        <ele>382</ele>
        <time>2020-02-07T13:47:24.000Z</time>
      </trkpt>
      <trkpt lat="44.75705" lon="5.04127">
        <ele>382</ele>
        <time>2020-02-07T13:47:25.000Z</time>
      </trkpt>
      <trkpt lat="44.75704" lon="5.04126">
        <ele>382</ele>
        <time>2020-02-07T13:47:26.000Z</time>
      </trkpt>
      <trkpt lat="44.75703" lon="5.04126">
        <ele>382</ele>
        <time>2020-02-07T13:47:27.000Z</time>
      </trkpt>
      <trkpt lat="44.75702" lon="5.04125">
        <ele>382</ele>
        <time>2020-02-07T13:47:28.000Z</time>
      </trkpt>
      <trkpt lat="44.75701" lon="5.04125">
        <ele>382</ele>
        <time>2020-02-07T13:47:29.000Z</time>
      </trkpt>
      <trkpt lat="44.757" lon="5.04124">
        <ele>382</ele>
        <time>2020-02-07T13:47:30.000Z</time>
      </trkpt>
      <trkpt lat="44.75699" lon="5.04124">
        <ele>382</ele>
        <time>2020-02-07T13:47:31.000Z</time>
      </trkpt>
      <trkpt lat="44.75698" lon="5.04123">
        <ele>382</ele>
        <time>2020-02-07T13:47:32.000Z</time>
      </trkpt>
      <trkpt lat="44.75696" lon="5.04123">
        <ele>382</ele>
        <time>2020-02-07T13:47:33.000Z</time>
      </trkpt>
      <trkpt lat="44.75695" lon="5.04123">
        <ele>382</ele>
        <time>2020-02-07T13:47:34.000Z</time>
      </trkpt>
      <trkpt lat="44.75694" lon="5.04123">
        <ele>382</ele>
        <time>2020-02-07T13:47:35.000Z</time>
      </trkpt>
      <trkpt lat="44.75693" lon="5.04122">
        <ele>382</ele>
        <time>2020-02-07T13:47:36.000Z</time>
      </trkpt>
      <trkpt lat="44.75692" lon="5.04122">
        <ele>381</ele>
        <time>2020-02-07T13:47:37.000Z</time>
      </trkpt>
      <trkpt lat="44.75691" lon="5.04121">
        <ele>381</ele>
        <time>2020-02-07T13:47:38.000Z</time>
      </trkpt>
      <trkpt lat="44.7569" lon="5.04121">
        <ele>381</ele>
        <time>2020-02-07T13:47:39.000Z</time>
      </trkpt>
      <trkpt lat="44.75689" lon="5.0412">
        <ele>381</ele>
        <time>2020-02-07T13:47:40.000Z</time>
      </trkpt>
      <trkpt lat="44.75687" lon="5.0412">
        <ele>381</ele>
        <time>2020-02-07T13:47:41.000Z</time>
      </trkpt>
      <trkpt lat="44.75686" lon="5.04119">
        <ele>381</ele>
        <time>2020-02-07T13:47:42.000Z</time>
      </trkpt>
      <trkpt lat="44.75685" lon="5.04119">
        <ele>381</ele>
        <time>2020-02-07T13:47:43.000Z</time>
      </trkpt>
      <trkpt lat="44.75684" lon="5.04118">
        <ele>380</ele>
        <time>2020-02-07T13:47:44.000Z</time>
      </trkpt>
      <trkpt lat="44.75683" lon="5.04118">
        <ele>380</ele>
        <time>2020-02-07T13:47:45.000Z</time>
      </trkpt>
      <trkpt lat="44.75682" lon="5.04117">
        <ele>380</ele>
        <time>2020-02-07T13:47:46.000Z</time>
      </trkpt>
      <trkpt lat="44.75681" lon="5.04117">
        <ele>380</ele>
        <time>2020-02-07T13:47:47.000Z</time>
      </trkpt>
      <trkpt lat="44.75679" lon="5.04117">
        <ele>380</ele>
        <time>2020-02-07T13:47:48.000Z</time>
      </trkpt>
      <trkpt lat="44.75678" lon="5.04116">
        <ele>379</ele>
        <time>2020-02-07T13:47:49.000Z</time>
      </trkpt>
      <trkpt lat="44.75677" lon="5.04115">
        <ele>379</ele>
        <time>2020-02-07T13:47:50.000Z</time>
      </trkpt>
      <trkpt lat="44.75676" lon="5.04115">
        <ele>379</ele>
        <time>2020-02-07T13:47:51.000Z</time>
      </trkpt>
      <trkpt lat="44.75675" lon="5.04114">
        <ele>379</ele>
        <time>2020-02-07T13:47:52.000Z</time>
      </trkpt>
      <trkpt lat="44.75674" lon="5.04114">
        <ele>379</ele>
        <time>2020-02-07T13:47:53.000Z</time>
      </trkpt>
      <trkpt lat="44.75672" lon="5.04113">
        <ele>379</ele>
        <time>2020-02-07T13:47:54.000Z</time>
      </trkpt>
      <trkpt lat="44.75671" lon="5.04113">
        <ele>379</ele>
        <time>2020-02-07T13:47:55.000Z</time>
      </trkpt>
      <trkpt lat="44.7567" lon="5.04112">
        <ele>379</ele>
        <time>2020-02-07T13:47:56.000Z</time>
      </trkpt>
      <trkpt lat="44.75669" lon="5.04111">
        <ele>378</ele>
        <time>2020-02-07T13:47:57.000Z</time>
      </trkpt>
      <trkpt lat="44.75668" lon="5.04111">
        <ele>378</ele>
        <time>2020-02-07T13:47:58.000Z</time>
      </trkpt>
      <trkpt lat="44.75667" lon="5.0411">
        <ele>378</ele>
        <time>2020-02-07T13:47:59.000Z</time>
      </trkpt>
      <trkpt lat="44.75666" lon="5.0411">
        <ele>378</ele>
        <time>2020-02-07T13:48:00.000Z</time>
      </trkpt>
      <trkpt lat="44.75665" lon="5.04109">
        <ele>378</ele>
        <time>2020-02-07T13:48:01.000Z</time>
      </trkpt>
      <trkpt lat="44.75664" lon="5.04109">
        <ele>378</ele>
        <time>2020-02-07T13:48:02.000Z</time>
      </trkpt>
      <trkpt lat="44.75663" lon="5.04108">
        <ele>378</ele>
        <time>2020-02-07T13:48:03.000Z</time>
      </trkpt>
      <trkpt lat="44.75662" lon="5.04108">
        <ele>378</ele>
        <time>2020-02-07T13:48:04.000Z</time>
      </trkpt>
      <trkpt lat="44.75661" lon="5.04107">
        <ele>378</ele>
        <time>2020-02-07T13:48:05.000Z</time>
      </trkpt>
      <trkpt lat="44.7566" lon="5.04106">
        <ele>378</ele>
        <time>2020-02-07T13:48:06.000Z</time>
      </trkpt>
      <trkpt lat="44.75659" lon="5.04106">
        <ele>378</ele>
        <time>2020-02-07T13:48:07.000Z</time>
      </trkpt>
      <trkpt lat="44.75657" lon="5.04105">
        <ele>378</ele>
        <time>2020-02-07T13:48:08.000Z</time>
      </trkpt>
      <trkpt lat="44.75656" lon="5.04105">
        <ele>378</ele>
        <time>2020-02-07T13:48:09.000Z</time>
      </trkpt>
      <trkpt lat="44.75655" lon="5.04105">
        <ele>378</ele>
        <time>2020-02-07T13:48:10.000Z</time>
      </trkpt>
      <trkpt lat="44.75654" lon="5.04104">
        <ele>378</ele>
        <time>2020-02-07T13:48:11.000Z</time>
      </trkpt>
      <trkpt lat="44.75652" lon="5.04103">
        <ele>378</ele>
        <time>2020-02-07T13:48:12.000Z</time>
      </trkpt>
      <trkpt lat="44.75651" lon="5.04103">
        <ele>378</ele>
        <time>2020-02-07T13:48:13.000Z</time>
      </trkpt>
      <trkpt lat="44.7565" lon="5.04102">
        <ele>379</ele>
        <time>2020-02-07T13:48:14.000Z</time>
      </trkpt>
      <trkpt lat="44.75649" lon="5.04102">
        <ele>379</ele>
        <time>2020-02-07T13:48:15.000Z</time>
      </trkpt>
      <trkpt lat="44.75648" lon="5.04101">
        <ele>379</ele>
        <time>2020-02-07T13:48:16.000Z</time>
      </trkpt>
      <trkpt lat="44.75647" lon="5.04101">
        <ele>379</ele>
        <time>2020-02-07T13:48:17.000Z</time>
      </trkpt>
      <trkpt lat="44.75646" lon="5.041">
        <ele>379</ele>
        <time>2020-02-07T13:48:18.000Z</time>
      </trkpt>
      <trkpt lat="44.75645" lon="5.04099">
        <ele>379</ele>
        <time>2020-02-07T13:48:19.000Z</time>
      </trkpt>
      <trkpt lat="44.75644" lon="5.04099">
        <ele>379</ele>
        <time>2020-02-07T13:48:20.000Z</time>
      </trkpt>
      <trkpt lat="44.75643" lon="5.04099">
        <ele>379</ele>
        <time>2020-02-07T13:48:21.000Z</time>
      </trkpt>
      <trkpt lat="44.75642" lon="5.04099">
        <ele>379</ele>
        <time>2020-02-07T13:48:22.000Z</time>
      </trkpt>
      <trkpt lat="44.75641" lon="5.04098">
        <ele>379</ele>
        <time>2020-02-07T13:48:23.000Z</time>
      </trkpt>
      <trkpt lat="44.75639" lon="5.04098">
        <ele>379</ele>
        <time>2020-02-07T13:48:24.000Z</time>
      </trkpt>
      <trkpt lat="44.75638" lon="5.04097">
        <ele>379</ele>
        <time>2020-02-07T13:48:25.000Z</time>
      </trkpt>
      <trkpt lat="44.75637" lon="5.04097">
        <ele>379</ele>
        <time>2020-02-07T13:48:26.000Z</time>
      </trkpt>
      <trkpt lat="44.75636" lon="5.04097">
        <ele>379</ele>
        <time>2020-02-07T13:48:27.000Z</time>
      </trkpt>
      <trkpt lat="44.75635" lon="5.04096">
        <ele>380</ele>
        <time>2020-02-07T13:48:28.000Z</time>
      </trkpt>
      <trkpt lat="44.75634" lon="5.04096">
        <ele>380</ele>
        <time>2020-02-07T13:48:29.000Z</time>
      </trkpt>
      <trkpt lat="44.75633" lon="5.04096">
        <ele>380</ele>
        <time>2020-02-07T13:48:30.000Z</time>
      </trkpt>
      <trkpt lat="44.75632" lon="5.04096">
        <ele>380</ele>
        <time>2020-02-07T13:48:31.000Z</time>
      </trkpt>
      <trkpt lat="44.75631" lon="5.04095">
        <ele>380</ele>
        <time>2020-02-07T13:48:32.000Z</time>
      </trkpt>
      <trkpt lat="44.7563" lon="5.04096">
        <ele>380</ele>
        <time>2020-02-07T13:48:33.000Z</time>
      </trkpt>
      <trkpt lat="44.75629" lon="5.04096">
        <ele>380</ele>
        <time>2020-02-07T13:48:34.000Z</time>
      </trkpt>
      <trkpt lat="44.75627" lon="5.04095">
        <ele>380</ele>
        <time>2020-02-07T13:48:35.000Z</time>
      </trkpt>
      <trkpt lat="44.75626" lon="5.04095">
        <ele>380</ele>
        <time>2020-02-07T13:48:36.000Z</time>
      </trkpt>
      <trkpt lat="44.75625" lon="5.04094">
        <ele>380</ele>
        <time>2020-02-07T13:48:37.000Z</time>
      </trkpt>
      <trkpt lat="44.75624" lon="5.04094">
        <ele>380</ele>
        <time>2020-02-07T13:48:38.000Z</time>
      </trkpt>
      <trkpt lat="44.75623" lon="5.04094">
        <ele>380</ele>
        <time>2020-02-07T13:48:39.000Z</time>
      </trkpt>
      <trkpt lat="44.75621" lon="5.04094">
        <ele>380</ele>
        <time>2020-02-07T13:48:40.000Z</time>
      </trkpt>
      <trkpt lat="44.7562" lon="5.04093">
        <ele>380</ele>
        <time>2020-02-07T13:48:41.000Z</time>
      </trkpt>
      <trkpt lat="44.75619" lon="5.04093">
        <ele>380</ele>
        <time>2020-02-07T13:48:42.000Z</time>
      </trkpt>
      <trkpt lat="44.75618" lon="5.04093">
        <ele>380</ele>
        <time>2020-02-07T13:48:43.000Z</time>
      </trkpt>
      <trkpt lat="44.75617" lon="5.04092">
        <ele>380</ele>
        <time>2020-02-07T13:48:44.000Z</time>
      </trkpt>
      <trkpt lat="44.75616" lon="5.04092">
        <ele>380</ele>
        <time>2020-02-07T13:48:45.000Z</time>
      </trkpt>
      <trkpt lat="44.75614" lon="5.04091">
        <ele>380</ele>
        <time>2020-02-07T13:48:46.000Z</time>
      </trkpt>
      <trkpt lat="44.75613" lon="5.04091">
        <ele>380</ele>
        <time>2020-02-07T13:48:47.000Z</time>
      </trkpt>
      <trkpt lat="44.75612" lon="5.04091">
        <ele>380</ele>
        <time>2020-02-07T13:48:48.000Z</time>
      </trkpt>
      <trkpt lat="44.75611" lon="5.04091">
        <ele>380</ele>
        <time>2020-02-07T13:48:49.000Z</time>
      </trkpt>
      <trkpt lat="44.75609" lon="5.0409">
        <ele>380</ele>
        <time>2020-02-07T13:48:50.000Z</time>
      </trkpt>
      <trkpt lat="44.75608" lon="5.0409">
        <ele>380</ele>
        <time>2020-02-07T13:48:51.000Z</time>
      </trkpt>
      <trkpt lat="44.75607" lon="5.04089">
        <ele>380</ele>
        <time>2020-02-07T13:48:52.000Z</time>
      </trkpt>
      <trkpt lat="44.75605" lon="5.04089">
        <ele>380</ele>
        <time>2020-02-07T13:48:53.000Z</time>
      </trkpt>
      <trkpt lat="44.75604" lon="5.04088">
        <ele>380</ele>
        <time>2020-02-07T13:48:54.000Z</time>
      </trkpt>
      <trkpt lat="44.75603" lon="5.04088">
        <ele>380</ele>
        <time>2020-02-07T13:48:55.000Z</time>
      </trkpt>
      <trkpt lat="44.75602" lon="5.04087">
        <ele>380</ele>
        <time>2020-02-07T13:48:56.000Z</time>
      </trkpt>
      <trkpt lat="44.75601" lon="5.04087">
        <ele>380</ele>
        <time>2020-02-07T13:48:57.000Z</time>
      </trkpt>
      <trkpt lat="44.75599" lon="5.04086">
        <ele>380</ele>
        <time>2020-02-07T13:48:58.000Z</time>
      </trkpt>
      <trkpt lat="44.75598" lon="5.04086">
        <ele>379</ele>
        <time>2020-02-07T13:48:59.000Z</time>
      </trkpt>
      <trkpt lat="44.75597" lon="5.04085">
        <ele>379</ele>
        <time>2020-02-07T13:49:00.000Z</time>
      </trkpt>
      <trkpt lat="44.75596" lon="5.04085">
        <ele>379</ele>
        <time>2020-02-07T13:49:01.000Z</time>
      </trkpt>
      <trkpt lat="44.75594" lon="5.04084">
        <ele>379</ele>
        <time>2020-02-07T13:49:02.000Z</time>
      </trkpt>
      <trkpt lat="44.75593" lon="5.04084">
        <ele>379</ele>
        <time>2020-02-07T13:49:03.000Z</time>
      </trkpt>
      <trkpt lat="44.75592" lon="5.04083">
        <ele>379</ele>
        <time>2020-02-07T13:49:04.000Z</time>
      </trkpt>
      <trkpt lat="44.75591" lon="5.04082">
        <ele>379</ele>
        <time>2020-02-07T13:49:05.000Z</time>
      </trkpt>
      <trkpt lat="44.7559" lon="5.04082">
        <ele>378</ele>
        <time>2020-02-07T13:49:06.000Z</time>
      </trkpt>
      <trkpt lat="44.75589" lon="5.04081">
        <ele>378</ele>
        <time>2020-02-07T13:49:07.000Z</time>
      </trkpt>
      <trkpt lat="44.75588" lon="5.0408">
        <ele>378</ele>
        <time>2020-02-07T13:49:08.000Z</time>
      </trkpt>
      <trkpt lat="44.75587" lon="5.04079">
        <ele>378</ele>
        <time>2020-02-07T13:49:09.000Z</time>
      </trkpt>
      <trkpt lat="44.75586" lon="5.04079">
        <ele>378</ele>
        <time>2020-02-07T13:49:10.000Z</time>
      </trkpt>
      <trkpt lat="44.75585" lon="5.04078">
        <ele>378</ele>
        <time>2020-02-07T13:49:11.000Z</time>
      </trkpt>
      <trkpt lat="44.75584" lon="5.04077">
        <ele>378</ele>
        <time>2020-02-07T13:49:12.000Z</time>
      </trkpt>
      <trkpt lat="44.75583" lon="5.04077">
        <ele>378</ele>
        <time>2020-02-07T13:49:13.000Z</time>
      </trkpt>
      <trkpt lat="44.75582" lon="5.04076">
        <ele>378</ele>
        <time>2020-02-07T13:49:14.000Z</time>
      </trkpt>
      <trkpt lat="44.75581" lon="5.04076">
        <ele>378</ele>
        <time>2020-02-07T13:49:15.000Z</time>
      </trkpt>
      <trkpt lat="44.7558" lon="5.04076">
        <ele>378</ele>
        <time>2020-02-07T13:49:16.000Z</time>
      </trkpt>
      <trkpt lat="44.75578" lon="5.04075">
        <ele>378</ele>
        <time>2020-02-07T13:49:17.000Z</time>
      </trkpt>
      <trkpt lat="44.75577" lon="5.04075">
        <ele>378</ele>
        <time>2020-02-07T13:49:18.000Z</time>
      </trkpt>
      <trkpt lat="44.75576" lon="5.04075">
        <ele>377</ele>
        <time>2020-02-07T13:49:19.000Z</time>
      </trkpt>
      <trkpt lat="44.75575" lon="5.04074">
        <ele>377</ele>
        <time>2020-02-07T13:49:20.000Z</time>
      </trkpt>
      <trkpt lat="44.75574" lon="5.04074">
        <ele>377</ele>
        <time>2020-02-07T13:49:21.000Z</time>
      </trkpt>
      <trkpt lat="44.75573" lon="5.04073">
        <ele>377</ele>
        <time>2020-02-07T13:49:22.000Z</time>
      </trkpt>
      <trkpt lat="44.75572" lon="5.04072">
        <ele>377</ele>
        <time>2020-02-07T13:49:23.000Z</time>
      </trkpt>
      <trkpt lat="44.75571" lon="5.04072">
        <ele>377</ele>
        <time>2020-02-07T13:49:24.000Z</time>
      </trkpt>
      <trkpt lat="44.7557" lon="5.04071">
        <ele>377</ele>
        <time>2020-02-07T13:49:25.000Z</time>
      </trkpt>
      <trkpt lat="44.75569" lon="5.04071">
        <ele>377</ele>
        <time>2020-02-07T13:49:26.000Z</time>
      </trkpt>
      <trkpt lat="44.75567" lon="5.0407">
        <ele>377</ele>
        <time>2020-02-07T13:49:27.000Z</time>
      </trkpt>
      <trkpt lat="44.75566" lon="5.04069">
        <ele>377</ele>
        <time>2020-02-07T13:49:28.000Z</time>
      </trkpt>
      <trkpt lat="44.75565" lon="5.04069">
        <ele>377</ele>
        <time>2020-02-07T13:49:29.000Z</time>
      </trkpt>
      <trkpt lat="44.75564" lon="5.04069">
        <ele>377</ele>
        <time>2020-02-07T13:49:30.000Z</time>
      </trkpt>
      <trkpt lat="44.75563" lon="5.04069">
        <ele>377</ele>
        <time>2020-02-07T13:49:31.000Z</time>
      </trkpt>
      <trkpt lat="44.75562" lon="5.04068">
        <ele>377</ele>
        <time>2020-02-07T13:49:32.000Z</time>
      </trkpt>
      <trkpt lat="44.75561" lon="5.04068">
        <ele>377</ele>
        <time>2020-02-07T13:49:33.000Z</time>
      </trkpt>
      <trkpt lat="44.7556" lon="5.04067">
        <ele>377</ele>
        <time>2020-02-07T13:49:34.000Z</time>
      </trkpt>
      <trkpt lat="44.75558" lon="5.04067">
        <ele>377</ele>
        <time>2020-02-07T13:49:35.000Z</time>
      </trkpt>
      <trkpt lat="44.75557" lon="5.04066">
        <ele>377</ele>
        <time>2020-02-07T13:49:36.000Z</time>
      </trkpt>
      <trkpt lat="44.75556" lon="5.04066">
        <ele>377</ele>
        <time>2020-02-07T13:49:37.000Z</time>
      </trkpt>
      <trkpt lat="44.75555" lon="5.04066">
        <ele>377</ele>
        <time>2020-02-07T13:49:38.000Z</time>
      </trkpt>
      <trkpt lat="44.75554" lon="5.04065">
        <ele>377</ele>
        <time>2020-02-07T13:49:39.000Z</time>
      </trkpt>
      <trkpt lat="44.75552" lon="5.04065">
        <ele>377</ele>
        <time>2020-02-07T13:49:40.000Z</time>
      </trkpt>
      <trkpt lat="44.75551" lon="5.04065">
        <ele>377</ele>
        <time>2020-02-07T13:49:41.000Z</time>
      </trkpt>
      <trkpt lat="44.7555" lon="5.04064">
        <ele>377</ele>
        <time>2020-02-07T13:49:42.000Z</time>
      </trkpt>
      <trkpt lat="44.75548" lon="5.04064">
        <ele>377</ele>
        <time>2020-02-07T13:49:43.000Z</time>
      </trkpt>
      <trkpt lat="44.75547" lon="5.04063">
        <ele>377</ele>
        <time>2020-02-07T13:49:44.000Z</time>
      </trkpt>
      <trkpt lat="44.75546" lon="5.04062">
        <ele>377</ele>
        <time>2020-02-07T13:49:45.000Z</time>
      </trkpt>
      <trkpt lat="44.75545" lon="5.04061">
        <ele>377</ele>
        <time>2020-02-07T13:49:46.000Z</time>
      </trkpt>
      <trkpt lat="44.75543" lon="5.04061">
        <ele>376</ele>
        <time>2020-02-07T13:49:47.000Z</time>
      </trkpt>
      <trkpt lat="44.75542" lon="5.0406">
        <ele>376</ele>
        <time>2020-02-07T13:49:48.000Z</time>
      </trkpt>
      <trkpt lat="44.75541" lon="5.0406">
        <ele>376</ele>
        <time>2020-02-07T13:49:49.000Z</time>
      </trkpt>
      <trkpt lat="44.7554" lon="5.04059">
        <ele>376</ele>
        <time>2020-02-07T13:49:50.000Z</time>
      </trkpt>
      <trkpt lat="44.75539" lon="5.04059">
        <ele>376</ele>
        <time>2020-02-07T13:49:51.000Z</time>
      </trkpt>
      <trkpt lat="44.75538" lon="5.04059">
        <ele>376</ele>
        <time>2020-02-07T13:49:52.000Z</time>
      </trkpt>
      <trkpt lat="44.75537" lon="5.04058">
        <ele>376</ele>
        <time>2020-02-07T13:49:53.000Z</time>
      </trkpt>
      <trkpt lat="44.75536" lon="5.04058">
        <ele>376</ele>
        <time>2020-02-07T13:49:54.000Z</time>
      </trkpt>
      <trkpt lat="44.75535" lon="5.04057">
        <ele>375</ele>
        <time>2020-02-07T13:49:55.000Z</time>
      </trkpt>
      <trkpt lat="44.75534" lon="5.04056">
        <ele>375</ele>
        <time>2020-02-07T13:49:56.000Z</time>
      </trkpt>
      <trkpt lat="44.75533" lon="5.04056">
        <ele>375</ele>
        <time>2020-02-07T13:49:57.000Z</time>
      </trkpt>
      <trkpt lat="44.75531" lon="5.04055">
        <ele>375</ele>
        <time>2020-02-07T13:49:58.000Z</time>
      </trkpt>
      <trkpt lat="44.7553" lon="5.04054">
        <ele>375</ele>
        <time>2020-02-07T13:49:59.000Z</time>
      </trkpt>
      <trkpt lat="44.75529" lon="5.04054">
        <ele>375</ele>
        <time>2020-02-07T13:50:00.000Z</time>
      </trkpt>
      <trkpt lat="44.75528" lon="5.04053">
        <ele>375</ele>
        <time>2020-02-07T13:50:01.000Z</time>
      </trkpt>
      <trkpt lat="44.75527" lon="5.04052">
        <ele>375</ele>
        <time>2020-02-07T13:50:02.000Z</time>
      </trkpt>
      <trkpt lat="44.75526" lon="5.04052">
        <ele>375</ele>
        <time>2020-02-07T13:50:03.000Z</time>
      </trkpt>
      <trkpt lat="44.75525" lon="5.04051">
        <ele>374</ele>
        <time>2020-02-07T13:50:04.000Z</time>
      </trkpt>
      <trkpt lat="44.75524" lon="5.04051">
        <ele>374</ele>
        <time>2020-02-07T13:50:05.000Z</time>
      </trkpt>
      <trkpt lat="44.75523" lon="5.0405">
        <ele>374</ele>
        <time>2020-02-07T13:50:06.000Z</time>
      </trkpt>
      <trkpt lat="44.75522" lon="5.0405">
        <ele>374</ele>
        <time>2020-02-07T13:50:07.000Z</time>
      </trkpt>
      <trkpt lat="44.75521" lon="5.0405">
        <ele>374</ele>
        <time>2020-02-07T13:50:08.000Z</time>
      </trkpt>
      <trkpt lat="44.7552" lon="5.04049">
        <ele>374</ele>
        <time>2020-02-07T13:50:09.000Z</time>
      </trkpt>
      <trkpt lat="44.75519" lon="5.04049">
        <ele>374</ele>
        <time>2020-02-07T13:50:10.000Z</time>
      </trkpt>
      <trkpt lat="44.75518" lon="5.04048">
        <ele>373</ele>
        <time>2020-02-07T13:50:11.000Z</time>
      </trkpt>
      <trkpt lat="44.75517" lon="5.04048">
        <ele>373</ele>
        <time>2020-02-07T13:50:12.000Z</time>
      </trkpt>
      <trkpt lat="44.75516" lon="5.04047">
        <ele>373</ele>
        <time>2020-02-07T13:50:13.000Z</time>
      </trkpt>
      <trkpt lat="44.75514" lon="5.04047">
        <ele>373</ele>
        <time>2020-02-07T13:50:14.000Z</time>
      </trkpt>
      <trkpt lat="44.75513" lon="5.04046">
        <ele>373</ele>
        <time>2020-02-07T13:50:15.000Z</time>
      </trkpt>
      <trkpt lat="44.75512" lon="5.04046">
        <ele>373</ele>
        <time>2020-02-07T13:50:16.000Z</time>
      </trkpt>
      <trkpt lat="44.75511" lon="5.04045">
        <ele>373</ele>
        <time>2020-02-07T13:50:17.000Z</time>
      </trkpt>
      <trkpt lat="44.7551" lon="5.04045">
        <ele>373</ele>
        <time>2020-02-07T13:50:18.000Z</time>
      </trkpt>
      <trkpt lat="44.75509" lon="5.04045">
        <ele>373</ele>
        <time>2020-02-07T13:50:19.000Z</time>
      </trkpt>
      <trkpt lat="44.75508" lon="5.04044">
        <ele>373</ele>
        <time>2020-02-07T13:50:20.000Z</time>
      </trkpt>
      <trkpt lat="44.75507" lon="5.04044">
        <ele>373</ele>
        <time>2020-02-07T13:50:21.000Z</time>
      </trkpt>
      <trkpt lat="44.75506" lon="5.04043">
        <ele>373</ele>
        <time>2020-02-07T13:50:22.000Z</time>
      </trkpt>
      <trkpt lat="44.75505" lon="5.04042">
        <ele>373</ele>
        <time>2020-02-07T13:50:23.000Z</time>
      </trkpt>
      <trkpt lat="44.75503" lon="5.04041">
        <ele>373</ele>
        <time>2020-02-07T13:50:24.000Z</time>
      </trkpt>
      <trkpt lat="44.75502" lon="5.04041">
        <ele>373</ele>
        <time>2020-02-07T13:50:25.000Z</time>
      </trkpt>
      <trkpt lat="44.75501" lon="5.0404">
        <ele>373</ele>
        <time>2020-02-07T13:50:26.000Z</time>
      </trkpt>
      <trkpt lat="44.755" lon="5.04039">
        <ele>373</ele>
        <time>2020-02-07T13:50:27.000Z</time>
      </trkpt>
      <trkpt lat="44.75499" lon="5.04039">
        <ele>373</ele>
        <time>2020-02-07T13:50:28.000Z</time>
      </trkpt>
      <trkpt lat="44.75498" lon="5.04038">
        <ele>372</ele>
        <time>2020-02-07T13:50:29.000Z</time>
      </trkpt>
      <trkpt lat="44.75497" lon="5.04038">
        <ele>372</ele>
        <time>2020-02-07T13:50:30.000Z</time>
      </trkpt>
      <trkpt lat="44.75496" lon="5.04038">
        <ele>372</ele>
        <time>2020-02-07T13:50:31.000Z</time>
      </trkpt>
      <trkpt lat="44.75495" lon="5.04037">
        <ele>372</ele>
        <time>2020-02-07T13:50:32.000Z</time>
      </trkpt>
      <trkpt lat="44.75494" lon="5.04037">
        <ele>372</ele>
        <time>2020-02-07T13:50:33.000Z</time>
      </trkpt>
      <trkpt lat="44.75494" lon="5.04036">
        <ele>372</ele>
        <time>2020-02-07T13:50:34.000Z</time>
      </trkpt>
      <trkpt lat="44.75493" lon="5.04036">
        <ele>372</ele>
        <time>2020-02-07T13:50:35.000Z</time>
      </trkpt>
      <trkpt lat="44.75492" lon="5.04035">
        <ele>372</ele>
        <time>2020-02-07T13:50:36.000Z</time>
      </trkpt>
      <trkpt lat="44.75491" lon="5.04035">
        <ele>372</ele>
        <time>2020-02-07T13:50:37.000Z</time>
      </trkpt>
      <trkpt lat="44.7549" lon="5.04034">
        <ele>372</ele>
        <time>2020-02-07T13:50:38.000Z</time>
      </trkpt>
      <trkpt lat="44.75489" lon="5.04034">
        <ele>372</ele>
        <time>2020-02-07T13:50:39.000Z</time>
      </trkpt>
      <trkpt lat="44.75488" lon="5.04033">
        <ele>372</ele>
        <time>2020-02-07T13:50:40.000Z</time>
      </trkpt>
      <trkpt lat="44.75487" lon="5.04033">
        <ele>372</ele>
        <time>2020-02-07T13:50:41.000Z</time>
      </trkpt>
      <trkpt lat="44.75486" lon="5.04032">
        <ele>372</ele>
        <time>2020-02-07T13:50:42.000Z</time>
      </trkpt>
      <trkpt lat="44.75485" lon="5.04031">
        <ele>372</ele>
        <time>2020-02-07T13:50:43.000Z</time>
      </trkpt>
      <trkpt lat="44.75484" lon="5.04031">
        <ele>372</ele>
        <time>2020-02-07T13:50:44.000Z</time>
      </trkpt>
      <trkpt lat="44.75482" lon="5.0403">
        <ele>372</ele>
        <time>2020-02-07T13:50:45.000Z</time>
      </trkpt>
      <trkpt lat="44.75482" lon="5.0403">
        <ele>372</ele>
        <time>2020-02-07T13:50:46.000Z</time>
      </trkpt>
      <trkpt lat="44.7548" lon="5.04029">
        <ele>372</ele>
        <time>2020-02-07T13:50:47.000Z</time>
      </trkpt>
      <trkpt lat="44.75479" lon="5.04028">
        <ele>372</ele>
        <time>2020-02-07T13:50:48.000Z</time>
      </trkpt>
      <trkpt lat="44.75478" lon="5.04028">
        <ele>372</ele>
        <time>2020-02-07T13:50:49.000Z</time>
      </trkpt>
      <trkpt lat="44.75478" lon="5.04027">
        <ele>372</ele>
        <time>2020-02-07T13:50:50.000Z</time>
      </trkpt>
      <trkpt lat="44.75477" lon="5.04027">
        <ele>372</ele>
        <time>2020-02-07T13:50:51.000Z</time>
      </trkpt>
      <trkpt lat="44.75475" lon="5.04027">
        <ele>373</ele>
        <time>2020-02-07T13:50:52.000Z</time>
      </trkpt>
      <trkpt lat="44.75474" lon="5.04026">
        <ele>373</ele>
        <time>2020-02-07T13:50:53.000Z</time>
      </trkpt>
      <trkpt lat="44.75473" lon="5.04026">
        <ele>373</ele>
        <time>2020-02-07T13:50:54.000Z</time>
      </trkpt>
      <trkpt lat="44.75472" lon="5.04025">
        <ele>373</ele>
        <time>2020-02-07T13:50:55.000Z</time>
      </trkpt>
      <trkpt lat="44.75471" lon="5.04025">
        <ele>373</ele>
        <time>2020-02-07T13:50:56.000Z</time>
      </trkpt>
      <trkpt lat="44.7547" lon="5.04025">
        <ele>373</ele>
        <time>2020-02-07T13:50:57.000Z</time>
      </trkpt>
      <trkpt lat="44.75469" lon="5.04024">
        <ele>373</ele>
        <time>2020-02-07T13:50:58.000Z</time>
      </trkpt>
      <trkpt lat="44.75468" lon="5.04024">
        <ele>373</ele>
        <time>2020-02-07T13:50:59.000Z</time>
      </trkpt>
      <trkpt lat="44.75467" lon="5.04024">
        <ele>373</ele>
        <time>2020-02-07T13:51:00.000Z</time>
      </trkpt>
      <trkpt lat="44.75466" lon="5.04023">
        <ele>373</ele>
        <time>2020-02-07T13:51:01.000Z</time>
      </trkpt>
      <trkpt lat="44.75465" lon="5.04023">
        <ele>373</ele>
        <time>2020-02-07T13:51:02.000Z</time>
      </trkpt>
      <trkpt lat="44.75464" lon="5.04023">
        <ele>373</ele>
        <time>2020-02-07T13:51:03.000Z</time>
      </trkpt>
      <trkpt lat="44.75463" lon="5.04023">
        <ele>373</ele>
        <time>2020-02-07T13:51:04.000Z</time>
      </trkpt>
      <trkpt lat="44.75462" lon="5.04023">
        <ele>373</ele>
        <time>2020-02-07T13:51:05.000Z</time>
      </trkpt>
      <trkpt lat="44.7546" lon="5.04023">
        <ele>373</ele>
        <time>2020-02-07T13:51:06.000Z</time>
      </trkpt>
      <trkpt lat="44.75459" lon="5.04023">
        <ele>373</ele>
        <time>2020-02-07T13:51:07.000Z</time>
      </trkpt>
      <trkpt lat="44.75458" lon="5.04022">
        <ele>373</ele>
        <time>2020-02-07T13:51:08.000Z</time>
      </trkpt>
      <trkpt lat="44.75456" lon="5.04022">
        <ele>373</ele>
        <time>2020-02-07T13:51:09.000Z</time>
      </trkpt>
      <trkpt lat="44.75455" lon="5.04021">
        <ele>373</ele>
        <time>2020-02-07T13:51:10.000Z</time>
      </trkpt>
      <trkpt lat="44.75454" lon="5.04021">
        <ele>373</ele>
        <time>2020-02-07T13:51:11.000Z</time>
      </trkpt>
      <trkpt lat="44.75453" lon="5.04021">
        <ele>373</ele>
        <time>2020-02-07T13:51:12.000Z</time>
      </trkpt>
      <trkpt lat="44.75452" lon="5.0402">
        <ele>373</ele>
        <time>2020-02-07T13:51:13.000Z</time>
      </trkpt>
      <trkpt lat="44.75451" lon="5.0402">
        <ele>373</ele>
        <time>2020-02-07T13:51:14.000Z</time>
      </trkpt>
      <trkpt lat="44.7545" lon="5.04019">
        <ele>373</ele>
        <time>2020-02-07T13:51:15.000Z</time>
      </trkpt>
      <trkpt lat="44.75449" lon="5.04019">
        <ele>373</ele>
        <time>2020-02-07T13:51:16.000Z</time>
      </trkpt>
      <trkpt lat="44.75448" lon="5.04019">
        <ele>372</ele>
        <time>2020-02-07T13:51:17.000Z</time>
      </trkpt>
      <trkpt lat="44.75447" lon="5.04018">
        <ele>372</ele>
        <time>2020-02-07T13:51:18.000Z</time>
      </trkpt>
      <trkpt lat="44.75446" lon="5.04018">
        <ele>372</ele>
        <time>2020-02-07T13:51:19.000Z</time>
      </trkpt>
      <trkpt lat="44.75445" lon="5.04018">
        <ele>372</ele>
        <time>2020-02-07T13:51:20.000Z</time>
      </trkpt>
      <trkpt lat="44.75444" lon="5.04018">
        <ele>372</ele>
        <time>2020-02-07T13:51:21.000Z</time>
      </trkpt>
      <trkpt lat="44.75444" lon="5.04018">
        <ele>372</ele>
        <time>2020-02-07T13:51:22.000Z</time>
      </trkpt>
      <trkpt lat="44.75443" lon="5.04018">
        <ele>372</ele>
        <time>2020-02-07T13:51:23.000Z</time>
      </trkpt>
      <trkpt lat="44.75443" lon="5.04018">
        <ele>372</ele>
        <time>2020-02-07T13:51:24.000Z</time>
      </trkpt>
      <trkpt lat="44.75443" lon="5.04018">
        <ele>372</ele>
        <time>2020-02-07T13:51:25.000Z</time>
      </trkpt>
      <trkpt lat="44.75443" lon="5.04018">
        <ele>372</ele>
        <time>2020-02-07T13:51:26.000Z</time>
      </trkpt>
      <trkpt lat="44.75443" lon="5.04018">
        <ele>372</ele>
        <time>2020-02-07T13:51:27.000Z</time>
      </trkpt>
      <trkpt lat="44.75443" lon="5.04018">
        <ele>372</ele>
        <time>2020-02-07T13:51:28.000Z</time>
      </trkpt>
      <trkpt lat="44.75444" lon="5.04018">
        <ele>372</ele>
        <time>2020-02-07T13:51:29.000Z</time>
      </trkpt>
      <trkpt lat="44.75444" lon="5.04018">
        <ele>372</ele>
        <time>2020-02-07T13:51:30.000Z</time>
      </trkpt>
      <trkpt lat="44.75445" lon="5.04018">
        <ele>372</ele>
        <time>2020-02-07T13:51:31.000Z</time>
      </trkpt>
      <trkpt lat="44.75445" lon="5.04018">
        <ele>372</ele>
        <time>2020-02-07T13:51:32.000Z</time>
      </trkpt>
      <trkpt lat="44.75446" lon="5.04018">
        <ele>372</ele>
        <time>2020-02-07T13:51:33.000Z</time>
      </trkpt>
      <trkpt lat="44.75446" lon="5.04018">
        <ele>372</ele>
        <time>2020-02-07T13:51:34.000Z</time>
      </trkpt>
      <trkpt lat="44.75446" lon="5.04018">
        <ele>372</ele>
        <time>2020-02-07T13:51:35.000Z</time>
      </trkpt>
      <trkpt lat="44.75446" lon="5.04018">
        <ele>372</ele>
        <time>2020-02-07T13:51:36.000Z</time>
      </trkpt>
      <trkpt lat="44.75446" lon="5.04018">
        <ele>372</ele>
        <time>2020-02-07T13:51:37.000Z</time>
      </trkpt>
      <trkpt lat="44.75446" lon="5.04018">
        <ele>372</ele>
        <time>2020-02-07T13:51:38.000Z</time>
      </trkpt>
      <trkpt lat="44.75446" lon="5.04018">
        <ele>372</ele>
        <time>2020-02-07T13:51:39.000Z</time>
      </trkpt>
      <trkpt lat="44.75446" lon="5.04018">
        <ele>372</ele>
        <time>2020-02-07T13:51:40.000Z</time>
      </trkpt>
      <trkpt lat="44.75446" lon="5.04018">
        <ele>372</ele>
        <time>2020-02-07T13:51:41.000Z</time>
      </trkpt>
      <trkpt lat="44.75446" lon="5.04017">
        <ele>372</ele>
        <time>2020-02-07T13:51:42.000Z</time>
      </trkpt>
      <trkpt lat="44.75446" lon="5.04017">
        <ele>372</ele>
        <time>2020-02-07T13:51:43.000Z</time>
      </trkpt>
      <trkpt lat="44.75446" lon="5.04016">
        <ele>372</ele>
        <time>2020-02-07T13:51:44.000Z</time>
      </trkpt>
      <trkpt lat="44.75446" lon="5.04015">
        <ele>372</ele>
        <time>2020-02-07T13:51:45.000Z</time>
      </trkpt>
      <trkpt lat="44.75446" lon="5.04015">
        <ele>372</ele>
        <time>2020-02-07T13:51:46.000Z</time>
      </trkpt>
      <trkpt lat="44.75446" lon="5.04014">
        <ele>372</ele>
        <time>2020-02-07T13:51:47.000Z</time>
      </trkpt>
      <trkpt lat="44.75446" lon="5.04014">
        <ele>372</ele>
        <time>2020-02-07T13:51:48.000Z</time>
      </trkpt>
      <trkpt lat="44.75446" lon="5.04014">
        <ele>372</ele>
        <time>2020-02-07T13:51:49.000Z</time>
      </trkpt>
      <trkpt lat="44.75446" lon="5.04014">
        <ele>372</ele>
        <time>2020-02-07T13:51:50.000Z</time>
      </trkpt>
      <trkpt lat="44.75446" lon="5.04014">
        <ele>372</ele>
        <time>2020-02-07T13:51:51.000Z</time>
      </trkpt>
      <trkpt lat="44.75446" lon="5.04013">
        <ele>372</ele>
        <time>2020-02-07T13:51:52.000Z</time>
      </trkpt>
      <trkpt lat="44.75446" lon="5.04013">
        <ele>372</ele>
        <time>2020-02-07T13:51:53.000Z</time>
      </trkpt>
      <trkpt lat="44.75446" lon="5.04013">
        <ele>372</ele>
        <time>2020-02-07T13:51:54.000Z</time>
      </trkpt>
      <trkpt lat="44.75447" lon="5.04013">
        <ele>372</ele>
        <time>2020-02-07T13:51:55.000Z</time>
      </trkpt>
      <trkpt lat="44.75447" lon="5.04013">
        <ele>372</ele>
        <time>2020-02-07T13:51:56.000Z</time>
      </trkpt>
      <trkpt lat="44.75447" lon="5.04013">
        <ele>372</ele>
        <time>2020-02-07T13:51:57.000Z</time>
      </trkpt>
      <trkpt lat="44.75447" lon="5.04013">
        <ele>372</ele>
        <time>2020-02-07T13:51:58.000Z</time>
      </trkpt>
      <trkpt lat="44.75447" lon="5.04013">
        <ele>372</ele>
        <time>2020-02-07T13:51:59.000Z</time>
      </trkpt>
      <trkpt lat="44.75447" lon="5.04013">
        <ele>372</ele>
        <time>2020-02-07T13:52:00.000Z</time>
      </trkpt>
      <trkpt lat="44.75447" lon="5.04013">
        <ele>372</ele>
        <time>2020-02-07T13:52:01.000Z</time>
      </trkpt>
      <trkpt lat="44.75447" lon="5.04013">
        <ele>372</ele>
        <time>2020-02-07T13:52:02.000Z</time>
      </trkpt>
      <trkpt lat="44.75447" lon="5.04013">
        <ele>372</ele>
        <time>2020-02-07T13:52:03.000Z</time>
      </trkpt>
      <trkpt lat="44.75447" lon="5.04013">
        <ele>372</ele>
        <time>2020-02-07T13:52:04.000Z</time>
      </trkpt>
      <trkpt lat="44.75447" lon="5.04013">
        <ele>372</ele>
        <time>2020-02-07T13:52:05.000Z</time>
      </trkpt>
      <trkpt lat="44.75447" lon="5.04013">
        <ele>372</ele>
        <time>2020-02-07T13:52:06.000Z</time>
      </trkpt>
      <trkpt lat="44.75447" lon="5.04013">
        <ele>372</ele>
        <time>2020-02-07T13:52:07.000Z</time>
      </trkpt>
      <trkpt lat="44.75447" lon="5.04013">
        <ele>372</ele>
        <time>2020-02-07T13:52:08.000Z</time>
      </trkpt>
      <trkpt lat="44.75447" lon="5.04012">
        <ele>372</ele>
        <time>2020-02-07T13:52:09.000Z</time>
      </trkpt>
      <trkpt lat="44.75447" lon="5.04012">
        <ele>373</ele>
        <time>2020-02-07T13:52:10.000Z</time>
      </trkpt>
      <trkpt lat="44.75447" lon="5.04012">
        <ele>373</ele>
        <time>2020-02-07T13:52:11.000Z</time>
      </trkpt>
      <trkpt lat="44.75447" lon="5.04012">
        <ele>373</ele>
        <time>2020-02-07T13:52:12.000Z</time>
      </trkpt>
      <trkpt lat="44.75447" lon="5.04012">
        <ele>373</ele>
        <time>2020-02-07T13:52:13.000Z</time>
      </trkpt>
      <trkpt lat="44.75447" lon="5.04012">
        <ele>373</ele>
        <time>2020-02-07T13:52:14.000Z</time>
      </trkpt>
      <trkpt lat="44.75447" lon="5.04012">
        <ele>373</ele>
        <time>2020-02-07T13:52:15.000Z</time>
      </trkpt>
      <trkpt lat="44.75447" lon="5.04012">
        <ele>373</ele>
        <time>2020-02-07T13:52:16.000Z</time>
      </trkpt>
      <trkpt lat="44.75447" lon="5.04012">
        <ele>373</ele>
        <time>2020-02-07T13:52:17.000Z</time>
      </trkpt>
      <trkpt lat="44.75448" lon="5.04011">
        <ele>373</ele>
        <time>2020-02-07T13:52:18.000Z</time>
      </trkpt>
      <trkpt lat="44.75449" lon="5.04011">
        <ele>373</ele>
        <time>2020-02-07T13:52:19.000Z</time>
      </trkpt>
      <trkpt lat="44.7545" lon="5.04011">
        <ele>373</ele>
        <time>2020-02-07T13:52:20.000Z</time>
      </trkpt>
      <trkpt lat="44.75451" lon="5.04012">
        <ele>373</ele>
        <time>2020-02-07T13:52:21.000Z</time>
      </trkpt>
      <trkpt lat="44.75451" lon="5.04012">
        <ele>373</ele>
        <time>2020-02-07T13:52:22.000Z</time>
      </trkpt>
      <trkpt lat="44.75452" lon="5.04013">
        <ele>373</ele>
        <time>2020-02-07T13:52:23.000Z</time>
      </trkpt>
      <trkpt lat="44.75453" lon="5.04013">
        <ele>373</ele>
        <time>2020-02-07T13:52:24.000Z</time>
      </trkpt>
      <trkpt lat="44.75454" lon="5.04014">
        <ele>373</ele>
        <time>2020-02-07T13:52:25.000Z</time>
      </trkpt>
      <trkpt lat="44.75454" lon="5.04014">
        <ele>373</ele>
        <time>2020-02-07T13:52:26.000Z</time>
      </trkpt>
      <trkpt lat="44.75455" lon="5.04014">
        <ele>373</ele>
        <time>2020-02-07T13:52:27.000Z</time>
      </trkpt>
      <trkpt lat="44.75455" lon="5.04014">
        <ele>373</ele>
        <time>2020-02-07T13:52:28.000Z</time>
      </trkpt>
      <trkpt lat="44.75456" lon="5.04014">
        <ele>373</ele>
        <time>2020-02-07T13:52:29.000Z</time>
      </trkpt>
      <trkpt lat="44.75456" lon="5.04014">
        <ele>373</ele>
        <time>2020-02-07T13:52:30.000Z</time>
      </trkpt>
      <trkpt lat="44.75456" lon="5.04014">
        <ele>373</ele>
        <time>2020-02-07T13:52:31.000Z</time>
      </trkpt>
      <trkpt lat="44.75456" lon="5.04014">
        <ele>373</ele>
        <time>2020-02-07T13:52:32.000Z</time>
      </trkpt>
      <trkpt lat="44.75456" lon="5.04013">
        <ele>373</ele>
        <time>2020-02-07T13:52:33.000Z</time>
      </trkpt>
      <trkpt lat="44.75456" lon="5.04013">
        <ele>373</ele>
        <time>2020-02-07T13:52:34.000Z</time>
      </trkpt>
      <trkpt lat="44.75456" lon="5.04013">
        <ele>372</ele>
        <time>2020-02-07T13:52:35.000Z</time>
      </trkpt>
      <trkpt lat="44.75456" lon="5.04013">
        <ele>372</ele>
        <time>2020-02-07T13:52:36.000Z</time>
      </trkpt>
      <trkpt lat="44.75456" lon="5.04013">
        <ele>372</ele>
        <time>2020-02-07T13:52:37.000Z</time>
      </trkpt>
      <trkpt lat="44.75456" lon="5.04013">
        <ele>372</ele>
        <time>2020-02-07T13:52:38.000Z</time>
      </trkpt>
      <trkpt lat="44.75456" lon="5.04013">
        <ele>372</ele>
        <time>2020-02-07T13:52:39.000Z</time>
      </trkpt>
      <trkpt lat="44.75456" lon="5.04013">
        <ele>372</ele>
        <time>2020-02-07T13:52:40.000Z</time>
      </trkpt>
      <trkpt lat="44.75456" lon="5.04013">
        <ele>372</ele>
        <time>2020-02-07T13:52:41.000Z</time>
      </trkpt>
      <trkpt lat="44.75456" lon="5.04013">
        <ele>372</ele>
        <time>2020-02-07T13:52:42.000Z</time>
      </trkpt>
      <trkpt lat="44.75456" lon="5.04013">
        <ele>372</ele>
        <time>2020-02-07T13:52:43.000Z</time>
      </trkpt>
      <trkpt lat="44.75456" lon="5.04013">
        <ele>372</ele>
        <time>2020-02-07T13:52:44.000Z</time>
      </trkpt>
      <trkpt lat="44.75456" lon="5.04013">
        <ele>372</ele>
        <time>2020-02-07T13:52:45.000Z</time>
      </trkpt>
      <trkpt lat="44.75456" lon="5.04013">
        <ele>372</ele>
        <time>2020-02-07T13:52:46.000Z</time>
      </trkpt>
      <trkpt lat="44.75456" lon="5.04013">
        <ele>372</ele>
        <time>2020-02-07T13:52:47.000Z</time>
      </trkpt>
      <trkpt lat="44.75456" lon="5.04013">
        <ele>372</ele>
        <time>2020-02-07T13:52:48.000Z</time>
      </trkpt>
      <trkpt lat="44.75456" lon="5.04013">
        <ele>372</ele>
        <time>2020-02-07T13:52:49.000Z</time>
      </trkpt>
      <trkpt lat="44.75456" lon="5.04013">
        <ele>372</ele>
        <time>2020-02-07T13:52:50.000Z</time>
      </trkpt>
      <trkpt lat="44.75456" lon="5.04013">
        <ele>372</ele>
        <time>2020-02-07T13:52:51.000Z</time>
      </trkpt>
      <trkpt lat="44.75456" lon="5.04013">
        <ele>372</ele>
        <time>2020-02-07T13:52:52.000Z</time>
      </trkpt>
      <trkpt lat="44.75456" lon="5.04013">
        <ele>372</ele>
        <time>2020-02-07T13:52:53.000Z</time>
      </trkpt>
      <trkpt lat="44.75456" lon="5.04013">
        <ele>372</ele>
        <time>2020-02-07T13:52:54.000Z</time>
      </trkpt>
      <trkpt lat="44.75456" lon="5.04013">
        <ele>372</ele>
        <time>2020-02-07T13:52:55.000Z</time>
      </trkpt>
      <trkpt lat="44.75456" lon="5.04013">
        <ele>372</ele>
        <time>2020-02-07T13:52:56.000Z</time>
      </trkpt>
      <trkpt lat="44.75456" lon="5.04014">
        <ele>372</ele>
        <time>2020-02-07T13:52:57.000Z</time>
      </trkpt>
      <trkpt lat="44.75456" lon="5.04014">
        <ele>372</ele>
        <time>2020-02-07T13:52:58.000Z</time>
      </trkpt>
      <trkpt lat="44.75456" lon="5.04014">
        <ele>372</ele>
        <time>2020-02-07T13:52:59.000Z</time>
      </trkpt>
      <trkpt lat="44.75456" lon="5.04014">
        <ele>372</ele>
        <time>2020-02-07T13:53:00.000Z</time>
      </trkpt>
      <trkpt lat="44.75456" lon="5.04014">
        <ele>372</ele>
        <time>2020-02-07T13:53:01.000Z</time>
      </trkpt>
      <trkpt lat="44.75456" lon="5.04014">
        <ele>372</ele>
        <time>2020-02-07T13:53:02.000Z</time>
      </trkpt>
      <trkpt lat="44.75455" lon="5.04014">
        <ele>372</ele>
        <time>2020-02-07T13:53:03.000Z</time>
      </trkpt>
      <trkpt lat="44.75455" lon="5.04014">
        <ele>372</ele>
        <time>2020-02-07T13:53:04.000Z</time>
      </trkpt>
      <trkpt lat="44.75454" lon="5.04014">
        <ele>372</ele>
        <time>2020-02-07T13:53:05.000Z</time>
      </trkpt>
      <trkpt lat="44.75453" lon="5.04014">
        <ele>372</ele>
        <time>2020-02-07T13:53:06.000Z</time>
      </trkpt>
      <trkpt lat="44.75452" lon="5.04013">
        <ele>372</ele>
        <time>2020-02-07T13:53:07.000Z</time>
      </trkpt>
      <trkpt lat="44.75452" lon="5.04012">
        <ele>372</ele>
        <time>2020-02-07T13:53:08.000Z</time>
      </trkpt>
      <trkpt lat="44.75451" lon="5.04011">
        <ele>371</ele>
        <time>2020-02-07T13:53:09.000Z</time>
      </trkpt>
      <trkpt lat="44.75451" lon="5.04009">
        <ele>371</ele>
        <time>2020-02-07T13:53:10.000Z</time>
      </trkpt>
      <trkpt lat="44.75451" lon="5.04008">
        <ele>371</ele>
        <time>2020-02-07T13:53:11.000Z</time>
      </trkpt>
      <trkpt lat="44.7545" lon="5.04006">
        <ele>371</ele>
        <time>2020-02-07T13:53:12.000Z</time>
      </trkpt>
      <trkpt lat="44.7545" lon="5.04005">
        <ele>371</ele>
        <time>2020-02-07T13:53:13.000Z</time>
      </trkpt>
      <trkpt lat="44.7545" lon="5.04003">
        <ele>371</ele>
        <time>2020-02-07T13:53:14.000Z</time>
      </trkpt>
      <trkpt lat="44.7545" lon="5.04001">
        <ele>371</ele>
        <time>2020-02-07T13:53:15.000Z</time>
      </trkpt>
      <trkpt lat="44.7545" lon="5.04">
        <ele>371</ele>
        <time>2020-02-07T13:53:16.000Z</time>
      </trkpt>
      <trkpt lat="44.7545" lon="5.03998">
        <ele>371</ele>
        <time>2020-02-07T13:53:17.000Z</time>
      </trkpt>
      <trkpt lat="44.7545" lon="5.03997">
        <ele>371</ele>
        <time>2020-02-07T13:53:18.000Z</time>
      </trkpt>
      <trkpt lat="44.7545" lon="5.03995">
        <ele>371</ele>
        <time>2020-02-07T13:53:19.000Z</time>
      </trkpt>
      <trkpt lat="44.7545" lon="5.03994">
        <ele>371</ele>
        <time>2020-02-07T13:53:20.000Z</time>
      </trkpt>
      <trkpt lat="44.7545" lon="5.03992">
        <ele>371</ele>
        <time>2020-02-07T13:53:21.000Z</time>
      </trkpt>
      <trkpt lat="44.7545" lon="5.03991">
        <ele>371</ele>
        <time>2020-02-07T13:53:22.000Z</time>
      </trkpt>
      <trkpt lat="44.7545" lon="5.03989">
        <ele>371</ele>
        <time>2020-02-07T13:53:23.000Z</time>
      </trkpt>
      <trkpt lat="44.7545" lon="5.03988">
        <ele>371</ele>
        <time>2020-02-07T13:53:24.000Z</time>
      </trkpt>
      <trkpt lat="44.7545" lon="5.03986">
        <ele>371</ele>
        <time>2020-02-07T13:53:25.000Z</time>
      </trkpt>
      <trkpt lat="44.7545" lon="5.03985">
        <ele>371</ele>
        <time>2020-02-07T13:53:26.000Z</time>
      </trkpt>
      <trkpt lat="44.75449" lon="5.03983">
        <ele>371</ele>
        <time>2020-02-07T13:53:27.000Z</time>
      </trkpt>
      <trkpt lat="44.75449" lon="5.03981">
        <ele>371</ele>
        <time>2020-02-07T13:53:28.000Z</time>
      </trkpt>
      <trkpt lat="44.75448" lon="5.0398">
        <ele>371</ele>
        <time>2020-02-07T13:53:29.000Z</time>
      </trkpt>
      <trkpt lat="44.75448" lon="5.03978">
        <ele>371</ele>
        <time>2020-02-07T13:53:30.000Z</time>
      </trkpt>
      <trkpt lat="44.75447" lon="5.03977">
        <ele>371</ele>
        <time>2020-02-07T13:53:31.000Z</time>
      </trkpt>
      <trkpt lat="44.75447" lon="5.03976">
        <ele>371</ele>
        <time>2020-02-07T13:53:32.000Z</time>
      </trkpt>
      <trkpt lat="44.75447" lon="5.03974">
        <ele>371</ele>
        <time>2020-02-07T13:53:33.000Z</time>
      </trkpt>
      <trkpt lat="44.75446" lon="5.03973">
        <ele>371</ele>
        <time>2020-02-07T13:53:34.000Z</time>
      </trkpt>
      <trkpt lat="44.75446" lon="5.03972">
        <ele>371</ele>
        <time>2020-02-07T13:53:35.000Z</time>
      </trkpt>
      <trkpt lat="44.75446" lon="5.0397">
        <ele>371</ele>
        <time>2020-02-07T13:53:36.000Z</time>
      </trkpt>
      <trkpt lat="44.75446" lon="5.03969">
        <ele>371</ele>
        <time>2020-02-07T13:53:37.000Z</time>
      </trkpt>
      <trkpt lat="44.75446" lon="5.03967">
        <ele>371</ele>
        <time>2020-02-07T13:53:38.000Z</time>
      </trkpt>
      <trkpt lat="44.75445" lon="5.03966">
        <ele>371</ele>
        <time>2020-02-07T13:53:39.000Z</time>
      </trkpt>
      <trkpt lat="44.75445" lon="5.03964">
        <ele>371</ele>
        <time>2020-02-07T13:53:40.000Z</time>
      </trkpt>
      <trkpt lat="44.75445" lon="5.03963">
        <ele>371</ele>
        <time>2020-02-07T13:53:41.000Z</time>
      </trkpt>
      <trkpt lat="44.75444" lon="5.03962">
        <ele>371</ele>
        <time>2020-02-07T13:53:42.000Z</time>
      </trkpt>
      <trkpt lat="44.75443" lon="5.0396">
        <ele>371</ele>
        <time>2020-02-07T13:53:43.000Z</time>
      </trkpt>
      <trkpt lat="44.75443" lon="5.03959">
        <ele>371</ele>
        <time>2020-02-07T13:53:44.000Z</time>
      </trkpt>
      <trkpt lat="44.75442" lon="5.03957">
        <ele>371</ele>
        <time>2020-02-07T13:53:45.000Z</time>
      </trkpt>
      <trkpt lat="44.75442" lon="5.03956">
        <ele>371</ele>
        <time>2020-02-07T13:53:46.000Z</time>
      </trkpt>
      <trkpt lat="44.75441" lon="5.03955">
        <ele>371</ele>
        <time>2020-02-07T13:53:47.000Z</time>
      </trkpt>
      <trkpt lat="44.75441" lon="5.03953">
        <ele>371</ele>
        <time>2020-02-07T13:53:48.000Z</time>
      </trkpt>
      <trkpt lat="44.75441" lon="5.03951">
        <ele>371</ele>
        <time>2020-02-07T13:53:49.000Z</time>
      </trkpt>
      <trkpt lat="44.7544" lon="5.0395">
        <ele>371</ele>
        <time>2020-02-07T13:53:50.000Z</time>
      </trkpt>
      <trkpt lat="44.7544" lon="5.03948">
        <ele>371</ele>
        <time>2020-02-07T13:53:51.000Z</time>
      </trkpt>
      <trkpt lat="44.7544" lon="5.03946">
        <ele>371</ele>
        <time>2020-02-07T13:53:52.000Z</time>
      </trkpt>
      <trkpt lat="44.7544" lon="5.03945">
        <ele>371</ele>
        <time>2020-02-07T13:53:53.000Z</time>
      </trkpt>
      <trkpt lat="44.7544" lon="5.03943">
        <ele>371</ele>
        <time>2020-02-07T13:53:54.000Z</time>
      </trkpt>
      <trkpt lat="44.75439" lon="5.03942">
        <ele>371</ele>
        <time>2020-02-07T13:53:55.000Z</time>
      </trkpt>
      <trkpt lat="44.75439" lon="5.0394">
        <ele>371</ele>
        <time>2020-02-07T13:53:56.000Z</time>
      </trkpt>
      <trkpt lat="44.75439" lon="5.03939">
        <ele>372</ele>
        <time>2020-02-07T13:53:57.000Z</time>
      </trkpt>
      <trkpt lat="44.75438" lon="5.03938">
        <ele>372</ele>
        <time>2020-02-07T13:53:58.000Z</time>
      </trkpt>
      <trkpt lat="44.75437" lon="5.03936">
        <ele>372</ele>
        <time>2020-02-07T13:53:59.000Z</time>
      </trkpt>
      <trkpt lat="44.75437" lon="5.03935">
        <ele>372</ele>
        <time>2020-02-07T13:54:00.000Z</time>
      </trkpt>
      <trkpt lat="44.75437" lon="5.03934">
        <ele>372</ele>
        <time>2020-02-07T13:54:01.000Z</time>
      </trkpt>
      <trkpt lat="44.75436" lon="5.03932">
        <ele>372</ele>
        <time>2020-02-07T13:54:02.000Z</time>
      </trkpt>
      <trkpt lat="44.75436" lon="5.03931">
        <ele>372</ele>
        <time>2020-02-07T13:54:03.000Z</time>
      </trkpt>
      <trkpt lat="44.75436" lon="5.03929">
        <ele>373</ele>
        <time>2020-02-07T13:54:04.000Z</time>
      </trkpt>
      <trkpt lat="44.75435" lon="5.03928">
        <ele>373</ele>
        <time>2020-02-07T13:54:05.000Z</time>
      </trkpt>
      <trkpt lat="44.75435" lon="5.03927">
        <ele>373</ele>
        <time>2020-02-07T13:54:06.000Z</time>
      </trkpt>
      <trkpt lat="44.75435" lon="5.03926">
        <ele>373</ele>
        <time>2020-02-07T13:54:07.000Z</time>
      </trkpt>
      <trkpt lat="44.75434" lon="5.03924">
        <ele>373</ele>
        <time>2020-02-07T13:54:08.000Z</time>
      </trkpt>
      <trkpt lat="44.75434" lon="5.03923">
        <ele>373</ele>
        <time>2020-02-07T13:54:09.000Z</time>
      </trkpt>
      <trkpt lat="44.75433" lon="5.03922">
        <ele>373</ele>
        <time>2020-02-07T13:54:10.000Z</time>
      </trkpt>
      <trkpt lat="44.75433" lon="5.03921">
        <ele>373</ele>
        <time>2020-02-07T13:54:11.000Z</time>
      </trkpt>
      <trkpt lat="44.75432" lon="5.03919">
        <ele>373</ele>
        <time>2020-02-07T13:54:12.000Z</time>
      </trkpt>
      <trkpt lat="44.75432" lon="5.03918">
        <ele>374</ele>
        <time>2020-02-07T13:54:13.000Z</time>
      </trkpt>
      <trkpt lat="44.75431" lon="5.03917">
        <ele>374</ele>
        <time>2020-02-07T13:54:14.000Z</time>
      </trkpt>
      <trkpt lat="44.75431" lon="5.03916">
        <ele>374</ele>
        <time>2020-02-07T13:54:15.000Z</time>
      </trkpt>
      <trkpt lat="44.7543" lon="5.03915">
        <ele>374</ele>
        <time>2020-02-07T13:54:16.000Z</time>
      </trkpt>
      <trkpt lat="44.7543" lon="5.03914">
        <ele>374</ele>
        <time>2020-02-07T13:54:17.000Z</time>
      </trkpt>
      <trkpt lat="44.75429" lon="5.03912">
        <ele>374</ele>
        <time>2020-02-07T13:54:18.000Z</time>
      </trkpt>
      <trkpt lat="44.75429" lon="5.03911">
        <ele>374</ele>
        <time>2020-02-07T13:54:19.000Z</time>
      </trkpt>
      <trkpt lat="44.75428" lon="5.0391">
        <ele>374</ele>
        <time>2020-02-07T13:54:20.000Z</time>
      </trkpt>
      <trkpt lat="44.75428" lon="5.03908">
        <ele>374</ele>
        <time>2020-02-07T13:54:21.000Z</time>
      </trkpt>
      <trkpt lat="44.75427" lon="5.03907">
        <ele>374</ele>
        <time>2020-02-07T13:54:22.000Z</time>
      </trkpt>
      <trkpt lat="44.75427" lon="5.03906">
        <ele>374</ele>
        <time>2020-02-07T13:54:23.000Z</time>
      </trkpt>
      <trkpt lat="44.75427" lon="5.03905">
        <ele>374</ele>
        <time>2020-02-07T13:54:24.000Z</time>
      </trkpt>
      <trkpt lat="44.75426" lon="5.03903">
        <ele>374</ele>
        <time>2020-02-07T13:54:25.000Z</time>
      </trkpt>
      <trkpt lat="44.75426" lon="5.03902">
        <ele>374</ele>
        <time>2020-02-07T13:54:26.000Z</time>
      </trkpt>
      <trkpt lat="44.75425" lon="5.039">
        <ele>374</ele>
        <time>2020-02-07T13:54:27.000Z</time>
      </trkpt>
      <trkpt lat="44.75425" lon="5.03899">
        <ele>374</ele>
        <time>2020-02-07T13:54:28.000Z</time>
      </trkpt>
      <trkpt lat="44.75425" lon="5.03897">
        <ele>374</ele>
        <time>2020-02-07T13:54:29.000Z</time>
      </trkpt>
      <trkpt lat="44.75424" lon="5.03896">
        <ele>374</ele>
        <time>2020-02-07T13:54:30.000Z</time>
      </trkpt>
      <trkpt lat="44.75424" lon="5.03895">
        <ele>374</ele>
        <time>2020-02-07T13:54:31.000Z</time>
      </trkpt>
      <trkpt lat="44.75423" lon="5.03894">
        <ele>374</ele>
        <time>2020-02-07T13:54:32.000Z</time>
      </trkpt>
      <trkpt lat="44.75423" lon="5.03892">
        <ele>374</ele>
        <time>2020-02-07T13:54:33.000Z</time>
      </trkpt>
      <trkpt lat="44.75423" lon="5.03891">
        <ele>374</ele>
        <time>2020-02-07T13:54:34.000Z</time>
      </trkpt>
      <trkpt lat="44.75422" lon="5.0389">
        <ele>374</ele>
        <time>2020-02-07T13:54:35.000Z</time>
      </trkpt>
      <trkpt lat="44.75422" lon="5.0389">
        <ele>375</ele>
        <time>2020-02-07T13:54:36.000Z</time>
      </trkpt>
      <trkpt lat="44.75421" lon="5.03888">
        <ele>375</ele>
        <time>2020-02-07T13:54:37.000Z</time>
      </trkpt>
      <trkpt lat="44.7542" lon="5.03887">
        <ele>375</ele>
        <time>2020-02-07T13:54:38.000Z</time>
      </trkpt>
      <trkpt lat="44.7542" lon="5.03885">
        <ele>375</ele>
        <time>2020-02-07T13:54:39.000Z</time>
      </trkpt>
      <trkpt lat="44.7542" lon="5.03884">
        <ele>375</ele>
        <time>2020-02-07T13:54:40.000Z</time>
      </trkpt>
      <trkpt lat="44.7542" lon="5.03883">
        <ele>375</ele>
        <time>2020-02-07T13:54:41.000Z</time>
      </trkpt>
      <trkpt lat="44.75419" lon="5.03882">
        <ele>375</ele>
        <time>2020-02-07T13:54:42.000Z</time>
      </trkpt>
      <trkpt lat="44.75418" lon="5.03881">
        <ele>375</ele>
        <time>2020-02-07T13:54:43.000Z</time>
      </trkpt>
      <trkpt lat="44.75418" lon="5.03879">
        <ele>375</ele>
        <time>2020-02-07T13:54:44.000Z</time>
      </trkpt>
      <trkpt lat="44.75417" lon="5.03878">
        <ele>375</ele>
        <time>2020-02-07T13:54:45.000Z</time>
      </trkpt>
      <trkpt lat="44.75417" lon="5.03877">
        <ele>375</ele>
        <time>2020-02-07T13:54:46.000Z</time>
      </trkpt>
      <trkpt lat="44.75417" lon="5.03876">
        <ele>375</ele>
        <time>2020-02-07T13:54:47.000Z</time>
      </trkpt>
      <trkpt lat="44.75416" lon="5.03875">
        <ele>375</ele>
        <time>2020-02-07T13:54:48.000Z</time>
      </trkpt>
      <trkpt lat="44.75416" lon="5.03873">
        <ele>375</ele>
        <time>2020-02-07T13:54:49.000Z</time>
      </trkpt>
      <trkpt lat="44.75415" lon="5.03872">
        <ele>376</ele>
        <time>2020-02-07T13:54:50.000Z</time>
      </trkpt>
      <trkpt lat="44.75415" lon="5.03871">
        <ele>376</ele>
        <time>2020-02-07T13:54:51.000Z</time>
      </trkpt>
      <trkpt lat="44.75414" lon="5.03869">
        <ele>376</ele>
        <time>2020-02-07T13:54:52.000Z</time>
      </trkpt>
      <trkpt lat="44.75414" lon="5.03868">
        <ele>376</ele>
        <time>2020-02-07T13:54:53.000Z</time>
      </trkpt>
      <trkpt lat="44.75413" lon="5.03866">
        <ele>376</ele>
        <time>2020-02-07T13:54:54.000Z</time>
      </trkpt>
      <trkpt lat="44.75413" lon="5.03865">
        <ele>376</ele>
        <time>2020-02-07T13:54:55.000Z</time>
      </trkpt>
      <trkpt lat="44.75413" lon="5.03864">
        <ele>376</ele>
        <time>2020-02-07T13:54:56.000Z</time>
      </trkpt>
      <trkpt lat="44.75412" lon="5.03862">
        <ele>376</ele>
        <time>2020-02-07T13:54:57.000Z</time>
      </trkpt>
      <trkpt lat="44.75412" lon="5.03861">
        <ele>376</ele>
        <time>2020-02-07T13:54:58.000Z</time>
      </trkpt>
      <trkpt lat="44.75412" lon="5.0386">
        <ele>376</ele>
        <time>2020-02-07T13:54:59.000Z</time>
      </trkpt>
      <trkpt lat="44.75411" lon="5.03859">
        <ele>376</ele>
        <time>2020-02-07T13:55:00.000Z</time>
      </trkpt>
      <trkpt lat="44.75411" lon="5.03857">
        <ele>376</ele>
        <time>2020-02-07T13:55:01.000Z</time>
      </trkpt>
      <trkpt lat="44.7541" lon="5.03856">
        <ele>376</ele>
        <time>2020-02-07T13:55:02.000Z</time>
      </trkpt>
      <trkpt lat="44.7541" lon="5.03855">
        <ele>377</ele>
        <time>2020-02-07T13:55:03.000Z</time>
      </trkpt>
      <trkpt lat="44.75409" lon="5.03853">
        <ele>377</ele>
        <time>2020-02-07T13:55:04.000Z</time>
      </trkpt>
      <trkpt lat="44.75409" lon="5.03852">
        <ele>377</ele>
        <time>2020-02-07T13:55:05.000Z</time>
      </trkpt>
      <trkpt lat="44.75409" lon="5.03851">
        <ele>377</ele>
        <time>2020-02-07T13:55:06.000Z</time>
      </trkpt>
      <trkpt lat="44.75408" lon="5.0385">
        <ele>377</ele>
        <time>2020-02-07T13:55:07.000Z</time>
      </trkpt>
      <trkpt lat="44.75407" lon="5.03849">
        <ele>377</ele>
        <time>2020-02-07T13:55:08.000Z</time>
      </trkpt>
      <trkpt lat="44.75406" lon="5.03848">
        <ele>377</ele>
        <time>2020-02-07T13:55:09.000Z</time>
      </trkpt>
      <trkpt lat="44.75406" lon="5.03847">
        <ele>377</ele>
        <time>2020-02-07T13:55:10.000Z</time>
      </trkpt>
      <trkpt lat="44.75405" lon="5.03846">
        <ele>377</ele>
        <time>2020-02-07T13:55:11.000Z</time>
      </trkpt>
      <trkpt lat="44.75404" lon="5.03845">
        <ele>377</ele>
        <time>2020-02-07T13:55:12.000Z</time>
      </trkpt>
      <trkpt lat="44.75404" lon="5.03843">
        <ele>377</ele>
        <time>2020-02-07T13:55:13.000Z</time>
      </trkpt>
      <trkpt lat="44.75403" lon="5.03842">
        <ele>378</ele>
        <time>2020-02-07T13:55:14.000Z</time>
      </trkpt>
      <trkpt lat="44.75403" lon="5.03841">
        <ele>378</ele>
        <time>2020-02-07T13:55:15.000Z</time>
      </trkpt>
      <trkpt lat="44.75402" lon="5.0384">
        <ele>378</ele>
        <time>2020-02-07T13:55:16.000Z</time>
      </trkpt>
      <trkpt lat="44.75401" lon="5.0384">
        <ele>378</ele>
        <time>2020-02-07T13:55:17.000Z</time>
      </trkpt>
      <trkpt lat="44.754" lon="5.03839">
        <ele>378</ele>
        <time>2020-02-07T13:55:18.000Z</time>
      </trkpt>
      <trkpt lat="44.75399" lon="5.03839">
        <ele>378</ele>
        <time>2020-02-07T13:55:19.000Z</time>
      </trkpt>
      <trkpt lat="44.75399" lon="5.03838">
        <ele>378</ele>
        <time>2020-02-07T13:55:20.000Z</time>
      </trkpt>
      <trkpt lat="44.75398" lon="5.03837">
        <ele>378</ele>
        <time>2020-02-07T13:55:21.000Z</time>
      </trkpt>
      <trkpt lat="44.75397" lon="5.03837">
        <ele>378</ele>
        <time>2020-02-07T13:55:22.000Z</time>
      </trkpt>
      <trkpt lat="44.75396" lon="5.03836">
        <ele>378</ele>
        <time>2020-02-07T13:55:23.000Z</time>
      </trkpt>
      <trkpt lat="44.75396" lon="5.03835">
        <ele>378</ele>
        <time>2020-02-07T13:55:24.000Z</time>
      </trkpt>
      <trkpt lat="44.75395" lon="5.03834">
        <ele>378</ele>
        <time>2020-02-07T13:55:25.000Z</time>
      </trkpt>
      <trkpt lat="44.75394" lon="5.03834">
        <ele>379</ele>
        <time>2020-02-07T13:55:26.000Z</time>
      </trkpt>
      <trkpt lat="44.75393" lon="5.03833">
        <ele>379</ele>
        <time>2020-02-07T13:55:27.000Z</time>
      </trkpt>
      <trkpt lat="44.75392" lon="5.03832">
        <ele>379</ele>
        <time>2020-02-07T13:55:28.000Z</time>
      </trkpt>
      <trkpt lat="44.75391" lon="5.03832">
        <ele>379</ele>
        <time>2020-02-07T13:55:29.000Z</time>
      </trkpt>
      <trkpt lat="44.7539" lon="5.03831">
        <ele>379</ele>
        <time>2020-02-07T13:55:30.000Z</time>
      </trkpt>
      <trkpt lat="44.7539" lon="5.0383">
        <ele>379</ele>
        <time>2020-02-07T13:55:31.000Z</time>
      </trkpt>
      <trkpt lat="44.75389" lon="5.03829">
        <ele>379</ele>
        <time>2020-02-07T13:55:32.000Z</time>
      </trkpt>
      <trkpt lat="44.75388" lon="5.03828">
        <ele>379</ele>
        <time>2020-02-07T13:55:33.000Z</time>
      </trkpt>
      <trkpt lat="44.75388" lon="5.03827">
        <ele>379</ele>
        <time>2020-02-07T13:55:34.000Z</time>
      </trkpt>
      <trkpt lat="44.75387" lon="5.03826">
        <ele>380</ele>
        <time>2020-02-07T13:55:35.000Z</time>
      </trkpt>
      <trkpt lat="44.75386" lon="5.03825">
        <ele>380</ele>
        <time>2020-02-07T13:55:36.000Z</time>
      </trkpt>
      <trkpt lat="44.75386" lon="5.03825">
        <ele>380</ele>
        <time>2020-02-07T13:55:37.000Z</time>
      </trkpt>
      <trkpt lat="44.75385" lon="5.03824">
        <ele>380</ele>
        <time>2020-02-07T13:55:38.000Z</time>
      </trkpt>
      <trkpt lat="44.75385" lon="5.03823">
        <ele>380</ele>
        <time>2020-02-07T13:55:39.000Z</time>
      </trkpt>
      <trkpt lat="44.75384" lon="5.03822">
        <ele>380</ele>
        <time>2020-02-07T13:55:40.000Z</time>
      </trkpt>
      <trkpt lat="44.75383" lon="5.03821">
        <ele>380</ele>
        <time>2020-02-07T13:55:41.000Z</time>
      </trkpt>
      <trkpt lat="44.75382" lon="5.0382">
        <ele>380</ele>
        <time>2020-02-07T13:55:42.000Z</time>
      </trkpt>
      <trkpt lat="44.75381" lon="5.0382">
        <ele>380</ele>
        <time>2020-02-07T13:55:43.000Z</time>
      </trkpt>
      <trkpt lat="44.75381" lon="5.03819">
        <ele>380</ele>
        <time>2020-02-07T13:55:44.000Z</time>
      </trkpt>
      <trkpt lat="44.7538" lon="5.03818">
        <ele>381</ele>
        <time>2020-02-07T13:55:45.000Z</time>
      </trkpt>
      <trkpt lat="44.75379" lon="5.03817">
        <ele>381</ele>
        <time>2020-02-07T13:55:46.000Z</time>
      </trkpt>
      <trkpt lat="44.75379" lon="5.03817">
        <ele>381</ele>
        <time>2020-02-07T13:55:47.000Z</time>
      </trkpt>
      <trkpt lat="44.75378" lon="5.03816">
        <ele>381</ele>
        <time>2020-02-07T13:55:48.000Z</time>
      </trkpt>
      <trkpt lat="44.75377" lon="5.03815">
        <ele>381</ele>
        <time>2020-02-07T13:55:49.000Z</time>
      </trkpt>
      <trkpt lat="44.75377" lon="5.03814">
        <ele>381</ele>
        <time>2020-02-07T13:55:50.000Z</time>
      </trkpt>
      <trkpt lat="44.75376" lon="5.03813">
        <ele>381</ele>
        <time>2020-02-07T13:55:51.000Z</time>
      </trkpt>
      <trkpt lat="44.75375" lon="5.03813">
        <ele>382</ele>
        <time>2020-02-07T13:55:52.000Z</time>
      </trkpt>
      <trkpt lat="44.75375" lon="5.03812">
        <ele>382</ele>
        <time>2020-02-07T13:55:53.000Z</time>
      </trkpt>
      <trkpt lat="44.75374" lon="5.03812">
        <ele>382</ele>
        <time>2020-02-07T13:55:54.000Z</time>
      </trkpt>
      <trkpt lat="44.75373" lon="5.03811">
        <ele>382</ele>
        <time>2020-02-07T13:55:55.000Z</time>
      </trkpt>
      <trkpt lat="44.75373" lon="5.0381">
        <ele>382</ele>
        <time>2020-02-07T13:55:56.000Z</time>
      </trkpt>
      <trkpt lat="44.75372" lon="5.03809">
        <ele>382</ele>
        <time>2020-02-07T13:55:57.000Z</time>
      </trkpt>
      <trkpt lat="44.75372" lon="5.03808">
        <ele>383</ele>
        <time>2020-02-07T13:55:58.000Z</time>
      </trkpt>
      <trkpt lat="44.75371" lon="5.03807">
        <ele>383</ele>
        <time>2020-02-07T13:55:59.000Z</time>
      </trkpt>
      <trkpt lat="44.7537" lon="5.03807">
        <ele>383</ele>
        <time>2020-02-07T13:56:00.000Z</time>
      </trkpt>
      <trkpt lat="44.7537" lon="5.03806">
        <ele>383</ele>
        <time>2020-02-07T13:56:01.000Z</time>
      </trkpt>
      <trkpt lat="44.75369" lon="5.03805">
        <ele>383</ele>
        <time>2020-02-07T13:56:02.000Z</time>
      </trkpt>
      <trkpt lat="44.75368" lon="5.03805">
        <ele>383</ele>
        <time>2020-02-07T13:56:03.000Z</time>
      </trkpt>
      <trkpt lat="44.75367" lon="5.03804">
        <ele>384</ele>
        <time>2020-02-07T13:56:04.000Z</time>
      </trkpt>
      <trkpt lat="44.75367" lon="5.03803">
        <ele>384</ele>
        <time>2020-02-07T13:56:05.000Z</time>
      </trkpt>
      <trkpt lat="44.75366" lon="5.03802">
        <ele>384</ele>
        <time>2020-02-07T13:56:06.000Z</time>
      </trkpt>
      <trkpt lat="44.75365" lon="5.03801">
        <ele>385</ele>
        <time>2020-02-07T13:56:07.000Z</time>
      </trkpt>
      <trkpt lat="44.75364" lon="5.038">
        <ele>385</ele>
        <time>2020-02-07T13:56:08.000Z</time>
      </trkpt>
      <trkpt lat="44.75364" lon="5.03799">
        <ele>385</ele>
        <time>2020-02-07T13:56:09.000Z</time>
      </trkpt>
      <trkpt lat="44.75363" lon="5.03799">
        <ele>385</ele>
        <time>2020-02-07T13:56:10.000Z</time>
      </trkpt>
      <trkpt lat="44.75362" lon="5.03798">
        <ele>386</ele>
        <time>2020-02-07T13:56:11.000Z</time>
      </trkpt>
      <trkpt lat="44.75362" lon="5.03797">
        <ele>386</ele>
        <time>2020-02-07T13:56:12.000Z</time>
      </trkpt>
      <trkpt lat="44.75361" lon="5.03797">
        <ele>386</ele>
        <time>2020-02-07T13:56:13.000Z</time>
      </trkpt>
      <trkpt lat="44.7536" lon="5.03796">
        <ele>387</ele>
        <time>2020-02-07T13:56:14.000Z</time>
      </trkpt>
      <trkpt lat="44.75359" lon="5.03796">
        <ele>387</ele>
        <time>2020-02-07T13:56:15.000Z</time>
      </trkpt>
      <trkpt lat="44.75358" lon="5.03796">
        <ele>387</ele>
        <time>2020-02-07T13:56:16.000Z</time>
      </trkpt>
      <trkpt lat="44.75357" lon="5.03796">
        <ele>388</ele>
        <time>2020-02-07T13:56:17.000Z</time>
      </trkpt>
      <trkpt lat="44.75356" lon="5.03795">
        <ele>388</ele>
        <time>2020-02-07T13:56:18.000Z</time>
      </trkpt>
      <trkpt lat="44.75355" lon="5.03795">
        <ele>388</ele>
        <time>2020-02-07T13:56:19.000Z</time>
      </trkpt>
      <trkpt lat="44.75354" lon="5.03795">
        <ele>389</ele>
        <time>2020-02-07T13:56:20.000Z</time>
      </trkpt>
      <trkpt lat="44.75354" lon="5.03794">
        <ele>389</ele>
        <time>2020-02-07T13:56:21.000Z</time>
      </trkpt>
      <trkpt lat="44.75353" lon="5.03793">
        <ele>389</ele>
        <time>2020-02-07T13:56:22.000Z</time>
      </trkpt>
      <trkpt lat="44.75352" lon="5.03792">
        <ele>390</ele>
        <time>2020-02-07T13:56:23.000Z</time>
      </trkpt>
      <trkpt lat="44.75351" lon="5.03792">
        <ele>390</ele>
        <time>2020-02-07T13:56:24.000Z</time>
      </trkpt>
      <trkpt lat="44.7535" lon="5.03791">
        <ele>390</ele>
        <time>2020-02-07T13:56:25.000Z</time>
      </trkpt>
      <trkpt lat="44.7535" lon="5.03791">
        <ele>391</ele>
        <time>2020-02-07T13:56:26.000Z</time>
      </trkpt>
      <trkpt lat="44.75349" lon="5.0379">
        <ele>391</ele>
        <time>2020-02-07T13:56:27.000Z</time>
      </trkpt>
      <trkpt lat="44.75348" lon="5.0379">
        <ele>391</ele>
        <time>2020-02-07T13:56:28.000Z</time>
      </trkpt>
      <trkpt lat="44.75347" lon="5.03789">
        <ele>391</ele>
        <time>2020-02-07T13:56:29.000Z</time>
      </trkpt>
      <trkpt lat="44.75346" lon="5.03789">
        <ele>391</ele>
        <time>2020-02-07T13:56:30.000Z</time>
      </trkpt>
      <trkpt lat="44.75345" lon="5.03788">
        <ele>391</ele>
        <time>2020-02-07T13:56:31.000Z</time>
      </trkpt>
      <trkpt lat="44.75344" lon="5.03788">
        <ele>391</ele>
        <time>2020-02-07T13:56:32.000Z</time>
      </trkpt>
      <trkpt lat="44.75343" lon="5.03787">
        <ele>392</ele>
        <time>2020-02-07T13:56:33.000Z</time>
      </trkpt>
      <trkpt lat="44.75342" lon="5.03787">
        <ele>392</ele>
        <time>2020-02-07T13:56:34.000Z</time>
      </trkpt>
      <trkpt lat="44.75341" lon="5.03786">
        <ele>392</ele>
        <time>2020-02-07T13:56:35.000Z</time>
      </trkpt>
      <trkpt lat="44.7534" lon="5.03786">
        <ele>392</ele>
        <time>2020-02-07T13:56:36.000Z</time>
      </trkpt>
      <trkpt lat="44.75339" lon="5.03785">
        <ele>392</ele>
        <time>2020-02-07T13:56:37.000Z</time>
      </trkpt>
      <trkpt lat="44.75338" lon="5.03785">
        <ele>392</ele>
        <time>2020-02-07T13:56:38.000Z</time>
      </trkpt>
      <trkpt lat="44.75337" lon="5.03785">
        <ele>392</ele>
        <time>2020-02-07T13:56:39.000Z</time>
      </trkpt>
      <trkpt lat="44.75336" lon="5.03785">
        <ele>392</ele>
        <time>2020-02-07T13:56:40.000Z</time>
      </trkpt>
      <trkpt lat="44.75335" lon="5.03785">
        <ele>392</ele>
        <time>2020-02-07T13:56:41.000Z</time>
      </trkpt>
      <trkpt lat="44.75334" lon="5.03784">
        <ele>392</ele>
        <time>2020-02-07T13:56:42.000Z</time>
      </trkpt>
      <trkpt lat="44.75333" lon="5.03784">
        <ele>392</ele>
        <time>2020-02-07T13:56:43.000Z</time>
      </trkpt>
      <trkpt lat="44.75332" lon="5.03784">
        <ele>392</ele>
        <time>2020-02-07T13:56:44.000Z</time>
      </trkpt>
      <trkpt lat="44.75331" lon="5.03783">
        <ele>392</ele>
        <time>2020-02-07T13:56:45.000Z</time>
      </trkpt>
      <trkpt lat="44.7533" lon="5.03783">
        <ele>392</ele>
        <time>2020-02-07T13:56:46.000Z</time>
      </trkpt>
      <trkpt lat="44.75329" lon="5.03782">
        <ele>392</ele>
        <time>2020-02-07T13:56:47.000Z</time>
      </trkpt>
      <trkpt lat="44.75328" lon="5.03782">
        <ele>392</ele>
        <time>2020-02-07T13:56:48.000Z</time>
      </trkpt>
      <trkpt lat="44.75328" lon="5.03781">
        <ele>393</ele>
        <time>2020-02-07T13:56:49.000Z</time>
      </trkpt>
      <trkpt lat="44.75327" lon="5.0378">
        <ele>393</ele>
        <time>2020-02-07T13:56:50.000Z</time>
      </trkpt>
      <trkpt lat="44.75326" lon="5.0378">
        <ele>393</ele>
        <time>2020-02-07T13:56:51.000Z</time>
      </trkpt>
      <trkpt lat="44.75326" lon="5.03779">
        <ele>393</ele>
        <time>2020-02-07T13:56:52.000Z</time>
      </trkpt>
      <trkpt lat="44.75326" lon="5.03778">
        <ele>393</ele>
        <time>2020-02-07T13:56:53.000Z</time>
      </trkpt>
      <trkpt lat="44.75326" lon="5.03777">
        <ele>393</ele>
        <time>2020-02-07T13:56:54.000Z</time>
      </trkpt>
      <trkpt lat="44.75326" lon="5.03776">
        <ele>393</ele>
        <time>2020-02-07T13:56:55.000Z</time>
      </trkpt>
      <trkpt lat="44.75326" lon="5.03775">
        <ele>393</ele>
        <time>2020-02-07T13:56:56.000Z</time>
      </trkpt>
      <trkpt lat="44.75327" lon="5.03774">
        <ele>394</ele>
        <time>2020-02-07T13:56:57.000Z</time>
      </trkpt>
      <trkpt lat="44.75327" lon="5.03773">
        <ele>394</ele>
        <time>2020-02-07T13:56:58.000Z</time>
      </trkpt>
      <trkpt lat="44.75328" lon="5.03772">
        <ele>394</ele>
        <time>2020-02-07T13:56:59.000Z</time>
      </trkpt>
      <trkpt lat="44.75328" lon="5.03772">
        <ele>394</ele>
        <time>2020-02-07T13:57:00.000Z</time>
      </trkpt>
      <trkpt lat="44.75328" lon="5.03771">
        <ele>394</ele>
        <time>2020-02-07T13:57:01.000Z</time>
      </trkpt>
      <trkpt lat="44.75329" lon="5.0377">
        <ele>394</ele>
        <time>2020-02-07T13:57:02.000Z</time>
      </trkpt>
      <trkpt lat="44.7533" lon="5.0377">
        <ele>394</ele>
        <time>2020-02-07T13:57:03.000Z</time>
      </trkpt>
      <trkpt lat="44.7533" lon="5.03769">
        <ele>394</ele>
        <time>2020-02-07T13:57:04.000Z</time>
      </trkpt>
      <trkpt lat="44.75331" lon="5.03769">
        <ele>394</ele>
        <time>2020-02-07T13:57:05.000Z</time>
      </trkpt>
      <trkpt lat="44.75331" lon="5.03769">
        <ele>394</ele>
        <time>2020-02-07T13:57:06.000Z</time>
      </trkpt>
      <trkpt lat="44.75331" lon="5.03769">
        <ele>394</ele>
        <time>2020-02-07T13:57:07.000Z</time>
      </trkpt>
      <trkpt lat="44.75331" lon="5.03769">
        <ele>394</ele>
        <time>2020-02-07T13:57:08.000Z</time>
      </trkpt>
      <trkpt lat="44.75331" lon="5.03769">
        <ele>394</ele>
        <time>2020-02-07T13:57:09.000Z</time>
      </trkpt>
      <trkpt lat="44.75331" lon="5.03768">
        <ele>394</ele>
        <time>2020-02-07T13:57:10.000Z</time>
      </trkpt>
      <trkpt lat="44.75331" lon="5.03768">
        <ele>394</ele>
        <time>2020-02-07T13:57:11.000Z</time>
      </trkpt>
      <trkpt lat="44.75331" lon="5.03769">
        <ele>394</ele>
        <time>2020-02-07T13:57:12.000Z</time>
      </trkpt>
      <trkpt lat="44.75331" lon="5.03768">
        <ele>394</ele>
        <time>2020-02-07T13:57:13.000Z</time>
      </trkpt>
      <trkpt lat="44.75331" lon="5.03768">
        <ele>394</ele>
        <time>2020-02-07T13:57:14.000Z</time>
      </trkpt>
      <trkpt lat="44.75331" lon="5.03768">
        <ele>394</ele>
        <time>2020-02-07T13:57:15.000Z</time>
      </trkpt>
      <trkpt lat="44.75331" lon="5.03768">
        <ele>394</ele>
        <time>2020-02-07T13:57:16.000Z</time>
      </trkpt>
      <trkpt lat="44.75331" lon="5.03768">
        <ele>394</ele>
        <time>2020-02-07T13:57:17.000Z</time>
      </trkpt>
      <trkpt lat="44.75331" lon="5.03768">
        <ele>394</ele>
        <time>2020-02-07T13:57:18.000Z</time>
      </trkpt>
      <trkpt lat="44.75331" lon="5.03768">
        <ele>394</ele>
        <time>2020-02-07T13:57:19.000Z</time>
      </trkpt>
      <trkpt lat="44.75331" lon="5.03768">
        <ele>394</ele>
        <time>2020-02-07T13:57:20.000Z</time>
      </trkpt>
      <trkpt lat="44.75331" lon="5.03768">
        <ele>394</ele>
        <time>2020-02-07T13:57:21.000Z</time>
      </trkpt>
      <trkpt lat="44.75331" lon="5.03768">
        <ele>394</ele>
        <time>2020-02-07T13:57:22.000Z</time>
      </trkpt>
      <trkpt lat="44.75331" lon="5.03768">
        <ele>394</ele>
        <time>2020-02-07T13:57:23.000Z</time>
      </trkpt>
      <trkpt lat="44.75331" lon="5.03769">
        <ele>394</ele>
        <time>2020-02-07T13:57:24.000Z</time>
      </trkpt>
      <trkpt lat="44.7533" lon="5.03769">
        <ele>394</ele>
        <time>2020-02-07T13:57:25.000Z</time>
      </trkpt>
      <trkpt lat="44.7533" lon="5.0377">
        <ele>394</ele>
        <time>2020-02-07T13:57:26.000Z</time>
      </trkpt>
      <trkpt lat="44.75329" lon="5.0377">
        <ele>394</ele>
        <time>2020-02-07T13:57:27.000Z</time>
      </trkpt>
      <trkpt lat="44.75328" lon="5.0377">
        <ele>394</ele>
        <time>2020-02-07T13:57:28.000Z</time>
      </trkpt>
      <trkpt lat="44.75327" lon="5.03771">
        <ele>393</ele>
        <time>2020-02-07T13:57:29.000Z</time>
      </trkpt>
      <trkpt lat="44.75326" lon="5.03771">
        <ele>393</ele>
        <time>2020-02-07T13:57:30.000Z</time>
      </trkpt>
      <trkpt lat="44.75325" lon="5.03772">
        <ele>393</ele>
        <time>2020-02-07T13:57:31.000Z</time>
      </trkpt>
      <trkpt lat="44.75324" lon="5.03772">
        <ele>393</ele>
        <time>2020-02-07T13:57:32.000Z</time>
      </trkpt>
      <trkpt lat="44.75323" lon="5.03772">
        <ele>393</ele>
        <time>2020-02-07T13:57:33.000Z</time>
      </trkpt>
      <trkpt lat="44.75322" lon="5.03773">
        <ele>393</ele>
        <time>2020-02-07T13:57:34.000Z</time>
      </trkpt>
      <trkpt lat="44.75321" lon="5.03773">
        <ele>393</ele>
        <time>2020-02-07T13:57:35.000Z</time>
      </trkpt>
      <trkpt lat="44.7532" lon="5.03773">
        <ele>394</ele>
        <time>2020-02-07T13:57:36.000Z</time>
      </trkpt>
      <trkpt lat="44.75319" lon="5.03774">
        <ele>394</ele>
        <time>2020-02-07T13:57:37.000Z</time>
      </trkpt>
      <trkpt lat="44.75317" lon="5.03774">
        <ele>394</ele>
        <time>2020-02-07T13:57:38.000Z</time>
      </trkpt>
      <trkpt lat="44.75316" lon="5.03775">
        <ele>394</ele>
        <time>2020-02-07T13:57:39.000Z</time>
      </trkpt>
      <trkpt lat="44.75315" lon="5.03775">
        <ele>394</ele>
        <time>2020-02-07T13:57:40.000Z</time>
      </trkpt>
      <trkpt lat="44.75314" lon="5.03775">
        <ele>394</ele>
        <time>2020-02-07T13:57:41.000Z</time>
      </trkpt>
      <trkpt lat="44.75313" lon="5.03775">
        <ele>394</ele>
        <time>2020-02-07T13:57:42.000Z</time>
      </trkpt>
      <trkpt lat="44.75312" lon="5.03775">
        <ele>395</ele>
        <time>2020-02-07T13:57:43.000Z</time>
      </trkpt>
      <trkpt lat="44.7531" lon="5.03775">
        <ele>395</ele>
        <time>2020-02-07T13:57:44.000Z</time>
      </trkpt>
      <trkpt lat="44.75309" lon="5.03775">
        <ele>395</ele>
        <time>2020-02-07T13:57:45.000Z</time>
      </trkpt>
      <trkpt lat="44.75308" lon="5.03775">
        <ele>395</ele>
        <time>2020-02-07T13:57:46.000Z</time>
      </trkpt>
      <trkpt lat="44.75307" lon="5.03774">
        <ele>395</ele>
        <time>2020-02-07T13:57:47.000Z</time>
      </trkpt>
      <trkpt lat="44.75306" lon="5.03774">
        <ele>395</ele>
        <time>2020-02-07T13:57:48.000Z</time>
      </trkpt>
      <trkpt lat="44.75305" lon="5.03774">
        <ele>395</ele>
        <time>2020-02-07T13:57:49.000Z</time>
      </trkpt>
      <trkpt lat="44.75303" lon="5.03774">
        <ele>395</ele>
        <time>2020-02-07T13:57:50.000Z</time>
      </trkpt>
      <trkpt lat="44.75302" lon="5.03773">
        <ele>395</ele>
        <time>2020-02-07T13:57:51.000Z</time>
      </trkpt>
      <trkpt lat="44.75301" lon="5.03773">
        <ele>395</ele>
        <time>2020-02-07T13:57:52.000Z</time>
      </trkpt>
      <trkpt lat="44.753" lon="5.03772">
        <ele>396</ele>
        <time>2020-02-07T13:57:53.000Z</time>
      </trkpt>
      <trkpt lat="44.75299" lon="5.03772">
        <ele>396</ele>
        <time>2020-02-07T13:57:54.000Z</time>
      </trkpt>
      <trkpt lat="44.75298" lon="5.03772">
        <ele>396</ele>
        <time>2020-02-07T13:57:55.000Z</time>
      </trkpt>
      <trkpt lat="44.75297" lon="5.03771">
        <ele>396</ele>
        <time>2020-02-07T13:57:56.000Z</time>
      </trkpt>
      <trkpt lat="44.75296" lon="5.03771">
        <ele>396</ele>
        <time>2020-02-07T13:57:57.000Z</time>
      </trkpt>
      <trkpt lat="44.75295" lon="5.03771">
        <ele>396</ele>
        <time>2020-02-07T13:57:58.000Z</time>
      </trkpt>
      <trkpt lat="44.75294" lon="5.0377">
        <ele>396</ele>
        <time>2020-02-07T13:57:59.000Z</time>
      </trkpt>
      <trkpt lat="44.75294" lon="5.0377">
        <ele>396</ele>
        <time>2020-02-07T13:58:00.000Z</time>
      </trkpt>
      <trkpt lat="44.75294" lon="5.0377">
        <ele>396</ele>
        <time>2020-02-07T13:58:01.000Z</time>
      </trkpt>
      <trkpt lat="44.75294" lon="5.0377">
        <ele>396</ele>
        <time>2020-02-07T13:58:02.000Z</time>
      </trkpt>
      <trkpt lat="44.75294" lon="5.0377">
        <ele>396</ele>
        <time>2020-02-07T13:58:03.000Z</time>
      </trkpt>
      <trkpt lat="44.75294" lon="5.0377">
        <ele>396</ele>
        <time>2020-02-07T13:58:04.000Z</time>
      </trkpt>
      <trkpt lat="44.75294" lon="5.0377">
        <ele>396</ele>
        <time>2020-02-07T13:58:05.000Z</time>
      </trkpt>
      <trkpt lat="44.75294" lon="5.0377">
        <ele>396</ele>
        <time>2020-02-07T13:58:06.000Z</time>
      </trkpt>
      <trkpt lat="44.75294" lon="5.0377">
        <ele>396</ele>
        <time>2020-02-07T13:58:07.000Z</time>
      </trkpt>
      <trkpt lat="44.75294" lon="5.0377">
        <ele>396</ele>
        <time>2020-02-07T13:58:08.000Z</time>
      </trkpt>
      <trkpt lat="44.75293" lon="5.0377">
        <ele>397</ele>
        <time>2020-02-07T13:58:09.000Z</time>
      </trkpt>
      <trkpt lat="44.75292" lon="5.0377">
        <ele>397</ele>
        <time>2020-02-07T13:58:10.000Z</time>
      </trkpt>
      <trkpt lat="44.75291" lon="5.03769">
        <ele>397</ele>
        <time>2020-02-07T13:58:11.000Z</time>
      </trkpt>
      <trkpt lat="44.7529" lon="5.03769">
        <ele>397</ele>
        <time>2020-02-07T13:58:12.000Z</time>
      </trkpt>
      <trkpt lat="44.75289" lon="5.03769">
        <ele>397</ele>
        <time>2020-02-07T13:58:13.000Z</time>
      </trkpt>
      <trkpt lat="44.75287" lon="5.03769">
        <ele>397</ele>
        <time>2020-02-07T13:58:14.000Z</time>
      </trkpt>
      <trkpt lat="44.75286" lon="5.03768">
        <ele>398</ele>
        <time>2020-02-07T13:58:15.000Z</time>
      </trkpt>
      <trkpt lat="44.75285" lon="5.03768">
        <ele>398</ele>
        <time>2020-02-07T13:58:16.000Z</time>
      </trkpt>
      <trkpt lat="44.75284" lon="5.03768">
        <ele>398</ele>
        <time>2020-02-07T13:58:17.000Z</time>
      </trkpt>
      <trkpt lat="44.75283" lon="5.03767">
        <ele>398</ele>
        <time>2020-02-07T13:58:18.000Z</time>
      </trkpt>
      <trkpt lat="44.75282" lon="5.03767">
        <ele>398</ele>
        <time>2020-02-07T13:58:19.000Z</time>
      </trkpt>
      <trkpt lat="44.75281" lon="5.03767">
        <ele>398</ele>
        <time>2020-02-07T13:58:20.000Z</time>
      </trkpt>
      <trkpt lat="44.7528" lon="5.03766">
        <ele>398</ele>
        <time>2020-02-07T13:58:21.000Z</time>
      </trkpt>
      <trkpt lat="44.75278" lon="5.03766">
        <ele>398</ele>
        <time>2020-02-07T13:58:22.000Z</time>
      </trkpt>
      <trkpt lat="44.75277" lon="5.03765">
        <ele>398</ele>
        <time>2020-02-07T13:58:23.000Z</time>
      </trkpt>
      <trkpt lat="44.75276" lon="5.03765">
        <ele>398</ele>
        <time>2020-02-07T13:58:24.000Z</time>
      </trkpt>
      <trkpt lat="44.75275" lon="5.03764">
        <ele>398</ele>
        <time>2020-02-07T13:58:25.000Z</time>
      </trkpt>
      <trkpt lat="44.75274" lon="5.03764">
        <ele>398</ele>
        <time>2020-02-07T13:58:26.000Z</time>
      </trkpt>
      <trkpt lat="44.75273" lon="5.03764">
        <ele>398</ele>
        <time>2020-02-07T13:58:27.000Z</time>
      </trkpt>
      <trkpt lat="44.75272" lon="5.03763">
        <ele>398</ele>
        <time>2020-02-07T13:58:28.000Z</time>
      </trkpt>
      <trkpt lat="44.75271" lon="5.03762">
        <ele>398</ele>
        <time>2020-02-07T13:58:29.000Z</time>
      </trkpt>
      <trkpt lat="44.7527" lon="5.03762">
        <ele>398</ele>
        <time>2020-02-07T13:58:30.000Z</time>
      </trkpt>
      <trkpt lat="44.75269" lon="5.03762">
        <ele>398</ele>
        <time>2020-02-07T13:58:31.000Z</time>
      </trkpt>
      <trkpt lat="44.75268" lon="5.03761">
        <ele>398</ele>
        <time>2020-02-07T13:58:32.000Z</time>
      </trkpt>
      <trkpt lat="44.75267" lon="5.0376">
        <ele>398</ele>
        <time>2020-02-07T13:58:33.000Z</time>
      </trkpt>
      <trkpt lat="44.75267" lon="5.0376">
        <ele>398</ele>
        <time>2020-02-07T13:58:34.000Z</time>
      </trkpt>
      <trkpt lat="44.75266" lon="5.0376">
        <ele>398</ele>
        <time>2020-02-07T13:58:35.000Z</time>
      </trkpt>
      <trkpt lat="44.75265" lon="5.03759">
        <ele>398</ele>
        <time>2020-02-07T13:58:36.000Z</time>
      </trkpt>
      <trkpt lat="44.75264" lon="5.03759">
        <ele>398</ele>
        <time>2020-02-07T13:58:37.000Z</time>
      </trkpt>
      <trkpt lat="44.75263" lon="5.03759">
        <ele>398</ele>
        <time>2020-02-07T13:58:38.000Z</time>
      </trkpt>
      <trkpt lat="44.75262" lon="5.03759">
        <ele>398</ele>
        <time>2020-02-07T13:58:39.000Z</time>
      </trkpt>
      <trkpt lat="44.75261" lon="5.03759">
        <ele>398</ele>
        <time>2020-02-07T13:58:40.000Z</time>
      </trkpt>
      <trkpt lat="44.7526" lon="5.03759">
        <ele>398</ele>
        <time>2020-02-07T13:58:41.000Z</time>
      </trkpt>
      <trkpt lat="44.75259" lon="5.03759">
        <ele>399</ele>
        <time>2020-02-07T13:58:42.000Z</time>
      </trkpt>
      <trkpt lat="44.75258" lon="5.03759">
        <ele>399</ele>
        <time>2020-02-07T13:58:43.000Z</time>
      </trkpt>
      <trkpt lat="44.75257" lon="5.03759">
        <ele>399</ele>
        <time>2020-02-07T13:58:44.000Z</time>
      </trkpt>
      <trkpt lat="44.75256" lon="5.03759">
        <ele>399</ele>
        <time>2020-02-07T13:58:45.000Z</time>
      </trkpt>
      <trkpt lat="44.75255" lon="5.03759">
        <ele>399</ele>
        <time>2020-02-07T13:58:46.000Z</time>
      </trkpt>
      <trkpt lat="44.75254" lon="5.03758">
        <ele>399</ele>
        <time>2020-02-07T13:58:47.000Z</time>
      </trkpt>
      <trkpt lat="44.75253" lon="5.03758">
        <ele>399</ele>
        <time>2020-02-07T13:58:48.000Z</time>
      </trkpt>
      <trkpt lat="44.75251" lon="5.03758">
        <ele>399</ele>
        <time>2020-02-07T13:58:49.000Z</time>
      </trkpt>
      <trkpt lat="44.7525" lon="5.03758">
        <ele>399</ele>
        <time>2020-02-07T13:58:50.000Z</time>
      </trkpt>
      <trkpt lat="44.75249" lon="5.03758">
        <ele>399</ele>
        <time>2020-02-07T13:58:51.000Z</time>
      </trkpt>
      <trkpt lat="44.75248" lon="5.03758">
        <ele>399</ele>
        <time>2020-02-07T13:58:52.000Z</time>
      </trkpt>
      <trkpt lat="44.75247" lon="5.03758">
        <ele>399</ele>
        <time>2020-02-07T13:58:53.000Z</time>
      </trkpt>
      <trkpt lat="44.75246" lon="5.03758">
        <ele>399</ele>
        <time>2020-02-07T13:58:54.000Z</time>
      </trkpt>
      <trkpt lat="44.75245" lon="5.03758">
        <ele>399</ele>
        <time>2020-02-07T13:58:55.000Z</time>
      </trkpt>
      <trkpt lat="44.75244" lon="5.03758">
        <ele>399</ele>
        <time>2020-02-07T13:58:56.000Z</time>
      </trkpt>
      <trkpt lat="44.75243" lon="5.03759">
        <ele>399</ele>
        <time>2020-02-07T13:58:57.000Z</time>
      </trkpt>
      <trkpt lat="44.75242" lon="5.03759">
        <ele>399</ele>
        <time>2020-02-07T13:58:58.000Z</time>
      </trkpt>
      <trkpt lat="44.75241" lon="5.03759">
        <ele>399</ele>
        <time>2020-02-07T13:58:59.000Z</time>
      </trkpt>
      <trkpt lat="44.7524" lon="5.03759">
        <ele>399</ele>
        <time>2020-02-07T13:59:00.000Z</time>
      </trkpt>
      <trkpt lat="44.75239" lon="5.03758">
        <ele>399</ele>
        <time>2020-02-07T13:59:01.000Z</time>
      </trkpt>
      <trkpt lat="44.75238" lon="5.03758">
        <ele>399</ele>
        <time>2020-02-07T13:59:02.000Z</time>
      </trkpt>
      <trkpt lat="44.75237" lon="5.03759">
        <ele>399</ele>
        <time>2020-02-07T13:59:03.000Z</time>
      </trkpt>
      <trkpt lat="44.75236" lon="5.03759">
        <ele>399</ele>
        <time>2020-02-07T13:59:04.000Z</time>
      </trkpt>
      <trkpt lat="44.75235" lon="5.03759">
        <ele>399</ele>
        <time>2020-02-07T13:59:05.000Z</time>
      </trkpt>
      <trkpt lat="44.75234" lon="5.03759">
        <ele>399</ele>
        <time>2020-02-07T13:59:06.000Z</time>
      </trkpt>
      <trkpt lat="44.75233" lon="5.03759">
        <ele>399</ele>
        <time>2020-02-07T13:59:07.000Z</time>
      </trkpt>
      <trkpt lat="44.75233" lon="5.03759">
        <ele>399</ele>
        <time>2020-02-07T13:59:08.000Z</time>
      </trkpt>
      <trkpt lat="44.75232" lon="5.03759">
        <ele>399</ele>
        <time>2020-02-07T13:59:09.000Z</time>
      </trkpt>
      <trkpt lat="44.75231" lon="5.03759">
        <ele>399</ele>
        <time>2020-02-07T13:59:10.000Z</time>
      </trkpt>
      <trkpt lat="44.7523" lon="5.0376">
        <ele>399</ele>
        <time>2020-02-07T13:59:11.000Z</time>
      </trkpt>
      <trkpt lat="44.75229" lon="5.03759">
        <ele>399</ele>
        <time>2020-02-07T13:59:12.000Z</time>
      </trkpt>
      <trkpt lat="44.75228" lon="5.03759">
        <ele>399</ele>
        <time>2020-02-07T13:59:13.000Z</time>
      </trkpt>
      <trkpt lat="44.75228" lon="5.03759">
        <ele>399</ele>
        <time>2020-02-07T13:59:14.000Z</time>
      </trkpt>
      <trkpt lat="44.75227" lon="5.03759">
        <ele>399</ele>
        <time>2020-02-07T13:59:15.000Z</time>
      </trkpt>
      <trkpt lat="44.75226" lon="5.03759">
        <ele>399</ele>
        <time>2020-02-07T13:59:16.000Z</time>
      </trkpt>
      <trkpt lat="44.75226" lon="5.03759">
        <ele>399</ele>
        <time>2020-02-07T13:59:17.000Z</time>
      </trkpt>
      <trkpt lat="44.75225" lon="5.03758">
        <ele>399</ele>
        <time>2020-02-07T13:59:18.000Z</time>
      </trkpt>
      <trkpt lat="44.75225" lon="5.03758">
        <ele>399</ele>
        <time>2020-02-07T13:59:19.000Z</time>
      </trkpt>
      <trkpt lat="44.75225" lon="5.03758">
        <ele>399</ele>
        <time>2020-02-07T13:59:20.000Z</time>
      </trkpt>
      <trkpt lat="44.75225" lon="5.03758">
        <ele>399</ele>
        <time>2020-02-07T13:59:21.000Z</time>
      </trkpt>
      <trkpt lat="44.75225" lon="5.03758">
        <ele>399</ele>
        <time>2020-02-07T13:59:22.000Z</time>
      </trkpt>
      <trkpt lat="44.75225" lon="5.03758">
        <ele>399</ele>
        <time>2020-02-07T13:59:23.000Z</time>
      </trkpt>
      <trkpt lat="44.75225" lon="5.03758">
        <ele>399</ele>
        <time>2020-02-07T13:59:24.000Z</time>
      </trkpt>
      <trkpt lat="44.75225" lon="5.03758">
        <ele>399</ele>
        <time>2020-02-07T13:59:25.000Z</time>
      </trkpt>
      <trkpt lat="44.75225" lon="5.03758">
        <ele>399</ele>
        <time>2020-02-07T13:59:26.000Z</time>
      </trkpt>
      <trkpt lat="44.75225" lon="5.03758">
        <ele>399</ele>
        <time>2020-02-07T13:59:27.000Z</time>
      </trkpt>
      <trkpt lat="44.75225" lon="5.03758">
        <ele>399</ele>
        <time>2020-02-07T13:59:28.000Z</time>
      </trkpt>
      <trkpt lat="44.75225" lon="5.03758">
        <ele>399</ele>
        <time>2020-02-07T13:59:29.000Z</time>
      </trkpt>
      <trkpt lat="44.75225" lon="5.03758">
        <ele>399</ele>
        <time>2020-02-07T13:59:30.000Z</time>
      </trkpt>
      <trkpt lat="44.75225" lon="5.03758">
        <ele>399</ele>
        <time>2020-02-07T13:59:31.000Z</time>
      </trkpt>
      <trkpt lat="44.75225" lon="5.03758">
        <ele>399</ele>
        <time>2020-02-07T13:59:32.000Z</time>
      </trkpt>
      <trkpt lat="44.75225" lon="5.03758">
        <ele>400</ele>
        <time>2020-02-07T13:59:33.000Z</time>
      </trkpt>
      <trkpt lat="44.75225" lon="5.03758">
        <ele>400</ele>
        <time>2020-02-07T13:59:34.000Z</time>
      </trkpt>
      <trkpt lat="44.75225" lon="5.03758">
        <ele>400</ele>
        <time>2020-02-07T13:59:35.000Z</time>
      </trkpt>
      <trkpt lat="44.75225" lon="5.03758">
        <ele>400</ele>
        <time>2020-02-07T13:59:36.000Z</time>
      </trkpt>
      <trkpt lat="44.75225" lon="5.03758">
        <ele>400</ele>
        <time>2020-02-07T13:59:37.000Z</time>
      </trkpt>
      <trkpt lat="44.75225" lon="5.03758">
        <ele>400</ele>
        <time>2020-02-07T13:59:38.000Z</time>
      </trkpt>
      <trkpt lat="44.75225" lon="5.03758">
        <ele>400</ele>
        <time>2020-02-07T13:59:39.000Z</time>
      </trkpt>
      <trkpt lat="44.75225" lon="5.03758">
        <ele>400</ele>
        <time>2020-02-07T13:59:40.000Z</time>
      </trkpt>
      <trkpt lat="44.75225" lon="5.03758">
        <ele>400</ele>
        <time>2020-02-07T13:59:41.000Z</time>
      </trkpt>
      <trkpt lat="44.75225" lon="5.03758">
        <ele>400</ele>
        <time>2020-02-07T13:59:42.000Z</time>
      </trkpt>
      <trkpt lat="44.75225" lon="5.03758">
        <ele>400</ele>
        <time>2020-02-07T13:59:43.000Z</time>
      </trkpt>
      <trkpt lat="44.75225" lon="5.03758">
        <ele>400</ele>
        <time>2020-02-07T13:59:44.000Z</time>
      </trkpt>
      <trkpt lat="44.75225" lon="5.03758">
        <ele>400</ele>
        <time>2020-02-07T13:59:45.000Z</time>
      </trkpt>
      <trkpt lat="44.75225" lon="5.03758">
        <ele>400</ele>
        <time>2020-02-07T13:59:46.000Z</time>
      </trkpt>
      <trkpt lat="44.75225" lon="5.03758">
        <ele>400</ele>
        <time>2020-02-07T13:59:47.000Z</time>
      </trkpt>
      <trkpt lat="44.75225" lon="5.03758">
        <ele>400</ele>
        <time>2020-02-07T13:59:48.000Z</time>
      </trkpt>
      <trkpt lat="44.75225" lon="5.03758">
        <ele>400</ele>
        <time>2020-02-07T13:59:49.000Z</time>
      </trkpt>
      <trkpt lat="44.75225" lon="5.03758">
        <ele>400</ele>
        <time>2020-02-07T13:59:50.000Z</time>
      </trkpt>
      <trkpt lat="44.75225" lon="5.03758">
        <ele>400</ele>
        <time>2020-02-07T13:59:51.000Z</time>
      </trkpt>
      <trkpt lat="44.75225" lon="5.03758">
        <ele>400</ele>
        <time>2020-02-07T13:59:52.000Z</time>
      </trkpt>
      <trkpt lat="44.75225" lon="5.03758">
        <ele>400</ele>
        <time>2020-02-07T13:59:53.000Z</time>
      </trkpt>
      <trkpt lat="44.75225" lon="5.03758">
        <ele>400</ele>
        <time>2020-02-07T13:59:54.000Z</time>
      </trkpt>
      <trkpt lat="44.75225" lon="5.03758">
        <ele>400</ele>
        <time>2020-02-07T13:59:55.000Z</time>
      </trkpt>
      <trkpt lat="44.75225" lon="5.03758">
        <ele>400</ele>
        <time>2020-02-07T13:59:56.000Z</time>
      </trkpt>
      <trkpt lat="44.75225" lon="5.03758">
        <ele>400</ele>
        <time>2020-02-07T13:59:57.000Z</time>
      </trkpt>
      <trkpt lat="44.75225" lon="5.03757">
        <ele>400</ele>
        <time>2020-02-07T13:59:58.000Z</time>
      </trkpt>
      <trkpt lat="44.75225" lon="5.03757">
        <ele>400</ele>
        <time>2020-02-07T13:59:59.000Z</time>
      </trkpt>
      <trkpt lat="44.75225" lon="5.03757">
        <ele>400</ele>
        <time>2020-02-07T14:00:00.000Z</time>
      </trkpt>
      <trkpt lat="44.75225" lon="5.03757">
        <ele>400</ele>
        <time>2020-02-07T14:00:01.000Z</time>
      </trkpt>
      <trkpt lat="44.75225" lon="5.03757">
        <ele>400</ele>
        <time>2020-02-07T14:00:02.000Z</time>
      </trkpt>
      <trkpt lat="44.75225" lon="5.03757">
        <ele>400</ele>
        <time>2020-02-07T14:00:03.000Z</time>
      </trkpt>
      <trkpt lat="44.75225" lon="5.03757">
        <ele>400</ele>
        <time>2020-02-07T14:00:04.000Z</time>
      </trkpt>
      <trkpt lat="44.75225" lon="5.03757">
        <ele>400</ele>
        <time>2020-02-07T14:00:05.000Z</time>
      </trkpt>
      <trkpt lat="44.75225" lon="5.03757">
        <ele>400</ele>
        <time>2020-02-07T14:00:06.000Z</time>
      </trkpt>
      <trkpt lat="44.75225" lon="5.03757">
        <ele>400</ele>
        <time>2020-02-07T14:00:07.000Z</time>
      </trkpt>
      <trkpt lat="44.75225" lon="5.03757">
        <ele>400</ele>
        <time>2020-02-07T14:00:08.000Z</time>
      </trkpt>
      <trkpt lat="44.75225" lon="5.03758">
        <ele>400</ele>
        <time>2020-02-07T14:00:09.000Z</time>
      </trkpt>
      <trkpt lat="44.75225" lon="5.03758">
        <ele>400</ele>
        <time>2020-02-07T14:00:10.000Z</time>
      </trkpt>
      <trkpt lat="44.75225" lon="5.03758">
        <ele>400</ele>
        <time>2020-02-07T14:00:11.000Z</time>
      </trkpt>
      <trkpt lat="44.75225" lon="5.03758">
        <ele>400</ele>
        <time>2020-02-07T14:00:12.000Z</time>
      </trkpt>
      <trkpt lat="44.75225" lon="5.03758">
        <ele>400</ele>
        <time>2020-02-07T14:00:13.000Z</time>
      </trkpt>
      <trkpt lat="44.75225" lon="5.03758">
        <ele>400</ele>
        <time>2020-02-07T14:00:14.000Z</time>
      </trkpt>
      <trkpt lat="44.75225" lon="5.03758">
        <ele>400</ele>
        <time>2020-02-07T14:00:15.000Z</time>
      </trkpt>
      <trkpt lat="44.75225" lon="5.03758">
        <ele>400</ele>
        <time>2020-02-07T14:00:16.000Z</time>
      </trkpt>
      <trkpt lat="44.75225" lon="5.03758">
        <ele>400</ele>
        <time>2020-02-07T14:00:17.000Z</time>
      </trkpt>
      <trkpt lat="44.75225" lon="5.03758">
        <ele>400</ele>
        <time>2020-02-07T14:00:18.000Z</time>
      </trkpt>
      <trkpt lat="44.75225" lon="5.03758">
        <ele>400</ele>
        <time>2020-02-07T14:00:19.000Z</time>
      </trkpt>
      <trkpt lat="44.75225" lon="5.03758">
        <ele>400</ele>
        <time>2020-02-07T14:00:20.000Z</time>
      </trkpt>
      <trkpt lat="44.75225" lon="5.03758">
        <ele>400</ele>
        <time>2020-02-07T14:00:21.000Z</time>
      </trkpt>
      <trkpt lat="44.75225" lon="5.03758">
        <ele>400</ele>
        <time>2020-02-07T14:00:22.000Z</time>
      </trkpt>
      <trkpt lat="44.75225" lon="5.03757">
        <ele>401</ele>
        <time>2020-02-07T14:00:23.000Z</time>
      </trkpt>
      <trkpt lat="44.75225" lon="5.03757">
        <ele>401</ele>
        <time>2020-02-07T14:00:24.000Z</time>
      </trkpt>
      <trkpt lat="44.75225" lon="5.03757">
        <ele>401</ele>
        <time>2020-02-07T14:00:25.000Z</time>
      </trkpt>
      <trkpt lat="44.75225" lon="5.03757">
        <ele>401</ele>
        <time>2020-02-07T14:00:26.000Z</time>
      </trkpt>
      <trkpt lat="44.75225" lon="5.03757">
        <ele>401</ele>
        <time>2020-02-07T14:00:27.000Z</time>
      </trkpt>
      <trkpt lat="44.75225" lon="5.03757">
        <ele>401</ele>
        <time>2020-02-07T14:00:28.000Z</time>
      </trkpt>
      <trkpt lat="44.75225" lon="5.03757">
        <ele>401</ele>
        <time>2020-02-07T14:00:29.000Z</time>
      </trkpt>
      <trkpt lat="44.75225" lon="5.03757">
        <ele>401</ele>
        <time>2020-02-07T14:00:30.000Z</time>
      </trkpt>
      <trkpt lat="44.75225" lon="5.03757">
        <ele>401</ele>
        <time>2020-02-07T14:00:31.000Z</time>
      </trkpt>
      <trkpt lat="44.75225" lon="5.03757">
        <ele>401</ele>
        <time>2020-02-07T14:00:32.000Z</time>
      </trkpt>
      <trkpt lat="44.75225" lon="5.03757">
        <ele>401</ele>
        <time>2020-02-07T14:00:33.000Z</time>
      </trkpt>
      <trkpt lat="44.75225" lon="5.03757">
        <ele>401</ele>
        <time>2020-02-07T14:00:34.000Z</time>
      </trkpt>
      <trkpt lat="44.75224" lon="5.03757">
        <ele>401</ele>
        <time>2020-02-07T14:00:35.000Z</time>
      </trkpt>
      <trkpt lat="44.75225" lon="5.03757">
        <ele>401</ele>
        <time>2020-02-07T14:00:36.000Z</time>
      </trkpt>
      <trkpt lat="44.75225" lon="5.03757">
        <ele>401</ele>
        <time>2020-02-07T14:00:37.000Z</time>
      </trkpt>
      <trkpt lat="44.75225" lon="5.03757">
        <ele>400</ele>
        <time>2020-02-07T14:00:38.000Z</time>
      </trkpt>
      <trkpt lat="44.75225" lon="5.03757">
        <ele>400</ele>
        <time>2020-02-07T14:00:39.000Z</time>
      </trkpt>
      <trkpt lat="44.75225" lon="5.03757">
        <ele>400</ele>
        <time>2020-02-07T14:00:40.000Z</time>
      </trkpt>
      <trkpt lat="44.75225" lon="5.03757">
        <ele>400</ele>
        <time>2020-02-07T14:00:41.000Z</time>
      </trkpt>
      <trkpt lat="44.75225" lon="5.03758">
        <ele>400</ele>
        <time>2020-02-07T14:00:42.000Z</time>
      </trkpt>
      <trkpt lat="44.75225" lon="5.03758">
        <ele>400</ele>
        <time>2020-02-07T14:00:43.000Z</time>
      </trkpt>
      <trkpt lat="44.75225" lon="5.03758">
        <ele>400</ele>
        <time>2020-02-07T14:00:44.000Z</time>
      </trkpt>
      <trkpt lat="44.75225" lon="5.03758">
        <ele>400</ele>
        <time>2020-02-07T14:00:45.000Z</time>
      </trkpt>
      <trkpt lat="44.75225" lon="5.03758">
        <ele>400</ele>
        <time>2020-02-07T14:00:46.000Z</time>
      </trkpt>
      <trkpt lat="44.75225" lon="5.03758">
        <ele>400</ele>
        <time>2020-02-07T14:00:47.000Z</time>
      </trkpt>
      <trkpt lat="44.75225" lon="5.03758">
        <ele>400</ele>
        <time>2020-02-07T14:00:48.000Z</time>
      </trkpt>
      <trkpt lat="44.75225" lon="5.03758">
        <ele>400</ele>
        <time>2020-02-07T14:00:49.000Z</time>
      </trkpt>
      <trkpt lat="44.75225" lon="5.03758">
        <ele>400</ele>
        <time>2020-02-07T14:00:50.000Z</time>
      </trkpt>
      <trkpt lat="44.75225" lon="5.03757">
        <ele>400</ele>
        <time>2020-02-07T14:00:51.000Z</time>
      </trkpt>
      <trkpt lat="44.75225" lon="5.03757">
        <ele>400</ele>
        <time>2020-02-07T14:00:52.000Z</time>
      </trkpt>
      <trkpt lat="44.75225" lon="5.03757">
        <ele>400</ele>
        <time>2020-02-07T14:00:53.000Z</time>
      </trkpt>
      <trkpt lat="44.75225" lon="5.03757">
        <ele>400</ele>
        <time>2020-02-07T14:00:54.000Z</time>
      </trkpt>
      <trkpt lat="44.75225" lon="5.03757">
        <ele>400</ele>
        <time>2020-02-07T14:00:55.000Z</time>
      </trkpt>
      <trkpt lat="44.75225" lon="5.03757">
        <ele>400</ele>
        <time>2020-02-07T14:00:56.000Z</time>
      </trkpt>
      <trkpt lat="44.75225" lon="5.03757">
        <ele>400</ele>
        <time>2020-02-07T14:00:57.000Z</time>
      </trkpt>
      <trkpt lat="44.75225" lon="5.03757">
        <ele>400</ele>
        <time>2020-02-07T14:00:58.000Z</time>
      </trkpt>
      <trkpt lat="44.75225" lon="5.03757">
        <ele>400</ele>
        <time>2020-02-07T14:00:59.000Z</time>
      </trkpt>
      <trkpt lat="44.75225" lon="5.03757">
        <ele>400</ele>
        <time>2020-02-07T14:01:00.000Z</time>
      </trkpt>
      <trkpt lat="44.75225" lon="5.03757">
        <ele>400</ele>
        <time>2020-02-07T14:01:01.000Z</time>
      </trkpt>
      <trkpt lat="44.75225" lon="5.03757">
        <ele>399</ele>
        <time>2020-02-07T14:01:02.000Z</time>
      </trkpt>
      <trkpt lat="44.75225" lon="5.03757">
        <ele>399</ele>
        <time>2020-02-07T14:01:03.000Z</time>
      </trkpt>
      <trkpt lat="44.75225" lon="5.03757">
        <ele>399</ele>
        <time>2020-02-07T14:01:04.000Z</time>
      </trkpt>
      <trkpt lat="44.75225" lon="5.03757">
        <ele>399</ele>
        <time>2020-02-07T14:01:05.000Z</time>
      </trkpt>
      <trkpt lat="44.75225" lon="5.03757">
        <ele>399</ele>
        <time>2020-02-07T14:01:06.000Z</time>
      </trkpt>
      <trkpt lat="44.75225" lon="5.03757">
        <ele>399</ele>
        <time>2020-02-07T14:01:07.000Z</time>
      </trkpt>
      <trkpt lat="44.75225" lon="5.03757">
        <ele>399</ele>
        <time>2020-02-07T14:01:08.000Z</time>
      </trkpt>
      <trkpt lat="44.75225" lon="5.03757">
        <ele>399</ele>
        <time>2020-02-07T14:01:09.000Z</time>
      </trkpt>
      <trkpt lat="44.75225" lon="5.03757">
        <ele>399</ele>
        <time>2020-02-07T14:01:10.000Z</time>
      </trkpt>
      <trkpt lat="44.75225" lon="5.03757">
        <ele>399</ele>
        <time>2020-02-07T14:01:11.000Z</time>
      </trkpt>
      <trkpt lat="44.75225" lon="5.03756">
        <ele>399</ele>
        <time>2020-02-07T14:01:12.000Z</time>
      </trkpt>
      <trkpt lat="44.75225" lon="5.03756">
        <ele>399</ele>
        <time>2020-02-07T14:01:13.000Z</time>
      </trkpt>
      <trkpt lat="44.75224" lon="5.03756">
        <ele>400</ele>
        <time>2020-02-07T14:01:14.000Z</time>
      </trkpt>
      <trkpt lat="44.75223" lon="5.03756">
        <ele>400</ele>
        <time>2020-02-07T14:01:15.000Z</time>
      </trkpt>
      <trkpt lat="44.75223" lon="5.03757">
        <ele>400</ele>
        <time>2020-02-07T14:01:16.000Z</time>
      </trkpt>
      <trkpt lat="44.75222" lon="5.03757">
        <ele>400</ele>
        <time>2020-02-07T14:01:17.000Z</time>
      </trkpt>
      <trkpt lat="44.75221" lon="5.03756">
        <ele>400</ele>
        <time>2020-02-07T14:01:18.000Z</time>
      </trkpt>
      <trkpt lat="44.7522" lon="5.03756">
        <ele>400</ele>
        <time>2020-02-07T14:01:19.000Z</time>
      </trkpt>
      <trkpt lat="44.75219" lon="5.03756">
        <ele>400</ele>
        <time>2020-02-07T14:01:20.000Z</time>
      </trkpt>
      <trkpt lat="44.75219" lon="5.03756">
        <ele>400</ele>
        <time>2020-02-07T14:01:21.000Z</time>
      </trkpt>
      <trkpt lat="44.75219" lon="5.03757">
        <ele>400</ele>
        <time>2020-02-07T14:01:22.000Z</time>
      </trkpt>
      <trkpt lat="44.75219" lon="5.03757">
        <ele>400</ele>
        <time>2020-02-07T14:01:23.000Z</time>
      </trkpt>
      <trkpt lat="44.75218" lon="5.03756">
        <ele>400</ele>
        <time>2020-02-07T14:01:24.000Z</time>
      </trkpt>
      <trkpt lat="44.75217" lon="5.03756">
        <ele>400</ele>
        <time>2020-02-07T14:01:25.000Z</time>
      </trkpt>
      <trkpt lat="44.75216" lon="5.03756">
        <ele>400</ele>
        <time>2020-02-07T14:01:26.000Z</time>
      </trkpt>
      <trkpt lat="44.75215" lon="5.03756">
        <ele>400</ele>
        <time>2020-02-07T14:01:27.000Z</time>
      </trkpt>
      <trkpt lat="44.75214" lon="5.03756">
        <ele>401</ele>
        <time>2020-02-07T14:01:28.000Z</time>
      </trkpt>
      <trkpt lat="44.75213" lon="5.03755">
        <ele>401</ele>
        <time>2020-02-07T14:01:29.000Z</time>
      </trkpt>
      <trkpt lat="44.75212" lon="5.03755">
        <ele>401</ele>
        <time>2020-02-07T14:01:30.000Z</time>
      </trkpt>
      <trkpt lat="44.75211" lon="5.03755">
        <ele>401</ele>
        <time>2020-02-07T14:01:31.000Z</time>
      </trkpt>
      <trkpt lat="44.7521" lon="5.03754">
        <ele>401</ele>
        <time>2020-02-07T14:01:32.000Z</time>
      </trkpt>
      <trkpt lat="44.75209" lon="5.03754">
        <ele>401</ele>
        <time>2020-02-07T14:01:33.000Z</time>
      </trkpt>
      <trkpt lat="44.75208" lon="5.03754">
        <ele>401</ele>
        <time>2020-02-07T14:01:34.000Z</time>
      </trkpt>
      <trkpt lat="44.75207" lon="5.03754">
        <ele>401</ele>
        <time>2020-02-07T14:01:35.000Z</time>
      </trkpt>
      <trkpt lat="44.75206" lon="5.03754">
        <ele>401</ele>
        <time>2020-02-07T14:01:36.000Z</time>
      </trkpt>
      <trkpt lat="44.75205" lon="5.03754">
        <ele>401</ele>
        <time>2020-02-07T14:01:37.000Z</time>
      </trkpt>
      <trkpt lat="44.75204" lon="5.03754">
        <ele>401</ele>
        <time>2020-02-07T14:01:38.000Z</time>
      </trkpt>
      <trkpt lat="44.75203" lon="5.03754">
        <ele>401</ele>
        <time>2020-02-07T14:01:39.000Z</time>
      </trkpt>
      <trkpt lat="44.75201" lon="5.03754">
        <ele>401</ele>
        <time>2020-02-07T14:01:40.000Z</time>
      </trkpt>
      <trkpt lat="44.752" lon="5.03753">
        <ele>401</ele>
        <time>2020-02-07T14:01:41.000Z</time>
      </trkpt>
      <trkpt lat="44.75199" lon="5.03753">
        <ele>401</ele>
        <time>2020-02-07T14:01:42.000Z</time>
      </trkpt>
      <trkpt lat="44.75198" lon="5.03753">
        <ele>401</ele>
        <time>2020-02-07T14:01:43.000Z</time>
      </trkpt>
      <trkpt lat="44.75197" lon="5.03753">
        <ele>402</ele>
        <time>2020-02-07T14:01:44.000Z</time>
      </trkpt>
      <trkpt lat="44.75196" lon="5.03753">
        <ele>402</ele>
        <time>2020-02-07T14:01:45.000Z</time>
      </trkpt>
      <trkpt lat="44.75195" lon="5.03753">
        <ele>402</ele>
        <time>2020-02-07T14:01:46.000Z</time>
      </trkpt>
      <trkpt lat="44.75194" lon="5.03753">
        <ele>401</ele>
        <time>2020-02-07T14:01:47.000Z</time>
      </trkpt>
      <trkpt lat="44.75193" lon="5.03753">
        <ele>401</ele>
        <time>2020-02-07T14:01:48.000Z</time>
      </trkpt>
      <trkpt lat="44.75192" lon="5.03753">
        <ele>401</ele>
        <time>2020-02-07T14:01:49.000Z</time>
      </trkpt>
      <trkpt lat="44.7519" lon="5.03753">
        <ele>401</ele>
        <time>2020-02-07T14:01:50.000Z</time>
      </trkpt>
      <trkpt lat="44.75189" lon="5.03753">
        <ele>401</ele>
        <time>2020-02-07T14:01:51.000Z</time>
      </trkpt>
      <trkpt lat="44.75188" lon="5.03753">
        <ele>401</ele>
        <time>2020-02-07T14:01:52.000Z</time>
      </trkpt>
      <trkpt lat="44.75187" lon="5.03753">
        <ele>401</ele>
        <time>2020-02-07T14:01:53.000Z</time>
      </trkpt>
      <trkpt lat="44.75186" lon="5.03753">
        <ele>401</ele>
        <time>2020-02-07T14:01:54.000Z</time>
      </trkpt>
      <trkpt lat="44.75184" lon="5.03753">
        <ele>401</ele>
        <time>2020-02-07T14:01:55.000Z</time>
      </trkpt>
      <trkpt lat="44.75183" lon="5.03753">
        <ele>401</ele>
        <time>2020-02-07T14:01:56.000Z</time>
      </trkpt>
      <trkpt lat="44.75182" lon="5.03753">
        <ele>401</ele>
        <time>2020-02-07T14:01:57.000Z</time>
      </trkpt>
      <trkpt lat="44.75181" lon="5.03753">
        <ele>401</ele>
        <time>2020-02-07T14:01:58.000Z</time>
      </trkpt>
      <trkpt lat="44.7518" lon="5.03753">
        <ele>401</ele>
        <time>2020-02-07T14:01:59.000Z</time>
      </trkpt>
      <trkpt lat="44.75179" lon="5.03752">
        <ele>401</ele>
        <time>2020-02-07T14:02:00.000Z</time>
      </trkpt>
      <trkpt lat="44.75178" lon="5.03752">
        <ele>401</ele>
        <time>2020-02-07T14:02:01.000Z</time>
      </trkpt>
      <trkpt lat="44.75177" lon="5.03752">
        <ele>401</ele>
        <time>2020-02-07T14:02:02.000Z</time>
      </trkpt>
      <trkpt lat="44.75176" lon="5.03752">
        <ele>401</ele>
        <time>2020-02-07T14:02:03.000Z</time>
      </trkpt>
      <trkpt lat="44.75175" lon="5.03751">
        <ele>401</ele>
        <time>2020-02-07T14:02:04.000Z</time>
      </trkpt>
      <trkpt lat="44.75174" lon="5.03751">
        <ele>401</ele>
        <time>2020-02-07T14:02:05.000Z</time>
      </trkpt>
      <trkpt lat="44.75173" lon="5.03751">
        <ele>401</ele>
        <time>2020-02-07T14:02:06.000Z</time>
      </trkpt>
      <trkpt lat="44.75173" lon="5.0375">
        <ele>401</ele>
        <time>2020-02-07T14:02:07.000Z</time>
      </trkpt>
      <trkpt lat="44.75172" lon="5.0375">
        <ele>401</ele>
        <time>2020-02-07T14:02:08.000Z</time>
      </trkpt>
      <trkpt lat="44.75171" lon="5.03749">
        <ele>401</ele>
        <time>2020-02-07T14:02:09.000Z</time>
      </trkpt>
      <trkpt lat="44.7517" lon="5.03749">
        <ele>402</ele>
        <time>2020-02-07T14:02:10.000Z</time>
      </trkpt>
      <trkpt lat="44.75169" lon="5.03749">
        <ele>402</ele>
        <time>2020-02-07T14:02:11.000Z</time>
      </trkpt>
      <trkpt lat="44.75168" lon="5.03749">
        <ele>402</ele>
        <time>2020-02-07T14:02:12.000Z</time>
      </trkpt>
      <trkpt lat="44.75167" lon="5.03749">
        <ele>402</ele>
        <time>2020-02-07T14:02:13.000Z</time>
      </trkpt>
      <trkpt lat="44.75166" lon="5.03749">
        <ele>402</ele>
        <time>2020-02-07T14:02:14.000Z</time>
      </trkpt>
      <trkpt lat="44.75165" lon="5.03749">
        <ele>402</ele>
        <time>2020-02-07T14:02:15.000Z</time>
      </trkpt>
      <trkpt lat="44.75164" lon="5.03749">
        <ele>402</ele>
        <time>2020-02-07T14:02:16.000Z</time>
      </trkpt>
      <trkpt lat="44.75163" lon="5.03749">
        <ele>402</ele>
        <time>2020-02-07T14:02:17.000Z</time>
      </trkpt>
      <trkpt lat="44.75162" lon="5.03749">
        <ele>402</ele>
        <time>2020-02-07T14:02:18.000Z</time>
      </trkpt>
      <trkpt lat="44.75161" lon="5.03749">
        <ele>403</ele>
        <time>2020-02-07T14:02:19.000Z</time>
      </trkpt>
      <trkpt lat="44.75159" lon="5.03749">
        <ele>403</ele>
        <time>2020-02-07T14:02:20.000Z</time>
      </trkpt>
      <trkpt lat="44.75158" lon="5.03749">
        <ele>403</ele>
        <time>2020-02-07T14:02:21.000Z</time>
      </trkpt>
      <trkpt lat="44.75157" lon="5.03749">
        <ele>403</ele>
        <time>2020-02-07T14:02:22.000Z</time>
      </trkpt>
      <trkpt lat="44.75155" lon="5.03749">
        <ele>403</ele>
        <time>2020-02-07T14:02:23.000Z</time>
      </trkpt>
      <trkpt lat="44.75154" lon="5.03748">
        <ele>403</ele>
        <time>2020-02-07T14:02:24.000Z</time>
      </trkpt>
      <trkpt lat="44.75153" lon="5.03749">
        <ele>403</ele>
        <time>2020-02-07T14:02:25.000Z</time>
      </trkpt>
      <trkpt lat="44.75153" lon="5.03749">
        <ele>403</ele>
        <time>2020-02-07T14:02:26.000Z</time>
      </trkpt>
      <trkpt lat="44.75152" lon="5.03749">
        <ele>403</ele>
        <time>2020-02-07T14:02:27.000Z</time>
      </trkpt>
      <trkpt lat="44.7515" lon="5.0375">
        <ele>403</ele>
        <time>2020-02-07T14:02:28.000Z</time>
      </trkpt>
      <trkpt lat="44.75149" lon="5.0375">
        <ele>403</ele>
        <time>2020-02-07T14:02:29.000Z</time>
      </trkpt>
      <trkpt lat="44.75148" lon="5.0375">
        <ele>403</ele>
        <time>2020-02-07T14:02:30.000Z</time>
      </trkpt>
      <trkpt lat="44.75147" lon="5.0375">
        <ele>403</ele>
        <time>2020-02-07T14:02:31.000Z</time>
      </trkpt>
      <trkpt lat="44.75146" lon="5.0375">
        <ele>403</ele>
        <time>2020-02-07T14:02:32.000Z</time>
      </trkpt>
      <trkpt lat="44.75144" lon="5.0375">
        <ele>404</ele>
        <time>2020-02-07T14:02:33.000Z</time>
      </trkpt>
      <trkpt lat="44.75144" lon="5.0375">
        <ele>404</ele>
        <time>2020-02-07T14:02:34.000Z</time>
      </trkpt>
      <trkpt lat="44.75142" lon="5.0375">
        <ele>404</ele>
        <time>2020-02-07T14:02:35.000Z</time>
      </trkpt>
      <trkpt lat="44.75141" lon="5.0375">
        <ele>404</ele>
        <time>2020-02-07T14:02:36.000Z</time>
      </trkpt>
      <trkpt lat="44.7514" lon="5.03751">
        <ele>404</ele>
        <time>2020-02-07T14:02:37.000Z</time>
      </trkpt>
      <trkpt lat="44.75139" lon="5.0375">
        <ele>404</ele>
        <time>2020-02-07T14:02:38.000Z</time>
      </trkpt>
      <trkpt lat="44.75138" lon="5.0375">
        <ele>404</ele>
        <time>2020-02-07T14:02:39.000Z</time>
      </trkpt>
      <trkpt lat="44.75137" lon="5.0375">
        <ele>404</ele>
        <time>2020-02-07T14:02:40.000Z</time>
      </trkpt>
      <trkpt lat="44.75136" lon="5.0375">
        <ele>405</ele>
        <time>2020-02-07T14:02:41.000Z</time>
      </trkpt>
      <trkpt lat="44.75134" lon="5.0375">
        <ele>405</ele>
        <time>2020-02-07T14:02:42.000Z</time>
      </trkpt>
      <trkpt lat="44.75133" lon="5.03749">
        <ele>405</ele>
        <time>2020-02-07T14:02:43.000Z</time>
      </trkpt>
      <trkpt lat="44.75132" lon="5.03749">
        <ele>405</ele>
        <time>2020-02-07T14:02:44.000Z</time>
      </trkpt>
      <trkpt lat="44.75132" lon="5.03749">
        <ele>405</ele>
        <time>2020-02-07T14:02:45.000Z</time>
      </trkpt>
      <trkpt lat="44.75131" lon="5.03748">
        <ele>405</ele>
        <time>2020-02-07T14:02:46.000Z</time>
      </trkpt>
      <trkpt lat="44.7513" lon="5.03748">
        <ele>405</ele>
        <time>2020-02-07T14:02:47.000Z</time>
      </trkpt>
      <trkpt lat="44.75129" lon="5.03748">
        <ele>405</ele>
        <time>2020-02-07T14:02:48.000Z</time>
      </trkpt>
      <trkpt lat="44.75128" lon="5.03748">
        <ele>406</ele>
        <time>2020-02-07T14:02:49.000Z</time>
      </trkpt>
      <trkpt lat="44.75127" lon="5.03747">
        <ele>406</ele>
        <time>2020-02-07T14:02:50.000Z</time>
      </trkpt>
      <trkpt lat="44.75126" lon="5.03748">
        <ele>406</ele>
        <time>2020-02-07T14:02:51.000Z</time>
      </trkpt>
      <trkpt lat="44.75124" lon="5.03748">
        <ele>406</ele>
        <time>2020-02-07T14:02:52.000Z</time>
      </trkpt>
      <trkpt lat="44.75123" lon="5.03747">
        <ele>406</ele>
        <time>2020-02-07T14:02:53.000Z</time>
      </trkpt>
      <trkpt lat="44.75122" lon="5.03747">
        <ele>406</ele>
        <time>2020-02-07T14:02:54.000Z</time>
      </trkpt>
      <trkpt lat="44.75121" lon="5.03747">
        <ele>406</ele>
        <time>2020-02-07T14:02:55.000Z</time>
      </trkpt>
      <trkpt lat="44.7512" lon="5.03747">
        <ele>406</ele>
        <time>2020-02-07T14:02:56.000Z</time>
      </trkpt>
      <trkpt lat="44.75119" lon="5.03747">
        <ele>406</ele>
        <time>2020-02-07T14:02:57.000Z</time>
      </trkpt>
      <trkpt lat="44.75118" lon="5.03747">
        <ele>406</ele>
        <time>2020-02-07T14:02:58.000Z</time>
      </trkpt>
      <trkpt lat="44.75117" lon="5.03746">
        <ele>406</ele>
        <time>2020-02-07T14:02:59.000Z</time>
      </trkpt>
      <trkpt lat="44.75116" lon="5.03746">
        <ele>406</ele>
        <time>2020-02-07T14:03:00.000Z</time>
      </trkpt>
      <trkpt lat="44.75115" lon="5.03746">
        <ele>406</ele>
        <time>2020-02-07T14:03:01.000Z</time>
      </trkpt>
      <trkpt lat="44.75114" lon="5.03746">
        <ele>406</ele>
        <time>2020-02-07T14:03:02.000Z</time>
      </trkpt>
      <trkpt lat="44.75113" lon="5.03746">
        <ele>406</ele>
        <time>2020-02-07T14:03:03.000Z</time>
      </trkpt>
      <trkpt lat="44.75112" lon="5.03746">
        <ele>406</ele>
        <time>2020-02-07T14:03:04.000Z</time>
      </trkpt>
      <trkpt lat="44.75112" lon="5.03745">
        <ele>406</ele>
        <time>2020-02-07T14:03:05.000Z</time>
      </trkpt>
      <trkpt lat="44.75111" lon="5.03745">
        <ele>406</ele>
        <time>2020-02-07T14:03:06.000Z</time>
      </trkpt>
      <trkpt lat="44.7511" lon="5.03744">
        <ele>406</ele>
        <time>2020-02-07T14:03:07.000Z</time>
      </trkpt>
      <trkpt lat="44.75108" lon="5.03744">
        <ele>406</ele>
        <time>2020-02-07T14:03:08.000Z</time>
      </trkpt>
      <trkpt lat="44.75107" lon="5.03744">
        <ele>406</ele>
        <time>2020-02-07T14:03:09.000Z</time>
      </trkpt>
      <trkpt lat="44.75106" lon="5.03744">
        <ele>406</ele>
        <time>2020-02-07T14:03:10.000Z</time>
      </trkpt>
      <trkpt lat="44.75105" lon="5.03744">
        <ele>406</ele>
        <time>2020-02-07T14:03:11.000Z</time>
      </trkpt>
      <trkpt lat="44.75104" lon="5.03744">
        <ele>406</ele>
        <time>2020-02-07T14:03:12.000Z</time>
      </trkpt>
      <trkpt lat="44.75103" lon="5.03744">
        <ele>406</ele>
        <time>2020-02-07T14:03:13.000Z</time>
      </trkpt>
      <trkpt lat="44.75101" lon="5.03743">
        <ele>406</ele>
        <time>2020-02-07T14:03:14.000Z</time>
      </trkpt>
      <trkpt lat="44.751" lon="5.03743">
        <ele>406</ele>
        <time>2020-02-07T14:03:15.000Z</time>
      </trkpt>
      <trkpt lat="44.75099" lon="5.03743">
        <ele>406</ele>
        <time>2020-02-07T14:03:16.000Z</time>
      </trkpt>
      <trkpt lat="44.75098" lon="5.03743">
        <ele>406</ele>
        <time>2020-02-07T14:03:17.000Z</time>
      </trkpt>
      <trkpt lat="44.75097" lon="5.03743">
        <ele>406</ele>
        <time>2020-02-07T14:03:18.000Z</time>
      </trkpt>
      <trkpt lat="44.75096" lon="5.03743">
        <ele>406</ele>
        <time>2020-02-07T14:03:19.000Z</time>
      </trkpt>
      <trkpt lat="44.75095" lon="5.03743">
        <ele>406</ele>
        <time>2020-02-07T14:03:20.000Z</time>
      </trkpt>
      <trkpt lat="44.75094" lon="5.03742">
        <ele>406</ele>
        <time>2020-02-07T14:03:21.000Z</time>
      </trkpt>
      <trkpt lat="44.75092" lon="5.03742">
        <ele>406</ele>
        <time>2020-02-07T14:03:22.000Z</time>
      </trkpt>
      <trkpt lat="44.75091" lon="5.03742">
        <ele>406</ele>
        <time>2020-02-07T14:03:23.000Z</time>
      </trkpt>
      <trkpt lat="44.7509" lon="5.03742">
        <ele>406</ele>
        <time>2020-02-07T14:03:24.000Z</time>
      </trkpt>
      <trkpt lat="44.75089" lon="5.03742">
        <ele>405</ele>
        <time>2020-02-07T14:03:25.000Z</time>
      </trkpt>
      <trkpt lat="44.75088" lon="5.03742">
        <ele>405</ele>
        <time>2020-02-07T14:03:26.000Z</time>
      </trkpt>
      <trkpt lat="44.75087" lon="5.03741">
        <ele>405</ele>
        <time>2020-02-07T14:03:27.000Z</time>
      </trkpt>
      <trkpt lat="44.75086" lon="5.03741">
        <ele>405</ele>
        <time>2020-02-07T14:03:28.000Z</time>
      </trkpt>
      <trkpt lat="44.75085" lon="5.03741">
        <ele>405</ele>
        <time>2020-02-07T14:03:29.000Z</time>
      </trkpt>
      <trkpt lat="44.75084" lon="5.0374">
        <ele>405</ele>
        <time>2020-02-07T14:03:30.000Z</time>
      </trkpt>
      <trkpt lat="44.75083" lon="5.0374">
        <ele>405</ele>
        <time>2020-02-07T14:03:31.000Z</time>
      </trkpt>
      <trkpt lat="44.75082" lon="5.03739">
        <ele>405</ele>
        <time>2020-02-07T14:03:32.000Z</time>
      </trkpt>
      <trkpt lat="44.75081" lon="5.03739">
        <ele>404</ele>
        <time>2020-02-07T14:03:33.000Z</time>
      </trkpt>
      <trkpt lat="44.7508" lon="5.03739">
        <ele>404</ele>
        <time>2020-02-07T14:03:34.000Z</time>
      </trkpt>
      <trkpt lat="44.75078" lon="5.03738">
        <ele>404</ele>
        <time>2020-02-07T14:03:35.000Z</time>
      </trkpt>
      <trkpt lat="44.75078" lon="5.03738">
        <ele>404</ele>
        <time>2020-02-07T14:03:36.000Z</time>
      </trkpt>
      <trkpt lat="44.75077" lon="5.03738">
        <ele>404</ele>
        <time>2020-02-07T14:03:37.000Z</time>
      </trkpt>
      <trkpt lat="44.75075" lon="5.03738">
        <ele>404</ele>
        <time>2020-02-07T14:03:38.000Z</time>
      </trkpt>
      <trkpt lat="44.75074" lon="5.03737">
        <ele>404</ele>
        <time>2020-02-07T14:03:39.000Z</time>
      </trkpt>
      <trkpt lat="44.75073" lon="5.03737">
        <ele>403</ele>
        <time>2020-02-07T14:03:40.000Z</time>
      </trkpt>
      <trkpt lat="44.75072" lon="5.03737">
        <ele>403</ele>
        <time>2020-02-07T14:03:41.000Z</time>
      </trkpt>
      <trkpt lat="44.75071" lon="5.03736">
        <ele>403</ele>
        <time>2020-02-07T14:03:42.000Z</time>
      </trkpt>
      <trkpt lat="44.7507" lon="5.03736">
        <ele>403</ele>
        <time>2020-02-07T14:03:43.000Z</time>
      </trkpt>
      <trkpt lat="44.75069" lon="5.03736">
        <ele>403</ele>
        <time>2020-02-07T14:03:44.000Z</time>
      </trkpt>
      <trkpt lat="44.75068" lon="5.03736">
        <ele>403</ele>
        <time>2020-02-07T14:03:45.000Z</time>
      </trkpt>
      <trkpt lat="44.75068" lon="5.03735">
        <ele>403</ele>
        <time>2020-02-07T14:03:46.000Z</time>
      </trkpt>
      <trkpt lat="44.75067" lon="5.03735">
        <ele>402</ele>
        <time>2020-02-07T14:03:47.000Z</time>
      </trkpt>
      <trkpt lat="44.75067" lon="5.03735">
        <ele>402</ele>
        <time>2020-02-07T14:03:48.000Z</time>
      </trkpt>
      <trkpt lat="44.75067" lon="5.03735">
        <ele>402</ele>
        <time>2020-02-07T14:03:49.000Z</time>
      </trkpt>
      <trkpt lat="44.75067" lon="5.03735">
        <ele>402</ele>
        <time>2020-02-07T14:03:50.000Z</time>
      </trkpt>
      <trkpt lat="44.75067" lon="5.03735">
        <ele>402</ele>
        <time>2020-02-07T14:03:51.000Z</time>
      </trkpt>
      <trkpt lat="44.75066" lon="5.03735">
        <ele>402</ele>
        <time>2020-02-07T14:03:52.000Z</time>
      </trkpt>
      <trkpt lat="44.75065" lon="5.03734">
        <ele>402</ele>
        <time>2020-02-07T14:03:53.000Z</time>
      </trkpt>
      <trkpt lat="44.75065" lon="5.03734">
        <ele>402</ele>
        <time>2020-02-07T14:03:54.000Z</time>
      </trkpt>
      <trkpt lat="44.75064" lon="5.03733">
        <ele>402</ele>
        <time>2020-02-07T14:03:55.000Z</time>
      </trkpt>
      <trkpt lat="44.75064" lon="5.03733">
        <ele>402</ele>
        <time>2020-02-07T14:03:56.000Z</time>
      </trkpt>
      <trkpt lat="44.75064" lon="5.03733">
        <ele>401</ele>
        <time>2020-02-07T14:03:57.000Z</time>
      </trkpt>
      <trkpt lat="44.75064" lon="5.03733">
        <ele>401</ele>
        <time>2020-02-07T14:03:58.000Z</time>
      </trkpt>
      <trkpt lat="44.75064" lon="5.03733">
        <ele>401</ele>
        <time>2020-02-07T14:03:59.000Z</time>
      </trkpt>
      <trkpt lat="44.75064" lon="5.03733">
        <ele>401</ele>
        <time>2020-02-07T14:04:00.000Z</time>
      </trkpt>
      <trkpt lat="44.75064" lon="5.03733">
        <ele>401</ele>
        <time>2020-02-07T14:04:01.000Z</time>
      </trkpt>
      <trkpt lat="44.75064" lon="5.03733">
        <ele>401</ele>
        <time>2020-02-07T14:04:02.000Z</time>
      </trkpt>
      <trkpt lat="44.75064" lon="5.03733">
        <ele>401</ele>
        <time>2020-02-07T14:04:03.000Z</time>
      </trkpt>
      <trkpt lat="44.75064" lon="5.03733">
        <ele>401</ele>
        <time>2020-02-07T14:04:04.000Z</time>
      </trkpt>
      <trkpt lat="44.75064" lon="5.03733">
        <ele>401</ele>
        <time>2020-02-07T14:04:05.000Z</time>
      </trkpt>
      <trkpt lat="44.75064" lon="5.03733">
        <ele>401</ele>
        <time>2020-02-07T14:04:06.000Z</time>
      </trkpt>
      <trkpt lat="44.75063" lon="5.03733">
        <ele>401</ele>
        <time>2020-02-07T14:04:07.000Z</time>
      </trkpt>
      <trkpt lat="44.75063" lon="5.03732">
        <ele>401</ele>
        <time>2020-02-07T14:04:08.000Z</time>
      </trkpt>
      <trkpt lat="44.75062" lon="5.03732">
        <ele>401</ele>
        <time>2020-02-07T14:04:09.000Z</time>
      </trkpt>
      <trkpt lat="44.75062" lon="5.03732">
        <ele>401</ele>
        <time>2020-02-07T14:04:10.000Z</time>
      </trkpt>
      <trkpt lat="44.75061" lon="5.03731">
        <ele>401</ele>
        <time>2020-02-07T14:04:11.000Z</time>
      </trkpt>
      <trkpt lat="44.7506" lon="5.03731">
        <ele>401</ele>
        <time>2020-02-07T14:04:12.000Z</time>
      </trkpt>
      <trkpt lat="44.7506" lon="5.0373">
        <ele>401</ele>
        <time>2020-02-07T14:04:13.000Z</time>
      </trkpt>
      <trkpt lat="44.75059" lon="5.0373">
        <ele>401</ele>
        <time>2020-02-07T14:04:14.000Z</time>
      </trkpt>
      <trkpt lat="44.75057" lon="5.0373">
        <ele>401</ele>
        <time>2020-02-07T14:04:15.000Z</time>
      </trkpt>
      <trkpt lat="44.75056" lon="5.03729">
        <ele>402</ele>
        <time>2020-02-07T14:04:16.000Z</time>
      </trkpt>
      <trkpt lat="44.75055" lon="5.03729">
        <ele>402</ele>
        <time>2020-02-07T14:04:17.000Z</time>
      </trkpt>
      <trkpt lat="44.75054" lon="5.03728">
        <ele>402</ele>
        <time>2020-02-07T14:04:18.000Z</time>
      </trkpt>
      <trkpt lat="44.75053" lon="5.03727">
        <ele>402</ele>
        <time>2020-02-07T14:04:19.000Z</time>
      </trkpt>
      <trkpt lat="44.75052" lon="5.03726">
        <ele>403</ele>
        <time>2020-02-07T14:04:20.000Z</time>
      </trkpt>
      <trkpt lat="44.75052" lon="5.03726">
        <ele>403</ele>
        <time>2020-02-07T14:04:21.000Z</time>
      </trkpt>
      <trkpt lat="44.75051" lon="5.03725">
        <ele>403</ele>
        <time>2020-02-07T14:04:22.000Z</time>
      </trkpt>
      <trkpt lat="44.75051" lon="5.03725">
        <ele>403</ele>
        <time>2020-02-07T14:04:23.000Z</time>
      </trkpt>
      <trkpt lat="44.7505" lon="5.03725">
        <ele>404</ele>
        <time>2020-02-07T14:04:24.000Z</time>
      </trkpt>
      <trkpt lat="44.75049" lon="5.03725">
        <ele>404</ele>
        <time>2020-02-07T14:04:25.000Z</time>
      </trkpt>
      <trkpt lat="44.75048" lon="5.03725">
        <ele>404</ele>
        <time>2020-02-07T14:04:26.000Z</time>
      </trkpt>
      <trkpt lat="44.75047" lon="5.03724">
        <ele>404</ele>
        <time>2020-02-07T14:04:27.000Z</time>
      </trkpt>
      <trkpt lat="44.75046" lon="5.03724">
        <ele>404</ele>
        <time>2020-02-07T14:04:28.000Z</time>
      </trkpt>
      <trkpt lat="44.75046" lon="5.03724">
        <ele>404</ele>
        <time>2020-02-07T14:04:29.000Z</time>
      </trkpt>
      <trkpt lat="44.75045" lon="5.03723">
        <ele>404</ele>
        <time>2020-02-07T14:04:30.000Z</time>
      </trkpt>
      <trkpt lat="44.75044" lon="5.03723">
        <ele>404</ele>
        <time>2020-02-07T14:04:31.000Z</time>
      </trkpt>
      <trkpt lat="44.75043" lon="5.03723">
        <ele>404</ele>
        <time>2020-02-07T14:04:32.000Z</time>
      </trkpt>
      <trkpt lat="44.75042" lon="5.03723">
        <ele>404</ele>
        <time>2020-02-07T14:04:33.000Z</time>
      </trkpt>
      <trkpt lat="44.75041" lon="5.03723">
        <ele>404</ele>
        <time>2020-02-07T14:04:34.000Z</time>
      </trkpt>
      <trkpt lat="44.7504" lon="5.03722">
        <ele>404</ele>
        <time>2020-02-07T14:04:35.000Z</time>
      </trkpt>
      <trkpt lat="44.75039" lon="5.03722">
        <ele>404</ele>
        <time>2020-02-07T14:04:36.000Z</time>
      </trkpt>
      <trkpt lat="44.75038" lon="5.03722">
        <ele>405</ele>
        <time>2020-02-07T14:04:37.000Z</time>
      </trkpt>
      <trkpt lat="44.75037" lon="5.03721">
        <ele>405</ele>
        <time>2020-02-07T14:04:38.000Z</time>
      </trkpt>
      <trkpt lat="44.75036" lon="5.03721">
        <ele>405</ele>
        <time>2020-02-07T14:04:39.000Z</time>
      </trkpt>
      <trkpt lat="44.75035" lon="5.03721">
        <ele>405</ele>
        <time>2020-02-07T14:04:40.000Z</time>
      </trkpt>
      <trkpt lat="44.75035" lon="5.0372">
        <ele>405</ele>
        <time>2020-02-07T14:04:41.000Z</time>
      </trkpt>
      <trkpt lat="44.75034" lon="5.0372">
        <ele>405</ele>
        <time>2020-02-07T14:04:42.000Z</time>
      </trkpt>
      <trkpt lat="44.75033" lon="5.0372">
        <ele>405</ele>
        <time>2020-02-07T14:04:43.000Z</time>
      </trkpt>
      <trkpt lat="44.75032" lon="5.0372">
        <ele>405</ele>
        <time>2020-02-07T14:04:44.000Z</time>
      </trkpt>
      <trkpt lat="44.75031" lon="5.03719">
        <ele>405</ele>
        <time>2020-02-07T14:04:45.000Z</time>
      </trkpt>
      <trkpt lat="44.7503" lon="5.03718">
        <ele>405</ele>
        <time>2020-02-07T14:04:46.000Z</time>
      </trkpt>
      <trkpt lat="44.75029" lon="5.03718">
        <ele>405</ele>
        <time>2020-02-07T14:04:47.000Z</time>
      </trkpt>
      <trkpt lat="44.75028" lon="5.03718">
        <ele>405</ele>
        <time>2020-02-07T14:04:48.000Z</time>
      </trkpt>
      <trkpt lat="44.75027" lon="5.03718">
        <ele>405</ele>
        <time>2020-02-07T14:04:49.000Z</time>
      </trkpt>
      <trkpt lat="44.75026" lon="5.03718">
        <ele>405</ele>
        <time>2020-02-07T14:04:50.000Z</time>
      </trkpt>
      <trkpt lat="44.75025" lon="5.03718">
        <ele>406</ele>
        <time>2020-02-07T14:04:51.000Z</time>
      </trkpt>
      <trkpt lat="44.75024" lon="5.03717">
        <ele>406</ele>
        <time>2020-02-07T14:04:52.000Z</time>
      </trkpt>
      <trkpt lat="44.75023" lon="5.03716">
        <ele>406</ele>
        <time>2020-02-07T14:04:53.000Z</time>
      </trkpt>
      <trkpt lat="44.75022" lon="5.03716">
        <ele>406</ele>
        <time>2020-02-07T14:04:54.000Z</time>
      </trkpt>
      <trkpt lat="44.75021" lon="5.03716">
        <ele>406</ele>
        <time>2020-02-07T14:04:55.000Z</time>
      </trkpt>
      <trkpt lat="44.75019" lon="5.03716">
        <ele>406</ele>
        <time>2020-02-07T14:04:56.000Z</time>
      </trkpt>
      <trkpt lat="44.75018" lon="5.03715">
        <ele>406</ele>
        <time>2020-02-07T14:04:57.000Z</time>
      </trkpt>
      <trkpt lat="44.75017" lon="5.03714">
        <ele>406</ele>
        <time>2020-02-07T14:04:58.000Z</time>
      </trkpt>
      <trkpt lat="44.75016" lon="5.03714">
        <ele>406</ele>
        <time>2020-02-07T14:04:59.000Z</time>
      </trkpt>
      <trkpt lat="44.75016" lon="5.03713">
        <ele>406</ele>
        <time>2020-02-07T14:05:00.000Z</time>
      </trkpt>
      <trkpt lat="44.75015" lon="5.03713">
        <ele>406</ele>
        <time>2020-02-07T14:05:01.000Z</time>
      </trkpt>
      <trkpt lat="44.75013" lon="5.03713">
        <ele>406</ele>
        <time>2020-02-07T14:05:02.000Z</time>
      </trkpt>
      <trkpt lat="44.75013" lon="5.03712">
        <ele>406</ele>
        <time>2020-02-07T14:05:03.000Z</time>
      </trkpt>
      <trkpt lat="44.75012" lon="5.03712">
        <ele>406</ele>
        <time>2020-02-07T14:05:04.000Z</time>
      </trkpt>
      <trkpt lat="44.7501" lon="5.03712">
        <ele>406</ele>
        <time>2020-02-07T14:05:05.000Z</time>
      </trkpt>
      <trkpt lat="44.75009" lon="5.03711">
        <ele>406</ele>
        <time>2020-02-07T14:05:06.000Z</time>
      </trkpt>
      <trkpt lat="44.75009" lon="5.03711">
        <ele>406</ele>
        <time>2020-02-07T14:05:07.000Z</time>
      </trkpt>
      <trkpt lat="44.75008" lon="5.03711">
        <ele>406</ele>
        <time>2020-02-07T14:05:08.000Z</time>
      </trkpt>
      <trkpt lat="44.75007" lon="5.0371">
        <ele>406</ele>
        <time>2020-02-07T14:05:09.000Z</time>
      </trkpt>
      <trkpt lat="44.75006" lon="5.0371">
        <ele>406</ele>
        <time>2020-02-07T14:05:10.000Z</time>
      </trkpt>
      <trkpt lat="44.75005" lon="5.0371">
        <ele>406</ele>
        <time>2020-02-07T14:05:11.000Z</time>
      </trkpt>
      <trkpt lat="44.75004" lon="5.03709">
        <ele>406</ele>
        <time>2020-02-07T14:05:12.000Z</time>
      </trkpt>
      <trkpt lat="44.75003" lon="5.03709">
        <ele>406</ele>
        <time>2020-02-07T14:05:13.000Z</time>
      </trkpt>
      <trkpt lat="44.75002" lon="5.03709">
        <ele>406</ele>
        <time>2020-02-07T14:05:14.000Z</time>
      </trkpt>
      <trkpt lat="44.75" lon="5.03708">
        <ele>406</ele>
        <time>2020-02-07T14:05:15.000Z</time>
      </trkpt>
      <trkpt lat="44.74999" lon="5.03708">
        <ele>406</ele>
        <time>2020-02-07T14:05:16.000Z</time>
      </trkpt>
      <trkpt lat="44.74998" lon="5.03707">
        <ele>406</ele>
        <time>2020-02-07T14:05:17.000Z</time>
      </trkpt>
      <trkpt lat="44.74996" lon="5.03706">
        <ele>406</ele>
        <time>2020-02-07T14:05:18.000Z</time>
      </trkpt>
      <trkpt lat="44.74995" lon="5.03706">
        <ele>406</ele>
        <time>2020-02-07T14:05:19.000Z</time>
      </trkpt>
      <trkpt lat="44.74994" lon="5.03705">
        <ele>405</ele>
        <time>2020-02-07T14:05:20.000Z</time>
      </trkpt>
      <trkpt lat="44.74993" lon="5.03705">
        <ele>405</ele>
        <time>2020-02-07T14:05:21.000Z</time>
      </trkpt>
      <trkpt lat="44.74992" lon="5.03704">
        <ele>405</ele>
        <time>2020-02-07T14:05:22.000Z</time>
      </trkpt>
      <trkpt lat="44.74991" lon="5.03704">
        <ele>405</ele>
        <time>2020-02-07T14:05:23.000Z</time>
      </trkpt>
      <trkpt lat="44.7499" lon="5.03703">
        <ele>405</ele>
        <time>2020-02-07T14:05:24.000Z</time>
      </trkpt>
      <trkpt lat="44.74988" lon="5.03702">
        <ele>404</ele>
        <time>2020-02-07T14:05:25.000Z</time>
      </trkpt>
      <trkpt lat="44.74987" lon="5.03702">
        <ele>404</ele>
        <time>2020-02-07T14:05:26.000Z</time>
      </trkpt>
      <trkpt lat="44.74986" lon="5.03701">
        <ele>404</ele>
        <time>2020-02-07T14:05:27.000Z</time>
      </trkpt>
      <trkpt lat="44.74985" lon="5.037">
        <ele>404</ele>
        <time>2020-02-07T14:05:28.000Z</time>
      </trkpt>
      <trkpt lat="44.74984" lon="5.037">
        <ele>404</ele>
        <time>2020-02-07T14:05:29.000Z</time>
      </trkpt>
      <trkpt lat="44.74983" lon="5.03699">
        <ele>404</ele>
        <time>2020-02-07T14:05:30.000Z</time>
      </trkpt>
      <trkpt lat="44.74982" lon="5.03699">
        <ele>404</ele>
        <time>2020-02-07T14:05:31.000Z</time>
      </trkpt>
      <trkpt lat="44.74981" lon="5.03698">
        <ele>404</ele>
        <time>2020-02-07T14:05:32.000Z</time>
      </trkpt>
      <trkpt lat="44.7498" lon="5.03698">
        <ele>404</ele>
        <time>2020-02-07T14:05:33.000Z</time>
      </trkpt>
      <trkpt lat="44.74979" lon="5.03697">
        <ele>403</ele>
        <time>2020-02-07T14:05:34.000Z</time>
      </trkpt>
      <trkpt lat="44.74978" lon="5.03697">
        <ele>403</ele>
        <time>2020-02-07T14:05:35.000Z</time>
      </trkpt>
      <trkpt lat="44.74977" lon="5.03697">
        <ele>403</ele>
        <time>2020-02-07T14:05:36.000Z</time>
      </trkpt>
      <trkpt lat="44.74976" lon="5.03697">
        <ele>403</ele>
        <time>2020-02-07T14:05:37.000Z</time>
      </trkpt>
      <trkpt lat="44.74975" lon="5.03697">
        <ele>403</ele>
        <time>2020-02-07T14:05:38.000Z</time>
      </trkpt>
      <trkpt lat="44.74973" lon="5.03697">
        <ele>403</ele>
        <time>2020-02-07T14:05:39.000Z</time>
      </trkpt>
      <trkpt lat="44.74972" lon="5.03697">
        <ele>403</ele>
        <time>2020-02-07T14:05:40.000Z</time>
      </trkpt>
      <trkpt lat="44.74971" lon="5.03698">
        <ele>403</ele>
        <time>2020-02-07T14:05:41.000Z</time>
      </trkpt>
      <trkpt lat="44.7497" lon="5.03697">
        <ele>402</ele>
        <time>2020-02-07T14:05:42.000Z</time>
      </trkpt>
      <trkpt lat="44.74969" lon="5.03697">
        <ele>402</ele>
        <time>2020-02-07T14:05:43.000Z</time>
      </trkpt>
      <trkpt lat="44.74968" lon="5.03697">
        <ele>402</ele>
        <time>2020-02-07T14:05:44.000Z</time>
      </trkpt>
      <trkpt lat="44.74966" lon="5.03697">
        <ele>402</ele>
        <time>2020-02-07T14:05:45.000Z</time>
      </trkpt>
      <trkpt lat="44.74965" lon="5.03696">
        <ele>402</ele>
        <time>2020-02-07T14:05:46.000Z</time>
      </trkpt>
      <trkpt lat="44.74964" lon="5.03696">
        <ele>402</ele>
        <time>2020-02-07T14:05:47.000Z</time>
      </trkpt>
      <trkpt lat="44.74963" lon="5.03695">
        <ele>402</ele>
        <time>2020-02-07T14:05:48.000Z</time>
      </trkpt>
      <trkpt lat="44.74962" lon="5.03695">
        <ele>402</ele>
        <time>2020-02-07T14:05:49.000Z</time>
      </trkpt>
      <trkpt lat="44.74961" lon="5.03694">
        <ele>402</ele>
        <time>2020-02-07T14:05:50.000Z</time>
      </trkpt>
      <trkpt lat="44.7496" lon="5.03694">
        <ele>401</ele>
        <time>2020-02-07T14:05:51.000Z</time>
      </trkpt>
      <trkpt lat="44.74959" lon="5.03694">
        <ele>401</ele>
        <time>2020-02-07T14:05:52.000Z</time>
      </trkpt>
      <trkpt lat="44.74958" lon="5.03693">
        <ele>401</ele>
        <time>2020-02-07T14:05:53.000Z</time>
      </trkpt>
      <trkpt lat="44.74957" lon="5.03693">
        <ele>401</ele>
        <time>2020-02-07T14:05:54.000Z</time>
      </trkpt>
      <trkpt lat="44.74955" lon="5.03693">
        <ele>401</ele>
        <time>2020-02-07T14:05:55.000Z</time>
      </trkpt>
      <trkpt lat="44.74954" lon="5.03692">
        <ele>401</ele>
        <time>2020-02-07T14:05:56.000Z</time>
      </trkpt>
      <trkpt lat="44.74953" lon="5.03692">
        <ele>401</ele>
        <time>2020-02-07T14:05:57.000Z</time>
      </trkpt>
      <trkpt lat="44.74952" lon="5.03691">
        <ele>401</ele>
        <time>2020-02-07T14:05:58.000Z</time>
      </trkpt>
      <trkpt lat="44.74951" lon="5.03691">
        <ele>401</ele>
        <time>2020-02-07T14:05:59.000Z</time>
      </trkpt>
      <trkpt lat="44.74949" lon="5.03691">
        <ele>400</ele>
        <time>2020-02-07T14:06:00.000Z</time>
      </trkpt>
      <trkpt lat="44.74948" lon="5.03691">
        <ele>400</ele>
        <time>2020-02-07T14:06:01.000Z</time>
      </trkpt>
      <trkpt lat="44.74947" lon="5.0369">
        <ele>400</ele>
        <time>2020-02-07T14:06:02.000Z</time>
      </trkpt>
      <trkpt lat="44.74946" lon="5.0369">
        <ele>400</ele>
        <time>2020-02-07T14:06:03.000Z</time>
      </trkpt>
      <trkpt lat="44.74945" lon="5.03689">
        <ele>400</ele>
        <time>2020-02-07T14:06:04.000Z</time>
      </trkpt>
      <trkpt lat="44.74944" lon="5.03688">
        <ele>400</ele>
        <time>2020-02-07T14:06:05.000Z</time>
      </trkpt>
      <trkpt lat="44.74943" lon="5.03687">
        <ele>399</ele>
        <time>2020-02-07T14:06:06.000Z</time>
      </trkpt>
      <trkpt lat="44.74942" lon="5.03686">
        <ele>399</ele>
        <time>2020-02-07T14:06:07.000Z</time>
      </trkpt>
      <trkpt lat="44.74941" lon="5.03686">
        <ele>399</ele>
        <time>2020-02-07T14:06:08.000Z</time>
      </trkpt>
      <trkpt lat="44.7494" lon="5.03685">
        <ele>399</ele>
        <time>2020-02-07T14:06:09.000Z</time>
      </trkpt>
      <trkpt lat="44.74939" lon="5.03685">
        <ele>399</ele>
        <time>2020-02-07T14:06:10.000Z</time>
      </trkpt>
      <trkpt lat="44.74937" lon="5.03685">
        <ele>399</ele>
        <time>2020-02-07T14:06:11.000Z</time>
      </trkpt>
      <trkpt lat="44.74936" lon="5.03685">
        <ele>399</ele>
        <time>2020-02-07T14:06:12.000Z</time>
      </trkpt>
      <trkpt lat="44.74935" lon="5.03685">
        <ele>399</ele>
        <time>2020-02-07T14:06:13.000Z</time>
      </trkpt>
      <trkpt lat="44.74934" lon="5.03684">
        <ele>399</ele>
        <time>2020-02-07T14:06:14.000Z</time>
      </trkpt>
      <trkpt lat="44.74933" lon="5.03684">
        <ele>399</ele>
        <time>2020-02-07T14:06:15.000Z</time>
      </trkpt>
      <trkpt lat="44.74932" lon="5.03684">
        <ele>399</ele>
        <time>2020-02-07T14:06:16.000Z</time>
      </trkpt>
      <trkpt lat="44.74931" lon="5.03683">
        <ele>399</ele>
        <time>2020-02-07T14:06:17.000Z</time>
      </trkpt>
      <trkpt lat="44.7493" lon="5.03683">
        <ele>399</ele>
        <time>2020-02-07T14:06:18.000Z</time>
      </trkpt>
      <trkpt lat="44.74929" lon="5.03683">
        <ele>399</ele>
        <time>2020-02-07T14:06:19.000Z</time>
      </trkpt>
      <trkpt lat="44.74928" lon="5.03682">
        <ele>399</ele>
        <time>2020-02-07T14:06:20.000Z</time>
      </trkpt>
      <trkpt lat="44.74927" lon="5.03682">
        <ele>399</ele>
        <time>2020-02-07T14:06:21.000Z</time>
      </trkpt>
      <trkpt lat="44.74925" lon="5.03681">
        <ele>399</ele>
        <time>2020-02-07T14:06:22.000Z</time>
      </trkpt>
      <trkpt lat="44.74924" lon="5.03681">
        <ele>399</ele>
        <time>2020-02-07T14:06:23.000Z</time>
      </trkpt>
      <trkpt lat="44.74923" lon="5.0368">
        <ele>399</ele>
        <time>2020-02-07T14:06:24.000Z</time>
      </trkpt>
      <trkpt lat="44.74922" lon="5.0368">
        <ele>399</ele>
        <time>2020-02-07T14:06:25.000Z</time>
      </trkpt>
      <trkpt lat="44.74921" lon="5.03679">
        <ele>398</ele>
        <time>2020-02-07T14:06:26.000Z</time>
      </trkpt>
      <trkpt lat="44.7492" lon="5.03679">
        <ele>398</ele>
        <time>2020-02-07T14:06:27.000Z</time>
      </trkpt>
      <trkpt lat="44.74918" lon="5.03679">
        <ele>398</ele>
        <time>2020-02-07T14:06:28.000Z</time>
      </trkpt>
      <trkpt lat="44.74917" lon="5.03678">
        <ele>398</ele>
        <time>2020-02-07T14:06:29.000Z</time>
      </trkpt>
      <trkpt lat="44.74916" lon="5.03678">
        <ele>398</ele>
        <time>2020-02-07T14:06:30.000Z</time>
      </trkpt>
      <trkpt lat="44.74915" lon="5.03678">
        <ele>398</ele>
        <time>2020-02-07T14:06:31.000Z</time>
      </trkpt>
      <trkpt lat="44.74914" lon="5.03677">
        <ele>398</ele>
        <time>2020-02-07T14:06:32.000Z</time>
      </trkpt>
      <trkpt lat="44.74913" lon="5.03677">
        <ele>398</ele>
        <time>2020-02-07T14:06:33.000Z</time>
      </trkpt>
      <trkpt lat="44.74912" lon="5.03676">
        <ele>398</ele>
        <time>2020-02-07T14:06:34.000Z</time>
      </trkpt>
      <trkpt lat="44.74911" lon="5.03676">
        <ele>398</ele>
        <time>2020-02-07T14:06:35.000Z</time>
      </trkpt>
      <trkpt lat="44.7491" lon="5.03675">
        <ele>398</ele>
        <time>2020-02-07T14:06:36.000Z</time>
      </trkpt>
      <trkpt lat="44.74909" lon="5.03675">
        <ele>398</ele>
        <time>2020-02-07T14:06:37.000Z</time>
      </trkpt>
      <trkpt lat="44.74908" lon="5.03674">
        <ele>398</ele>
        <time>2020-02-07T14:06:38.000Z</time>
      </trkpt>
      <trkpt lat="44.74907" lon="5.03674">
        <ele>398</ele>
        <time>2020-02-07T14:06:39.000Z</time>
      </trkpt>
      <trkpt lat="44.74906" lon="5.03674">
        <ele>398</ele>
        <time>2020-02-07T14:06:40.000Z</time>
      </trkpt>
      <trkpt lat="44.74905" lon="5.03673">
        <ele>398</ele>
        <time>2020-02-07T14:06:41.000Z</time>
      </trkpt>
      <trkpt lat="44.74903" lon="5.03673">
        <ele>398</ele>
        <time>2020-02-07T14:06:42.000Z</time>
      </trkpt>
      <trkpt lat="44.74902" lon="5.03672">
        <ele>398</ele>
        <time>2020-02-07T14:06:43.000Z</time>
      </trkpt>
      <trkpt lat="44.74901" lon="5.03672">
        <ele>398</ele>
        <time>2020-02-07T14:06:44.000Z</time>
      </trkpt>
      <trkpt lat="44.749" lon="5.03671">
        <ele>398</ele>
        <time>2020-02-07T14:06:45.000Z</time>
      </trkpt>
      <trkpt lat="44.74899" lon="5.03671">
        <ele>398</ele>
        <time>2020-02-07T14:06:46.000Z</time>
      </trkpt>
      <trkpt lat="44.74898" lon="5.03671">
        <ele>398</ele>
        <time>2020-02-07T14:06:47.000Z</time>
      </trkpt>
      <trkpt lat="44.74897" lon="5.0367">
        <ele>398</ele>
        <time>2020-02-07T14:06:48.000Z</time>
      </trkpt>
      <trkpt lat="44.74896" lon="5.03669">
        <ele>398</ele>
        <time>2020-02-07T14:06:49.000Z</time>
      </trkpt>
      <trkpt lat="44.74895" lon="5.03669">
        <ele>398</ele>
        <time>2020-02-07T14:06:50.000Z</time>
      </trkpt>
      <trkpt lat="44.74893" lon="5.03668">
        <ele>398</ele>
        <time>2020-02-07T14:06:51.000Z</time>
      </trkpt>
      <trkpt lat="44.74892" lon="5.03668">
        <ele>398</ele>
        <time>2020-02-07T14:06:52.000Z</time>
      </trkpt>
      <trkpt lat="44.74891" lon="5.03667">
        <ele>398</ele>
        <time>2020-02-07T14:06:53.000Z</time>
      </trkpt>
      <trkpt lat="44.7489" lon="5.03667">
        <ele>397</ele>
        <time>2020-02-07T14:06:54.000Z</time>
      </trkpt>
      <trkpt lat="44.74889" lon="5.03667">
        <ele>397</ele>
        <time>2020-02-07T14:06:55.000Z</time>
      </trkpt>
      <trkpt lat="44.74888" lon="5.03666">
        <ele>397</ele>
        <time>2020-02-07T14:06:56.000Z</time>
      </trkpt>
      <trkpt lat="44.74887" lon="5.03666">
        <ele>397</ele>
        <time>2020-02-07T14:06:57.000Z</time>
      </trkpt>
      <trkpt lat="44.74886" lon="5.03665">
        <ele>397</ele>
        <time>2020-02-07T14:06:58.000Z</time>
      </trkpt>
      <trkpt lat="44.74885" lon="5.03665">
        <ele>397</ele>
        <time>2020-02-07T14:06:59.000Z</time>
      </trkpt>
      <trkpt lat="44.74884" lon="5.03665">
        <ele>397</ele>
        <time>2020-02-07T14:07:00.000Z</time>
      </trkpt>
      <trkpt lat="44.74883" lon="5.03664">
        <ele>397</ele>
        <time>2020-02-07T14:07:01.000Z</time>
      </trkpt>
      <trkpt lat="44.74882" lon="5.03664">
        <ele>397</ele>
        <time>2020-02-07T14:07:02.000Z</time>
      </trkpt>
      <trkpt lat="44.74881" lon="5.03664">
        <ele>396</ele>
        <time>2020-02-07T14:07:03.000Z</time>
      </trkpt>
      <trkpt lat="44.7488" lon="5.03664">
        <ele>396</ele>
        <time>2020-02-07T14:07:04.000Z</time>
      </trkpt>
      <trkpt lat="44.74879" lon="5.03664">
        <ele>396</ele>
        <time>2020-02-07T14:07:05.000Z</time>
      </trkpt>
      <trkpt lat="44.74878" lon="5.03664">
        <ele>396</ele>
        <time>2020-02-07T14:07:06.000Z</time>
      </trkpt>
      <trkpt lat="44.74877" lon="5.03663">
        <ele>396</ele>
        <time>2020-02-07T14:07:07.000Z</time>
      </trkpt>
      <trkpt lat="44.74876" lon="5.03663">
        <ele>396</ele>
        <time>2020-02-07T14:07:08.000Z</time>
      </trkpt>
      <trkpt lat="44.74875" lon="5.03663">
        <ele>396</ele>
        <time>2020-02-07T14:07:09.000Z</time>
      </trkpt>
      <trkpt lat="44.74874" lon="5.03663">
        <ele>396</ele>
        <time>2020-02-07T14:07:10.000Z</time>
      </trkpt>
      <trkpt lat="44.74873" lon="5.03662">
        <ele>396</ele>
        <time>2020-02-07T14:07:11.000Z</time>
      </trkpt>
      <trkpt lat="44.74872" lon="5.03662">
        <ele>396</ele>
        <time>2020-02-07T14:07:12.000Z</time>
      </trkpt>
      <trkpt lat="44.74871" lon="5.03662">
        <ele>396</ele>
        <time>2020-02-07T14:07:13.000Z</time>
      </trkpt>
      <trkpt lat="44.7487" lon="5.03661">
        <ele>396</ele>
        <time>2020-02-07T14:07:14.000Z</time>
      </trkpt>
      <trkpt lat="44.74869" lon="5.03661">
        <ele>396</ele>
        <time>2020-02-07T14:07:15.000Z</time>
      </trkpt>
      <trkpt lat="44.74868" lon="5.0366">
        <ele>396</ele>
        <time>2020-02-07T14:07:16.000Z</time>
      </trkpt>
      <trkpt lat="44.74867" lon="5.03659">
        <ele>396</ele>
        <time>2020-02-07T14:07:17.000Z</time>
      </trkpt>
      <trkpt lat="44.74867" lon="5.03659">
        <ele>396</ele>
        <time>2020-02-07T14:07:18.000Z</time>
      </trkpt>
      <trkpt lat="44.74866" lon="5.03658">
        <ele>396</ele>
        <time>2020-02-07T14:07:19.000Z</time>
      </trkpt>
      <trkpt lat="44.74864" lon="5.03658">
        <ele>396</ele>
        <time>2020-02-07T14:07:20.000Z</time>
      </trkpt>
      <trkpt lat="44.74863" lon="5.03658">
        <ele>396</ele>
        <time>2020-02-07T14:07:21.000Z</time>
      </trkpt>
      <trkpt lat="44.74862" lon="5.03658">
        <ele>396</ele>
        <time>2020-02-07T14:07:22.000Z</time>
      </trkpt>
      <trkpt lat="44.74861" lon="5.03657">
        <ele>396</ele>
        <time>2020-02-07T14:07:23.000Z</time>
      </trkpt>
      <trkpt lat="44.7486" lon="5.03657">
        <ele>396</ele>
        <time>2020-02-07T14:07:24.000Z</time>
      </trkpt>
      <trkpt lat="44.74859" lon="5.03657">
        <ele>396</ele>
        <time>2020-02-07T14:07:25.000Z</time>
      </trkpt>
      <trkpt lat="44.74858" lon="5.03657">
        <ele>396</ele>
        <time>2020-02-07T14:07:26.000Z</time>
      </trkpt>
      <trkpt lat="44.74857" lon="5.03657">
        <ele>396</ele>
        <time>2020-02-07T14:07:27.000Z</time>
      </trkpt>
      <trkpt lat="44.74856" lon="5.03657">
        <ele>396</ele>
        <time>2020-02-07T14:07:28.000Z</time>
      </trkpt>
      <trkpt lat="44.74854" lon="5.03657">
        <ele>396</ele>
        <time>2020-02-07T14:07:29.000Z</time>
      </trkpt>
      <trkpt lat="44.74853" lon="5.03656">
        <ele>396</ele>
        <time>2020-02-07T14:07:30.000Z</time>
      </trkpt>
      <trkpt lat="44.74852" lon="5.03656">
        <ele>396</ele>
        <time>2020-02-07T14:07:31.000Z</time>
      </trkpt>
      <trkpt lat="44.74851" lon="5.03656">
        <ele>397</ele>
        <time>2020-02-07T14:07:32.000Z</time>
      </trkpt>
      <trkpt lat="44.7485" lon="5.03655">
        <ele>397</ele>
        <time>2020-02-07T14:07:33.000Z</time>
      </trkpt>
      <trkpt lat="44.74849" lon="5.03655">
        <ele>397</ele>
        <time>2020-02-07T14:07:34.000Z</time>
      </trkpt>
      <trkpt lat="44.74848" lon="5.03654">
        <ele>397</ele>
        <time>2020-02-07T14:07:35.000Z</time>
      </trkpt>
      <trkpt lat="44.74847" lon="5.03654">
        <ele>397</ele>
        <time>2020-02-07T14:07:36.000Z</time>
      </trkpt>
      <trkpt lat="44.74845" lon="5.03653">
        <ele>397</ele>
        <time>2020-02-07T14:07:37.000Z</time>
      </trkpt>
      <trkpt lat="44.74844" lon="5.03653">
        <ele>397</ele>
        <time>2020-02-07T14:07:38.000Z</time>
      </trkpt>
      <trkpt lat="44.74843" lon="5.03652">
        <ele>397</ele>
        <time>2020-02-07T14:07:39.000Z</time>
      </trkpt>
      <trkpt lat="44.74842" lon="5.03651">
        <ele>398</ele>
        <time>2020-02-07T14:07:40.000Z</time>
      </trkpt>
      <trkpt lat="44.74841" lon="5.0365">
        <ele>398</ele>
        <time>2020-02-07T14:07:41.000Z</time>
      </trkpt>
      <trkpt lat="44.7484" lon="5.0365">
        <ele>398</ele>
        <time>2020-02-07T14:07:42.000Z</time>
      </trkpt>
      <trkpt lat="44.74839" lon="5.03649">
        <ele>398</ele>
        <time>2020-02-07T14:07:43.000Z</time>
      </trkpt>
      <trkpt lat="44.74838" lon="5.03649">
        <ele>398</ele>
        <time>2020-02-07T14:07:44.000Z</time>
      </trkpt>
      <trkpt lat="44.74837" lon="5.03648">
        <ele>398</ele>
        <time>2020-02-07T14:07:45.000Z</time>
      </trkpt>
      <trkpt lat="44.74835" lon="5.03648">
        <ele>398</ele>
        <time>2020-02-07T14:07:46.000Z</time>
      </trkpt>
      <trkpt lat="44.74834" lon="5.03647">
        <ele>398</ele>
        <time>2020-02-07T14:07:47.000Z</time>
      </trkpt>
      <trkpt lat="44.74833" lon="5.03647">
        <ele>398</ele>
        <time>2020-02-07T14:07:48.000Z</time>
      </trkpt>
      <trkpt lat="44.74832" lon="5.03647">
        <ele>397</ele>
        <time>2020-02-07T14:07:49.000Z</time>
      </trkpt>
      <trkpt lat="44.7483" lon="5.03647">
        <ele>397</ele>
        <time>2020-02-07T14:07:50.000Z</time>
      </trkpt>
      <trkpt lat="44.74829" lon="5.03646">
        <ele>397</ele>
        <time>2020-02-07T14:07:51.000Z</time>
      </trkpt>
      <trkpt lat="44.74828" lon="5.03646">
        <ele>397</ele>
        <time>2020-02-07T14:07:52.000Z</time>
      </trkpt>
      <trkpt lat="44.74827" lon="5.03646">
        <ele>397</ele>
        <time>2020-02-07T14:07:53.000Z</time>
      </trkpt>
      <trkpt lat="44.74825" lon="5.03645">
        <ele>397</ele>
        <time>2020-02-07T14:07:54.000Z</time>
      </trkpt>
      <trkpt lat="44.74824" lon="5.03645">
        <ele>397</ele>
        <time>2020-02-07T14:07:55.000Z</time>
      </trkpt>
      <trkpt lat="44.74823" lon="5.03645">
        <ele>397</ele>
        <time>2020-02-07T14:07:56.000Z</time>
      </trkpt>
      <trkpt lat="44.74822" lon="5.03644">
        <ele>397</ele>
        <time>2020-02-07T14:07:57.000Z</time>
      </trkpt>
      <trkpt lat="44.74821" lon="5.03644">
        <ele>397</ele>
        <time>2020-02-07T14:07:58.000Z</time>
      </trkpt>
      <trkpt lat="44.74819" lon="5.03644">
        <ele>397</ele>
        <time>2020-02-07T14:07:59.000Z</time>
      </trkpt>
      <trkpt lat="44.74818" lon="5.03643">
        <ele>397</ele>
        <time>2020-02-07T14:08:00.000Z</time>
      </trkpt>
      <trkpt lat="44.74817" lon="5.03643">
        <ele>397</ele>
        <time>2020-02-07T14:08:01.000Z</time>
      </trkpt>
      <trkpt lat="44.74816" lon="5.03642">
        <ele>396</ele>
        <time>2020-02-07T14:08:02.000Z</time>
      </trkpt>
      <trkpt lat="44.74815" lon="5.03642">
        <ele>396</ele>
        <time>2020-02-07T14:08:03.000Z</time>
      </trkpt>
      <trkpt lat="44.74814" lon="5.03641">
        <ele>396</ele>
        <time>2020-02-07T14:08:04.000Z</time>
      </trkpt>
      <trkpt lat="44.74813" lon="5.03641">
        <ele>396</ele>
        <time>2020-02-07T14:08:05.000Z</time>
      </trkpt>
      <trkpt lat="44.74812" lon="5.0364">
        <ele>396</ele>
        <time>2020-02-07T14:08:06.000Z</time>
      </trkpt>
      <trkpt lat="44.74811" lon="5.0364">
        <ele>396</ele>
        <time>2020-02-07T14:08:07.000Z</time>
      </trkpt>
      <trkpt lat="44.7481" lon="5.03639">
        <ele>396</ele>
        <time>2020-02-07T14:08:08.000Z</time>
      </trkpt>
      <trkpt lat="44.74809" lon="5.03639">
        <ele>395</ele>
        <time>2020-02-07T14:08:09.000Z</time>
      </trkpt>
      <trkpt lat="44.74808" lon="5.03639">
        <ele>395</ele>
        <time>2020-02-07T14:08:10.000Z</time>
      </trkpt>
      <trkpt lat="44.74807" lon="5.03639">
        <ele>395</ele>
        <time>2020-02-07T14:08:11.000Z</time>
      </trkpt>
      <trkpt lat="44.74806" lon="5.03638">
        <ele>395</ele>
        <time>2020-02-07T14:08:12.000Z</time>
      </trkpt>
      <trkpt lat="44.74805" lon="5.03638">
        <ele>395</ele>
        <time>2020-02-07T14:08:13.000Z</time>
      </trkpt>
      <trkpt lat="44.74804" lon="5.03637">
        <ele>395</ele>
        <time>2020-02-07T14:08:14.000Z</time>
      </trkpt>
      <trkpt lat="44.74803" lon="5.03637">
        <ele>395</ele>
        <time>2020-02-07T14:08:15.000Z</time>
      </trkpt>
      <trkpt lat="44.74802" lon="5.03636">
        <ele>395</ele>
        <time>2020-02-07T14:08:16.000Z</time>
      </trkpt>
      <trkpt lat="44.74801" lon="5.03636">
        <ele>395</ele>
        <time>2020-02-07T14:08:17.000Z</time>
      </trkpt>
      <trkpt lat="44.748" lon="5.03635">
        <ele>395</ele>
        <time>2020-02-07T14:08:18.000Z</time>
      </trkpt>
      <trkpt lat="44.74799" lon="5.03635">
        <ele>394</ele>
        <time>2020-02-07T14:08:19.000Z</time>
      </trkpt>
      <trkpt lat="44.74798" lon="5.03634">
        <ele>394</ele>
        <time>2020-02-07T14:08:20.000Z</time>
      </trkpt>
      <trkpt lat="44.74797" lon="5.03633">
        <ele>394</ele>
        <time>2020-02-07T14:08:21.000Z</time>
      </trkpt>
      <trkpt lat="44.74796" lon="5.03633">
        <ele>394</ele>
        <time>2020-02-07T14:08:22.000Z</time>
      </trkpt>
      <trkpt lat="44.74795" lon="5.03632">
        <ele>394</ele>
        <time>2020-02-07T14:08:23.000Z</time>
      </trkpt>
      <trkpt lat="44.74794" lon="5.03632">
        <ele>394</ele>
        <time>2020-02-07T14:08:24.000Z</time>
      </trkpt>
      <trkpt lat="44.74793" lon="5.03632">
        <ele>394</ele>
        <time>2020-02-07T14:08:25.000Z</time>
      </trkpt>
      <trkpt lat="44.74792" lon="5.03631">
        <ele>394</ele>
        <time>2020-02-07T14:08:26.000Z</time>
      </trkpt>
      <trkpt lat="44.74791" lon="5.03631">
        <ele>393</ele>
        <time>2020-02-07T14:08:27.000Z</time>
      </trkpt>
      <trkpt lat="44.7479" lon="5.0363">
        <ele>393</ele>
        <time>2020-02-07T14:08:28.000Z</time>
      </trkpt>
      <trkpt lat="44.74789" lon="5.0363">
        <ele>393</ele>
        <time>2020-02-07T14:08:29.000Z</time>
      </trkpt>
      <trkpt lat="44.74788" lon="5.03629">
        <ele>393</ele>
        <time>2020-02-07T14:08:30.000Z</time>
      </trkpt>
      <trkpt lat="44.74786" lon="5.03629">
        <ele>393</ele>
        <time>2020-02-07T14:08:31.000Z</time>
      </trkpt>
      <trkpt lat="44.74785" lon="5.03628">
        <ele>393</ele>
        <time>2020-02-07T14:08:32.000Z</time>
      </trkpt>
      <trkpt lat="44.74784" lon="5.03628">
        <ele>393</ele>
        <time>2020-02-07T14:08:33.000Z</time>
      </trkpt>
      <trkpt lat="44.74783" lon="5.03627">
        <ele>393</ele>
        <time>2020-02-07T14:08:34.000Z</time>
      </trkpt>
      <trkpt lat="44.74782" lon="5.03627">
        <ele>393</ele>
        <time>2020-02-07T14:08:35.000Z</time>
      </trkpt>
      <trkpt lat="44.74781" lon="5.03626">
        <ele>393</ele>
        <time>2020-02-07T14:08:36.000Z</time>
      </trkpt>
      <trkpt lat="44.7478" lon="5.03626">
        <ele>393</ele>
        <time>2020-02-07T14:08:37.000Z</time>
      </trkpt>
      <trkpt lat="44.74779" lon="5.03625">
        <ele>393</ele>
        <time>2020-02-07T14:08:38.000Z</time>
      </trkpt>
      <trkpt lat="44.74778" lon="5.03625">
        <ele>393</ele>
        <time>2020-02-07T14:08:39.000Z</time>
      </trkpt>
      <trkpt lat="44.74777" lon="5.03624">
        <ele>393</ele>
        <time>2020-02-07T14:08:40.000Z</time>
      </trkpt>
      <trkpt lat="44.74776" lon="5.03624">
        <ele>393</ele>
        <time>2020-02-07T14:08:41.000Z</time>
      </trkpt>
      <trkpt lat="44.74775" lon="5.03623">
        <ele>393</ele>
        <time>2020-02-07T14:08:42.000Z</time>
      </trkpt>
      <trkpt lat="44.74774" lon="5.03623">
        <ele>393</ele>
        <time>2020-02-07T14:08:43.000Z</time>
      </trkpt>
      <trkpt lat="44.74773" lon="5.03623">
        <ele>393</ele>
        <time>2020-02-07T14:08:44.000Z</time>
      </trkpt>
      <trkpt lat="44.74772" lon="5.03622">
        <ele>393</ele>
        <time>2020-02-07T14:08:45.000Z</time>
      </trkpt>
      <trkpt lat="44.74771" lon="5.03621">
        <ele>393</ele>
        <time>2020-02-07T14:08:46.000Z</time>
      </trkpt>
      <trkpt lat="44.7477" lon="5.03621">
        <ele>393</ele>
        <time>2020-02-07T14:08:47.000Z</time>
      </trkpt>
      <trkpt lat="44.74769" lon="5.0362">
        <ele>393</ele>
        <time>2020-02-07T14:08:48.000Z</time>
      </trkpt>
      <trkpt lat="44.74768" lon="5.03619">
        <ele>393</ele>
        <time>2020-02-07T14:08:49.000Z</time>
      </trkpt>
      <trkpt lat="44.74767" lon="5.03618">
        <ele>393</ele>
        <time>2020-02-07T14:08:50.000Z</time>
      </trkpt>
      <trkpt lat="44.74767" lon="5.03618">
        <ele>393</ele>
        <time>2020-02-07T14:08:51.000Z</time>
      </trkpt>
      <trkpt lat="44.74766" lon="5.03617">
        <ele>393</ele>
        <time>2020-02-07T14:08:52.000Z</time>
      </trkpt>
      <trkpt lat="44.74765" lon="5.03616">
        <ele>392</ele>
        <time>2020-02-07T14:08:53.000Z</time>
      </trkpt>
      <trkpt lat="44.74764" lon="5.03616">
        <ele>392</ele>
        <time>2020-02-07T14:08:54.000Z</time>
      </trkpt>
      <trkpt lat="44.74763" lon="5.03615">
        <ele>392</ele>
        <time>2020-02-07T14:08:55.000Z</time>
      </trkpt>
      <trkpt lat="44.74762" lon="5.03615">
        <ele>392</ele>
        <time>2020-02-07T14:08:56.000Z</time>
      </trkpt>
      <trkpt lat="44.74762" lon="5.03614">
        <ele>392</ele>
        <time>2020-02-07T14:08:57.000Z</time>
      </trkpt>
      <trkpt lat="44.74761" lon="5.03613">
        <ele>392</ele>
        <time>2020-02-07T14:08:58.000Z</time>
      </trkpt>
      <trkpt lat="44.7476" lon="5.03613">
        <ele>392</ele>
        <time>2020-02-07T14:08:59.000Z</time>
      </trkpt>
      <trkpt lat="44.74759" lon="5.03612">
        <ele>392</ele>
        <time>2020-02-07T14:09:00.000Z</time>
      </trkpt>
      <trkpt lat="44.74758" lon="5.03611">
        <ele>392</ele>
        <time>2020-02-07T14:09:01.000Z</time>
      </trkpt>
      <trkpt lat="44.74757" lon="5.03611">
        <ele>392</ele>
        <time>2020-02-07T14:09:02.000Z</time>
      </trkpt>
      <trkpt lat="44.74756" lon="5.03611">
        <ele>392</ele>
        <time>2020-02-07T14:09:03.000Z</time>
      </trkpt>
      <trkpt lat="44.74756" lon="5.0361">
        <ele>392</ele>
        <time>2020-02-07T14:09:04.000Z</time>
      </trkpt>
      <trkpt lat="44.74755" lon="5.0361">
        <ele>392</ele>
        <time>2020-02-07T14:09:05.000Z</time>
      </trkpt>
      <trkpt lat="44.74754" lon="5.03609">
        <ele>392</ele>
        <time>2020-02-07T14:09:06.000Z</time>
      </trkpt>
      <trkpt lat="44.74753" lon="5.03608">
        <ele>392</ele>
        <time>2020-02-07T14:09:07.000Z</time>
      </trkpt>
      <trkpt lat="44.74753" lon="5.03607">
        <ele>392</ele>
        <time>2020-02-07T14:09:08.000Z</time>
      </trkpt>
      <trkpt lat="44.74752" lon="5.03607">
        <ele>392</ele>
        <time>2020-02-07T14:09:09.000Z</time>
      </trkpt>
      <trkpt lat="44.74751" lon="5.03606">
        <ele>392</ele>
        <time>2020-02-07T14:09:10.000Z</time>
      </trkpt>
      <trkpt lat="44.7475" lon="5.03605">
        <ele>392</ele>
        <time>2020-02-07T14:09:11.000Z</time>
      </trkpt>
      <trkpt lat="44.74749" lon="5.03605">
        <ele>392</ele>
        <time>2020-02-07T14:09:12.000Z</time>
      </trkpt>
      <trkpt lat="44.74749" lon="5.03604">
        <ele>393</ele>
        <time>2020-02-07T14:09:13.000Z</time>
      </trkpt>
      <trkpt lat="44.74748" lon="5.03604">
        <ele>393</ele>
        <time>2020-02-07T14:09:14.000Z</time>
      </trkpt>
      <trkpt lat="44.74747" lon="5.03603">
        <ele>393</ele>
        <time>2020-02-07T14:09:15.000Z</time>
      </trkpt>
      <trkpt lat="44.74746" lon="5.03603">
        <ele>393</ele>
        <time>2020-02-07T14:09:16.000Z</time>
      </trkpt>
      <trkpt lat="44.74745" lon="5.03602">
        <ele>393</ele>
        <time>2020-02-07T14:09:17.000Z</time>
      </trkpt>
      <trkpt lat="44.74744" lon="5.03602">
        <ele>393</ele>
        <time>2020-02-07T14:09:18.000Z</time>
      </trkpt>
      <trkpt lat="44.74743" lon="5.03601">
        <ele>393</ele>
        <time>2020-02-07T14:09:19.000Z</time>
      </trkpt>
      <trkpt lat="44.74742" lon="5.03601">
        <ele>393</ele>
        <time>2020-02-07T14:09:20.000Z</time>
      </trkpt>
      <trkpt lat="44.74741" lon="5.03601">
        <ele>393</ele>
        <time>2020-02-07T14:09:21.000Z</time>
      </trkpt>
      <trkpt lat="44.7474" lon="5.036">
        <ele>393</ele>
        <time>2020-02-07T14:09:22.000Z</time>
      </trkpt>
      <trkpt lat="44.7474" lon="5.036">
        <ele>393</ele>
        <time>2020-02-07T14:09:23.000Z</time>
      </trkpt>
      <trkpt lat="44.74739" lon="5.036">
        <ele>393</ele>
        <time>2020-02-07T14:09:24.000Z</time>
      </trkpt>
      <trkpt lat="44.74738" lon="5.03599">
        <ele>393</ele>
        <time>2020-02-07T14:09:25.000Z</time>
      </trkpt>
      <trkpt lat="44.74737" lon="5.03599">
        <ele>393</ele>
        <time>2020-02-07T14:09:26.000Z</time>
      </trkpt>
      <trkpt lat="44.74736" lon="5.03599">
        <ele>393</ele>
        <time>2020-02-07T14:09:27.000Z</time>
      </trkpt>
      <trkpt lat="44.74735" lon="5.03599">
        <ele>393</ele>
        <time>2020-02-07T14:09:28.000Z</time>
      </trkpt>
      <trkpt lat="44.74734" lon="5.03598">
        <ele>393</ele>
        <time>2020-02-07T14:09:29.000Z</time>
      </trkpt>
      <trkpt lat="44.74733" lon="5.03598">
        <ele>393</ele>
        <time>2020-02-07T14:09:30.000Z</time>
      </trkpt>
      <trkpt lat="44.74732" lon="5.03598">
        <ele>393</ele>
        <time>2020-02-07T14:09:31.000Z</time>
      </trkpt>
      <trkpt lat="44.74731" lon="5.03598">
        <ele>393</ele>
        <time>2020-02-07T14:09:32.000Z</time>
      </trkpt>
      <trkpt lat="44.7473" lon="5.03597">
        <ele>393</ele>
        <time>2020-02-07T14:09:33.000Z</time>
      </trkpt>
      <trkpt lat="44.7473" lon="5.03597">
        <ele>393</ele>
        <time>2020-02-07T14:09:34.000Z</time>
      </trkpt>
      <trkpt lat="44.74729" lon="5.03597">
        <ele>393</ele>
        <time>2020-02-07T14:09:35.000Z</time>
      </trkpt>
      <trkpt lat="44.74728" lon="5.03597">
        <ele>393</ele>
        <time>2020-02-07T14:09:36.000Z</time>
      </trkpt>
      <trkpt lat="44.74727" lon="5.03596">
        <ele>393</ele>
        <time>2020-02-07T14:09:37.000Z</time>
      </trkpt>
      <trkpt lat="44.74726" lon="5.03596">
        <ele>393</ele>
        <time>2020-02-07T14:09:38.000Z</time>
      </trkpt>
      <trkpt lat="44.74725" lon="5.03595">
        <ele>393</ele>
        <time>2020-02-07T14:09:39.000Z</time>
      </trkpt>
      <trkpt lat="44.74724" lon="5.03595">
        <ele>394</ele>
        <time>2020-02-07T14:09:40.000Z</time>
      </trkpt>
      <trkpt lat="44.74723" lon="5.03595">
        <ele>394</ele>
        <time>2020-02-07T14:09:41.000Z</time>
      </trkpt>
      <trkpt lat="44.74722" lon="5.03595">
        <ele>394</ele>
        <time>2020-02-07T14:09:42.000Z</time>
      </trkpt>
      <trkpt lat="44.74721" lon="5.03595">
        <ele>394</ele>
        <time>2020-02-07T14:09:43.000Z</time>
      </trkpt>
      <trkpt lat="44.7472" lon="5.03594">
        <ele>394</ele>
        <time>2020-02-07T14:09:44.000Z</time>
      </trkpt>
      <trkpt lat="44.74719" lon="5.03594">
        <ele>394</ele>
        <time>2020-02-07T14:09:45.000Z</time>
      </trkpt>
      <trkpt lat="44.74718" lon="5.03594">
        <ele>394</ele>
        <time>2020-02-07T14:09:46.000Z</time>
      </trkpt>
      <trkpt lat="44.74717" lon="5.03594">
        <ele>394</ele>
        <time>2020-02-07T14:09:47.000Z</time>
      </trkpt>
      <trkpt lat="44.74716" lon="5.03593">
        <ele>394</ele>
        <time>2020-02-07T14:09:48.000Z</time>
      </trkpt>
      <trkpt lat="44.74715" lon="5.03593">
        <ele>394</ele>
        <time>2020-02-07T14:09:49.000Z</time>
      </trkpt>
      <trkpt lat="44.74715" lon="5.03593">
        <ele>394</ele>
        <time>2020-02-07T14:09:50.000Z</time>
      </trkpt>
      <trkpt lat="44.74715" lon="5.03593">
        <ele>394</ele>
        <time>2020-02-07T14:09:51.000Z</time>
      </trkpt>
      <trkpt lat="44.74715" lon="5.03593">
        <ele>394</ele>
        <time>2020-02-07T14:09:52.000Z</time>
      </trkpt>
      <trkpt lat="44.74715" lon="5.03593">
        <ele>394</ele>
        <time>2020-02-07T14:09:53.000Z</time>
      </trkpt>
      <trkpt lat="44.74715" lon="5.03593">
        <ele>394</ele>
        <time>2020-02-07T14:09:54.000Z</time>
      </trkpt>
      <trkpt lat="44.74714" lon="5.03592">
        <ele>394</ele>
        <time>2020-02-07T14:09:55.000Z</time>
      </trkpt>
      <trkpt lat="44.74713" lon="5.03592">
        <ele>394</ele>
        <time>2020-02-07T14:09:56.000Z</time>
      </trkpt>
      <trkpt lat="44.74712" lon="5.03592">
        <ele>394</ele>
        <time>2020-02-07T14:09:57.000Z</time>
      </trkpt>
      <trkpt lat="44.74712" lon="5.03591">
        <ele>394</ele>
        <time>2020-02-07T14:09:58.000Z</time>
      </trkpt>
      <trkpt lat="44.74711" lon="5.03591">
        <ele>394</ele>
        <time>2020-02-07T14:09:59.000Z</time>
      </trkpt>
      <trkpt lat="44.7471" lon="5.03591">
        <ele>394</ele>
        <time>2020-02-07T14:10:00.000Z</time>
      </trkpt>
      <trkpt lat="44.7471" lon="5.03591">
        <ele>394</ele>
        <time>2020-02-07T14:10:01.000Z</time>
      </trkpt>
      <trkpt lat="44.74709" lon="5.0359">
        <ele>394</ele>
        <time>2020-02-07T14:10:02.000Z</time>
      </trkpt>
      <trkpt lat="44.74708" lon="5.0359">
        <ele>394</ele>
        <time>2020-02-07T14:10:03.000Z</time>
      </trkpt>
      <trkpt lat="44.74708" lon="5.0359">
        <ele>394</ele>
        <time>2020-02-07T14:10:04.000Z</time>
      </trkpt>
      <trkpt lat="44.74708" lon="5.0359">
        <ele>394</ele>
        <time>2020-02-07T14:10:05.000Z</time>
      </trkpt>
      <trkpt lat="44.74708" lon="5.0359">
        <ele>394</ele>
        <time>2020-02-07T14:10:06.000Z</time>
      </trkpt>
      <trkpt lat="44.74708" lon="5.0359">
        <ele>394</ele>
        <time>2020-02-07T14:10:07.000Z</time>
      </trkpt>
      <trkpt lat="44.74708" lon="5.0359">
        <ele>394</ele>
        <time>2020-02-07T14:10:08.000Z</time>
      </trkpt>
      <trkpt lat="44.74708" lon="5.0359">
        <ele>394</ele>
        <time>2020-02-07T14:10:09.000Z</time>
      </trkpt>
      <trkpt lat="44.74707" lon="5.03589">
        <ele>394</ele>
        <time>2020-02-07T14:10:10.000Z</time>
      </trkpt>
      <trkpt lat="44.74706" lon="5.03589">
        <ele>394</ele>
        <time>2020-02-07T14:10:11.000Z</time>
      </trkpt>
      <trkpt lat="44.74706" lon="5.03588">
        <ele>394</ele>
        <time>2020-02-07T14:10:12.000Z</time>
      </trkpt>
      <trkpt lat="44.74705" lon="5.03588">
        <ele>394</ele>
        <time>2020-02-07T14:10:13.000Z</time>
      </trkpt>
      <trkpt lat="44.74704" lon="5.03588">
        <ele>394</ele>
        <time>2020-02-07T14:10:14.000Z</time>
      </trkpt>
      <trkpt lat="44.74703" lon="5.03588">
        <ele>394</ele>
        <time>2020-02-07T14:10:15.000Z</time>
      </trkpt>
      <trkpt lat="44.74702" lon="5.03587">
        <ele>394</ele>
        <time>2020-02-07T14:10:16.000Z</time>
      </trkpt>
      <trkpt lat="44.74702" lon="5.03587">
        <ele>394</ele>
        <time>2020-02-07T14:10:17.000Z</time>
      </trkpt>
      <trkpt lat="44.74701" lon="5.03587">
        <ele>395</ele>
        <time>2020-02-07T14:10:18.000Z</time>
      </trkpt>
      <trkpt lat="44.74701" lon="5.03586">
        <ele>395</ele>
        <time>2020-02-07T14:10:19.000Z</time>
      </trkpt>
      <trkpt lat="44.74701" lon="5.03586">
        <ele>395</ele>
        <time>2020-02-07T14:10:20.000Z</time>
      </trkpt>
      <trkpt lat="44.74701" lon="5.03586">
        <ele>395</ele>
        <time>2020-02-07T14:10:21.000Z</time>
      </trkpt>
      <trkpt lat="44.74701" lon="5.03586">
        <ele>395</ele>
        <time>2020-02-07T14:10:22.000Z</time>
      </trkpt>
      <trkpt lat="44.74701" lon="5.03586">
        <ele>395</ele>
        <time>2020-02-07T14:10:23.000Z</time>
      </trkpt>
      <trkpt lat="44.74701" lon="5.03586">
        <ele>395</ele>
        <time>2020-02-07T14:10:24.000Z</time>
      </trkpt>
      <trkpt lat="44.74701" lon="5.03586">
        <ele>396</ele>
        <time>2020-02-07T14:10:25.000Z</time>
      </trkpt>
      <trkpt lat="44.747" lon="5.03586">
        <ele>396</ele>
        <time>2020-02-07T14:10:26.000Z</time>
      </trkpt>
      <trkpt lat="44.74699" lon="5.03586">
        <ele>396</ele>
        <time>2020-02-07T14:10:27.000Z</time>
      </trkpt>
      <trkpt lat="44.74699" lon="5.03586">
        <ele>396</ele>
        <time>2020-02-07T14:10:28.000Z</time>
      </trkpt>
      <trkpt lat="44.74698" lon="5.03586">
        <ele>396</ele>
        <time>2020-02-07T14:10:29.000Z</time>
      </trkpt>
      <trkpt lat="44.74698" lon="5.03586">
        <ele>396</ele>
        <time>2020-02-07T14:10:30.000Z</time>
      </trkpt>
      <trkpt lat="44.74697" lon="5.03586">
        <ele>396</ele>
        <time>2020-02-07T14:10:31.000Z</time>
      </trkpt>
      <trkpt lat="44.74696" lon="5.03586">
        <ele>396</ele>
        <time>2020-02-07T14:10:32.000Z</time>
      </trkpt>
      <trkpt lat="44.74695" lon="5.03586">
        <ele>396</ele>
        <time>2020-02-07T14:10:33.000Z</time>
      </trkpt>
      <trkpt lat="44.74694" lon="5.03585">
        <ele>397</ele>
        <time>2020-02-07T14:10:34.000Z</time>
      </trkpt>
      <trkpt lat="44.74693" lon="5.03584">
        <ele>397</ele>
        <time>2020-02-07T14:10:35.000Z</time>
      </trkpt>
      <trkpt lat="44.74692" lon="5.03584">
        <ele>397</ele>
        <time>2020-02-07T14:10:36.000Z</time>
      </trkpt>
      <trkpt lat="44.74691" lon="5.03583">
        <ele>397</ele>
        <time>2020-02-07T14:10:37.000Z</time>
      </trkpt>
      <trkpt lat="44.7469" lon="5.03582">
        <ele>397</ele>
        <time>2020-02-07T14:10:38.000Z</time>
      </trkpt>
      <trkpt lat="44.7469" lon="5.03581">
        <ele>397</ele>
        <time>2020-02-07T14:10:39.000Z</time>
      </trkpt>
      <trkpt lat="44.74689" lon="5.0358">
        <ele>397</ele>
        <time>2020-02-07T14:10:40.000Z</time>
      </trkpt>
      <trkpt lat="44.74688" lon="5.0358">
        <ele>397</ele>
        <time>2020-02-07T14:10:41.000Z</time>
      </trkpt>
      <trkpt lat="44.74687" lon="5.03579">
        <ele>397</ele>
        <time>2020-02-07T14:10:42.000Z</time>
      </trkpt>
      <trkpt lat="44.74686" lon="5.03578">
        <ele>397</ele>
        <time>2020-02-07T14:10:43.000Z</time>
      </trkpt>
      <trkpt lat="44.74685" lon="5.03578">
        <ele>397</ele>
        <time>2020-02-07T14:10:44.000Z</time>
      </trkpt>
      <trkpt lat="44.74684" lon="5.03577">
        <ele>397</ele>
        <time>2020-02-07T14:10:45.000Z</time>
      </trkpt>
      <trkpt lat="44.74684" lon="5.03576">
        <ele>397</ele>
        <time>2020-02-07T14:10:46.000Z</time>
      </trkpt>
      <trkpt lat="44.74683" lon="5.03575">
        <ele>397</ele>
        <time>2020-02-07T14:10:47.000Z</time>
      </trkpt>
      <trkpt lat="44.74682" lon="5.03574">
        <ele>397</ele>
        <time>2020-02-07T14:10:48.000Z</time>
      </trkpt>
      <trkpt lat="44.74681" lon="5.03573">
        <ele>397</ele>
        <time>2020-02-07T14:10:49.000Z</time>
      </trkpt>
      <trkpt lat="44.7468" lon="5.03573">
        <ele>397</ele>
        <time>2020-02-07T14:10:50.000Z</time>
      </trkpt>
      <trkpt lat="44.74679" lon="5.03572">
        <ele>398</ele>
        <time>2020-02-07T14:10:51.000Z</time>
      </trkpt>
      <trkpt lat="44.74678" lon="5.03572">
        <ele>398</ele>
        <time>2020-02-07T14:10:52.000Z</time>
      </trkpt>
      <trkpt lat="44.74678" lon="5.03571">
        <ele>398</ele>
        <time>2020-02-07T14:10:53.000Z</time>
      </trkpt>
      <trkpt lat="44.74677" lon="5.0357">
        <ele>398</ele>
        <time>2020-02-07T14:10:54.000Z</time>
      </trkpt>
      <trkpt lat="44.74676" lon="5.03569">
        <ele>397</ele>
        <time>2020-02-07T14:10:55.000Z</time>
      </trkpt>
      <trkpt lat="44.74675" lon="5.03568">
        <ele>397</ele>
        <time>2020-02-07T14:10:56.000Z</time>
      </trkpt>
      <trkpt lat="44.74674" lon="5.03567">
        <ele>397</ele>
        <time>2020-02-07T14:10:57.000Z</time>
      </trkpt>
      <trkpt lat="44.74674" lon="5.03566">
        <ele>397</ele>
        <time>2020-02-07T14:10:58.000Z</time>
      </trkpt>
      <trkpt lat="44.74673" lon="5.03565">
        <ele>397</ele>
        <time>2020-02-07T14:10:59.000Z</time>
      </trkpt>
      <trkpt lat="44.74672" lon="5.03565">
        <ele>397</ele>
        <time>2020-02-07T14:11:00.000Z</time>
      </trkpt>
      <trkpt lat="44.74671" lon="5.03565">
        <ele>397</ele>
        <time>2020-02-07T14:11:01.000Z</time>
      </trkpt>
      <trkpt lat="44.7467" lon="5.03565">
        <ele>397</ele>
        <time>2020-02-07T14:11:02.000Z</time>
      </trkpt>
      <trkpt lat="44.74669" lon="5.03564">
        <ele>397</ele>
        <time>2020-02-07T14:11:03.000Z</time>
      </trkpt>
      <trkpt lat="44.74668" lon="5.03564">
        <ele>397</ele>
        <time>2020-02-07T14:11:04.000Z</time>
      </trkpt>
      <trkpt lat="44.74667" lon="5.03563">
        <ele>397</ele>
        <time>2020-02-07T14:11:05.000Z</time>
      </trkpt>
      <trkpt lat="44.74666" lon="5.03563">
        <ele>397</ele>
        <time>2020-02-07T14:11:06.000Z</time>
      </trkpt>
      <trkpt lat="44.74665" lon="5.03562">
        <ele>397</ele>
        <time>2020-02-07T14:11:07.000Z</time>
      </trkpt>
      <trkpt lat="44.74664" lon="5.03562">
        <ele>397</ele>
        <time>2020-02-07T14:11:08.000Z</time>
      </trkpt>
      <trkpt lat="44.74663" lon="5.03562">
        <ele>397</ele>
        <time>2020-02-07T14:11:09.000Z</time>
      </trkpt>
      <trkpt lat="44.74662" lon="5.03561">
        <ele>397</ele>
        <time>2020-02-07T14:11:10.000Z</time>
      </trkpt>
      <trkpt lat="44.74661" lon="5.03561">
        <ele>398</ele>
        <time>2020-02-07T14:11:11.000Z</time>
      </trkpt>
      <trkpt lat="44.7466" lon="5.03561">
        <ele>398</ele>
        <time>2020-02-07T14:11:12.000Z</time>
      </trkpt>
      <trkpt lat="44.74659" lon="5.0356">
        <ele>398</ele>
        <time>2020-02-07T14:11:13.000Z</time>
      </trkpt>
      <trkpt lat="44.74658" lon="5.03559">
        <ele>398</ele>
        <time>2020-02-07T14:11:14.000Z</time>
      </trkpt>
      <trkpt lat="44.74657" lon="5.03558">
        <ele>398</ele>
        <time>2020-02-07T14:11:15.000Z</time>
      </trkpt>
      <trkpt lat="44.74656" lon="5.03558">
        <ele>398</ele>
        <time>2020-02-07T14:11:16.000Z</time>
      </trkpt>
      <trkpt lat="44.74656" lon="5.03557">
        <ele>399</ele>
        <time>2020-02-07T14:11:17.000Z</time>
      </trkpt>
      <trkpt lat="44.74655" lon="5.03557">
        <ele>399</ele>
        <time>2020-02-07T14:11:18.000Z</time>
      </trkpt>
      <trkpt lat="44.74654" lon="5.03556">
        <ele>399</ele>
        <time>2020-02-07T14:11:19.000Z</time>
      </trkpt>
      <trkpt lat="44.74652" lon="5.03556">
        <ele>399</ele>
        <time>2020-02-07T14:11:20.000Z</time>
      </trkpt>
      <trkpt lat="44.74651" lon="5.03555">
        <ele>399</ele>
        <time>2020-02-07T14:11:21.000Z</time>
      </trkpt>
      <trkpt lat="44.7465" lon="5.03554">
        <ele>398</ele>
        <time>2020-02-07T14:11:22.000Z</time>
      </trkpt>
      <trkpt lat="44.7465" lon="5.03554">
        <ele>398</ele>
        <time>2020-02-07T14:11:23.000Z</time>
      </trkpt>
      <trkpt lat="44.74649" lon="5.03553">
        <ele>398</ele>
        <time>2020-02-07T14:11:24.000Z</time>
      </trkpt>
      <trkpt lat="44.74648" lon="5.03552">
        <ele>398</ele>
        <time>2020-02-07T14:11:25.000Z</time>
      </trkpt>
      <trkpt lat="44.74646" lon="5.03552">
        <ele>398</ele>
        <time>2020-02-07T14:11:26.000Z</time>
      </trkpt>
      <trkpt lat="44.74645" lon="5.03552">
        <ele>398</ele>
        <time>2020-02-07T14:11:27.000Z</time>
      </trkpt>
      <trkpt lat="44.74644" lon="5.03551">
        <ele>398</ele>
        <time>2020-02-07T14:11:28.000Z</time>
      </trkpt>
      <trkpt lat="44.74643" lon="5.03551">
        <ele>398</ele>
        <time>2020-02-07T14:11:29.000Z</time>
      </trkpt>
      <trkpt lat="44.74642" lon="5.03551">
        <ele>398</ele>
        <time>2020-02-07T14:11:30.000Z</time>
      </trkpt>
      <trkpt lat="44.74642" lon="5.03551">
        <ele>398</ele>
        <time>2020-02-07T14:11:31.000Z</time>
      </trkpt>
      <trkpt lat="44.74642" lon="5.03551">
        <ele>398</ele>
        <time>2020-02-07T14:11:32.000Z</time>
      </trkpt>
      <trkpt lat="44.74642" lon="5.03551">
        <ele>398</ele>
        <time>2020-02-07T14:11:33.000Z</time>
      </trkpt>
      <trkpt lat="44.74642" lon="5.03551">
        <ele>398</ele>
        <time>2020-02-07T14:11:34.000Z</time>
      </trkpt>
      <trkpt lat="44.74642" lon="5.03551">
        <ele>398</ele>
        <time>2020-02-07T14:11:35.000Z</time>
      </trkpt>
      <trkpt lat="44.74642" lon="5.03551">
        <ele>398</ele>
        <time>2020-02-07T14:11:36.000Z</time>
      </trkpt>
      <trkpt lat="44.74641" lon="5.03551">
        <ele>398</ele>
        <time>2020-02-07T14:11:37.000Z</time>
      </trkpt>
      <trkpt lat="44.74641" lon="5.03551">
        <ele>398</ele>
        <time>2020-02-07T14:11:38.000Z</time>
      </trkpt>
      <trkpt lat="44.74641" lon="5.03551">
        <ele>398</ele>
        <time>2020-02-07T14:11:39.000Z</time>
      </trkpt>
      <trkpt lat="44.7464" lon="5.03551">
        <ele>398</ele>
        <time>2020-02-07T14:11:40.000Z</time>
      </trkpt>
      <trkpt lat="44.74639" lon="5.0355">
        <ele>398</ele>
        <time>2020-02-07T14:11:41.000Z</time>
      </trkpt>
      <trkpt lat="44.74638" lon="5.0355">
        <ele>398</ele>
        <time>2020-02-07T14:11:42.000Z</time>
      </trkpt>
      <trkpt lat="44.74637" lon="5.03549">
        <ele>399</ele>
        <time>2020-02-07T14:11:43.000Z</time>
      </trkpt>
      <trkpt lat="44.74636" lon="5.03548">
        <ele>399</ele>
        <time>2020-02-07T14:11:44.000Z</time>
      </trkpt>
      <trkpt lat="44.74635" lon="5.03548">
        <ele>399</ele>
        <time>2020-02-07T14:11:45.000Z</time>
      </trkpt>
      <trkpt lat="44.74634" lon="5.03548">
        <ele>399</ele>
        <time>2020-02-07T14:11:46.000Z</time>
      </trkpt>
      <trkpt lat="44.74633" lon="5.03548">
        <ele>399</ele>
        <time>2020-02-07T14:11:47.000Z</time>
      </trkpt>
      <trkpt lat="44.74632" lon="5.03548">
        <ele>399</ele>
        <time>2020-02-07T14:11:48.000Z</time>
      </trkpt>
      <trkpt lat="44.74631" lon="5.03548">
        <ele>399</ele>
        <time>2020-02-07T14:11:49.000Z</time>
      </trkpt>
      <trkpt lat="44.74631" lon="5.03547">
        <ele>399</ele>
        <time>2020-02-07T14:11:50.000Z</time>
      </trkpt>
      <trkpt lat="44.7463" lon="5.03547">
        <ele>400</ele>
        <time>2020-02-07T14:11:51.000Z</time>
      </trkpt>
      <trkpt lat="44.74629" lon="5.03547">
        <ele>400</ele>
        <time>2020-02-07T14:11:52.000Z</time>
      </trkpt>
      <trkpt lat="44.74628" lon="5.03547">
        <ele>400</ele>
        <time>2020-02-07T14:11:53.000Z</time>
      </trkpt>
      <trkpt lat="44.74627" lon="5.03547">
        <ele>400</ele>
        <time>2020-02-07T14:11:54.000Z</time>
      </trkpt>
      <trkpt lat="44.74626" lon="5.03547">
        <ele>400</ele>
        <time>2020-02-07T14:11:55.000Z</time>
      </trkpt>
      <trkpt lat="44.74625" lon="5.03546">
        <ele>400</ele>
        <time>2020-02-07T14:11:56.000Z</time>
      </trkpt>
      <trkpt lat="44.74624" lon="5.03546">
        <ele>400</ele>
        <time>2020-02-07T14:11:57.000Z</time>
      </trkpt>
      <trkpt lat="44.74623" lon="5.03546">
        <ele>400</ele>
        <time>2020-02-07T14:11:58.000Z</time>
      </trkpt>
      <trkpt lat="44.74622" lon="5.03545">
        <ele>400</ele>
        <time>2020-02-07T14:11:59.000Z</time>
      </trkpt>
      <trkpt lat="44.74621" lon="5.03545">
        <ele>400</ele>
        <time>2020-02-07T14:12:00.000Z</time>
      </trkpt>
      <trkpt lat="44.7462" lon="5.03545">
        <ele>400</ele>
        <time>2020-02-07T14:12:01.000Z</time>
      </trkpt>
      <trkpt lat="44.74619" lon="5.03545">
        <ele>400</ele>
        <time>2020-02-07T14:12:02.000Z</time>
      </trkpt>
      <trkpt lat="44.74618" lon="5.03545">
        <ele>400</ele>
        <time>2020-02-07T14:12:03.000Z</time>
      </trkpt>
      <trkpt lat="44.74617" lon="5.03544">
        <ele>400</ele>
        <time>2020-02-07T14:12:04.000Z</time>
      </trkpt>
      <trkpt lat="44.74616" lon="5.03544">
        <ele>400</ele>
        <time>2020-02-07T14:12:05.000Z</time>
      </trkpt>
      <trkpt lat="44.74615" lon="5.03544">
        <ele>400</ele>
        <time>2020-02-07T14:12:06.000Z</time>
      </trkpt>
      <trkpt lat="44.74614" lon="5.03544">
        <ele>400</ele>
        <time>2020-02-07T14:12:07.000Z</time>
      </trkpt>
      <trkpt lat="44.74613" lon="5.03544">
        <ele>400</ele>
        <time>2020-02-07T14:12:08.000Z</time>
      </trkpt>
      <trkpt lat="44.74612" lon="5.03544">
        <ele>400</ele>
        <time>2020-02-07T14:12:09.000Z</time>
      </trkpt>
      <trkpt lat="44.74611" lon="5.03543">
        <ele>400</ele>
        <time>2020-02-07T14:12:10.000Z</time>
      </trkpt>
      <trkpt lat="44.7461" lon="5.03543">
        <ele>400</ele>
        <time>2020-02-07T14:12:11.000Z</time>
      </trkpt>
      <trkpt lat="44.74609" lon="5.03543">
        <ele>400</ele>
        <time>2020-02-07T14:12:12.000Z</time>
      </trkpt>
      <trkpt lat="44.74608" lon="5.03543">
        <ele>400</ele>
        <time>2020-02-07T14:12:13.000Z</time>
      </trkpt>
      <trkpt lat="44.74607" lon="5.03542">
        <ele>401</ele>
        <time>2020-02-07T14:12:14.000Z</time>
      </trkpt>
      <trkpt lat="44.74606" lon="5.03542">
        <ele>401</ele>
        <time>2020-02-07T14:12:15.000Z</time>
      </trkpt>
      <trkpt lat="44.74605" lon="5.03541">
        <ele>401</ele>
        <time>2020-02-07T14:12:16.000Z</time>
      </trkpt>
      <trkpt lat="44.74604" lon="5.03541">
        <ele>401</ele>
        <time>2020-02-07T14:12:17.000Z</time>
      </trkpt>
      <trkpt lat="44.74603" lon="5.0354">
        <ele>401</ele>
        <time>2020-02-07T14:12:18.000Z</time>
      </trkpt>
      <trkpt lat="44.74602" lon="5.0354">
        <ele>401</ele>
        <time>2020-02-07T14:12:19.000Z</time>
      </trkpt>
      <trkpt lat="44.74601" lon="5.0354">
        <ele>401</ele>
        <time>2020-02-07T14:12:20.000Z</time>
      </trkpt>
      <trkpt lat="44.746" lon="5.0354">
        <ele>401</ele>
        <time>2020-02-07T14:12:21.000Z</time>
      </trkpt>
      <trkpt lat="44.74599" lon="5.0354">
        <ele>401</ele>
        <time>2020-02-07T14:12:22.000Z</time>
      </trkpt>
      <trkpt lat="44.74599" lon="5.0354">
        <ele>401</ele>
        <time>2020-02-07T14:12:23.000Z</time>
      </trkpt>
      <trkpt lat="44.74598" lon="5.0354">
        <ele>401</ele>
        <time>2020-02-07T14:12:24.000Z</time>
      </trkpt>
      <trkpt lat="44.74598" lon="5.0354">
        <ele>401</ele>
        <time>2020-02-07T14:12:25.000Z</time>
      </trkpt>
      <trkpt lat="44.74597" lon="5.0354">
        <ele>401</ele>
        <time>2020-02-07T14:12:26.000Z</time>
      </trkpt>
      <trkpt lat="44.74596" lon="5.03539">
        <ele>401</ele>
        <time>2020-02-07T14:12:27.000Z</time>
      </trkpt>
      <trkpt lat="44.74596" lon="5.03539">
        <ele>401</ele>
        <time>2020-02-07T14:12:28.000Z</time>
      </trkpt>
      <trkpt lat="44.74594" lon="5.03539">
        <ele>401</ele>
        <time>2020-02-07T14:12:29.000Z</time>
      </trkpt>
      <trkpt lat="44.74593" lon="5.03539">
        <ele>401</ele>
        <time>2020-02-07T14:12:30.000Z</time>
      </trkpt>
      <trkpt lat="44.74592" lon="5.03539">
        <ele>401</ele>
        <time>2020-02-07T14:12:31.000Z</time>
      </trkpt>
      <trkpt lat="44.74591" lon="5.03539">
        <ele>401</ele>
        <time>2020-02-07T14:12:32.000Z</time>
      </trkpt>
      <trkpt lat="44.7459" lon="5.03538">
        <ele>401</ele>
        <time>2020-02-07T14:12:33.000Z</time>
      </trkpt>
      <trkpt lat="44.74589" lon="5.03538">
        <ele>401</ele>
        <time>2020-02-07T14:12:34.000Z</time>
      </trkpt>
      <trkpt lat="44.74588" lon="5.03537">
        <ele>401</ele>
        <time>2020-02-07T14:12:35.000Z</time>
      </trkpt>
      <trkpt lat="44.74587" lon="5.03536">
        <ele>401</ele>
        <time>2020-02-07T14:12:36.000Z</time>
      </trkpt>
      <trkpt lat="44.74587" lon="5.03535">
        <ele>401</ele>
        <time>2020-02-07T14:12:37.000Z</time>
      </trkpt>
      <trkpt lat="44.74586" lon="5.03534">
        <ele>401</ele>
        <time>2020-02-07T14:12:38.000Z</time>
      </trkpt>
      <trkpt lat="44.74586" lon="5.03534">
        <ele>401</ele>
        <time>2020-02-07T14:12:39.000Z</time>
      </trkpt>
      <trkpt lat="44.74586" lon="5.03534">
        <ele>401</ele>
        <time>2020-02-07T14:12:40.000Z</time>
      </trkpt>
      <trkpt lat="44.74585" lon="5.03533">
        <ele>401</ele>
        <time>2020-02-07T14:12:41.000Z</time>
      </trkpt>
      <trkpt lat="44.74585" lon="5.03533">
        <ele>401</ele>
        <time>2020-02-07T14:12:42.000Z</time>
      </trkpt>
      <trkpt lat="44.74585" lon="5.03532">
        <ele>401</ele>
        <time>2020-02-07T14:12:43.000Z</time>
      </trkpt>
      <trkpt lat="44.74584" lon="5.03531">
        <ele>401</ele>
        <time>2020-02-07T14:12:44.000Z</time>
      </trkpt>
      <trkpt lat="44.74583" lon="5.03529">
        <ele>401</ele>
        <time>2020-02-07T14:12:45.000Z</time>
      </trkpt>
      <trkpt lat="44.74583" lon="5.03528">
        <ele>401</ele>
        <time>2020-02-07T14:12:46.000Z</time>
      </trkpt>
      <trkpt lat="44.74582" lon="5.03527">
        <ele>401</ele>
        <time>2020-02-07T14:12:47.000Z</time>
      </trkpt>
      <trkpt lat="44.74582" lon="5.03526">
        <ele>401</ele>
        <time>2020-02-07T14:12:48.000Z</time>
      </trkpt>
      <trkpt lat="44.74581" lon="5.03525">
        <ele>401</ele>
        <time>2020-02-07T14:12:49.000Z</time>
      </trkpt>
      <trkpt lat="44.74581" lon="5.03523">
        <ele>401</ele>
        <time>2020-02-07T14:12:50.000Z</time>
      </trkpt>
      <trkpt lat="44.74581" lon="5.03522">
        <ele>401</ele>
        <time>2020-02-07T14:12:51.000Z</time>
      </trkpt>
      <trkpt lat="44.74581" lon="5.0352">
        <ele>401</ele>
        <time>2020-02-07T14:12:52.000Z</time>
      </trkpt>
      <trkpt lat="44.74581" lon="5.03518">
        <ele>400</ele>
        <time>2020-02-07T14:12:53.000Z</time>
      </trkpt>
      <trkpt lat="44.74582" lon="5.03517">
        <ele>400</ele>
        <time>2020-02-07T14:12:54.000Z</time>
      </trkpt>
      <trkpt lat="44.74582" lon="5.03516">
        <ele>400</ele>
        <time>2020-02-07T14:12:55.000Z</time>
      </trkpt>
      <trkpt lat="44.74583" lon="5.03516">
        <ele>400</ele>
        <time>2020-02-07T14:12:56.000Z</time>
      </trkpt>
      <trkpt lat="44.74584" lon="5.03516">
        <ele>400</ele>
        <time>2020-02-07T14:12:57.000Z</time>
      </trkpt>
      <trkpt lat="44.74585" lon="5.03515">
        <ele>400</ele>
        <time>2020-02-07T14:12:58.000Z</time>
      </trkpt>
      <trkpt lat="44.74585" lon="5.03515">
        <ele>400</ele>
        <time>2020-02-07T14:12:59.000Z</time>
      </trkpt>
      <trkpt lat="44.74586" lon="5.03515">
        <ele>400</ele>
        <time>2020-02-07T14:13:00.000Z</time>
      </trkpt>
      <trkpt lat="44.74588" lon="5.03515">
        <ele>400</ele>
        <time>2020-02-07T14:13:01.000Z</time>
      </trkpt>
      <trkpt lat="44.74589" lon="5.03515">
        <ele>400</ele>
        <time>2020-02-07T14:13:02.000Z</time>
      </trkpt>
      <trkpt lat="44.7459" lon="5.03515">
        <ele>400</ele>
        <time>2020-02-07T14:13:03.000Z</time>
      </trkpt>
      <trkpt lat="44.74592" lon="5.03516">
        <ele>399</ele>
        <time>2020-02-07T14:13:04.000Z</time>
      </trkpt>
      <trkpt lat="44.74593" lon="5.03516">
        <ele>399</ele>
        <time>2020-02-07T14:13:05.000Z</time>
      </trkpt>
      <trkpt lat="44.74593" lon="5.03517">
        <ele>399</ele>
        <time>2020-02-07T14:13:06.000Z</time>
      </trkpt>
      <trkpt lat="44.74595" lon="5.03517">
        <ele>398</ele>
        <time>2020-02-07T14:13:07.000Z</time>
      </trkpt>
      <trkpt lat="44.74596" lon="5.03517">
        <ele>398</ele>
        <time>2020-02-07T14:13:08.000Z</time>
      </trkpt>
      <trkpt lat="44.74597" lon="5.03518">
        <ele>398</ele>
        <time>2020-02-07T14:13:09.000Z</time>
      </trkpt>
      <trkpt lat="44.74598" lon="5.03518">
        <ele>398</ele>
        <time>2020-02-07T14:13:10.000Z</time>
      </trkpt>
      <trkpt lat="44.74599" lon="5.03518">
        <ele>398</ele>
        <time>2020-02-07T14:13:11.000Z</time>
      </trkpt>
      <trkpt lat="44.74601" lon="5.03518">
        <ele>398</ele>
        <time>2020-02-07T14:13:12.000Z</time>
      </trkpt>
      <trkpt lat="44.74602" lon="5.03518">
        <ele>398</ele>
        <time>2020-02-07T14:13:13.000Z</time>
      </trkpt>
      <trkpt lat="44.74603" lon="5.03518">
        <ele>398</ele>
        <time>2020-02-07T14:13:14.000Z</time>
      </trkpt>
      <trkpt lat="44.74604" lon="5.03519">
        <ele>398</ele>
        <time>2020-02-07T14:13:15.000Z</time>
      </trkpt>
      <trkpt lat="44.74605" lon="5.03519">
        <ele>398</ele>
        <time>2020-02-07T14:13:16.000Z</time>
      </trkpt>
      <trkpt lat="44.74606" lon="5.03519">
        <ele>398</ele>
        <time>2020-02-07T14:13:17.000Z</time>
      </trkpt>
      <trkpt lat="44.74607" lon="5.0352">
        <ele>398</ele>
        <time>2020-02-07T14:13:18.000Z</time>
      </trkpt>
      <trkpt lat="44.74608" lon="5.0352">
        <ele>397</ele>
        <time>2020-02-07T14:13:19.000Z</time>
      </trkpt>
      <trkpt lat="44.74609" lon="5.03519">
        <ele>397</ele>
        <time>2020-02-07T14:13:20.000Z</time>
      </trkpt>
      <trkpt lat="44.7461" lon="5.0352">
        <ele>397</ele>
        <time>2020-02-07T14:13:21.000Z</time>
      </trkpt>
      <trkpt lat="44.74611" lon="5.0352">
        <ele>397</ele>
        <time>2020-02-07T14:13:22.000Z</time>
      </trkpt>
      <trkpt lat="44.74612" lon="5.0352">
        <ele>397</ele>
        <time>2020-02-07T14:13:23.000Z</time>
      </trkpt>
      <trkpt lat="44.74613" lon="5.0352">
        <ele>397</ele>
        <time>2020-02-07T14:13:24.000Z</time>
      </trkpt>
      <trkpt lat="44.74614" lon="5.0352">
        <ele>397</ele>
        <time>2020-02-07T14:13:25.000Z</time>
      </trkpt>
      <trkpt lat="44.74616" lon="5.0352">
        <ele>397</ele>
        <time>2020-02-07T14:13:26.000Z</time>
      </trkpt>
      <trkpt lat="44.74617" lon="5.0352">
        <ele>397</ele>
        <time>2020-02-07T14:13:27.000Z</time>
      </trkpt>
      <trkpt lat="44.74618" lon="5.0352">
        <ele>396</ele>
        <time>2020-02-07T14:13:28.000Z</time>
      </trkpt>
      <trkpt lat="44.7462" lon="5.0352">
        <ele>396</ele>
        <time>2020-02-07T14:13:29.000Z</time>
      </trkpt>
      <trkpt lat="44.74621" lon="5.0352">
        <ele>396</ele>
        <time>2020-02-07T14:13:30.000Z</time>
      </trkpt>
      <trkpt lat="44.74622" lon="5.0352">
        <ele>396</ele>
        <time>2020-02-07T14:13:31.000Z</time>
      </trkpt>
      <trkpt lat="44.74623" lon="5.0352">
        <ele>396</ele>
        <time>2020-02-07T14:13:32.000Z</time>
      </trkpt>
      <trkpt lat="44.74623" lon="5.03521">
        <ele>396</ele>
        <time>2020-02-07T14:13:33.000Z</time>
      </trkpt>
      <trkpt lat="44.74624" lon="5.03521">
        <ele>396</ele>
        <time>2020-02-07T14:13:34.000Z</time>
      </trkpt>
      <trkpt lat="44.74625" lon="5.03521">
        <ele>396</ele>
        <time>2020-02-07T14:13:35.000Z</time>
      </trkpt>
      <trkpt lat="44.74626" lon="5.03521">
        <ele>396</ele>
        <time>2020-02-07T14:13:36.000Z</time>
      </trkpt>
      <trkpt lat="44.74626" lon="5.03521">
        <ele>396</ele>
        <time>2020-02-07T14:13:37.000Z</time>
      </trkpt>
      <trkpt lat="44.74627" lon="5.03521">
        <ele>395</ele>
        <time>2020-02-07T14:13:38.000Z</time>
      </trkpt>
      <trkpt lat="44.74627" lon="5.03521">
        <ele>395</ele>
        <time>2020-02-07T14:13:39.000Z</time>
      </trkpt>
      <trkpt lat="44.74629" lon="5.03521">
        <ele>395</ele>
        <time>2020-02-07T14:13:40.000Z</time>
      </trkpt>
      <trkpt lat="44.7463" lon="5.03522">
        <ele>395</ele>
        <time>2020-02-07T14:13:41.000Z</time>
      </trkpt>
      <trkpt lat="44.7463" lon="5.03522">
        <ele>395</ele>
        <time>2020-02-07T14:13:42.000Z</time>
      </trkpt>
      <trkpt lat="44.74631" lon="5.03522">
        <ele>395</ele>
        <time>2020-02-07T14:13:43.000Z</time>
      </trkpt>
      <trkpt lat="44.74632" lon="5.03523">
        <ele>395</ele>
        <time>2020-02-07T14:13:44.000Z</time>
      </trkpt>
      <trkpt lat="44.74633" lon="5.03523">
        <ele>395</ele>
        <time>2020-02-07T14:13:45.000Z</time>
      </trkpt>
      <trkpt lat="44.74634" lon="5.03524">
        <ele>395</ele>
        <time>2020-02-07T14:13:46.000Z</time>
      </trkpt>
      <trkpt lat="44.74635" lon="5.03524">
        <ele>395</ele>
        <time>2020-02-07T14:13:47.000Z</time>
      </trkpt>
      <trkpt lat="44.74636" lon="5.03524">
        <ele>395</ele>
        <time>2020-02-07T14:13:48.000Z</time>
      </trkpt>
      <trkpt lat="44.74637" lon="5.03524">
        <ele>396</ele>
        <time>2020-02-07T14:13:49.000Z</time>
      </trkpt>
      <trkpt lat="44.74638" lon="5.03524">
        <ele>396</ele>
        <time>2020-02-07T14:13:50.000Z</time>
      </trkpt>
      <trkpt lat="44.74639" lon="5.03524">
        <ele>396</ele>
        <time>2020-02-07T14:13:51.000Z</time>
      </trkpt>
      <trkpt lat="44.7464" lon="5.03524">
        <ele>396</ele>
        <time>2020-02-07T14:13:52.000Z</time>
      </trkpt>
      <trkpt lat="44.7464" lon="5.03524">
        <ele>396</ele>
        <time>2020-02-07T14:13:53.000Z</time>
      </trkpt>
      <trkpt lat="44.74641" lon="5.03523">
        <ele>396</ele>
        <time>2020-02-07T14:13:54.000Z</time>
      </trkpt>
      <trkpt lat="44.74642" lon="5.03523">
        <ele>396</ele>
        <time>2020-02-07T14:13:55.000Z</time>
      </trkpt>
      <trkpt lat="44.74643" lon="5.03523">
        <ele>396</ele>
        <time>2020-02-07T14:13:56.000Z</time>
      </trkpt>
      <trkpt lat="44.74643" lon="5.03523">
        <ele>396</ele>
        <time>2020-02-07T14:13:57.000Z</time>
      </trkpt>
      <trkpt lat="44.74644" lon="5.03522">
        <ele>397</ele>
        <time>2020-02-07T14:13:58.000Z</time>
      </trkpt>
      <trkpt lat="44.74645" lon="5.03522">
        <ele>397</ele>
        <time>2020-02-07T14:13:59.000Z</time>
      </trkpt>
      <trkpt lat="44.74646" lon="5.03522">
        <ele>397</ele>
        <time>2020-02-07T14:14:00.000Z</time>
      </trkpt>
      <trkpt lat="44.74646" lon="5.03522">
        <ele>397</ele>
        <time>2020-02-07T14:14:01.000Z</time>
      </trkpt>
      <trkpt lat="44.74647" lon="5.03522">
        <ele>397</ele>
        <time>2020-02-07T14:14:02.000Z</time>
      </trkpt>
      <trkpt lat="44.74648" lon="5.03522">
        <ele>397</ele>
        <time>2020-02-07T14:14:03.000Z</time>
      </trkpt>
      <trkpt lat="44.74649" lon="5.03522">
        <ele>397</ele>
        <time>2020-02-07T14:14:04.000Z</time>
      </trkpt>
      <trkpt lat="44.7465" lon="5.03521">
        <ele>397</ele>
        <time>2020-02-07T14:14:05.000Z</time>
      </trkpt>
      <trkpt lat="44.7465" lon="5.03521">
        <ele>398</ele>
        <time>2020-02-07T14:14:06.000Z</time>
      </trkpt>
      <trkpt lat="44.74651" lon="5.0352">
        <ele>398</ele>
        <time>2020-02-07T14:14:07.000Z</time>
      </trkpt>
      <trkpt lat="44.74652" lon="5.0352">
        <ele>398</ele>
        <time>2020-02-07T14:14:08.000Z</time>
      </trkpt>
      <trkpt lat="44.74652" lon="5.03519">
        <ele>398</ele>
        <time>2020-02-07T14:14:09.000Z</time>
      </trkpt>
      <trkpt lat="44.74653" lon="5.03518">
        <ele>398</ele>
        <time>2020-02-07T14:14:10.000Z</time>
      </trkpt>
      <trkpt lat="44.74654" lon="5.03518">
        <ele>398</ele>
        <time>2020-02-07T14:14:11.000Z</time>
      </trkpt>
      <trkpt lat="44.74654" lon="5.03517">
        <ele>398</ele>
        <time>2020-02-07T14:14:12.000Z</time>
      </trkpt>
      <trkpt lat="44.74655" lon="5.03517">
        <ele>398</ele>
        <time>2020-02-07T14:14:13.000Z</time>
      </trkpt>
      <trkpt lat="44.74656" lon="5.03516">
        <ele>398</ele>
        <time>2020-02-07T14:14:14.000Z</time>
      </trkpt>
      <trkpt lat="44.74656" lon="5.03515">
        <ele>398</ele>
        <time>2020-02-07T14:14:15.000Z</time>
      </trkpt>
      <trkpt lat="44.74656" lon="5.03514">
        <ele>398</ele>
        <time>2020-02-07T14:14:16.000Z</time>
      </trkpt>
      <trkpt lat="44.74657" lon="5.03514">
        <ele>398</ele>
        <time>2020-02-07T14:14:17.000Z</time>
      </trkpt>
      <trkpt lat="44.74658" lon="5.03513">
        <ele>398</ele>
        <time>2020-02-07T14:14:18.000Z</time>
      </trkpt>
      <trkpt lat="44.74658" lon="5.03512">
        <ele>398</ele>
        <time>2020-02-07T14:14:19.000Z</time>
      </trkpt>
      <trkpt lat="44.74659" lon="5.03511">
        <ele>398</ele>
        <time>2020-02-07T14:14:20.000Z</time>
      </trkpt>
      <trkpt lat="44.74659" lon="5.0351">
        <ele>398</ele>
        <time>2020-02-07T14:14:21.000Z</time>
      </trkpt>
      <trkpt lat="44.7466" lon="5.0351">
        <ele>398</ele>
        <time>2020-02-07T14:14:22.000Z</time>
      </trkpt>
      <trkpt lat="44.7466" lon="5.03509">
        <ele>398</ele>
        <time>2020-02-07T14:14:23.000Z</time>
      </trkpt>
      <trkpt lat="44.74661" lon="5.03509">
        <ele>398</ele>
        <time>2020-02-07T14:14:24.000Z</time>
      </trkpt>
      <trkpt lat="44.74662" lon="5.03508">
        <ele>398</ele>
        <time>2020-02-07T14:14:25.000Z</time>
      </trkpt>
      <trkpt lat="44.74663" lon="5.03507">
        <ele>398</ele>
        <time>2020-02-07T14:14:26.000Z</time>
      </trkpt>
      <trkpt lat="44.74663" lon="5.03507">
        <ele>398</ele>
        <time>2020-02-07T14:14:27.000Z</time>
      </trkpt>
      <trkpt lat="44.74664" lon="5.03506">
        <ele>397</ele>
        <time>2020-02-07T14:14:28.000Z</time>
      </trkpt>
      <trkpt lat="44.74665" lon="5.03506">
        <ele>397</ele>
        <time>2020-02-07T14:14:29.000Z</time>
      </trkpt>
      <trkpt lat="44.74665" lon="5.03505">
        <ele>397</ele>
        <time>2020-02-07T14:14:30.000Z</time>
      </trkpt>
      <trkpt lat="44.74666" lon="5.03504">
        <ele>396</ele>
        <time>2020-02-07T14:14:31.000Z</time>
      </trkpt>
      <trkpt lat="44.74667" lon="5.03504">
        <ele>396</ele>
        <time>2020-02-07T14:14:32.000Z</time>
      </trkpt>
      <trkpt lat="44.74667" lon="5.03503">
        <ele>396</ele>
        <time>2020-02-07T14:14:33.000Z</time>
      </trkpt>
      <trkpt lat="44.74668" lon="5.03503">
        <ele>396</ele>
        <time>2020-02-07T14:14:34.000Z</time>
      </trkpt>
      <trkpt lat="44.74669" lon="5.03502">
        <ele>395</ele>
        <time>2020-02-07T14:14:35.000Z</time>
      </trkpt>
      <trkpt lat="44.74669" lon="5.03501">
        <ele>395</ele>
        <time>2020-02-07T14:14:36.000Z</time>
      </trkpt>
      <trkpt lat="44.7467" lon="5.03501">
        <ele>395</ele>
        <time>2020-02-07T14:14:37.000Z</time>
      </trkpt>
      <trkpt lat="44.74671" lon="5.035">
        <ele>395</ele>
        <time>2020-02-07T14:14:38.000Z</time>
      </trkpt>
      <trkpt lat="44.74671" lon="5.035">
        <ele>395</ele>
        <time>2020-02-07T14:14:39.000Z</time>
      </trkpt>
      <trkpt lat="44.74671" lon="5.035">
        <ele>394</ele>
        <time>2020-02-07T14:14:40.000Z</time>
      </trkpt>
      <trkpt lat="44.74673" lon="5.03499">
        <ele>394</ele>
        <time>2020-02-07T14:14:41.000Z</time>
      </trkpt>
      <trkpt lat="44.74673" lon="5.03498">
        <ele>394</ele>
        <time>2020-02-07T14:14:42.000Z</time>
      </trkpt>
      <trkpt lat="44.74674" lon="5.03497">
        <ele>394</ele>
        <time>2020-02-07T14:14:43.000Z</time>
      </trkpt>
      <trkpt lat="44.74675" lon="5.03497">
        <ele>394</ele>
        <time>2020-02-07T14:14:44.000Z</time>
      </trkpt>
      <trkpt lat="44.74676" lon="5.03496">
        <ele>394</ele>
        <time>2020-02-07T14:14:45.000Z</time>
      </trkpt>
      <trkpt lat="44.74676" lon="5.03496">
        <ele>394</ele>
        <time>2020-02-07T14:14:46.000Z</time>
      </trkpt>
      <trkpt lat="44.74677" lon="5.03495">
        <ele>394</ele>
        <time>2020-02-07T14:14:47.000Z</time>
      </trkpt>
      <trkpt lat="44.74678" lon="5.03494">
        <ele>394</ele>
        <time>2020-02-07T14:14:48.000Z</time>
      </trkpt>
      <trkpt lat="44.74679" lon="5.03493">
        <ele>394</ele>
        <time>2020-02-07T14:14:49.000Z</time>
      </trkpt>
      <trkpt lat="44.7468" lon="5.03492">
        <ele>394</ele>
        <time>2020-02-07T14:14:50.000Z</time>
      </trkpt>
      <trkpt lat="44.74681" lon="5.03492">
        <ele>394</ele>
        <time>2020-02-07T14:14:51.000Z</time>
      </trkpt>
      <trkpt lat="44.74682" lon="5.03491">
        <ele>394</ele>
        <time>2020-02-07T14:14:52.000Z</time>
      </trkpt>
      <trkpt lat="44.74683" lon="5.03491">
        <ele>393</ele>
        <time>2020-02-07T14:14:53.000Z</time>
      </trkpt>
      <trkpt lat="44.74684" lon="5.03491">
        <ele>393</ele>
        <time>2020-02-07T14:14:54.000Z</time>
      </trkpt>
      <trkpt lat="44.74685" lon="5.0349">
        <ele>393</ele>
        <time>2020-02-07T14:14:55.000Z</time>
      </trkpt>
      <trkpt lat="44.74685" lon="5.0349">
        <ele>393</ele>
        <time>2020-02-07T14:14:56.000Z</time>
      </trkpt>
      <trkpt lat="44.74686" lon="5.03489">
        <ele>393</ele>
        <time>2020-02-07T14:14:57.000Z</time>
      </trkpt>
      <trkpt lat="44.74687" lon="5.03489">
        <ele>393</ele>
        <time>2020-02-07T14:14:58.000Z</time>
      </trkpt>
      <trkpt lat="44.74688" lon="5.03488">
        <ele>393</ele>
        <time>2020-02-07T14:14:59.000Z</time>
      </trkpt>
      <trkpt lat="44.74689" lon="5.03488">
        <ele>393</ele>
        <time>2020-02-07T14:15:00.000Z</time>
      </trkpt>
      <trkpt lat="44.74689" lon="5.03488">
        <ele>393</ele>
        <time>2020-02-07T14:15:01.000Z</time>
      </trkpt>
      <trkpt lat="44.7469" lon="5.03487">
        <ele>393</ele>
        <time>2020-02-07T14:15:02.000Z</time>
      </trkpt>
      <trkpt lat="44.74691" lon="5.03487">
        <ele>393</ele>
        <time>2020-02-07T14:15:03.000Z</time>
      </trkpt>
      <trkpt lat="44.74692" lon="5.03487">
        <ele>393</ele>
        <time>2020-02-07T14:15:04.000Z</time>
      </trkpt>
      <trkpt lat="44.74692" lon="5.03486">
        <ele>393</ele>
        <time>2020-02-07T14:15:05.000Z</time>
      </trkpt>
      <trkpt lat="44.74693" lon="5.03486">
        <ele>393</ele>
        <time>2020-02-07T14:15:06.000Z</time>
      </trkpt>
      <trkpt lat="44.74694" lon="5.03485">
        <ele>393</ele>
        <time>2020-02-07T14:15:07.000Z</time>
      </trkpt>
      <trkpt lat="44.74695" lon="5.03485">
        <ele>393</ele>
        <time>2020-02-07T14:15:08.000Z</time>
      </trkpt>
      <trkpt lat="44.74696" lon="5.03485">
        <ele>392</ele>
        <time>2020-02-07T14:15:09.000Z</time>
      </trkpt>
      <trkpt lat="44.74696" lon="5.03485">
        <ele>392</ele>
        <time>2020-02-07T14:15:10.000Z</time>
      </trkpt>
      <trkpt lat="44.74697" lon="5.03484">
        <ele>392</ele>
        <time>2020-02-07T14:15:11.000Z</time>
      </trkpt>
      <trkpt lat="44.74698" lon="5.03484">
        <ele>392</ele>
        <time>2020-02-07T14:15:12.000Z</time>
      </trkpt>
      <trkpt lat="44.74699" lon="5.03482">
        <ele>392</ele>
        <time>2020-02-07T14:15:13.000Z</time>
      </trkpt>
      <trkpt lat="44.747" lon="5.03482">
        <ele>392</ele>
        <time>2020-02-07T14:15:14.000Z</time>
      </trkpt>
      <trkpt lat="44.747" lon="5.03481">
        <ele>392</ele>
        <time>2020-02-07T14:15:15.000Z</time>
      </trkpt>
      <trkpt lat="44.74701" lon="5.0348">
        <ele>392</ele>
        <time>2020-02-07T14:15:16.000Z</time>
      </trkpt>
      <trkpt lat="44.74701" lon="5.0348">
        <ele>392</ele>
        <time>2020-02-07T14:15:17.000Z</time>
      </trkpt>
      <trkpt lat="44.74702" lon="5.0348">
        <ele>392</ele>
        <time>2020-02-07T14:15:18.000Z</time>
      </trkpt>
      <trkpt lat="44.74702" lon="5.03479">
        <ele>392</ele>
        <time>2020-02-07T14:15:19.000Z</time>
      </trkpt>
      <trkpt lat="44.74703" lon="5.03479">
        <ele>392</ele>
        <time>2020-02-07T14:15:20.000Z</time>
      </trkpt>
      <trkpt lat="44.74704" lon="5.03479">
        <ele>392</ele>
        <time>2020-02-07T14:15:21.000Z</time>
      </trkpt>
      <trkpt lat="44.74704" lon="5.03478">
        <ele>392</ele>
        <time>2020-02-07T14:15:22.000Z</time>
      </trkpt>
      <trkpt lat="44.74705" lon="5.03478">
        <ele>392</ele>
        <time>2020-02-07T14:15:23.000Z</time>
      </trkpt>
      <trkpt lat="44.74706" lon="5.03478">
        <ele>392</ele>
        <time>2020-02-07T14:15:24.000Z</time>
      </trkpt>
      <trkpt lat="44.74706" lon="5.03478">
        <ele>392</ele>
        <time>2020-02-07T14:15:25.000Z</time>
      </trkpt>
      <trkpt lat="44.74707" lon="5.03478">
        <ele>392</ele>
        <time>2020-02-07T14:15:26.000Z</time>
      </trkpt>
      <trkpt lat="44.74707" lon="5.03478">
        <ele>392</ele>
        <time>2020-02-07T14:15:27.000Z</time>
      </trkpt>
      <trkpt lat="44.74708" lon="5.03477">
        <ele>392</ele>
        <time>2020-02-07T14:15:28.000Z</time>
      </trkpt>
      <trkpt lat="44.74709" lon="5.03477">
        <ele>392</ele>
        <time>2020-02-07T14:15:29.000Z</time>
      </trkpt>
      <trkpt lat="44.7471" lon="5.03476">
        <ele>392</ele>
        <time>2020-02-07T14:15:30.000Z</time>
      </trkpt>
      <trkpt lat="44.74711" lon="5.03476">
        <ele>392</ele>
        <time>2020-02-07T14:15:31.000Z</time>
      </trkpt>
      <trkpt lat="44.74711" lon="5.03475">
        <ele>392</ele>
        <time>2020-02-07T14:15:32.000Z</time>
      </trkpt>
      <trkpt lat="44.74712" lon="5.03474">
        <ele>392</ele>
        <time>2020-02-07T14:15:33.000Z</time>
      </trkpt>
      <trkpt lat="44.74713" lon="5.03474">
        <ele>391</ele>
        <time>2020-02-07T14:15:34.000Z</time>
      </trkpt>
      <trkpt lat="44.74714" lon="5.03473">
        <ele>391</ele>
        <time>2020-02-07T14:15:35.000Z</time>
      </trkpt>
      <trkpt lat="44.74715" lon="5.03472">
        <ele>391</ele>
        <time>2020-02-07T14:15:36.000Z</time>
      </trkpt>
      <trkpt lat="44.74716" lon="5.03471">
        <ele>391</ele>
        <time>2020-02-07T14:15:37.000Z</time>
      </trkpt>
      <trkpt lat="44.74717" lon="5.0347">
        <ele>391</ele>
        <time>2020-02-07T14:15:38.000Z</time>
      </trkpt>
      <trkpt lat="44.74717" lon="5.03469">
        <ele>391</ele>
        <time>2020-02-07T14:15:39.000Z</time>
      </trkpt>
      <trkpt lat="44.74718" lon="5.03467">
        <ele>391</ele>
        <time>2020-02-07T14:15:40.000Z</time>
      </trkpt>
      <trkpt lat="44.74719" lon="5.03466">
        <ele>391</ele>
        <time>2020-02-07T14:15:41.000Z</time>
      </trkpt>
      <trkpt lat="44.74719" lon="5.03465">
        <ele>391</ele>
        <time>2020-02-07T14:15:42.000Z</time>
      </trkpt>
      <trkpt lat="44.7472" lon="5.03463">
        <ele>390</ele>
        <time>2020-02-07T14:15:43.000Z</time>
      </trkpt>
      <trkpt lat="44.74721" lon="5.03462">
        <ele>390</ele>
        <time>2020-02-07T14:15:44.000Z</time>
      </trkpt>
      <trkpt lat="44.74721" lon="5.0346">
        <ele>390</ele>
        <time>2020-02-07T14:15:45.000Z</time>
      </trkpt>
      <trkpt lat="44.74722" lon="5.03459">
        <ele>390</ele>
        <time>2020-02-07T14:15:46.000Z</time>
      </trkpt>
      <trkpt lat="44.74723" lon="5.03457">
        <ele>390</ele>
        <time>2020-02-07T14:15:47.000Z</time>
      </trkpt>
      <trkpt lat="44.74723" lon="5.03456">
        <ele>390</ele>
        <time>2020-02-07T14:15:48.000Z</time>
      </trkpt>
      <trkpt lat="44.74723" lon="5.03454">
        <ele>390</ele>
        <time>2020-02-07T14:15:49.000Z</time>
      </trkpt>
      <trkpt lat="44.74723" lon="5.03453">
        <ele>389</ele>
        <time>2020-02-07T14:15:50.000Z</time>
      </trkpt>
      <trkpt lat="44.74723" lon="5.03451">
        <ele>389</ele>
        <time>2020-02-07T14:15:51.000Z</time>
      </trkpt>
      <trkpt lat="44.74722" lon="5.03449">
        <ele>389</ele>
        <time>2020-02-07T14:15:52.000Z</time>
      </trkpt>
      <trkpt lat="44.74722" lon="5.03448">
        <ele>389</ele>
        <time>2020-02-07T14:15:53.000Z</time>
      </trkpt>
      <trkpt lat="44.74722" lon="5.03447">
        <ele>388</ele>
        <time>2020-02-07T14:15:54.000Z</time>
      </trkpt>
      <trkpt lat="44.74722" lon="5.03446">
        <ele>388</ele>
        <time>2020-02-07T14:15:55.000Z</time>
      </trkpt>
      <trkpt lat="44.74722" lon="5.03445">
        <ele>388</ele>
        <time>2020-02-07T14:15:56.000Z</time>
      </trkpt>
      <trkpt lat="44.74722" lon="5.03443">
        <ele>387</ele>
        <time>2020-02-07T14:15:57.000Z</time>
      </trkpt>
      <trkpt lat="44.74722" lon="5.03442">
        <ele>387</ele>
        <time>2020-02-07T14:15:58.000Z</time>
      </trkpt>
      <trkpt lat="44.74722" lon="5.03441">
        <ele>387</ele>
        <time>2020-02-07T14:15:59.000Z</time>
      </trkpt>
      <trkpt lat="44.74722" lon="5.0344">
        <ele>387</ele>
        <time>2020-02-07T14:16:00.000Z</time>
      </trkpt>
      <trkpt lat="44.74722" lon="5.03439">
        <ele>386</ele>
        <time>2020-02-07T14:16:01.000Z</time>
      </trkpt>
      <trkpt lat="44.74722" lon="5.03438">
        <ele>386</ele>
        <time>2020-02-07T14:16:02.000Z</time>
      </trkpt>
      <trkpt lat="44.74723" lon="5.03437">
        <ele>386</ele>
        <time>2020-02-07T14:16:03.000Z</time>
      </trkpt>
      <trkpt lat="44.74723" lon="5.03435">
        <ele>386</ele>
        <time>2020-02-07T14:16:04.000Z</time>
      </trkpt>
      <trkpt lat="44.74723" lon="5.03434">
        <ele>385</ele>
        <time>2020-02-07T14:16:05.000Z</time>
      </trkpt>
      <trkpt lat="44.74723" lon="5.03433">
        <ele>385</ele>
        <time>2020-02-07T14:16:06.000Z</time>
      </trkpt>
      <trkpt lat="44.74723" lon="5.03432">
        <ele>385</ele>
        <time>2020-02-07T14:16:07.000Z</time>
      </trkpt>
      <trkpt lat="44.74724" lon="5.03431">
        <ele>385</ele>
        <time>2020-02-07T14:16:08.000Z</time>
      </trkpt>
      <trkpt lat="44.74725" lon="5.0343">
        <ele>385</ele>
        <time>2020-02-07T14:16:09.000Z</time>
      </trkpt>
      <trkpt lat="44.74725" lon="5.0343">
        <ele>384</ele>
        <time>2020-02-07T14:16:10.000Z</time>
      </trkpt>
      <trkpt lat="44.74726" lon="5.03429">
        <ele>384</ele>
        <time>2020-02-07T14:16:11.000Z</time>
      </trkpt>
      <trkpt lat="44.74726" lon="5.03428">
        <ele>384</ele>
        <time>2020-02-07T14:16:12.000Z</time>
      </trkpt>
      <trkpt lat="44.74727" lon="5.03426">
        <ele>384</ele>
        <time>2020-02-07T14:16:13.000Z</time>
      </trkpt>
      <trkpt lat="44.74727" lon="5.03425">
        <ele>384</ele>
        <time>2020-02-07T14:16:14.000Z</time>
      </trkpt>
      <trkpt lat="44.74728" lon="5.03424">
        <ele>384</ele>
        <time>2020-02-07T14:16:15.000Z</time>
      </trkpt>
      <trkpt lat="44.74729" lon="5.03423">
        <ele>383</ele>
        <time>2020-02-07T14:16:16.000Z</time>
      </trkpt>
      <trkpt lat="44.74729" lon="5.03422">
        <ele>383</ele>
        <time>2020-02-07T14:16:17.000Z</time>
      </trkpt>
      <trkpt lat="44.7473" lon="5.03421">
        <ele>383</ele>
        <time>2020-02-07T14:16:18.000Z</time>
      </trkpt>
      <trkpt lat="44.74731" lon="5.0342">
        <ele>383</ele>
        <time>2020-02-07T14:16:19.000Z</time>
      </trkpt>
      <trkpt lat="44.74731" lon="5.0342">
        <ele>383</ele>
        <time>2020-02-07T14:16:20.000Z</time>
      </trkpt>
      <trkpt lat="44.74731" lon="5.03419">
        <ele>383</ele>
        <time>2020-02-07T14:16:21.000Z</time>
      </trkpt>
      <trkpt lat="44.74732" lon="5.03419">
        <ele>383</ele>
        <time>2020-02-07T14:16:22.000Z</time>
      </trkpt>
      <trkpt lat="44.74732" lon="5.03418">
        <ele>383</ele>
        <time>2020-02-07T14:16:23.000Z</time>
      </trkpt>
      <trkpt lat="44.74732" lon="5.03417">
        <ele>383</ele>
        <time>2020-02-07T14:16:24.000Z</time>
      </trkpt>
      <trkpt lat="44.74732" lon="5.03417">
        <ele>383</ele>
        <time>2020-02-07T14:16:25.000Z</time>
      </trkpt>
      <trkpt lat="44.74732" lon="5.03416">
        <ele>383</ele>
        <time>2020-02-07T14:16:26.000Z</time>
      </trkpt>
      <trkpt lat="44.74733" lon="5.03415">
        <ele>383</ele>
        <time>2020-02-07T14:16:27.000Z</time>
      </trkpt>
      <trkpt lat="44.74734" lon="5.03414">
        <ele>382</ele>
        <time>2020-02-07T14:16:28.000Z</time>
      </trkpt>
      <trkpt lat="44.74734" lon="5.03413">
        <ele>382</ele>
        <time>2020-02-07T14:16:29.000Z</time>
      </trkpt>
      <trkpt lat="44.74735" lon="5.03412">
        <ele>382</ele>
        <time>2020-02-07T14:16:30.000Z</time>
      </trkpt>
      <trkpt lat="44.74736" lon="5.03411">
        <ele>382</ele>
        <time>2020-02-07T14:16:31.000Z</time>
      </trkpt>
      <trkpt lat="44.74736" lon="5.0341">
        <ele>382</ele>
        <time>2020-02-07T14:16:32.000Z</time>
      </trkpt>
      <trkpt lat="44.74737" lon="5.0341">
        <ele>382</ele>
        <time>2020-02-07T14:16:33.000Z</time>
      </trkpt>
      <trkpt lat="44.74737" lon="5.03408">
        <ele>382</ele>
        <time>2020-02-07T14:16:34.000Z</time>
      </trkpt>
      <trkpt lat="44.74738" lon="5.03408">
        <ele>382</ele>
        <time>2020-02-07T14:16:35.000Z</time>
      </trkpt>
      <trkpt lat="44.74738" lon="5.03407">
        <ele>382</ele>
        <time>2020-02-07T14:16:36.000Z</time>
      </trkpt>
      <trkpt lat="44.74739" lon="5.03406">
        <ele>382</ele>
        <time>2020-02-07T14:16:37.000Z</time>
      </trkpt>
      <trkpt lat="44.74739" lon="5.03404">
        <ele>382</ele>
        <time>2020-02-07T14:16:38.000Z</time>
      </trkpt>
      <trkpt lat="44.7474" lon="5.03404">
        <ele>382</ele>
        <time>2020-02-07T14:16:39.000Z</time>
      </trkpt>
      <trkpt lat="44.7474" lon="5.03403">
        <ele>382</ele>
        <time>2020-02-07T14:16:40.000Z</time>
      </trkpt>
      <trkpt lat="44.74741" lon="5.03403">
        <ele>382</ele>
        <time>2020-02-07T14:16:41.000Z</time>
      </trkpt>
      <trkpt lat="44.74741" lon="5.03403">
        <ele>382</ele>
        <time>2020-02-07T14:16:42.000Z</time>
      </trkpt>
      <trkpt lat="44.74742" lon="5.03402">
        <ele>382</ele>
        <time>2020-02-07T14:16:43.000Z</time>
      </trkpt>
      <trkpt lat="44.74742" lon="5.03401">
        <ele>382</ele>
        <time>2020-02-07T14:16:44.000Z</time>
      </trkpt>
      <trkpt lat="44.74743" lon="5.03401">
        <ele>382</ele>
        <time>2020-02-07T14:16:45.000Z</time>
      </trkpt>
      <trkpt lat="44.74744" lon="5.034">
        <ele>382</ele>
        <time>2020-02-07T14:16:46.000Z</time>
      </trkpt>
      <trkpt lat="44.74744" lon="5.03399">
        <ele>382</ele>
        <time>2020-02-07T14:16:47.000Z</time>
      </trkpt>
      <trkpt lat="44.74745" lon="5.03398">
        <ele>381</ele>
        <time>2020-02-07T14:16:48.000Z</time>
      </trkpt>
      <trkpt lat="44.74746" lon="5.03397">
        <ele>381</ele>
        <time>2020-02-07T14:16:49.000Z</time>
      </trkpt>
      <trkpt lat="44.74747" lon="5.03396">
        <ele>381</ele>
        <time>2020-02-07T14:16:50.000Z</time>
      </trkpt>
      <trkpt lat="44.74747" lon="5.03395">
        <ele>381</ele>
        <time>2020-02-07T14:16:51.000Z</time>
      </trkpt>
      <trkpt lat="44.74748" lon="5.03394">
        <ele>381</ele>
        <time>2020-02-07T14:16:52.000Z</time>
      </trkpt>
      <trkpt lat="44.74748" lon="5.03393">
        <ele>381</ele>
        <time>2020-02-07T14:16:53.000Z</time>
      </trkpt>
      <trkpt lat="44.74748" lon="5.03392">
        <ele>381</ele>
        <time>2020-02-07T14:16:54.000Z</time>
      </trkpt>
      <trkpt lat="44.74749" lon="5.03392">
        <ele>381</ele>
        <time>2020-02-07T14:16:55.000Z</time>
      </trkpt>
      <trkpt lat="44.74749" lon="5.0339">
        <ele>381</ele>
        <time>2020-02-07T14:16:56.000Z</time>
      </trkpt>
      <trkpt lat="44.7475" lon="5.03389">
        <ele>381</ele>
        <time>2020-02-07T14:16:57.000Z</time>
      </trkpt>
      <trkpt lat="44.74751" lon="5.03388">
        <ele>381</ele>
        <time>2020-02-07T14:16:58.000Z</time>
      </trkpt>
      <trkpt lat="44.74751" lon="5.03387">
        <ele>381</ele>
        <time>2020-02-07T14:16:59.000Z</time>
      </trkpt>
      <trkpt lat="44.74752" lon="5.03386">
        <ele>381</ele>
        <time>2020-02-07T14:17:00.000Z</time>
      </trkpt>
      <trkpt lat="44.74753" lon="5.03385">
        <ele>381</ele>
        <time>2020-02-07T14:17:01.000Z</time>
      </trkpt>
      <trkpt lat="44.74753" lon="5.03384">
        <ele>380</ele>
        <time>2020-02-07T14:17:02.000Z</time>
      </trkpt>
      <trkpt lat="44.74753" lon="5.03382">
        <ele>380</ele>
        <time>2020-02-07T14:17:03.000Z</time>
      </trkpt>
      <trkpt lat="44.74754" lon="5.03381">
        <ele>380</ele>
        <time>2020-02-07T14:17:04.000Z</time>
      </trkpt>
      <trkpt lat="44.74755" lon="5.03379">
        <ele>380</ele>
        <time>2020-02-07T14:17:05.000Z</time>
      </trkpt>
      <trkpt lat="44.74756" lon="5.03378">
        <ele>380</ele>
        <time>2020-02-07T14:17:06.000Z</time>
      </trkpt>
      <trkpt lat="44.74756" lon="5.03377">
        <ele>380</ele>
        <time>2020-02-07T14:17:07.000Z</time>
      </trkpt>
      <trkpt lat="44.74757" lon="5.03375">
        <ele>380</ele>
        <time>2020-02-07T14:17:08.000Z</time>
      </trkpt>
      <trkpt lat="44.74758" lon="5.03374">
        <ele>380</ele>
        <time>2020-02-07T14:17:09.000Z</time>
      </trkpt>
      <trkpt lat="44.74759" lon="5.03372">
        <ele>380</ele>
        <time>2020-02-07T14:17:10.000Z</time>
      </trkpt>
      <trkpt lat="44.74761" lon="5.03371">
        <ele>380</ele>
        <time>2020-02-07T14:17:11.000Z</time>
      </trkpt>
      <trkpt lat="44.74762" lon="5.0337">
        <ele>380</ele>
        <time>2020-02-07T14:17:12.000Z</time>
      </trkpt>
      <trkpt lat="44.74762" lon="5.03369">
        <ele>380</ele>
        <time>2020-02-07T14:17:13.000Z</time>
      </trkpt>
      <trkpt lat="44.74763" lon="5.03367">
        <ele>380</ele>
        <time>2020-02-07T14:17:14.000Z</time>
      </trkpt>
      <trkpt lat="44.74764" lon="5.03366">
        <ele>380</ele>
        <time>2020-02-07T14:17:15.000Z</time>
      </trkpt>
      <trkpt lat="44.74765" lon="5.03364">
        <ele>380</ele>
        <time>2020-02-07T14:17:16.000Z</time>
      </trkpt>
      <trkpt lat="44.74765" lon="5.03363">
        <ele>380</ele>
        <time>2020-02-07T14:17:17.000Z</time>
      </trkpt>
      <trkpt lat="44.74766" lon="5.03361">
        <ele>380</ele>
        <time>2020-02-07T14:17:18.000Z</time>
      </trkpt>
      <trkpt lat="44.74767" lon="5.0336">
        <ele>380</ele>
        <time>2020-02-07T14:17:19.000Z</time>
      </trkpt>
      <trkpt lat="44.74768" lon="5.03359">
        <ele>380</ele>
        <time>2020-02-07T14:17:20.000Z</time>
      </trkpt>
      <trkpt lat="44.74769" lon="5.03357">
        <ele>379</ele>
        <time>2020-02-07T14:17:21.000Z</time>
      </trkpt>
      <trkpt lat="44.74769" lon="5.03356">
        <ele>379</ele>
        <time>2020-02-07T14:17:22.000Z</time>
      </trkpt>
      <trkpt lat="44.7477" lon="5.03355">
        <ele>379</ele>
        <time>2020-02-07T14:17:23.000Z</time>
      </trkpt>
      <trkpt lat="44.7477" lon="5.03354">
        <ele>379</ele>
        <time>2020-02-07T14:17:24.000Z</time>
      </trkpt>
      <trkpt lat="44.74771" lon="5.03353">
        <ele>379</ele>
        <time>2020-02-07T14:17:25.000Z</time>
      </trkpt>
      <trkpt lat="44.74771" lon="5.03352">
        <ele>379</ele>
        <time>2020-02-07T14:17:26.000Z</time>
      </trkpt>
      <trkpt lat="44.74772" lon="5.03352">
        <ele>379</ele>
        <time>2020-02-07T14:17:27.000Z</time>
      </trkpt>
      <trkpt lat="44.74772" lon="5.03351">
        <ele>379</ele>
        <time>2020-02-07T14:17:28.000Z</time>
      </trkpt>
      <trkpt lat="44.74772" lon="5.03351">
        <ele>379</ele>
        <time>2020-02-07T14:17:29.000Z</time>
      </trkpt>
      <trkpt lat="44.74773" lon="5.0335">
        <ele>379</ele>
        <time>2020-02-07T14:17:30.000Z</time>
      </trkpt>
      <trkpt lat="44.74774" lon="5.03349">
        <ele>378</ele>
        <time>2020-02-07T14:17:31.000Z</time>
      </trkpt>
      <trkpt lat="44.74774" lon="5.03348">
        <ele>378</ele>
        <time>2020-02-07T14:17:32.000Z</time>
      </trkpt>
      <trkpt lat="44.74775" lon="5.03348">
        <ele>378</ele>
        <time>2020-02-07T14:17:33.000Z</time>
      </trkpt>
      <trkpt lat="44.74775" lon="5.03347">
        <ele>378</ele>
        <time>2020-02-07T14:17:34.000Z</time>
      </trkpt>
      <trkpt lat="44.74776" lon="5.03346">
        <ele>378</ele>
        <time>2020-02-07T14:17:35.000Z</time>
      </trkpt>
      <trkpt lat="44.74776" lon="5.03345">
        <ele>378</ele>
        <time>2020-02-07T14:17:36.000Z</time>
      </trkpt>
      <trkpt lat="44.74777" lon="5.03345">
        <ele>378</ele>
        <time>2020-02-07T14:17:37.000Z</time>
      </trkpt>
      <trkpt lat="44.74777" lon="5.03345">
        <ele>378</ele>
        <time>2020-02-07T14:17:38.000Z</time>
      </trkpt>
      <trkpt lat="44.74777" lon="5.03345">
        <ele>378</ele>
        <time>2020-02-07T14:17:39.000Z</time>
      </trkpt>
      <trkpt lat="44.74777" lon="5.03345">
        <ele>378</ele>
        <time>2020-02-07T14:17:40.000Z</time>
      </trkpt>
      <trkpt lat="44.74778" lon="5.03344">
        <ele>378</ele>
        <time>2020-02-07T14:17:41.000Z</time>
      </trkpt>
      <trkpt lat="44.74778" lon="5.03344">
        <ele>378</ele>
        <time>2020-02-07T14:17:42.000Z</time>
      </trkpt>
      <trkpt lat="44.74778" lon="5.03344">
        <ele>378</ele>
        <time>2020-02-07T14:17:43.000Z</time>
      </trkpt>
      <trkpt lat="44.74778" lon="5.03344">
        <ele>378</ele>
        <time>2020-02-07T14:17:44.000Z</time>
      </trkpt>
      <trkpt lat="44.74778" lon="5.03344">
        <ele>377</ele>
        <time>2020-02-07T14:17:45.000Z</time>
      </trkpt>
      <trkpt lat="44.74779" lon="5.03343">
        <ele>378</ele>
        <time>2020-02-07T14:17:46.000Z</time>
      </trkpt>
      <trkpt lat="44.74779" lon="5.03343">
        <ele>377</ele>
        <time>2020-02-07T14:17:47.000Z</time>
      </trkpt>
      <trkpt lat="44.74779" lon="5.03343">
        <ele>378</ele>
        <time>2020-02-07T14:17:48.000Z</time>
      </trkpt>
      <trkpt lat="44.7478" lon="5.03342">
        <ele>378</ele>
        <time>2020-02-07T14:17:49.000Z</time>
      </trkpt>
      <trkpt lat="44.7478" lon="5.03342">
        <ele>378</ele>
        <time>2020-02-07T14:17:50.000Z</time>
      </trkpt>
      <trkpt lat="44.7478" lon="5.03342">
        <ele>377</ele>
        <time>2020-02-07T14:17:51.000Z</time>
      </trkpt>
      <trkpt lat="44.7478" lon="5.03342">
        <ele>377</ele>
        <time>2020-02-07T14:17:52.000Z</time>
      </trkpt>
      <trkpt lat="44.7478" lon="5.03341">
        <ele>377</ele>
        <time>2020-02-07T14:17:53.000Z</time>
      </trkpt>
      <trkpt lat="44.7478" lon="5.03341">
        <ele>377</ele>
        <time>2020-02-07T14:17:54.000Z</time>
      </trkpt>
      <trkpt lat="44.74781" lon="5.03341">
        <ele>377</ele>
        <time>2020-02-07T14:17:55.000Z</time>
      </trkpt>
      <trkpt lat="44.74781" lon="5.0334">
        <ele>377</ele>
        <time>2020-02-07T14:17:56.000Z</time>
      </trkpt>
      <trkpt lat="44.74782" lon="5.03341">
        <ele>377</ele>
        <time>2020-02-07T14:17:57.000Z</time>
      </trkpt>
      <trkpt lat="44.74782" lon="5.0334">
        <ele>378</ele>
        <time>2020-02-07T14:17:58.000Z</time>
      </trkpt>
      <trkpt lat="44.74782" lon="5.03341">
        <ele>378</ele>
        <time>2020-02-07T14:17:59.000Z</time>
      </trkpt>
      <trkpt lat="44.74782" lon="5.03341">
        <ele>378</ele>
        <time>2020-02-07T14:18:00.000Z</time>
      </trkpt>
      <trkpt lat="44.74781" lon="5.03341">
        <ele>378</ele>
        <time>2020-02-07T14:18:01.000Z</time>
      </trkpt>
      <trkpt lat="44.74782" lon="5.0334">
        <ele>378</ele>
        <time>2020-02-07T14:18:02.000Z</time>
      </trkpt>
      <trkpt lat="44.74782" lon="5.0334">
        <ele>378</ele>
        <time>2020-02-07T14:18:03.000Z</time>
      </trkpt>
      <trkpt lat="44.74782" lon="5.0334">
        <ele>378</ele>
        <time>2020-02-07T14:18:04.000Z</time>
      </trkpt>
      <trkpt lat="44.74782" lon="5.03339">
        <ele>378</ele>
        <time>2020-02-07T14:18:05.000Z</time>
      </trkpt>
      <trkpt lat="44.74782" lon="5.03339">
        <ele>378</ele>
        <time>2020-02-07T14:18:06.000Z</time>
      </trkpt>
      <trkpt lat="44.74782" lon="5.03339">
        <ele>379</ele>
        <time>2020-02-07T14:18:07.000Z</time>
      </trkpt>
      <trkpt lat="44.74782" lon="5.03339">
        <ele>379</ele>
        <time>2020-02-07T14:18:08.000Z</time>
      </trkpt>
      <trkpt lat="44.74782" lon="5.03338">
        <ele>379</ele>
        <time>2020-02-07T14:18:09.000Z</time>
      </trkpt>
      <trkpt lat="44.74782" lon="5.03338">
        <ele>379</ele>
        <time>2020-02-07T14:18:10.000Z</time>
      </trkpt>
      <trkpt lat="44.74782" lon="5.03338">
        <ele>379</ele>
        <time>2020-02-07T14:18:11.000Z</time>
      </trkpt>
      <trkpt lat="44.74782" lon="5.03338">
        <ele>379</ele>
        <time>2020-02-07T14:18:12.000Z</time>
      </trkpt>
      <trkpt lat="44.74782" lon="5.03338">
        <ele>379</ele>
        <time>2020-02-07T14:18:13.000Z</time>
      </trkpt>
      <trkpt lat="44.74781" lon="5.03338">
        <ele>379</ele>
        <time>2020-02-07T14:18:14.000Z</time>
      </trkpt>
      <trkpt lat="44.74781" lon="5.03338">
        <ele>379</ele>
        <time>2020-02-07T14:18:15.000Z</time>
      </trkpt>
      <trkpt lat="44.74781" lon="5.03338">
        <ele>379</ele>
        <time>2020-02-07T14:18:16.000Z</time>
      </trkpt>
      <trkpt lat="44.74781" lon="5.03338">
        <ele>379</ele>
        <time>2020-02-07T14:18:17.000Z</time>
      </trkpt>
      <trkpt lat="44.74781" lon="5.03338">
        <ele>379</ele>
        <time>2020-02-07T14:18:18.000Z</time>
      </trkpt>
      <trkpt lat="44.74781" lon="5.03338">
        <ele>379</ele>
        <time>2020-02-07T14:18:19.000Z</time>
      </trkpt>
      <trkpt lat="44.74781" lon="5.03338">
        <ele>379</ele>
        <time>2020-02-07T14:18:20.000Z</time>
      </trkpt>
      <trkpt lat="44.74781" lon="5.03338">
        <ele>379</ele>
        <time>2020-02-07T14:18:21.000Z</time>
      </trkpt>
      <trkpt lat="44.74781" lon="5.03338">
        <ele>379</ele>
        <time>2020-02-07T14:18:22.000Z</time>
      </trkpt>
      <trkpt lat="44.74781" lon="5.03338">
        <ele>379</ele>
        <time>2020-02-07T14:18:23.000Z</time>
      </trkpt>
      <trkpt lat="44.74781" lon="5.03339">
        <ele>379</ele>
        <time>2020-02-07T14:18:24.000Z</time>
      </trkpt>
      <trkpt lat="44.74781" lon="5.03339">
        <ele>379</ele>
        <time>2020-02-07T14:18:25.000Z</time>
      </trkpt>
      <trkpt lat="44.7478" lon="5.03339">
        <ele>379</ele>
        <time>2020-02-07T14:18:26.000Z</time>
      </trkpt>
      <trkpt lat="44.7478" lon="5.03338">
        <ele>379</ele>
        <time>2020-02-07T14:18:27.000Z</time>
      </trkpt>
      <trkpt lat="44.74779" lon="5.03338">
        <ele>379</ele>
        <time>2020-02-07T14:18:28.000Z</time>
      </trkpt>
      <trkpt lat="44.74778" lon="5.03338">
        <ele>379</ele>
        <time>2020-02-07T14:18:29.000Z</time>
      </trkpt>
      <trkpt lat="44.74777" lon="5.03339">
        <ele>379</ele>
        <time>2020-02-07T14:18:30.000Z</time>
      </trkpt>
      <trkpt lat="44.74777" lon="5.03339">
        <ele>379</ele>
        <time>2020-02-07T14:18:31.000Z</time>
      </trkpt>
      <trkpt lat="44.74776" lon="5.0334">
        <ele>379</ele>
        <time>2020-02-07T14:18:32.000Z</time>
      </trkpt>
      <trkpt lat="44.74775" lon="5.0334">
        <ele>379</ele>
        <time>2020-02-07T14:18:33.000Z</time>
      </trkpt>
      <trkpt lat="44.74775" lon="5.0334">
        <ele>379</ele>
        <time>2020-02-07T14:18:34.000Z</time>
      </trkpt>
      <trkpt lat="44.74774" lon="5.03341">
        <ele>379</ele>
        <time>2020-02-07T14:18:35.000Z</time>
      </trkpt>
      <trkpt lat="44.74773" lon="5.03341">
        <ele>379</ele>
        <time>2020-02-07T14:18:36.000Z</time>
      </trkpt>
      <trkpt lat="44.74773" lon="5.03341">
        <ele>379</ele>
        <time>2020-02-07T14:18:37.000Z</time>
      </trkpt>
      <trkpt lat="44.74773" lon="5.03341">
        <ele>379</ele>
        <time>2020-02-07T14:18:38.000Z</time>
      </trkpt>
      <trkpt lat="44.74772" lon="5.03341">
        <ele>379</ele>
        <time>2020-02-07T14:18:39.000Z</time>
      </trkpt>
      <trkpt lat="44.74772" lon="5.03341">
        <ele>379</ele>
        <time>2020-02-07T14:18:40.000Z</time>
      </trkpt>
      <trkpt lat="44.74771" lon="5.03341">
        <ele>379</ele>
        <time>2020-02-07T14:18:41.000Z</time>
      </trkpt>
      <trkpt lat="44.7477" lon="5.03341">
        <ele>379</ele>
        <time>2020-02-07T14:18:42.000Z</time>
      </trkpt>
      <trkpt lat="44.7477" lon="5.03342">
        <ele>379</ele>
        <time>2020-02-07T14:18:43.000Z</time>
      </trkpt>
      <trkpt lat="44.74769" lon="5.03342">
        <ele>379</ele>
        <time>2020-02-07T14:18:44.000Z</time>
      </trkpt>
      <trkpt lat="44.74769" lon="5.03342">
        <ele>379</ele>
        <time>2020-02-07T14:18:45.000Z</time>
      </trkpt>
      <trkpt lat="44.74769" lon="5.03342">
        <ele>379</ele>
        <time>2020-02-07T14:18:46.000Z</time>
      </trkpt>
      <trkpt lat="44.74768" lon="5.03341">
        <ele>379</ele>
        <time>2020-02-07T14:18:47.000Z</time>
      </trkpt>
      <trkpt lat="44.74768" lon="5.03341">
        <ele>379</ele>
        <time>2020-02-07T14:18:48.000Z</time>
      </trkpt>
      <trkpt lat="44.74768" lon="5.03341">
        <ele>379</ele>
        <time>2020-02-07T14:18:49.000Z</time>
      </trkpt>
      <trkpt lat="44.74768" lon="5.03341">
        <ele>379</ele>
        <time>2020-02-07T14:18:50.000Z</time>
      </trkpt>
      <trkpt lat="44.74767" lon="5.03341">
        <ele>379</ele>
        <time>2020-02-07T14:18:51.000Z</time>
      </trkpt>
      <trkpt lat="44.74767" lon="5.03341">
        <ele>380</ele>
        <time>2020-02-07T14:18:52.000Z</time>
      </trkpt>
      <trkpt lat="44.74767" lon="5.03342">
        <ele>380</ele>
        <time>2020-02-07T14:18:53.000Z</time>
      </trkpt>
      <trkpt lat="44.74766" lon="5.03342">
        <ele>380</ele>
        <time>2020-02-07T14:18:54.000Z</time>
      </trkpt>
      <trkpt lat="44.74766" lon="5.03342">
        <ele>380</ele>
        <time>2020-02-07T14:18:55.000Z</time>
      </trkpt>
      <trkpt lat="44.74765" lon="5.03342">
        <ele>380</ele>
        <time>2020-02-07T14:18:56.000Z</time>
      </trkpt>
      <trkpt lat="44.74764" lon="5.03342">
        <ele>380</ele>
        <time>2020-02-07T14:18:57.000Z</time>
      </trkpt>
      <trkpt lat="44.74764" lon="5.03342">
        <ele>380</ele>
        <time>2020-02-07T14:18:58.000Z</time>
      </trkpt>
      <trkpt lat="44.74763" lon="5.03342">
        <ele>380</ele>
        <time>2020-02-07T14:18:59.000Z</time>
      </trkpt>
      <trkpt lat="44.74763" lon="5.03342">
        <ele>380</ele>
        <time>2020-02-07T14:19:00.000Z</time>
      </trkpt>
      <trkpt lat="44.74763" lon="5.03342">
        <ele>380</ele>
        <time>2020-02-07T14:19:01.000Z</time>
      </trkpt>
      <trkpt lat="44.74762" lon="5.03341">
        <ele>380</ele>
        <time>2020-02-07T14:19:02.000Z</time>
      </trkpt>
      <trkpt lat="44.74762" lon="5.03341">
        <ele>380</ele>
        <time>2020-02-07T14:19:03.000Z</time>
      </trkpt>
      <trkpt lat="44.74762" lon="5.03341">
        <ele>380</ele>
        <time>2020-02-07T14:19:04.000Z</time>
      </trkpt>
      <trkpt lat="44.74762" lon="5.0334">
        <ele>380</ele>
        <time>2020-02-07T14:19:05.000Z</time>
      </trkpt>
      <trkpt lat="44.74761" lon="5.0334">
        <ele>380</ele>
        <time>2020-02-07T14:19:06.000Z</time>
      </trkpt>
      <trkpt lat="44.74761" lon="5.0334">
        <ele>380</ele>
        <time>2020-02-07T14:19:07.000Z</time>
      </trkpt>
      <trkpt lat="44.7476" lon="5.0334">
        <ele>380</ele>
        <time>2020-02-07T14:19:08.000Z</time>
      </trkpt>
      <trkpt lat="44.7476" lon="5.03339">
        <ele>380</ele>
        <time>2020-02-07T14:19:09.000Z</time>
      </trkpt>
      <trkpt lat="44.74759" lon="5.03339">
        <ele>380</ele>
        <time>2020-02-07T14:19:10.000Z</time>
      </trkpt>
      <trkpt lat="44.74759" lon="5.03339">
        <ele>380</ele>
        <time>2020-02-07T14:19:11.000Z</time>
      </trkpt>
      <trkpt lat="44.74758" lon="5.0334">
        <ele>380</ele>
        <time>2020-02-07T14:19:12.000Z</time>
      </trkpt>
      <trkpt lat="44.74757" lon="5.0334">
        <ele>380</ele>
        <time>2020-02-07T14:19:13.000Z</time>
      </trkpt>
      <trkpt lat="44.74756" lon="5.0334">
        <ele>380</ele>
        <time>2020-02-07T14:19:14.000Z</time>
      </trkpt>
      <trkpt lat="44.74756" lon="5.03341">
        <ele>380</ele>
        <time>2020-02-07T14:19:15.000Z</time>
      </trkpt>
      <trkpt lat="44.74755" lon="5.03341">
        <ele>380</ele>
        <time>2020-02-07T14:19:16.000Z</time>
      </trkpt>
      <trkpt lat="44.74755" lon="5.03341">
        <ele>380</ele>
        <time>2020-02-07T14:19:17.000Z</time>
      </trkpt>
      <trkpt lat="44.74754" lon="5.03341">
        <ele>380</ele>
        <time>2020-02-07T14:19:18.000Z</time>
      </trkpt>
      <trkpt lat="44.74754" lon="5.0334">
        <ele>380</ele>
        <time>2020-02-07T14:19:19.000Z</time>
      </trkpt>
      <trkpt lat="44.74754" lon="5.0334">
        <ele>381</ele>
        <time>2020-02-07T14:19:20.000Z</time>
      </trkpt>
      <trkpt lat="44.74753" lon="5.0334">
        <ele>381</ele>
        <time>2020-02-07T14:19:21.000Z</time>
      </trkpt>
      <trkpt lat="44.74753" lon="5.0334">
        <ele>381</ele>
        <time>2020-02-07T14:19:22.000Z</time>
      </trkpt>
      <trkpt lat="44.74752" lon="5.0334">
        <ele>381</ele>
        <time>2020-02-07T14:19:23.000Z</time>
      </trkpt>
      <trkpt lat="44.74752" lon="5.0334">
        <ele>382</ele>
        <time>2020-02-07T14:19:24.000Z</time>
      </trkpt>
      <trkpt lat="44.74752" lon="5.0334">
        <ele>382</ele>
        <time>2020-02-07T14:19:25.000Z</time>
      </trkpt>
      <trkpt lat="44.74752" lon="5.0334">
        <ele>382</ele>
        <time>2020-02-07T14:19:26.000Z</time>
      </trkpt>
      <trkpt lat="44.74752" lon="5.03339">
        <ele>382</ele>
        <time>2020-02-07T14:19:27.000Z</time>
      </trkpt>
      <trkpt lat="44.74751" lon="5.03339">
        <ele>383</ele>
        <time>2020-02-07T14:19:28.000Z</time>
      </trkpt>
      <trkpt lat="44.74751" lon="5.03339">
        <ele>383</ele>
        <time>2020-02-07T14:19:29.000Z</time>
      </trkpt>
      <trkpt lat="44.74751" lon="5.03339">
        <ele>383</ele>
        <time>2020-02-07T14:19:30.000Z</time>
      </trkpt>
      <trkpt lat="44.74751" lon="5.03339">
        <ele>383</ele>
        <time>2020-02-07T14:19:31.000Z</time>
      </trkpt>
      <trkpt lat="44.7475" lon="5.03339">
        <ele>383</ele>
        <time>2020-02-07T14:19:32.000Z</time>
      </trkpt>
      <trkpt lat="44.7475" lon="5.03339">
        <ele>383</ele>
        <time>2020-02-07T14:19:33.000Z</time>
      </trkpt>
      <trkpt lat="44.7475" lon="5.0334">
        <ele>383</ele>
        <time>2020-02-07T14:19:34.000Z</time>
      </trkpt>
      <trkpt lat="44.7475" lon="5.0334">
        <ele>383</ele>
        <time>2020-02-07T14:19:35.000Z</time>
      </trkpt>
      <trkpt lat="44.74749" lon="5.03341">
        <ele>383</ele>
        <time>2020-02-07T14:19:36.000Z</time>
      </trkpt>
      <trkpt lat="44.74749" lon="5.03341">
        <ele>383</ele>
        <time>2020-02-07T14:19:37.000Z</time>
      </trkpt>
      <trkpt lat="44.74749" lon="5.03341">
        <ele>383</ele>
        <time>2020-02-07T14:19:38.000Z</time>
      </trkpt>
      <trkpt lat="44.74749" lon="5.03341">
        <ele>384</ele>
        <time>2020-02-07T14:19:39.000Z</time>
      </trkpt>
      <trkpt lat="44.74749" lon="5.0334">
        <ele>384</ele>
        <time>2020-02-07T14:19:40.000Z</time>
      </trkpt>
      <trkpt lat="44.74748" lon="5.0334">
        <ele>384</ele>
        <time>2020-02-07T14:19:41.000Z</time>
      </trkpt>
      <trkpt lat="44.74748" lon="5.0334">
        <ele>384</ele>
        <time>2020-02-07T14:19:42.000Z</time>
      </trkpt>
      <trkpt lat="44.74748" lon="5.0334">
        <ele>384</ele>
        <time>2020-02-07T14:19:43.000Z</time>
      </trkpt>
      <trkpt lat="44.74748" lon="5.0334">
        <ele>384</ele>
        <time>2020-02-07T14:19:44.000Z</time>
      </trkpt>
      <trkpt lat="44.74747" lon="5.0334">
        <ele>384</ele>
        <time>2020-02-07T14:19:45.000Z</time>
      </trkpt>
      <trkpt lat="44.74747" lon="5.0334">
        <ele>384</ele>
        <time>2020-02-07T14:19:46.000Z</time>
      </trkpt>
      <trkpt lat="44.74747" lon="5.03339">
        <ele>384</ele>
        <time>2020-02-07T14:19:47.000Z</time>
      </trkpt>
      <trkpt lat="44.74746" lon="5.0334">
        <ele>384</ele>
        <time>2020-02-07T14:19:48.000Z</time>
      </trkpt>
      <trkpt lat="44.74746" lon="5.0334">
        <ele>384</ele>
        <time>2020-02-07T14:19:49.000Z</time>
      </trkpt>
      <trkpt lat="44.74745" lon="5.0334">
        <ele>384</ele>
        <time>2020-02-07T14:19:50.000Z</time>
      </trkpt>
      <trkpt lat="44.74744" lon="5.0334">
        <ele>384</ele>
        <time>2020-02-07T14:19:51.000Z</time>
      </trkpt>
      <trkpt lat="44.74744" lon="5.03341">
        <ele>384</ele>
        <time>2020-02-07T14:19:52.000Z</time>
      </trkpt>
      <trkpt lat="44.74743" lon="5.0334">
        <ele>384</ele>
        <time>2020-02-07T14:19:53.000Z</time>
      </trkpt>
      <trkpt lat="44.74743" lon="5.03341">
        <ele>384</ele>
        <time>2020-02-07T14:19:54.000Z</time>
      </trkpt>
      <trkpt lat="44.74742" lon="5.03341">
        <ele>384</ele>
        <time>2020-02-07T14:19:55.000Z</time>
      </trkpt>
      <trkpt lat="44.74742" lon="5.03341">
        <ele>385</ele>
        <time>2020-02-07T14:19:56.000Z</time>
      </trkpt>
      <trkpt lat="44.74741" lon="5.03341">
        <ele>385</ele>
        <time>2020-02-07T14:19:57.000Z</time>
      </trkpt>
      <trkpt lat="44.74741" lon="5.0334">
        <ele>385</ele>
        <time>2020-02-07T14:19:58.000Z</time>
      </trkpt>
      <trkpt lat="44.7474" lon="5.0334">
        <ele>385</ele>
        <time>2020-02-07T14:19:59.000Z</time>
      </trkpt>
      <trkpt lat="44.7474" lon="5.0334">
        <ele>385</ele>
        <time>2020-02-07T14:20:00.000Z</time>
      </trkpt>
      <trkpt lat="44.7474" lon="5.0334">
        <ele>385</ele>
        <time>2020-02-07T14:20:01.000Z</time>
      </trkpt>
      <trkpt lat="44.74739" lon="5.0334">
        <ele>385</ele>
        <time>2020-02-07T14:20:02.000Z</time>
      </trkpt>
      <trkpt lat="44.74738" lon="5.0334">
        <ele>386</ele>
        <time>2020-02-07T14:20:03.000Z</time>
      </trkpt>
      <trkpt lat="44.74738" lon="5.03339">
        <ele>386</ele>
        <time>2020-02-07T14:20:04.000Z</time>
      </trkpt>
      <trkpt lat="44.74738" lon="5.03339">
        <ele>386</ele>
        <time>2020-02-07T14:20:05.000Z</time>
      </trkpt>
      <trkpt lat="44.74738" lon="5.03338">
        <ele>386</ele>
        <time>2020-02-07T14:20:06.000Z</time>
      </trkpt>
      <trkpt lat="44.74737" lon="5.03338">
        <ele>386</ele>
        <time>2020-02-07T14:20:07.000Z</time>
      </trkpt>
      <trkpt lat="44.74737" lon="5.03338">
        <ele>386</ele>
        <time>2020-02-07T14:20:08.000Z</time>
      </trkpt>
      <trkpt lat="44.74737" lon="5.03338">
        <ele>386</ele>
        <time>2020-02-07T14:20:09.000Z</time>
      </trkpt>
      <trkpt lat="44.74737" lon="5.03338">
        <ele>386</ele>
        <time>2020-02-07T14:20:10.000Z</time>
      </trkpt>
      <trkpt lat="44.74736" lon="5.03337">
        <ele>386</ele>
        <time>2020-02-07T14:20:11.000Z</time>
      </trkpt>
      <trkpt lat="44.74736" lon="5.03337">
        <ele>386</ele>
        <time>2020-02-07T14:20:12.000Z</time>
      </trkpt>
      <trkpt lat="44.74735" lon="5.03337">
        <ele>386</ele>
        <time>2020-02-07T14:20:13.000Z</time>
      </trkpt>
      <trkpt lat="44.74735" lon="5.03336">
        <ele>386</ele>
        <time>2020-02-07T14:20:14.000Z</time>
      </trkpt>
      <trkpt lat="44.74735" lon="5.03336">
        <ele>386</ele>
        <time>2020-02-07T14:20:15.000Z</time>
      </trkpt>
      <trkpt lat="44.74735" lon="5.03335">
        <ele>386</ele>
        <time>2020-02-07T14:20:16.000Z</time>
      </trkpt>
      <trkpt lat="44.74735" lon="5.03335">
        <ele>386</ele>
        <time>2020-02-07T14:20:17.000Z</time>
      </trkpt>
      <trkpt lat="44.74735" lon="5.03335">
        <ele>387</ele>
        <time>2020-02-07T14:20:18.000Z</time>
      </trkpt>
      <trkpt lat="44.74735" lon="5.03334">
        <ele>387</ele>
        <time>2020-02-07T14:20:19.000Z</time>
      </trkpt>
      <trkpt lat="44.74735" lon="5.03334">
        <ele>387</ele>
        <time>2020-02-07T14:20:20.000Z</time>
      </trkpt>
      <trkpt lat="44.74735" lon="5.03334">
        <ele>387</ele>
        <time>2020-02-07T14:20:21.000Z</time>
      </trkpt>
      <trkpt lat="44.74735" lon="5.03334">
        <ele>387</ele>
        <time>2020-02-07T14:20:22.000Z</time>
      </trkpt>
      <trkpt lat="44.74735" lon="5.03333">
        <ele>387</ele>
        <time>2020-02-07T14:20:23.000Z</time>
      </trkpt>
      <trkpt lat="44.74735" lon="5.03332">
        <ele>387</ele>
        <time>2020-02-07T14:20:24.000Z</time>
      </trkpt>
      <trkpt lat="44.74735" lon="5.03332">
        <ele>387</ele>
        <time>2020-02-07T14:20:25.000Z</time>
      </trkpt>
      <trkpt lat="44.74735" lon="5.03332">
        <ele>387</ele>
        <time>2020-02-07T14:20:26.000Z</time>
      </trkpt>
      <trkpt lat="44.74735" lon="5.03332">
        <ele>387</ele>
        <time>2020-02-07T14:20:27.000Z</time>
      </trkpt>
      <trkpt lat="44.74734" lon="5.03332">
        <ele>387</ele>
        <time>2020-02-07T14:20:28.000Z</time>
      </trkpt>
      <trkpt lat="44.74734" lon="5.03332">
        <ele>387</ele>
        <time>2020-02-07T14:20:29.000Z</time>
      </trkpt>
      <trkpt lat="44.74733" lon="5.03332">
        <ele>387</ele>
        <time>2020-02-07T14:20:30.000Z</time>
      </trkpt>
      <trkpt lat="44.74733" lon="5.03332">
        <ele>387</ele>
        <time>2020-02-07T14:20:31.000Z</time>
      </trkpt>
      <trkpt lat="44.74733" lon="5.03332">
        <ele>387</ele>
        <time>2020-02-07T14:20:32.000Z</time>
      </trkpt>
      <trkpt lat="44.74733" lon="5.03332">
        <ele>387</ele>
        <time>2020-02-07T14:20:33.000Z</time>
      </trkpt>
      <trkpt lat="44.74733" lon="5.03332">
        <ele>387</ele>
        <time>2020-02-07T14:20:34.000Z</time>
      </trkpt>
      <trkpt lat="44.74733" lon="5.03332">
        <ele>387</ele>
        <time>2020-02-07T14:20:35.000Z</time>
      </trkpt>
      <trkpt lat="44.74733" lon="5.03332">
        <ele>387</ele>
        <time>2020-02-07T14:20:36.000Z</time>
      </trkpt>
      <trkpt lat="44.74733" lon="5.03332">
        <ele>387</ele>
        <time>2020-02-07T14:20:37.000Z</time>
      </trkpt>
      <trkpt lat="44.74733" lon="5.03332">
        <ele>387</ele>
        <time>2020-02-07T14:20:38.000Z</time>
      </trkpt>
      <trkpt lat="44.74733" lon="5.03332">
        <ele>387</ele>
        <time>2020-02-07T14:20:39.000Z</time>
      </trkpt>
      <trkpt lat="44.74733" lon="5.03332">
        <ele>388</ele>
        <time>2020-02-07T14:20:40.000Z</time>
      </trkpt>
      <trkpt lat="44.74733" lon="5.03332">
        <ele>388</ele>
        <time>2020-02-07T14:20:41.000Z</time>
      </trkpt>
      <trkpt lat="44.74733" lon="5.03332">
        <ele>388</ele>
        <time>2020-02-07T14:20:42.000Z</time>
      </trkpt>
      <trkpt lat="44.74732" lon="5.03332">
        <ele>388</ele>
        <time>2020-02-07T14:20:43.000Z</time>
      </trkpt>
      <trkpt lat="44.74732" lon="5.03332">
        <ele>388</ele>
        <time>2020-02-07T14:20:44.000Z</time>
      </trkpt>
      <trkpt lat="44.74732" lon="5.03332">
        <ele>388</ele>
        <time>2020-02-07T14:20:45.000Z</time>
      </trkpt>
      <trkpt lat="44.74732" lon="5.03332">
        <ele>388</ele>
        <time>2020-02-07T14:20:46.000Z</time>
      </trkpt>
      <trkpt lat="44.74732" lon="5.03332">
        <ele>388</ele>
        <time>2020-02-07T14:20:47.000Z</time>
      </trkpt>
      <trkpt lat="44.74732" lon="5.03332">
        <ele>388</ele>
        <time>2020-02-07T14:20:48.000Z</time>
      </trkpt>
      <trkpt lat="44.74732" lon="5.03333">
        <ele>388</ele>
        <time>2020-02-07T14:20:49.000Z</time>
      </trkpt>
      <trkpt lat="44.74732" lon="5.03333">
        <ele>388</ele>
        <time>2020-02-07T14:20:50.000Z</time>
      </trkpt>
      <trkpt lat="44.74732" lon="5.03333">
        <ele>388</ele>
        <time>2020-02-07T14:20:51.000Z</time>
      </trkpt>
      <trkpt lat="44.74731" lon="5.03333">
        <ele>388</ele>
        <time>2020-02-07T14:20:52.000Z</time>
      </trkpt>
      <trkpt lat="44.74731" lon="5.03333">
        <ele>388</ele>
        <time>2020-02-07T14:20:53.000Z</time>
      </trkpt>
      <trkpt lat="44.74731" lon="5.03332">
        <ele>388</ele>
        <time>2020-02-07T14:20:54.000Z</time>
      </trkpt>
      <trkpt lat="44.74731" lon="5.03332">
        <ele>388</ele>
        <time>2020-02-07T14:20:55.000Z</time>
      </trkpt>
      <trkpt lat="44.74731" lon="5.03332">
        <ele>388</ele>
        <time>2020-02-07T14:20:56.000Z</time>
      </trkpt>
      <trkpt lat="44.74731" lon="5.03332">
        <ele>388</ele>
        <time>2020-02-07T14:20:57.000Z</time>
      </trkpt>
      <trkpt lat="44.74731" lon="5.03332">
        <ele>388</ele>
        <time>2020-02-07T14:20:58.000Z</time>
      </trkpt>
      <trkpt lat="44.7473" lon="5.03332">
        <ele>388</ele>
        <time>2020-02-07T14:20:59.000Z</time>
      </trkpt>
      <trkpt lat="44.7473" lon="5.03332">
        <ele>388</ele>
        <time>2020-02-07T14:21:00.000Z</time>
      </trkpt>
      <trkpt lat="44.74729" lon="5.03332">
        <ele>388</ele>
        <time>2020-02-07T14:21:01.000Z</time>
      </trkpt>
      <trkpt lat="44.74728" lon="5.03331">
        <ele>388</ele>
        <time>2020-02-07T14:21:02.000Z</time>
      </trkpt>
      <trkpt lat="44.74728" lon="5.03331">
        <ele>388</ele>
        <time>2020-02-07T14:21:03.000Z</time>
      </trkpt>
      <trkpt lat="44.74727" lon="5.03331">
        <ele>388</ele>
        <time>2020-02-07T14:21:04.000Z</time>
      </trkpt>
      <trkpt lat="44.74726" lon="5.03332">
        <ele>389</ele>
        <time>2020-02-07T14:21:05.000Z</time>
      </trkpt>
      <trkpt lat="44.74726" lon="5.03332">
        <ele>389</ele>
        <time>2020-02-07T14:21:06.000Z</time>
      </trkpt>
      <trkpt lat="44.74725" lon="5.03332">
        <ele>389</ele>
        <time>2020-02-07T14:21:07.000Z</time>
      </trkpt>
      <trkpt lat="44.74725" lon="5.03331">
        <ele>389</ele>
        <time>2020-02-07T14:21:08.000Z</time>
      </trkpt>
      <trkpt lat="44.74724" lon="5.03331">
        <ele>389</ele>
        <time>2020-02-07T14:21:09.000Z</time>
      </trkpt>
      <trkpt lat="44.74724" lon="5.03331">
        <ele>389</ele>
        <time>2020-02-07T14:21:10.000Z</time>
      </trkpt>
      <trkpt lat="44.74724" lon="5.03331">
        <ele>389</ele>
        <time>2020-02-07T14:21:11.000Z</time>
      </trkpt>
      <trkpt lat="44.74724" lon="5.03331">
        <ele>389</ele>
        <time>2020-02-07T14:21:12.000Z</time>
      </trkpt>
      <trkpt lat="44.74724" lon="5.03331">
        <ele>389</ele>
        <time>2020-02-07T14:21:13.000Z</time>
      </trkpt>
      <trkpt lat="44.74723" lon="5.0333">
        <ele>389</ele>
        <time>2020-02-07T14:21:14.000Z</time>
      </trkpt>
      <trkpt lat="44.74723" lon="5.0333">
        <ele>389</ele>
        <time>2020-02-07T14:21:15.000Z</time>
      </trkpt>
      <trkpt lat="44.74722" lon="5.0333">
        <ele>389</ele>
        <time>2020-02-07T14:21:16.000Z</time>
      </trkpt>
      <trkpt lat="44.74722" lon="5.0333">
        <ele>389</ele>
        <time>2020-02-07T14:21:17.000Z</time>
      </trkpt>
      <trkpt lat="44.74722" lon="5.03329">
        <ele>389</ele>
        <time>2020-02-07T14:21:18.000Z</time>
      </trkpt>
      <trkpt lat="44.74721" lon="5.03329">
        <ele>389</ele>
        <time>2020-02-07T14:21:19.000Z</time>
      </trkpt>
      <trkpt lat="44.74721" lon="5.03329">
        <ele>389</ele>
        <time>2020-02-07T14:21:20.000Z</time>
      </trkpt>
      <trkpt lat="44.74721" lon="5.03328">
        <ele>389</ele>
        <time>2020-02-07T14:21:21.000Z</time>
      </trkpt>
      <trkpt lat="44.74721" lon="5.03328">
        <ele>390</ele>
        <time>2020-02-07T14:21:22.000Z</time>
      </trkpt>
      <trkpt lat="44.7472" lon="5.03327">
        <ele>390</ele>
        <time>2020-02-07T14:21:23.000Z</time>
      </trkpt>
      <trkpt lat="44.7472" lon="5.03326">
        <ele>390</ele>
        <time>2020-02-07T14:21:24.000Z</time>
      </trkpt>
      <trkpt lat="44.74719" lon="5.03326">
        <ele>390</ele>
        <time>2020-02-07T14:21:25.000Z</time>
      </trkpt>
      <trkpt lat="44.74719" lon="5.03325">
        <ele>390</ele>
        <time>2020-02-07T14:21:26.000Z</time>
      </trkpt>
      <trkpt lat="44.74718" lon="5.03325">
        <ele>390</ele>
        <time>2020-02-07T14:21:27.000Z</time>
      </trkpt>
      <trkpt lat="44.74718" lon="5.03325">
        <ele>390</ele>
        <time>2020-02-07T14:21:28.000Z</time>
      </trkpt>
      <trkpt lat="44.74717" lon="5.03325">
        <ele>390</ele>
        <time>2020-02-07T14:21:29.000Z</time>
      </trkpt>
      <trkpt lat="44.74717" lon="5.03325">
        <ele>390</ele>
        <time>2020-02-07T14:21:30.000Z</time>
      </trkpt>
      <trkpt lat="44.74716" lon="5.03325">
        <ele>390</ele>
        <time>2020-02-07T14:21:31.000Z</time>
      </trkpt>
      <trkpt lat="44.74715" lon="5.03324">
        <ele>391</ele>
        <time>2020-02-07T14:21:32.000Z</time>
      </trkpt>
      <trkpt lat="44.74715" lon="5.03324">
        <ele>391</ele>
        <time>2020-02-07T14:21:33.000Z</time>
      </trkpt>
      <trkpt lat="44.74714" lon="5.03323">
        <ele>391</ele>
        <time>2020-02-07T14:21:34.000Z</time>
      </trkpt>
      <trkpt lat="44.74714" lon="5.03323">
        <ele>391</ele>
        <time>2020-02-07T14:21:35.000Z</time>
      </trkpt>
      <trkpt lat="44.74714" lon="5.03323">
        <ele>391</ele>
        <time>2020-02-07T14:21:36.000Z</time>
      </trkpt>
      <trkpt lat="44.74713" lon="5.03323">
        <ele>391</ele>
        <time>2020-02-07T14:21:37.000Z</time>
      </trkpt>
      <trkpt lat="44.74713" lon="5.03322">
        <ele>391</ele>
        <time>2020-02-07T14:21:38.000Z</time>
      </trkpt>
      <trkpt lat="44.74713" lon="5.03322">
        <ele>391</ele>
        <time>2020-02-07T14:21:39.000Z</time>
      </trkpt>
      <trkpt lat="44.74712" lon="5.03322">
        <ele>391</ele>
        <time>2020-02-07T14:21:40.000Z</time>
      </trkpt>
      <trkpt lat="44.74712" lon="5.03322">
        <ele>392</ele>
        <time>2020-02-07T14:21:41.000Z</time>
      </trkpt>
      <trkpt lat="44.74711" lon="5.03322">
        <ele>392</ele>
        <time>2020-02-07T14:21:42.000Z</time>
      </trkpt>
      <trkpt lat="44.74711" lon="5.03321">
        <ele>392</ele>
        <time>2020-02-07T14:21:43.000Z</time>
      </trkpt>
      <trkpt lat="44.7471" lon="5.03321">
        <ele>392</ele>
        <time>2020-02-07T14:21:44.000Z</time>
      </trkpt>
      <trkpt lat="44.7471" lon="5.03321">
        <ele>392</ele>
        <time>2020-02-07T14:21:45.000Z</time>
      </trkpt>
      <trkpt lat="44.74709" lon="5.03321">
        <ele>392</ele>
        <time>2020-02-07T14:21:46.000Z</time>
      </trkpt>
      <trkpt lat="44.74708" lon="5.03321">
        <ele>392</ele>
        <time>2020-02-07T14:21:47.000Z</time>
      </trkpt>
      <trkpt lat="44.74708" lon="5.03321">
        <ele>392</ele>
        <time>2020-02-07T14:21:48.000Z</time>
      </trkpt>
      <trkpt lat="44.74707" lon="5.03321">
        <ele>393</ele>
        <time>2020-02-07T14:21:49.000Z</time>
      </trkpt>
      <trkpt lat="44.74707" lon="5.0332">
        <ele>393</ele>
        <time>2020-02-07T14:21:50.000Z</time>
      </trkpt>
      <trkpt lat="44.74706" lon="5.0332">
        <ele>393</ele>
        <time>2020-02-07T14:21:51.000Z</time>
      </trkpt>
      <trkpt lat="44.74706" lon="5.0332">
        <ele>393</ele>
        <time>2020-02-07T14:21:52.000Z</time>
      </trkpt>
      <trkpt lat="44.74705" lon="5.0332">
        <ele>393</ele>
        <time>2020-02-07T14:21:53.000Z</time>
      </trkpt>
      <trkpt lat="44.74705" lon="5.03321">
        <ele>393</ele>
        <time>2020-02-07T14:21:54.000Z</time>
      </trkpt>
      <trkpt lat="44.74704" lon="5.03321">
        <ele>393</ele>
        <time>2020-02-07T14:21:55.000Z</time>
      </trkpt>
      <trkpt lat="44.74703" lon="5.0332">
        <ele>393</ele>
        <time>2020-02-07T14:21:56.000Z</time>
      </trkpt>
      <trkpt lat="44.74703" lon="5.0332">
        <ele>394</ele>
        <time>2020-02-07T14:21:57.000Z</time>
      </trkpt>
      <trkpt lat="44.74702" lon="5.0332">
        <ele>394</ele>
        <time>2020-02-07T14:21:58.000Z</time>
      </trkpt>
      <trkpt lat="44.74702" lon="5.0332">
        <ele>394</ele>
        <time>2020-02-07T14:21:59.000Z</time>
      </trkpt>
      <trkpt lat="44.74701" lon="5.0332">
        <ele>394</ele>
        <time>2020-02-07T14:22:00.000Z</time>
      </trkpt>
      <trkpt lat="44.74701" lon="5.03319">
        <ele>394</ele>
        <time>2020-02-07T14:22:01.000Z</time>
      </trkpt>
      <trkpt lat="44.747" lon="5.03319">
        <ele>394</ele>
        <time>2020-02-07T14:22:02.000Z</time>
      </trkpt>
      <trkpt lat="44.747" lon="5.03319">
        <ele>394</ele>
        <time>2020-02-07T14:22:03.000Z</time>
      </trkpt>
      <trkpt lat="44.74699" lon="5.03319">
        <ele>394</ele>
        <time>2020-02-07T14:22:04.000Z</time>
      </trkpt>
      <trkpt lat="44.74698" lon="5.03318">
        <ele>394</ele>
        <time>2020-02-07T14:22:05.000Z</time>
      </trkpt>
      <trkpt lat="44.74698" lon="5.03318">
        <ele>394</ele>
        <time>2020-02-07T14:22:06.000Z</time>
      </trkpt>
      <trkpt lat="44.74697" lon="5.03318">
        <ele>395</ele>
        <time>2020-02-07T14:22:07.000Z</time>
      </trkpt>
      <trkpt lat="44.74696" lon="5.03318">
        <ele>395</ele>
        <time>2020-02-07T14:22:08.000Z</time>
      </trkpt>
      <trkpt lat="44.74695" lon="5.03318">
        <ele>395</ele>
        <time>2020-02-07T14:22:09.000Z</time>
      </trkpt>
      <trkpt lat="44.74694" lon="5.03318">
        <ele>395</ele>
        <time>2020-02-07T14:22:10.000Z</time>
      </trkpt>
      <trkpt lat="44.74694" lon="5.03318">
        <ele>395</ele>
        <time>2020-02-07T14:22:11.000Z</time>
      </trkpt>
      <trkpt lat="44.74693" lon="5.03318">
        <ele>395</ele>
        <time>2020-02-07T14:22:12.000Z</time>
      </trkpt>
      <trkpt lat="44.74692" lon="5.03318">
        <ele>395</ele>
        <time>2020-02-07T14:22:13.000Z</time>
      </trkpt>
      <trkpt lat="44.74692" lon="5.03318">
        <ele>396</ele>
        <time>2020-02-07T14:22:14.000Z</time>
      </trkpt>
      <trkpt lat="44.74691" lon="5.03318">
        <ele>396</ele>
        <time>2020-02-07T14:22:15.000Z</time>
      </trkpt>
      <trkpt lat="44.74691" lon="5.03318">
        <ele>396</ele>
        <time>2020-02-07T14:22:16.000Z</time>
      </trkpt>
      <trkpt lat="44.7469" lon="5.03318">
        <ele>396</ele>
        <time>2020-02-07T14:22:17.000Z</time>
      </trkpt>
      <trkpt lat="44.74689" lon="5.03318">
        <ele>396</ele>
        <time>2020-02-07T14:22:18.000Z</time>
      </trkpt>
      <trkpt lat="44.74688" lon="5.03319">
        <ele>396</ele>
        <time>2020-02-07T14:22:19.000Z</time>
      </trkpt>
      <trkpt lat="44.74688" lon="5.03318">
        <ele>396</ele>
        <time>2020-02-07T14:22:20.000Z</time>
      </trkpt>
      <trkpt lat="44.74687" lon="5.03318">
        <ele>396</ele>
        <time>2020-02-07T14:22:21.000Z</time>
      </trkpt>
      <trkpt lat="44.74687" lon="5.03317">
        <ele>397</ele>
        <time>2020-02-07T14:22:22.000Z</time>
      </trkpt>
      <trkpt lat="44.74687" lon="5.03316">
        <ele>397</ele>
        <time>2020-02-07T14:22:23.000Z</time>
      </trkpt>
      <trkpt lat="44.74686" lon="5.03316">
        <ele>397</ele>
        <time>2020-02-07T14:22:24.000Z</time>
      </trkpt>
      <trkpt lat="44.74686" lon="5.03315">
        <ele>397</ele>
        <time>2020-02-07T14:22:25.000Z</time>
      </trkpt>
      <trkpt lat="44.74685" lon="5.03315">
        <ele>397</ele>
        <time>2020-02-07T14:22:26.000Z</time>
      </trkpt>
      <trkpt lat="44.74684" lon="5.03315">
        <ele>397</ele>
        <time>2020-02-07T14:22:27.000Z</time>
      </trkpt>
      <trkpt lat="44.74684" lon="5.03315">
        <ele>398</ele>
        <time>2020-02-07T14:22:28.000Z</time>
      </trkpt>
      <trkpt lat="44.74683" lon="5.03315">
        <ele>398</ele>
        <time>2020-02-07T14:22:29.000Z</time>
      </trkpt>
      <trkpt lat="44.74682" lon="5.03314">
        <ele>398</ele>
        <time>2020-02-07T14:22:30.000Z</time>
      </trkpt>
      <trkpt lat="44.74682" lon="5.03314">
        <ele>398</ele>
        <time>2020-02-07T14:22:31.000Z</time>
      </trkpt>
      <trkpt lat="44.74681" lon="5.03315">
        <ele>398</ele>
        <time>2020-02-07T14:22:32.000Z</time>
      </trkpt>
      <trkpt lat="44.74681" lon="5.03314">
        <ele>399</ele>
        <time>2020-02-07T14:22:33.000Z</time>
      </trkpt>
      <trkpt lat="44.7468" lon="5.03314">
        <ele>399</ele>
        <time>2020-02-07T14:22:34.000Z</time>
      </trkpt>
      <trkpt lat="44.7468" lon="5.03314">
        <ele>399</ele>
        <time>2020-02-07T14:22:35.000Z</time>
      </trkpt>
      <trkpt lat="44.7468" lon="5.03314">
        <ele>399</ele>
        <time>2020-02-07T14:22:36.000Z</time>
      </trkpt>
      <trkpt lat="44.74679" lon="5.03314">
        <ele>399</ele>
        <time>2020-02-07T14:22:37.000Z</time>
      </trkpt>
      <trkpt lat="44.74679" lon="5.03314">
        <ele>399</ele>
        <time>2020-02-07T14:22:38.000Z</time>
      </trkpt>
      <trkpt lat="44.74678" lon="5.03314">
        <ele>400</ele>
        <time>2020-02-07T14:22:39.000Z</time>
      </trkpt>
      <trkpt lat="44.74678" lon="5.03314">
        <ele>400</ele>
        <time>2020-02-07T14:22:40.000Z</time>
      </trkpt>
      <trkpt lat="44.74677" lon="5.03313">
        <ele>400</ele>
        <time>2020-02-07T14:22:41.000Z</time>
      </trkpt>
      <trkpt lat="44.74677" lon="5.03313">
        <ele>400</ele>
        <time>2020-02-07T14:22:42.000Z</time>
      </trkpt>
      <trkpt lat="44.74676" lon="5.03314">
        <ele>400</ele>
        <time>2020-02-07T14:22:43.000Z</time>
      </trkpt>
      <trkpt lat="44.74676" lon="5.03314">
        <ele>400</ele>
        <time>2020-02-07T14:22:44.000Z</time>
      </trkpt>
      <trkpt lat="44.74676" lon="5.03314">
        <ele>401</ele>
        <time>2020-02-07T14:22:45.000Z</time>
      </trkpt>
      <trkpt lat="44.74675" lon="5.03314">
        <ele>401</ele>
        <time>2020-02-07T14:22:46.000Z</time>
      </trkpt>
      <trkpt lat="44.74675" lon="5.03314">
        <ele>401</ele>
        <time>2020-02-07T14:22:47.000Z</time>
      </trkpt>
      <trkpt lat="44.74675" lon="5.03314">
        <ele>401</ele>
        <time>2020-02-07T14:22:48.000Z</time>
      </trkpt>
      <trkpt lat="44.74675" lon="5.03314">
        <ele>401</ele>
        <time>2020-02-07T14:22:49.000Z</time>
      </trkpt>
      <trkpt lat="44.74675" lon="5.03314">
        <ele>402</ele>
        <time>2020-02-07T14:22:50.000Z</time>
      </trkpt>
      <trkpt lat="44.74675" lon="5.03314">
        <ele>402</ele>
        <time>2020-02-07T14:22:51.000Z</time>
      </trkpt>
      <trkpt lat="44.74675" lon="5.03314">
        <ele>402</ele>
        <time>2020-02-07T14:22:52.000Z</time>
      </trkpt>
      <trkpt lat="44.74675" lon="5.03313">
        <ele>402</ele>
        <time>2020-02-07T14:22:53.000Z</time>
      </trkpt>
      <trkpt lat="44.74674" lon="5.03313">
        <ele>402</ele>
        <time>2020-02-07T14:22:54.000Z</time>
      </trkpt>
      <trkpt lat="44.74674" lon="5.03312">
        <ele>402</ele>
        <time>2020-02-07T14:22:55.000Z</time>
      </trkpt>
      <trkpt lat="44.74674" lon="5.03312">
        <ele>402</ele>
        <time>2020-02-07T14:22:56.000Z</time>
      </trkpt>
      <trkpt lat="44.74673" lon="5.03312">
        <ele>402</ele>
        <time>2020-02-07T14:22:57.000Z</time>
      </trkpt>
      <trkpt lat="44.74673" lon="5.03313">
        <ele>402</ele>
        <time>2020-02-07T14:22:58.000Z</time>
      </trkpt>
      <trkpt lat="44.74673" lon="5.03313">
        <ele>402</ele>
        <time>2020-02-07T14:22:59.000Z</time>
      </trkpt>
      <trkpt lat="44.74672" lon="5.03313">
        <ele>402</ele>
        <time>2020-02-07T14:23:00.000Z</time>
      </trkpt>
      <trkpt lat="44.74672" lon="5.03313">
        <ele>402</ele>
        <time>2020-02-07T14:23:01.000Z</time>
      </trkpt>
      <trkpt lat="44.74672" lon="5.03313">
        <ele>403</ele>
        <time>2020-02-07T14:23:02.000Z</time>
      </trkpt>
      <trkpt lat="44.74671" lon="5.03313">
        <ele>403</ele>
        <time>2020-02-07T14:23:03.000Z</time>
      </trkpt>
      <trkpt lat="44.74671" lon="5.03313">
        <ele>403</ele>
        <time>2020-02-07T14:23:04.000Z</time>
      </trkpt>
      <trkpt lat="44.74671" lon="5.03313">
        <ele>403</ele>
        <time>2020-02-07T14:23:05.000Z</time>
      </trkpt>
      <trkpt lat="44.74671" lon="5.03313">
        <ele>403</ele>
        <time>2020-02-07T14:23:06.000Z</time>
      </trkpt>
      <trkpt lat="44.74671" lon="5.03313">
        <ele>403</ele>
        <time>2020-02-07T14:23:07.000Z</time>
      </trkpt>
      <trkpt lat="44.74671" lon="5.03313">
        <ele>403</ele>
        <time>2020-02-07T14:23:08.000Z</time>
      </trkpt>
      <trkpt lat="44.74671" lon="5.03313">
        <ele>403</ele>
        <time>2020-02-07T14:23:09.000Z</time>
      </trkpt>
      <trkpt lat="44.74671" lon="5.03313">
        <ele>403</ele>
        <time>2020-02-07T14:23:10.000Z</time>
      </trkpt>
      <trkpt lat="44.74671" lon="5.03314">
        <ele>403</ele>
        <time>2020-02-07T14:23:11.000Z</time>
      </trkpt>
      <trkpt lat="44.74671" lon="5.03313">
        <ele>403</ele>
        <time>2020-02-07T14:23:12.000Z</time>
      </trkpt>
      <trkpt lat="44.74671" lon="5.03314">
        <ele>403</ele>
        <time>2020-02-07T14:23:13.000Z</time>
      </trkpt>
      <trkpt lat="44.74671" lon="5.03314">
        <ele>403</ele>
        <time>2020-02-07T14:23:14.000Z</time>
      </trkpt>
      <trkpt lat="44.74671" lon="5.03314">
        <ele>403</ele>
        <time>2020-02-07T14:23:15.000Z</time>
      </trkpt>
      <trkpt lat="44.74671" lon="5.03314">
        <ele>403</ele>
        <time>2020-02-07T14:23:16.000Z</time>
      </trkpt>
      <trkpt lat="44.7467" lon="5.03314">
        <ele>403</ele>
        <time>2020-02-07T14:23:17.000Z</time>
      </trkpt>
      <trkpt lat="44.7467" lon="5.03314">
        <ele>403</ele>
        <time>2020-02-07T14:23:18.000Z</time>
      </trkpt>
      <trkpt lat="44.7467" lon="5.03314">
        <ele>403</ele>
        <time>2020-02-07T14:23:19.000Z</time>
      </trkpt>
      <trkpt lat="44.7467" lon="5.03314">
        <ele>404</ele>
        <time>2020-02-07T14:23:20.000Z</time>
      </trkpt>
      <trkpt lat="44.74669" lon="5.03314">
        <ele>404</ele>
        <time>2020-02-07T14:23:21.000Z</time>
      </trkpt>
      <trkpt lat="44.74669" lon="5.03314">
        <ele>404</ele>
        <time>2020-02-07T14:23:22.000Z</time>
      </trkpt>
      <trkpt lat="44.74668" lon="5.03314">
        <ele>404</ele>
        <time>2020-02-07T14:23:23.000Z</time>
      </trkpt>
      <trkpt lat="44.74668" lon="5.03314">
        <ele>404</ele>
        <time>2020-02-07T14:23:24.000Z</time>
      </trkpt>
      <trkpt lat="44.74667" lon="5.03314">
        <ele>405</ele>
        <time>2020-02-07T14:23:25.000Z</time>
      </trkpt>
      <trkpt lat="44.74667" lon="5.03314">
        <ele>405</ele>
        <time>2020-02-07T14:23:26.000Z</time>
      </trkpt>
      <trkpt lat="44.74666" lon="5.03314">
        <ele>405</ele>
        <time>2020-02-07T14:23:27.000Z</time>
      </trkpt>
      <trkpt lat="44.74666" lon="5.03314">
        <ele>405</ele>
        <time>2020-02-07T14:23:28.000Z</time>
      </trkpt>
      <trkpt lat="44.74665" lon="5.03314">
        <ele>405</ele>
        <time>2020-02-07T14:23:29.000Z</time>
      </trkpt>
      <trkpt lat="44.74665" lon="5.03314">
        <ele>405</ele>
        <time>2020-02-07T14:23:30.000Z</time>
      </trkpt>
      <trkpt lat="44.74664" lon="5.03314">
        <ele>406</ele>
        <time>2020-02-07T14:23:31.000Z</time>
      </trkpt>
      <trkpt lat="44.74663" lon="5.03313">
        <ele>406</ele>
        <time>2020-02-07T14:23:32.000Z</time>
      </trkpt>
      <trkpt lat="44.74663" lon="5.03313">
        <ele>406</ele>
        <time>2020-02-07T14:23:33.000Z</time>
      </trkpt>
      <trkpt lat="44.74663" lon="5.03313">
        <ele>406</ele>
        <time>2020-02-07T14:23:34.000Z</time>
      </trkpt>
      <trkpt lat="44.74663" lon="5.03312">
        <ele>406</ele>
        <time>2020-02-07T14:23:35.000Z</time>
      </trkpt>
      <trkpt lat="44.74663" lon="5.03312">
        <ele>406</ele>
        <time>2020-02-07T14:23:36.000Z</time>
      </trkpt>
      <trkpt lat="44.74663" lon="5.03312">
        <ele>406</ele>
        <time>2020-02-07T14:23:37.000Z</time>
      </trkpt>
      <trkpt lat="44.74663" lon="5.03312">
        <ele>406</ele>
        <time>2020-02-07T14:23:38.000Z</time>
      </trkpt>
      <trkpt lat="44.74662" lon="5.03312">
        <ele>406</ele>
        <time>2020-02-07T14:23:39.000Z</time>
      </trkpt>
      <trkpt lat="44.74661" lon="5.03311">
        <ele>406</ele>
        <time>2020-02-07T14:23:40.000Z</time>
      </trkpt>
      <trkpt lat="44.7466" lon="5.03311">
        <ele>406</ele>
        <time>2020-02-07T14:23:41.000Z</time>
      </trkpt>
      <trkpt lat="44.74659" lon="5.03311">
        <ele>406</ele>
        <time>2020-02-07T14:23:42.000Z</time>
      </trkpt>
      <trkpt lat="44.74658" lon="5.03311">
        <ele>406</ele>
        <time>2020-02-07T14:23:43.000Z</time>
      </trkpt>
      <trkpt lat="44.74657" lon="5.03311">
        <ele>406</ele>
        <time>2020-02-07T14:23:44.000Z</time>
      </trkpt>
      <trkpt lat="44.74656" lon="5.03311">
        <ele>406</ele>
        <time>2020-02-07T14:23:45.000Z</time>
      </trkpt>
      <trkpt lat="44.74655" lon="5.0331">
        <ele>406</ele>
        <time>2020-02-07T14:23:46.000Z</time>
      </trkpt>
      <trkpt lat="44.74654" lon="5.0331">
        <ele>406</ele>
        <time>2020-02-07T14:23:47.000Z</time>
      </trkpt>
      <trkpt lat="44.74654" lon="5.03309">
        <ele>406</ele>
        <time>2020-02-07T14:23:48.000Z</time>
      </trkpt>
      <trkpt lat="44.74653" lon="5.03309">
        <ele>406</ele>
        <time>2020-02-07T14:23:49.000Z</time>
      </trkpt>
      <trkpt lat="44.74652" lon="5.03309">
        <ele>406</ele>
        <time>2020-02-07T14:23:50.000Z</time>
      </trkpt>
      <trkpt lat="44.74651" lon="5.03309">
        <ele>406</ele>
        <time>2020-02-07T14:23:51.000Z</time>
      </trkpt>
      <trkpt lat="44.7465" lon="5.03309">
        <ele>406</ele>
        <time>2020-02-07T14:23:52.000Z</time>
      </trkpt>
      <trkpt lat="44.74649" lon="5.03309">
        <ele>406</ele>
        <time>2020-02-07T14:23:53.000Z</time>
      </trkpt>
      <trkpt lat="44.74648" lon="5.03309">
        <ele>406</ele>
        <time>2020-02-07T14:23:54.000Z</time>
      </trkpt>
      <trkpt lat="44.74647" lon="5.03308">
        <ele>406</ele>
        <time>2020-02-07T14:23:55.000Z</time>
      </trkpt>
      <trkpt lat="44.74646" lon="5.03308">
        <ele>407</ele>
        <time>2020-02-07T14:23:56.000Z</time>
      </trkpt>
      <trkpt lat="44.74645" lon="5.03308">
        <ele>407</ele>
        <time>2020-02-07T14:23:57.000Z</time>
      </trkpt>
      <trkpt lat="44.74643" lon="5.03308">
        <ele>407</ele>
        <time>2020-02-07T14:23:58.000Z</time>
      </trkpt>
      <trkpt lat="44.74642" lon="5.03308">
        <ele>407</ele>
        <time>2020-02-07T14:23:59.000Z</time>
      </trkpt>
      <trkpt lat="44.74641" lon="5.03307">
        <ele>407</ele>
        <time>2020-02-07T14:24:00.000Z</time>
      </trkpt>
      <trkpt lat="44.7464" lon="5.03307">
        <ele>407</ele>
        <time>2020-02-07T14:24:01.000Z</time>
      </trkpt>
      <trkpt lat="44.7464" lon="5.03306">
        <ele>408</ele>
        <time>2020-02-07T14:24:02.000Z</time>
      </trkpt>
      <trkpt lat="44.74639" lon="5.03306">
        <ele>408</ele>
        <time>2020-02-07T14:24:03.000Z</time>
      </trkpt>
      <trkpt lat="44.74638" lon="5.03306">
        <ele>408</ele>
        <time>2020-02-07T14:24:04.000Z</time>
      </trkpt>
      <trkpt lat="44.74637" lon="5.03306">
        <ele>408</ele>
        <time>2020-02-07T14:24:05.000Z</time>
      </trkpt>
      <trkpt lat="44.74636" lon="5.03306">
        <ele>408</ele>
        <time>2020-02-07T14:24:06.000Z</time>
      </trkpt>
      <trkpt lat="44.74636" lon="5.03306">
        <ele>409</ele>
        <time>2020-02-07T14:24:07.000Z</time>
      </trkpt>
      <trkpt lat="44.74635" lon="5.03306">
        <ele>409</ele>
        <time>2020-02-07T14:24:08.000Z</time>
      </trkpt>
      <trkpt lat="44.74634" lon="5.03306">
        <ele>409</ele>
        <time>2020-02-07T14:24:09.000Z</time>
      </trkpt>
      <trkpt lat="44.74634" lon="5.03306">
        <ele>409</ele>
        <time>2020-02-07T14:24:10.000Z</time>
      </trkpt>
      <trkpt lat="44.74633" lon="5.03306">
        <ele>409</ele>
        <time>2020-02-07T14:24:11.000Z</time>
      </trkpt>
      <trkpt lat="44.74632" lon="5.03306">
        <ele>409</ele>
        <time>2020-02-07T14:24:12.000Z</time>
      </trkpt>
      <trkpt lat="44.74631" lon="5.03306">
        <ele>409</ele>
        <time>2020-02-07T14:24:13.000Z</time>
      </trkpt>
      <trkpt lat="44.74631" lon="5.03305">
        <ele>409</ele>
        <time>2020-02-07T14:24:14.000Z</time>
      </trkpt>
      <trkpt lat="44.7463" lon="5.03305">
        <ele>409</ele>
        <time>2020-02-07T14:24:15.000Z</time>
      </trkpt>
      <trkpt lat="44.74629" lon="5.03304">
        <ele>409</ele>
        <time>2020-02-07T14:24:16.000Z</time>
      </trkpt>
      <trkpt lat="44.74628" lon="5.03304">
        <ele>409</ele>
        <time>2020-02-07T14:24:17.000Z</time>
      </trkpt>
      <trkpt lat="44.74628" lon="5.03303">
        <ele>409</ele>
        <time>2020-02-07T14:24:18.000Z</time>
      </trkpt>
      <trkpt lat="44.74627" lon="5.03303">
        <ele>409</ele>
        <time>2020-02-07T14:24:19.000Z</time>
      </trkpt>
      <trkpt lat="44.74626" lon="5.03302">
        <ele>410</ele>
        <time>2020-02-07T14:24:20.000Z</time>
      </trkpt>
      <trkpt lat="44.74626" lon="5.03301">
        <ele>410</ele>
        <time>2020-02-07T14:24:21.000Z</time>
      </trkpt>
      <trkpt lat="44.74626" lon="5.033">
        <ele>410</ele>
        <time>2020-02-07T14:24:22.000Z</time>
      </trkpt>
      <trkpt lat="44.74625" lon="5.033">
        <ele>410</ele>
        <time>2020-02-07T14:24:23.000Z</time>
      </trkpt>
      <trkpt lat="44.74626" lon="5.03299">
        <ele>410</ele>
        <time>2020-02-07T14:24:24.000Z</time>
      </trkpt>
      <trkpt lat="44.74626" lon="5.03299">
        <ele>409</ele>
        <time>2020-02-07T14:24:25.000Z</time>
      </trkpt>
      <trkpt lat="44.74626" lon="5.03299">
        <ele>409</ele>
        <time>2020-02-07T14:24:26.000Z</time>
      </trkpt>
      <trkpt lat="44.74626" lon="5.03299">
        <ele>409</ele>
        <time>2020-02-07T14:24:27.000Z</time>
      </trkpt>
      <trkpt lat="44.74626" lon="5.03299">
        <ele>409</ele>
        <time>2020-02-07T14:24:28.000Z</time>
      </trkpt>
      <trkpt lat="44.74626" lon="5.03298">
        <ele>408</ele>
        <time>2020-02-07T14:24:29.000Z</time>
      </trkpt>
      <trkpt lat="44.74626" lon="5.03298">
        <ele>408</ele>
        <time>2020-02-07T14:24:30.000Z</time>
      </trkpt>
      <trkpt lat="44.74626" lon="5.03298">
        <ele>408</ele>
        <time>2020-02-07T14:24:31.000Z</time>
      </trkpt>
      <trkpt lat="44.74626" lon="5.03297">
        <ele>408</ele>
        <time>2020-02-07T14:24:32.000Z</time>
      </trkpt>
      <trkpt lat="44.74626" lon="5.03297">
        <ele>408</ele>
        <time>2020-02-07T14:24:33.000Z</time>
      </trkpt>
      <trkpt lat="44.74626" lon="5.03297">
        <ele>408</ele>
        <time>2020-02-07T14:24:34.000Z</time>
      </trkpt>
      <trkpt lat="44.74626" lon="5.03297">
        <ele>407</ele>
        <time>2020-02-07T14:24:35.000Z</time>
      </trkpt>
      <trkpt lat="44.74626" lon="5.03297">
        <ele>407</ele>
        <time>2020-02-07T14:24:36.000Z</time>
      </trkpt>
      <trkpt lat="44.74626" lon="5.03296">
        <ele>407</ele>
        <time>2020-02-07T14:24:37.000Z</time>
      </trkpt>
      <trkpt lat="44.74626" lon="5.03296">
        <ele>407</ele>
        <time>2020-02-07T14:24:38.000Z</time>
      </trkpt>
      <trkpt lat="44.74626" lon="5.03296">
        <ele>407</ele>
        <time>2020-02-07T14:24:39.000Z</time>
      </trkpt>
      <trkpt lat="44.74626" lon="5.03296">
        <ele>407</ele>
        <time>2020-02-07T14:24:40.000Z</time>
      </trkpt>
      <trkpt lat="44.74626" lon="5.03296">
        <ele>407</ele>
        <time>2020-02-07T14:24:41.000Z</time>
      </trkpt>
      <trkpt lat="44.74626" lon="5.03296">
        <ele>406</ele>
        <time>2020-02-07T14:24:42.000Z</time>
      </trkpt>
      <trkpt lat="44.74626" lon="5.03295">
        <ele>406</ele>
        <time>2020-02-07T14:24:43.000Z</time>
      </trkpt>
      <trkpt lat="44.74626" lon="5.03295">
        <ele>406</ele>
        <time>2020-02-07T14:24:44.000Z</time>
      </trkpt>
      <trkpt lat="44.74626" lon="5.03295">
        <ele>406</ele>
        <time>2020-02-07T14:24:45.000Z</time>
      </trkpt>
      <trkpt lat="44.74626" lon="5.03295">
        <ele>406</ele>
        <time>2020-02-07T14:24:46.000Z</time>
      </trkpt>
      <trkpt lat="44.74626" lon="5.03295">
        <ele>406</ele>
        <time>2020-02-07T14:24:47.000Z</time>
      </trkpt>
      <trkpt lat="44.74626" lon="5.03295">
        <ele>406</ele>
        <time>2020-02-07T14:24:48.000Z</time>
      </trkpt>
      <trkpt lat="44.74626" lon="5.03295">
        <ele>406</ele>
        <time>2020-02-07T14:24:49.000Z</time>
      </trkpt>
      <trkpt lat="44.74626" lon="5.03295">
        <ele>406</ele>
        <time>2020-02-07T14:24:50.000Z</time>
      </trkpt>
      <trkpt lat="44.74626" lon="5.03295">
        <ele>406</ele>
        <time>2020-02-07T14:24:51.000Z</time>
      </trkpt>
      <trkpt lat="44.74626" lon="5.03294">
        <ele>406</ele>
        <time>2020-02-07T14:24:52.000Z</time>
      </trkpt>
      <trkpt lat="44.74626" lon="5.03294">
        <ele>406</ele>
        <time>2020-02-07T14:24:53.000Z</time>
      </trkpt>
      <trkpt lat="44.74626" lon="5.03294">
        <ele>406</ele>
        <time>2020-02-07T14:24:54.000Z</time>
      </trkpt>
      <trkpt lat="44.74626" lon="5.03294">
        <ele>406</ele>
        <time>2020-02-07T14:24:55.000Z</time>
      </trkpt>
      <trkpt lat="44.74626" lon="5.03294">
        <ele>406</ele>
        <time>2020-02-07T14:24:56.000Z</time>
      </trkpt>
      <trkpt lat="44.74626" lon="5.03294">
        <ele>406</ele>
        <time>2020-02-07T14:24:57.000Z</time>
      </trkpt>
      <trkpt lat="44.74626" lon="5.03294">
        <ele>406</ele>
        <time>2020-02-07T14:24:58.000Z</time>
      </trkpt>
      <trkpt lat="44.74626" lon="5.03294">
        <ele>406</ele>
        <time>2020-02-07T14:24:59.000Z</time>
      </trkpt>
      <trkpt lat="44.74626" lon="5.03294">
        <ele>406</ele>
        <time>2020-02-07T14:25:00.000Z</time>
      </trkpt>
      <trkpt lat="44.74626" lon="5.03294">
        <ele>406</ele>
        <time>2020-02-07T14:25:01.000Z</time>
      </trkpt>
      <trkpt lat="44.74626" lon="5.03294">
        <ele>406</ele>
        <time>2020-02-07T14:25:02.000Z</time>
      </trkpt>
      <trkpt lat="44.74626" lon="5.03294">
        <ele>406</ele>
        <time>2020-02-07T14:25:03.000Z</time>
      </trkpt>
      <trkpt lat="44.74626" lon="5.03294">
        <ele>406</ele>
        <time>2020-02-07T14:25:04.000Z</time>
      </trkpt>
      <trkpt lat="44.74626" lon="5.03294">
        <ele>406</ele>
        <time>2020-02-07T14:25:05.000Z</time>
      </trkpt>
      <trkpt lat="44.74626" lon="5.03294">
        <ele>406</ele>
        <time>2020-02-07T14:25:06.000Z</time>
      </trkpt>
      <trkpt lat="44.74626" lon="5.03294">
        <ele>406</ele>
        <time>2020-02-07T14:25:07.000Z</time>
      </trkpt>
      <trkpt lat="44.74626" lon="5.03294">
        <ele>405</ele>
        <time>2020-02-07T14:25:08.000Z</time>
      </trkpt>
      <trkpt lat="44.74626" lon="5.03294">
        <ele>405</ele>
        <time>2020-02-07T14:25:09.000Z</time>
      </trkpt>
      <trkpt lat="44.74626" lon="5.03294">
        <ele>405</ele>
        <time>2020-02-07T14:25:10.000Z</time>
      </trkpt>
      <trkpt lat="44.74626" lon="5.03294">
        <ele>405</ele>
        <time>2020-02-07T14:25:11.000Z</time>
      </trkpt>
      <trkpt lat="44.74626" lon="5.03294">
        <ele>405</ele>
        <time>2020-02-07T14:25:12.000Z</time>
      </trkpt>
      <trkpt lat="44.74626" lon="5.03294">
        <ele>405</ele>
        <time>2020-02-07T14:25:13.000Z</time>
      </trkpt>
      <trkpt lat="44.74626" lon="5.03294">
        <ele>405</ele>
        <time>2020-02-07T14:25:14.000Z</time>
      </trkpt>
      <trkpt lat="44.74626" lon="5.03294">
        <ele>405</ele>
        <time>2020-02-07T14:25:15.000Z</time>
      </trkpt>
      <trkpt lat="44.74626" lon="5.03294">
        <ele>405</ele>
        <time>2020-02-07T14:25:16.000Z</time>
      </trkpt>
      <trkpt lat="44.74626" lon="5.03294">
        <ele>405</ele>
        <time>2020-02-07T14:25:17.000Z</time>
      </trkpt>
      <trkpt lat="44.74625" lon="5.03293">
        <ele>405</ele>
        <time>2020-02-07T14:25:18.000Z</time>
      </trkpt>
      <trkpt lat="44.74624" lon="5.03293">
        <ele>405</ele>
        <time>2020-02-07T14:25:19.000Z</time>
      </trkpt>
      <trkpt lat="44.74623" lon="5.03293">
        <ele>405</ele>
        <time>2020-02-07T14:25:20.000Z</time>
      </trkpt>
      <trkpt lat="44.74622" lon="5.03292">
        <ele>405</ele>
        <time>2020-02-07T14:25:21.000Z</time>
      </trkpt>
      <trkpt lat="44.74621" lon="5.03292">
        <ele>405</ele>
        <time>2020-02-07T14:25:22.000Z</time>
      </trkpt>
      <trkpt lat="44.74621" lon="5.03292">
        <ele>405</ele>
        <time>2020-02-07T14:25:23.000Z</time>
      </trkpt>
      <trkpt lat="44.7462" lon="5.03292">
        <ele>405</ele>
        <time>2020-02-07T14:25:24.000Z</time>
      </trkpt>
      <trkpt lat="44.74619" lon="5.03291">
        <ele>405</ele>
        <time>2020-02-07T14:25:25.000Z</time>
      </trkpt>
      <trkpt lat="44.74618" lon="5.03291">
        <ele>405</ele>
        <time>2020-02-07T14:25:26.000Z</time>
      </trkpt>
      <trkpt lat="44.74617" lon="5.03291">
        <ele>405</ele>
        <time>2020-02-07T14:25:27.000Z</time>
      </trkpt>
      <trkpt lat="44.74616" lon="5.03291">
        <ele>406</ele>
        <time>2020-02-07T14:25:28.000Z</time>
      </trkpt>
      <trkpt lat="44.74615" lon="5.03291">
        <ele>406</ele>
        <time>2020-02-07T14:25:29.000Z</time>
      </trkpt>
      <trkpt lat="44.74614" lon="5.03291">
        <ele>406</ele>
        <time>2020-02-07T14:25:30.000Z</time>
      </trkpt>
      <trkpt lat="44.74613" lon="5.03291">
        <ele>406</ele>
        <time>2020-02-07T14:25:31.000Z</time>
      </trkpt>
      <trkpt lat="44.74612" lon="5.03291">
        <ele>406</ele>
        <time>2020-02-07T14:25:32.000Z</time>
      </trkpt>
      <trkpt lat="44.74612" lon="5.0329">
        <ele>407</ele>
        <time>2020-02-07T14:25:33.000Z</time>
      </trkpt>
      <trkpt lat="44.74611" lon="5.0329">
        <ele>407</ele>
        <time>2020-02-07T14:25:34.000Z</time>
      </trkpt>
      <trkpt lat="44.74611" lon="5.0329">
        <ele>407</ele>
        <time>2020-02-07T14:25:35.000Z</time>
      </trkpt>
      <trkpt lat="44.74611" lon="5.03289">
        <ele>407</ele>
        <time>2020-02-07T14:25:36.000Z</time>
      </trkpt>
      <trkpt lat="44.7461" lon="5.03289">
        <ele>407</ele>
        <time>2020-02-07T14:25:37.000Z</time>
      </trkpt>
      <trkpt lat="44.7461" lon="5.0329">
        <ele>408</ele>
        <time>2020-02-07T14:25:38.000Z</time>
      </trkpt>
      <trkpt lat="44.74609" lon="5.0329">
        <ele>408</ele>
        <time>2020-02-07T14:25:39.000Z</time>
      </trkpt>
      <trkpt lat="44.74609" lon="5.0329">
        <ele>408</ele>
        <time>2020-02-07T14:25:40.000Z</time>
      </trkpt>
      <trkpt lat="44.74608" lon="5.03291">
        <ele>409</ele>
        <time>2020-02-07T14:25:41.000Z</time>
      </trkpt>
      <trkpt lat="44.74607" lon="5.03291">
        <ele>409</ele>
        <time>2020-02-07T14:25:42.000Z</time>
      </trkpt>
      <trkpt lat="44.74607" lon="5.03291">
        <ele>409</ele>
        <time>2020-02-07T14:25:43.000Z</time>
      </trkpt>
      <trkpt lat="44.74606" lon="5.03291">
        <ele>409</ele>
        <time>2020-02-07T14:25:44.000Z</time>
      </trkpt>
      <trkpt lat="44.74605" lon="5.03291">
        <ele>409</ele>
        <time>2020-02-07T14:25:45.000Z</time>
      </trkpt>
      <trkpt lat="44.74604" lon="5.0329">
        <ele>410</ele>
        <time>2020-02-07T14:25:46.000Z</time>
      </trkpt>
      <trkpt lat="44.74604" lon="5.0329">
        <ele>410</ele>
        <time>2020-02-07T14:25:47.000Z</time>
      </trkpt>
      <trkpt lat="44.74603" lon="5.0329">
        <ele>410</ele>
        <time>2020-02-07T14:25:48.000Z</time>
      </trkpt>
      <trkpt lat="44.74602" lon="5.0329">
        <ele>410</ele>
        <time>2020-02-07T14:25:49.000Z</time>
      </trkpt>
      <trkpt lat="44.74601" lon="5.0329">
        <ele>411</ele>
        <time>2020-02-07T14:25:50.000Z</time>
      </trkpt>
      <trkpt lat="44.74601" lon="5.0329">
        <ele>411</ele>
        <time>2020-02-07T14:25:51.000Z</time>
      </trkpt>
      <trkpt lat="44.746" lon="5.0329">
        <ele>411</ele>
        <time>2020-02-07T14:25:52.000Z</time>
      </trkpt>
      <trkpt lat="44.746" lon="5.0329">
        <ele>411</ele>
        <time>2020-02-07T14:25:53.000Z</time>
      </trkpt>
      <trkpt lat="44.74599" lon="5.03291">
        <ele>411</ele>
        <time>2020-02-07T14:25:54.000Z</time>
      </trkpt>
      <trkpt lat="44.74599" lon="5.03291">
        <ele>412</ele>
        <time>2020-02-07T14:25:55.000Z</time>
      </trkpt>
      <trkpt lat="44.74599" lon="5.03291">
        <ele>412</ele>
        <time>2020-02-07T14:25:56.000Z</time>
      </trkpt>
      <trkpt lat="44.74598" lon="5.03291">
        <ele>412</ele>
        <time>2020-02-07T14:25:57.000Z</time>
      </trkpt>
      <trkpt lat="44.74598" lon="5.03292">
        <ele>412</ele>
        <time>2020-02-07T14:25:58.000Z</time>
      </trkpt>
      <trkpt lat="44.74598" lon="5.03292">
        <ele>412</ele>
        <time>2020-02-07T14:25:59.000Z</time>
      </trkpt>
      <trkpt lat="44.74597" lon="5.03292">
        <ele>412</ele>
        <time>2020-02-07T14:26:00.000Z</time>
      </trkpt>
      <trkpt lat="44.74596" lon="5.03292">
        <ele>413</ele>
        <time>2020-02-07T14:26:01.000Z</time>
      </trkpt>
      <trkpt lat="44.74596" lon="5.03292">
        <ele>413</ele>
        <time>2020-02-07T14:26:02.000Z</time>
      </trkpt>
      <trkpt lat="44.74595" lon="5.03292">
        <ele>413</ele>
        <time>2020-02-07T14:26:03.000Z</time>
      </trkpt>
      <trkpt lat="44.74595" lon="5.03292">
        <ele>414</ele>
        <time>2020-02-07T14:26:04.000Z</time>
      </trkpt>
      <trkpt lat="44.74594" lon="5.03292">
        <ele>414</ele>
        <time>2020-02-07T14:26:05.000Z</time>
      </trkpt>
      <trkpt lat="44.74594" lon="5.03292">
        <ele>414</ele>
        <time>2020-02-07T14:26:06.000Z</time>
      </trkpt>
      <trkpt lat="44.74593" lon="5.03292">
        <ele>414</ele>
        <time>2020-02-07T14:26:07.000Z</time>
      </trkpt>
      <trkpt lat="44.74593" lon="5.03292">
        <ele>415</ele>
        <time>2020-02-07T14:26:08.000Z</time>
      </trkpt>
      <trkpt lat="44.74592" lon="5.03291">
        <ele>415</ele>
        <time>2020-02-07T14:26:09.000Z</time>
      </trkpt>
      <trkpt lat="44.74592" lon="5.03291">
        <ele>415</ele>
        <time>2020-02-07T14:26:10.000Z</time>
      </trkpt>
      <trkpt lat="44.74592" lon="5.0329">
        <ele>415</ele>
        <time>2020-02-07T14:26:11.000Z</time>
      </trkpt>
      <trkpt lat="44.74591" lon="5.0329">
        <ele>415</ele>
        <time>2020-02-07T14:26:12.000Z</time>
      </trkpt>
      <trkpt lat="44.7459" lon="5.0329">
        <ele>415</ele>
        <time>2020-02-07T14:26:13.000Z</time>
      </trkpt>
      <trkpt lat="44.7459" lon="5.0329">
        <ele>415</ele>
        <time>2020-02-07T14:26:14.000Z</time>
      </trkpt>
      <trkpt lat="44.74589" lon="5.0329">
        <ele>415</ele>
        <time>2020-02-07T14:26:15.000Z</time>
      </trkpt>
      <trkpt lat="44.74589" lon="5.0329">
        <ele>416</ele>
        <time>2020-02-07T14:26:16.000Z</time>
      </trkpt>
      <trkpt lat="44.74588" lon="5.0329">
        <ele>416</ele>
        <time>2020-02-07T14:26:17.000Z</time>
      </trkpt>
      <trkpt lat="44.74588" lon="5.0329">
        <ele>416</ele>
        <time>2020-02-07T14:26:18.000Z</time>
      </trkpt>
      <trkpt lat="44.74587" lon="5.0329">
        <ele>416</ele>
        <time>2020-02-07T14:26:19.000Z</time>
      </trkpt>
      <trkpt lat="44.74587" lon="5.0329">
        <ele>416</ele>
        <time>2020-02-07T14:26:20.000Z</time>
      </trkpt>
      <trkpt lat="44.74587" lon="5.0329">
        <ele>416</ele>
        <time>2020-02-07T14:26:21.000Z</time>
      </trkpt>
      <trkpt lat="44.74586" lon="5.0329">
        <ele>417</ele>
        <time>2020-02-07T14:26:22.000Z</time>
      </trkpt>
      <trkpt lat="44.74586" lon="5.0329">
        <ele>417</ele>
        <time>2020-02-07T14:26:23.000Z</time>
      </trkpt>
      <trkpt lat="44.74586" lon="5.0329">
        <ele>417</ele>
        <time>2020-02-07T14:26:24.000Z</time>
      </trkpt>
      <trkpt lat="44.74585" lon="5.0329">
        <ele>417</ele>
        <time>2020-02-07T14:26:25.000Z</time>
      </trkpt>
      <trkpt lat="44.74584" lon="5.03291">
        <ele>417</ele>
        <time>2020-02-07T14:26:26.000Z</time>
      </trkpt>
      <trkpt lat="44.74584" lon="5.03291">
        <ele>418</ele>
        <time>2020-02-07T14:26:27.000Z</time>
      </trkpt>
      <trkpt lat="44.74583" lon="5.03291">
        <ele>418</ele>
        <time>2020-02-07T14:26:28.000Z</time>
      </trkpt>
      <trkpt lat="44.74583" lon="5.0329">
        <ele>418</ele>
        <time>2020-02-07T14:26:29.000Z</time>
      </trkpt>
      <trkpt lat="44.74582" lon="5.0329">
        <ele>418</ele>
        <time>2020-02-07T14:26:30.000Z</time>
      </trkpt>
      <trkpt lat="44.74582" lon="5.0329">
        <ele>418</ele>
        <time>2020-02-07T14:26:31.000Z</time>
      </trkpt>
      <trkpt lat="44.74581" lon="5.03289">
        <ele>418</ele>
        <time>2020-02-07T14:26:32.000Z</time>
      </trkpt>
      <trkpt lat="44.74581" lon="5.03289">
        <ele>418</ele>
        <time>2020-02-07T14:26:33.000Z</time>
      </trkpt>
      <trkpt lat="44.7458" lon="5.03289">
        <ele>418</ele>
        <time>2020-02-07T14:26:34.000Z</time>
      </trkpt>
      <trkpt lat="44.7458" lon="5.03289">
        <ele>419</ele>
        <time>2020-02-07T14:26:35.000Z</time>
      </trkpt>
      <trkpt lat="44.74579" lon="5.03288">
        <ele>419</ele>
        <time>2020-02-07T14:26:36.000Z</time>
      </trkpt>
      <trkpt lat="44.74578" lon="5.03288">
        <ele>419</ele>
        <time>2020-02-07T14:26:37.000Z</time>
      </trkpt>
      <trkpt lat="44.74578" lon="5.03288">
        <ele>419</ele>
        <time>2020-02-07T14:26:38.000Z</time>
      </trkpt>
      <trkpt lat="44.74577" lon="5.03287">
        <ele>419</ele>
        <time>2020-02-07T14:26:39.000Z</time>
      </trkpt>
      <trkpt lat="44.74576" lon="5.03286">
        <ele>419</ele>
        <time>2020-02-07T14:26:40.000Z</time>
      </trkpt>
      <trkpt lat="44.74575" lon="5.03286">
        <ele>419</ele>
        <time>2020-02-07T14:26:41.000Z</time>
      </trkpt>
      <trkpt lat="44.74575" lon="5.03286">
        <ele>419</ele>
        <time>2020-02-07T14:26:42.000Z</time>
      </trkpt>
      <trkpt lat="44.74574" lon="5.03285">
        <ele>420</ele>
        <time>2020-02-07T14:26:43.000Z</time>
      </trkpt>
      <trkpt lat="44.74574" lon="5.03284">
        <ele>420</ele>
        <time>2020-02-07T14:26:44.000Z</time>
      </trkpt>
      <trkpt lat="44.74573" lon="5.03283">
        <ele>420</ele>
        <time>2020-02-07T14:26:45.000Z</time>
      </trkpt>
      <trkpt lat="44.74572" lon="5.03283">
        <ele>420</ele>
        <time>2020-02-07T14:26:46.000Z</time>
      </trkpt>
      <trkpt lat="44.74571" lon="5.03282">
        <ele>420</ele>
        <time>2020-02-07T14:26:47.000Z</time>
      </trkpt>
      <trkpt lat="44.7457" lon="5.03282">
        <ele>420</ele>
        <time>2020-02-07T14:26:48.000Z</time>
      </trkpt>
      <trkpt lat="44.74569" lon="5.03282">
        <ele>420</ele>
        <time>2020-02-07T14:26:49.000Z</time>
      </trkpt>
      <trkpt lat="44.74569" lon="5.03282">
        <ele>420</ele>
        <time>2020-02-07T14:26:50.000Z</time>
      </trkpt>
      <trkpt lat="44.74568" lon="5.03282">
        <ele>420</ele>
        <time>2020-02-07T14:26:51.000Z</time>
      </trkpt>
      <trkpt lat="44.74567" lon="5.03282">
        <ele>420</ele>
        <time>2020-02-07T14:26:52.000Z</time>
      </trkpt>
      <trkpt lat="44.74566" lon="5.03282">
        <ele>420</ele>
        <time>2020-02-07T14:26:53.000Z</time>
      </trkpt>
      <trkpt lat="44.74566" lon="5.03281">
        <ele>420</ele>
        <time>2020-02-07T14:26:54.000Z</time>
      </trkpt>
      <trkpt lat="44.74565" lon="5.03281">
        <ele>420</ele>
        <time>2020-02-07T14:26:55.000Z</time>
      </trkpt>
      <trkpt lat="44.74565" lon="5.03282">
        <ele>420</ele>
        <time>2020-02-07T14:26:56.000Z</time>
      </trkpt>
      <trkpt lat="44.74564" lon="5.03282">
        <ele>420</ele>
        <time>2020-02-07T14:26:57.000Z</time>
      </trkpt>
      <trkpt lat="44.74563" lon="5.03281">
        <ele>420</ele>
        <time>2020-02-07T14:26:58.000Z</time>
      </trkpt>
      <trkpt lat="44.74562" lon="5.03281">
        <ele>420</ele>
        <time>2020-02-07T14:26:59.000Z</time>
      </trkpt>
      <trkpt lat="44.74562" lon="5.03281">
        <ele>420</ele>
        <time>2020-02-07T14:27:00.000Z</time>
      </trkpt>
      <trkpt lat="44.74561" lon="5.0328">
        <ele>420</ele>
        <time>2020-02-07T14:27:01.000Z</time>
      </trkpt>
      <trkpt lat="44.7456" lon="5.0328">
        <ele>420</ele>
        <time>2020-02-07T14:27:02.000Z</time>
      </trkpt>
      <trkpt lat="44.7456" lon="5.0328">
        <ele>420</ele>
        <time>2020-02-07T14:27:03.000Z</time>
      </trkpt>
      <trkpt lat="44.74559" lon="5.0328">
        <ele>420</ele>
        <time>2020-02-07T14:27:04.000Z</time>
      </trkpt>
      <trkpt lat="44.74559" lon="5.0328">
        <ele>420</ele>
        <time>2020-02-07T14:27:05.000Z</time>
      </trkpt>
      <trkpt lat="44.74558" lon="5.03279">
        <ele>420</ele>
        <time>2020-02-07T14:27:06.000Z</time>
      </trkpt>
      <trkpt lat="44.74557" lon="5.03279">
        <ele>420</ele>
        <time>2020-02-07T14:27:07.000Z</time>
      </trkpt>
      <trkpt lat="44.74556" lon="5.03279">
        <ele>420</ele>
        <time>2020-02-07T14:27:08.000Z</time>
      </trkpt>
      <trkpt lat="44.74556" lon="5.03279">
        <ele>420</ele>
        <time>2020-02-07T14:27:09.000Z</time>
      </trkpt>
      <trkpt lat="44.74555" lon="5.03279">
        <ele>421</ele>
        <time>2020-02-07T14:27:10.000Z</time>
      </trkpt>
      <trkpt lat="44.74554" lon="5.03279">
        <ele>421</ele>
        <time>2020-02-07T14:27:11.000Z</time>
      </trkpt>
      <trkpt lat="44.74553" lon="5.03278">
        <ele>421</ele>
        <time>2020-02-07T14:27:12.000Z</time>
      </trkpt>
      <trkpt lat="44.74552" lon="5.03278">
        <ele>421</ele>
        <time>2020-02-07T14:27:13.000Z</time>
      </trkpt>
      <trkpt lat="44.74552" lon="5.03277">
        <ele>421</ele>
        <time>2020-02-07T14:27:14.000Z</time>
      </trkpt>
      <trkpt lat="44.74551" lon="5.03277">
        <ele>421</ele>
        <time>2020-02-07T14:27:15.000Z</time>
      </trkpt>
      <trkpt lat="44.7455" lon="5.03277">
        <ele>421</ele>
        <time>2020-02-07T14:27:16.000Z</time>
      </trkpt>
      <trkpt lat="44.7455" lon="5.03277">
        <ele>421</ele>
        <time>2020-02-07T14:27:17.000Z</time>
      </trkpt>
      <trkpt lat="44.74549" lon="5.03277">
        <ele>421</ele>
        <time>2020-02-07T14:27:18.000Z</time>
      </trkpt>
      <trkpt lat="44.74549" lon="5.03277">
        <ele>421</ele>
        <time>2020-02-07T14:27:19.000Z</time>
      </trkpt>
      <trkpt lat="44.74549" lon="5.03277">
        <ele>422</ele>
        <time>2020-02-07T14:27:20.000Z</time>
      </trkpt>
      <trkpt lat="44.74548" lon="5.03277">
        <ele>422</ele>
        <time>2020-02-07T14:27:21.000Z</time>
      </trkpt>
      <trkpt lat="44.74548" lon="5.03276">
        <ele>422</ele>
        <time>2020-02-07T14:27:22.000Z</time>
      </trkpt>
      <trkpt lat="44.74548" lon="5.03276">
        <ele>422</ele>
        <time>2020-02-07T14:27:23.000Z</time>
      </trkpt>
      <trkpt lat="44.74547" lon="5.03276">
        <ele>422</ele>
        <time>2020-02-07T14:27:24.000Z</time>
      </trkpt>
      <trkpt lat="44.74547" lon="5.03276">
        <ele>422</ele>
        <time>2020-02-07T14:27:25.000Z</time>
      </trkpt>
      <trkpt lat="44.74547" lon="5.03276">
        <ele>422</ele>
        <time>2020-02-07T14:27:26.000Z</time>
      </trkpt>
      <trkpt lat="44.74547" lon="5.03276">
        <ele>422</ele>
        <time>2020-02-07T14:27:27.000Z</time>
      </trkpt>
      <trkpt lat="44.74547" lon="5.03276">
        <ele>422</ele>
        <time>2020-02-07T14:27:28.000Z</time>
      </trkpt>
      <trkpt lat="44.74547" lon="5.03276">
        <ele>422</ele>
        <time>2020-02-07T14:27:29.000Z</time>
      </trkpt>
      <trkpt lat="44.74547" lon="5.03276">
        <ele>422</ele>
        <time>2020-02-07T14:27:30.000Z</time>
      </trkpt>
      <trkpt lat="44.74547" lon="5.03276">
        <ele>422</ele>
        <time>2020-02-07T14:27:31.000Z</time>
      </trkpt>
      <trkpt lat="44.74547" lon="5.03275">
        <ele>423</ele>
        <time>2020-02-07T14:27:32.000Z</time>
      </trkpt>
      <trkpt lat="44.74547" lon="5.03275">
        <ele>423</ele>
        <time>2020-02-07T14:27:33.000Z</time>
      </trkpt>
      <trkpt lat="44.74546" lon="5.03275">
        <ele>423</ele>
        <time>2020-02-07T14:27:34.000Z</time>
      </trkpt>
      <trkpt lat="44.74546" lon="5.03275">
        <ele>423</ele>
        <time>2020-02-07T14:27:35.000Z</time>
      </trkpt>
      <trkpt lat="44.74546" lon="5.03275">
        <ele>423</ele>
        <time>2020-02-07T14:27:36.000Z</time>
      </trkpt>
      <trkpt lat="44.74545" lon="5.03274">
        <ele>423</ele>
        <time>2020-02-07T14:27:37.000Z</time>
      </trkpt>
      <trkpt lat="44.74544" lon="5.03274">
        <ele>422</ele>
        <time>2020-02-07T14:27:38.000Z</time>
      </trkpt>
      <trkpt lat="44.74543" lon="5.03273">
        <ele>422</ele>
        <time>2020-02-07T14:27:39.000Z</time>
      </trkpt>
      <trkpt lat="44.74542" lon="5.03273">
        <ele>422</ele>
        <time>2020-02-07T14:27:40.000Z</time>
      </trkpt>
      <trkpt lat="44.74541" lon="5.03272">
        <ele>422</ele>
        <time>2020-02-07T14:27:41.000Z</time>
      </trkpt>
      <trkpt lat="44.74541" lon="5.03272">
        <ele>422</ele>
        <time>2020-02-07T14:27:42.000Z</time>
      </trkpt>
      <trkpt lat="44.7454" lon="5.03272">
        <ele>422</ele>
        <time>2020-02-07T14:27:43.000Z</time>
      </trkpt>
      <trkpt lat="44.7454" lon="5.03272">
        <ele>423</ele>
        <time>2020-02-07T14:27:44.000Z</time>
      </trkpt>
      <trkpt lat="44.74539" lon="5.03271">
        <ele>423</ele>
        <time>2020-02-07T14:27:45.000Z</time>
      </trkpt>
      <trkpt lat="44.74539" lon="5.03271">
        <ele>423</ele>
        <time>2020-02-07T14:27:46.000Z</time>
      </trkpt>
      <trkpt lat="44.74538" lon="5.03271">
        <ele>423</ele>
        <time>2020-02-07T14:27:47.000Z</time>
      </trkpt>
      <trkpt lat="44.74537" lon="5.0327">
        <ele>423</ele>
        <time>2020-02-07T14:27:48.000Z</time>
      </trkpt>
      <trkpt lat="44.74536" lon="5.0327">
        <ele>423</ele>
        <time>2020-02-07T14:27:49.000Z</time>
      </trkpt>
      <trkpt lat="44.74535" lon="5.0327">
        <ele>422</ele>
        <time>2020-02-07T14:27:50.000Z</time>
      </trkpt>
      <trkpt lat="44.74535" lon="5.0327">
        <ele>422</ele>
        <time>2020-02-07T14:27:51.000Z</time>
      </trkpt>
      <trkpt lat="44.74533" lon="5.0327">
        <ele>423</ele>
        <time>2020-02-07T14:27:52.000Z</time>
      </trkpt>
      <trkpt lat="44.74533" lon="5.03269">
        <ele>422</ele>
        <time>2020-02-07T14:27:53.000Z</time>
      </trkpt>
      <trkpt lat="44.74532" lon="5.03268">
        <ele>422</ele>
        <time>2020-02-07T14:27:54.000Z</time>
      </trkpt>
      <trkpt lat="44.74531" lon="5.03268">
        <ele>423</ele>
        <time>2020-02-07T14:27:55.000Z</time>
      </trkpt>
      <trkpt lat="44.7453" lon="5.03267">
        <ele>423</ele>
        <time>2020-02-07T14:27:56.000Z</time>
      </trkpt>
      <trkpt lat="44.7453" lon="5.03266">
        <ele>423</ele>
        <time>2020-02-07T14:27:57.000Z</time>
      </trkpt>
      <trkpt lat="44.74529" lon="5.03266">
        <ele>423</ele>
        <time>2020-02-07T14:27:58.000Z</time>
      </trkpt>
      <trkpt lat="44.74528" lon="5.03266">
        <ele>423</ele>
        <time>2020-02-07T14:27:59.000Z</time>
      </trkpt>
      <trkpt lat="44.74528" lon="5.03265">
        <ele>423</ele>
        <time>2020-02-07T14:28:00.000Z</time>
      </trkpt>
      <trkpt lat="44.74527" lon="5.03265">
        <ele>423</ele>
        <time>2020-02-07T14:28:01.000Z</time>
      </trkpt>
      <trkpt lat="44.74526" lon="5.03265">
        <ele>424</ele>
        <time>2020-02-07T14:28:02.000Z</time>
      </trkpt>
      <trkpt lat="44.74525" lon="5.03265">
        <ele>424</ele>
        <time>2020-02-07T14:28:03.000Z</time>
      </trkpt>
      <trkpt lat="44.74525" lon="5.03264">
        <ele>424</ele>
        <time>2020-02-07T14:28:04.000Z</time>
      </trkpt>
      <trkpt lat="44.74524" lon="5.03264">
        <ele>424</ele>
        <time>2020-02-07T14:28:05.000Z</time>
      </trkpt>
      <trkpt lat="44.74524" lon="5.03264">
        <ele>424</ele>
        <time>2020-02-07T14:28:06.000Z</time>
      </trkpt>
      <trkpt lat="44.74523" lon="5.03264">
        <ele>424</ele>
        <time>2020-02-07T14:28:07.000Z</time>
      </trkpt>
      <trkpt lat="44.74523" lon="5.03264">
        <ele>424</ele>
        <time>2020-02-07T14:28:08.000Z</time>
      </trkpt>
      <trkpt lat="44.74522" lon="5.03265">
        <ele>424</ele>
        <time>2020-02-07T14:28:09.000Z</time>
      </trkpt>
      <trkpt lat="44.74522" lon="5.03264">
        <ele>424</ele>
        <time>2020-02-07T14:28:10.000Z</time>
      </trkpt>
      <trkpt lat="44.74521" lon="5.03264">
        <ele>424</ele>
        <time>2020-02-07T14:28:11.000Z</time>
      </trkpt>
      <trkpt lat="44.74521" lon="5.03264">
        <ele>424</ele>
        <time>2020-02-07T14:28:12.000Z</time>
      </trkpt>
      <trkpt lat="44.7452" lon="5.03264">
        <ele>425</ele>
        <time>2020-02-07T14:28:13.000Z</time>
      </trkpt>
      <trkpt lat="44.7452" lon="5.03264">
        <ele>425</ele>
        <time>2020-02-07T14:28:14.000Z</time>
      </trkpt>
      <trkpt lat="44.7452" lon="5.03264">
        <ele>425</ele>
        <time>2020-02-07T14:28:15.000Z</time>
      </trkpt>
      <trkpt lat="44.7452" lon="5.03264">
        <ele>425</ele>
        <time>2020-02-07T14:28:16.000Z</time>
      </trkpt>
      <trkpt lat="44.7452" lon="5.03264">
        <ele>425</ele>
        <time>2020-02-07T14:28:17.000Z</time>
      </trkpt>
      <trkpt lat="44.7452" lon="5.03264">
        <ele>425</ele>
        <time>2020-02-07T14:28:18.000Z</time>
      </trkpt>
      <trkpt lat="44.74519" lon="5.03263">
        <ele>425</ele>
        <time>2020-02-07T14:28:19.000Z</time>
      </trkpt>
      <trkpt lat="44.74519" lon="5.03263">
        <ele>425</ele>
        <time>2020-02-07T14:28:20.000Z</time>
      </trkpt>
      <trkpt lat="44.74519" lon="5.03263">
        <ele>425</ele>
        <time>2020-02-07T14:28:21.000Z</time>
      </trkpt>
      <trkpt lat="44.74519" lon="5.03263">
        <ele>425</ele>
        <time>2020-02-07T14:28:22.000Z</time>
      </trkpt>
      <trkpt lat="44.74519" lon="5.03263">
        <ele>425</ele>
        <time>2020-02-07T14:28:23.000Z</time>
      </trkpt>
      <trkpt lat="44.74519" lon="5.03263">
        <ele>425</ele>
        <time>2020-02-07T14:28:24.000Z</time>
      </trkpt>
      <trkpt lat="44.74519" lon="5.03263">
        <ele>425</ele>
        <time>2020-02-07T14:28:25.000Z</time>
      </trkpt>
      <trkpt lat="44.74519" lon="5.03263">
        <ele>425</ele>
        <time>2020-02-07T14:28:26.000Z</time>
      </trkpt>
      <trkpt lat="44.74519" lon="5.03263">
        <ele>425</ele>
        <time>2020-02-07T14:28:27.000Z</time>
      </trkpt>
      <trkpt lat="44.74519" lon="5.03263">
        <ele>425</ele>
        <time>2020-02-07T14:28:28.000Z</time>
      </trkpt>
      <trkpt lat="44.74519" lon="5.03263">
        <ele>425</ele>
        <time>2020-02-07T14:28:29.000Z</time>
      </trkpt>
      <trkpt lat="44.74519" lon="5.03263">
        <ele>425</ele>
        <time>2020-02-07T14:28:30.000Z</time>
      </trkpt>
      <trkpt lat="44.74519" lon="5.03263">
        <ele>425</ele>
        <time>2020-02-07T14:28:31.000Z</time>
      </trkpt>
      <trkpt lat="44.74519" lon="5.03263">
        <ele>425</ele>
        <time>2020-02-07T14:28:32.000Z</time>
      </trkpt>
      <trkpt lat="44.74519" lon="5.03263">
        <ele>425</ele>
        <time>2020-02-07T14:28:33.000Z</time>
      </trkpt>
      <trkpt lat="44.74519" lon="5.03263">
        <ele>425</ele>
        <time>2020-02-07T14:28:34.000Z</time>
      </trkpt>
      <trkpt lat="44.74519" lon="5.03263">
        <ele>425</ele>
        <time>2020-02-07T14:28:35.000Z</time>
      </trkpt>
      <trkpt lat="44.74519" lon="5.03262">
        <ele>425</ele>
        <time>2020-02-07T14:28:36.000Z</time>
      </trkpt>
      <trkpt lat="44.74519" lon="5.03262">
        <ele>425</ele>
        <time>2020-02-07T14:28:37.000Z</time>
      </trkpt>
      <trkpt lat="44.74518" lon="5.03262">
        <ele>425</ele>
        <time>2020-02-07T14:28:38.000Z</time>
      </trkpt>
      <trkpt lat="44.74517" lon="5.03261">
        <ele>425</ele>
        <time>2020-02-07T14:28:39.000Z</time>
      </trkpt>
      <trkpt lat="44.74517" lon="5.03261">
        <ele>425</ele>
        <time>2020-02-07T14:28:40.000Z</time>
      </trkpt>
      <trkpt lat="44.74516" lon="5.03261">
        <ele>425</ele>
        <time>2020-02-07T14:28:41.000Z</time>
      </trkpt>
      <trkpt lat="44.74515" lon="5.0326">
        <ele>425</ele>
        <time>2020-02-07T14:28:42.000Z</time>
      </trkpt>
      <trkpt lat="44.74514" lon="5.03259">
        <ele>425</ele>
        <time>2020-02-07T14:28:43.000Z</time>
      </trkpt>
      <trkpt lat="44.74513" lon="5.03259">
        <ele>425</ele>
        <time>2020-02-07T14:28:44.000Z</time>
      </trkpt>
      <trkpt lat="44.74512" lon="5.03258">
        <ele>425</ele>
        <time>2020-02-07T14:28:45.000Z</time>
      </trkpt>
      <trkpt lat="44.74511" lon="5.03258">
        <ele>425</ele>
        <time>2020-02-07T14:28:46.000Z</time>
      </trkpt>
      <trkpt lat="44.7451" lon="5.03258">
        <ele>425</ele>
        <time>2020-02-07T14:28:47.000Z</time>
      </trkpt>
      <trkpt lat="44.74509" lon="5.03258">
        <ele>425</ele>
        <time>2020-02-07T14:28:48.000Z</time>
      </trkpt>
      <trkpt lat="44.74508" lon="5.03258">
        <ele>425</ele>
        <time>2020-02-07T14:28:49.000Z</time>
      </trkpt>
      <trkpt lat="44.74508" lon="5.03259">
        <ele>425</ele>
        <time>2020-02-07T14:28:50.000Z</time>
      </trkpt>
      <trkpt lat="44.74507" lon="5.03259">
        <ele>426</ele>
        <time>2020-02-07T14:28:51.000Z</time>
      </trkpt>
      <trkpt lat="44.74506" lon="5.03259">
        <ele>426</ele>
        <time>2020-02-07T14:28:52.000Z</time>
      </trkpt>
      <trkpt lat="44.74505" lon="5.03259">
        <ele>426</ele>
        <time>2020-02-07T14:28:53.000Z</time>
      </trkpt>
      <trkpt lat="44.74504" lon="5.03259">
        <ele>426</ele>
        <time>2020-02-07T14:28:54.000Z</time>
      </trkpt>
      <trkpt lat="44.74504" lon="5.03259">
        <ele>426</ele>
        <time>2020-02-07T14:28:55.000Z</time>
      </trkpt>
      <trkpt lat="44.74503" lon="5.0326">
        <ele>426</ele>
        <time>2020-02-07T14:28:56.000Z</time>
      </trkpt>
      <trkpt lat="44.74502" lon="5.0326">
        <ele>426</ele>
        <time>2020-02-07T14:28:57.000Z</time>
      </trkpt>
      <trkpt lat="44.74501" lon="5.0326">
        <ele>426</ele>
        <time>2020-02-07T14:28:58.000Z</time>
      </trkpt>
      <trkpt lat="44.745" lon="5.0326">
        <ele>426</ele>
        <time>2020-02-07T14:28:59.000Z</time>
      </trkpt>
      <trkpt lat="44.74499" lon="5.0326">
        <ele>426</ele>
        <time>2020-02-07T14:29:00.000Z</time>
      </trkpt>
      <trkpt lat="44.74498" lon="5.0326">
        <ele>426</ele>
        <time>2020-02-07T14:29:01.000Z</time>
      </trkpt>
      <trkpt lat="44.74497" lon="5.0326">
        <ele>426</ele>
        <time>2020-02-07T14:29:02.000Z</time>
      </trkpt>
      <trkpt lat="44.74496" lon="5.03259">
        <ele>426</ele>
        <time>2020-02-07T14:29:03.000Z</time>
      </trkpt>
      <trkpt lat="44.74495" lon="5.03259">
        <ele>426</ele>
        <time>2020-02-07T14:29:04.000Z</time>
      </trkpt>
      <trkpt lat="44.74494" lon="5.03259">
        <ele>426</ele>
        <time>2020-02-07T14:29:05.000Z</time>
      </trkpt>
      <trkpt lat="44.74494" lon="5.03259">
        <ele>426</ele>
        <time>2020-02-07T14:29:06.000Z</time>
      </trkpt>
      <trkpt lat="44.74493" lon="5.03258">
        <ele>426</ele>
        <time>2020-02-07T14:29:07.000Z</time>
      </trkpt>
      <trkpt lat="44.74492" lon="5.03258">
        <ele>426</ele>
        <time>2020-02-07T14:29:08.000Z</time>
      </trkpt>
      <trkpt lat="44.74492" lon="5.03257">
        <ele>426</ele>
        <time>2020-02-07T14:29:09.000Z</time>
      </trkpt>
      <trkpt lat="44.74491" lon="5.03257">
        <ele>426</ele>
        <time>2020-02-07T14:29:10.000Z</time>
      </trkpt>
      <trkpt lat="44.74491" lon="5.03257">
        <ele>426</ele>
        <time>2020-02-07T14:29:11.000Z</time>
      </trkpt>
      <trkpt lat="44.74491" lon="5.03257">
        <ele>426</ele>
        <time>2020-02-07T14:29:12.000Z</time>
      </trkpt>
      <trkpt lat="44.74491" lon="5.03257">
        <ele>426</ele>
        <time>2020-02-07T14:29:13.000Z</time>
      </trkpt>
      <trkpt lat="44.7449" lon="5.03256">
        <ele>426</ele>
        <time>2020-02-07T14:29:14.000Z</time>
      </trkpt>
      <trkpt lat="44.7449" lon="5.03256">
        <ele>425</ele>
        <time>2020-02-07T14:29:15.000Z</time>
      </trkpt>
      <trkpt lat="44.74489" lon="5.03256">
        <ele>425</ele>
        <time>2020-02-07T14:29:16.000Z</time>
      </trkpt>
      <trkpt lat="44.74489" lon="5.03255">
        <ele>425</ele>
        <time>2020-02-07T14:29:17.000Z</time>
      </trkpt>
      <trkpt lat="44.74489" lon="5.03255">
        <ele>425</ele>
        <time>2020-02-07T14:29:18.000Z</time>
      </trkpt>
      <trkpt lat="44.74488" lon="5.03255">
        <ele>425</ele>
        <time>2020-02-07T14:29:19.000Z</time>
      </trkpt>
      <trkpt lat="44.74487" lon="5.03254">
        <ele>424</ele>
        <time>2020-02-07T14:29:20.000Z</time>
      </trkpt>
      <trkpt lat="44.74487" lon="5.03253">
        <ele>424</ele>
        <time>2020-02-07T14:29:21.000Z</time>
      </trkpt>
      <trkpt lat="44.74486" lon="5.03253">
        <ele>424</ele>
        <time>2020-02-07T14:29:22.000Z</time>
      </trkpt>
      <trkpt lat="44.74486" lon="5.03252">
        <ele>424</ele>
        <time>2020-02-07T14:29:23.000Z</time>
      </trkpt>
      <trkpt lat="44.74485" lon="5.03251">
        <ele>424</ele>
        <time>2020-02-07T14:29:24.000Z</time>
      </trkpt>
      <trkpt lat="44.74485" lon="5.0325">
        <ele>424</ele>
        <time>2020-02-07T14:29:25.000Z</time>
      </trkpt>
      <trkpt lat="44.74484" lon="5.0325">
        <ele>423</ele>
        <time>2020-02-07T14:29:26.000Z</time>
      </trkpt>
      <trkpt lat="44.74483" lon="5.03249">
        <ele>423</ele>
        <time>2020-02-07T14:29:27.000Z</time>
      </trkpt>
      <trkpt lat="44.74482" lon="5.03248">
        <ele>423</ele>
        <time>2020-02-07T14:29:28.000Z</time>
      </trkpt>
      <trkpt lat="44.74481" lon="5.03248">
        <ele>423</ele>
        <time>2020-02-07T14:29:29.000Z</time>
      </trkpt>
      <trkpt lat="44.7448" lon="5.03247">
        <ele>423</ele>
        <time>2020-02-07T14:29:30.000Z</time>
      </trkpt>
      <trkpt lat="44.74479" lon="5.03246">
        <ele>422</ele>
        <time>2020-02-07T14:29:31.000Z</time>
      </trkpt>
      <trkpt lat="44.74478" lon="5.03246">
        <ele>422</ele>
        <time>2020-02-07T14:29:32.000Z</time>
      </trkpt>
      <trkpt lat="44.74478" lon="5.03245">
        <ele>422</ele>
        <time>2020-02-07T14:29:33.000Z</time>
      </trkpt>
      <trkpt lat="44.74477" lon="5.03245">
        <ele>422</ele>
        <time>2020-02-07T14:29:34.000Z</time>
      </trkpt>
      <trkpt lat="44.74477" lon="5.03244">
        <ele>422</ele>
        <time>2020-02-07T14:29:35.000Z</time>
      </trkpt>
      <trkpt lat="44.74477" lon="5.03244">
        <ele>422</ele>
        <time>2020-02-07T14:29:36.000Z</time>
      </trkpt>
      <trkpt lat="44.74477" lon="5.03244">
        <ele>422</ele>
        <time>2020-02-07T14:29:37.000Z</time>
      </trkpt>
      <trkpt lat="44.74476" lon="5.03243">
        <ele>422</ele>
        <time>2020-02-07T14:29:38.000Z</time>
      </trkpt>
      <trkpt lat="44.74476" lon="5.03243">
        <ele>422</ele>
        <time>2020-02-07T14:29:39.000Z</time>
      </trkpt>
      <trkpt lat="44.74475" lon="5.03242">
        <ele>422</ele>
        <time>2020-02-07T14:29:40.000Z</time>
      </trkpt>
      <trkpt lat="44.74474" lon="5.03242">
        <ele>422</ele>
        <time>2020-02-07T14:29:41.000Z</time>
      </trkpt>
      <trkpt lat="44.74473" lon="5.03242">
        <ele>421</ele>
        <time>2020-02-07T14:29:42.000Z</time>
      </trkpt>
      <trkpt lat="44.74472" lon="5.03242">
        <ele>421</ele>
        <time>2020-02-07T14:29:43.000Z</time>
      </trkpt>
      <trkpt lat="44.74471" lon="5.03242">
        <ele>421</ele>
        <time>2020-02-07T14:29:44.000Z</time>
      </trkpt>
      <trkpt lat="44.7447" lon="5.03241">
        <ele>421</ele>
        <time>2020-02-07T14:29:45.000Z</time>
      </trkpt>
      <trkpt lat="44.74469" lon="5.03241">
        <ele>421</ele>
        <time>2020-02-07T14:29:46.000Z</time>
      </trkpt>
      <trkpt lat="44.74468" lon="5.03241">
        <ele>421</ele>
        <time>2020-02-07T14:29:47.000Z</time>
      </trkpt>
      <trkpt lat="44.74467" lon="5.03241">
        <ele>421</ele>
        <time>2020-02-07T14:29:48.000Z</time>
      </trkpt>
      <trkpt lat="44.74466" lon="5.03241">
        <ele>421</ele>
        <time>2020-02-07T14:29:49.000Z</time>
      </trkpt>
      <trkpt lat="44.74465" lon="5.03242">
        <ele>421</ele>
        <time>2020-02-07T14:29:50.000Z</time>
      </trkpt>
      <trkpt lat="44.74465" lon="5.03242">
        <ele>421</ele>
        <time>2020-02-07T14:29:51.000Z</time>
      </trkpt>
      <trkpt lat="44.74464" lon="5.03242">
        <ele>421</ele>
        <time>2020-02-07T14:29:52.000Z</time>
      </trkpt>
      <trkpt lat="44.74463" lon="5.03242">
        <ele>421</ele>
        <time>2020-02-07T14:29:53.000Z</time>
      </trkpt>
      <trkpt lat="44.74462" lon="5.03242">
        <ele>421</ele>
        <time>2020-02-07T14:29:54.000Z</time>
      </trkpt>
      <trkpt lat="44.74461" lon="5.03242">
        <ele>421</ele>
        <time>2020-02-07T14:29:55.000Z</time>
      </trkpt>
      <trkpt lat="44.7446" lon="5.03242">
        <ele>421</ele>
        <time>2020-02-07T14:29:56.000Z</time>
      </trkpt>
      <trkpt lat="44.74459" lon="5.03242">
        <ele>420</ele>
        <time>2020-02-07T14:29:57.000Z</time>
      </trkpt>
      <trkpt lat="44.74458" lon="5.03242">
        <ele>420</ele>
        <time>2020-02-07T14:29:58.000Z</time>
      </trkpt>
      <trkpt lat="44.74457" lon="5.03242">
        <ele>420</ele>
        <time>2020-02-07T14:29:59.000Z</time>
      </trkpt>
      <trkpt lat="44.74456" lon="5.03242">
        <ele>420</ele>
        <time>2020-02-07T14:30:00.000Z</time>
      </trkpt>
      <trkpt lat="44.74454" lon="5.03242">
        <ele>420</ele>
        <time>2020-02-07T14:30:01.000Z</time>
      </trkpt>
      <trkpt lat="44.74454" lon="5.03241">
        <ele>420</ele>
        <time>2020-02-07T14:30:02.000Z</time>
      </trkpt>
      <trkpt lat="44.74453" lon="5.03241">
        <ele>420</ele>
        <time>2020-02-07T14:30:03.000Z</time>
      </trkpt>
      <trkpt lat="44.74453" lon="5.03239">
        <ele>420</ele>
        <time>2020-02-07T14:30:04.000Z</time>
      </trkpt>
      <trkpt lat="44.74452" lon="5.03238">
        <ele>420</ele>
        <time>2020-02-07T14:30:05.000Z</time>
      </trkpt>
      <trkpt lat="44.74452" lon="5.03237">
        <ele>420</ele>
        <time>2020-02-07T14:30:06.000Z</time>
      </trkpt>
      <trkpt lat="44.74452" lon="5.03236">
        <ele>420</ele>
        <time>2020-02-07T14:30:07.000Z</time>
      </trkpt>
      <trkpt lat="44.74451" lon="5.03235">
        <ele>419</ele>
        <time>2020-02-07T14:30:08.000Z</time>
      </trkpt>
      <trkpt lat="44.74451" lon="5.03235">
        <ele>420</ele>
        <time>2020-02-07T14:30:09.000Z</time>
      </trkpt>
      <trkpt lat="44.74451" lon="5.03234">
        <ele>420</ele>
        <time>2020-02-07T14:30:10.000Z</time>
      </trkpt>
      <trkpt lat="44.74451" lon="5.03233">
        <ele>420</ele>
        <time>2020-02-07T14:30:11.000Z</time>
      </trkpt>
      <trkpt lat="44.74451" lon="5.03233">
        <ele>420</ele>
        <time>2020-02-07T14:30:12.000Z</time>
      </trkpt>
      <trkpt lat="44.7445" lon="5.03232">
        <ele>420</ele>
        <time>2020-02-07T14:30:13.000Z</time>
      </trkpt>
      <trkpt lat="44.7445" lon="5.03232">
        <ele>420</ele>
        <time>2020-02-07T14:30:14.000Z</time>
      </trkpt>
      <trkpt lat="44.74449" lon="5.03231">
        <ele>420</ele>
        <time>2020-02-07T14:30:15.000Z</time>
      </trkpt>
      <trkpt lat="44.74448" lon="5.0323">
        <ele>420</ele>
        <time>2020-02-07T14:30:16.000Z</time>
      </trkpt>
      <trkpt lat="44.74448" lon="5.0323">
        <ele>420</ele>
        <time>2020-02-07T14:30:17.000Z</time>
      </trkpt>
      <trkpt lat="44.74447" lon="5.0323">
        <ele>420</ele>
        <time>2020-02-07T14:30:18.000Z</time>
      </trkpt>
      <trkpt lat="44.74447" lon="5.03229">
        <ele>420</ele>
        <time>2020-02-07T14:30:19.000Z</time>
      </trkpt>
      <trkpt lat="44.74446" lon="5.03229">
        <ele>420</ele>
        <time>2020-02-07T14:30:20.000Z</time>
      </trkpt>
      <trkpt lat="44.74446" lon="5.03228">
        <ele>420</ele>
        <time>2020-02-07T14:30:21.000Z</time>
      </trkpt>
      <trkpt lat="44.74445" lon="5.03228">
        <ele>421</ele>
        <time>2020-02-07T14:30:22.000Z</time>
      </trkpt>
      <trkpt lat="44.74445" lon="5.03227">
        <ele>421</ele>
        <time>2020-02-07T14:30:23.000Z</time>
      </trkpt>
      <trkpt lat="44.74444" lon="5.03227">
        <ele>421</ele>
        <time>2020-02-07T14:30:24.000Z</time>
      </trkpt>
      <trkpt lat="44.74443" lon="5.03226">
        <ele>421</ele>
        <time>2020-02-07T14:30:25.000Z</time>
      </trkpt>
      <trkpt lat="44.74442" lon="5.03226">
        <ele>421</ele>
        <time>2020-02-07T14:30:26.000Z</time>
      </trkpt>
      <trkpt lat="44.74441" lon="5.03226">
        <ele>421</ele>
        <time>2020-02-07T14:30:27.000Z</time>
      </trkpt>
      <trkpt lat="44.7444" lon="5.03225">
        <ele>421</ele>
        <time>2020-02-07T14:30:28.000Z</time>
      </trkpt>
      <trkpt lat="44.7444" lon="5.03225">
        <ele>421</ele>
        <time>2020-02-07T14:30:29.000Z</time>
      </trkpt>
      <trkpt lat="44.74439" lon="5.03225">
        <ele>421</ele>
        <time>2020-02-07T14:30:30.000Z</time>
      </trkpt>
      <trkpt lat="44.74438" lon="5.03225">
        <ele>421</ele>
        <time>2020-02-07T14:30:31.000Z</time>
      </trkpt>
      <trkpt lat="44.74438" lon="5.03224">
        <ele>421</ele>
        <time>2020-02-07T14:30:32.000Z</time>
      </trkpt>
      <trkpt lat="44.74437" lon="5.03224">
        <ele>422</ele>
        <time>2020-02-07T14:30:33.000Z</time>
      </trkpt>
      <trkpt lat="44.74437" lon="5.03223">
        <ele>422</ele>
        <time>2020-02-07T14:30:34.000Z</time>
      </trkpt>
      <trkpt lat="44.74437" lon="5.03223">
        <ele>422</ele>
        <time>2020-02-07T14:30:35.000Z</time>
      </trkpt>
      <trkpt lat="44.74436" lon="5.03223">
        <ele>422</ele>
        <time>2020-02-07T14:30:36.000Z</time>
      </trkpt>
      <trkpt lat="44.74435" lon="5.03223">
        <ele>422</ele>
        <time>2020-02-07T14:30:37.000Z</time>
      </trkpt>
      <trkpt lat="44.74435" lon="5.03223">
        <ele>422</ele>
        <time>2020-02-07T14:30:38.000Z</time>
      </trkpt>
      <trkpt lat="44.74434" lon="5.03223">
        <ele>422</ele>
        <time>2020-02-07T14:30:39.000Z</time>
      </trkpt>
      <trkpt lat="44.74434" lon="5.03222">
        <ele>422</ele>
        <time>2020-02-07T14:30:40.000Z</time>
      </trkpt>
      <trkpt lat="44.74433" lon="5.03222">
        <ele>422</ele>
        <time>2020-02-07T14:30:41.000Z</time>
      </trkpt>
      <trkpt lat="44.74432" lon="5.03222">
        <ele>422</ele>
        <time>2020-02-07T14:30:42.000Z</time>
      </trkpt>
      <trkpt lat="44.74432" lon="5.03222">
        <ele>422</ele>
        <time>2020-02-07T14:30:43.000Z</time>
      </trkpt>
      <trkpt lat="44.74431" lon="5.03222">
        <ele>422</ele>
        <time>2020-02-07T14:30:44.000Z</time>
      </trkpt>
      <trkpt lat="44.7443" lon="5.03222">
        <ele>422</ele>
        <time>2020-02-07T14:30:45.000Z</time>
      </trkpt>
      <trkpt lat="44.74429" lon="5.03222">
        <ele>422</ele>
        <time>2020-02-07T14:30:46.000Z</time>
      </trkpt>
      <trkpt lat="44.74429" lon="5.03222">
        <ele>422</ele>
        <time>2020-02-07T14:30:47.000Z</time>
      </trkpt>
      <trkpt lat="44.74428" lon="5.03222">
        <ele>422</ele>
        <time>2020-02-07T14:30:48.000Z</time>
      </trkpt>
      <trkpt lat="44.74427" lon="5.03221">
        <ele>422</ele>
        <time>2020-02-07T14:30:49.000Z</time>
      </trkpt>
      <trkpt lat="44.74427" lon="5.03221">
        <ele>422</ele>
        <time>2020-02-07T14:30:50.000Z</time>
      </trkpt>
      <trkpt lat="44.74427" lon="5.03221">
        <ele>422</ele>
        <time>2020-02-07T14:30:51.000Z</time>
      </trkpt>
      <trkpt lat="44.74427" lon="5.03221">
        <ele>422</ele>
        <time>2020-02-07T14:30:52.000Z</time>
      </trkpt>
      <trkpt lat="44.74427" lon="5.0322">
        <ele>422</ele>
        <time>2020-02-07T14:30:53.000Z</time>
      </trkpt>
      <trkpt lat="44.74427" lon="5.0322">
        <ele>422</ele>
        <time>2020-02-07T14:30:54.000Z</time>
      </trkpt>
      <trkpt lat="44.74427" lon="5.0322">
        <ele>422</ele>
        <time>2020-02-07T14:30:55.000Z</time>
      </trkpt>
      <trkpt lat="44.74427" lon="5.0322">
        <ele>422</ele>
        <time>2020-02-07T14:30:56.000Z</time>
      </trkpt>
      <trkpt lat="44.74427" lon="5.0322">
        <ele>422</ele>
        <time>2020-02-07T14:30:57.000Z</time>
      </trkpt>
      <trkpt lat="44.74427" lon="5.0322">
        <ele>421</ele>
        <time>2020-02-07T14:30:58.000Z</time>
      </trkpt>
      <trkpt lat="44.74427" lon="5.0322">
        <ele>421</ele>
        <time>2020-02-07T14:30:59.000Z</time>
      </trkpt>
      <trkpt lat="44.74427" lon="5.0322">
        <ele>421</ele>
        <time>2020-02-07T14:31:00.000Z</time>
      </trkpt>
      <trkpt lat="44.74427" lon="5.0322">
        <ele>421</ele>
        <time>2020-02-07T14:31:01.000Z</time>
      </trkpt>
      <trkpt lat="44.74427" lon="5.0322">
        <ele>421</ele>
        <time>2020-02-07T14:31:02.000Z</time>
      </trkpt>
      <trkpt lat="44.74427" lon="5.0322">
        <ele>421</ele>
        <time>2020-02-07T14:31:03.000Z</time>
      </trkpt>
      <trkpt lat="44.74427" lon="5.0322">
        <ele>421</ele>
        <time>2020-02-07T14:31:04.000Z</time>
      </trkpt>
      <trkpt lat="44.74427" lon="5.0322">
        <ele>421</ele>
        <time>2020-02-07T14:31:05.000Z</time>
      </trkpt>
      <trkpt lat="44.74427" lon="5.03219">
        <ele>421</ele>
        <time>2020-02-07T14:31:06.000Z</time>
      </trkpt>
      <trkpt lat="44.74427" lon="5.03219">
        <ele>421</ele>
        <time>2020-02-07T14:31:07.000Z</time>
      </trkpt>
      <trkpt lat="44.74427" lon="5.03219">
        <ele>421</ele>
        <time>2020-02-07T14:31:08.000Z</time>
      </trkpt>
      <trkpt lat="44.74427" lon="5.03219">
        <ele>421</ele>
        <time>2020-02-07T14:31:09.000Z</time>
      </trkpt>
      <trkpt lat="44.74427" lon="5.03219">
        <ele>421</ele>
        <time>2020-02-07T14:31:10.000Z</time>
      </trkpt>
      <trkpt lat="44.74427" lon="5.03219">
        <ele>421</ele>
        <time>2020-02-07T14:31:11.000Z</time>
      </trkpt>
      <trkpt lat="44.74427" lon="5.03219">
        <ele>421</ele>
        <time>2020-02-07T14:31:12.000Z</time>
      </trkpt>
      <trkpt lat="44.74427" lon="5.03219">
        <ele>421</ele>
        <time>2020-02-07T14:31:13.000Z</time>
      </trkpt>
      <trkpt lat="44.74427" lon="5.03219">
        <ele>421</ele>
        <time>2020-02-07T14:31:14.000Z</time>
      </trkpt>
      <trkpt lat="44.74427" lon="5.03218">
        <ele>421</ele>
        <time>2020-02-07T14:31:15.000Z</time>
      </trkpt>
      <trkpt lat="44.74427" lon="5.03218">
        <ele>421</ele>
        <time>2020-02-07T14:31:16.000Z</time>
      </trkpt>
      <trkpt lat="44.74427" lon="5.03218">
        <ele>421</ele>
        <time>2020-02-07T14:31:17.000Z</time>
      </trkpt>
      <trkpt lat="44.74427" lon="5.03218">
        <ele>421</ele>
        <time>2020-02-07T14:31:18.000Z</time>
      </trkpt>
      <trkpt lat="44.74427" lon="5.03218">
        <ele>420</ele>
        <time>2020-02-07T14:31:19.000Z</time>
      </trkpt>
      <trkpt lat="44.74427" lon="5.03218">
        <ele>420</ele>
        <time>2020-02-07T14:31:20.000Z</time>
      </trkpt>
      <trkpt lat="44.74427" lon="5.03218">
        <ele>420</ele>
        <time>2020-02-07T14:31:21.000Z</time>
      </trkpt>
      <trkpt lat="44.74427" lon="5.03218">
        <ele>420</ele>
        <time>2020-02-07T14:31:22.000Z</time>
      </trkpt>
      <trkpt lat="44.74427" lon="5.03218">
        <ele>420</ele>
        <time>2020-02-07T14:31:23.000Z</time>
      </trkpt>
      <trkpt lat="44.74427" lon="5.03218">
        <ele>420</ele>
        <time>2020-02-07T14:31:24.000Z</time>
      </trkpt>
      <trkpt lat="44.74427" lon="5.03218">
        <ele>420</ele>
        <time>2020-02-07T14:31:25.000Z</time>
      </trkpt>
      <trkpt lat="44.74427" lon="5.03218">
        <ele>420</ele>
        <time>2020-02-07T14:31:26.000Z</time>
      </trkpt>
      <trkpt lat="44.74427" lon="5.03218">
        <ele>420</ele>
        <time>2020-02-07T14:31:27.000Z</time>
      </trkpt>
      <trkpt lat="44.74427" lon="5.03218">
        <ele>420</ele>
        <time>2020-02-07T14:31:28.000Z</time>
      </trkpt>
      <trkpt lat="44.74427" lon="5.03218">
        <ele>420</ele>
        <time>2020-02-07T14:31:29.000Z</time>
      </trkpt>
      <trkpt lat="44.74427" lon="5.03218">
        <ele>420</ele>
        <time>2020-02-07T14:31:30.000Z</time>
      </trkpt>
      <trkpt lat="44.74427" lon="5.03218">
        <ele>420</ele>
        <time>2020-02-07T14:31:31.000Z</time>
      </trkpt>
      <trkpt lat="44.74427" lon="5.03218">
        <ele>420</ele>
        <time>2020-02-07T14:31:32.000Z</time>
      </trkpt>
      <trkpt lat="44.74427" lon="5.03218">
        <ele>420</ele>
        <time>2020-02-07T14:31:33.000Z</time>
      </trkpt>
      <trkpt lat="44.74427" lon="5.03218">
        <ele>420</ele>
        <time>2020-02-07T14:31:34.000Z</time>
      </trkpt>
      <trkpt lat="44.74427" lon="5.03218">
        <ele>420</ele>
        <time>2020-02-07T14:31:35.000Z</time>
      </trkpt>
      <trkpt lat="44.74427" lon="5.03218">
        <ele>420</ele>
        <time>2020-02-07T14:31:36.000Z</time>
      </trkpt>
      <trkpt lat="44.74427" lon="5.03218">
        <ele>420</ele>
        <time>2020-02-07T14:31:37.000Z</time>
      </trkpt>
      <trkpt lat="44.74427" lon="5.03218">
        <ele>420</ele>
        <time>2020-02-07T14:31:38.000Z</time>
      </trkpt>
      <trkpt lat="44.74427" lon="5.03218">
        <ele>420</ele>
        <time>2020-02-07T14:31:39.000Z</time>
      </trkpt>
      <trkpt lat="44.74427" lon="5.03218">
        <ele>420</ele>
        <time>2020-02-07T14:31:40.000Z</time>
      </trkpt>
      <trkpt lat="44.74427" lon="5.03218">
        <ele>420</ele>
        <time>2020-02-07T14:31:41.000Z</time>
      </trkpt>
      <trkpt lat="44.74427" lon="5.03218">
        <ele>420</ele>
        <time>2020-02-07T14:31:42.000Z</time>
      </trkpt>
      <trkpt lat="44.74427" lon="5.03218">
        <ele>420</ele>
        <time>2020-02-07T14:31:43.000Z</time>
      </trkpt>
      <trkpt lat="44.74427" lon="5.03218">
        <ele>420</ele>
        <time>2020-02-07T14:31:44.000Z</time>
      </trkpt>
      <trkpt lat="44.74427" lon="5.03218">
        <ele>420</ele>
        <time>2020-02-07T14:31:45.000Z</time>
      </trkpt>
      <trkpt lat="44.74427" lon="5.03218">
        <ele>420</ele>
        <time>2020-02-07T14:31:46.000Z</time>
      </trkpt>
      <trkpt lat="44.74427" lon="5.03218">
        <ele>420</ele>
        <time>2020-02-07T14:31:47.000Z</time>
      </trkpt>
      <trkpt lat="44.74427" lon="5.03218">
        <ele>420</ele>
        <time>2020-02-07T14:31:48.000Z</time>
      </trkpt>
      <trkpt lat="44.74427" lon="5.03218">
        <ele>420</ele>
        <time>2020-02-07T14:31:49.000Z</time>
      </trkpt>
      <trkpt lat="44.74427" lon="5.03218">
        <ele>420</ele>
        <time>2020-02-07T14:31:50.000Z</time>
      </trkpt>
      <trkpt lat="44.74428" lon="5.03218">
        <ele>420</ele>
        <time>2020-02-07T14:31:51.000Z</time>
      </trkpt>
      <trkpt lat="44.74428" lon="5.03218">
        <ele>420</ele>
        <time>2020-02-07T14:31:52.000Z</time>
      </trkpt>
      <trkpt lat="44.74428" lon="5.03218">
        <ele>420</ele>
        <time>2020-02-07T14:31:53.000Z</time>
      </trkpt>
      <trkpt lat="44.74428" lon="5.03218">
        <ele>420</ele>
        <time>2020-02-07T14:31:54.000Z</time>
      </trkpt>
      <trkpt lat="44.74428" lon="5.03218">
        <ele>420</ele>
        <time>2020-02-07T14:31:55.000Z</time>
      </trkpt>
      <trkpt lat="44.74428" lon="5.03218">
        <ele>420</ele>
        <time>2020-02-07T14:31:56.000Z</time>
      </trkpt>
      <trkpt lat="44.74428" lon="5.03218">
        <ele>420</ele>
        <time>2020-02-07T14:31:57.000Z</time>
      </trkpt>
      <trkpt lat="44.74428" lon="5.03218">
        <ele>420</ele>
        <time>2020-02-07T14:31:58.000Z</time>
      </trkpt>
      <trkpt lat="44.74428" lon="5.03218">
        <ele>420</ele>
        <time>2020-02-07T14:31:59.000Z</time>
      </trkpt>
      <trkpt lat="44.74428" lon="5.03218">
        <ele>420</ele>
        <time>2020-02-07T14:32:00.000Z</time>
      </trkpt>
      <trkpt lat="44.74428" lon="5.03218">
        <ele>420</ele>
        <time>2020-02-07T14:32:01.000Z</time>
      </trkpt>
      <trkpt lat="44.74428" lon="5.03218">
        <ele>420</ele>
        <time>2020-02-07T14:32:02.000Z</time>
      </trkpt>
      <trkpt lat="44.74428" lon="5.03218">
        <ele>420</ele>
        <time>2020-02-07T14:32:03.000Z</time>
      </trkpt>
      <trkpt lat="44.74428" lon="5.03218">
        <ele>420</ele>
        <time>2020-02-07T14:32:04.000Z</time>
      </trkpt>
      <trkpt lat="44.74428" lon="5.03218">
        <ele>420</ele>
        <time>2020-02-07T14:32:05.000Z</time>
      </trkpt>
      <trkpt lat="44.74428" lon="5.03218">
        <ele>420</ele>
        <time>2020-02-07T14:32:06.000Z</time>
      </trkpt>
      <trkpt lat="44.74427" lon="5.03219">
        <ele>420</ele>
        <time>2020-02-07T14:32:07.000Z</time>
      </trkpt>
      <trkpt lat="44.74427" lon="5.03219">
        <ele>421</ele>
        <time>2020-02-07T14:32:08.000Z</time>
      </trkpt>
      <trkpt lat="44.74426" lon="5.03219">
        <ele>421</ele>
        <time>2020-02-07T14:32:09.000Z</time>
      </trkpt>
      <trkpt lat="44.74426" lon="5.03218">
        <ele>421</ele>
        <time>2020-02-07T14:32:10.000Z</time>
      </trkpt>
      <trkpt lat="44.74425" lon="5.03218">
        <ele>421</ele>
        <time>2020-02-07T14:32:11.000Z</time>
      </trkpt>
      <trkpt lat="44.74425" lon="5.03218">
        <ele>421</ele>
        <time>2020-02-07T14:32:12.000Z</time>
      </trkpt>
      <trkpt lat="44.74424" lon="5.03218">
        <ele>421</ele>
        <time>2020-02-07T14:32:13.000Z</time>
      </trkpt>
      <trkpt lat="44.74424" lon="5.03218">
        <ele>421</ele>
        <time>2020-02-07T14:32:14.000Z</time>
      </trkpt>
      <trkpt lat="44.74423" lon="5.03218">
        <ele>421</ele>
        <time>2020-02-07T14:32:15.000Z</time>
      </trkpt>
      <trkpt lat="44.74422" lon="5.03218">
        <ele>421</ele>
        <time>2020-02-07T14:32:16.000Z</time>
      </trkpt>
      <trkpt lat="44.74421" lon="5.03217">
        <ele>421</ele>
        <time>2020-02-07T14:32:17.000Z</time>
      </trkpt>
      <trkpt lat="44.7442" lon="5.03217">
        <ele>421</ele>
        <time>2020-02-07T14:32:18.000Z</time>
      </trkpt>
      <trkpt lat="44.74419" lon="5.03217">
        <ele>421</ele>
        <time>2020-02-07T14:32:19.000Z</time>
      </trkpt>
      <trkpt lat="44.74418" lon="5.03217">
        <ele>421</ele>
        <time>2020-02-07T14:32:20.000Z</time>
      </trkpt>
      <trkpt lat="44.74417" lon="5.03217">
        <ele>421</ele>
        <time>2020-02-07T14:32:21.000Z</time>
      </trkpt>
      <trkpt lat="44.74417" lon="5.03217">
        <ele>421</ele>
        <time>2020-02-07T14:32:22.000Z</time>
      </trkpt>
      <trkpt lat="44.74416" lon="5.03217">
        <ele>421</ele>
        <time>2020-02-07T14:32:23.000Z</time>
      </trkpt>
      <trkpt lat="44.74415" lon="5.03216">
        <ele>421</ele>
        <time>2020-02-07T14:32:24.000Z</time>
      </trkpt>
      <trkpt lat="44.74414" lon="5.03216">
        <ele>421</ele>
        <time>2020-02-07T14:32:25.000Z</time>
      </trkpt>
      <trkpt lat="44.74414" lon="5.03216">
        <ele>421</ele>
        <time>2020-02-07T14:32:26.000Z</time>
      </trkpt>
      <trkpt lat="44.74413" lon="5.03216">
        <ele>421</ele>
        <time>2020-02-07T14:32:27.000Z</time>
      </trkpt>
      <trkpt lat="44.74412" lon="5.03215">
        <ele>421</ele>
        <time>2020-02-07T14:32:28.000Z</time>
      </trkpt>
      <trkpt lat="44.74411" lon="5.03215">
        <ele>421</ele>
        <time>2020-02-07T14:32:29.000Z</time>
      </trkpt>
      <trkpt lat="44.74411" lon="5.03215">
        <ele>422</ele>
        <time>2020-02-07T14:32:30.000Z</time>
      </trkpt>
      <trkpt lat="44.7441" lon="5.03215">
        <ele>422</ele>
        <time>2020-02-07T14:32:31.000Z</time>
      </trkpt>
      <trkpt lat="44.7441" lon="5.03215">
        <ele>422</ele>
        <time>2020-02-07T14:32:32.000Z</time>
      </trkpt>
      <trkpt lat="44.74409" lon="5.03215">
        <ele>422</ele>
        <time>2020-02-07T14:32:33.000Z</time>
      </trkpt>
      <trkpt lat="44.74408" lon="5.03214">
        <ele>422</ele>
        <time>2020-02-07T14:32:34.000Z</time>
      </trkpt>
      <trkpt lat="44.74408" lon="5.03214">
        <ele>422</ele>
        <time>2020-02-07T14:32:35.000Z</time>
      </trkpt>
      <trkpt lat="44.74407" lon="5.03214">
        <ele>422</ele>
        <time>2020-02-07T14:32:36.000Z</time>
      </trkpt>
      <trkpt lat="44.74406" lon="5.03213">
        <ele>422</ele>
        <time>2020-02-07T14:32:37.000Z</time>
      </trkpt>
      <trkpt lat="44.74405" lon="5.03213">
        <ele>422</ele>
        <time>2020-02-07T14:32:38.000Z</time>
      </trkpt>
      <trkpt lat="44.74405" lon="5.03213">
        <ele>421</ele>
        <time>2020-02-07T14:32:39.000Z</time>
      </trkpt>
      <trkpt lat="44.74404" lon="5.03213">
        <ele>421</ele>
        <time>2020-02-07T14:32:40.000Z</time>
      </trkpt>
      <trkpt lat="44.74403" lon="5.03212">
        <ele>421</ele>
        <time>2020-02-07T14:32:41.000Z</time>
      </trkpt>
      <trkpt lat="44.74403" lon="5.03212">
        <ele>422</ele>
        <time>2020-02-07T14:32:42.000Z</time>
      </trkpt>
      <trkpt lat="44.74402" lon="5.03211">
        <ele>422</ele>
        <time>2020-02-07T14:32:43.000Z</time>
      </trkpt>
      <trkpt lat="44.74401" lon="5.03211">
        <ele>422</ele>
        <time>2020-02-07T14:32:44.000Z</time>
      </trkpt>
      <trkpt lat="44.74401" lon="5.03211">
        <ele>422</ele>
        <time>2020-02-07T14:32:45.000Z</time>
      </trkpt>
      <trkpt lat="44.744" lon="5.03211">
        <ele>422</ele>
        <time>2020-02-07T14:32:46.000Z</time>
      </trkpt>
      <trkpt lat="44.74399" lon="5.03211">
        <ele>422</ele>
        <time>2020-02-07T14:32:47.000Z</time>
      </trkpt>
      <trkpt lat="44.74398" lon="5.03211">
        <ele>422</ele>
        <time>2020-02-07T14:32:48.000Z</time>
      </trkpt>
      <trkpt lat="44.74398" lon="5.0321">
        <ele>421</ele>
        <time>2020-02-07T14:32:49.000Z</time>
      </trkpt>
      <trkpt lat="44.74398" lon="5.0321">
        <ele>421</ele>
        <time>2020-02-07T14:32:50.000Z</time>
      </trkpt>
      <trkpt lat="44.74397" lon="5.03209">
        <ele>421</ele>
        <time>2020-02-07T14:32:51.000Z</time>
      </trkpt>
      <trkpt lat="44.74396" lon="5.03209">
        <ele>421</ele>
        <time>2020-02-07T14:32:52.000Z</time>
      </trkpt>
      <trkpt lat="44.74396" lon="5.03208">
        <ele>421</ele>
        <time>2020-02-07T14:32:53.000Z</time>
      </trkpt>
      <trkpt lat="44.74395" lon="5.03207">
        <ele>421</ele>
        <time>2020-02-07T14:32:54.000Z</time>
      </trkpt>
      <trkpt lat="44.74394" lon="5.03207">
        <ele>421</ele>
        <time>2020-02-07T14:32:55.000Z</time>
      </trkpt>
      <trkpt lat="44.74393" lon="5.03207">
        <ele>421</ele>
        <time>2020-02-07T14:32:56.000Z</time>
      </trkpt>
      <trkpt lat="44.74392" lon="5.03207">
        <ele>421</ele>
        <time>2020-02-07T14:32:57.000Z</time>
      </trkpt>
      <trkpt lat="44.74391" lon="5.03206">
        <ele>420</ele>
        <time>2020-02-07T14:32:58.000Z</time>
      </trkpt>
      <trkpt lat="44.7439" lon="5.03206">
        <ele>420</ele>
        <time>2020-02-07T14:32:59.000Z</time>
      </trkpt>
      <trkpt lat="44.7439" lon="5.03206">
        <ele>420</ele>
        <time>2020-02-07T14:33:00.000Z</time>
      </trkpt>
      <trkpt lat="44.74389" lon="5.03206">
        <ele>420</ele>
        <time>2020-02-07T14:33:01.000Z</time>
      </trkpt>
      <trkpt lat="44.74388" lon="5.03205">
        <ele>420</ele>
        <time>2020-02-07T14:33:02.000Z</time>
      </trkpt>
      <trkpt lat="44.74387" lon="5.03205">
        <ele>420</ele>
        <time>2020-02-07T14:33:03.000Z</time>
      </trkpt>
      <trkpt lat="44.74386" lon="5.03205">
        <ele>420</ele>
        <time>2020-02-07T14:33:04.000Z</time>
      </trkpt>
      <trkpt lat="44.74385" lon="5.03204">
        <ele>420</ele>
        <time>2020-02-07T14:33:05.000Z</time>
      </trkpt>
      <trkpt lat="44.74385" lon="5.03204">
        <ele>420</ele>
        <time>2020-02-07T14:33:06.000Z</time>
      </trkpt>
      <trkpt lat="44.74384" lon="5.03203">
        <ele>419</ele>
        <time>2020-02-07T14:33:07.000Z</time>
      </trkpt>
      <trkpt lat="44.74383" lon="5.03203">
        <ele>419</ele>
        <time>2020-02-07T14:33:08.000Z</time>
      </trkpt>
      <trkpt lat="44.74382" lon="5.03203">
        <ele>419</ele>
        <time>2020-02-07T14:33:09.000Z</time>
      </trkpt>
      <trkpt lat="44.74381" lon="5.03203">
        <ele>419</ele>
        <time>2020-02-07T14:33:10.000Z</time>
      </trkpt>
      <trkpt lat="44.7438" lon="5.03203">
        <ele>419</ele>
        <time>2020-02-07T14:33:11.000Z</time>
      </trkpt>
      <trkpt lat="44.7438" lon="5.03203">
        <ele>419</ele>
        <time>2020-02-07T14:33:12.000Z</time>
      </trkpt>
      <trkpt lat="44.74379" lon="5.03204">
        <ele>419</ele>
        <time>2020-02-07T14:33:13.000Z</time>
      </trkpt>
      <trkpt lat="44.74378" lon="5.03203">
        <ele>419</ele>
        <time>2020-02-07T14:33:14.000Z</time>
      </trkpt>
      <trkpt lat="44.74377" lon="5.03203">
        <ele>419</ele>
        <time>2020-02-07T14:33:15.000Z</time>
      </trkpt>
      <trkpt lat="44.74377" lon="5.03203">
        <ele>419</ele>
        <time>2020-02-07T14:33:16.000Z</time>
      </trkpt>
      <trkpt lat="44.74376" lon="5.03203">
        <ele>419</ele>
        <time>2020-02-07T14:33:17.000Z</time>
      </trkpt>
      <trkpt lat="44.74375" lon="5.03203">
        <ele>419</ele>
        <time>2020-02-07T14:33:18.000Z</time>
      </trkpt>
      <trkpt lat="44.74375" lon="5.03202">
        <ele>418</ele>
        <time>2020-02-07T14:33:19.000Z</time>
      </trkpt>
      <trkpt lat="44.74375" lon="5.03201">
        <ele>418</ele>
        <time>2020-02-07T14:33:20.000Z</time>
      </trkpt>
      <trkpt lat="44.74375" lon="5.032">
        <ele>418</ele>
        <time>2020-02-07T14:33:21.000Z</time>
      </trkpt>
      <trkpt lat="44.74374" lon="5.03199">
        <ele>418</ele>
        <time>2020-02-07T14:33:22.000Z</time>
      </trkpt>
      <trkpt lat="44.74375" lon="5.03198">
        <ele>417</ele>
        <time>2020-02-07T14:33:23.000Z</time>
      </trkpt>
      <trkpt lat="44.74375" lon="5.03198">
        <ele>417</ele>
        <time>2020-02-07T14:33:24.000Z</time>
      </trkpt>
      <trkpt lat="44.74375" lon="5.03197">
        <ele>417</ele>
        <time>2020-02-07T14:33:25.000Z</time>
      </trkpt>
      <trkpt lat="44.74375" lon="5.03196">
        <ele>417</ele>
        <time>2020-02-07T14:33:26.000Z</time>
      </trkpt>
      <trkpt lat="44.74375" lon="5.03196">
        <ele>417</ele>
        <time>2020-02-07T14:33:27.000Z</time>
      </trkpt>
      <trkpt lat="44.74374" lon="5.03195">
        <ele>416</ele>
        <time>2020-02-07T14:33:28.000Z</time>
      </trkpt>
      <trkpt lat="44.74374" lon="5.03193">
        <ele>416</ele>
        <time>2020-02-07T14:33:29.000Z</time>
      </trkpt>
      <trkpt lat="44.74374" lon="5.03192">
        <ele>416</ele>
        <time>2020-02-07T14:33:30.000Z</time>
      </trkpt>
      <trkpt lat="44.74373" lon="5.03191">
        <ele>416</ele>
        <time>2020-02-07T14:33:31.000Z</time>
      </trkpt>
      <trkpt lat="44.74372" lon="5.0319">
        <ele>416</ele>
        <time>2020-02-07T14:33:32.000Z</time>
      </trkpt>
      <trkpt lat="44.74371" lon="5.0319">
        <ele>415</ele>
        <time>2020-02-07T14:33:33.000Z</time>
      </trkpt>
      <trkpt lat="44.7437" lon="5.03189">
        <ele>415</ele>
        <time>2020-02-07T14:33:34.000Z</time>
      </trkpt>
      <trkpt lat="44.74369" lon="5.03189">
        <ele>415</ele>
        <time>2020-02-07T14:33:35.000Z</time>
      </trkpt>
      <trkpt lat="44.74368" lon="5.03189">
        <ele>415</ele>
        <time>2020-02-07T14:33:36.000Z</time>
      </trkpt>
      <trkpt lat="44.74367" lon="5.03188">
        <ele>415</ele>
        <time>2020-02-07T14:33:37.000Z</time>
      </trkpt>
      <trkpt lat="44.74367" lon="5.03188">
        <ele>415</ele>
        <time>2020-02-07T14:33:38.000Z</time>
      </trkpt>
      <trkpt lat="44.74366" lon="5.03188">
        <ele>415</ele>
        <time>2020-02-07T14:33:39.000Z</time>
      </trkpt>
      <trkpt lat="44.74365" lon="5.03187">
        <ele>415</ele>
        <time>2020-02-07T14:33:40.000Z</time>
      </trkpt>
      <trkpt lat="44.74363" lon="5.03187">
        <ele>415</ele>
        <time>2020-02-07T14:33:41.000Z</time>
      </trkpt>
      <trkpt lat="44.74362" lon="5.03187">
        <ele>415</ele>
        <time>2020-02-07T14:33:42.000Z</time>
      </trkpt>
      <trkpt lat="44.74361" lon="5.03187">
        <ele>415</ele>
        <time>2020-02-07T14:33:43.000Z</time>
      </trkpt>
      <trkpt lat="44.7436" lon="5.03187">
        <ele>415</ele>
        <time>2020-02-07T14:33:44.000Z</time>
      </trkpt>
      <trkpt lat="44.7436" lon="5.03186">
        <ele>415</ele>
        <time>2020-02-07T14:33:45.000Z</time>
      </trkpt>
      <trkpt lat="44.74359" lon="5.03186">
        <ele>415</ele>
        <time>2020-02-07T14:33:46.000Z</time>
      </trkpt>
      <trkpt lat="44.74358" lon="5.03185">
        <ele>415</ele>
        <time>2020-02-07T14:33:47.000Z</time>
      </trkpt>
      <trkpt lat="44.74357" lon="5.03184">
        <ele>415</ele>
        <time>2020-02-07T14:33:48.000Z</time>
      </trkpt>
      <trkpt lat="44.74356" lon="5.03184">
        <ele>415</ele>
        <time>2020-02-07T14:33:49.000Z</time>
      </trkpt>
      <trkpt lat="44.74355" lon="5.03184">
        <ele>414</ele>
        <time>2020-02-07T14:33:50.000Z</time>
      </trkpt>
      <trkpt lat="44.74354" lon="5.03184">
        <ele>414</ele>
        <time>2020-02-07T14:33:51.000Z</time>
      </trkpt>
      <trkpt lat="44.74353" lon="5.03184">
        <ele>414</ele>
        <time>2020-02-07T14:33:52.000Z</time>
      </trkpt>
      <trkpt lat="44.74352" lon="5.03184">
        <ele>414</ele>
        <time>2020-02-07T14:33:53.000Z</time>
      </trkpt>
      <trkpt lat="44.74351" lon="5.03184">
        <ele>414</ele>
        <time>2020-02-07T14:33:54.000Z</time>
      </trkpt>
      <trkpt lat="44.7435" lon="5.03184">
        <ele>414</ele>
        <time>2020-02-07T14:33:55.000Z</time>
      </trkpt>
      <trkpt lat="44.74349" lon="5.03184">
        <ele>414</ele>
        <time>2020-02-07T14:33:56.000Z</time>
      </trkpt>
      <trkpt lat="44.74347" lon="5.03184">
        <ele>414</ele>
        <time>2020-02-07T14:33:57.000Z</time>
      </trkpt>
      <trkpt lat="44.74346" lon="5.03184">
        <ele>414</ele>
        <time>2020-02-07T14:33:58.000Z</time>
      </trkpt>
      <trkpt lat="44.74345" lon="5.03183">
        <ele>415</ele>
        <time>2020-02-07T14:33:59.000Z</time>
      </trkpt>
      <trkpt lat="44.74345" lon="5.03183">
        <ele>415</ele>
        <time>2020-02-07T14:34:00.000Z</time>
      </trkpt>
      <trkpt lat="44.74344" lon="5.03183">
        <ele>415</ele>
        <time>2020-02-07T14:34:01.000Z</time>
      </trkpt>
      <trkpt lat="44.74344" lon="5.03182">
        <ele>415</ele>
        <time>2020-02-07T14:34:02.000Z</time>
      </trkpt>
      <trkpt lat="44.74344" lon="5.03182">
        <ele>415</ele>
        <time>2020-02-07T14:34:03.000Z</time>
      </trkpt>
      <trkpt lat="44.74344" lon="5.03182">
        <ele>415</ele>
        <time>2020-02-07T14:34:04.000Z</time>
      </trkpt>
      <trkpt lat="44.74344" lon="5.03182">
        <ele>415</ele>
        <time>2020-02-07T14:34:05.000Z</time>
      </trkpt>
      <trkpt lat="44.74344" lon="5.03182">
        <ele>415</ele>
        <time>2020-02-07T14:34:06.000Z</time>
      </trkpt>
      <trkpt lat="44.74344" lon="5.03182">
        <ele>415</ele>
        <time>2020-02-07T14:34:07.000Z</time>
      </trkpt>
      <trkpt lat="44.74344" lon="5.03182">
        <ele>415</ele>
        <time>2020-02-07T14:34:08.000Z</time>
      </trkpt>
      <trkpt lat="44.74343" lon="5.03181">
        <ele>415</ele>
        <time>2020-02-07T14:34:09.000Z</time>
      </trkpt>
      <trkpt lat="44.74342" lon="5.0318">
        <ele>415</ele>
        <time>2020-02-07T14:34:10.000Z</time>
      </trkpt>
      <trkpt lat="44.74342" lon="5.0318">
        <ele>415</ele>
        <time>2020-02-07T14:34:11.000Z</time>
      </trkpt>
      <trkpt lat="44.74341" lon="5.03179">
        <ele>415</ele>
        <time>2020-02-07T14:34:12.000Z</time>
      </trkpt>
      <trkpt lat="44.7434" lon="5.03178">
        <ele>415</ele>
        <time>2020-02-07T14:34:13.000Z</time>
      </trkpt>
      <trkpt lat="44.74339" lon="5.03178">
        <ele>415</ele>
        <time>2020-02-07T14:34:14.000Z</time>
      </trkpt>
      <trkpt lat="44.74338" lon="5.03178">
        <ele>415</ele>
        <time>2020-02-07T14:34:15.000Z</time>
      </trkpt>
      <trkpt lat="44.74337" lon="5.03177">
        <ele>415</ele>
        <time>2020-02-07T14:34:16.000Z</time>
      </trkpt>
      <trkpt lat="44.74336" lon="5.03176">
        <ele>415</ele>
        <time>2020-02-07T14:34:17.000Z</time>
      </trkpt>
      <trkpt lat="44.74335" lon="5.03175">
        <ele>415</ele>
        <time>2020-02-07T14:34:18.000Z</time>
      </trkpt>
      <trkpt lat="44.74334" lon="5.03174">
        <ele>415</ele>
        <time>2020-02-07T14:34:19.000Z</time>
      </trkpt>
      <trkpt lat="44.74333" lon="5.03174">
        <ele>415</ele>
        <time>2020-02-07T14:34:20.000Z</time>
      </trkpt>
      <trkpt lat="44.74333" lon="5.03173">
        <ele>415</ele>
        <time>2020-02-07T14:34:21.000Z</time>
      </trkpt>
      <trkpt lat="44.74332" lon="5.03172">
        <ele>415</ele>
        <time>2020-02-07T14:34:22.000Z</time>
      </trkpt>
      <trkpt lat="44.74331" lon="5.03172">
        <ele>415</ele>
        <time>2020-02-07T14:34:23.000Z</time>
      </trkpt>
      <trkpt lat="44.7433" lon="5.03171">
        <ele>415</ele>
        <time>2020-02-07T14:34:24.000Z</time>
      </trkpt>
      <trkpt lat="44.74329" lon="5.03171">
        <ele>415</ele>
        <time>2020-02-07T14:34:25.000Z</time>
      </trkpt>
      <trkpt lat="44.74329" lon="5.03171">
        <ele>415</ele>
        <time>2020-02-07T14:34:26.000Z</time>
      </trkpt>
      <trkpt lat="44.74328" lon="5.03172">
        <ele>415</ele>
        <time>2020-02-07T14:34:27.000Z</time>
      </trkpt>
      <trkpt lat="44.74327" lon="5.03172">
        <ele>415</ele>
        <time>2020-02-07T14:34:28.000Z</time>
      </trkpt>
      <trkpt lat="44.74326" lon="5.03173">
        <ele>415</ele>
        <time>2020-02-07T14:34:29.000Z</time>
      </trkpt>
      <trkpt lat="44.74325" lon="5.03173">
        <ele>415</ele>
        <time>2020-02-07T14:34:30.000Z</time>
      </trkpt>
      <trkpt lat="44.74324" lon="5.03173">
        <ele>415</ele>
        <time>2020-02-07T14:34:31.000Z</time>
      </trkpt>
      <trkpt lat="44.74324" lon="5.03173">
        <ele>415</ele>
        <time>2020-02-07T14:34:32.000Z</time>
      </trkpt>
      <trkpt lat="44.74323" lon="5.03173">
        <ele>415</ele>
        <time>2020-02-07T14:34:33.000Z</time>
      </trkpt>
      <trkpt lat="44.74322" lon="5.03172">
        <ele>415</ele>
        <time>2020-02-07T14:34:34.000Z</time>
      </trkpt>
      <trkpt lat="44.74321" lon="5.03172">
        <ele>415</ele>
        <time>2020-02-07T14:34:35.000Z</time>
      </trkpt>
      <trkpt lat="44.7432" lon="5.03172">
        <ele>415</ele>
        <time>2020-02-07T14:34:36.000Z</time>
      </trkpt>
      <trkpt lat="44.7432" lon="5.03172">
        <ele>415</ele>
        <time>2020-02-07T14:34:37.000Z</time>
      </trkpt>
      <trkpt lat="44.74319" lon="5.03172">
        <ele>415</ele>
        <time>2020-02-07T14:34:38.000Z</time>
      </trkpt>
      <trkpt lat="44.74318" lon="5.03172">
        <ele>416</ele>
        <time>2020-02-07T14:34:39.000Z</time>
      </trkpt>
      <trkpt lat="44.74317" lon="5.03172">
        <ele>416</ele>
        <time>2020-02-07T14:34:40.000Z</time>
      </trkpt>
      <trkpt lat="44.74317" lon="5.03172">
        <ele>416</ele>
        <time>2020-02-07T14:34:41.000Z</time>
      </trkpt>
      <trkpt lat="44.74316" lon="5.03172">
        <ele>416</ele>
        <time>2020-02-07T14:34:42.000Z</time>
      </trkpt>
      <trkpt lat="44.74316" lon="5.03172">
        <ele>416</ele>
        <time>2020-02-07T14:34:43.000Z</time>
      </trkpt>
      <trkpt lat="44.74316" lon="5.03172">
        <ele>416</ele>
        <time>2020-02-07T14:34:44.000Z</time>
      </trkpt>
      <trkpt lat="44.74316" lon="5.03172">
        <ele>416</ele>
        <time>2020-02-07T14:34:45.000Z</time>
      </trkpt>
      <trkpt lat="44.74316" lon="5.03172">
        <ele>416</ele>
        <time>2020-02-07T14:34:46.000Z</time>
      </trkpt>
      <trkpt lat="44.74316" lon="5.03172">
        <ele>416</ele>
        <time>2020-02-07T14:34:47.000Z</time>
      </trkpt>
      <trkpt lat="44.74316" lon="5.03171">
        <ele>416</ele>
        <time>2020-02-07T14:34:48.000Z</time>
      </trkpt>
      <trkpt lat="44.74316" lon="5.03171">
        <ele>416</ele>
        <time>2020-02-07T14:34:49.000Z</time>
      </trkpt>
      <trkpt lat="44.74316" lon="5.03171">
        <ele>416</ele>
        <time>2020-02-07T14:34:50.000Z</time>
      </trkpt>
      <trkpt lat="44.74316" lon="5.03171">
        <ele>416</ele>
        <time>2020-02-07T14:34:51.000Z</time>
      </trkpt>
      <trkpt lat="44.74316" lon="5.03171">
        <ele>416</ele>
        <time>2020-02-07T14:34:52.000Z</time>
      </trkpt>
      <trkpt lat="44.74316" lon="5.03171">
        <ele>415</ele>
        <time>2020-02-07T14:34:53.000Z</time>
      </trkpt>
      <trkpt lat="44.74316" lon="5.03171">
        <ele>415</ele>
        <time>2020-02-07T14:34:54.000Z</time>
      </trkpt>
      <trkpt lat="44.74316" lon="5.0317">
        <ele>415</ele>
        <time>2020-02-07T14:34:55.000Z</time>
      </trkpt>
      <trkpt lat="44.74317" lon="5.0317">
        <ele>415</ele>
        <time>2020-02-07T14:34:56.000Z</time>
      </trkpt>
      <trkpt lat="44.74317" lon="5.0317">
        <ele>415</ele>
        <time>2020-02-07T14:34:57.000Z</time>
      </trkpt>
      <trkpt lat="44.74317" lon="5.0317">
        <ele>415</ele>
        <time>2020-02-07T14:34:58.000Z</time>
      </trkpt>
      <trkpt lat="44.74317" lon="5.0317">
        <ele>415</ele>
        <time>2020-02-07T14:34:59.000Z</time>
      </trkpt>
      <trkpt lat="44.74317" lon="5.0317">
        <ele>415</ele>
        <time>2020-02-07T14:35:00.000Z</time>
      </trkpt>
      <trkpt lat="44.74317" lon="5.03169">
        <ele>415</ele>
        <time>2020-02-07T14:35:01.000Z</time>
      </trkpt>
      <trkpt lat="44.74317" lon="5.03169">
        <ele>415</ele>
        <time>2020-02-07T14:35:02.000Z</time>
      </trkpt>
      <trkpt lat="44.74317" lon="5.03169">
        <ele>415</ele>
        <time>2020-02-07T14:35:03.000Z</time>
      </trkpt>
      <trkpt lat="44.74317" lon="5.03169">
        <ele>415</ele>
        <time>2020-02-07T14:35:04.000Z</time>
      </trkpt>
      <trkpt lat="44.74317" lon="5.03169">
        <ele>415</ele>
        <time>2020-02-07T14:35:05.000Z</time>
      </trkpt>
      <trkpt lat="44.74317" lon="5.03169">
        <ele>415</ele>
        <time>2020-02-07T14:35:06.000Z</time>
      </trkpt>
      <trkpt lat="44.74317" lon="5.03169">
        <ele>415</ele>
        <time>2020-02-07T14:35:07.000Z</time>
      </trkpt>
      <trkpt lat="44.74317" lon="5.03169">
        <ele>415</ele>
        <time>2020-02-07T14:35:08.000Z</time>
      </trkpt>
      <trkpt lat="44.74317" lon="5.03169">
        <ele>415</ele>
        <time>2020-02-07T14:35:09.000Z</time>
      </trkpt>
      <trkpt lat="44.74317" lon="5.03168">
        <ele>415</ele>
        <time>2020-02-07T14:35:10.000Z</time>
      </trkpt>
      <trkpt lat="44.74317" lon="5.03168">
        <ele>415</ele>
        <time>2020-02-07T14:35:11.000Z</time>
      </trkpt>
      <trkpt lat="44.74317" lon="5.03168">
        <ele>415</ele>
        <time>2020-02-07T14:35:12.000Z</time>
      </trkpt>
      <trkpt lat="44.74317" lon="5.03168">
        <ele>414</ele>
        <time>2020-02-07T14:35:13.000Z</time>
      </trkpt>
      <trkpt lat="44.74317" lon="5.03168">
        <ele>414</ele>
        <time>2020-02-07T14:35:14.000Z</time>
      </trkpt>
      <trkpt lat="44.74317" lon="5.03168">
        <ele>414</ele>
        <time>2020-02-07T14:35:15.000Z</time>
      </trkpt>
      <trkpt lat="44.74317" lon="5.03168">
        <ele>414</ele>
        <time>2020-02-07T14:35:16.000Z</time>
      </trkpt>
      <trkpt lat="44.74317" lon="5.03168">
        <ele>414</ele>
        <time>2020-02-07T14:35:17.000Z</time>
      </trkpt>
      <trkpt lat="44.74317" lon="5.03168">
        <ele>414</ele>
        <time>2020-02-07T14:35:18.000Z</time>
      </trkpt>
      <trkpt lat="44.74317" lon="5.03168">
        <ele>414</ele>
        <time>2020-02-07T14:35:19.000Z</time>
      </trkpt>
      <trkpt lat="44.74317" lon="5.03168">
        <ele>414</ele>
        <time>2020-02-07T14:35:20.000Z</time>
      </trkpt>
      <trkpt lat="44.74317" lon="5.03168">
        <ele>414</ele>
        <time>2020-02-07T14:35:21.000Z</time>
      </trkpt>
      <trkpt lat="44.74317" lon="5.03168">
        <ele>414</ele>
        <time>2020-02-07T14:35:22.000Z</time>
      </trkpt>
      <trkpt lat="44.74317" lon="5.03168">
        <ele>414</ele>
        <time>2020-02-07T14:35:23.000Z</time>
      </trkpt>
      <trkpt lat="44.74317" lon="5.03168">
        <ele>414</ele>
        <time>2020-02-07T14:35:24.000Z</time>
      </trkpt>
      <trkpt lat="44.74317" lon="5.03168">
        <ele>414</ele>
        <time>2020-02-07T14:35:25.000Z</time>
      </trkpt>
      <trkpt lat="44.74317" lon="5.03168">
        <ele>414</ele>
        <time>2020-02-07T14:35:26.000Z</time>
      </trkpt>
      <trkpt lat="44.74317" lon="5.03168">
        <ele>414</ele>
        <time>2020-02-07T14:35:27.000Z</time>
      </trkpt>
      <trkpt lat="44.74317" lon="5.03168">
        <ele>414</ele>
        <time>2020-02-07T14:35:28.000Z</time>
      </trkpt>
      <trkpt lat="44.74317" lon="5.03167">
        <ele>414</ele>
        <time>2020-02-07T14:35:29.000Z</time>
      </trkpt>
      <trkpt lat="44.74317" lon="5.03167">
        <ele>414</ele>
        <time>2020-02-07T14:35:30.000Z</time>
      </trkpt>
      <trkpt lat="44.74316" lon="5.03167">
        <ele>414</ele>
        <time>2020-02-07T14:35:31.000Z</time>
      </trkpt>
      <trkpt lat="44.74315" lon="5.03167">
        <ele>414</ele>
        <time>2020-02-07T14:35:32.000Z</time>
      </trkpt>
      <trkpt lat="44.74315" lon="5.03166">
        <ele>414</ele>
        <time>2020-02-07T14:35:33.000Z</time>
      </trkpt>
      <trkpt lat="44.74315" lon="5.03166">
        <ele>414</ele>
        <time>2020-02-07T14:35:34.000Z</time>
      </trkpt>
      <trkpt lat="44.74315" lon="5.03165">
        <ele>414</ele>
        <time>2020-02-07T14:35:35.000Z</time>
      </trkpt>
      <trkpt lat="44.74315" lon="5.03165">
        <ele>414</ele>
        <time>2020-02-07T14:35:36.000Z</time>
      </trkpt>
      <trkpt lat="44.74315" lon="5.03164">
        <ele>414</ele>
        <time>2020-02-07T14:35:37.000Z</time>
      </trkpt>
      <trkpt lat="44.74315" lon="5.03164">
        <ele>414</ele>
        <time>2020-02-07T14:35:38.000Z</time>
      </trkpt>
      <trkpt lat="44.74316" lon="5.03164">
        <ele>414</ele>
        <time>2020-02-07T14:35:39.000Z</time>
      </trkpt>
      <trkpt lat="44.74316" lon="5.03164">
        <ele>414</ele>
        <time>2020-02-07T14:35:40.000Z</time>
      </trkpt>
      <trkpt lat="44.74316" lon="5.03164">
        <ele>414</ele>
        <time>2020-02-07T14:35:41.000Z</time>
      </trkpt>
      <trkpt lat="44.74316" lon="5.03164">
        <ele>414</ele>
        <time>2020-02-07T14:35:42.000Z</time>
      </trkpt>
      <trkpt lat="44.74315" lon="5.03164">
        <ele>413</ele>
        <time>2020-02-07T14:35:43.000Z</time>
      </trkpt>
      <trkpt lat="44.74315" lon="5.03164">
        <ele>413</ele>
        <time>2020-02-07T14:35:44.000Z</time>
      </trkpt>
      <trkpt lat="44.74315" lon="5.03164">
        <ele>413</ele>
        <time>2020-02-07T14:35:45.000Z</time>
      </trkpt>
      <trkpt lat="44.74315" lon="5.03165">
        <ele>413</ele>
        <time>2020-02-07T14:35:46.000Z</time>
      </trkpt>
      <trkpt lat="44.74315" lon="5.03164">
        <ele>413</ele>
        <time>2020-02-07T14:35:47.000Z</time>
      </trkpt>
      <trkpt lat="44.74314" lon="5.03163">
        <ele>414</ele>
        <time>2020-02-07T14:35:48.000Z</time>
      </trkpt>
      <trkpt lat="44.74313" lon="5.03162">
        <ele>414</ele>
        <time>2020-02-07T14:35:49.000Z</time>
      </trkpt>
      <trkpt lat="44.74312" lon="5.03161">
        <ele>414</ele>
        <time>2020-02-07T14:35:50.000Z</time>
      </trkpt>
      <trkpt lat="44.74312" lon="5.03161">
        <ele>414</ele>
        <time>2020-02-07T14:35:51.000Z</time>
      </trkpt>
      <trkpt lat="44.74311" lon="5.0316">
        <ele>414</ele>
        <time>2020-02-07T14:35:52.000Z</time>
      </trkpt>
      <trkpt lat="44.74311" lon="5.03159">
        <ele>414</ele>
        <time>2020-02-07T14:35:53.000Z</time>
      </trkpt>
      <trkpt lat="44.7431" lon="5.03158">
        <ele>414</ele>
        <time>2020-02-07T14:35:54.000Z</time>
      </trkpt>
      <trkpt lat="44.74309" lon="5.03158">
        <ele>414</ele>
        <time>2020-02-07T14:35:55.000Z</time>
      </trkpt>
      <trkpt lat="44.74308" lon="5.03157">
        <ele>414</ele>
        <time>2020-02-07T14:35:56.000Z</time>
      </trkpt>
      <trkpt lat="44.74307" lon="5.03157">
        <ele>414</ele>
        <time>2020-02-07T14:35:57.000Z</time>
      </trkpt>
      <trkpt lat="44.74307" lon="5.03156">
        <ele>414</ele>
        <time>2020-02-07T14:35:58.000Z</time>
      </trkpt>
      <trkpt lat="44.74306" lon="5.03155">
        <ele>414</ele>
        <time>2020-02-07T14:35:59.000Z</time>
      </trkpt>
      <trkpt lat="44.74305" lon="5.03155">
        <ele>414</ele>
        <time>2020-02-07T14:36:00.000Z</time>
      </trkpt>
      <trkpt lat="44.74304" lon="5.03154">
        <ele>414</ele>
        <time>2020-02-07T14:36:01.000Z</time>
      </trkpt>
      <trkpt lat="44.74303" lon="5.03154">
        <ele>414</ele>
        <time>2020-02-07T14:36:02.000Z</time>
      </trkpt>
      <trkpt lat="44.74302" lon="5.03154">
        <ele>414</ele>
        <time>2020-02-07T14:36:03.000Z</time>
      </trkpt>
      <trkpt lat="44.74301" lon="5.03153">
        <ele>414</ele>
        <time>2020-02-07T14:36:04.000Z</time>
      </trkpt>
      <trkpt lat="44.743" lon="5.03152">
        <ele>414</ele>
        <time>2020-02-07T14:36:05.000Z</time>
      </trkpt>
      <trkpt lat="44.74299" lon="5.03152">
        <ele>414</ele>
        <time>2020-02-07T14:36:06.000Z</time>
      </trkpt>
      <trkpt lat="44.74299" lon="5.03151">
        <ele>414</ele>
        <time>2020-02-07T14:36:07.000Z</time>
      </trkpt>
      <trkpt lat="44.74298" lon="5.0315">
        <ele>414</ele>
        <time>2020-02-07T14:36:08.000Z</time>
      </trkpt>
      <trkpt lat="44.74297" lon="5.03149">
        <ele>414</ele>
        <time>2020-02-07T14:36:09.000Z</time>
      </trkpt>
      <trkpt lat="44.74296" lon="5.03148">
        <ele>414</ele>
        <time>2020-02-07T14:36:10.000Z</time>
      </trkpt>
      <trkpt lat="44.74295" lon="5.03148">
        <ele>414</ele>
        <time>2020-02-07T14:36:11.000Z</time>
      </trkpt>
      <trkpt lat="44.74294" lon="5.03147">
        <ele>414</ele>
        <time>2020-02-07T14:36:12.000Z</time>
      </trkpt>
      <trkpt lat="44.74293" lon="5.03147">
        <ele>414</ele>
        <time>2020-02-07T14:36:13.000Z</time>
      </trkpt>
      <trkpt lat="44.74293" lon="5.03147">
        <ele>414</ele>
        <time>2020-02-07T14:36:14.000Z</time>
      </trkpt>
      <trkpt lat="44.74292" lon="5.03147">
        <ele>414</ele>
        <time>2020-02-07T14:36:15.000Z</time>
      </trkpt>
      <trkpt lat="44.74292" lon="5.03147">
        <ele>414</ele>
        <time>2020-02-07T14:36:16.000Z</time>
      </trkpt>
      <trkpt lat="44.74291" lon="5.03147">
        <ele>414</ele>
        <time>2020-02-07T14:36:17.000Z</time>
      </trkpt>
      <trkpt lat="44.74289" lon="5.03146">
        <ele>414</ele>
        <time>2020-02-07T14:36:18.000Z</time>
      </trkpt>
      <trkpt lat="44.74288" lon="5.03146">
        <ele>414</ele>
        <time>2020-02-07T14:36:19.000Z</time>
      </trkpt>
      <trkpt lat="44.74287" lon="5.03146">
        <ele>414</ele>
        <time>2020-02-07T14:36:20.000Z</time>
      </trkpt>
      <trkpt lat="44.74286" lon="5.03145">
        <ele>414</ele>
        <time>2020-02-07T14:36:21.000Z</time>
      </trkpt>
      <trkpt lat="44.74285" lon="5.03145">
        <ele>414</ele>
        <time>2020-02-07T14:36:22.000Z</time>
      </trkpt>
      <trkpt lat="44.74285" lon="5.03144">
        <ele>414</ele>
        <time>2020-02-07T14:36:23.000Z</time>
      </trkpt>
      <trkpt lat="44.74284" lon="5.03144">
        <ele>414</ele>
        <time>2020-02-07T14:36:24.000Z</time>
      </trkpt>
      <trkpt lat="44.74283" lon="5.03144">
        <ele>414</ele>
        <time>2020-02-07T14:36:25.000Z</time>
      </trkpt>
      <trkpt lat="44.74282" lon="5.03144">
        <ele>414</ele>
        <time>2020-02-07T14:36:26.000Z</time>
      </trkpt>
      <trkpt lat="44.74281" lon="5.03144">
        <ele>414</ele>
        <time>2020-02-07T14:36:27.000Z</time>
      </trkpt>
      <trkpt lat="44.74279" lon="5.03144">
        <ele>413</ele>
        <time>2020-02-07T14:36:28.000Z</time>
      </trkpt>
      <trkpt lat="44.74278" lon="5.03144">
        <ele>413</ele>
        <time>2020-02-07T14:36:29.000Z</time>
      </trkpt>
      <trkpt lat="44.74278" lon="5.03144">
        <ele>413</ele>
        <time>2020-02-07T14:36:30.000Z</time>
      </trkpt>
      <trkpt lat="44.74277" lon="5.03143">
        <ele>413</ele>
        <time>2020-02-07T14:36:31.000Z</time>
      </trkpt>
      <trkpt lat="44.74276" lon="5.03142">
        <ele>413</ele>
        <time>2020-02-07T14:36:32.000Z</time>
      </trkpt>
      <trkpt lat="44.74275" lon="5.03141">
        <ele>413</ele>
        <time>2020-02-07T14:36:33.000Z</time>
      </trkpt>
      <trkpt lat="44.74274" lon="5.03141">
        <ele>413</ele>
        <time>2020-02-07T14:36:34.000Z</time>
      </trkpt>
      <trkpt lat="44.74273" lon="5.0314">
        <ele>413</ele>
        <time>2020-02-07T14:36:35.000Z</time>
      </trkpt>
      <trkpt lat="44.74272" lon="5.0314">
        <ele>413</ele>
        <time>2020-02-07T14:36:36.000Z</time>
      </trkpt>
      <trkpt lat="44.74272" lon="5.0314">
        <ele>413</ele>
        <time>2020-02-07T14:36:37.000Z</time>
      </trkpt>
      <trkpt lat="44.74271" lon="5.0314">
        <ele>413</ele>
        <time>2020-02-07T14:36:38.000Z</time>
      </trkpt>
      <trkpt lat="44.74271" lon="5.03141">
        <ele>413</ele>
        <time>2020-02-07T14:36:39.000Z</time>
      </trkpt>
      <trkpt lat="44.7427" lon="5.03141">
        <ele>413</ele>
        <time>2020-02-07T14:36:40.000Z</time>
      </trkpt>
      <trkpt lat="44.74269" lon="5.03141">
        <ele>413</ele>
        <time>2020-02-07T14:36:41.000Z</time>
      </trkpt>
      <trkpt lat="44.74268" lon="5.03142">
        <ele>413</ele>
        <time>2020-02-07T14:36:42.000Z</time>
      </trkpt>
      <trkpt lat="44.74268" lon="5.03142">
        <ele>413</ele>
        <time>2020-02-07T14:36:43.000Z</time>
      </trkpt>
      <trkpt lat="44.74267" lon="5.03141">
        <ele>413</ele>
        <time>2020-02-07T14:36:44.000Z</time>
      </trkpt>
      <trkpt lat="44.74266" lon="5.03141">
        <ele>413</ele>
        <time>2020-02-07T14:36:45.000Z</time>
      </trkpt>
      <trkpt lat="44.74265" lon="5.0314">
        <ele>413</ele>
        <time>2020-02-07T14:36:46.000Z</time>
      </trkpt>
      <trkpt lat="44.74264" lon="5.0314">
        <ele>413</ele>
        <time>2020-02-07T14:36:47.000Z</time>
      </trkpt>
      <trkpt lat="44.74263" lon="5.0314">
        <ele>413</ele>
        <time>2020-02-07T14:36:48.000Z</time>
      </trkpt>
      <trkpt lat="44.74262" lon="5.0314">
        <ele>413</ele>
        <time>2020-02-07T14:36:49.000Z</time>
      </trkpt>
      <trkpt lat="44.74261" lon="5.0314">
        <ele>413</ele>
        <time>2020-02-07T14:36:50.000Z</time>
      </trkpt>
      <trkpt lat="44.7426" lon="5.0314">
        <ele>413</ele>
        <time>2020-02-07T14:36:51.000Z</time>
      </trkpt>
      <trkpt lat="44.74259" lon="5.03139">
        <ele>413</ele>
        <time>2020-02-07T14:36:52.000Z</time>
      </trkpt>
      <trkpt lat="44.74258" lon="5.03139">
        <ele>413</ele>
        <time>2020-02-07T14:36:53.000Z</time>
      </trkpt>
      <trkpt lat="44.74257" lon="5.03138">
        <ele>413</ele>
        <time>2020-02-07T14:36:54.000Z</time>
      </trkpt>
      <trkpt lat="44.74256" lon="5.03138">
        <ele>413</ele>
        <time>2020-02-07T14:36:55.000Z</time>
      </trkpt>
      <trkpt lat="44.74255" lon="5.03138">
        <ele>413</ele>
        <time>2020-02-07T14:36:56.000Z</time>
      </trkpt>
      <trkpt lat="44.74254" lon="5.03137">
        <ele>413</ele>
        <time>2020-02-07T14:36:57.000Z</time>
      </trkpt>
      <trkpt lat="44.74253" lon="5.03137">
        <ele>413</ele>
        <time>2020-02-07T14:36:58.000Z</time>
      </trkpt>
      <trkpt lat="44.74252" lon="5.03137">
        <ele>413</ele>
        <time>2020-02-07T14:36:59.000Z</time>
      </trkpt>
      <trkpt lat="44.74251" lon="5.03136">
        <ele>413</ele>
        <time>2020-02-07T14:37:00.000Z</time>
      </trkpt>
      <trkpt lat="44.7425" lon="5.03136">
        <ele>413</ele>
        <time>2020-02-07T14:37:01.000Z</time>
      </trkpt>
      <trkpt lat="44.74249" lon="5.03135">
        <ele>412</ele>
        <time>2020-02-07T14:37:02.000Z</time>
      </trkpt>
      <trkpt lat="44.74248" lon="5.03134">
        <ele>412</ele>
        <time>2020-02-07T14:37:03.000Z</time>
      </trkpt>
      <trkpt lat="44.74247" lon="5.03134">
        <ele>412</ele>
        <time>2020-02-07T14:37:04.000Z</time>
      </trkpt>
      <trkpt lat="44.74246" lon="5.03134">
        <ele>412</ele>
        <time>2020-02-07T14:37:05.000Z</time>
      </trkpt>
      <trkpt lat="44.74245" lon="5.03133">
        <ele>412</ele>
        <time>2020-02-07T14:37:06.000Z</time>
      </trkpt>
      <trkpt lat="44.74245" lon="5.03133">
        <ele>412</ele>
        <time>2020-02-07T14:37:07.000Z</time>
      </trkpt>
      <trkpt lat="44.74244" lon="5.03132">
        <ele>412</ele>
        <time>2020-02-07T14:37:08.000Z</time>
      </trkpt>
      <trkpt lat="44.74243" lon="5.03132">
        <ele>412</ele>
        <time>2020-02-07T14:37:09.000Z</time>
      </trkpt>
      <trkpt lat="44.74242" lon="5.03131">
        <ele>411</ele>
        <time>2020-02-07T14:37:10.000Z</time>
      </trkpt>
      <trkpt lat="44.74242" lon="5.03131">
        <ele>411</ele>
        <time>2020-02-07T14:37:11.000Z</time>
      </trkpt>
      <trkpt lat="44.74241" lon="5.0313">
        <ele>411</ele>
        <time>2020-02-07T14:37:12.000Z</time>
      </trkpt>
      <trkpt lat="44.7424" lon="5.0313">
        <ele>411</ele>
        <time>2020-02-07T14:37:13.000Z</time>
      </trkpt>
      <trkpt lat="44.74239" lon="5.0313">
        <ele>411</ele>
        <time>2020-02-07T14:37:14.000Z</time>
      </trkpt>
      <trkpt lat="44.74238" lon="5.0313">
        <ele>411</ele>
        <time>2020-02-07T14:37:15.000Z</time>
      </trkpt>
      <trkpt lat="44.74238" lon="5.0313">
        <ele>411</ele>
        <time>2020-02-07T14:37:16.000Z</time>
      </trkpt>
      <trkpt lat="44.74237" lon="5.0313">
        <ele>411</ele>
        <time>2020-02-07T14:37:17.000Z</time>
      </trkpt>
      <trkpt lat="44.74236" lon="5.0313">
        <ele>411</ele>
        <time>2020-02-07T14:37:18.000Z</time>
      </trkpt>
      <trkpt lat="44.74235" lon="5.0313">
        <ele>411</ele>
        <time>2020-02-07T14:37:19.000Z</time>
      </trkpt>
      <trkpt lat="44.74234" lon="5.0313">
        <ele>410</ele>
        <time>2020-02-07T14:37:20.000Z</time>
      </trkpt>
      <trkpt lat="44.74233" lon="5.0313">
        <ele>410</ele>
        <time>2020-02-07T14:37:21.000Z</time>
      </trkpt>
      <trkpt lat="44.74232" lon="5.03129">
        <ele>410</ele>
        <time>2020-02-07T14:37:22.000Z</time>
      </trkpt>
      <trkpt lat="44.74232" lon="5.03129">
        <ele>410</ele>
        <time>2020-02-07T14:37:23.000Z</time>
      </trkpt>
      <trkpt lat="44.74231" lon="5.03128">
        <ele>410</ele>
        <time>2020-02-07T14:37:24.000Z</time>
      </trkpt>
      <trkpt lat="44.7423" lon="5.03128">
        <ele>409</ele>
        <time>2020-02-07T14:37:25.000Z</time>
      </trkpt>
      <trkpt lat="44.74229" lon="5.03128">
        <ele>409</ele>
        <time>2020-02-07T14:37:26.000Z</time>
      </trkpt>
      <trkpt lat="44.74228" lon="5.03128">
        <ele>409</ele>
        <time>2020-02-07T14:37:27.000Z</time>
      </trkpt>
      <trkpt lat="44.74227" lon="5.03128">
        <ele>409</ele>
        <time>2020-02-07T14:37:28.000Z</time>
      </trkpt>
      <trkpt lat="44.74226" lon="5.03128">
        <ele>409</ele>
        <time>2020-02-07T14:37:29.000Z</time>
      </trkpt>
      <trkpt lat="44.74226" lon="5.03128">
        <ele>408</ele>
        <time>2020-02-07T14:37:30.000Z</time>
      </trkpt>
      <trkpt lat="44.74225" lon="5.03128">
        <ele>408</ele>
        <time>2020-02-07T14:37:31.000Z</time>
      </trkpt>
      <trkpt lat="44.74224" lon="5.03129">
        <ele>408</ele>
        <time>2020-02-07T14:37:32.000Z</time>
      </trkpt>
      <trkpt lat="44.74223" lon="5.03129">
        <ele>408</ele>
        <time>2020-02-07T14:37:33.000Z</time>
      </trkpt>
      <trkpt lat="44.74222" lon="5.03129">
        <ele>408</ele>
        <time>2020-02-07T14:37:34.000Z</time>
      </trkpt>
      <trkpt lat="44.74221" lon="5.0313">
        <ele>408</ele>
        <time>2020-02-07T14:37:35.000Z</time>
      </trkpt>
      <trkpt lat="44.7422" lon="5.0313">
        <ele>408</ele>
        <time>2020-02-07T14:37:36.000Z</time>
      </trkpt>
      <trkpt lat="44.74219" lon="5.0313">
        <ele>408</ele>
        <time>2020-02-07T14:37:37.000Z</time>
      </trkpt>
      <trkpt lat="44.74219" lon="5.0313">
        <ele>408</ele>
        <time>2020-02-07T14:37:38.000Z</time>
      </trkpt>
      <trkpt lat="44.74219" lon="5.0313">
        <ele>408</ele>
        <time>2020-02-07T14:37:39.000Z</time>
      </trkpt>
      <trkpt lat="44.74219" lon="5.0313">
        <ele>408</ele>
        <time>2020-02-07T14:37:40.000Z</time>
      </trkpt>
      <trkpt lat="44.74219" lon="5.03129">
        <ele>408</ele>
        <time>2020-02-07T14:37:41.000Z</time>
      </trkpt>
      <trkpt lat="44.74219" lon="5.03129">
        <ele>407</ele>
        <time>2020-02-07T14:37:42.000Z</time>
      </trkpt>
      <trkpt lat="44.74219" lon="5.03129">
        <ele>407</ele>
        <time>2020-02-07T14:37:43.000Z</time>
      </trkpt>
      <trkpt lat="44.74219" lon="5.03129">
        <ele>407</ele>
        <time>2020-02-07T14:37:44.000Z</time>
      </trkpt>
      <trkpt lat="44.74219" lon="5.03129">
        <ele>407</ele>
        <time>2020-02-07T14:37:45.000Z</time>
      </trkpt>
      <trkpt lat="44.74219" lon="5.03129">
        <ele>407</ele>
        <time>2020-02-07T14:37:46.000Z</time>
      </trkpt>
      <trkpt lat="44.74219" lon="5.03129">
        <ele>407</ele>
        <time>2020-02-07T14:37:47.000Z</time>
      </trkpt>
      <trkpt lat="44.74219" lon="5.03129">
        <ele>407</ele>
        <time>2020-02-07T14:37:48.000Z</time>
      </trkpt>
      <trkpt lat="44.74219" lon="5.03128">
        <ele>407</ele>
        <time>2020-02-07T14:37:49.000Z</time>
      </trkpt>
      <trkpt lat="44.74219" lon="5.03128">
        <ele>407</ele>
        <time>2020-02-07T14:37:50.000Z</time>
      </trkpt>
      <trkpt lat="44.74219" lon="5.03128">
        <ele>407</ele>
        <time>2020-02-07T14:37:51.000Z</time>
      </trkpt>
      <trkpt lat="44.74219" lon="5.03128">
        <ele>407</ele>
        <time>2020-02-07T14:37:52.000Z</time>
      </trkpt>
      <trkpt lat="44.74219" lon="5.03128">
        <ele>407</ele>
        <time>2020-02-07T14:37:53.000Z</time>
      </trkpt>
      <trkpt lat="44.74219" lon="5.03128">
        <ele>407</ele>
        <time>2020-02-07T14:37:54.000Z</time>
      </trkpt>
      <trkpt lat="44.74219" lon="5.03128">
        <ele>407</ele>
        <time>2020-02-07T14:37:55.000Z</time>
      </trkpt>
      <trkpt lat="44.74219" lon="5.03128">
        <ele>407</ele>
        <time>2020-02-07T14:37:56.000Z</time>
      </trkpt>
      <trkpt lat="44.74219" lon="5.03127">
        <ele>407</ele>
        <time>2020-02-07T14:37:57.000Z</time>
      </trkpt>
      <trkpt lat="44.74219" lon="5.03127">
        <ele>407</ele>
        <time>2020-02-07T14:37:58.000Z</time>
      </trkpt>
      <trkpt lat="44.74219" lon="5.03127">
        <ele>407</ele>
        <time>2020-02-07T14:37:59.000Z</time>
      </trkpt>
      <trkpt lat="44.74219" lon="5.03127">
        <ele>407</ele>
        <time>2020-02-07T14:38:00.000Z</time>
      </trkpt>
      <trkpt lat="44.74219" lon="5.03127">
        <ele>407</ele>
        <time>2020-02-07T14:38:01.000Z</time>
      </trkpt>
      <trkpt lat="44.74219" lon="5.03127">
        <ele>407</ele>
        <time>2020-02-07T14:38:02.000Z</time>
      </trkpt>
      <trkpt lat="44.74219" lon="5.03127">
        <ele>407</ele>
        <time>2020-02-07T14:38:03.000Z</time>
      </trkpt>
      <trkpt lat="44.74219" lon="5.03127">
        <ele>407</ele>
        <time>2020-02-07T14:38:04.000Z</time>
      </trkpt>
      <trkpt lat="44.74219" lon="5.03127">
        <ele>407</ele>
        <time>2020-02-07T14:38:05.000Z</time>
      </trkpt>
      <trkpt lat="44.74219" lon="5.03127">
        <ele>407</ele>
        <time>2020-02-07T14:38:06.000Z</time>
      </trkpt>
      <trkpt lat="44.74219" lon="5.03127">
        <ele>407</ele>
        <time>2020-02-07T14:38:07.000Z</time>
      </trkpt>
      <trkpt lat="44.74219" lon="5.03127">
        <ele>407</ele>
        <time>2020-02-07T14:38:08.000Z</time>
      </trkpt>
      <trkpt lat="44.74219" lon="5.03127">
        <ele>407</ele>
        <time>2020-02-07T14:38:09.000Z</time>
      </trkpt>
      <trkpt lat="44.74219" lon="5.03127">
        <ele>407</ele>
        <time>2020-02-07T14:38:10.000Z</time>
      </trkpt>
      <trkpt lat="44.74219" lon="5.03127">
        <ele>407</ele>
        <time>2020-02-07T14:38:11.000Z</time>
      </trkpt>
      <trkpt lat="44.74219" lon="5.03127">
        <ele>407</ele>
        <time>2020-02-07T14:38:12.000Z</time>
      </trkpt>
      <trkpt lat="44.74219" lon="5.03127">
        <ele>407</ele>
        <time>2020-02-07T14:38:13.000Z</time>
      </trkpt>
      <trkpt lat="44.74219" lon="5.03127">
        <ele>407</ele>
        <time>2020-02-07T14:38:14.000Z</time>
      </trkpt>
      <trkpt lat="44.74219" lon="5.03127">
        <ele>407</ele>
        <time>2020-02-07T14:38:15.000Z</time>
      </trkpt>
      <trkpt lat="44.74219" lon="5.03127">
        <ele>407</ele>
        <time>2020-02-07T14:38:16.000Z</time>
      </trkpt>
      <trkpt lat="44.74219" lon="5.03127">
        <ele>407</ele>
        <time>2020-02-07T14:38:17.000Z</time>
      </trkpt>
      <trkpt lat="44.74219" lon="5.03127">
        <ele>407</ele>
        <time>2020-02-07T14:38:18.000Z</time>
      </trkpt>
      <trkpt lat="44.74219" lon="5.03127">
        <ele>407</ele>
        <time>2020-02-07T14:38:19.000Z</time>
      </trkpt>
      <trkpt lat="44.74219" lon="5.03127">
        <ele>407</ele>
        <time>2020-02-07T14:38:20.000Z</time>
      </trkpt>
      <trkpt lat="44.74219" lon="5.03127">
        <ele>407</ele>
        <time>2020-02-07T14:38:21.000Z</time>
      </trkpt>
      <trkpt lat="44.74219" lon="5.03127">
        <ele>407</ele>
        <time>2020-02-07T14:38:22.000Z</time>
      </trkpt>
      <trkpt lat="44.74219" lon="5.03127">
        <ele>407</ele>
        <time>2020-02-07T14:38:23.000Z</time>
      </trkpt>
      <trkpt lat="44.74219" lon="5.03127">
        <ele>407</ele>
        <time>2020-02-07T14:38:24.000Z</time>
      </trkpt>
      <trkpt lat="44.74219" lon="5.03127">
        <ele>407</ele>
        <time>2020-02-07T14:38:25.000Z</time>
      </trkpt>
      <trkpt lat="44.74218" lon="5.03126">
        <ele>407</ele>
        <time>2020-02-07T14:38:26.000Z</time>
      </trkpt>
      <trkpt lat="44.74218" lon="5.03126">
        <ele>406</ele>
        <time>2020-02-07T14:38:27.000Z</time>
      </trkpt>
      <trkpt lat="44.74217" lon="5.03126">
        <ele>406</ele>
        <time>2020-02-07T14:38:28.000Z</time>
      </trkpt>
      <trkpt lat="44.74217" lon="5.03125">
        <ele>406</ele>
        <time>2020-02-07T14:38:29.000Z</time>
      </trkpt>
      <trkpt lat="44.74216" lon="5.03124">
        <ele>406</ele>
        <time>2020-02-07T14:38:30.000Z</time>
      </trkpt>
      <trkpt lat="44.74215" lon="5.03123">
        <ele>406</ele>
        <time>2020-02-07T14:38:31.000Z</time>
      </trkpt>
      <trkpt lat="44.74214" lon="5.03123">
        <ele>406</ele>
        <time>2020-02-07T14:38:32.000Z</time>
      </trkpt>
      <trkpt lat="44.74213" lon="5.03122">
        <ele>406</ele>
        <time>2020-02-07T14:38:33.000Z</time>
      </trkpt>
      <trkpt lat="44.74212" lon="5.03122">
        <ele>406</ele>
        <time>2020-02-07T14:38:34.000Z</time>
      </trkpt>
      <trkpt lat="44.74211" lon="5.03122">
        <ele>406</ele>
        <time>2020-02-07T14:38:35.000Z</time>
      </trkpt>
      <trkpt lat="44.7421" lon="5.03122">
        <ele>406</ele>
        <time>2020-02-07T14:38:36.000Z</time>
      </trkpt>
      <trkpt lat="44.74209" lon="5.03123">
        <ele>406</ele>
        <time>2020-02-07T14:38:37.000Z</time>
      </trkpt>
      <trkpt lat="44.74209" lon="5.03123">
        <ele>406</ele>
        <time>2020-02-07T14:38:38.000Z</time>
      </trkpt>
      <trkpt lat="44.74208" lon="5.03124">
        <ele>406</ele>
        <time>2020-02-07T14:38:39.000Z</time>
      </trkpt>
      <trkpt lat="44.74208" lon="5.03125">
        <ele>406</ele>
        <time>2020-02-07T14:38:40.000Z</time>
      </trkpt>
      <trkpt lat="44.74208" lon="5.03126">
        <ele>406</ele>
        <time>2020-02-07T14:38:41.000Z</time>
      </trkpt>
      <trkpt lat="44.74208" lon="5.03127">
        <ele>405</ele>
        <time>2020-02-07T14:38:42.000Z</time>
      </trkpt>
      <trkpt lat="44.74208" lon="5.03127">
        <ele>406</ele>
        <time>2020-02-07T14:38:43.000Z</time>
      </trkpt>
      <trkpt lat="44.74208" lon="5.03127">
        <ele>406</ele>
        <time>2020-02-07T14:38:44.000Z</time>
      </trkpt>
      <trkpt lat="44.74208" lon="5.03127">
        <ele>406</ele>
        <time>2020-02-07T14:38:45.000Z</time>
      </trkpt>
      <trkpt lat="44.74208" lon="5.03128">
        <ele>406</ele>
        <time>2020-02-07T14:38:46.000Z</time>
      </trkpt>
      <trkpt lat="44.74208" lon="5.03128">
        <ele>406</ele>
        <time>2020-02-07T14:38:47.000Z</time>
      </trkpt>
      <trkpt lat="44.74207" lon="5.03127">
        <ele>406</ele>
        <time>2020-02-07T14:38:48.000Z</time>
      </trkpt>
      <trkpt lat="44.74207" lon="5.03127">
        <ele>406</ele>
        <time>2020-02-07T14:38:49.000Z</time>
      </trkpt>
      <trkpt lat="44.74207" lon="5.03126">
        <ele>406</ele>
        <time>2020-02-07T14:38:50.000Z</time>
      </trkpt>
      <trkpt lat="44.74207" lon="5.03125">
        <ele>406</ele>
        <time>2020-02-07T14:38:51.000Z</time>
      </trkpt>
      <trkpt lat="44.74207" lon="5.03125">
        <ele>406</ele>
        <time>2020-02-07T14:38:52.000Z</time>
      </trkpt>
      <trkpt lat="44.74206" lon="5.03124">
        <ele>406</ele>
        <time>2020-02-07T14:38:53.000Z</time>
      </trkpt>
      <trkpt lat="44.74205" lon="5.03124">
        <ele>406</ele>
        <time>2020-02-07T14:38:54.000Z</time>
      </trkpt>
      <trkpt lat="44.74204" lon="5.03123">
        <ele>406</ele>
        <time>2020-02-07T14:38:55.000Z</time>
      </trkpt>
      <trkpt lat="44.74203" lon="5.03122">
        <ele>406</ele>
        <time>2020-02-07T14:38:56.000Z</time>
      </trkpt>
      <trkpt lat="44.74202" lon="5.03122">
        <ele>406</ele>
        <time>2020-02-07T14:38:57.000Z</time>
      </trkpt>
      <trkpt lat="44.74202" lon="5.03121">
        <ele>406</ele>
        <time>2020-02-07T14:38:58.000Z</time>
      </trkpt>
      <trkpt lat="44.74201" lon="5.03121">
        <ele>405</ele>
        <time>2020-02-07T14:38:59.000Z</time>
      </trkpt>
      <trkpt lat="44.742" lon="5.0312">
        <ele>405</ele>
        <time>2020-02-07T14:39:00.000Z</time>
      </trkpt>
      <trkpt lat="44.74199" lon="5.03119">
        <ele>405</ele>
        <time>2020-02-07T14:39:01.000Z</time>
      </trkpt>
      <trkpt lat="44.74198" lon="5.03119">
        <ele>405</ele>
        <time>2020-02-07T14:39:02.000Z</time>
      </trkpt>
      <trkpt lat="44.74197" lon="5.03118">
        <ele>405</ele>
        <time>2020-02-07T14:39:03.000Z</time>
      </trkpt>
      <trkpt lat="44.74196" lon="5.03118">
        <ele>405</ele>
        <time>2020-02-07T14:39:04.000Z</time>
      </trkpt>
      <trkpt lat="44.74195" lon="5.03117">
        <ele>405</ele>
        <time>2020-02-07T14:39:05.000Z</time>
      </trkpt>
      <trkpt lat="44.74194" lon="5.03117">
        <ele>405</ele>
        <time>2020-02-07T14:39:06.000Z</time>
      </trkpt>
      <trkpt lat="44.74193" lon="5.03116">
        <ele>405</ele>
        <time>2020-02-07T14:39:07.000Z</time>
      </trkpt>
      <trkpt lat="44.74192" lon="5.03116">
        <ele>405</ele>
        <time>2020-02-07T14:39:08.000Z</time>
      </trkpt>
      <trkpt lat="44.74191" lon="5.03116">
        <ele>405</ele>
        <time>2020-02-07T14:39:09.000Z</time>
      </trkpt>
      <trkpt lat="44.7419" lon="5.03115">
        <ele>405</ele>
        <time>2020-02-07T14:39:10.000Z</time>
      </trkpt>
      <trkpt lat="44.74189" lon="5.03116">
        <ele>405</ele>
        <time>2020-02-07T14:39:11.000Z</time>
      </trkpt>
      <trkpt lat="44.74188" lon="5.03116">
        <ele>405</ele>
        <time>2020-02-07T14:39:12.000Z</time>
      </trkpt>
      <trkpt lat="44.74187" lon="5.03116">
        <ele>405</ele>
        <time>2020-02-07T14:39:13.000Z</time>
      </trkpt>
      <trkpt lat="44.74186" lon="5.03116">
        <ele>406</ele>
        <time>2020-02-07T14:39:14.000Z</time>
      </trkpt>
      <trkpt lat="44.74185" lon="5.03116">
        <ele>406</ele>
        <time>2020-02-07T14:39:15.000Z</time>
      </trkpt>
      <trkpt lat="44.74184" lon="5.03116">
        <ele>406</ele>
        <time>2020-02-07T14:39:16.000Z</time>
      </trkpt>
      <trkpt lat="44.74183" lon="5.03116">
        <ele>406</ele>
        <time>2020-02-07T14:39:17.000Z</time>
      </trkpt>
      <trkpt lat="44.74182" lon="5.03115">
        <ele>407</ele>
        <time>2020-02-07T14:39:18.000Z</time>
      </trkpt>
      <trkpt lat="44.74181" lon="5.03115">
        <ele>407</ele>
        <time>2020-02-07T14:39:19.000Z</time>
      </trkpt>
      <trkpt lat="44.74181" lon="5.03115">
        <ele>407</ele>
        <time>2020-02-07T14:39:20.000Z</time>
      </trkpt>
      <trkpt lat="44.7418" lon="5.03115">
        <ele>407</ele>
        <time>2020-02-07T14:39:21.000Z</time>
      </trkpt>
      <trkpt lat="44.74179" lon="5.03115">
        <ele>407</ele>
        <time>2020-02-07T14:39:22.000Z</time>
      </trkpt>
      <trkpt lat="44.74178" lon="5.03115">
        <ele>408</ele>
        <time>2020-02-07T14:39:23.000Z</time>
      </trkpt>
      <trkpt lat="44.74177" lon="5.03115">
        <ele>408</ele>
        <time>2020-02-07T14:39:24.000Z</time>
      </trkpt>
      <trkpt lat="44.74176" lon="5.03115">
        <ele>408</ele>
        <time>2020-02-07T14:39:25.000Z</time>
      </trkpt>
      <trkpt lat="44.74176" lon="5.03114">
        <ele>408</ele>
        <time>2020-02-07T14:39:26.000Z</time>
      </trkpt>
      <trkpt lat="44.74175" lon="5.03114">
        <ele>408</ele>
        <time>2020-02-07T14:39:27.000Z</time>
      </trkpt>
      <trkpt lat="44.74174" lon="5.03115">
        <ele>408</ele>
        <time>2020-02-07T14:39:28.000Z</time>
      </trkpt>
      <trkpt lat="44.74174" lon="5.03115">
        <ele>408</ele>
        <time>2020-02-07T14:39:29.000Z</time>
      </trkpt>
      <trkpt lat="44.74174" lon="5.03115">
        <ele>408</ele>
        <time>2020-02-07T14:39:30.000Z</time>
      </trkpt>
      <trkpt lat="44.74173" lon="5.03115">
        <ele>408</ele>
        <time>2020-02-07T14:39:31.000Z</time>
      </trkpt>
      <trkpt lat="44.74173" lon="5.03114">
        <ele>408</ele>
        <time>2020-02-07T14:39:32.000Z</time>
      </trkpt>
      <trkpt lat="44.74173" lon="5.03114">
        <ele>408</ele>
        <time>2020-02-07T14:39:33.000Z</time>
      </trkpt>
      <trkpt lat="44.74173" lon="5.03114">
        <ele>408</ele>
        <time>2020-02-07T14:39:34.000Z</time>
      </trkpt>
      <trkpt lat="44.74173" lon="5.03114">
        <ele>408</ele>
        <time>2020-02-07T14:39:35.000Z</time>
      </trkpt>
      <trkpt lat="44.74172" lon="5.03115">
        <ele>408</ele>
        <time>2020-02-07T14:39:36.000Z</time>
      </trkpt>
      <trkpt lat="44.74172" lon="5.03115">
        <ele>408</ele>
        <time>2020-02-07T14:39:37.000Z</time>
      </trkpt>
      <trkpt lat="44.74172" lon="5.03114">
        <ele>408</ele>
        <time>2020-02-07T14:39:38.000Z</time>
      </trkpt>
      <trkpt lat="44.74172" lon="5.03114">
        <ele>408</ele>
        <time>2020-02-07T14:39:39.000Z</time>
      </trkpt>
      <trkpt lat="44.74172" lon="5.03114">
        <ele>408</ele>
        <time>2020-02-07T14:39:40.000Z</time>
      </trkpt>
      <trkpt lat="44.74172" lon="5.03114">
        <ele>408</ele>
        <time>2020-02-07T14:39:41.000Z</time>
      </trkpt>
      <trkpt lat="44.74172" lon="5.03114">
        <ele>408</ele>
        <time>2020-02-07T14:39:42.000Z</time>
      </trkpt>
      <trkpt lat="44.74172" lon="5.03115">
        <ele>408</ele>
        <time>2020-02-07T14:39:43.000Z</time>
      </trkpt>
      <trkpt lat="44.74172" lon="5.03115">
        <ele>408</ele>
        <time>2020-02-07T14:39:44.000Z</time>
      </trkpt>
      <trkpt lat="44.74172" lon="5.03115">
        <ele>408</ele>
        <time>2020-02-07T14:39:45.000Z</time>
      </trkpt>
      <trkpt lat="44.74172" lon="5.03115">
        <ele>408</ele>
        <time>2020-02-07T14:39:46.000Z</time>
      </trkpt>
      <trkpt lat="44.74172" lon="5.03115">
        <ele>408</ele>
        <time>2020-02-07T14:39:47.000Z</time>
      </trkpt>
      <trkpt lat="44.74172" lon="5.03115">
        <ele>408</ele>
        <time>2020-02-07T14:39:48.000Z</time>
      </trkpt>
      <trkpt lat="44.74172" lon="5.03115">
        <ele>408</ele>
        <time>2020-02-07T14:39:49.000Z</time>
      </trkpt>
      <trkpt lat="44.74172" lon="5.03115">
        <ele>408</ele>
        <time>2020-02-07T14:39:50.000Z</time>
      </trkpt>
      <trkpt lat="44.74172" lon="5.03115">
        <ele>408</ele>
        <time>2020-02-07T14:39:51.000Z</time>
      </trkpt>
      <trkpt lat="44.74172" lon="5.03115">
        <ele>408</ele>
        <time>2020-02-07T14:39:52.000Z</time>
      </trkpt>
      <trkpt lat="44.74172" lon="5.03115">
        <ele>408</ele>
        <time>2020-02-07T14:39:53.000Z</time>
      </trkpt>
      <trkpt lat="44.74172" lon="5.03115">
        <ele>408</ele>
        <time>2020-02-07T14:39:54.000Z</time>
      </trkpt>
      <trkpt lat="44.74172" lon="5.03115">
        <ele>408</ele>
        <time>2020-02-07T14:39:55.000Z</time>
      </trkpt>
      <trkpt lat="44.74172" lon="5.03115">
        <ele>408</ele>
        <time>2020-02-07T14:39:56.000Z</time>
      </trkpt>
      <trkpt lat="44.74172" lon="5.03114">
        <ele>408</ele>
        <time>2020-02-07T14:39:57.000Z</time>
      </trkpt>
      <trkpt lat="44.74172" lon="5.03114">
        <ele>408</ele>
        <time>2020-02-07T14:39:58.000Z</time>
      </trkpt>
      <trkpt lat="44.74172" lon="5.03114">
        <ele>408</ele>
        <time>2020-02-07T14:39:59.000Z</time>
      </trkpt>
      <trkpt lat="44.74172" lon="5.03114">
        <ele>408</ele>
        <time>2020-02-07T14:40:00.000Z</time>
      </trkpt>
      <trkpt lat="44.74172" lon="5.03114">
        <ele>408</ele>
        <time>2020-02-07T14:40:01.000Z</time>
      </trkpt>
      <trkpt lat="44.74172" lon="5.03114">
        <ele>408</ele>
        <time>2020-02-07T14:40:02.000Z</time>
      </trkpt>
      <trkpt lat="44.74171" lon="5.03114">
        <ele>408</ele>
        <time>2020-02-07T14:40:03.000Z</time>
      </trkpt>
      <trkpt lat="44.74171" lon="5.03114">
        <ele>408</ele>
        <time>2020-02-07T14:40:04.000Z</time>
      </trkpt>
      <trkpt lat="44.74171" lon="5.03114">
        <ele>408</ele>
        <time>2020-02-07T14:40:05.000Z</time>
      </trkpt>
      <trkpt lat="44.74171" lon="5.03114">
        <ele>408</ele>
        <time>2020-02-07T14:40:06.000Z</time>
      </trkpt>
      <trkpt lat="44.74171" lon="5.03114">
        <ele>408</ele>
        <time>2020-02-07T14:40:07.000Z</time>
      </trkpt>
      <trkpt lat="44.74171" lon="5.03114">
        <ele>408</ele>
        <time>2020-02-07T14:40:08.000Z</time>
      </trkpt>
      <trkpt lat="44.74171" lon="5.03114">
        <ele>408</ele>
        <time>2020-02-07T14:40:09.000Z</time>
      </trkpt>
      <trkpt lat="44.74171" lon="5.03114">
        <ele>408</ele>
        <time>2020-02-07T14:40:10.000Z</time>
      </trkpt>
      <trkpt lat="44.74171" lon="5.03114">
        <ele>408</ele>
        <time>2020-02-07T14:40:11.000Z</time>
      </trkpt>
      <trkpt lat="44.74171" lon="5.03114">
        <ele>408</ele>
        <time>2020-02-07T14:40:12.000Z</time>
      </trkpt>
      <trkpt lat="44.74171" lon="5.03114">
        <ele>408</ele>
        <time>2020-02-07T14:40:13.000Z</time>
      </trkpt>
      <trkpt lat="44.74171" lon="5.03114">
        <ele>408</ele>
        <time>2020-02-07T14:40:14.000Z</time>
      </trkpt>
      <trkpt lat="44.74171" lon="5.03114">
        <ele>408</ele>
        <time>2020-02-07T14:40:15.000Z</time>
      </trkpt>
      <trkpt lat="44.74171" lon="5.03114">
        <ele>408</ele>
        <time>2020-02-07T14:40:16.000Z</time>
      </trkpt>
      <trkpt lat="44.74171" lon="5.03114">
        <ele>408</ele>
        <time>2020-02-07T14:40:17.000Z</time>
      </trkpt>
      <trkpt lat="44.74171" lon="5.03114">
        <ele>408</ele>
        <time>2020-02-07T14:40:18.000Z</time>
      </trkpt>
      <trkpt lat="44.74171" lon="5.03114">
        <ele>408</ele>
        <time>2020-02-07T14:40:19.000Z</time>
      </trkpt>
      <trkpt lat="44.74171" lon="5.03114">
        <ele>408</ele>
        <time>2020-02-07T14:40:20.000Z</time>
      </trkpt>
      <trkpt lat="44.74171" lon="5.03114">
        <ele>408</ele>
        <time>2020-02-07T14:40:21.000Z</time>
      </trkpt>
      <trkpt lat="44.74171" lon="5.03114">
        <ele>408</ele>
        <time>2020-02-07T14:40:22.000Z</time>
      </trkpt>
      <trkpt lat="44.74171" lon="5.03114">
        <ele>408</ele>
        <time>2020-02-07T14:40:23.000Z</time>
      </trkpt>
      <trkpt lat="44.74172" lon="5.03114">
        <ele>408</ele>
        <time>2020-02-07T14:40:24.000Z</time>
      </trkpt>
      <trkpt lat="44.74172" lon="5.03113">
        <ele>408</ele>
        <time>2020-02-07T14:40:25.000Z</time>
      </trkpt>
      <trkpt lat="44.74172" lon="5.03113">
        <ele>408</ele>
        <time>2020-02-07T14:40:26.000Z</time>
      </trkpt>
      <trkpt lat="44.74172" lon="5.03113">
        <ele>408</ele>
        <time>2020-02-07T14:40:27.000Z</time>
      </trkpt>
      <trkpt lat="44.74172" lon="5.03113">
        <ele>408</ele>
        <time>2020-02-07T14:40:28.000Z</time>
      </trkpt>
      <trkpt lat="44.74172" lon="5.03113">
        <ele>408</ele>
        <time>2020-02-07T14:40:29.000Z</time>
      </trkpt>
      <trkpt lat="44.74172" lon="5.03113">
        <ele>408</ele>
        <time>2020-02-07T14:40:30.000Z</time>
      </trkpt>
      <trkpt lat="44.74171" lon="5.03114">
        <ele>408</ele>
        <time>2020-02-07T14:40:31.000Z</time>
      </trkpt>
      <trkpt lat="44.74171" lon="5.03114">
        <ele>408</ele>
        <time>2020-02-07T14:40:32.000Z</time>
      </trkpt>
      <trkpt lat="44.74171" lon="5.03114">
        <ele>408</ele>
        <time>2020-02-07T14:40:33.000Z</time>
      </trkpt>
      <trkpt lat="44.74171" lon="5.03114">
        <ele>408</ele>
        <time>2020-02-07T14:40:34.000Z</time>
      </trkpt>
      <trkpt lat="44.74171" lon="5.03114">
        <ele>408</ele>
        <time>2020-02-07T14:40:35.000Z</time>
      </trkpt>
      <trkpt lat="44.74171" lon="5.03114">
        <ele>408</ele>
        <time>2020-02-07T14:40:36.000Z</time>
      </trkpt>
      <trkpt lat="44.74171" lon="5.03114">
        <ele>408</ele>
        <time>2020-02-07T14:40:37.000Z</time>
      </trkpt>
      <trkpt lat="44.74171" lon="5.03114">
        <ele>408</ele>
        <time>2020-02-07T14:40:38.000Z</time>
      </trkpt>
      <trkpt lat="44.74171" lon="5.03114">
        <ele>408</ele>
        <time>2020-02-07T14:40:39.000Z</time>
      </trkpt>
      <trkpt lat="44.74171" lon="5.03114">
        <ele>408</ele>
        <time>2020-02-07T14:40:40.000Z</time>
      </trkpt>
      <trkpt lat="44.74171" lon="5.03114">
        <ele>408</ele>
        <time>2020-02-07T14:40:41.000Z</time>
      </trkpt>
      <trkpt lat="44.74171" lon="5.03114">
        <ele>408</ele>
        <time>2020-02-07T14:40:42.000Z</time>
      </trkpt>
      <trkpt lat="44.74171" lon="5.03114">
        <ele>408</ele>
        <time>2020-02-07T14:40:43.000Z</time>
      </trkpt>
      <trkpt lat="44.74171" lon="5.03114">
        <ele>408</ele>
        <time>2020-02-07T14:40:44.000Z</time>
      </trkpt>
      <trkpt lat="44.74171" lon="5.03114">
        <ele>408</ele>
        <time>2020-02-07T14:40:45.000Z</time>
      </trkpt>
      <trkpt lat="44.74171" lon="5.03114">
        <ele>408</ele>
        <time>2020-02-07T14:40:46.000Z</time>
      </trkpt>
      <trkpt lat="44.74171" lon="5.03114">
        <ele>408</ele>
        <time>2020-02-07T14:40:47.000Z</time>
      </trkpt>
      <trkpt lat="44.74171" lon="5.03114">
        <ele>408</ele>
        <time>2020-02-07T14:40:48.000Z</time>
      </trkpt>
      <trkpt lat="44.74171" lon="5.03114">
        <ele>408</ele>
        <time>2020-02-07T14:40:49.000Z</time>
      </trkpt>
      <trkpt lat="44.74171" lon="5.03113">
        <ele>408</ele>
        <time>2020-02-07T14:40:50.000Z</time>
      </trkpt>
      <trkpt lat="44.7417" lon="5.03113">
        <ele>408</ele>
        <time>2020-02-07T14:40:51.000Z</time>
      </trkpt>
      <trkpt lat="44.7417" lon="5.03113">
        <ele>408</ele>
        <time>2020-02-07T14:40:52.000Z</time>
      </trkpt>
      <trkpt lat="44.74169" lon="5.03113">
        <ele>408</ele>
        <time>2020-02-07T14:40:53.000Z</time>
      </trkpt>
      <trkpt lat="44.74168" lon="5.03112">
        <ele>408</ele>
        <time>2020-02-07T14:40:54.000Z</time>
      </trkpt>
      <trkpt lat="44.74167" lon="5.03112">
        <ele>408</ele>
        <time>2020-02-07T14:40:55.000Z</time>
      </trkpt>
      <trkpt lat="44.74166" lon="5.03111">
        <ele>408</ele>
        <time>2020-02-07T14:40:56.000Z</time>
      </trkpt>
      <trkpt lat="44.74166" lon="5.03111">
        <ele>408</ele>
        <time>2020-02-07T14:40:57.000Z</time>
      </trkpt>
      <trkpt lat="44.74165" lon="5.03111">
        <ele>408</ele>
        <time>2020-02-07T14:40:58.000Z</time>
      </trkpt>
      <trkpt lat="44.74165" lon="5.0311">
        <ele>408</ele>
        <time>2020-02-07T14:40:59.000Z</time>
      </trkpt>
      <trkpt lat="44.74164" lon="5.03109">
        <ele>408</ele>
        <time>2020-02-07T14:41:00.000Z</time>
      </trkpt>
      <trkpt lat="44.74164" lon="5.03107">
        <ele>407</ele>
        <time>2020-02-07T14:41:01.000Z</time>
      </trkpt>
      <trkpt lat="44.74164" lon="5.03106">
        <ele>407</ele>
        <time>2020-02-07T14:41:02.000Z</time>
      </trkpt>
      <trkpt lat="44.74164" lon="5.03105">
        <ele>407</ele>
        <time>2020-02-07T14:41:03.000Z</time>
      </trkpt>
      <trkpt lat="44.74164" lon="5.03105">
        <ele>406</ele>
        <time>2020-02-07T14:41:04.000Z</time>
      </trkpt>
      <trkpt lat="44.74164" lon="5.03104">
        <ele>406</ele>
        <time>2020-02-07T14:41:05.000Z</time>
      </trkpt>
      <trkpt lat="44.74163" lon="5.03104">
        <ele>406</ele>
        <time>2020-02-07T14:41:06.000Z</time>
      </trkpt>
      <trkpt lat="44.74163" lon="5.03103">
        <ele>406</ele>
        <time>2020-02-07T14:41:07.000Z</time>
      </trkpt>
      <trkpt lat="44.74162" lon="5.03104">
        <ele>406</ele>
        <time>2020-02-07T14:41:08.000Z</time>
      </trkpt>
      <trkpt lat="44.74162" lon="5.03104">
        <ele>406</ele>
        <time>2020-02-07T14:41:09.000Z</time>
      </trkpt>
      <trkpt lat="44.74161" lon="5.03104">
        <ele>406</ele>
        <time>2020-02-07T14:41:10.000Z</time>
      </trkpt>
      <trkpt lat="44.74161" lon="5.03104">
        <ele>406</ele>
        <time>2020-02-07T14:41:11.000Z</time>
      </trkpt>
      <trkpt lat="44.7416" lon="5.03104">
        <ele>405</ele>
        <time>2020-02-07T14:41:12.000Z</time>
      </trkpt>
      <trkpt lat="44.74159" lon="5.03104">
        <ele>405</ele>
        <time>2020-02-07T14:41:13.000Z</time>
      </trkpt>
      <trkpt lat="44.74159" lon="5.03104">
        <ele>405</ele>
        <time>2020-02-07T14:41:14.000Z</time>
      </trkpt>
      <trkpt lat="44.74158" lon="5.03104">
        <ele>405</ele>
        <time>2020-02-07T14:41:15.000Z</time>
      </trkpt>
      <trkpt lat="44.74157" lon="5.03103">
        <ele>405</ele>
        <time>2020-02-07T14:41:16.000Z</time>
      </trkpt>
      <trkpt lat="44.74156" lon="5.03103">
        <ele>404</ele>
        <time>2020-02-07T14:41:17.000Z</time>
      </trkpt>
      <trkpt lat="44.74155" lon="5.03103">
        <ele>404</ele>
        <time>2020-02-07T14:41:18.000Z</time>
      </trkpt>
      <trkpt lat="44.74154" lon="5.03103">
        <ele>404</ele>
        <time>2020-02-07T14:41:19.000Z</time>
      </trkpt>
      <trkpt lat="44.74153" lon="5.03103">
        <ele>404</ele>
        <time>2020-02-07T14:41:20.000Z</time>
      </trkpt>
      <trkpt lat="44.74152" lon="5.03103">
        <ele>404</ele>
        <time>2020-02-07T14:41:21.000Z</time>
      </trkpt>
      <trkpt lat="44.74151" lon="5.03103">
        <ele>404</ele>
        <time>2020-02-07T14:41:22.000Z</time>
      </trkpt>
      <trkpt lat="44.74151" lon="5.03103">
        <ele>404</ele>
        <time>2020-02-07T14:41:23.000Z</time>
      </trkpt>
      <trkpt lat="44.74151" lon="5.03103">
        <ele>404</ele>
        <time>2020-02-07T14:41:24.000Z</time>
      </trkpt>
      <trkpt lat="44.74151" lon="5.03103">
        <ele>404</ele>
        <time>2020-02-07T14:41:25.000Z</time>
      </trkpt>
      <trkpt lat="44.74151" lon="5.03103">
        <ele>404</ele>
        <time>2020-02-07T14:41:26.000Z</time>
      </trkpt>
      <trkpt lat="44.7415" lon="5.03102">
        <ele>405</ele>
        <time>2020-02-07T14:41:27.000Z</time>
      </trkpt>
      <trkpt lat="44.7415" lon="5.03101">
        <ele>404</ele>
        <time>2020-02-07T14:41:28.000Z</time>
      </trkpt>
      <trkpt lat="44.74149" lon="5.03101">
        <ele>404</ele>
        <time>2020-02-07T14:41:29.000Z</time>
      </trkpt>
      <trkpt lat="44.74148" lon="5.03099">
        <ele>404</ele>
        <time>2020-02-07T14:41:30.000Z</time>
      </trkpt>
      <trkpt lat="44.74148" lon="5.03098">
        <ele>404</ele>
        <time>2020-02-07T14:41:31.000Z</time>
      </trkpt>
      <trkpt lat="44.74147" lon="5.03098">
        <ele>404</ele>
        <time>2020-02-07T14:41:32.000Z</time>
      </trkpt>
      <trkpt lat="44.74147" lon="5.03097">
        <ele>404</ele>
        <time>2020-02-07T14:41:33.000Z</time>
      </trkpt>
      <trkpt lat="44.74147" lon="5.03096">
        <ele>404</ele>
        <time>2020-02-07T14:41:34.000Z</time>
      </trkpt>
      <trkpt lat="44.74146" lon="5.03095">
        <ele>404</ele>
        <time>2020-02-07T14:41:35.000Z</time>
      </trkpt>
      <trkpt lat="44.74146" lon="5.03094">
        <ele>404</ele>
        <time>2020-02-07T14:41:36.000Z</time>
      </trkpt>
      <trkpt lat="44.74145" lon="5.03093">
        <ele>403</ele>
        <time>2020-02-07T14:41:37.000Z</time>
      </trkpt>
      <trkpt lat="44.74145" lon="5.03092">
        <ele>403</ele>
        <time>2020-02-07T14:41:38.000Z</time>
      </trkpt>
      <trkpt lat="44.74145" lon="5.03092">
        <ele>403</ele>
        <time>2020-02-07T14:41:39.000Z</time>
      </trkpt>
      <trkpt lat="44.74144" lon="5.03092">
        <ele>403</ele>
        <time>2020-02-07T14:41:40.000Z</time>
      </trkpt>
      <trkpt lat="44.74144" lon="5.03092">
        <ele>403</ele>
        <time>2020-02-07T14:41:41.000Z</time>
      </trkpt>
      <trkpt lat="44.74143" lon="5.03092">
        <ele>403</ele>
        <time>2020-02-07T14:41:42.000Z</time>
      </trkpt>
      <trkpt lat="44.74142" lon="5.03092">
        <ele>403</ele>
        <time>2020-02-07T14:41:43.000Z</time>
      </trkpt>
      <trkpt lat="44.74141" lon="5.03092">
        <ele>402</ele>
        <time>2020-02-07T14:41:44.000Z</time>
      </trkpt>
      <trkpt lat="44.7414" lon="5.03091">
        <ele>402</ele>
        <time>2020-02-07T14:41:45.000Z</time>
      </trkpt>
      <trkpt lat="44.7414" lon="5.03091">
        <ele>402</ele>
        <time>2020-02-07T14:41:46.000Z</time>
      </trkpt>
      <trkpt lat="44.74139" lon="5.03091">
        <ele>402</ele>
        <time>2020-02-07T14:41:47.000Z</time>
      </trkpt>
      <trkpt lat="44.74138" lon="5.03091">
        <ele>402</ele>
        <time>2020-02-07T14:41:48.000Z</time>
      </trkpt>
      <trkpt lat="44.74138" lon="5.0309">
        <ele>402</ele>
        <time>2020-02-07T14:41:49.000Z</time>
      </trkpt>
      <trkpt lat="44.74137" lon="5.0309">
        <ele>402</ele>
        <time>2020-02-07T14:41:50.000Z</time>
      </trkpt>
      <trkpt lat="44.74137" lon="5.0309">
        <ele>402</ele>
        <time>2020-02-07T14:41:51.000Z</time>
      </trkpt>
      <trkpt lat="44.74136" lon="5.0309">
        <ele>401</ele>
        <time>2020-02-07T14:41:52.000Z</time>
      </trkpt>
      <trkpt lat="44.74135" lon="5.03091">
        <ele>401</ele>
        <time>2020-02-07T14:41:53.000Z</time>
      </trkpt>
      <trkpt lat="44.74135" lon="5.03091">
        <ele>401</ele>
        <time>2020-02-07T14:41:54.000Z</time>
      </trkpt>
      <trkpt lat="44.74134" lon="5.03091">
        <ele>401</ele>
        <time>2020-02-07T14:41:55.000Z</time>
      </trkpt>
      <trkpt lat="44.74133" lon="5.03091">
        <ele>401</ele>
        <time>2020-02-07T14:41:56.000Z</time>
      </trkpt>
      <trkpt lat="44.74132" lon="5.03091">
        <ele>401</ele>
        <time>2020-02-07T14:41:57.000Z</time>
      </trkpt>
      <trkpt lat="44.74132" lon="5.0309">
        <ele>401</ele>
        <time>2020-02-07T14:41:58.000Z</time>
      </trkpt>
      <trkpt lat="44.74131" lon="5.0309">
        <ele>401</ele>
        <time>2020-02-07T14:41:59.000Z</time>
      </trkpt>
      <trkpt lat="44.7413" lon="5.0309">
        <ele>401</ele>
        <time>2020-02-07T14:42:00.000Z</time>
      </trkpt>
      <trkpt lat="44.74129" lon="5.0309">
        <ele>401</ele>
        <time>2020-02-07T14:42:01.000Z</time>
      </trkpt>
      <trkpt lat="44.74128" lon="5.0309">
        <ele>401</ele>
        <time>2020-02-07T14:42:02.000Z</time>
      </trkpt>
      <trkpt lat="44.74127" lon="5.0309">
        <ele>400</ele>
        <time>2020-02-07T14:42:03.000Z</time>
      </trkpt>
      <trkpt lat="44.74126" lon="5.0309">
        <ele>400</ele>
        <time>2020-02-07T14:42:04.000Z</time>
      </trkpt>
      <trkpt lat="44.74124" lon="5.0309">
        <ele>400</ele>
        <time>2020-02-07T14:42:05.000Z</time>
      </trkpt>
      <trkpt lat="44.74123" lon="5.0309">
        <ele>400</ele>
        <time>2020-02-07T14:42:06.000Z</time>
      </trkpt>
      <trkpt lat="44.74122" lon="5.0309">
        <ele>400</ele>
        <time>2020-02-07T14:42:07.000Z</time>
      </trkpt>
      <trkpt lat="44.74121" lon="5.03089">
        <ele>400</ele>
        <time>2020-02-07T14:42:08.000Z</time>
      </trkpt>
      <trkpt lat="44.7412" lon="5.03089">
        <ele>400</ele>
        <time>2020-02-07T14:42:09.000Z</time>
      </trkpt>
      <trkpt lat="44.74119" lon="5.03088">
        <ele>400</ele>
        <time>2020-02-07T14:42:10.000Z</time>
      </trkpt>
      <trkpt lat="44.74118" lon="5.03087">
        <ele>400</ele>
        <time>2020-02-07T14:42:11.000Z</time>
      </trkpt>
      <trkpt lat="44.74118" lon="5.03086">
        <ele>399</ele>
        <time>2020-02-07T14:42:12.000Z</time>
      </trkpt>
      <trkpt lat="44.74117" lon="5.03084">
        <ele>399</ele>
        <time>2020-02-07T14:42:13.000Z</time>
      </trkpt>
      <trkpt lat="44.74117" lon="5.03083">
        <ele>399</ele>
        <time>2020-02-07T14:42:14.000Z</time>
      </trkpt>
      <trkpt lat="44.74116" lon="5.03082">
        <ele>399</ele>
        <time>2020-02-07T14:42:15.000Z</time>
      </trkpt>
      <trkpt lat="44.74116" lon="5.03081">
        <ele>399</ele>
        <time>2020-02-07T14:42:16.000Z</time>
      </trkpt>
      <trkpt lat="44.74115" lon="5.0308">
        <ele>399</ele>
        <time>2020-02-07T14:42:17.000Z</time>
      </trkpt>
      <trkpt lat="44.74115" lon="5.0308">
        <ele>399</ele>
        <time>2020-02-07T14:42:18.000Z</time>
      </trkpt>
      <trkpt lat="44.74114" lon="5.03079">
        <ele>399</ele>
        <time>2020-02-07T14:42:19.000Z</time>
      </trkpt>
      <trkpt lat="44.74113" lon="5.03079">
        <ele>399</ele>
        <time>2020-02-07T14:42:20.000Z</time>
      </trkpt>
      <trkpt lat="44.74112" lon="5.03078">
        <ele>399</ele>
        <time>2020-02-07T14:42:21.000Z</time>
      </trkpt>
      <trkpt lat="44.74111" lon="5.03078">
        <ele>399</ele>
        <time>2020-02-07T14:42:22.000Z</time>
      </trkpt>
      <trkpt lat="44.74111" lon="5.03077">
        <ele>399</ele>
        <time>2020-02-07T14:42:23.000Z</time>
      </trkpt>
      <trkpt lat="44.74111" lon="5.03076">
        <ele>399</ele>
        <time>2020-02-07T14:42:24.000Z</time>
      </trkpt>
      <trkpt lat="44.74112" lon="5.03075">
        <ele>399</ele>
        <time>2020-02-07T14:42:25.000Z</time>
      </trkpt>
      <trkpt lat="44.74112" lon="5.03074">
        <ele>399</ele>
        <time>2020-02-07T14:42:26.000Z</time>
      </trkpt>
      <trkpt lat="44.74112" lon="5.03073">
        <ele>399</ele>
        <time>2020-02-07T14:42:27.000Z</time>
      </trkpt>
      <trkpt lat="44.74112" lon="5.03073">
        <ele>399</ele>
        <time>2020-02-07T14:42:28.000Z</time>
      </trkpt>
      <trkpt lat="44.74112" lon="5.03072">
        <ele>399</ele>
        <time>2020-02-07T14:42:29.000Z</time>
      </trkpt>
      <trkpt lat="44.74112" lon="5.03071">
        <ele>399</ele>
        <time>2020-02-07T14:42:30.000Z</time>
      </trkpt>
      <trkpt lat="44.74112" lon="5.03071">
        <ele>398</ele>
        <time>2020-02-07T14:42:31.000Z</time>
      </trkpt>
      <trkpt lat="44.74112" lon="5.0307">
        <ele>398</ele>
        <time>2020-02-07T14:42:32.000Z</time>
      </trkpt>
      <trkpt lat="44.74113" lon="5.0307">
        <ele>398</ele>
        <time>2020-02-07T14:42:33.000Z</time>
      </trkpt>
      <trkpt lat="44.74113" lon="5.03069">
        <ele>398</ele>
        <time>2020-02-07T14:42:34.000Z</time>
      </trkpt>
      <trkpt lat="44.74113" lon="5.03068">
        <ele>398</ele>
        <time>2020-02-07T14:42:35.000Z</time>
      </trkpt>
      <trkpt lat="44.74113" lon="5.03067">
        <ele>398</ele>
        <time>2020-02-07T14:42:36.000Z</time>
      </trkpt>
      <trkpt lat="44.74112" lon="5.03067">
        <ele>398</ele>
        <time>2020-02-07T14:42:37.000Z</time>
      </trkpt>
      <trkpt lat="44.74112" lon="5.03067">
        <ele>398</ele>
        <time>2020-02-07T14:42:38.000Z</time>
      </trkpt>
      <trkpt lat="44.74111" lon="5.03066">
        <ele>398</ele>
        <time>2020-02-07T14:42:39.000Z</time>
      </trkpt>
      <trkpt lat="44.7411" lon="5.03066">
        <ele>398</ele>
        <time>2020-02-07T14:42:40.000Z</time>
      </trkpt>
      <trkpt lat="44.74109" lon="5.03065">
        <ele>398</ele>
        <time>2020-02-07T14:42:41.000Z</time>
      </trkpt>
      <trkpt lat="44.74109" lon="5.03065">
        <ele>398</ele>
        <time>2020-02-07T14:42:42.000Z</time>
      </trkpt>
      <trkpt lat="44.74108" lon="5.03065">
        <ele>398</ele>
        <time>2020-02-07T14:42:43.000Z</time>
      </trkpt>
      <trkpt lat="44.74107" lon="5.03065">
        <ele>398</ele>
        <time>2020-02-07T14:42:44.000Z</time>
      </trkpt>
      <trkpt lat="44.74106" lon="5.03065">
        <ele>398</ele>
        <time>2020-02-07T14:42:45.000Z</time>
      </trkpt>
      <trkpt lat="44.74106" lon="5.03065">
        <ele>398</ele>
        <time>2020-02-07T14:42:46.000Z</time>
      </trkpt>
      <trkpt lat="44.74105" lon="5.03066">
        <ele>398</ele>
        <time>2020-02-07T14:42:47.000Z</time>
      </trkpt>
      <trkpt lat="44.74104" lon="5.03066">
        <ele>398</ele>
        <time>2020-02-07T14:42:48.000Z</time>
      </trkpt>
      <trkpt lat="44.74104" lon="5.03067">
        <ele>398</ele>
        <time>2020-02-07T14:42:49.000Z</time>
      </trkpt>
      <trkpt lat="44.74103" lon="5.03067">
        <ele>398</ele>
        <time>2020-02-07T14:42:50.000Z</time>
      </trkpt>
      <trkpt lat="44.74102" lon="5.03068">
        <ele>398</ele>
        <time>2020-02-07T14:42:51.000Z</time>
      </trkpt>
      <trkpt lat="44.74101" lon="5.03068">
        <ele>398</ele>
        <time>2020-02-07T14:42:52.000Z</time>
      </trkpt>
      <trkpt lat="44.741" lon="5.03069">
        <ele>398</ele>
        <time>2020-02-07T14:42:53.000Z</time>
      </trkpt>
      <trkpt lat="44.74099" lon="5.03069">
        <ele>398</ele>
        <time>2020-02-07T14:42:54.000Z</time>
      </trkpt>
      <trkpt lat="44.74098" lon="5.03069">
        <ele>398</ele>
        <time>2020-02-07T14:42:55.000Z</time>
      </trkpt>
      <trkpt lat="44.74097" lon="5.03069">
        <ele>398</ele>
        <time>2020-02-07T14:42:56.000Z</time>
      </trkpt>
      <trkpt lat="44.74096" lon="5.03069">
        <ele>398</ele>
        <time>2020-02-07T14:42:57.000Z</time>
      </trkpt>
      <trkpt lat="44.74095" lon="5.03069">
        <ele>398</ele>
        <time>2020-02-07T14:42:58.000Z</time>
      </trkpt>
      <trkpt lat="44.74094" lon="5.03068">
        <ele>398</ele>
        <time>2020-02-07T14:42:59.000Z</time>
      </trkpt>
      <trkpt lat="44.74093" lon="5.03068">
        <ele>398</ele>
        <time>2020-02-07T14:43:00.000Z</time>
      </trkpt>
      <trkpt lat="44.74092" lon="5.03067">
        <ele>398</ele>
        <time>2020-02-07T14:43:01.000Z</time>
      </trkpt>
      <trkpt lat="44.74092" lon="5.03067">
        <ele>398</ele>
        <time>2020-02-07T14:43:02.000Z</time>
      </trkpt>
      <trkpt lat="44.74091" lon="5.03066">
        <ele>398</ele>
        <time>2020-02-07T14:43:03.000Z</time>
      </trkpt>
      <trkpt lat="44.7409" lon="5.03065">
        <ele>398</ele>
        <time>2020-02-07T14:43:04.000Z</time>
      </trkpt>
      <trkpt lat="44.7409" lon="5.03065">
        <ele>399</ele>
        <time>2020-02-07T14:43:05.000Z</time>
      </trkpt>
      <trkpt lat="44.74089" lon="5.03065">
        <ele>399</ele>
        <time>2020-02-07T14:43:06.000Z</time>
      </trkpt>
      <trkpt lat="44.74088" lon="5.03064">
        <ele>399</ele>
        <time>2020-02-07T14:43:07.000Z</time>
      </trkpt>
      <trkpt lat="44.74087" lon="5.03064">
        <ele>399</ele>
        <time>2020-02-07T14:43:08.000Z</time>
      </trkpt>
      <trkpt lat="44.74085" lon="5.03064">
        <ele>399</ele>
        <time>2020-02-07T14:43:09.000Z</time>
      </trkpt>
      <trkpt lat="44.74084" lon="5.03064">
        <ele>399</ele>
        <time>2020-02-07T14:43:10.000Z</time>
      </trkpt>
      <trkpt lat="44.74084" lon="5.03065">
        <ele>399</ele>
        <time>2020-02-07T14:43:11.000Z</time>
      </trkpt>
      <trkpt lat="44.74083" lon="5.03064">
        <ele>399</ele>
        <time>2020-02-07T14:43:12.000Z</time>
      </trkpt>
      <trkpt lat="44.74082" lon="5.03064">
        <ele>399</ele>
        <time>2020-02-07T14:43:13.000Z</time>
      </trkpt>
      <trkpt lat="44.74081" lon="5.03064">
        <ele>399</ele>
        <time>2020-02-07T14:43:14.000Z</time>
      </trkpt>
      <trkpt lat="44.7408" lon="5.03064">
        <ele>399</ele>
        <time>2020-02-07T14:43:15.000Z</time>
      </trkpt>
      <trkpt lat="44.74078" lon="5.03064">
        <ele>399</ele>
        <time>2020-02-07T14:43:16.000Z</time>
      </trkpt>
      <trkpt lat="44.74077" lon="5.03065">
        <ele>400</ele>
        <time>2020-02-07T14:43:17.000Z</time>
      </trkpt>
      <trkpt lat="44.74076" lon="5.03065">
        <ele>400</ele>
        <time>2020-02-07T14:43:18.000Z</time>
      </trkpt>
      <trkpt lat="44.74075" lon="5.03065">
        <ele>400</ele>
        <time>2020-02-07T14:43:19.000Z</time>
      </trkpt>
      <trkpt lat="44.74074" lon="5.03064">
        <ele>400</ele>
        <time>2020-02-07T14:43:20.000Z</time>
      </trkpt>
      <trkpt lat="44.74073" lon="5.03064">
        <ele>400</ele>
        <time>2020-02-07T14:43:21.000Z</time>
      </trkpt>
      <trkpt lat="44.74072" lon="5.03064">
        <ele>400</ele>
        <time>2020-02-07T14:43:22.000Z</time>
      </trkpt>
      <trkpt lat="44.74071" lon="5.03064">
        <ele>400</ele>
        <time>2020-02-07T14:43:23.000Z</time>
      </trkpt>
      <trkpt lat="44.7407" lon="5.03064">
        <ele>400</ele>
        <time>2020-02-07T14:43:24.000Z</time>
      </trkpt>
      <trkpt lat="44.74069" lon="5.03064">
        <ele>400</ele>
        <time>2020-02-07T14:43:25.000Z</time>
      </trkpt>
      <trkpt lat="44.74068" lon="5.03064">
        <ele>400</ele>
        <time>2020-02-07T14:43:26.000Z</time>
      </trkpt>
      <trkpt lat="44.74067" lon="5.03064">
        <ele>400</ele>
        <time>2020-02-07T14:43:27.000Z</time>
      </trkpt>
      <trkpt lat="44.74065" lon="5.03064">
        <ele>400</ele>
        <time>2020-02-07T14:43:28.000Z</time>
      </trkpt>
      <trkpt lat="44.74064" lon="5.03064">
        <ele>400</ele>
        <time>2020-02-07T14:43:29.000Z</time>
      </trkpt>
      <trkpt lat="44.74063" lon="5.03064">
        <ele>401</ele>
        <time>2020-02-07T14:43:30.000Z</time>
      </trkpt>
      <trkpt lat="44.74062" lon="5.03064">
        <ele>401</ele>
        <time>2020-02-07T14:43:31.000Z</time>
      </trkpt>
      <trkpt lat="44.74061" lon="5.03064">
        <ele>401</ele>
        <time>2020-02-07T14:43:32.000Z</time>
      </trkpt>
      <trkpt lat="44.7406" lon="5.03064">
        <ele>401</ele>
        <time>2020-02-07T14:43:33.000Z</time>
      </trkpt>
      <trkpt lat="44.74059" lon="5.03064">
        <ele>401</ele>
        <time>2020-02-07T14:43:34.000Z</time>
      </trkpt>
      <trkpt lat="44.74059" lon="5.03064">
        <ele>401</ele>
        <time>2020-02-07T14:43:35.000Z</time>
      </trkpt>
      <trkpt lat="44.74058" lon="5.03064">
        <ele>401</ele>
        <time>2020-02-07T14:43:36.000Z</time>
      </trkpt>
      <trkpt lat="44.74057" lon="5.03063">
        <ele>401</ele>
        <time>2020-02-07T14:43:37.000Z</time>
      </trkpt>
      <trkpt lat="44.74056" lon="5.03063">
        <ele>401</ele>
        <time>2020-02-07T14:43:38.000Z</time>
      </trkpt>
      <trkpt lat="44.74055" lon="5.03063">
        <ele>401</ele>
        <time>2020-02-07T14:43:39.000Z</time>
      </trkpt>
      <trkpt lat="44.74053" lon="5.03063">
        <ele>401</ele>
        <time>2020-02-07T14:43:40.000Z</time>
      </trkpt>
      <trkpt lat="44.74053" lon="5.03063">
        <ele>401</ele>
        <time>2020-02-07T14:43:41.000Z</time>
      </trkpt>
      <trkpt lat="44.74052" lon="5.03062">
        <ele>401</ele>
        <time>2020-02-07T14:43:42.000Z</time>
      </trkpt>
      <trkpt lat="44.74051" lon="5.03063">
        <ele>401</ele>
        <time>2020-02-07T14:43:43.000Z</time>
      </trkpt>
      <trkpt lat="44.7405" lon="5.03063">
        <ele>401</ele>
        <time>2020-02-07T14:43:44.000Z</time>
      </trkpt>
      <trkpt lat="44.74048" lon="5.03062">
        <ele>401</ele>
        <time>2020-02-07T14:43:45.000Z</time>
      </trkpt>
      <trkpt lat="44.74048" lon="5.03062">
        <ele>401</ele>
        <time>2020-02-07T14:43:46.000Z</time>
      </trkpt>
      <trkpt lat="44.74047" lon="5.03062">
        <ele>401</ele>
        <time>2020-02-07T14:43:47.000Z</time>
      </trkpt>
      <trkpt lat="44.74045" lon="5.03062">
        <ele>401</ele>
        <time>2020-02-07T14:43:48.000Z</time>
      </trkpt>
      <trkpt lat="44.74044" lon="5.03061">
        <ele>401</ele>
        <time>2020-02-07T14:43:49.000Z</time>
      </trkpt>
      <trkpt lat="44.74044" lon="5.03061">
        <ele>401</ele>
        <time>2020-02-07T14:43:50.000Z</time>
      </trkpt>
      <trkpt lat="44.74043" lon="5.03061">
        <ele>401</ele>
        <time>2020-02-07T14:43:51.000Z</time>
      </trkpt>
      <trkpt lat="44.74042" lon="5.0306">
        <ele>401</ele>
        <time>2020-02-07T14:43:52.000Z</time>
      </trkpt>
      <trkpt lat="44.7404" lon="5.0306">
        <ele>401</ele>
        <time>2020-02-07T14:43:53.000Z</time>
      </trkpt>
      <trkpt lat="44.74039" lon="5.0306">
        <ele>401</ele>
        <time>2020-02-07T14:43:54.000Z</time>
      </trkpt>
      <trkpt lat="44.74038" lon="5.0306">
        <ele>401</ele>
        <time>2020-02-07T14:43:55.000Z</time>
      </trkpt>
      <trkpt lat="44.74037" lon="5.0306">
        <ele>401</ele>
        <time>2020-02-07T14:43:56.000Z</time>
      </trkpt>
      <trkpt lat="44.74036" lon="5.03059">
        <ele>401</ele>
        <time>2020-02-07T14:43:57.000Z</time>
      </trkpt>
      <trkpt lat="44.74034" lon="5.03059">
        <ele>401</ele>
        <time>2020-02-07T14:43:58.000Z</time>
      </trkpt>
      <trkpt lat="44.74033" lon="5.03058">
        <ele>401</ele>
        <time>2020-02-07T14:43:59.000Z</time>
      </trkpt>
      <trkpt lat="44.74032" lon="5.03058">
        <ele>400</ele>
        <time>2020-02-07T14:44:00.000Z</time>
      </trkpt>
      <trkpt lat="44.74031" lon="5.03057">
        <ele>400</ele>
        <time>2020-02-07T14:44:01.000Z</time>
      </trkpt>
      <trkpt lat="44.74031" lon="5.03057">
        <ele>400</ele>
        <time>2020-02-07T14:44:02.000Z</time>
      </trkpt>
      <trkpt lat="44.7403" lon="5.03056">
        <ele>400</ele>
        <time>2020-02-07T14:44:03.000Z</time>
      </trkpt>
      <trkpt lat="44.74029" lon="5.03055">
        <ele>400</ele>
        <time>2020-02-07T14:44:04.000Z</time>
      </trkpt>
      <trkpt lat="44.74028" lon="5.03055">
        <ele>400</ele>
        <time>2020-02-07T14:44:05.000Z</time>
      </trkpt>
      <trkpt lat="44.74027" lon="5.03054">
        <ele>400</ele>
        <time>2020-02-07T14:44:06.000Z</time>
      </trkpt>
      <trkpt lat="44.74026" lon="5.03054">
        <ele>400</ele>
        <time>2020-02-07T14:44:07.000Z</time>
      </trkpt>
      <trkpt lat="44.74025" lon="5.03053">
        <ele>400</ele>
        <time>2020-02-07T14:44:08.000Z</time>
      </trkpt>
      <trkpt lat="44.74024" lon="5.03053">
        <ele>400</ele>
        <time>2020-02-07T14:44:09.000Z</time>
      </trkpt>
      <trkpt lat="44.74023" lon="5.03053">
        <ele>400</ele>
        <time>2020-02-07T14:44:10.000Z</time>
      </trkpt>
      <trkpt lat="44.74022" lon="5.03052">
        <ele>400</ele>
        <time>2020-02-07T14:44:11.000Z</time>
      </trkpt>
      <trkpt lat="44.74021" lon="5.03052">
        <ele>400</ele>
        <time>2020-02-07T14:44:12.000Z</time>
      </trkpt>
      <trkpt lat="44.7402" lon="5.03052">
        <ele>399</ele>
        <time>2020-02-07T14:44:13.000Z</time>
      </trkpt>
      <trkpt lat="44.74018" lon="5.03051">
        <ele>399</ele>
        <time>2020-02-07T14:44:14.000Z</time>
      </trkpt>
      <trkpt lat="44.74017" lon="5.03051">
        <ele>399</ele>
        <time>2020-02-07T14:44:15.000Z</time>
      </trkpt>
      <trkpt lat="44.74016" lon="5.0305">
        <ele>399</ele>
        <time>2020-02-07T14:44:16.000Z</time>
      </trkpt>
      <trkpt lat="44.74015" lon="5.0305">
        <ele>399</ele>
        <time>2020-02-07T14:44:17.000Z</time>
      </trkpt>
      <trkpt lat="44.74014" lon="5.0305">
        <ele>399</ele>
        <time>2020-02-07T14:44:18.000Z</time>
      </trkpt>
      <trkpt lat="44.74013" lon="5.0305">
        <ele>399</ele>
        <time>2020-02-07T14:44:19.000Z</time>
      </trkpt>
      <trkpt lat="44.74011" lon="5.0305">
        <ele>399</ele>
        <time>2020-02-07T14:44:20.000Z</time>
      </trkpt>
      <trkpt lat="44.7401" lon="5.0305">
        <ele>399</ele>
        <time>2020-02-07T14:44:21.000Z</time>
      </trkpt>
      <trkpt lat="44.74009" lon="5.0305">
        <ele>399</ele>
        <time>2020-02-07T14:44:22.000Z</time>
      </trkpt>
      <trkpt lat="44.74008" lon="5.0305">
        <ele>399</ele>
        <time>2020-02-07T14:44:23.000Z</time>
      </trkpt>
      <trkpt lat="44.74007" lon="5.0305">
        <ele>399</ele>
        <time>2020-02-07T14:44:24.000Z</time>
      </trkpt>
      <trkpt lat="44.74006" lon="5.03049">
        <ele>399</ele>
        <time>2020-02-07T14:44:25.000Z</time>
      </trkpt>
      <trkpt lat="44.74005" lon="5.03049">
        <ele>399</ele>
        <time>2020-02-07T14:44:26.000Z</time>
      </trkpt>
      <trkpt lat="44.74004" lon="5.0305">
        <ele>399</ele>
        <time>2020-02-07T14:44:27.000Z</time>
      </trkpt>
      <trkpt lat="44.74004" lon="5.0305">
        <ele>399</ele>
        <time>2020-02-07T14:44:28.000Z</time>
      </trkpt>
      <trkpt lat="44.74003" lon="5.0305">
        <ele>399</ele>
        <time>2020-02-07T14:44:29.000Z</time>
      </trkpt>
      <trkpt lat="44.74003" lon="5.0305">
        <ele>399</ele>
        <time>2020-02-07T14:44:30.000Z</time>
      </trkpt>
      <trkpt lat="44.74003" lon="5.0305">
        <ele>399</ele>
        <time>2020-02-07T14:44:31.000Z</time>
      </trkpt>
      <trkpt lat="44.74003" lon="5.0305">
        <ele>399</ele>
        <time>2020-02-07T14:44:32.000Z</time>
      </trkpt>
      <trkpt lat="44.74003" lon="5.0305">
        <ele>399</ele>
        <time>2020-02-07T14:44:33.000Z</time>
      </trkpt>
      <trkpt lat="44.74002" lon="5.0305">
        <ele>400</ele>
        <time>2020-02-07T14:44:34.000Z</time>
      </trkpt>
      <trkpt lat="44.74002" lon="5.03049">
        <ele>400</ele>
        <time>2020-02-07T14:44:35.000Z</time>
      </trkpt>
      <trkpt lat="44.74002" lon="5.03049">
        <ele>400</ele>
        <time>2020-02-07T14:44:36.000Z</time>
      </trkpt>
      <trkpt lat="44.74002" lon="5.03049">
        <ele>400</ele>
        <time>2020-02-07T14:44:37.000Z</time>
      </trkpt>
      <trkpt lat="44.74002" lon="5.03049">
        <ele>400</ele>
        <time>2020-02-07T14:44:38.000Z</time>
      </trkpt>
      <trkpt lat="44.74002" lon="5.03049">
        <ele>400</ele>
        <time>2020-02-07T14:44:39.000Z</time>
      </trkpt>
      <trkpt lat="44.74002" lon="5.03048">
        <ele>400</ele>
        <time>2020-02-07T14:44:40.000Z</time>
      </trkpt>
      <trkpt lat="44.74002" lon="5.03048">
        <ele>400</ele>
        <time>2020-02-07T14:44:41.000Z</time>
      </trkpt>
      <trkpt lat="44.74002" lon="5.03048">
        <ele>400</ele>
        <time>2020-02-07T14:44:42.000Z</time>
      </trkpt>
      <trkpt lat="44.74002" lon="5.03048">
        <ele>401</ele>
        <time>2020-02-07T14:44:43.000Z</time>
      </trkpt>
      <trkpt lat="44.74002" lon="5.03048">
        <ele>401</ele>
        <time>2020-02-07T14:44:44.000Z</time>
      </trkpt>
      <trkpt lat="44.74002" lon="5.03048">
        <ele>401</ele>
        <time>2020-02-07T14:44:45.000Z</time>
      </trkpt>
      <trkpt lat="44.74002" lon="5.03048">
        <ele>401</ele>
        <time>2020-02-07T14:44:46.000Z</time>
      </trkpt>
      <trkpt lat="44.74002" lon="5.03048">
        <ele>401</ele>
        <time>2020-02-07T14:44:47.000Z</time>
      </trkpt>
      <trkpt lat="44.74002" lon="5.03048">
        <ele>401</ele>
        <time>2020-02-07T14:44:48.000Z</time>
      </trkpt>
      <trkpt lat="44.74002" lon="5.03047">
        <ele>401</ele>
        <time>2020-02-07T14:44:49.000Z</time>
      </trkpt>
      <trkpt lat="44.74002" lon="5.03047">
        <ele>401</ele>
        <time>2020-02-07T14:44:50.000Z</time>
      </trkpt>
      <trkpt lat="44.74002" lon="5.03047">
        <ele>401</ele>
        <time>2020-02-07T14:44:51.000Z</time>
      </trkpt>
      <trkpt lat="44.74002" lon="5.03047">
        <ele>401</ele>
        <time>2020-02-07T14:44:52.000Z</time>
      </trkpt>
      <trkpt lat="44.74002" lon="5.03047">
        <ele>401</ele>
        <time>2020-02-07T14:44:53.000Z</time>
      </trkpt>
      <trkpt lat="44.74002" lon="5.03047">
        <ele>401</ele>
        <time>2020-02-07T14:44:54.000Z</time>
      </trkpt>
      <trkpt lat="44.74002" lon="5.03047">
        <ele>401</ele>
        <time>2020-02-07T14:44:55.000Z</time>
      </trkpt>
      <trkpt lat="44.74002" lon="5.03047">
        <ele>401</ele>
        <time>2020-02-07T14:44:56.000Z</time>
      </trkpt>
      <trkpt lat="44.74002" lon="5.03047">
        <ele>401</ele>
        <time>2020-02-07T14:44:57.000Z</time>
      </trkpt>
      <trkpt lat="44.74002" lon="5.03047">
        <ele>401</ele>
        <time>2020-02-07T14:44:58.000Z</time>
      </trkpt>
      <trkpt lat="44.74002" lon="5.03047">
        <ele>401</ele>
        <time>2020-02-07T14:44:59.000Z</time>
      </trkpt>
      <trkpt lat="44.74002" lon="5.03047">
        <ele>401</ele>
        <time>2020-02-07T14:45:00.000Z</time>
      </trkpt>
      <trkpt lat="44.74002" lon="5.03047">
        <ele>401</ele>
        <time>2020-02-07T14:45:01.000Z</time>
      </trkpt>
      <trkpt lat="44.74002" lon="5.03046">
        <ele>401</ele>
        <time>2020-02-07T14:45:02.000Z</time>
      </trkpt>
      <trkpt lat="44.74002" lon="5.03046">
        <ele>401</ele>
        <time>2020-02-07T14:45:03.000Z</time>
      </trkpt>
      <trkpt lat="44.74002" lon="5.03046">
        <ele>401</ele>
        <time>2020-02-07T14:45:04.000Z</time>
      </trkpt>
      <trkpt lat="44.74002" lon="5.03045">
        <ele>401</ele>
        <time>2020-02-07T14:45:05.000Z</time>
      </trkpt>
      <trkpt lat="44.74002" lon="5.03045">
        <ele>401</ele>
        <time>2020-02-07T14:45:06.000Z</time>
      </trkpt>
      <trkpt lat="44.74002" lon="5.03045">
        <ele>400</ele>
        <time>2020-02-07T14:45:07.000Z</time>
      </trkpt>
      <trkpt lat="44.74002" lon="5.03045">
        <ele>400</ele>
        <time>2020-02-07T14:45:08.000Z</time>
      </trkpt>
      <trkpt lat="44.74002" lon="5.03045">
        <ele>400</ele>
        <time>2020-02-07T14:45:09.000Z</time>
      </trkpt>
      <trkpt lat="44.74002" lon="5.03045">
        <ele>400</ele>
        <time>2020-02-07T14:45:10.000Z</time>
      </trkpt>
      <trkpt lat="44.74001" lon="5.03045">
        <ele>400</ele>
        <time>2020-02-07T14:45:11.000Z</time>
      </trkpt>
      <trkpt lat="44.74001" lon="5.03044">
        <ele>400</ele>
        <time>2020-02-07T14:45:12.000Z</time>
      </trkpt>
      <trkpt lat="44.74001" lon="5.03044">
        <ele>400</ele>
        <time>2020-02-07T14:45:13.000Z</time>
      </trkpt>
      <trkpt lat="44.74001" lon="5.03044">
        <ele>400</ele>
        <time>2020-02-07T14:45:14.000Z</time>
      </trkpt>
      <trkpt lat="44.74001" lon="5.03044">
        <ele>400</ele>
        <time>2020-02-07T14:45:15.000Z</time>
      </trkpt>
      <trkpt lat="44.74001" lon="5.03044">
        <ele>400</ele>
        <time>2020-02-07T14:45:16.000Z</time>
      </trkpt>
      <trkpt lat="44.74001" lon="5.03044">
        <ele>400</ele>
        <time>2020-02-07T14:45:17.000Z</time>
      </trkpt>
      <trkpt lat="44.74001" lon="5.03044">
        <ele>400</ele>
        <time>2020-02-07T14:45:18.000Z</time>
      </trkpt>
      <trkpt lat="44.74001" lon="5.03044">
        <ele>399</ele>
        <time>2020-02-07T14:45:19.000Z</time>
      </trkpt>
      <trkpt lat="44.74001" lon="5.03043">
        <ele>399</ele>
        <time>2020-02-07T14:45:20.000Z</time>
      </trkpt>
      <trkpt lat="44.74001" lon="5.03043">
        <ele>399</ele>
        <time>2020-02-07T14:45:21.000Z</time>
      </trkpt>
      <trkpt lat="44.74001" lon="5.03043">
        <ele>399</ele>
        <time>2020-02-07T14:45:22.000Z</time>
      </trkpt>
      <trkpt lat="44.74001" lon="5.03043">
        <ele>399</ele>
        <time>2020-02-07T14:45:23.000Z</time>
      </trkpt>
      <trkpt lat="44.74001" lon="5.03043">
        <ele>399</ele>
        <time>2020-02-07T14:45:24.000Z</time>
      </trkpt>
      <trkpt lat="44.74001" lon="5.03043">
        <ele>399</ele>
        <time>2020-02-07T14:45:25.000Z</time>
      </trkpt>
      <trkpt lat="44.74001" lon="5.03043">
        <ele>399</ele>
        <time>2020-02-07T14:45:26.000Z</time>
      </trkpt>
      <trkpt lat="44.74001" lon="5.03043">
        <ele>399</ele>
        <time>2020-02-07T14:45:27.000Z</time>
      </trkpt>
      <trkpt lat="44.74001" lon="5.03043">
        <ele>399</ele>
        <time>2020-02-07T14:45:28.000Z</time>
      </trkpt>
      <trkpt lat="44.74001" lon="5.03043">
        <ele>399</ele>
        <time>2020-02-07T14:45:29.000Z</time>
      </trkpt>
      <trkpt lat="44.74001" lon="5.03043">
        <ele>399</ele>
        <time>2020-02-07T14:45:30.000Z</time>
      </trkpt>
      <trkpt lat="44.74001" lon="5.03043">
        <ele>399</ele>
        <time>2020-02-07T14:45:31.000Z</time>
      </trkpt>
      <trkpt lat="44.74001" lon="5.03043">
        <ele>399</ele>
        <time>2020-02-07T14:45:32.000Z</time>
      </trkpt>
      <trkpt lat="44.74" lon="5.03043">
        <ele>399</ele>
        <time>2020-02-07T14:45:33.000Z</time>
      </trkpt>
      <trkpt lat="44.74001" lon="5.03042">
        <ele>399</ele>
        <time>2020-02-07T14:45:34.000Z</time>
      </trkpt>
      <trkpt lat="44.74001" lon="5.03042">
        <ele>398</ele>
        <time>2020-02-07T14:45:35.000Z</time>
      </trkpt>
      <trkpt lat="44.74001" lon="5.03042">
        <ele>398</ele>
        <time>2020-02-07T14:45:36.000Z</time>
      </trkpt>
      <trkpt lat="44.74" lon="5.03042">
        <ele>398</ele>
        <time>2020-02-07T14:45:37.000Z</time>
      </trkpt>
      <trkpt lat="44.74" lon="5.03042">
        <ele>398</ele>
        <time>2020-02-07T14:45:38.000Z</time>
      </trkpt>
      <trkpt lat="44.74" lon="5.03042">
        <ele>398</ele>
        <time>2020-02-07T14:45:39.000Z</time>
      </trkpt>
      <trkpt lat="44.74" lon="5.03042">
        <ele>398</ele>
        <time>2020-02-07T14:45:40.000Z</time>
      </trkpt>
      <trkpt lat="44.74" lon="5.03042">
        <ele>398</ele>
        <time>2020-02-07T14:45:41.000Z</time>
      </trkpt>
      <trkpt lat="44.74" lon="5.03042">
        <ele>398</ele>
        <time>2020-02-07T14:45:42.000Z</time>
      </trkpt>
      <trkpt lat="44.74" lon="5.03042">
        <ele>398</ele>
        <time>2020-02-07T14:45:43.000Z</time>
      </trkpt>
      <trkpt lat="44.74" lon="5.03041">
        <ele>398</ele>
        <time>2020-02-07T14:45:44.000Z</time>
      </trkpt>
      <trkpt lat="44.74001" lon="5.03042">
        <ele>398</ele>
        <time>2020-02-07T14:45:45.000Z</time>
      </trkpt>
      <trkpt lat="44.74001" lon="5.03042">
        <ele>397</ele>
        <time>2020-02-07T14:45:46.000Z</time>
      </trkpt>
      <trkpt lat="44.74001" lon="5.03042">
        <ele>397</ele>
        <time>2020-02-07T14:45:47.000Z</time>
      </trkpt>
      <trkpt lat="44.74001" lon="5.03042">
        <ele>397</ele>
        <time>2020-02-07T14:45:48.000Z</time>
      </trkpt>
      <trkpt lat="44.74001" lon="5.03042">
        <ele>397</ele>
        <time>2020-02-07T14:45:49.000Z</time>
      </trkpt>
      <trkpt lat="44.74001" lon="5.03042">
        <ele>397</ele>
        <time>2020-02-07T14:45:50.000Z</time>
      </trkpt>
      <trkpt lat="44.74001" lon="5.03042">
        <ele>397</ele>
        <time>2020-02-07T14:45:51.000Z</time>
      </trkpt>
      <trkpt lat="44.74001" lon="5.03042">
        <ele>397</ele>
        <time>2020-02-07T14:45:52.000Z</time>
      </trkpt>
      <trkpt lat="44.74001" lon="5.03042">
        <ele>397</ele>
        <time>2020-02-07T14:45:53.000Z</time>
      </trkpt>
      <trkpt lat="44.74001" lon="5.03042">
        <ele>397</ele>
        <time>2020-02-07T14:45:54.000Z</time>
      </trkpt>
      <trkpt lat="44.74001" lon="5.03041">
        <ele>397</ele>
        <time>2020-02-07T14:45:55.000Z</time>
      </trkpt>
      <trkpt lat="44.74001" lon="5.03041">
        <ele>397</ele>
        <time>2020-02-07T14:45:56.000Z</time>
      </trkpt>
      <trkpt lat="44.74001" lon="5.03041">
        <ele>397</ele>
        <time>2020-02-07T14:45:57.000Z</time>
      </trkpt>
      <trkpt lat="44.74001" lon="5.03041">
        <ele>397</ele>
        <time>2020-02-07T14:45:58.000Z</time>
      </trkpt>
      <trkpt lat="44.74001" lon="5.03041">
        <ele>397</ele>
        <time>2020-02-07T14:45:59.000Z</time>
      </trkpt>
      <trkpt lat="44.74001" lon="5.03041">
        <ele>397</ele>
        <time>2020-02-07T14:46:00.000Z</time>
      </trkpt>
      <trkpt lat="44.74001" lon="5.03041">
        <ele>397</ele>
        <time>2020-02-07T14:46:01.000Z</time>
      </trkpt>
      <trkpt lat="44.74001" lon="5.03041">
        <ele>397</ele>
        <time>2020-02-07T14:46:02.000Z</time>
      </trkpt>
      <trkpt lat="44.74001" lon="5.03041">
        <ele>397</ele>
        <time>2020-02-07T14:46:03.000Z</time>
      </trkpt>
      <trkpt lat="44.74001" lon="5.03041">
        <ele>397</ele>
        <time>2020-02-07T14:46:04.000Z</time>
      </trkpt>
      <trkpt lat="44.74001" lon="5.03041">
        <ele>397</ele>
        <time>2020-02-07T14:46:05.000Z</time>
      </trkpt>
      <trkpt lat="44.74001" lon="5.03041">
        <ele>397</ele>
        <time>2020-02-07T14:46:06.000Z</time>
      </trkpt>
      <trkpt lat="44.74001" lon="5.03041">
        <ele>397</ele>
        <time>2020-02-07T14:46:07.000Z</time>
      </trkpt>
      <trkpt lat="44.74001" lon="5.0304">
        <ele>397</ele>
        <time>2020-02-07T14:46:08.000Z</time>
      </trkpt>
      <trkpt lat="44.74001" lon="5.0304">
        <ele>397</ele>
        <time>2020-02-07T14:46:09.000Z</time>
      </trkpt>
      <trkpt lat="44.74001" lon="5.0304">
        <ele>397</ele>
        <time>2020-02-07T14:46:10.000Z</time>
      </trkpt>
      <trkpt lat="44.74001" lon="5.0304">
        <ele>397</ele>
        <time>2020-02-07T14:46:11.000Z</time>
      </trkpt>
      <trkpt lat="44.74001" lon="5.0304">
        <ele>397</ele>
        <time>2020-02-07T14:46:12.000Z</time>
      </trkpt>
      <trkpt lat="44.74001" lon="5.0304">
        <ele>397</ele>
        <time>2020-02-07T14:46:13.000Z</time>
      </trkpt>
      <trkpt lat="44.74001" lon="5.0304">
        <ele>397</ele>
        <time>2020-02-07T14:46:14.000Z</time>
      </trkpt>
      <trkpt lat="44.74001" lon="5.0304">
        <ele>397</ele>
        <time>2020-02-07T14:46:15.000Z</time>
      </trkpt>
      <trkpt lat="44.74001" lon="5.0304">
        <ele>397</ele>
        <time>2020-02-07T14:46:16.000Z</time>
      </trkpt>
      <trkpt lat="44.74001" lon="5.0304">
        <ele>397</ele>
        <time>2020-02-07T14:46:17.000Z</time>
      </trkpt>
      <trkpt lat="44.74001" lon="5.0304">
        <ele>397</ele>
        <time>2020-02-07T14:46:18.000Z</time>
      </trkpt>
      <trkpt lat="44.74001" lon="5.0304">
        <ele>397</ele>
        <time>2020-02-07T14:46:19.000Z</time>
      </trkpt>
      <trkpt lat="44.74001" lon="5.0304">
        <ele>397</ele>
        <time>2020-02-07T14:46:20.000Z</time>
      </trkpt>
      <trkpt lat="44.74001" lon="5.0304">
        <ele>397</ele>
        <time>2020-02-07T14:46:21.000Z</time>
      </trkpt>
      <trkpt lat="44.74001" lon="5.0304">
        <ele>397</ele>
        <time>2020-02-07T14:46:22.000Z</time>
      </trkpt>
      <trkpt lat="44.74002" lon="5.0304">
        <ele>397</ele>
        <time>2020-02-07T14:46:23.000Z</time>
      </trkpt>
      <trkpt lat="44.74002" lon="5.0304">
        <ele>397</ele>
        <time>2020-02-07T14:46:24.000Z</time>
      </trkpt>
      <trkpt lat="44.74002" lon="5.0304">
        <ele>397</ele>
        <time>2020-02-07T14:46:25.000Z</time>
      </trkpt>
      <trkpt lat="44.74002" lon="5.0304">
        <ele>397</ele>
        <time>2020-02-07T14:46:26.000Z</time>
      </trkpt>
      <trkpt lat="44.74002" lon="5.0304">
        <ele>397</ele>
        <time>2020-02-07T14:46:27.000Z</time>
      </trkpt>
      <trkpt lat="44.74002" lon="5.0304">
        <ele>397</ele>
        <time>2020-02-07T14:46:28.000Z</time>
      </trkpt>
      <trkpt lat="44.74002" lon="5.0304">
        <ele>397</ele>
        <time>2020-02-07T14:46:29.000Z</time>
      </trkpt>
      <trkpt lat="44.74002" lon="5.0304">
        <ele>397</ele>
        <time>2020-02-07T14:46:30.000Z</time>
      </trkpt>
      <trkpt lat="44.74002" lon="5.0304">
        <ele>397</ele>
        <time>2020-02-07T14:46:31.000Z</time>
      </trkpt>
      <trkpt lat="44.74002" lon="5.0304">
        <ele>397</ele>
        <time>2020-02-07T14:46:32.000Z</time>
      </trkpt>
      <trkpt lat="44.74002" lon="5.0304">
        <ele>397</ele>
        <time>2020-02-07T14:46:33.000Z</time>
      </trkpt>
      <trkpt lat="44.74002" lon="5.0304">
        <ele>397</ele>
        <time>2020-02-07T14:46:34.000Z</time>
      </trkpt>
      <trkpt lat="44.74002" lon="5.0304">
        <ele>397</ele>
        <time>2020-02-07T14:46:35.000Z</time>
      </trkpt>
      <trkpt lat="44.74002" lon="5.0304">
        <ele>397</ele>
        <time>2020-02-07T14:46:36.000Z</time>
      </trkpt>
      <trkpt lat="44.74002" lon="5.0304">
        <ele>397</ele>
        <time>2020-02-07T14:46:37.000Z</time>
      </trkpt>
      <trkpt lat="44.74002" lon="5.0304">
        <ele>397</ele>
        <time>2020-02-07T14:46:38.000Z</time>
      </trkpt>
      <trkpt lat="44.74002" lon="5.0304">
        <ele>397</ele>
        <time>2020-02-07T14:46:39.000Z</time>
      </trkpt>
      <trkpt lat="44.74002" lon="5.0304">
        <ele>397</ele>
        <time>2020-02-07T14:46:40.000Z</time>
      </trkpt>
      <trkpt lat="44.74002" lon="5.0304">
        <ele>397</ele>
        <time>2020-02-07T14:46:41.000Z</time>
      </trkpt>
      <trkpt lat="44.74002" lon="5.0304">
        <ele>397</ele>
        <time>2020-02-07T14:46:42.000Z</time>
      </trkpt>
      <trkpt lat="44.74002" lon="5.0304">
        <ele>397</ele>
        <time>2020-02-07T14:46:43.000Z</time>
      </trkpt>
      <trkpt lat="44.74002" lon="5.03039">
        <ele>397</ele>
        <time>2020-02-07T14:46:44.000Z</time>
      </trkpt>
      <trkpt lat="44.74002" lon="5.03039">
        <ele>397</ele>
        <time>2020-02-07T14:46:45.000Z</time>
      </trkpt>
      <trkpt lat="44.74002" lon="5.03039">
        <ele>397</ele>
        <time>2020-02-07T14:46:46.000Z</time>
      </trkpt>
      <trkpt lat="44.74002" lon="5.03039">
        <ele>397</ele>
        <time>2020-02-07T14:46:47.000Z</time>
      </trkpt>
      <trkpt lat="44.74002" lon="5.03039">
        <ele>397</ele>
        <time>2020-02-07T14:46:48.000Z</time>
      </trkpt>
      <trkpt lat="44.74002" lon="5.03039">
        <ele>397</ele>
        <time>2020-02-07T14:46:49.000Z</time>
      </trkpt>
      <trkpt lat="44.74002" lon="5.03039">
        <ele>397</ele>
        <time>2020-02-07T14:46:50.000Z</time>
      </trkpt>
      <trkpt lat="44.74002" lon="5.03039">
        <ele>397</ele>
        <time>2020-02-07T14:46:51.000Z</time>
      </trkpt>
      <trkpt lat="44.74002" lon="5.03039">
        <ele>397</ele>
        <time>2020-02-07T14:46:52.000Z</time>
      </trkpt>
      <trkpt lat="44.74002" lon="5.03039">
        <ele>397</ele>
        <time>2020-02-07T14:46:53.000Z</time>
      </trkpt>
      <trkpt lat="44.74002" lon="5.0304">
        <ele>397</ele>
        <time>2020-02-07T14:46:54.000Z</time>
      </trkpt>
      <trkpt lat="44.74002" lon="5.03039">
        <ele>397</ele>
        <time>2020-02-07T14:46:55.000Z</time>
      </trkpt>
      <trkpt lat="44.74002" lon="5.03039">
        <ele>397</ele>
        <time>2020-02-07T14:46:56.000Z</time>
      </trkpt>
      <trkpt lat="44.74002" lon="5.03039">
        <ele>397</ele>
        <time>2020-02-07T14:46:57.000Z</time>
      </trkpt>
      <trkpt lat="44.74002" lon="5.03039">
        <ele>397</ele>
        <time>2020-02-07T14:46:58.000Z</time>
      </trkpt>
      <trkpt lat="44.74002" lon="5.03039">
        <ele>397</ele>
        <time>2020-02-07T14:46:59.000Z</time>
      </trkpt>
      <trkpt lat="44.74002" lon="5.03039">
        <ele>397</ele>
        <time>2020-02-07T14:47:00.000Z</time>
      </trkpt>
      <trkpt lat="44.74002" lon="5.03039">
        <ele>397</ele>
        <time>2020-02-07T14:47:01.000Z</time>
      </trkpt>
      <trkpt lat="44.74002" lon="5.03039">
        <ele>397</ele>
        <time>2020-02-07T14:47:02.000Z</time>
      </trkpt>
      <trkpt lat="44.74003" lon="5.03039">
        <ele>397</ele>
        <time>2020-02-07T14:47:03.000Z</time>
      </trkpt>
      <trkpt lat="44.74003" lon="5.03039">
        <ele>397</ele>
        <time>2020-02-07T14:47:04.000Z</time>
      </trkpt>
      <trkpt lat="44.74003" lon="5.03039">
        <ele>397</ele>
        <time>2020-02-07T14:47:05.000Z</time>
      </trkpt>
      <trkpt lat="44.74003" lon="5.03039">
        <ele>397</ele>
        <time>2020-02-07T14:47:06.000Z</time>
      </trkpt>
      <trkpt lat="44.74003" lon="5.03038">
        <ele>397</ele>
        <time>2020-02-07T14:47:07.000Z</time>
      </trkpt>
      <trkpt lat="44.74003" lon="5.03038">
        <ele>397</ele>
        <time>2020-02-07T14:47:08.000Z</time>
      </trkpt>
      <trkpt lat="44.74003" lon="5.03038">
        <ele>397</ele>
        <time>2020-02-07T14:47:09.000Z</time>
      </trkpt>
      <trkpt lat="44.74003" lon="5.03038">
        <ele>397</ele>
        <time>2020-02-07T14:47:10.000Z</time>
      </trkpt>
      <trkpt lat="44.74003" lon="5.03038">
        <ele>397</ele>
        <time>2020-02-07T14:47:11.000Z</time>
      </trkpt>
      <trkpt lat="44.74003" lon="5.03038">
        <ele>397</ele>
        <time>2020-02-07T14:47:12.000Z</time>
      </trkpt>
      <trkpt lat="44.74003" lon="5.03038">
        <ele>397</ele>
        <time>2020-02-07T14:47:13.000Z</time>
      </trkpt>
      <trkpt lat="44.74003" lon="5.03038">
        <ele>397</ele>
        <time>2020-02-07T14:47:14.000Z</time>
      </trkpt>
      <trkpt lat="44.74003" lon="5.03038">
        <ele>397</ele>
        <time>2020-02-07T14:47:15.000Z</time>
      </trkpt>
      <trkpt lat="44.74003" lon="5.03038">
        <ele>397</ele>
        <time>2020-02-07T14:47:16.000Z</time>
      </trkpt>
      <trkpt lat="44.74003" lon="5.03038">
        <ele>398</ele>
        <time>2020-02-07T14:47:17.000Z</time>
      </trkpt>
      <trkpt lat="44.74003" lon="5.03038">
        <ele>398</ele>
        <time>2020-02-07T14:47:18.000Z</time>
      </trkpt>
      <trkpt lat="44.74003" lon="5.03038">
        <ele>398</ele>
        <time>2020-02-07T14:47:19.000Z</time>
      </trkpt>
      <trkpt lat="44.74003" lon="5.03038">
        <ele>398</ele>
        <time>2020-02-07T14:47:20.000Z</time>
      </trkpt>
      <trkpt lat="44.74003" lon="5.03038">
        <ele>398</ele>
        <time>2020-02-07T14:47:21.000Z</time>
      </trkpt>
      <trkpt lat="44.74003" lon="5.03038">
        <ele>398</ele>
        <time>2020-02-07T14:47:22.000Z</time>
      </trkpt>
      <trkpt lat="44.74003" lon="5.03038">
        <ele>398</ele>
        <time>2020-02-07T14:47:23.000Z</time>
      </trkpt>
      <trkpt lat="44.74003" lon="5.03038">
        <ele>398</ele>
        <time>2020-02-07T14:47:24.000Z</time>
      </trkpt>
      <trkpt lat="44.74003" lon="5.03038">
        <ele>398</ele>
        <time>2020-02-07T14:47:25.000Z</time>
      </trkpt>
      <trkpt lat="44.74003" lon="5.03038">
        <ele>398</ele>
        <time>2020-02-07T14:47:26.000Z</time>
      </trkpt>
      <trkpt lat="44.74003" lon="5.03038">
        <ele>398</ele>
        <time>2020-02-07T14:47:27.000Z</time>
      </trkpt>
      <trkpt lat="44.74003" lon="5.03038">
        <ele>398</ele>
        <time>2020-02-07T14:47:28.000Z</time>
      </trkpt>
      <trkpt lat="44.74003" lon="5.03038">
        <ele>398</ele>
        <time>2020-02-07T14:47:29.000Z</time>
      </trkpt>
      <trkpt lat="44.74003" lon="5.03038">
        <ele>398</ele>
        <time>2020-02-07T14:47:30.000Z</time>
      </trkpt>
      <trkpt lat="44.74003" lon="5.03038">
        <ele>398</ele>
        <time>2020-02-07T14:47:31.000Z</time>
      </trkpt>
      <trkpt lat="44.74003" lon="5.03038">
        <ele>398</ele>
        <time>2020-02-07T14:47:32.000Z</time>
      </trkpt>
      <trkpt lat="44.74003" lon="5.03038">
        <ele>398</ele>
        <time>2020-02-07T14:47:33.000Z</time>
      </trkpt>
      <trkpt lat="44.74003" lon="5.03038">
        <ele>398</ele>
        <time>2020-02-07T14:47:34.000Z</time>
      </trkpt>
      <trkpt lat="44.74003" lon="5.03038">
        <ele>398</ele>
        <time>2020-02-07T14:47:35.000Z</time>
      </trkpt>
      <trkpt lat="44.74003" lon="5.03038">
        <ele>398</ele>
        <time>2020-02-07T14:47:36.000Z</time>
      </trkpt>
      <trkpt lat="44.74003" lon="5.03038">
        <ele>398</ele>
        <time>2020-02-07T14:47:37.000Z</time>
      </trkpt>
      <trkpt lat="44.74003" lon="5.03038">
        <ele>398</ele>
        <time>2020-02-07T14:47:38.000Z</time>
      </trkpt>
      <trkpt lat="44.74003" lon="5.03038">
        <ele>398</ele>
        <time>2020-02-07T14:47:39.000Z</time>
      </trkpt>
      <trkpt lat="44.74003" lon="5.03038">
        <ele>398</ele>
        <time>2020-02-07T14:47:40.000Z</time>
      </trkpt>
      <trkpt lat="44.74003" lon="5.03038">
        <ele>398</ele>
        <time>2020-02-07T14:47:41.000Z</time>
      </trkpt>
      <trkpt lat="44.74003" lon="5.03039">
        <ele>398</ele>
        <time>2020-02-07T14:47:42.000Z</time>
      </trkpt>
      <trkpt lat="44.74003" lon="5.03038">
        <ele>398</ele>
        <time>2020-02-07T14:47:43.000Z</time>
      </trkpt>
      <trkpt lat="44.74003" lon="5.03038">
        <ele>398</ele>
        <time>2020-02-07T14:47:44.000Z</time>
      </trkpt>
      <trkpt lat="44.74003" lon="5.03038">
        <ele>398</ele>
        <time>2020-02-07T14:47:45.000Z</time>
      </trkpt>
      <trkpt lat="44.74003" lon="5.03038">
        <ele>398</ele>
        <time>2020-02-07T14:47:46.000Z</time>
      </trkpt>
      <trkpt lat="44.74003" lon="5.03039">
        <ele>398</ele>
        <time>2020-02-07T14:47:47.000Z</time>
      </trkpt>
      <trkpt lat="44.74003" lon="5.03039">
        <ele>398</ele>
        <time>2020-02-07T14:47:48.000Z</time>
      </trkpt>
      <trkpt lat="44.74003" lon="5.03039">
        <ele>398</ele>
        <time>2020-02-07T14:47:49.000Z</time>
      </trkpt>
      <trkpt lat="44.74003" lon="5.03039">
        <ele>398</ele>
        <time>2020-02-07T14:47:50.000Z</time>
      </trkpt>
      <trkpt lat="44.74003" lon="5.03039">
        <ele>398</ele>
        <time>2020-02-07T14:47:51.000Z</time>
      </trkpt>
      <trkpt lat="44.74003" lon="5.03039">
        <ele>398</ele>
        <time>2020-02-07T14:47:52.000Z</time>
      </trkpt>
      <trkpt lat="44.74003" lon="5.03039">
        <ele>398</ele>
        <time>2020-02-07T14:47:53.000Z</time>
      </trkpt>
      <trkpt lat="44.74003" lon="5.03039">
        <ele>398</ele>
        <time>2020-02-07T14:47:54.000Z</time>
      </trkpt>
      <trkpt lat="44.74003" lon="5.03039">
        <ele>398</ele>
        <time>2020-02-07T14:47:55.000Z</time>
      </trkpt>
      <trkpt lat="44.74002" lon="5.03039">
        <ele>398</ele>
        <time>2020-02-07T14:47:56.000Z</time>
      </trkpt>
      <trkpt lat="44.74002" lon="5.03039">
        <ele>398</ele>
        <time>2020-02-07T14:47:57.000Z</time>
      </trkpt>
      <trkpt lat="44.74002" lon="5.03039">
        <ele>398</ele>
        <time>2020-02-07T14:47:58.000Z</time>
      </trkpt>
      <trkpt lat="44.74002" lon="5.03039">
        <ele>398</ele>
        <time>2020-02-07T14:47:59.000Z</time>
      </trkpt>
      <trkpt lat="44.74002" lon="5.03039">
        <ele>398</ele>
        <time>2020-02-07T14:48:00.000Z</time>
      </trkpt>
      <trkpt lat="44.74002" lon="5.03039">
        <ele>398</ele>
        <time>2020-02-07T14:48:01.000Z</time>
      </trkpt>
      <trkpt lat="44.74002" lon="5.03039">
        <ele>398</ele>
        <time>2020-02-07T14:48:02.000Z</time>
      </trkpt>
      <trkpt lat="44.74002" lon="5.03039">
        <ele>398</ele>
        <time>2020-02-07T14:48:03.000Z</time>
      </trkpt>
      <trkpt lat="44.74002" lon="5.03039">
        <ele>399</ele>
        <time>2020-02-07T14:48:04.000Z</time>
      </trkpt>
      <trkpt lat="44.74002" lon="5.03039">
        <ele>399</ele>
        <time>2020-02-07T14:48:05.000Z</time>
      </trkpt>
      <trkpt lat="44.74002" lon="5.03039">
        <ele>399</ele>
        <time>2020-02-07T14:48:06.000Z</time>
      </trkpt>
      <trkpt lat="44.74002" lon="5.03039">
        <ele>399</ele>
        <time>2020-02-07T14:48:07.000Z</time>
      </trkpt>
      <trkpt lat="44.74002" lon="5.03039">
        <ele>399</ele>
        <time>2020-02-07T14:48:08.000Z</time>
      </trkpt>
      <trkpt lat="44.74002" lon="5.03039">
        <ele>399</ele>
        <time>2020-02-07T14:48:09.000Z</time>
      </trkpt>
      <trkpt lat="44.74002" lon="5.03039">
        <ele>399</ele>
        <time>2020-02-07T14:48:10.000Z</time>
      </trkpt>
      <trkpt lat="44.74002" lon="5.03039">
        <ele>399</ele>
        <time>2020-02-07T14:48:11.000Z</time>
      </trkpt>
      <trkpt lat="44.74002" lon="5.03039">
        <ele>399</ele>
        <time>2020-02-07T14:48:12.000Z</time>
      </trkpt>
      <trkpt lat="44.74001" lon="5.03039">
        <ele>399</ele>
        <time>2020-02-07T14:48:13.000Z</time>
      </trkpt>
      <trkpt lat="44.74001" lon="5.03039">
        <ele>399</ele>
        <time>2020-02-07T14:48:14.000Z</time>
      </trkpt>
      <trkpt lat="44.74001" lon="5.03039">
        <ele>399</ele>
        <time>2020-02-07T14:48:15.000Z</time>
      </trkpt>
      <trkpt lat="44.74001" lon="5.03039">
        <ele>399</ele>
        <time>2020-02-07T14:48:16.000Z</time>
      </trkpt>
      <trkpt lat="44.74001" lon="5.03039">
        <ele>399</ele>
        <time>2020-02-07T14:48:17.000Z</time>
      </trkpt>
      <trkpt lat="44.74001" lon="5.03039">
        <ele>399</ele>
        <time>2020-02-07T14:48:18.000Z</time>
      </trkpt>
      <trkpt lat="44.74001" lon="5.03039">
        <ele>399</ele>
        <time>2020-02-07T14:48:19.000Z</time>
      </trkpt>
      <trkpt lat="44.74001" lon="5.03039">
        <ele>399</ele>
        <time>2020-02-07T14:48:20.000Z</time>
      </trkpt>
      <trkpt lat="44.74001" lon="5.03039">
        <ele>399</ele>
        <time>2020-02-07T14:48:21.000Z</time>
      </trkpt>
      <trkpt lat="44.74001" lon="5.03039">
        <ele>399</ele>
        <time>2020-02-07T14:48:22.000Z</time>
      </trkpt>
      <trkpt lat="44.74001" lon="5.03039">
        <ele>399</ele>
        <time>2020-02-07T14:48:23.000Z</time>
      </trkpt>
      <trkpt lat="44.74001" lon="5.03039">
        <ele>399</ele>
        <time>2020-02-07T14:48:24.000Z</time>
      </trkpt>
      <trkpt lat="44.74001" lon="5.03039">
        <ele>399</ele>
        <time>2020-02-07T14:48:25.000Z</time>
      </trkpt>
      <trkpt lat="44.74001" lon="5.03039">
        <ele>399</ele>
        <time>2020-02-07T14:48:26.000Z</time>
      </trkpt>
      <trkpt lat="44.74001" lon="5.03039">
        <ele>399</ele>
        <time>2020-02-07T14:48:27.000Z</time>
      </trkpt>
      <trkpt lat="44.74001" lon="5.03039">
        <ele>399</ele>
        <time>2020-02-07T14:48:28.000Z</time>
      </trkpt>
      <trkpt lat="44.74001" lon="5.03039">
        <ele>399</ele>
        <time>2020-02-07T14:48:29.000Z</time>
      </trkpt>
      <trkpt lat="44.74001" lon="5.03039">
        <ele>399</ele>
        <time>2020-02-07T14:48:30.000Z</time>
      </trkpt>
      <trkpt lat="44.74001" lon="5.03039">
        <ele>399</ele>
        <time>2020-02-07T14:48:31.000Z</time>
      </trkpt>
      <trkpt lat="44.74001" lon="5.03039">
        <ele>399</ele>
        <time>2020-02-07T14:48:32.000Z</time>
      </trkpt>
      <trkpt lat="44.74001" lon="5.03039">
        <ele>399</ele>
        <time>2020-02-07T14:48:33.000Z</time>
      </trkpt>
      <trkpt lat="44.74001" lon="5.03039">
        <ele>399</ele>
        <time>2020-02-07T14:48:34.000Z</time>
      </trkpt>
      <trkpt lat="44.74001" lon="5.0304">
        <ele>399</ele>
        <time>2020-02-07T14:48:35.000Z</time>
      </trkpt>
      <trkpt lat="44.74001" lon="5.0304">
        <ele>399</ele>
        <time>2020-02-07T14:48:36.000Z</time>
      </trkpt>
      <trkpt lat="44.74001" lon="5.0304">
        <ele>399</ele>
        <time>2020-02-07T14:48:37.000Z</time>
      </trkpt>
      <trkpt lat="44.74001" lon="5.0304">
        <ele>399</ele>
        <time>2020-02-07T14:48:38.000Z</time>
      </trkpt>
      <trkpt lat="44.74001" lon="5.0304">
        <ele>399</ele>
        <time>2020-02-07T14:48:39.000Z</time>
      </trkpt>
      <trkpt lat="44.74001" lon="5.0304">
        <ele>399</ele>
        <time>2020-02-07T14:48:40.000Z</time>
      </trkpt>
      <trkpt lat="44.74001" lon="5.0304">
        <ele>399</ele>
        <time>2020-02-07T14:48:41.000Z</time>
      </trkpt>
      <trkpt lat="44.74001" lon="5.0304">
        <ele>399</ele>
        <time>2020-02-07T14:48:42.000Z</time>
      </trkpt>
      <trkpt lat="44.74001" lon="5.0304">
        <ele>399</ele>
        <time>2020-02-07T14:48:43.000Z</time>
      </trkpt>
      <trkpt lat="44.74001" lon="5.0304">
        <ele>399</ele>
        <time>2020-02-07T14:48:44.000Z</time>
      </trkpt>
      <trkpt lat="44.74001" lon="5.0304">
        <ele>399</ele>
        <time>2020-02-07T14:48:45.000Z</time>
      </trkpt>
      <trkpt lat="44.74001" lon="5.0304">
        <ele>399</ele>
        <time>2020-02-07T14:48:46.000Z</time>
      </trkpt>
      <trkpt lat="44.74001" lon="5.0304">
        <ele>399</ele>
        <time>2020-02-07T14:48:47.000Z</time>
      </trkpt>
      <trkpt lat="44.74001" lon="5.0304">
        <ele>399</ele>
        <time>2020-02-07T14:48:48.000Z</time>
      </trkpt>
      <trkpt lat="44.74001" lon="5.0304">
        <ele>399</ele>
        <time>2020-02-07T14:48:49.000Z</time>
      </trkpt>
      <trkpt lat="44.74001" lon="5.0304">
        <ele>399</ele>
        <time>2020-02-07T14:48:50.000Z</time>
      </trkpt>
      <trkpt lat="44.74001" lon="5.0304">
        <ele>399</ele>
        <time>2020-02-07T14:48:51.000Z</time>
      </trkpt>
      <trkpt lat="44.74001" lon="5.0304">
        <ele>399</ele>
        <time>2020-02-07T14:48:52.000Z</time>
      </trkpt>
      <trkpt lat="44.74001" lon="5.0304">
        <ele>399</ele>
        <time>2020-02-07T14:48:53.000Z</time>
      </trkpt>
      <trkpt lat="44.74001" lon="5.0304">
        <ele>399</ele>
        <time>2020-02-07T14:48:54.000Z</time>
      </trkpt>
      <trkpt lat="44.74001" lon="5.0304">
        <ele>399</ele>
        <time>2020-02-07T14:48:55.000Z</time>
      </trkpt>
      <trkpt lat="44.74001" lon="5.0304">
        <ele>399</ele>
        <time>2020-02-07T14:48:56.000Z</time>
      </trkpt>
      <trkpt lat="44.74001" lon="5.0304">
        <ele>399</ele>
        <time>2020-02-07T14:48:57.000Z</time>
      </trkpt>
      <trkpt lat="44.74001" lon="5.0304">
        <ele>399</ele>
        <time>2020-02-07T14:48:58.000Z</time>
      </trkpt>
      <trkpt lat="44.74001" lon="5.0304">
        <ele>399</ele>
        <time>2020-02-07T14:48:59.000Z</time>
      </trkpt>
      <trkpt lat="44.74001" lon="5.0304">
        <ele>399</ele>
        <time>2020-02-07T14:49:00.000Z</time>
      </trkpt>
      <trkpt lat="44.74001" lon="5.0304">
        <ele>399</ele>
        <time>2020-02-07T14:49:01.000Z</time>
      </trkpt>
      <trkpt lat="44.74001" lon="5.0304">
        <ele>399</ele>
        <time>2020-02-07T14:49:02.000Z</time>
      </trkpt>
      <trkpt lat="44.74001" lon="5.0304">
        <ele>399</ele>
        <time>2020-02-07T14:49:03.000Z</time>
      </trkpt>
      <trkpt lat="44.74001" lon="5.0304">
        <ele>399</ele>
        <time>2020-02-07T14:49:04.000Z</time>
      </trkpt>
      <trkpt lat="44.74001" lon="5.0304">
        <ele>399</ele>
        <time>2020-02-07T14:49:05.000Z</time>
      </trkpt>
      <trkpt lat="44.74001" lon="5.0304">
        <ele>399</ele>
        <time>2020-02-07T14:49:06.000Z</time>
      </trkpt>
      <trkpt lat="44.74" lon="5.03041">
        <ele>399</ele>
        <time>2020-02-07T14:49:07.000Z</time>
      </trkpt>
      <trkpt lat="44.74" lon="5.03041">
        <ele>399</ele>
        <time>2020-02-07T14:49:08.000Z</time>
      </trkpt>
      <trkpt lat="44.74" lon="5.03041">
        <ele>399</ele>
        <time>2020-02-07T14:49:09.000Z</time>
      </trkpt>
      <trkpt lat="44.74" lon="5.03041">
        <ele>399</ele>
        <time>2020-02-07T14:49:10.000Z</time>
      </trkpt>
      <trkpt lat="44.74001" lon="5.03041">
        <ele>399</ele>
        <time>2020-02-07T14:49:11.000Z</time>
      </trkpt>
      <trkpt lat="44.74" lon="5.03041">
        <ele>399</ele>
        <time>2020-02-07T14:49:12.000Z</time>
      </trkpt>
      <trkpt lat="44.74" lon="5.03041">
        <ele>399</ele>
        <time>2020-02-07T14:49:13.000Z</time>
      </trkpt>
      <trkpt lat="44.74" lon="5.03041">
        <ele>399</ele>
        <time>2020-02-07T14:49:14.000Z</time>
      </trkpt>
      <trkpt lat="44.74" lon="5.03041">
        <ele>399</ele>
        <time>2020-02-07T14:49:15.000Z</time>
      </trkpt>
      <trkpt lat="44.74" lon="5.03041">
        <ele>399</ele>
        <time>2020-02-07T14:49:16.000Z</time>
      </trkpt>
      <trkpt lat="44.74" lon="5.03041">
        <ele>399</ele>
        <time>2020-02-07T14:49:17.000Z</time>
      </trkpt>
      <trkpt lat="44.74" lon="5.03042">
        <ele>399</ele>
        <time>2020-02-07T14:49:18.000Z</time>
      </trkpt>
      <trkpt lat="44.74" lon="5.03041">
        <ele>400</ele>
        <time>2020-02-07T14:49:19.000Z</time>
      </trkpt>
      <trkpt lat="44.74" lon="5.03041">
        <ele>400</ele>
        <time>2020-02-07T14:49:20.000Z</time>
      </trkpt>
      <trkpt lat="44.74" lon="5.03041">
        <ele>400</ele>
        <time>2020-02-07T14:49:21.000Z</time>
      </trkpt>
      <trkpt lat="44.74" lon="5.03042">
        <ele>400</ele>
        <time>2020-02-07T14:49:22.000Z</time>
      </trkpt>
      <trkpt lat="44.74" lon="5.03042">
        <ele>400</ele>
        <time>2020-02-07T14:49:23.000Z</time>
      </trkpt>
      <trkpt lat="44.74" lon="5.03042">
        <ele>400</ele>
        <time>2020-02-07T14:49:24.000Z</time>
      </trkpt>
      <trkpt lat="44.74" lon="5.03042">
        <ele>400</ele>
        <time>2020-02-07T14:49:25.000Z</time>
      </trkpt>
      <trkpt lat="44.74" lon="5.03042">
        <ele>400</ele>
        <time>2020-02-07T14:49:26.000Z</time>
      </trkpt>
      <trkpt lat="44.74" lon="5.03042">
        <ele>400</ele>
        <time>2020-02-07T14:49:27.000Z</time>
      </trkpt>
      <trkpt lat="44.74" lon="5.03042">
        <ele>400</ele>
        <time>2020-02-07T14:49:28.000Z</time>
      </trkpt>
      <trkpt lat="44.74" lon="5.03042">
        <ele>400</ele>
        <time>2020-02-07T14:49:29.000Z</time>
      </trkpt>
      <trkpt lat="44.74" lon="5.03042">
        <ele>400</ele>
        <time>2020-02-07T14:49:30.000Z</time>
      </trkpt>
      <trkpt lat="44.74" lon="5.03042">
        <ele>400</ele>
        <time>2020-02-07T14:49:31.000Z</time>
      </trkpt>
      <trkpt lat="44.74" lon="5.03042">
        <ele>400</ele>
        <time>2020-02-07T14:49:32.000Z</time>
      </trkpt>
      <trkpt lat="44.74" lon="5.03042">
        <ele>400</ele>
        <time>2020-02-07T14:49:33.000Z</time>
      </trkpt>
      <trkpt lat="44.74" lon="5.03042">
        <ele>400</ele>
        <time>2020-02-07T14:49:34.000Z</time>
      </trkpt>
      <trkpt lat="44.74" lon="5.03042">
        <ele>400</ele>
        <time>2020-02-07T14:49:35.000Z</time>
      </trkpt>
      <trkpt lat="44.74" lon="5.03042">
        <ele>400</ele>
        <time>2020-02-07T14:49:36.000Z</time>
      </trkpt>
      <trkpt lat="44.74" lon="5.03042">
        <ele>400</ele>
        <time>2020-02-07T14:49:37.000Z</time>
      </trkpt>
      <trkpt lat="44.74" lon="5.03042">
        <ele>400</ele>
        <time>2020-02-07T14:49:38.000Z</time>
      </trkpt>
      <trkpt lat="44.74" lon="5.03042">
        <ele>400</ele>
        <time>2020-02-07T14:49:39.000Z</time>
      </trkpt>
      <trkpt lat="44.74" lon="5.03042">
        <ele>400</ele>
        <time>2020-02-07T14:49:40.000Z</time>
      </trkpt>
      <trkpt lat="44.74" lon="5.03042">
        <ele>400</ele>
        <time>2020-02-07T14:49:41.000Z</time>
      </trkpt>
      <trkpt lat="44.74" lon="5.03042">
        <ele>400</ele>
        <time>2020-02-07T14:49:42.000Z</time>
      </trkpt>
      <trkpt lat="44.74" lon="5.03042">
        <ele>400</ele>
        <time>2020-02-07T14:49:43.000Z</time>
      </trkpt>
      <trkpt lat="44.74" lon="5.03042">
        <ele>400</ele>
        <time>2020-02-07T14:49:44.000Z</time>
      </trkpt>
      <trkpt lat="44.74" lon="5.03042">
        <ele>400</ele>
        <time>2020-02-07T14:49:45.000Z</time>
      </trkpt>
      <trkpt lat="44.74" lon="5.03042">
        <ele>400</ele>
        <time>2020-02-07T14:49:46.000Z</time>
      </trkpt>
      <trkpt lat="44.74" lon="5.03042">
        <ele>400</ele>
        <time>2020-02-07T14:49:47.000Z</time>
      </trkpt>
      <trkpt lat="44.74" lon="5.03042">
        <ele>400</ele>
        <time>2020-02-07T14:49:48.000Z</time>
      </trkpt>
      <trkpt lat="44.74" lon="5.03042">
        <ele>400</ele>
        <time>2020-02-07T14:49:49.000Z</time>
      </trkpt>
      <trkpt lat="44.74" lon="5.03042">
        <ele>400</ele>
        <time>2020-02-07T14:49:50.000Z</time>
      </trkpt>
      <trkpt lat="44.74" lon="5.03042">
        <ele>400</ele>
        <time>2020-02-07T14:49:51.000Z</time>
      </trkpt>
      <trkpt lat="44.74" lon="5.03042">
        <ele>400</ele>
        <time>2020-02-07T14:49:52.000Z</time>
      </trkpt>
      <trkpt lat="44.74" lon="5.03042">
        <ele>400</ele>
        <time>2020-02-07T14:49:53.000Z</time>
      </trkpt>
      <trkpt lat="44.74" lon="5.03042">
        <ele>400</ele>
        <time>2020-02-07T14:49:54.000Z</time>
      </trkpt>
      <trkpt lat="44.74" lon="5.03042">
        <ele>400</ele>
        <time>2020-02-07T14:49:55.000Z</time>
      </trkpt>
      <trkpt lat="44.74" lon="5.03042">
        <ele>400</ele>
        <time>2020-02-07T14:49:56.000Z</time>
      </trkpt>
      <trkpt lat="44.74" lon="5.03042">
        <ele>400</ele>
        <time>2020-02-07T14:49:57.000Z</time>
      </trkpt>
      <trkpt lat="44.74" lon="5.03042">
        <ele>400</ele>
        <time>2020-02-07T14:49:58.000Z</time>
      </trkpt>
      <trkpt lat="44.74" lon="5.03042">
        <ele>400</ele>
        <time>2020-02-07T14:49:59.000Z</time>
      </trkpt>
      <trkpt lat="44.74" lon="5.03042">
        <ele>400</ele>
        <time>2020-02-07T14:50:00.000Z</time>
      </trkpt>
      <trkpt lat="44.74" lon="5.03042">
        <ele>400</ele>
        <time>2020-02-07T14:50:01.000Z</time>
      </trkpt>
      <trkpt lat="44.74" lon="5.03042">
        <ele>400</ele>
        <time>2020-02-07T14:50:02.000Z</time>
      </trkpt>
      <trkpt lat="44.74" lon="5.03042">
        <ele>400</ele>
        <time>2020-02-07T14:50:03.000Z</time>
      </trkpt>
      <trkpt lat="44.74" lon="5.03042">
        <ele>400</ele>
        <time>2020-02-07T14:50:04.000Z</time>
      </trkpt>
      <trkpt lat="44.74" lon="5.03042">
        <ele>400</ele>
        <time>2020-02-07T14:50:05.000Z</time>
      </trkpt>
      <trkpt lat="44.74" lon="5.03042">
        <ele>400</ele>
        <time>2020-02-07T14:50:06.000Z</time>
      </trkpt>
      <trkpt lat="44.74" lon="5.03042">
        <ele>400</ele>
        <time>2020-02-07T14:50:07.000Z</time>
      </trkpt>
      <trkpt lat="44.74" lon="5.03042">
        <ele>400</ele>
        <time>2020-02-07T14:50:08.000Z</time>
      </trkpt>
      <trkpt lat="44.74" lon="5.03042">
        <ele>400</ele>
        <time>2020-02-07T14:50:09.000Z</time>
      </trkpt>
      <trkpt lat="44.74" lon="5.03042">
        <ele>400</ele>
        <time>2020-02-07T14:50:10.000Z</time>
      </trkpt>
      <trkpt lat="44.74" lon="5.03042">
        <ele>400</ele>
        <time>2020-02-07T14:50:11.000Z</time>
      </trkpt>
      <trkpt lat="44.74" lon="5.03042">
        <ele>400</ele>
        <time>2020-02-07T14:50:12.000Z</time>
      </trkpt>
      <trkpt lat="44.74" lon="5.03042">
        <ele>400</ele>
        <time>2020-02-07T14:50:13.000Z</time>
      </trkpt>
      <trkpt lat="44.74" lon="5.03042">
        <ele>400</ele>
        <time>2020-02-07T14:50:14.000Z</time>
      </trkpt>
      <trkpt lat="44.74" lon="5.03042">
        <ele>400</ele>
        <time>2020-02-07T14:50:15.000Z</time>
      </trkpt>
      <trkpt lat="44.74" lon="5.03042">
        <ele>400</ele>
        <time>2020-02-07T14:50:16.000Z</time>
      </trkpt>
      <trkpt lat="44.74" lon="5.03042">
        <ele>400</ele>
        <time>2020-02-07T14:50:17.000Z</time>
      </trkpt>
      <trkpt lat="44.74" lon="5.03042">
        <ele>400</ele>
        <time>2020-02-07T14:50:18.000Z</time>
      </trkpt>
      <trkpt lat="44.74" lon="5.03042">
        <ele>400</ele>
        <time>2020-02-07T14:50:19.000Z</time>
      </trkpt>
      <trkpt lat="44.74" lon="5.03042">
        <ele>400</ele>
        <time>2020-02-07T14:50:20.000Z</time>
      </trkpt>
      <trkpt lat="44.74" lon="5.03042">
        <ele>400</ele>
        <time>2020-02-07T14:50:21.000Z</time>
      </trkpt>
      <trkpt lat="44.74" lon="5.03042">
        <ele>400</ele>
        <time>2020-02-07T14:50:22.000Z</time>
      </trkpt>
      <trkpt lat="44.74" lon="5.03042">
        <ele>400</ele>
        <time>2020-02-07T14:50:23.000Z</time>
      </trkpt>
      <trkpt lat="44.74" lon="5.03042">
        <ele>400</ele>
        <time>2020-02-07T14:50:24.000Z</time>
      </trkpt>
      <trkpt lat="44.74" lon="5.03042">
        <ele>400</ele>
        <time>2020-02-07T14:50:25.000Z</time>
      </trkpt>
      <trkpt lat="44.74" lon="5.03042">
        <ele>400</ele>
        <time>2020-02-07T14:50:26.000Z</time>
      </trkpt>
      <trkpt lat="44.74" lon="5.03042">
        <ele>400</ele>
        <time>2020-02-07T14:50:27.000Z</time>
      </trkpt>
      <trkpt lat="44.74" lon="5.03042">
        <ele>400</ele>
        <time>2020-02-07T14:50:28.000Z</time>
      </trkpt>
      <trkpt lat="44.74" lon="5.03042">
        <ele>400</ele>
        <time>2020-02-07T14:50:29.000Z</time>
      </trkpt>
      <trkpt lat="44.74" lon="5.03042">
        <ele>400</ele>
        <time>2020-02-07T14:50:30.000Z</time>
      </trkpt>
      <trkpt lat="44.74" lon="5.03042">
        <ele>400</ele>
        <time>2020-02-07T14:50:31.000Z</time>
      </trkpt>
      <trkpt lat="44.74" lon="5.03042">
        <ele>400</ele>
        <time>2020-02-07T14:50:32.000Z</time>
      </trkpt>
      <trkpt lat="44.74" lon="5.03042">
        <ele>400</ele>
        <time>2020-02-07T14:50:33.000Z</time>
      </trkpt>
      <trkpt lat="44.74" lon="5.03042">
        <ele>400</ele>
        <time>2020-02-07T14:50:34.000Z</time>
      </trkpt>
      <trkpt lat="44.74" lon="5.03042">
        <ele>400</ele>
        <time>2020-02-07T14:50:35.000Z</time>
      </trkpt>
      <trkpt lat="44.74" lon="5.03042">
        <ele>400</ele>
        <time>2020-02-07T14:50:36.000Z</time>
      </trkpt>
      <trkpt lat="44.74" lon="5.03042">
        <ele>400</ele>
        <time>2020-02-07T14:50:37.000Z</time>
      </trkpt>
      <trkpt lat="44.74" lon="5.03042">
        <ele>400</ele>
        <time>2020-02-07T14:50:38.000Z</time>
      </trkpt>
      <trkpt lat="44.74" lon="5.03042">
        <ele>400</ele>
        <time>2020-02-07T14:50:39.000Z</time>
      </trkpt>
      <trkpt lat="44.74" lon="5.03042">
        <ele>400</ele>
        <time>2020-02-07T14:50:40.000Z</time>
      </trkpt>
      <trkpt lat="44.74" lon="5.03042">
        <ele>400</ele>
        <time>2020-02-07T14:50:41.000Z</time>
      </trkpt>
      <trkpt lat="44.74" lon="5.03042">
        <ele>400</ele>
        <time>2020-02-07T14:50:42.000Z</time>
      </trkpt>
      <trkpt lat="44.74" lon="5.03042">
        <ele>400</ele>
        <time>2020-02-07T14:50:43.000Z</time>
      </trkpt>
      <trkpt lat="44.74" lon="5.03042">
        <ele>400</ele>
        <time>2020-02-07T14:50:44.000Z</time>
      </trkpt>
      <trkpt lat="44.74" lon="5.03042">
        <ele>400</ele>
        <time>2020-02-07T14:50:45.000Z</time>
      </trkpt>
      <trkpt lat="44.74" lon="5.03042">
        <ele>400</ele>
        <time>2020-02-07T14:50:46.000Z</time>
      </trkpt>
      <trkpt lat="44.74" lon="5.03042">
        <ele>400</ele>
        <time>2020-02-07T14:50:47.000Z</time>
      </trkpt>
      <trkpt lat="44.74" lon="5.03042">
        <ele>400</ele>
        <time>2020-02-07T14:50:48.000Z</time>
      </trkpt>
      <trkpt lat="44.74" lon="5.03042">
        <ele>400</ele>
        <time>2020-02-07T14:50:49.000Z</time>
      </trkpt>
      <trkpt lat="44.74" lon="5.03042">
        <ele>400</ele>
        <time>2020-02-07T14:50:50.000Z</time>
      </trkpt>
      <trkpt lat="44.74" lon="5.03042">
        <ele>400</ele>
        <time>2020-02-07T14:50:51.000Z</time>
      </trkpt>
      <trkpt lat="44.74" lon="5.03042">
        <ele>400</ele>
        <time>2020-02-07T14:50:52.000Z</time>
      </trkpt>
      <trkpt lat="44.74" lon="5.03042">
        <ele>400</ele>
        <time>2020-02-07T14:50:53.000Z</time>
      </trkpt>
      <trkpt lat="44.74" lon="5.03042">
        <ele>400</ele>
        <time>2020-02-07T14:50:54.000Z</time>
      </trkpt>
      <trkpt lat="44.74" lon="5.03042">
        <ele>400</ele>
        <time>2020-02-07T14:50:55.000Z</time>
      </trkpt>
      <trkpt lat="44.74" lon="5.03042">
        <ele>400</ele>
        <time>2020-02-07T14:50:56.000Z</time>
      </trkpt>
      <trkpt lat="44.74" lon="5.03042">
        <ele>400</ele>
        <time>2020-02-07T14:50:57.000Z</time>
      </trkpt>
      <trkpt lat="44.74" lon="5.03042">
        <ele>400</ele>
        <time>2020-02-07T14:50:58.000Z</time>
      </trkpt>
      <trkpt lat="44.74" lon="5.03042">
        <ele>400</ele>
        <time>2020-02-07T14:50:59.000Z</time>
      </trkpt>
      <trkpt lat="44.74" lon="5.03042">
        <ele>400</ele>
        <time>2020-02-07T14:51:00.000Z</time>
      </trkpt>
      <trkpt lat="44.74" lon="5.03042">
        <ele>400</ele>
        <time>2020-02-07T14:51:01.000Z</time>
      </trkpt>
      <trkpt lat="44.74" lon="5.03042">
        <ele>400</ele>
        <time>2020-02-07T14:51:02.000Z</time>
      </trkpt>
      <trkpt lat="44.74" lon="5.03042">
        <ele>400</ele>
        <time>2020-02-07T14:51:03.000Z</time>
      </trkpt>
      <trkpt lat="44.74" lon="5.03042">
        <ele>400</ele>
        <time>2020-02-07T14:51:04.000Z</time>
      </trkpt>
      <trkpt lat="44.74" lon="5.03042">
        <ele>400</ele>
        <time>2020-02-07T14:51:05.000Z</time>
      </trkpt>
      <trkpt lat="44.74" lon="5.03042">
        <ele>400</ele>
        <time>2020-02-07T14:51:06.000Z</time>
      </trkpt>
      <trkpt lat="44.74" lon="5.03042">
        <ele>400</ele>
        <time>2020-02-07T14:51:07.000Z</time>
      </trkpt>
      <trkpt lat="44.74" lon="5.03042">
        <ele>400</ele>
        <time>2020-02-07T14:51:08.000Z</time>
      </trkpt>
      <trkpt lat="44.74" lon="5.03042">
        <ele>400</ele>
        <time>2020-02-07T14:51:09.000Z</time>
      </trkpt>
      <trkpt lat="44.74" lon="5.03043">
        <ele>400</ele>
        <time>2020-02-07T14:51:10.000Z</time>
      </trkpt>
      <trkpt lat="44.74" lon="5.03043">
        <ele>399</ele>
        <time>2020-02-07T14:51:11.000Z</time>
      </trkpt>
      <trkpt lat="44.74" lon="5.03043">
        <ele>399</ele>
        <time>2020-02-07T14:51:12.000Z</time>
      </trkpt>
      <trkpt lat="44.74" lon="5.03043">
        <ele>399</ele>
        <time>2020-02-07T14:51:13.000Z</time>
      </trkpt>
      <trkpt lat="44.74" lon="5.03043">
        <ele>399</ele>
        <time>2020-02-07T14:51:14.000Z</time>
      </trkpt>
      <trkpt lat="44.74" lon="5.03043">
        <ele>399</ele>
        <time>2020-02-07T14:51:15.000Z</time>
      </trkpt>
      <trkpt lat="44.74" lon="5.03043">
        <ele>399</ele>
        <time>2020-02-07T14:51:16.000Z</time>
      </trkpt>
      <trkpt lat="44.74" lon="5.03043">
        <ele>399</ele>
        <time>2020-02-07T14:51:17.000Z</time>
      </trkpt>
      <trkpt lat="44.74" lon="5.03043">
        <ele>399</ele>
        <time>2020-02-07T14:51:18.000Z</time>
      </trkpt>
      <trkpt lat="44.74" lon="5.03043">
        <ele>399</ele>
        <time>2020-02-07T14:51:19.000Z</time>
      </trkpt>
      <trkpt lat="44.74" lon="5.03043">
        <ele>399</ele>
        <time>2020-02-07T14:51:20.000Z</time>
      </trkpt>
      <trkpt lat="44.74" lon="5.03043">
        <ele>399</ele>
        <time>2020-02-07T14:51:21.000Z</time>
      </trkpt>
      <trkpt lat="44.74" lon="5.03043">
        <ele>399</ele>
        <time>2020-02-07T14:51:22.000Z</time>
      </trkpt>
      <trkpt lat="44.74" lon="5.03043">
        <ele>399</ele>
        <time>2020-02-07T14:51:23.000Z</time>
      </trkpt>
      <trkpt lat="44.74" lon="5.03043">
        <ele>399</ele>
        <time>2020-02-07T14:51:24.000Z</time>
      </trkpt>
      <trkpt lat="44.74" lon="5.03043">
        <ele>399</ele>
        <time>2020-02-07T14:51:25.000Z</time>
      </trkpt>
      <trkpt lat="44.74" lon="5.03043">
        <ele>399</ele>
        <time>2020-02-07T14:51:26.000Z</time>
      </trkpt>
      <trkpt lat="44.74" lon="5.03043">
        <ele>399</ele>
        <time>2020-02-07T14:51:27.000Z</time>
      </trkpt>
      <trkpt lat="44.74" lon="5.03043">
        <ele>399</ele>
        <time>2020-02-07T14:51:28.000Z</time>
      </trkpt>
      <trkpt lat="44.74" lon="5.03043">
        <ele>399</ele>
        <time>2020-02-07T14:51:29.000Z</time>
      </trkpt>
      <trkpt lat="44.74" lon="5.03043">
        <ele>399</ele>
        <time>2020-02-07T14:51:30.000Z</time>
      </trkpt>
      <trkpt lat="44.74" lon="5.03043">
        <ele>399</ele>
        <time>2020-02-07T14:51:31.000Z</time>
      </trkpt>
      <trkpt lat="44.74" lon="5.03043">
        <ele>399</ele>
        <time>2020-02-07T14:51:32.000Z</time>
      </trkpt>
      <trkpt lat="44.74" lon="5.03043">
        <ele>399</ele>
        <time>2020-02-07T14:51:33.000Z</time>
      </trkpt>
      <trkpt lat="44.74" lon="5.03043">
        <ele>399</ele>
        <time>2020-02-07T14:51:34.000Z</time>
      </trkpt>
      <trkpt lat="44.74" lon="5.03043">
        <ele>399</ele>
        <time>2020-02-07T14:51:35.000Z</time>
      </trkpt>
      <trkpt lat="44.74" lon="5.03043">
        <ele>399</ele>
        <time>2020-02-07T14:51:36.000Z</time>
      </trkpt>
      <trkpt lat="44.74" lon="5.03043">
        <ele>399</ele>
        <time>2020-02-07T14:51:37.000Z</time>
      </trkpt>
      <trkpt lat="44.74" lon="5.03043">
        <ele>399</ele>
        <time>2020-02-07T14:51:38.000Z</time>
      </trkpt>
      <trkpt lat="44.74" lon="5.03043">
        <ele>399</ele>
        <time>2020-02-07T14:51:39.000Z</time>
      </trkpt>
      <trkpt lat="44.74" lon="5.03043">
        <ele>399</ele>
        <time>2020-02-07T14:51:40.000Z</time>
      </trkpt>
      <trkpt lat="44.74" lon="5.03043">
        <ele>399</ele>
        <time>2020-02-07T14:51:41.000Z</time>
      </trkpt>
      <trkpt lat="44.74" lon="5.03043">
        <ele>399</ele>
        <time>2020-02-07T14:51:42.000Z</time>
      </trkpt>
      <trkpt lat="44.74" lon="5.03043">
        <ele>399</ele>
        <time>2020-02-07T14:51:43.000Z</time>
      </trkpt>
      <trkpt lat="44.74" lon="5.03043">
        <ele>399</ele>
        <time>2020-02-07T14:51:44.000Z</time>
      </trkpt>
      <trkpt lat="44.74" lon="5.03043">
        <ele>399</ele>
        <time>2020-02-07T14:51:45.000Z</time>
      </trkpt>
      <trkpt lat="44.74" lon="5.03043">
        <ele>399</ele>
        <time>2020-02-07T14:51:46.000Z</time>
      </trkpt>
      <trkpt lat="44.74" lon="5.03043">
        <ele>399</ele>
        <time>2020-02-07T14:51:47.000Z</time>
      </trkpt>
      <trkpt lat="44.74" lon="5.03043">
        <ele>399</ele>
        <time>2020-02-07T14:51:48.000Z</time>
      </trkpt>
      <trkpt lat="44.74" lon="5.03043">
        <ele>399</ele>
        <time>2020-02-07T14:51:49.000Z</time>
      </trkpt>
      <trkpt lat="44.74" lon="5.03043">
        <ele>399</ele>
        <time>2020-02-07T14:51:50.000Z</time>
      </trkpt>
      <trkpt lat="44.74" lon="5.03043">
        <ele>399</ele>
        <time>2020-02-07T14:51:51.000Z</time>
      </trkpt>
      <trkpt lat="44.74" lon="5.03043">
        <ele>399</ele>
        <time>2020-02-07T14:51:52.000Z</time>
      </trkpt>
      <trkpt lat="44.74" lon="5.03043">
        <ele>399</ele>
        <time>2020-02-07T14:51:53.000Z</time>
      </trkpt>
      <trkpt lat="44.74" lon="5.03043">
        <ele>399</ele>
        <time>2020-02-07T14:51:54.000Z</time>
      </trkpt>
      <trkpt lat="44.74" lon="5.03043">
        <ele>399</ele>
        <time>2020-02-07T14:51:55.000Z</time>
      </trkpt>
      <trkpt lat="44.74" lon="5.03043">
        <ele>399</ele>
        <time>2020-02-07T14:51:56.000Z</time>
      </trkpt>
      <trkpt lat="44.74" lon="5.03043">
        <ele>399</ele>
        <time>2020-02-07T14:51:57.000Z</time>
      </trkpt>
      <trkpt lat="44.74" lon="5.03043">
        <ele>399</ele>
        <time>2020-02-07T14:51:58.000Z</time>
      </trkpt>
      <trkpt lat="44.74" lon="5.03042">
        <ele>399</ele>
        <time>2020-02-07T14:51:59.000Z</time>
      </trkpt>
      <trkpt lat="44.74" lon="5.03042">
        <ele>399</ele>
        <time>2020-02-07T14:52:00.000Z</time>
      </trkpt>
      <trkpt lat="44.74" lon="5.03043">
        <ele>399</ele>
        <time>2020-02-07T14:52:01.000Z</time>
      </trkpt>
      <trkpt lat="44.74" lon="5.03043">
        <ele>399</ele>
        <time>2020-02-07T14:52:02.000Z</time>
      </trkpt>
      <trkpt lat="44.74" lon="5.03043">
        <ele>399</ele>
        <time>2020-02-07T14:52:03.000Z</time>
      </trkpt>
      <trkpt lat="44.74" lon="5.03043">
        <ele>399</ele>
        <time>2020-02-07T14:52:04.000Z</time>
      </trkpt>
      <trkpt lat="44.74" lon="5.03043">
        <ele>399</ele>
        <time>2020-02-07T14:52:05.000Z</time>
      </trkpt>
      <trkpt lat="44.74" lon="5.03043">
        <ele>399</ele>
        <time>2020-02-07T14:52:06.000Z</time>
      </trkpt>
      <trkpt lat="44.74" lon="5.03043">
        <ele>399</ele>
        <time>2020-02-07T14:52:07.000Z</time>
      </trkpt>
      <trkpt lat="44.74" lon="5.03043">
        <ele>399</ele>
        <time>2020-02-07T14:52:08.000Z</time>
      </trkpt>
      <trkpt lat="44.74" lon="5.03043">
        <ele>399</ele>
        <time>2020-02-07T14:52:09.000Z</time>
      </trkpt>
      <trkpt lat="44.74" lon="5.03043">
        <ele>399</ele>
        <time>2020-02-07T14:52:10.000Z</time>
      </trkpt>
      <trkpt lat="44.74" lon="5.03043">
        <ele>399</ele>
        <time>2020-02-07T14:52:11.000Z</time>
      </trkpt>
      <trkpt lat="44.74" lon="5.03042">
        <ele>399</ele>
        <time>2020-02-07T14:52:12.000Z</time>
      </trkpt>
      <trkpt lat="44.74" lon="5.03042">
        <ele>399</ele>
        <time>2020-02-07T14:52:13.000Z</time>
      </trkpt>
      <trkpt lat="44.74" lon="5.03042">
        <ele>399</ele>
        <time>2020-02-07T14:52:14.000Z</time>
      </trkpt>
      <trkpt lat="44.74" lon="5.03042">
        <ele>399</ele>
        <time>2020-02-07T14:52:15.000Z</time>
      </trkpt>
      <trkpt lat="44.74" lon="5.03042">
        <ele>399</ele>
        <time>2020-02-07T14:52:16.000Z</time>
      </trkpt>
      <trkpt lat="44.74" lon="5.03042">
        <ele>399</ele>
        <time>2020-02-07T14:52:17.000Z</time>
      </trkpt>
      <trkpt lat="44.74" lon="5.03043">
        <ele>399</ele>
        <time>2020-02-07T14:52:18.000Z</time>
      </trkpt>
      <trkpt lat="44.74" lon="5.03043">
        <ele>399</ele>
        <time>2020-02-07T14:52:19.000Z</time>
      </trkpt>
      <trkpt lat="44.74" lon="5.03042">
        <ele>399</ele>
        <time>2020-02-07T14:52:20.000Z</time>
      </trkpt>
      <trkpt lat="44.74" lon="5.03042">
        <ele>399</ele>
        <time>2020-02-07T14:52:21.000Z</time>
      </trkpt>
      <trkpt lat="44.74" lon="5.03042">
        <ele>399</ele>
        <time>2020-02-07T14:52:22.000Z</time>
      </trkpt>
      <trkpt lat="44.74" lon="5.03042">
        <ele>399</ele>
        <time>2020-02-07T14:52:23.000Z</time>
      </trkpt>
      <trkpt lat="44.74" lon="5.03043">
        <ele>399</ele>
        <time>2020-02-07T14:52:24.000Z</time>
      </trkpt>
      <trkpt lat="44.74" lon="5.03043">
        <ele>399</ele>
        <time>2020-02-07T14:52:25.000Z</time>
      </trkpt>
      <trkpt lat="44.74" lon="5.03043">
        <ele>399</ele>
        <time>2020-02-07T14:52:26.000Z</time>
      </trkpt>
      <trkpt lat="44.74" lon="5.03043">
        <ele>399</ele>
        <time>2020-02-07T14:52:27.000Z</time>
      </trkpt>
      <trkpt lat="44.74" lon="5.03043">
        <ele>399</ele>
        <time>2020-02-07T14:52:28.000Z</time>
      </trkpt>
      <trkpt lat="44.74" lon="5.03043">
        <ele>399</ele>
        <time>2020-02-07T14:52:29.000Z</time>
      </trkpt>
      <trkpt lat="44.74" lon="5.03043">
        <ele>399</ele>
        <time>2020-02-07T14:52:30.000Z</time>
      </trkpt>
      <trkpt lat="44.74" lon="5.03043">
        <ele>399</ele>
        <time>2020-02-07T14:52:31.000Z</time>
      </trkpt>
      <trkpt lat="44.74" lon="5.03043">
        <ele>399</ele>
        <time>2020-02-07T14:52:32.000Z</time>
      </trkpt>
      <trkpt lat="44.74" lon="5.03042">
        <ele>399</ele>
        <time>2020-02-07T14:52:33.000Z</time>
      </trkpt>
      <trkpt lat="44.74" lon="5.03042">
        <ele>399</ele>
        <time>2020-02-07T14:52:34.000Z</time>
      </trkpt>
      <trkpt lat="44.74" lon="5.03042">
        <ele>399</ele>
        <time>2020-02-07T14:52:35.000Z</time>
      </trkpt>
      <trkpt lat="44.74" lon="5.03043">
        <ele>399</ele>
        <time>2020-02-07T14:52:36.000Z</time>
      </trkpt>
      <trkpt lat="44.74" lon="5.03043">
        <ele>399</ele>
        <time>2020-02-07T14:52:37.000Z</time>
      </trkpt>
      <trkpt lat="44.74" lon="5.03043">
        <ele>399</ele>
        <time>2020-02-07T14:52:38.000Z</time>
      </trkpt>
      <trkpt lat="44.74" lon="5.03043">
        <ele>399</ele>
        <time>2020-02-07T14:52:39.000Z</time>
      </trkpt>
      <trkpt lat="44.74" lon="5.03043">
        <ele>398</ele>
        <time>2020-02-07T14:52:40.000Z</time>
      </trkpt>
      <trkpt lat="44.74" lon="5.03043">
        <ele>398</ele>
        <time>2020-02-07T14:52:41.000Z</time>
      </trkpt>
      <trkpt lat="44.74" lon="5.03043">
        <ele>398</ele>
        <time>2020-02-07T14:52:42.000Z</time>
      </trkpt>
      <trkpt lat="44.74" lon="5.03043">
        <ele>398</ele>
        <time>2020-02-07T14:52:43.000Z</time>
      </trkpt>
      <trkpt lat="44.74" lon="5.03043">
        <ele>398</ele>
        <time>2020-02-07T14:52:44.000Z</time>
      </trkpt>
      <trkpt lat="44.74" lon="5.03043">
        <ele>398</ele>
        <time>2020-02-07T14:52:45.000Z</time>
      </trkpt>
      <trkpt lat="44.74" lon="5.03043">
        <ele>398</ele>
        <time>2020-02-07T14:52:46.000Z</time>
      </trkpt>
      <trkpt lat="44.74" lon="5.03043">
        <ele>398</ele>
        <time>2020-02-07T14:52:47.000Z</time>
      </trkpt>
      <trkpt lat="44.74" lon="5.03043">
        <ele>398</ele>
        <time>2020-02-07T14:52:48.000Z</time>
      </trkpt>
      <trkpt lat="44.73999" lon="5.03042">
        <ele>398</ele>
        <time>2020-02-07T14:52:49.000Z</time>
      </trkpt>
      <trkpt lat="44.73999" lon="5.03042">
        <ele>398</ele>
        <time>2020-02-07T14:52:50.000Z</time>
      </trkpt>
      <trkpt lat="44.73999" lon="5.03042">
        <ele>398</ele>
        <time>2020-02-07T14:52:51.000Z</time>
      </trkpt>
      <trkpt lat="44.73999" lon="5.03042">
        <ele>398</ele>
        <time>2020-02-07T14:52:52.000Z</time>
      </trkpt>
      <trkpt lat="44.73999" lon="5.03042">
        <ele>398</ele>
        <time>2020-02-07T14:52:53.000Z</time>
      </trkpt>
      <trkpt lat="44.73999" lon="5.03042">
        <ele>398</ele>
        <time>2020-02-07T14:52:54.000Z</time>
      </trkpt>
      <trkpt lat="44.73999" lon="5.03042">
        <ele>398</ele>
        <time>2020-02-07T14:52:55.000Z</time>
      </trkpt>
      <trkpt lat="44.73999" lon="5.03042">
        <ele>398</ele>
        <time>2020-02-07T14:52:56.000Z</time>
      </trkpt>
      <trkpt lat="44.73999" lon="5.03042">
        <ele>398</ele>
        <time>2020-02-07T14:52:57.000Z</time>
      </trkpt>
      <trkpt lat="44.73999" lon="5.03042">
        <ele>398</ele>
        <time>2020-02-07T14:52:58.000Z</time>
      </trkpt>
      <trkpt lat="44.73999" lon="5.03042">
        <ele>398</ele>
        <time>2020-02-07T14:52:59.000Z</time>
      </trkpt>
      <trkpt lat="44.73999" lon="5.03042">
        <ele>398</ele>
        <time>2020-02-07T14:53:00.000Z</time>
      </trkpt>
      <trkpt lat="44.73999" lon="5.03042">
        <ele>398</ele>
        <time>2020-02-07T14:53:01.000Z</time>
      </trkpt>
      <trkpt lat="44.73999" lon="5.03042">
        <ele>398</ele>
        <time>2020-02-07T14:53:02.000Z</time>
      </trkpt>
      <trkpt lat="44.73999" lon="5.03042">
        <ele>398</ele>
        <time>2020-02-07T14:53:03.000Z</time>
      </trkpt>
      <trkpt lat="44.74" lon="5.03042">
        <ele>398</ele>
        <time>2020-02-07T14:53:04.000Z</time>
      </trkpt>
      <trkpt lat="44.74" lon="5.03042">
        <ele>398</ele>
        <time>2020-02-07T14:53:05.000Z</time>
      </trkpt>
      <trkpt lat="44.74" lon="5.03042">
        <ele>398</ele>
        <time>2020-02-07T14:53:06.000Z</time>
      </trkpt>
      <trkpt lat="44.74" lon="5.03042">
        <ele>398</ele>
        <time>2020-02-07T14:53:07.000Z</time>
      </trkpt>
      <trkpt lat="44.74" lon="5.03042">
        <ele>398</ele>
        <time>2020-02-07T14:53:08.000Z</time>
      </trkpt>
      <trkpt lat="44.74" lon="5.03042">
        <ele>398</ele>
        <time>2020-02-07T14:53:09.000Z</time>
      </trkpt>
      <trkpt lat="44.73999" lon="5.03042">
        <ele>398</ele>
        <time>2020-02-07T14:53:10.000Z</time>
      </trkpt>
      <trkpt lat="44.73999" lon="5.03043">
        <ele>398</ele>
        <time>2020-02-07T14:53:11.000Z</time>
      </trkpt>
      <trkpt lat="44.73999" lon="5.03043">
        <ele>398</ele>
        <time>2020-02-07T14:53:12.000Z</time>
      </trkpt>
      <trkpt lat="44.73999" lon="5.03043">
        <ele>398</ele>
        <time>2020-02-07T14:53:13.000Z</time>
      </trkpt>
      <trkpt lat="44.73999" lon="5.03043">
        <ele>398</ele>
        <time>2020-02-07T14:53:14.000Z</time>
      </trkpt>
      <trkpt lat="44.73999" lon="5.03043">
        <ele>398</ele>
        <time>2020-02-07T14:53:15.000Z</time>
      </trkpt>
      <trkpt lat="44.73999" lon="5.03043">
        <ele>398</ele>
        <time>2020-02-07T14:53:16.000Z</time>
      </trkpt>
      <trkpt lat="44.74" lon="5.03043">
        <ele>398</ele>
        <time>2020-02-07T14:53:17.000Z</time>
      </trkpt>
      <trkpt lat="44.74" lon="5.03043">
        <ele>398</ele>
        <time>2020-02-07T14:53:18.000Z</time>
      </trkpt>
      <trkpt lat="44.74" lon="5.03043">
        <ele>398</ele>
        <time>2020-02-07T14:53:19.000Z</time>
      </trkpt>
      <trkpt lat="44.74" lon="5.03043">
        <ele>398</ele>
        <time>2020-02-07T14:53:20.000Z</time>
      </trkpt>
      <trkpt lat="44.74" lon="5.03043">
        <ele>398</ele>
        <time>2020-02-07T14:53:21.000Z</time>
      </trkpt>
      <trkpt lat="44.74" lon="5.03043">
        <ele>398</ele>
        <time>2020-02-07T14:53:22.000Z</time>
      </trkpt>
      <trkpt lat="44.74" lon="5.03043">
        <ele>398</ele>
        <time>2020-02-07T14:53:23.000Z</time>
      </trkpt>
      <trkpt lat="44.74" lon="5.03043">
        <ele>398</ele>
        <time>2020-02-07T14:53:24.000Z</time>
      </trkpt>
      <trkpt lat="44.74" lon="5.03042">
        <ele>398</ele>
        <time>2020-02-07T14:53:25.000Z</time>
      </trkpt>
      <trkpt lat="44.74" lon="5.03042">
        <ele>398</ele>
        <time>2020-02-07T14:53:26.000Z</time>
      </trkpt>
      <trkpt lat="44.74" lon="5.03042">
        <ele>398</ele>
        <time>2020-02-07T14:53:27.000Z</time>
      </trkpt>
      <trkpt lat="44.74" lon="5.03042">
        <ele>398</ele>
        <time>2020-02-07T14:53:28.000Z</time>
      </trkpt>
      <trkpt lat="44.74" lon="5.03042">
        <ele>398</ele>
        <time>2020-02-07T14:53:29.000Z</time>
      </trkpt>
      <trkpt lat="44.74" lon="5.03042">
        <ele>398</ele>
        <time>2020-02-07T14:53:30.000Z</time>
      </trkpt>
      <trkpt lat="44.74" lon="5.03042">
        <ele>398</ele>
        <time>2020-02-07T14:53:31.000Z</time>
      </trkpt>
      <trkpt lat="44.74" lon="5.03042">
        <ele>398</ele>
        <time>2020-02-07T14:53:32.000Z</time>
      </trkpt>
      <trkpt lat="44.74" lon="5.03042">
        <ele>398</ele>
        <time>2020-02-07T14:53:33.000Z</time>
      </trkpt>
      <trkpt lat="44.74" lon="5.03042">
        <ele>398</ele>
        <time>2020-02-07T14:53:34.000Z</time>
      </trkpt>
      <trkpt lat="44.74" lon="5.03042">
        <ele>398</ele>
        <time>2020-02-07T14:53:35.000Z</time>
      </trkpt>
      <trkpt lat="44.74" lon="5.03042">
        <ele>398</ele>
        <time>2020-02-07T14:53:36.000Z</time>
      </trkpt>
      <trkpt lat="44.74" lon="5.03042">
        <ele>398</ele>
        <time>2020-02-07T14:53:37.000Z</time>
      </trkpt>
      <trkpt lat="44.74" lon="5.03042">
        <ele>398</ele>
        <time>2020-02-07T14:53:38.000Z</time>
      </trkpt>
      <trkpt lat="44.74" lon="5.03042">
        <ele>398</ele>
        <time>2020-02-07T14:53:39.000Z</time>
      </trkpt>
      <trkpt lat="44.74" lon="5.03042">
        <ele>398</ele>
        <time>2020-02-07T14:53:40.000Z</time>
      </trkpt>
      <trkpt lat="44.74" lon="5.03042">
        <ele>398</ele>
        <time>2020-02-07T14:53:41.000Z</time>
      </trkpt>
      <trkpt lat="44.74" lon="5.03042">
        <ele>398</ele>
        <time>2020-02-07T14:53:42.000Z</time>
      </trkpt>
      <trkpt lat="44.74" lon="5.03042">
        <ele>398</ele>
        <time>2020-02-07T14:53:43.000Z</time>
      </trkpt>
      <trkpt lat="44.74" lon="5.03042">
        <ele>398</ele>
        <time>2020-02-07T14:53:44.000Z</time>
      </trkpt>
      <trkpt lat="44.74" lon="5.03042">
        <ele>398</ele>
        <time>2020-02-07T14:53:45.000Z</time>
      </trkpt>
      <trkpt lat="44.74" lon="5.03042">
        <ele>398</ele>
        <time>2020-02-07T14:53:46.000Z</time>
      </trkpt>
      <trkpt lat="44.74" lon="5.03042">
        <ele>398</ele>
        <time>2020-02-07T14:53:47.000Z</time>
      </trkpt>
      <trkpt lat="44.74" lon="5.03042">
        <ele>398</ele>
        <time>2020-02-07T14:53:48.000Z</time>
      </trkpt>
      <trkpt lat="44.74" lon="5.03042">
        <ele>398</ele>
        <time>2020-02-07T14:53:49.000Z</time>
      </trkpt>
      <trkpt lat="44.74" lon="5.03042">
        <ele>398</ele>
        <time>2020-02-07T14:53:50.000Z</time>
      </trkpt>
      <trkpt lat="44.74" lon="5.03042">
        <ele>398</ele>
        <time>2020-02-07T14:53:51.000Z</time>
      </trkpt>
      <trkpt lat="44.74" lon="5.03042">
        <ele>398</ele>
        <time>2020-02-07T14:53:52.000Z</time>
      </trkpt>
      <trkpt lat="44.74" lon="5.03042">
        <ele>398</ele>
        <time>2020-02-07T14:53:53.000Z</time>
      </trkpt>
      <trkpt lat="44.74" lon="5.03042">
        <ele>398</ele>
        <time>2020-02-07T14:53:54.000Z</time>
      </trkpt>
      <trkpt lat="44.74" lon="5.03042">
        <ele>398</ele>
        <time>2020-02-07T14:53:55.000Z</time>
      </trkpt>
      <trkpt lat="44.74" lon="5.03042">
        <ele>398</ele>
        <time>2020-02-07T14:53:56.000Z</time>
      </trkpt>
      <trkpt lat="44.74" lon="5.03042">
        <ele>398</ele>
        <time>2020-02-07T14:53:57.000Z</time>
      </trkpt>
      <trkpt lat="44.74" lon="5.03042">
        <ele>398</ele>
        <time>2020-02-07T14:53:58.000Z</time>
      </trkpt>
      <trkpt lat="44.74" lon="5.03042">
        <ele>398</ele>
        <time>2020-02-07T14:53:59.000Z</time>
      </trkpt>
      <trkpt lat="44.74" lon="5.03042">
        <ele>398</ele>
        <time>2020-02-07T14:54:00.000Z</time>
      </trkpt>
      <trkpt lat="44.74" lon="5.03042">
        <ele>398</ele>
        <time>2020-02-07T14:54:01.000Z</time>
      </trkpt>
      <trkpt lat="44.74001" lon="5.03042">
        <ele>398</ele>
        <time>2020-02-07T14:54:02.000Z</time>
      </trkpt>
      <trkpt lat="44.74001" lon="5.03042">
        <ele>398</ele>
        <time>2020-02-07T14:54:03.000Z</time>
      </trkpt>
      <trkpt lat="44.74001" lon="5.03042">
        <ele>398</ele>
        <time>2020-02-07T14:54:04.000Z</time>
      </trkpt>
      <trkpt lat="44.74001" lon="5.03042">
        <ele>398</ele>
        <time>2020-02-07T14:54:05.000Z</time>
      </trkpt>
      <trkpt lat="44.74001" lon="5.03042">
        <ele>398</ele>
        <time>2020-02-07T14:54:06.000Z</time>
      </trkpt>
      <trkpt lat="44.74001" lon="5.03042">
        <ele>398</ele>
        <time>2020-02-07T14:54:07.000Z</time>
      </trkpt>
      <trkpt lat="44.74" lon="5.03042">
        <ele>398</ele>
        <time>2020-02-07T14:54:08.000Z</time>
      </trkpt>
      <trkpt lat="44.74" lon="5.03042">
        <ele>398</ele>
        <time>2020-02-07T14:54:09.000Z</time>
      </trkpt>
      <trkpt lat="44.74001" lon="5.03042">
        <ele>398</ele>
        <time>2020-02-07T14:54:10.000Z</time>
      </trkpt>
      <trkpt lat="44.74" lon="5.03042">
        <ele>398</ele>
        <time>2020-02-07T14:54:11.000Z</time>
      </trkpt>
      <trkpt lat="44.74001" lon="5.03042">
        <ele>398</ele>
        <time>2020-02-07T14:54:12.000Z</time>
      </trkpt>
      <trkpt lat="44.74001" lon="5.03042">
        <ele>398</ele>
        <time>2020-02-07T14:54:13.000Z</time>
      </trkpt>
      <trkpt lat="44.74" lon="5.03042">
        <ele>398</ele>
        <time>2020-02-07T14:54:14.000Z</time>
      </trkpt>
      <trkpt lat="44.74" lon="5.03042">
        <ele>398</ele>
        <time>2020-02-07T14:54:15.000Z</time>
      </trkpt>
      <trkpt lat="44.74" lon="5.03042">
        <ele>398</ele>
        <time>2020-02-07T14:54:16.000Z</time>
      </trkpt>
      <trkpt lat="44.74" lon="5.03042">
        <ele>398</ele>
        <time>2020-02-07T14:54:17.000Z</time>
      </trkpt>
      <trkpt lat="44.74" lon="5.03042">
        <ele>398</ele>
        <time>2020-02-07T14:54:18.000Z</time>
      </trkpt>
      <trkpt lat="44.74" lon="5.03042">
        <ele>398</ele>
        <time>2020-02-07T14:54:19.000Z</time>
      </trkpt>
      <trkpt lat="44.74" lon="5.03042">
        <ele>398</ele>
        <time>2020-02-07T14:54:20.000Z</time>
      </trkpt>
      <trkpt lat="44.74" lon="5.03042">
        <ele>398</ele>
        <time>2020-02-07T14:54:21.000Z</time>
      </trkpt>
      <trkpt lat="44.74" lon="5.03042">
        <ele>398</ele>
        <time>2020-02-07T14:54:22.000Z</time>
      </trkpt>
      <trkpt lat="44.74" lon="5.03042">
        <ele>398</ele>
        <time>2020-02-07T14:54:23.000Z</time>
      </trkpt>
      <trkpt lat="44.74" lon="5.03042">
        <ele>398</ele>
        <time>2020-02-07T14:54:24.000Z</time>
      </trkpt>
      <trkpt lat="44.74" lon="5.03042">
        <ele>398</ele>
        <time>2020-02-07T14:54:25.000Z</time>
      </trkpt>
      <trkpt lat="44.74" lon="5.03042">
        <ele>398</ele>
        <time>2020-02-07T14:54:26.000Z</time>
      </trkpt>
      <trkpt lat="44.73999" lon="5.03042">
        <ele>398</ele>
        <time>2020-02-07T14:54:27.000Z</time>
      </trkpt>
      <trkpt lat="44.73999" lon="5.03042">
        <ele>398</ele>
        <time>2020-02-07T14:54:28.000Z</time>
      </trkpt>
      <trkpt lat="44.73999" lon="5.03042">
        <ele>398</ele>
        <time>2020-02-07T14:54:29.000Z</time>
      </trkpt>
      <trkpt lat="44.73999" lon="5.03042">
        <ele>398</ele>
        <time>2020-02-07T14:54:30.000Z</time>
      </trkpt>
      <trkpt lat="44.73999" lon="5.03042">
        <ele>398</ele>
        <time>2020-02-07T14:54:31.000Z</time>
      </trkpt>
      <trkpt lat="44.73999" lon="5.03042">
        <ele>398</ele>
        <time>2020-02-07T14:54:32.000Z</time>
      </trkpt>
      <trkpt lat="44.73999" lon="5.03042">
        <ele>398</ele>
        <time>2020-02-07T14:54:33.000Z</time>
      </trkpt>
      <trkpt lat="44.73999" lon="5.03042">
        <ele>398</ele>
        <time>2020-02-07T14:54:34.000Z</time>
      </trkpt>
      <trkpt lat="44.73999" lon="5.03042">
        <ele>398</ele>
        <time>2020-02-07T14:54:35.000Z</time>
      </trkpt>
      <trkpt lat="44.73998" lon="5.03042">
        <ele>398</ele>
        <time>2020-02-07T14:54:36.000Z</time>
      </trkpt>
      <trkpt lat="44.73998" lon="5.03042">
        <ele>398</ele>
        <time>2020-02-07T14:54:37.000Z</time>
      </trkpt>
      <trkpt lat="44.73997" lon="5.03042">
        <ele>398</ele>
        <time>2020-02-07T14:54:38.000Z</time>
      </trkpt>
      <trkpt lat="44.73997" lon="5.03041">
        <ele>398</ele>
        <time>2020-02-07T14:54:39.000Z</time>
      </trkpt>
      <trkpt lat="44.73996" lon="5.03041">
        <ele>399</ele>
        <time>2020-02-07T14:54:40.000Z</time>
      </trkpt>
      <trkpt lat="44.73996" lon="5.03041">
        <ele>399</ele>
        <time>2020-02-07T14:54:41.000Z</time>
      </trkpt>
      <trkpt lat="44.73995" lon="5.03041">
        <ele>399</ele>
        <time>2020-02-07T14:54:42.000Z</time>
      </trkpt>
      <trkpt lat="44.73995" lon="5.03041">
        <ele>399</ele>
        <time>2020-02-07T14:54:43.000Z</time>
      </trkpt>
      <trkpt lat="44.73994" lon="5.03041">
        <ele>399</ele>
        <time>2020-02-07T14:54:44.000Z</time>
      </trkpt>
      <trkpt lat="44.73994" lon="5.03041">
        <ele>399</ele>
        <time>2020-02-07T14:54:45.000Z</time>
      </trkpt>
      <trkpt lat="44.73993" lon="5.03041">
        <ele>399</ele>
        <time>2020-02-07T14:54:46.000Z</time>
      </trkpt>
      <trkpt lat="44.73993" lon="5.03041">
        <ele>399</ele>
        <time>2020-02-07T14:54:47.000Z</time>
      </trkpt>
      <trkpt lat="44.73992" lon="5.03041">
        <ele>399</ele>
        <time>2020-02-07T14:54:48.000Z</time>
      </trkpt>
      <trkpt lat="44.73991" lon="5.03041">
        <ele>399</ele>
        <time>2020-02-07T14:54:49.000Z</time>
      </trkpt>
      <trkpt lat="44.7399" lon="5.03041">
        <ele>399</ele>
        <time>2020-02-07T14:54:50.000Z</time>
      </trkpt>
      <trkpt lat="44.73989" lon="5.03041">
        <ele>399</ele>
        <time>2020-02-07T14:54:51.000Z</time>
      </trkpt>
      <trkpt lat="44.73989" lon="5.03041">
        <ele>399</ele>
        <time>2020-02-07T14:54:52.000Z</time>
      </trkpt>
      <trkpt lat="44.73989" lon="5.03042">
        <ele>399</ele>
        <time>2020-02-07T14:54:53.000Z</time>
      </trkpt>
      <trkpt lat="44.73988" lon="5.03042">
        <ele>399</ele>
        <time>2020-02-07T14:54:54.000Z</time>
      </trkpt>
      <trkpt lat="44.73988" lon="5.03042">
        <ele>400</ele>
        <time>2020-02-07T14:54:55.000Z</time>
      </trkpt>
      <trkpt lat="44.73987" lon="5.03042">
        <ele>400</ele>
        <time>2020-02-07T14:54:56.000Z</time>
      </trkpt>
      <trkpt lat="44.73987" lon="5.03043">
        <ele>400</ele>
        <time>2020-02-07T14:54:57.000Z</time>
      </trkpt>
      <trkpt lat="44.73986" lon="5.03043">
        <ele>400</ele>
        <time>2020-02-07T14:54:58.000Z</time>
      </trkpt>
      <trkpt lat="44.73986" lon="5.03043">
        <ele>400</ele>
        <time>2020-02-07T14:54:59.000Z</time>
      </trkpt>
      <trkpt lat="44.73985" lon="5.03042">
        <ele>400</ele>
        <time>2020-02-07T14:55:00.000Z</time>
      </trkpt>
      <trkpt lat="44.73984" lon="5.03042">
        <ele>400</ele>
        <time>2020-02-07T14:55:01.000Z</time>
      </trkpt>
      <trkpt lat="44.73984" lon="5.03042">
        <ele>400</ele>
        <time>2020-02-07T14:55:02.000Z</time>
      </trkpt>
      <trkpt lat="44.73983" lon="5.03042">
        <ele>400</ele>
        <time>2020-02-07T14:55:03.000Z</time>
      </trkpt>
      <trkpt lat="44.73983" lon="5.03042">
        <ele>401</ele>
        <time>2020-02-07T14:55:04.000Z</time>
      </trkpt>
      <trkpt lat="44.73982" lon="5.03042">
        <ele>401</ele>
        <time>2020-02-07T14:55:05.000Z</time>
      </trkpt>
      <trkpt lat="44.73982" lon="5.03042">
        <ele>401</ele>
        <time>2020-02-07T14:55:06.000Z</time>
      </trkpt>
      <trkpt lat="44.73981" lon="5.03042">
        <ele>401</ele>
        <time>2020-02-07T14:55:07.000Z</time>
      </trkpt>
      <trkpt lat="44.73981" lon="5.03042">
        <ele>401</ele>
        <time>2020-02-07T14:55:08.000Z</time>
      </trkpt>
      <trkpt lat="44.73981" lon="5.03042">
        <ele>401</ele>
        <time>2020-02-07T14:55:09.000Z</time>
      </trkpt>
      <trkpt lat="44.7398" lon="5.03042">
        <ele>401</ele>
        <time>2020-02-07T14:55:10.000Z</time>
      </trkpt>
      <trkpt lat="44.73979" lon="5.03042">
        <ele>401</ele>
        <time>2020-02-07T14:55:11.000Z</time>
      </trkpt>
      <trkpt lat="44.73979" lon="5.03042">
        <ele>401</ele>
        <time>2020-02-07T14:55:12.000Z</time>
      </trkpt>
      <trkpt lat="44.73979" lon="5.03042">
        <ele>401</ele>
        <time>2020-02-07T14:55:13.000Z</time>
      </trkpt>
      <trkpt lat="44.73978" lon="5.03043">
        <ele>401</ele>
        <time>2020-02-07T14:55:14.000Z</time>
      </trkpt>
      <trkpt lat="44.73978" lon="5.03042">
        <ele>401</ele>
        <time>2020-02-07T14:55:15.000Z</time>
      </trkpt>
      <trkpt lat="44.73977" lon="5.03042">
        <ele>402</ele>
        <time>2020-02-07T14:55:16.000Z</time>
      </trkpt>
      <trkpt lat="44.73976" lon="5.03042">
        <ele>402</ele>
        <time>2020-02-07T14:55:17.000Z</time>
      </trkpt>
      <trkpt lat="44.73975" lon="5.03042">
        <ele>402</ele>
        <time>2020-02-07T14:55:18.000Z</time>
      </trkpt>
      <trkpt lat="44.73975" lon="5.03042">
        <ele>402</ele>
        <time>2020-02-07T14:55:19.000Z</time>
      </trkpt>
      <trkpt lat="44.73974" lon="5.03041">
        <ele>402</ele>
        <time>2020-02-07T14:55:20.000Z</time>
      </trkpt>
      <trkpt lat="44.73973" lon="5.0304">
        <ele>402</ele>
        <time>2020-02-07T14:55:21.000Z</time>
      </trkpt>
      <trkpt lat="44.73973" lon="5.03039">
        <ele>402</ele>
        <time>2020-02-07T14:55:22.000Z</time>
      </trkpt>
      <trkpt lat="44.73972" lon="5.03039">
        <ele>402</ele>
        <time>2020-02-07T14:55:23.000Z</time>
      </trkpt>
      <trkpt lat="44.73971" lon="5.03039">
        <ele>402</ele>
        <time>2020-02-07T14:55:24.000Z</time>
      </trkpt>
      <trkpt lat="44.7397" lon="5.03039">
        <ele>402</ele>
        <time>2020-02-07T14:55:25.000Z</time>
      </trkpt>
      <trkpt lat="44.73969" lon="5.03039">
        <ele>402</ele>
        <time>2020-02-07T14:55:26.000Z</time>
      </trkpt>
      <trkpt lat="44.73968" lon="5.03039">
        <ele>402</ele>
        <time>2020-02-07T14:55:27.000Z</time>
      </trkpt>
      <trkpt lat="44.73967" lon="5.03039">
        <ele>402</ele>
        <time>2020-02-07T14:55:28.000Z</time>
      </trkpt>
      <trkpt lat="44.73966" lon="5.03039">
        <ele>402</ele>
        <time>2020-02-07T14:55:29.000Z</time>
      </trkpt>
      <trkpt lat="44.73966" lon="5.03038">
        <ele>402</ele>
        <time>2020-02-07T14:55:30.000Z</time>
      </trkpt>
      <trkpt lat="44.73965" lon="5.03037">
        <ele>402</ele>
        <time>2020-02-07T14:55:31.000Z</time>
      </trkpt>
      <trkpt lat="44.73964" lon="5.03037">
        <ele>402</ele>
        <time>2020-02-07T14:55:32.000Z</time>
      </trkpt>
      <trkpt lat="44.73964" lon="5.03036">
        <ele>403</ele>
        <time>2020-02-07T14:55:33.000Z</time>
      </trkpt>
      <trkpt lat="44.73963" lon="5.03036">
        <ele>403</ele>
        <time>2020-02-07T14:55:34.000Z</time>
      </trkpt>
      <trkpt lat="44.73962" lon="5.03036">
        <ele>403</ele>
        <time>2020-02-07T14:55:35.000Z</time>
      </trkpt>
      <trkpt lat="44.73961" lon="5.03036">
        <ele>402</ele>
        <time>2020-02-07T14:55:36.000Z</time>
      </trkpt>
      <trkpt lat="44.7396" lon="5.03036">
        <ele>402</ele>
        <time>2020-02-07T14:55:37.000Z</time>
      </trkpt>
      <trkpt lat="44.73959" lon="5.03035">
        <ele>402</ele>
        <time>2020-02-07T14:55:38.000Z</time>
      </trkpt>
      <trkpt lat="44.73958" lon="5.03035">
        <ele>402</ele>
        <time>2020-02-07T14:55:39.000Z</time>
      </trkpt>
      <trkpt lat="44.73957" lon="5.03035">
        <ele>403</ele>
        <time>2020-02-07T14:55:40.000Z</time>
      </trkpt>
      <trkpt lat="44.73956" lon="5.03034">
        <ele>403</ele>
        <time>2020-02-07T14:55:41.000Z</time>
      </trkpt>
      <trkpt lat="44.73955" lon="5.03034">
        <ele>403</ele>
        <time>2020-02-07T14:55:42.000Z</time>
      </trkpt>
      <trkpt lat="44.73955" lon="5.03033">
        <ele>403</ele>
        <time>2020-02-07T14:55:43.000Z</time>
      </trkpt>
      <trkpt lat="44.73954" lon="5.03033">
        <ele>403</ele>
        <time>2020-02-07T14:55:44.000Z</time>
      </trkpt>
      <trkpt lat="44.73953" lon="5.03032">
        <ele>403</ele>
        <time>2020-02-07T14:55:45.000Z</time>
      </trkpt>
      <trkpt lat="44.73952" lon="5.03031">
        <ele>403</ele>
        <time>2020-02-07T14:55:46.000Z</time>
      </trkpt>
      <trkpt lat="44.73952" lon="5.03031">
        <ele>403</ele>
        <time>2020-02-07T14:55:47.000Z</time>
      </trkpt>
      <trkpt lat="44.73951" lon="5.0303">
        <ele>403</ele>
        <time>2020-02-07T14:55:48.000Z</time>
      </trkpt>
      <trkpt lat="44.73951" lon="5.0303">
        <ele>403</ele>
        <time>2020-02-07T14:55:49.000Z</time>
      </trkpt>
      <trkpt lat="44.7395" lon="5.0303">
        <ele>403</ele>
        <time>2020-02-07T14:55:50.000Z</time>
      </trkpt>
      <trkpt lat="44.7395" lon="5.03029">
        <ele>403</ele>
        <time>2020-02-07T14:55:51.000Z</time>
      </trkpt>
      <trkpt lat="44.7395" lon="5.03029">
        <ele>403</ele>
        <time>2020-02-07T14:55:52.000Z</time>
      </trkpt>
      <trkpt lat="44.73949" lon="5.03029">
        <ele>403</ele>
        <time>2020-02-07T14:55:53.000Z</time>
      </trkpt>
      <trkpt lat="44.73948" lon="5.03029">
        <ele>403</ele>
        <time>2020-02-07T14:55:54.000Z</time>
      </trkpt>
      <trkpt lat="44.73948" lon="5.03029">
        <ele>403</ele>
        <time>2020-02-07T14:55:55.000Z</time>
      </trkpt>
      <trkpt lat="44.73947" lon="5.03029">
        <ele>403</ele>
        <time>2020-02-07T14:55:56.000Z</time>
      </trkpt>
      <trkpt lat="44.73947" lon="5.03028">
        <ele>403</ele>
        <time>2020-02-07T14:55:57.000Z</time>
      </trkpt>
      <trkpt lat="44.73946" lon="5.03028">
        <ele>403</ele>
        <time>2020-02-07T14:55:58.000Z</time>
      </trkpt>
      <trkpt lat="44.73946" lon="5.03028">
        <ele>403</ele>
        <time>2020-02-07T14:55:59.000Z</time>
      </trkpt>
      <trkpt lat="44.73945" lon="5.03027">
        <ele>403</ele>
        <time>2020-02-07T14:56:00.000Z</time>
      </trkpt>
      <trkpt lat="44.73945" lon="5.03027">
        <ele>403</ele>
        <time>2020-02-07T14:56:01.000Z</time>
      </trkpt>
      <trkpt lat="44.73944" lon="5.03027">
        <ele>403</ele>
        <time>2020-02-07T14:56:02.000Z</time>
      </trkpt>
      <trkpt lat="44.73943" lon="5.03026">
        <ele>403</ele>
        <time>2020-02-07T14:56:03.000Z</time>
      </trkpt>
      <trkpt lat="44.73942" lon="5.03026">
        <ele>403</ele>
        <time>2020-02-07T14:56:04.000Z</time>
      </trkpt>
      <trkpt lat="44.73942" lon="5.03026">
        <ele>403</ele>
        <time>2020-02-07T14:56:05.000Z</time>
      </trkpt>
      <trkpt lat="44.73941" lon="5.03026">
        <ele>403</ele>
        <time>2020-02-07T14:56:06.000Z</time>
      </trkpt>
      <trkpt lat="44.7394" lon="5.03026">
        <ele>403</ele>
        <time>2020-02-07T14:56:07.000Z</time>
      </trkpt>
      <trkpt lat="44.73939" lon="5.03026">
        <ele>403</ele>
        <time>2020-02-07T14:56:08.000Z</time>
      </trkpt>
      <trkpt lat="44.73938" lon="5.03027">
        <ele>403</ele>
        <time>2020-02-07T14:56:09.000Z</time>
      </trkpt>
      <trkpt lat="44.73937" lon="5.03028">
        <ele>403</ele>
        <time>2020-02-07T14:56:10.000Z</time>
      </trkpt>
      <trkpt lat="44.73936" lon="5.03029">
        <ele>404</ele>
        <time>2020-02-07T14:56:11.000Z</time>
      </trkpt>
      <trkpt lat="44.73935" lon="5.03029">
        <ele>404</ele>
        <time>2020-02-07T14:56:12.000Z</time>
      </trkpt>
      <trkpt lat="44.73934" lon="5.0303">
        <ele>404</ele>
        <time>2020-02-07T14:56:13.000Z</time>
      </trkpt>
      <trkpt lat="44.73933" lon="5.0303">
        <ele>404</ele>
        <time>2020-02-07T14:56:14.000Z</time>
      </trkpt>
      <trkpt lat="44.73932" lon="5.0303">
        <ele>404</ele>
        <time>2020-02-07T14:56:15.000Z</time>
      </trkpt>
      <trkpt lat="44.73931" lon="5.03029">
        <ele>404</ele>
        <time>2020-02-07T14:56:16.000Z</time>
      </trkpt>
      <trkpt lat="44.7393" lon="5.03029">
        <ele>404</ele>
        <time>2020-02-07T14:56:17.000Z</time>
      </trkpt>
      <trkpt lat="44.7393" lon="5.03029">
        <ele>404</ele>
        <time>2020-02-07T14:56:18.000Z</time>
      </trkpt>
      <trkpt lat="44.73929" lon="5.03028">
        <ele>404</ele>
        <time>2020-02-07T14:56:19.000Z</time>
      </trkpt>
      <trkpt lat="44.73928" lon="5.03028">
        <ele>404</ele>
        <time>2020-02-07T14:56:20.000Z</time>
      </trkpt>
      <trkpt lat="44.73927" lon="5.03028">
        <ele>404</ele>
        <time>2020-02-07T14:56:21.000Z</time>
      </trkpt>
      <trkpt lat="44.73926" lon="5.03028">
        <ele>404</ele>
        <time>2020-02-07T14:56:22.000Z</time>
      </trkpt>
      <trkpt lat="44.73925" lon="5.03028">
        <ele>404</ele>
        <time>2020-02-07T14:56:23.000Z</time>
      </trkpt>
      <trkpt lat="44.73925" lon="5.03028">
        <ele>404</ele>
        <time>2020-02-07T14:56:24.000Z</time>
      </trkpt>
      <trkpt lat="44.73924" lon="5.03028">
        <ele>404</ele>
        <time>2020-02-07T14:56:25.000Z</time>
      </trkpt>
      <trkpt lat="44.73923" lon="5.03027">
        <ele>404</ele>
        <time>2020-02-07T14:56:26.000Z</time>
      </trkpt>
      <trkpt lat="44.73922" lon="5.03027">
        <ele>404</ele>
        <time>2020-02-07T14:56:27.000Z</time>
      </trkpt>
      <trkpt lat="44.73921" lon="5.03026">
        <ele>404</ele>
        <time>2020-02-07T14:56:28.000Z</time>
      </trkpt>
      <trkpt lat="44.7392" lon="5.03025">
        <ele>404</ele>
        <time>2020-02-07T14:56:29.000Z</time>
      </trkpt>
      <trkpt lat="44.73919" lon="5.03024">
        <ele>405</ele>
        <time>2020-02-07T14:56:30.000Z</time>
      </trkpt>
      <trkpt lat="44.73918" lon="5.03024">
        <ele>405</ele>
        <time>2020-02-07T14:56:31.000Z</time>
      </trkpt>
      <trkpt lat="44.73917" lon="5.03024">
        <ele>405</ele>
        <time>2020-02-07T14:56:32.000Z</time>
      </trkpt>
      <trkpt lat="44.73916" lon="5.03024">
        <ele>405</ele>
        <time>2020-02-07T14:56:33.000Z</time>
      </trkpt>
      <trkpt lat="44.73915" lon="5.03024">
        <ele>405</ele>
        <time>2020-02-07T14:56:34.000Z</time>
      </trkpt>
      <trkpt lat="44.73913" lon="5.03025">
        <ele>405</ele>
        <time>2020-02-07T14:56:35.000Z</time>
      </trkpt>
      <trkpt lat="44.73912" lon="5.03025">
        <ele>405</ele>
        <time>2020-02-07T14:56:36.000Z</time>
      </trkpt>
      <trkpt lat="44.73911" lon="5.03025">
        <ele>405</ele>
        <time>2020-02-07T14:56:37.000Z</time>
      </trkpt>
      <trkpt lat="44.7391" lon="5.03025">
        <ele>404</ele>
        <time>2020-02-07T14:56:38.000Z</time>
      </trkpt>
      <trkpt lat="44.73909" lon="5.03025">
        <ele>404</ele>
        <time>2020-02-07T14:56:39.000Z</time>
      </trkpt>
      <trkpt lat="44.73908" lon="5.03024">
        <ele>404</ele>
        <time>2020-02-07T14:56:40.000Z</time>
      </trkpt>
      <trkpt lat="44.73908" lon="5.03023">
        <ele>404</ele>
        <time>2020-02-07T14:56:41.000Z</time>
      </trkpt>
      <trkpt lat="44.73907" lon="5.03022">
        <ele>404</ele>
        <time>2020-02-07T14:56:42.000Z</time>
      </trkpt>
      <trkpt lat="44.73906" lon="5.0302">
        <ele>403</ele>
        <time>2020-02-07T14:56:43.000Z</time>
      </trkpt>
      <trkpt lat="44.73905" lon="5.03019">
        <ele>403</ele>
        <time>2020-02-07T14:56:44.000Z</time>
      </trkpt>
      <trkpt lat="44.73905" lon="5.03017">
        <ele>403</ele>
        <time>2020-02-07T14:56:45.000Z</time>
      </trkpt>
      <trkpt lat="44.73904" lon="5.03016">
        <ele>403</ele>
        <time>2020-02-07T14:56:46.000Z</time>
      </trkpt>
      <trkpt lat="44.73904" lon="5.03016">
        <ele>403</ele>
        <time>2020-02-07T14:56:47.000Z</time>
      </trkpt>
      <trkpt lat="44.73903" lon="5.03015">
        <ele>403</ele>
        <time>2020-02-07T14:56:48.000Z</time>
      </trkpt>
      <trkpt lat="44.73902" lon="5.03015">
        <ele>403</ele>
        <time>2020-02-07T14:56:49.000Z</time>
      </trkpt>
      <trkpt lat="44.73901" lon="5.03015">
        <ele>403</ele>
        <time>2020-02-07T14:56:50.000Z</time>
      </trkpt>
      <trkpt lat="44.739" lon="5.03014">
        <ele>403</ele>
        <time>2020-02-07T14:56:51.000Z</time>
      </trkpt>
      <trkpt lat="44.73899" lon="5.03014">
        <ele>403</ele>
        <time>2020-02-07T14:56:52.000Z</time>
      </trkpt>
      <trkpt lat="44.73899" lon="5.03013">
        <ele>403</ele>
        <time>2020-02-07T14:56:53.000Z</time>
      </trkpt>
      <trkpt lat="44.73898" lon="5.03013">
        <ele>403</ele>
        <time>2020-02-07T14:56:54.000Z</time>
      </trkpt>
      <trkpt lat="44.73897" lon="5.03012">
        <ele>403</ele>
        <time>2020-02-07T14:56:55.000Z</time>
      </trkpt>
      <trkpt lat="44.73896" lon="5.03011">
        <ele>403</ele>
        <time>2020-02-07T14:56:56.000Z</time>
      </trkpt>
      <trkpt lat="44.73896" lon="5.0301">
        <ele>403</ele>
        <time>2020-02-07T14:56:57.000Z</time>
      </trkpt>
      <trkpt lat="44.73895" lon="5.03009">
        <ele>403</ele>
        <time>2020-02-07T14:56:58.000Z</time>
      </trkpt>
      <trkpt lat="44.73894" lon="5.03007">
        <ele>403</ele>
        <time>2020-02-07T14:56:59.000Z</time>
      </trkpt>
      <trkpt lat="44.73894" lon="5.03006">
        <ele>402</ele>
        <time>2020-02-07T14:57:00.000Z</time>
      </trkpt>
      <trkpt lat="44.73894" lon="5.03004">
        <ele>402</ele>
        <time>2020-02-07T14:57:01.000Z</time>
      </trkpt>
      <trkpt lat="44.73893" lon="5.03003">
        <ele>402</ele>
        <time>2020-02-07T14:57:02.000Z</time>
      </trkpt>
      <trkpt lat="44.73893" lon="5.03002">
        <ele>401</ele>
        <time>2020-02-07T14:57:03.000Z</time>
      </trkpt>
      <trkpt lat="44.73892" lon="5.03001">
        <ele>401</ele>
        <time>2020-02-07T14:57:04.000Z</time>
      </trkpt>
      <trkpt lat="44.73891" lon="5.03001">
        <ele>401</ele>
        <time>2020-02-07T14:57:05.000Z</time>
      </trkpt>
      <trkpt lat="44.73889" lon="5.03001">
        <ele>401</ele>
        <time>2020-02-07T14:57:06.000Z</time>
      </trkpt>
      <trkpt lat="44.73889" lon="5.03001">
        <ele>400</ele>
        <time>2020-02-07T14:57:07.000Z</time>
      </trkpt>
      <trkpt lat="44.73888" lon="5.03001">
        <ele>400</ele>
        <time>2020-02-07T14:57:08.000Z</time>
      </trkpt>
      <trkpt lat="44.73886" lon="5.03001">
        <ele>400</ele>
        <time>2020-02-07T14:57:09.000Z</time>
      </trkpt>
      <trkpt lat="44.73885" lon="5.03001">
        <ele>400</ele>
        <time>2020-02-07T14:57:10.000Z</time>
      </trkpt>
      <trkpt lat="44.73884" lon="5.03">
        <ele>400</ele>
        <time>2020-02-07T14:57:11.000Z</time>
      </trkpt>
      <trkpt lat="44.73883" lon="5.03">
        <ele>400</ele>
        <time>2020-02-07T14:57:12.000Z</time>
      </trkpt>
      <trkpt lat="44.73882" lon="5.03">
        <ele>400</ele>
        <time>2020-02-07T14:57:13.000Z</time>
      </trkpt>
      <trkpt lat="44.73881" lon="5.02999">
        <ele>399</ele>
        <time>2020-02-07T14:57:14.000Z</time>
      </trkpt>
      <trkpt lat="44.7388" lon="5.02999">
        <ele>399</ele>
        <time>2020-02-07T14:57:15.000Z</time>
      </trkpt>
      <trkpt lat="44.73879" lon="5.02998">
        <ele>399</ele>
        <time>2020-02-07T14:57:16.000Z</time>
      </trkpt>
      <trkpt lat="44.73878" lon="5.02997">
        <ele>399</ele>
        <time>2020-02-07T14:57:17.000Z</time>
      </trkpt>
      <trkpt lat="44.73877" lon="5.02996">
        <ele>399</ele>
        <time>2020-02-07T14:57:18.000Z</time>
      </trkpt>
      <trkpt lat="44.73876" lon="5.02996">
        <ele>399</ele>
        <time>2020-02-07T14:57:19.000Z</time>
      </trkpt>
      <trkpt lat="44.73875" lon="5.02995">
        <ele>399</ele>
        <time>2020-02-07T14:57:20.000Z</time>
      </trkpt>
      <trkpt lat="44.73874" lon="5.02995">
        <ele>399</ele>
        <time>2020-02-07T14:57:21.000Z</time>
      </trkpt>
      <trkpt lat="44.73873" lon="5.02994">
        <ele>399</ele>
        <time>2020-02-07T14:57:22.000Z</time>
      </trkpt>
      <trkpt lat="44.73871" lon="5.02994">
        <ele>399</ele>
        <time>2020-02-07T14:57:23.000Z</time>
      </trkpt>
      <trkpt lat="44.7387" lon="5.02993">
        <ele>399</ele>
        <time>2020-02-07T14:57:24.000Z</time>
      </trkpt>
      <trkpt lat="44.73869" lon="5.02992">
        <ele>399</ele>
        <time>2020-02-07T14:57:25.000Z</time>
      </trkpt>
      <trkpt lat="44.73868" lon="5.02992">
        <ele>399</ele>
        <time>2020-02-07T14:57:26.000Z</time>
      </trkpt>
      <trkpt lat="44.73867" lon="5.02991">
        <ele>398</ele>
        <time>2020-02-07T14:57:27.000Z</time>
      </trkpt>
      <trkpt lat="44.73867" lon="5.02991">
        <ele>398</ele>
        <time>2020-02-07T14:57:28.000Z</time>
      </trkpt>
      <trkpt lat="44.73866" lon="5.02991">
        <ele>398</ele>
        <time>2020-02-07T14:57:29.000Z</time>
      </trkpt>
      <trkpt lat="44.73866" lon="5.02991">
        <ele>398</ele>
        <time>2020-02-07T14:57:30.000Z</time>
      </trkpt>
      <trkpt lat="44.73865" lon="5.02991">
        <ele>398</ele>
        <time>2020-02-07T14:57:31.000Z</time>
      </trkpt>
      <trkpt lat="44.73864" lon="5.02991">
        <ele>399</ele>
        <time>2020-02-07T14:57:32.000Z</time>
      </trkpt>
      <trkpt lat="44.73863" lon="5.02991">
        <ele>399</ele>
        <time>2020-02-07T14:57:33.000Z</time>
      </trkpt>
      <trkpt lat="44.73862" lon="5.0299">
        <ele>399</ele>
        <time>2020-02-07T14:57:34.000Z</time>
      </trkpt>
      <trkpt lat="44.73861" lon="5.0299">
        <ele>399</ele>
        <time>2020-02-07T14:57:35.000Z</time>
      </trkpt>
      <trkpt lat="44.7386" lon="5.02989">
        <ele>399</ele>
        <time>2020-02-07T14:57:36.000Z</time>
      </trkpt>
      <trkpt lat="44.73859" lon="5.02989">
        <ele>399</ele>
        <time>2020-02-07T14:57:37.000Z</time>
      </trkpt>
      <trkpt lat="44.73858" lon="5.02989">
        <ele>399</ele>
        <time>2020-02-07T14:57:38.000Z</time>
      </trkpt>
      <trkpt lat="44.73857" lon="5.02988">
        <ele>399</ele>
        <time>2020-02-07T14:57:39.000Z</time>
      </trkpt>
      <trkpt lat="44.73856" lon="5.02988">
        <ele>399</ele>
        <time>2020-02-07T14:57:40.000Z</time>
      </trkpt>
      <trkpt lat="44.73855" lon="5.02987">
        <ele>399</ele>
        <time>2020-02-07T14:57:41.000Z</time>
      </trkpt>
      <trkpt lat="44.73854" lon="5.02987">
        <ele>398</ele>
        <time>2020-02-07T14:57:42.000Z</time>
      </trkpt>
      <trkpt lat="44.73853" lon="5.02986">
        <ele>399</ele>
        <time>2020-02-07T14:57:43.000Z</time>
      </trkpt>
      <trkpt lat="44.73852" lon="5.02986">
        <ele>399</ele>
        <time>2020-02-07T14:57:44.000Z</time>
      </trkpt>
      <trkpt lat="44.73851" lon="5.02986">
        <ele>399</ele>
        <time>2020-02-07T14:57:45.000Z</time>
      </trkpt>
      <trkpt lat="44.7385" lon="5.02985">
        <ele>399</ele>
        <time>2020-02-07T14:57:46.000Z</time>
      </trkpt>
      <trkpt lat="44.73849" lon="5.02984">
        <ele>398</ele>
        <time>2020-02-07T14:57:47.000Z</time>
      </trkpt>
      <trkpt lat="44.73848" lon="5.02983">
        <ele>398</ele>
        <time>2020-02-07T14:57:48.000Z</time>
      </trkpt>
      <trkpt lat="44.73848" lon="5.02981">
        <ele>398</ele>
        <time>2020-02-07T14:57:49.000Z</time>
      </trkpt>
      <trkpt lat="44.73847" lon="5.0298">
        <ele>398</ele>
        <time>2020-02-07T14:57:50.000Z</time>
      </trkpt>
      <trkpt lat="44.73847" lon="5.02979">
        <ele>398</ele>
        <time>2020-02-07T14:57:51.000Z</time>
      </trkpt>
      <trkpt lat="44.73846" lon="5.02978">
        <ele>398</ele>
        <time>2020-02-07T14:57:52.000Z</time>
      </trkpt>
      <trkpt lat="44.73845" lon="5.02977">
        <ele>397</ele>
        <time>2020-02-07T14:57:53.000Z</time>
      </trkpt>
      <trkpt lat="44.73845" lon="5.02976">
        <ele>397</ele>
        <time>2020-02-07T14:57:54.000Z</time>
      </trkpt>
      <trkpt lat="44.73844" lon="5.02975">
        <ele>397</ele>
        <time>2020-02-07T14:57:55.000Z</time>
      </trkpt>
      <trkpt lat="44.73843" lon="5.02974">
        <ele>397</ele>
        <time>2020-02-07T14:57:56.000Z</time>
      </trkpt>
      <trkpt lat="44.73842" lon="5.02974">
        <ele>397</ele>
        <time>2020-02-07T14:57:57.000Z</time>
      </trkpt>
      <trkpt lat="44.73841" lon="5.02974">
        <ele>397</ele>
        <time>2020-02-07T14:57:58.000Z</time>
      </trkpt>
      <trkpt lat="44.7384" lon="5.02974">
        <ele>397</ele>
        <time>2020-02-07T14:57:59.000Z</time>
      </trkpt>
      <trkpt lat="44.73839" lon="5.02973">
        <ele>397</ele>
        <time>2020-02-07T14:58:00.000Z</time>
      </trkpt>
      <trkpt lat="44.73838" lon="5.02973">
        <ele>397</ele>
        <time>2020-02-07T14:58:01.000Z</time>
      </trkpt>
      <trkpt lat="44.73837" lon="5.02973">
        <ele>397</ele>
        <time>2020-02-07T14:58:02.000Z</time>
      </trkpt>
      <trkpt lat="44.73835" lon="5.02972">
        <ele>396</ele>
        <time>2020-02-07T14:58:03.000Z</time>
      </trkpt>
      <trkpt lat="44.73834" lon="5.02972">
        <ele>396</ele>
        <time>2020-02-07T14:58:04.000Z</time>
      </trkpt>
      <trkpt lat="44.73833" lon="5.02972">
        <ele>396</ele>
        <time>2020-02-07T14:58:05.000Z</time>
      </trkpt>
      <trkpt lat="44.73832" lon="5.02972">
        <ele>396</ele>
        <time>2020-02-07T14:58:06.000Z</time>
      </trkpt>
      <trkpt lat="44.7383" lon="5.02972">
        <ele>396</ele>
        <time>2020-02-07T14:58:07.000Z</time>
      </trkpt>
      <trkpt lat="44.73829" lon="5.02972">
        <ele>396</ele>
        <time>2020-02-07T14:58:08.000Z</time>
      </trkpt>
      <trkpt lat="44.73828" lon="5.02972">
        <ele>396</ele>
        <time>2020-02-07T14:58:09.000Z</time>
      </trkpt>
      <trkpt lat="44.73827" lon="5.02973">
        <ele>396</ele>
        <time>2020-02-07T14:58:10.000Z</time>
      </trkpt>
      <trkpt lat="44.73826" lon="5.02973">
        <ele>396</ele>
        <time>2020-02-07T14:58:11.000Z</time>
      </trkpt>
      <trkpt lat="44.73825" lon="5.02973">
        <ele>396</ele>
        <time>2020-02-07T14:58:12.000Z</time>
      </trkpt>
      <trkpt lat="44.73824" lon="5.02973">
        <ele>396</ele>
        <time>2020-02-07T14:58:13.000Z</time>
      </trkpt>
      <trkpt lat="44.73822" lon="5.02972">
        <ele>396</ele>
        <time>2020-02-07T14:58:14.000Z</time>
      </trkpt>
      <trkpt lat="44.73822" lon="5.02971">
        <ele>396</ele>
        <time>2020-02-07T14:58:15.000Z</time>
      </trkpt>
      <trkpt lat="44.73821" lon="5.0297">
        <ele>396</ele>
        <time>2020-02-07T14:58:16.000Z</time>
      </trkpt>
      <trkpt lat="44.7382" lon="5.02969">
        <ele>396</ele>
        <time>2020-02-07T14:58:17.000Z</time>
      </trkpt>
      <trkpt lat="44.73819" lon="5.02968">
        <ele>396</ele>
        <time>2020-02-07T14:58:18.000Z</time>
      </trkpt>
      <trkpt lat="44.73818" lon="5.02968">
        <ele>395</ele>
        <time>2020-02-07T14:58:19.000Z</time>
      </trkpt>
      <trkpt lat="44.73817" lon="5.02967">
        <ele>395</ele>
        <time>2020-02-07T14:58:20.000Z</time>
      </trkpt>
      <trkpt lat="44.73817" lon="5.02966">
        <ele>395</ele>
        <time>2020-02-07T14:58:21.000Z</time>
      </trkpt>
      <trkpt lat="44.73816" lon="5.02966">
        <ele>395</ele>
        <time>2020-02-07T14:58:22.000Z</time>
      </trkpt>
      <trkpt lat="44.73816" lon="5.02966">
        <ele>395</ele>
        <time>2020-02-07T14:58:23.000Z</time>
      </trkpt>
      <trkpt lat="44.73816" lon="5.02965">
        <ele>395</ele>
        <time>2020-02-07T14:58:24.000Z</time>
      </trkpt>
      <trkpt lat="44.73816" lon="5.02965">
        <ele>395</ele>
        <time>2020-02-07T14:58:25.000Z</time>
      </trkpt>
      <trkpt lat="44.73815" lon="5.02965">
        <ele>395</ele>
        <time>2020-02-07T14:58:26.000Z</time>
      </trkpt>
      <trkpt lat="44.73815" lon="5.02965">
        <ele>395</ele>
        <time>2020-02-07T14:58:27.000Z</time>
      </trkpt>
      <trkpt lat="44.73814" lon="5.02965">
        <ele>395</ele>
        <time>2020-02-07T14:58:28.000Z</time>
      </trkpt>
      <trkpt lat="44.73813" lon="5.02965">
        <ele>395</ele>
        <time>2020-02-07T14:58:29.000Z</time>
      </trkpt>
      <trkpt lat="44.73812" lon="5.02964">
        <ele>395</ele>
        <time>2020-02-07T14:58:30.000Z</time>
      </trkpt>
      <trkpt lat="44.73812" lon="5.02964">
        <ele>395</ele>
        <time>2020-02-07T14:58:31.000Z</time>
      </trkpt>
      <trkpt lat="44.73811" lon="5.02964">
        <ele>395</ele>
        <time>2020-02-07T14:58:32.000Z</time>
      </trkpt>
      <trkpt lat="44.73811" lon="5.02964">
        <ele>395</ele>
        <time>2020-02-07T14:58:33.000Z</time>
      </trkpt>
      <trkpt lat="44.7381" lon="5.02964">
        <ele>395</ele>
        <time>2020-02-07T14:58:34.000Z</time>
      </trkpt>
      <trkpt lat="44.73809" lon="5.02964">
        <ele>395</ele>
        <time>2020-02-07T14:58:35.000Z</time>
      </trkpt>
      <trkpt lat="44.73808" lon="5.02964">
        <ele>395</ele>
        <time>2020-02-07T14:58:36.000Z</time>
      </trkpt>
      <trkpt lat="44.73807" lon="5.02963">
        <ele>395</ele>
        <time>2020-02-07T14:58:37.000Z</time>
      </trkpt>
      <trkpt lat="44.73806" lon="5.02963">
        <ele>395</ele>
        <time>2020-02-07T14:58:38.000Z</time>
      </trkpt>
      <trkpt lat="44.73805" lon="5.02963">
        <ele>395</ele>
        <time>2020-02-07T14:58:39.000Z</time>
      </trkpt>
      <trkpt lat="44.73805" lon="5.02962">
        <ele>395</ele>
        <time>2020-02-07T14:58:40.000Z</time>
      </trkpt>
      <trkpt lat="44.73804" lon="5.02961">
        <ele>395</ele>
        <time>2020-02-07T14:58:41.000Z</time>
      </trkpt>
      <trkpt lat="44.73803" lon="5.02961">
        <ele>395</ele>
        <time>2020-02-07T14:58:42.000Z</time>
      </trkpt>
      <trkpt lat="44.73803" lon="5.0296">
        <ele>395</ele>
        <time>2020-02-07T14:58:43.000Z</time>
      </trkpt>
      <trkpt lat="44.73802" lon="5.0296">
        <ele>395</ele>
        <time>2020-02-07T14:58:44.000Z</time>
      </trkpt>
      <trkpt lat="44.73802" lon="5.02959">
        <ele>395</ele>
        <time>2020-02-07T14:58:45.000Z</time>
      </trkpt>
      <trkpt lat="44.73802" lon="5.02959">
        <ele>395</ele>
        <time>2020-02-07T14:58:46.000Z</time>
      </trkpt>
      <trkpt lat="44.73802" lon="5.02959">
        <ele>395</ele>
        <time>2020-02-07T14:58:47.000Z</time>
      </trkpt>
      <trkpt lat="44.73802" lon="5.02958">
        <ele>395</ele>
        <time>2020-02-07T14:58:48.000Z</time>
      </trkpt>
      <trkpt lat="44.73802" lon="5.02958">
        <ele>395</ele>
        <time>2020-02-07T14:58:49.000Z</time>
      </trkpt>
      <trkpt lat="44.73802" lon="5.02958">
        <ele>395</ele>
        <time>2020-02-07T14:58:50.000Z</time>
      </trkpt>
      <trkpt lat="44.73802" lon="5.02957">
        <ele>395</ele>
        <time>2020-02-07T14:58:51.000Z</time>
      </trkpt>
      <trkpt lat="44.73802" lon="5.02957">
        <ele>395</ele>
        <time>2020-02-07T14:58:52.000Z</time>
      </trkpt>
      <trkpt lat="44.73802" lon="5.02957">
        <ele>395</ele>
        <time>2020-02-07T14:58:53.000Z</time>
      </trkpt>
      <trkpt lat="44.73802" lon="5.02957">
        <ele>394</ele>
        <time>2020-02-07T14:58:54.000Z</time>
      </trkpt>
      <trkpt lat="44.73802" lon="5.02957">
        <ele>394</ele>
        <time>2020-02-07T14:58:55.000Z</time>
      </trkpt>
      <trkpt lat="44.73802" lon="5.02957">
        <ele>395</ele>
        <time>2020-02-07T14:58:56.000Z</time>
      </trkpt>
      <trkpt lat="44.73802" lon="5.02957">
        <ele>394</ele>
        <time>2020-02-07T14:58:57.000Z</time>
      </trkpt>
      <trkpt lat="44.73802" lon="5.02957">
        <ele>394</ele>
        <time>2020-02-07T14:58:58.000Z</time>
      </trkpt>
      <trkpt lat="44.73802" lon="5.02957">
        <ele>394</ele>
        <time>2020-02-07T14:58:59.000Z</time>
      </trkpt>
      <trkpt lat="44.73802" lon="5.02956">
        <ele>394</ele>
        <time>2020-02-07T14:59:00.000Z</time>
      </trkpt>
      <trkpt lat="44.73802" lon="5.02956">
        <ele>394</ele>
        <time>2020-02-07T14:59:01.000Z</time>
      </trkpt>
      <trkpt lat="44.73802" lon="5.02956">
        <ele>394</ele>
        <time>2020-02-07T14:59:02.000Z</time>
      </trkpt>
      <trkpt lat="44.73802" lon="5.02956">
        <ele>394</ele>
        <time>2020-02-07T14:59:03.000Z</time>
      </trkpt>
      <trkpt lat="44.73802" lon="5.02956">
        <ele>394</ele>
        <time>2020-02-07T14:59:04.000Z</time>
      </trkpt>
      <trkpt lat="44.73802" lon="5.02957">
        <ele>394</ele>
        <time>2020-02-07T14:59:05.000Z</time>
      </trkpt>
      <trkpt lat="44.73802" lon="5.02956">
        <ele>394</ele>
        <time>2020-02-07T14:59:06.000Z</time>
      </trkpt>
      <trkpt lat="44.73802" lon="5.02956">
        <ele>394</ele>
        <time>2020-02-07T14:59:07.000Z</time>
      </trkpt>
      <trkpt lat="44.73802" lon="5.02956">
        <ele>394</ele>
        <time>2020-02-07T14:59:08.000Z</time>
      </trkpt>
      <trkpt lat="44.73802" lon="5.02957">
        <ele>394</ele>
        <time>2020-02-07T14:59:09.000Z</time>
      </trkpt>
      <trkpt lat="44.73802" lon="5.02957">
        <ele>394</ele>
        <time>2020-02-07T14:59:10.000Z</time>
      </trkpt>
      <trkpt lat="44.73803" lon="5.02958">
        <ele>394</ele>
        <time>2020-02-07T14:59:11.000Z</time>
      </trkpt>
      <trkpt lat="44.73804" lon="5.02958">
        <ele>394</ele>
        <time>2020-02-07T14:59:12.000Z</time>
      </trkpt>
      <trkpt lat="44.73805" lon="5.02959">
        <ele>394</ele>
        <time>2020-02-07T14:59:13.000Z</time>
      </trkpt>
      <trkpt lat="44.73805" lon="5.0296">
        <ele>393</ele>
        <time>2020-02-07T14:59:14.000Z</time>
      </trkpt>
      <trkpt lat="44.73804" lon="5.02961">
        <ele>393</ele>
        <time>2020-02-07T14:59:15.000Z</time>
      </trkpt>
      <trkpt lat="44.73804" lon="5.02963">
        <ele>393</ele>
        <time>2020-02-07T14:59:16.000Z</time>
      </trkpt>
      <trkpt lat="44.73803" lon="5.02963">
        <ele>393</ele>
        <time>2020-02-07T14:59:17.000Z</time>
      </trkpt>
      <trkpt lat="44.73802" lon="5.02964">
        <ele>393</ele>
        <time>2020-02-07T14:59:18.000Z</time>
      </trkpt>
      <trkpt lat="44.73801" lon="5.02964">
        <ele>393</ele>
        <time>2020-02-07T14:59:19.000Z</time>
      </trkpt>
      <trkpt lat="44.738" lon="5.02964">
        <ele>393</ele>
        <time>2020-02-07T14:59:20.000Z</time>
      </trkpt>
      <trkpt lat="44.73799" lon="5.02964">
        <ele>393</ele>
        <time>2020-02-07T14:59:21.000Z</time>
      </trkpt>
      <trkpt lat="44.73798" lon="5.02964">
        <ele>393</ele>
        <time>2020-02-07T14:59:22.000Z</time>
      </trkpt>
      <trkpt lat="44.73797" lon="5.02964">
        <ele>393</ele>
        <time>2020-02-07T14:59:23.000Z</time>
      </trkpt>
      <trkpt lat="44.73797" lon="5.02964">
        <ele>392</ele>
        <time>2020-02-07T14:59:24.000Z</time>
      </trkpt>
      <trkpt lat="44.73796" lon="5.02964">
        <ele>392</ele>
        <time>2020-02-07T14:59:25.000Z</time>
      </trkpt>
      <trkpt lat="44.73795" lon="5.02964">
        <ele>392</ele>
        <time>2020-02-07T14:59:26.000Z</time>
      </trkpt>
      <trkpt lat="44.73794" lon="5.02964">
        <ele>392</ele>
        <time>2020-02-07T14:59:27.000Z</time>
      </trkpt>
      <trkpt lat="44.73793" lon="5.02964">
        <ele>392</ele>
        <time>2020-02-07T14:59:28.000Z</time>
      </trkpt>
      <trkpt lat="44.73792" lon="5.02964">
        <ele>392</ele>
        <time>2020-02-07T14:59:29.000Z</time>
      </trkpt>
      <trkpt lat="44.73791" lon="5.02963">
        <ele>392</ele>
        <time>2020-02-07T14:59:30.000Z</time>
      </trkpt>
      <trkpt lat="44.73791" lon="5.02963">
        <ele>392</ele>
        <time>2020-02-07T14:59:31.000Z</time>
      </trkpt>
      <trkpt lat="44.7379" lon="5.02963">
        <ele>392</ele>
        <time>2020-02-07T14:59:32.000Z</time>
      </trkpt>
      <trkpt lat="44.73789" lon="5.02962">
        <ele>391</ele>
        <time>2020-02-07T14:59:33.000Z</time>
      </trkpt>
      <trkpt lat="44.73788" lon="5.02962">
        <ele>391</ele>
        <time>2020-02-07T14:59:34.000Z</time>
      </trkpt>
      <trkpt lat="44.73787" lon="5.02962">
        <ele>391</ele>
        <time>2020-02-07T14:59:35.000Z</time>
      </trkpt>
      <trkpt lat="44.73787" lon="5.02961">
        <ele>391</ele>
        <time>2020-02-07T14:59:36.000Z</time>
      </trkpt>
      <trkpt lat="44.73786" lon="5.02961">
        <ele>391</ele>
        <time>2020-02-07T14:59:37.000Z</time>
      </trkpt>
      <trkpt lat="44.73785" lon="5.02961">
        <ele>391</ele>
        <time>2020-02-07T14:59:38.000Z</time>
      </trkpt>
      <trkpt lat="44.73785" lon="5.02961">
        <ele>391</ele>
        <time>2020-02-07T14:59:39.000Z</time>
      </trkpt>
      <trkpt lat="44.73784" lon="5.02961">
        <ele>390</ele>
        <time>2020-02-07T14:59:40.000Z</time>
      </trkpt>
      <trkpt lat="44.73783" lon="5.02961">
        <ele>390</ele>
        <time>2020-02-07T14:59:41.000Z</time>
      </trkpt>
      <trkpt lat="44.73782" lon="5.02961">
        <ele>390</ele>
        <time>2020-02-07T14:59:42.000Z</time>
      </trkpt>
      <trkpt lat="44.73781" lon="5.02961">
        <ele>390</ele>
        <time>2020-02-07T14:59:43.000Z</time>
      </trkpt>
      <trkpt lat="44.7378" lon="5.0296">
        <ele>390</ele>
        <time>2020-02-07T14:59:44.000Z</time>
      </trkpt>
      <trkpt lat="44.7378" lon="5.0296">
        <ele>390</ele>
        <time>2020-02-07T14:59:45.000Z</time>
      </trkpt>
      <trkpt lat="44.73779" lon="5.0296">
        <ele>390</ele>
        <time>2020-02-07T14:59:46.000Z</time>
      </trkpt>
      <trkpt lat="44.73778" lon="5.02959">
        <ele>390</ele>
        <time>2020-02-07T14:59:47.000Z</time>
      </trkpt>
      <trkpt lat="44.73778" lon="5.02959">
        <ele>390</ele>
        <time>2020-02-07T14:59:48.000Z</time>
      </trkpt>
      <trkpt lat="44.73777" lon="5.02959">
        <ele>390</ele>
        <time>2020-02-07T14:59:49.000Z</time>
      </trkpt>
      <trkpt lat="44.73776" lon="5.02958">
        <ele>390</ele>
        <time>2020-02-07T14:59:50.000Z</time>
      </trkpt>
      <trkpt lat="44.73775" lon="5.02958">
        <ele>390</ele>
        <time>2020-02-07T14:59:51.000Z</time>
      </trkpt>
      <trkpt lat="44.73774" lon="5.02958">
        <ele>390</ele>
        <time>2020-02-07T14:59:52.000Z</time>
      </trkpt>
      <trkpt lat="44.73773" lon="5.02958">
        <ele>390</ele>
        <time>2020-02-07T14:59:53.000Z</time>
      </trkpt>
      <trkpt lat="44.73772" lon="5.02958">
        <ele>390</ele>
        <time>2020-02-07T14:59:54.000Z</time>
      </trkpt>
      <trkpt lat="44.73772" lon="5.02958">
        <ele>391</ele>
        <time>2020-02-07T14:59:55.000Z</time>
      </trkpt>
      <trkpt lat="44.73771" lon="5.02957">
        <ele>391</ele>
        <time>2020-02-07T14:59:56.000Z</time>
      </trkpt>
      <trkpt lat="44.7377" lon="5.02956">
        <ele>391</ele>
        <time>2020-02-07T14:59:57.000Z</time>
      </trkpt>
      <trkpt lat="44.7377" lon="5.02956">
        <ele>391</ele>
        <time>2020-02-07T14:59:58.000Z</time>
      </trkpt>
      <trkpt lat="44.73769" lon="5.02955">
        <ele>391</ele>
        <time>2020-02-07T14:59:59.000Z</time>
      </trkpt>
      <trkpt lat="44.73769" lon="5.02955">
        <ele>391</ele>
        <time>2020-02-07T15:00:00.000Z</time>
      </trkpt>
      <trkpt lat="44.73768" lon="5.02954">
        <ele>391</ele>
        <time>2020-02-07T15:00:01.000Z</time>
      </trkpt>
      <trkpt lat="44.73767" lon="5.02953">
        <ele>391</ele>
        <time>2020-02-07T15:00:02.000Z</time>
      </trkpt>
      <trkpt lat="44.73767" lon="5.02953">
        <ele>391</ele>
        <time>2020-02-07T15:00:03.000Z</time>
      </trkpt>
      <trkpt lat="44.73766" lon="5.02952">
        <ele>391</ele>
        <time>2020-02-07T15:00:04.000Z</time>
      </trkpt>
      <trkpt lat="44.73765" lon="5.02952">
        <ele>391</ele>
        <time>2020-02-07T15:00:05.000Z</time>
      </trkpt>
      <trkpt lat="44.73765" lon="5.02952">
        <ele>391</ele>
        <time>2020-02-07T15:00:06.000Z</time>
      </trkpt>
      <trkpt lat="44.73764" lon="5.02952">
        <ele>391</ele>
        <time>2020-02-07T15:00:07.000Z</time>
      </trkpt>
      <trkpt lat="44.73763" lon="5.02952">
        <ele>391</ele>
        <time>2020-02-07T15:00:08.000Z</time>
      </trkpt>
      <trkpt lat="44.73762" lon="5.02952">
        <ele>391</ele>
        <time>2020-02-07T15:00:09.000Z</time>
      </trkpt>
      <trkpt lat="44.73761" lon="5.02951">
        <ele>391</ele>
        <time>2020-02-07T15:00:10.000Z</time>
      </trkpt>
      <trkpt lat="44.7376" lon="5.02951">
        <ele>390</ele>
        <time>2020-02-07T15:00:11.000Z</time>
      </trkpt>
      <trkpt lat="44.73759" lon="5.02951">
        <ele>390</ele>
        <time>2020-02-07T15:00:12.000Z</time>
      </trkpt>
      <trkpt lat="44.73758" lon="5.02951">
        <ele>390</ele>
        <time>2020-02-07T15:00:13.000Z</time>
      </trkpt>
      <trkpt lat="44.73757" lon="5.02951">
        <ele>390</ele>
        <time>2020-02-07T15:00:14.000Z</time>
      </trkpt>
      <trkpt lat="44.73756" lon="5.0295">
        <ele>389</ele>
        <time>2020-02-07T15:00:15.000Z</time>
      </trkpt>
      <trkpt lat="44.73756" lon="5.0295">
        <ele>389</ele>
        <time>2020-02-07T15:00:16.000Z</time>
      </trkpt>
      <trkpt lat="44.73755" lon="5.02949">
        <ele>389</ele>
        <time>2020-02-07T15:00:17.000Z</time>
      </trkpt>
      <trkpt lat="44.73755" lon="5.02948">
        <ele>389</ele>
        <time>2020-02-07T15:00:18.000Z</time>
      </trkpt>
      <trkpt lat="44.73755" lon="5.02948">
        <ele>389</ele>
        <time>2020-02-07T15:00:19.000Z</time>
      </trkpt>
      <trkpt lat="44.73755" lon="5.02947">
        <ele>389</ele>
        <time>2020-02-07T15:00:20.000Z</time>
      </trkpt>
      <trkpt lat="44.73755" lon="5.02947">
        <ele>388</ele>
        <time>2020-02-07T15:00:21.000Z</time>
      </trkpt>
      <trkpt lat="44.73755" lon="5.02947">
        <ele>388</ele>
        <time>2020-02-07T15:00:22.000Z</time>
      </trkpt>
      <trkpt lat="44.73755" lon="5.02947">
        <ele>388</ele>
        <time>2020-02-07T15:00:23.000Z</time>
      </trkpt>
      <trkpt lat="44.73755" lon="5.02946">
        <ele>388</ele>
        <time>2020-02-07T15:00:24.000Z</time>
      </trkpt>
      <trkpt lat="44.73755" lon="5.02946">
        <ele>388</ele>
        <time>2020-02-07T15:00:25.000Z</time>
      </trkpt>
      <trkpt lat="44.73756" lon="5.02946">
        <ele>388</ele>
        <time>2020-02-07T15:00:26.000Z</time>
      </trkpt>
      <trkpt lat="44.73756" lon="5.02946">
        <ele>388</ele>
        <time>2020-02-07T15:00:27.000Z</time>
      </trkpt>
      <trkpt lat="44.73756" lon="5.02946">
        <ele>388</ele>
        <time>2020-02-07T15:00:28.000Z</time>
      </trkpt>
      <trkpt lat="44.73756" lon="5.02945">
        <ele>388</ele>
        <time>2020-02-07T15:00:29.000Z</time>
      </trkpt>
      <trkpt lat="44.73756" lon="5.02944">
        <ele>388</ele>
        <time>2020-02-07T15:00:30.000Z</time>
      </trkpt>
      <trkpt lat="44.73756" lon="5.02943">
        <ele>388</ele>
        <time>2020-02-07T15:00:31.000Z</time>
      </trkpt>
      <trkpt lat="44.73756" lon="5.02943">
        <ele>387</ele>
        <time>2020-02-07T15:00:32.000Z</time>
      </trkpt>
      <trkpt lat="44.73756" lon="5.02943">
        <ele>387</ele>
        <time>2020-02-07T15:00:33.000Z</time>
      </trkpt>
      <trkpt lat="44.73755" lon="5.02943">
        <ele>387</ele>
        <time>2020-02-07T15:00:34.000Z</time>
      </trkpt>
      <trkpt lat="44.73755" lon="5.02942">
        <ele>387</ele>
        <time>2020-02-07T15:00:35.000Z</time>
      </trkpt>
      <trkpt lat="44.73755" lon="5.02942">
        <ele>387</ele>
        <time>2020-02-07T15:00:36.000Z</time>
      </trkpt>
      <trkpt lat="44.73755" lon="5.02942">
        <ele>387</ele>
        <time>2020-02-07T15:00:37.000Z</time>
      </trkpt>
      <trkpt lat="44.73755" lon="5.02942">
        <ele>387</ele>
        <time>2020-02-07T15:00:38.000Z</time>
      </trkpt>
      <trkpt lat="44.73755" lon="5.02942">
        <ele>386</ele>
        <time>2020-02-07T15:00:39.000Z</time>
      </trkpt>
      <trkpt lat="44.73755" lon="5.02941">
        <ele>386</ele>
        <time>2020-02-07T15:00:40.000Z</time>
      </trkpt>
      <trkpt lat="44.73755" lon="5.02941">
        <ele>386</ele>
        <time>2020-02-07T15:00:41.000Z</time>
      </trkpt>
      <trkpt lat="44.73755" lon="5.02941">
        <ele>386</ele>
        <time>2020-02-07T15:00:42.000Z</time>
      </trkpt>
      <trkpt lat="44.73755" lon="5.02941">
        <ele>386</ele>
        <time>2020-02-07T15:00:43.000Z</time>
      </trkpt>
      <trkpt lat="44.73755" lon="5.0294">
        <ele>386</ele>
        <time>2020-02-07T15:00:44.000Z</time>
      </trkpt>
      <trkpt lat="44.73755" lon="5.0294">
        <ele>386</ele>
        <time>2020-02-07T15:00:45.000Z</time>
      </trkpt>
      <trkpt lat="44.73755" lon="5.0294">
        <ele>386</ele>
        <time>2020-02-07T15:00:46.000Z</time>
      </trkpt>
      <trkpt lat="44.73755" lon="5.0294">
        <ele>385</ele>
        <time>2020-02-07T15:00:47.000Z</time>
      </trkpt>
      <trkpt lat="44.73755" lon="5.02939">
        <ele>385</ele>
        <time>2020-02-07T15:00:48.000Z</time>
      </trkpt>
      <trkpt lat="44.73755" lon="5.02939">
        <ele>385</ele>
        <time>2020-02-07T15:00:49.000Z</time>
      </trkpt>
      <trkpt lat="44.73755" lon="5.02939">
        <ele>385</ele>
        <time>2020-02-07T15:00:50.000Z</time>
      </trkpt>
      <trkpt lat="44.73755" lon="5.02939">
        <ele>385</ele>
        <time>2020-02-07T15:00:51.000Z</time>
      </trkpt>
      <trkpt lat="44.73755" lon="5.02939">
        <ele>385</ele>
        <time>2020-02-07T15:00:52.000Z</time>
      </trkpt>
      <trkpt lat="44.73755" lon="5.02939">
        <ele>385</ele>
        <time>2020-02-07T15:00:53.000Z</time>
      </trkpt>
      <trkpt lat="44.73755" lon="5.02939">
        <ele>385</ele>
        <time>2020-02-07T15:00:54.000Z</time>
      </trkpt>
      <trkpt lat="44.73755" lon="5.02939">
        <ele>385</ele>
        <time>2020-02-07T15:00:55.000Z</time>
      </trkpt>
      <trkpt lat="44.73755" lon="5.02939">
        <ele>385</ele>
        <time>2020-02-07T15:00:56.000Z</time>
      </trkpt>
      <trkpt lat="44.73755" lon="5.02939">
        <ele>385</ele>
        <time>2020-02-07T15:00:57.000Z</time>
      </trkpt>
      <trkpt lat="44.73755" lon="5.02939">
        <ele>385</ele>
        <time>2020-02-07T15:00:58.000Z</time>
      </trkpt>
      <trkpt lat="44.73755" lon="5.02939">
        <ele>385</ele>
        <time>2020-02-07T15:00:59.000Z</time>
      </trkpt>
      <trkpt lat="44.73755" lon="5.02939">
        <ele>385</ele>
        <time>2020-02-07T15:01:00.000Z</time>
      </trkpt>
      <trkpt lat="44.73755" lon="5.02939">
        <ele>384</ele>
        <time>2020-02-07T15:01:01.000Z</time>
      </trkpt>
      <trkpt lat="44.73755" lon="5.02939">
        <ele>384</ele>
        <time>2020-02-07T15:01:02.000Z</time>
      </trkpt>
      <trkpt lat="44.73755" lon="5.02939">
        <ele>384</ele>
        <time>2020-02-07T15:01:03.000Z</time>
      </trkpt>
      <trkpt lat="44.73755" lon="5.02939">
        <ele>384</ele>
        <time>2020-02-07T15:01:04.000Z</time>
      </trkpt>
      <trkpt lat="44.73754" lon="5.02938">
        <ele>384</ele>
        <time>2020-02-07T15:01:05.000Z</time>
      </trkpt>
      <trkpt lat="44.73754" lon="5.02938">
        <ele>384</ele>
        <time>2020-02-07T15:01:06.000Z</time>
      </trkpt>
      <trkpt lat="44.73754" lon="5.02938">
        <ele>384</ele>
        <time>2020-02-07T15:01:07.000Z</time>
      </trkpt>
      <trkpt lat="44.73754" lon="5.02938">
        <ele>384</ele>
        <time>2020-02-07T15:01:08.000Z</time>
      </trkpt>
      <trkpt lat="44.73754" lon="5.02938">
        <ele>384</ele>
        <time>2020-02-07T15:01:09.000Z</time>
      </trkpt>
      <trkpt lat="44.73754" lon="5.02938">
        <ele>384</ele>
        <time>2020-02-07T15:01:10.000Z</time>
      </trkpt>
      <trkpt lat="44.73754" lon="5.02938">
        <ele>384</ele>
        <time>2020-02-07T15:01:11.000Z</time>
      </trkpt>
      <trkpt lat="44.73754" lon="5.02937">
        <ele>384</ele>
        <time>2020-02-07T15:01:12.000Z</time>
      </trkpt>
      <trkpt lat="44.73754" lon="5.02937">
        <ele>384</ele>
        <time>2020-02-07T15:01:13.000Z</time>
      </trkpt>
      <trkpt lat="44.73754" lon="5.02937">
        <ele>384</ele>
        <time>2020-02-07T15:01:14.000Z</time>
      </trkpt>
      <trkpt lat="44.73754" lon="5.02937">
        <ele>384</ele>
        <time>2020-02-07T15:01:15.000Z</time>
      </trkpt>
      <trkpt lat="44.73754" lon="5.02937">
        <ele>384</ele>
        <time>2020-02-07T15:01:16.000Z</time>
      </trkpt>
      <trkpt lat="44.73754" lon="5.02937">
        <ele>384</ele>
        <time>2020-02-07T15:01:17.000Z</time>
      </trkpt>
      <trkpt lat="44.73753" lon="5.02936">
        <ele>384</ele>
        <time>2020-02-07T15:01:18.000Z</time>
      </trkpt>
      <trkpt lat="44.73753" lon="5.02936">
        <ele>384</ele>
        <time>2020-02-07T15:01:19.000Z</time>
      </trkpt>
      <trkpt lat="44.73753" lon="5.02936">
        <ele>384</ele>
        <time>2020-02-07T15:01:20.000Z</time>
      </trkpt>
      <trkpt lat="44.73753" lon="5.02936">
        <ele>384</ele>
        <time>2020-02-07T15:01:21.000Z</time>
      </trkpt>
      <trkpt lat="44.73753" lon="5.02936">
        <ele>384</ele>
        <time>2020-02-07T15:01:22.000Z</time>
      </trkpt>
      <trkpt lat="44.73753" lon="5.02936">
        <ele>384</ele>
        <time>2020-02-07T15:01:23.000Z</time>
      </trkpt>
      <trkpt lat="44.73753" lon="5.02936">
        <ele>384</ele>
        <time>2020-02-07T15:01:24.000Z</time>
      </trkpt>
      <trkpt lat="44.73753" lon="5.02936">
        <ele>384</ele>
        <time>2020-02-07T15:01:25.000Z</time>
      </trkpt>
      <trkpt lat="44.73753" lon="5.02936">
        <ele>384</ele>
        <time>2020-02-07T15:01:26.000Z</time>
      </trkpt>
      <trkpt lat="44.73753" lon="5.02936">
        <ele>384</ele>
        <time>2020-02-07T15:01:27.000Z</time>
      </trkpt>
      <trkpt lat="44.73753" lon="5.02936">
        <ele>384</ele>
        <time>2020-02-07T15:01:28.000Z</time>
      </trkpt>
      <trkpt lat="44.73753" lon="5.02936">
        <ele>384</ele>
        <time>2020-02-07T15:01:29.000Z</time>
      </trkpt>
      <trkpt lat="44.73753" lon="5.02935">
        <ele>384</ele>
        <time>2020-02-07T15:01:30.000Z</time>
      </trkpt>
      <trkpt lat="44.73753" lon="5.02935">
        <ele>384</ele>
        <time>2020-02-07T15:01:31.000Z</time>
      </trkpt>
      <trkpt lat="44.73753" lon="5.02935">
        <ele>384</ele>
        <time>2020-02-07T15:01:32.000Z</time>
      </trkpt>
      <trkpt lat="44.73753" lon="5.02935">
        <ele>384</ele>
        <time>2020-02-07T15:01:33.000Z</time>
      </trkpt>
      <trkpt lat="44.73753" lon="5.02935">
        <ele>384</ele>
        <time>2020-02-07T15:01:34.000Z</time>
      </trkpt>
      <trkpt lat="44.73753" lon="5.02935">
        <ele>384</ele>
        <time>2020-02-07T15:01:35.000Z</time>
      </trkpt>
      <trkpt lat="44.73753" lon="5.02935">
        <ele>384</ele>
        <time>2020-02-07T15:01:36.000Z</time>
      </trkpt>
      <trkpt lat="44.73753" lon="5.02934">
        <ele>384</ele>
        <time>2020-02-07T15:01:37.000Z</time>
      </trkpt>
      <trkpt lat="44.73753" lon="5.02934">
        <ele>384</ele>
        <time>2020-02-07T15:01:38.000Z</time>
      </trkpt>
      <trkpt lat="44.73753" lon="5.02934">
        <ele>384</ele>
        <time>2020-02-07T15:01:39.000Z</time>
      </trkpt>
      <trkpt lat="44.73753" lon="5.02934">
        <ele>384</ele>
        <time>2020-02-07T15:01:40.000Z</time>
      </trkpt>
      <trkpt lat="44.73753" lon="5.02934">
        <ele>384</ele>
        <time>2020-02-07T15:01:41.000Z</time>
      </trkpt>
      <trkpt lat="44.73752" lon="5.02933">
        <ele>384</ele>
        <time>2020-02-07T15:01:42.000Z</time>
      </trkpt>
      <trkpt lat="44.73752" lon="5.02933">
        <ele>384</ele>
        <time>2020-02-07T15:01:43.000Z</time>
      </trkpt>
      <trkpt lat="44.73752" lon="5.02934">
        <ele>384</ele>
        <time>2020-02-07T15:01:44.000Z</time>
      </trkpt>
      <trkpt lat="44.73751" lon="5.02934">
        <ele>384</ele>
        <time>2020-02-07T15:01:45.000Z</time>
      </trkpt>
      <trkpt lat="44.73751" lon="5.02934">
        <ele>384</ele>
        <time>2020-02-07T15:01:46.000Z</time>
      </trkpt>
      <trkpt lat="44.73751" lon="5.02933">
        <ele>384</ele>
        <time>2020-02-07T15:01:47.000Z</time>
      </trkpt>
      <trkpt lat="44.73751" lon="5.02933">
        <ele>384</ele>
        <time>2020-02-07T15:01:48.000Z</time>
      </trkpt>
      <trkpt lat="44.73751" lon="5.02933">
        <ele>384</ele>
        <time>2020-02-07T15:01:49.000Z</time>
      </trkpt>
      <trkpt lat="44.7375" lon="5.02932">
        <ele>384</ele>
        <time>2020-02-07T15:01:50.000Z</time>
      </trkpt>
      <trkpt lat="44.7375" lon="5.02932">
        <ele>384</ele>
        <time>2020-02-07T15:01:51.000Z</time>
      </trkpt>
      <trkpt lat="44.7375" lon="5.02932">
        <ele>384</ele>
        <time>2020-02-07T15:01:52.000Z</time>
      </trkpt>
      <trkpt lat="44.7375" lon="5.02932">
        <ele>384</ele>
        <time>2020-02-07T15:01:53.000Z</time>
      </trkpt>
      <trkpt lat="44.7375" lon="5.02932">
        <ele>384</ele>
        <time>2020-02-07T15:01:54.000Z</time>
      </trkpt>
      <trkpt lat="44.7375" lon="5.02932">
        <ele>384</ele>
        <time>2020-02-07T15:01:55.000Z</time>
      </trkpt>
      <trkpt lat="44.7375" lon="5.02931">
        <ele>384</ele>
        <time>2020-02-07T15:01:56.000Z</time>
      </trkpt>
      <trkpt lat="44.7375" lon="5.02931">
        <ele>384</ele>
        <time>2020-02-07T15:01:57.000Z</time>
      </trkpt>
      <trkpt lat="44.73749" lon="5.02931">
        <ele>384</ele>
        <time>2020-02-07T15:01:58.000Z</time>
      </trkpt>
      <trkpt lat="44.73749" lon="5.02931">
        <ele>384</ele>
        <time>2020-02-07T15:01:59.000Z</time>
      </trkpt>
      <trkpt lat="44.73749" lon="5.02931">
        <ele>385</ele>
        <time>2020-02-07T15:02:00.000Z</time>
      </trkpt>
      <trkpt lat="44.73749" lon="5.02931">
        <ele>385</ele>
        <time>2020-02-07T15:02:01.000Z</time>
      </trkpt>
      <trkpt lat="44.73748" lon="5.0293">
        <ele>385</ele>
        <time>2020-02-07T15:02:02.000Z</time>
      </trkpt>
      <trkpt lat="44.73748" lon="5.0293">
        <ele>385</ele>
        <time>2020-02-07T15:02:03.000Z</time>
      </trkpt>
      <trkpt lat="44.73748" lon="5.0293">
        <ele>385</ele>
        <time>2020-02-07T15:02:04.000Z</time>
      </trkpt>
      <trkpt lat="44.73748" lon="5.0293">
        <ele>385</ele>
        <time>2020-02-07T15:02:05.000Z</time>
      </trkpt>
      <trkpt lat="44.73748" lon="5.0293">
        <ele>385</ele>
        <time>2020-02-07T15:02:06.000Z</time>
      </trkpt>
      <trkpt lat="44.73748" lon="5.0293">
        <ele>385</ele>
        <time>2020-02-07T15:02:07.000Z</time>
      </trkpt>
      <trkpt lat="44.73748" lon="5.0293">
        <ele>385</ele>
        <time>2020-02-07T15:02:08.000Z</time>
      </trkpt>
      <trkpt lat="44.73748" lon="5.0293">
        <ele>385</ele>
        <time>2020-02-07T15:02:09.000Z</time>
      </trkpt>
      <trkpt lat="44.73748" lon="5.0293">
        <ele>385</ele>
        <time>2020-02-07T15:02:10.000Z</time>
      </trkpt>
      <trkpt lat="44.73747" lon="5.02929">
        <ele>385</ele>
        <time>2020-02-07T15:02:11.000Z</time>
      </trkpt>
      <trkpt lat="44.73747" lon="5.02929">
        <ele>385</ele>
        <time>2020-02-07T15:02:12.000Z</time>
      </trkpt>
      <trkpt lat="44.73747" lon="5.02929">
        <ele>385</ele>
        <time>2020-02-07T15:02:13.000Z</time>
      </trkpt>
      <trkpt lat="44.73747" lon="5.02929">
        <ele>385</ele>
        <time>2020-02-07T15:02:14.000Z</time>
      </trkpt>
      <trkpt lat="44.73747" lon="5.02929">
        <ele>385</ele>
        <time>2020-02-07T15:02:15.000Z</time>
      </trkpt>
      <trkpt lat="44.73747" lon="5.02928">
        <ele>385</ele>
        <time>2020-02-07T15:02:16.000Z</time>
      </trkpt>
      <trkpt lat="44.73747" lon="5.02928">
        <ele>385</ele>
        <time>2020-02-07T15:02:17.000Z</time>
      </trkpt>
      <trkpt lat="44.73747" lon="5.02928">
        <ele>385</ele>
        <time>2020-02-07T15:02:18.000Z</time>
      </trkpt>
      <trkpt lat="44.73747" lon="5.02928">
        <ele>385</ele>
        <time>2020-02-07T15:02:19.000Z</time>
      </trkpt>
      <trkpt lat="44.73747" lon="5.02928">
        <ele>385</ele>
        <time>2020-02-07T15:02:20.000Z</time>
      </trkpt>
      <trkpt lat="44.73747" lon="5.02928">
        <ele>385</ele>
        <time>2020-02-07T15:02:21.000Z</time>
      </trkpt>
      <trkpt lat="44.73747" lon="5.02928">
        <ele>385</ele>
        <time>2020-02-07T15:02:22.000Z</time>
      </trkpt>
      <trkpt lat="44.73747" lon="5.02928">
        <ele>385</ele>
        <time>2020-02-07T15:02:23.000Z</time>
      </trkpt>
      <trkpt lat="44.73747" lon="5.02928">
        <ele>385</ele>
        <time>2020-02-07T15:02:24.000Z</time>
      </trkpt>
      <trkpt lat="44.73747" lon="5.02928">
        <ele>385</ele>
        <time>2020-02-07T15:02:25.000Z</time>
      </trkpt>
      <trkpt lat="44.73747" lon="5.02928">
        <ele>385</ele>
        <time>2020-02-07T15:02:26.000Z</time>
      </trkpt>
      <trkpt lat="44.73747" lon="5.02928">
        <ele>385</ele>
        <time>2020-02-07T15:02:27.000Z</time>
      </trkpt>
      <trkpt lat="44.73746" lon="5.02928">
        <ele>385</ele>
        <time>2020-02-07T15:02:28.000Z</time>
      </trkpt>
      <trkpt lat="44.73746" lon="5.02928">
        <ele>385</ele>
        <time>2020-02-07T15:02:29.000Z</time>
      </trkpt>
      <trkpt lat="44.73746" lon="5.02927">
        <ele>385</ele>
        <time>2020-02-07T15:02:30.000Z</time>
      </trkpt>
      <trkpt lat="44.73746" lon="5.02926">
        <ele>384</ele>
        <time>2020-02-07T15:02:31.000Z</time>
      </trkpt>
      <trkpt lat="44.73746" lon="5.02926">
        <ele>384</ele>
        <time>2020-02-07T15:02:32.000Z</time>
      </trkpt>
      <trkpt lat="44.73746" lon="5.02925">
        <ele>384</ele>
        <time>2020-02-07T15:02:33.000Z</time>
      </trkpt>
      <trkpt lat="44.73746" lon="5.02925">
        <ele>384</ele>
        <time>2020-02-07T15:02:34.000Z</time>
      </trkpt>
      <trkpt lat="44.73746" lon="5.02924">
        <ele>384</ele>
        <time>2020-02-07T15:02:35.000Z</time>
      </trkpt>
      <trkpt lat="44.73746" lon="5.02924">
        <ele>384</ele>
        <time>2020-02-07T15:02:36.000Z</time>
      </trkpt>
      <trkpt lat="44.73747" lon="5.02924">
        <ele>385</ele>
        <time>2020-02-07T15:02:37.000Z</time>
      </trkpt>
      <trkpt lat="44.73746" lon="5.02924">
        <ele>385</ele>
        <time>2020-02-07T15:02:38.000Z</time>
      </trkpt>
      <trkpt lat="44.73746" lon="5.02924">
        <ele>385</ele>
        <time>2020-02-07T15:02:39.000Z</time>
      </trkpt>
      <trkpt lat="44.73746" lon="5.02924">
        <ele>385</ele>
        <time>2020-02-07T15:02:40.000Z</time>
      </trkpt>
      <trkpt lat="44.73747" lon="5.02924">
        <ele>385</ele>
        <time>2020-02-07T15:02:41.000Z</time>
      </trkpt>
      <trkpt lat="44.73747" lon="5.02924">
        <ele>385</ele>
        <time>2020-02-07T15:02:42.000Z</time>
      </trkpt>
      <trkpt lat="44.73747" lon="5.02924">
        <ele>385</ele>
        <time>2020-02-07T15:02:43.000Z</time>
      </trkpt>
      <trkpt lat="44.73746" lon="5.02924">
        <ele>385</ele>
        <time>2020-02-07T15:02:44.000Z</time>
      </trkpt>
      <trkpt lat="44.73746" lon="5.02924">
        <ele>385</ele>
        <time>2020-02-07T15:02:45.000Z</time>
      </trkpt>
      <trkpt lat="44.73746" lon="5.02924">
        <ele>385</ele>
        <time>2020-02-07T15:02:46.000Z</time>
      </trkpt>
      <trkpt lat="44.73747" lon="5.02925">
        <ele>386</ele>
        <time>2020-02-07T15:02:47.000Z</time>
      </trkpt>
      <trkpt lat="44.73747" lon="5.02926">
        <ele>386</ele>
        <time>2020-02-07T15:02:48.000Z</time>
      </trkpt>
      <trkpt lat="44.73748" lon="5.02926">
        <ele>386</ele>
        <time>2020-02-07T15:02:49.000Z</time>
      </trkpt>
      <trkpt lat="44.73748" lon="5.02927">
        <ele>386</ele>
        <time>2020-02-07T15:02:50.000Z</time>
      </trkpt>
      <trkpt lat="44.73749" lon="5.02927">
        <ele>386</ele>
        <time>2020-02-07T15:02:51.000Z</time>
      </trkpt>
      <trkpt lat="44.73749" lon="5.02927">
        <ele>386</ele>
        <time>2020-02-07T15:02:52.000Z</time>
      </trkpt>
      <trkpt lat="44.7375" lon="5.02927">
        <ele>386</ele>
        <time>2020-02-07T15:02:53.000Z</time>
      </trkpt>
      <trkpt lat="44.73751" lon="5.02927">
        <ele>386</ele>
        <time>2020-02-07T15:02:54.000Z</time>
      </trkpt>
      <trkpt lat="44.73751" lon="5.02926">
        <ele>386</ele>
        <time>2020-02-07T15:02:55.000Z</time>
      </trkpt>
      <trkpt lat="44.73752" lon="5.02926">
        <ele>387</ele>
        <time>2020-02-07T15:02:56.000Z</time>
      </trkpt>
      <trkpt lat="44.73753" lon="5.02926">
        <ele>387</ele>
        <time>2020-02-07T15:02:57.000Z</time>
      </trkpt>
      <trkpt lat="44.73753" lon="5.02925">
        <ele>387</ele>
        <time>2020-02-07T15:02:58.000Z</time>
      </trkpt>
      <trkpt lat="44.73754" lon="5.02925">
        <ele>387</ele>
        <time>2020-02-07T15:02:59.000Z</time>
      </trkpt>
      <trkpt lat="44.73754" lon="5.02925">
        <ele>387</ele>
        <time>2020-02-07T15:03:00.000Z</time>
      </trkpt>
      <trkpt lat="44.73755" lon="5.02926">
        <ele>387</ele>
        <time>2020-02-07T15:03:01.000Z</time>
      </trkpt>
      <trkpt lat="44.73755" lon="5.02926">
        <ele>387</ele>
        <time>2020-02-07T15:03:02.000Z</time>
      </trkpt>
      <trkpt lat="44.73756" lon="5.02926">
        <ele>388</ele>
        <time>2020-02-07T15:03:03.000Z</time>
      </trkpt>
      <trkpt lat="44.73756" lon="5.02926">
        <ele>388</ele>
        <time>2020-02-07T15:03:04.000Z</time>
      </trkpt>
      <trkpt lat="44.73756" lon="5.02926">
        <ele>388</ele>
        <time>2020-02-07T15:03:05.000Z</time>
      </trkpt>
      <trkpt lat="44.73756" lon="5.02926">
        <ele>388</ele>
        <time>2020-02-07T15:03:06.000Z</time>
      </trkpt>
      <trkpt lat="44.73756" lon="5.02926">
        <ele>388</ele>
        <time>2020-02-07T15:03:07.000Z</time>
      </trkpt>
      <trkpt lat="44.73756" lon="5.02926">
        <ele>388</ele>
        <time>2020-02-07T15:03:08.000Z</time>
      </trkpt>
      <trkpt lat="44.73756" lon="5.02926">
        <ele>389</ele>
        <time>2020-02-07T15:03:09.000Z</time>
      </trkpt>
      <trkpt lat="44.73757" lon="5.02926">
        <ele>389</ele>
        <time>2020-02-07T15:03:10.000Z</time>
      </trkpt>
      <trkpt lat="44.73757" lon="5.02927">
        <ele>389</ele>
        <time>2020-02-07T15:03:11.000Z</time>
      </trkpt>
      <trkpt lat="44.73758" lon="5.02927">
        <ele>389</ele>
        <time>2020-02-07T15:03:12.000Z</time>
      </trkpt>
      <trkpt lat="44.73758" lon="5.02927">
        <ele>390</ele>
        <time>2020-02-07T15:03:13.000Z</time>
      </trkpt>
      <trkpt lat="44.73758" lon="5.02927">
        <ele>390</ele>
        <time>2020-02-07T15:03:14.000Z</time>
      </trkpt>
      <trkpt lat="44.73758" lon="5.02927">
        <ele>390</ele>
        <time>2020-02-07T15:03:15.000Z</time>
      </trkpt>
      <trkpt lat="44.73758" lon="5.02927">
        <ele>390</ele>
        <time>2020-02-07T15:03:16.000Z</time>
      </trkpt>
      <trkpt lat="44.73759" lon="5.02927">
        <ele>390</ele>
        <time>2020-02-07T15:03:17.000Z</time>
      </trkpt>
      <trkpt lat="44.73759" lon="5.02927">
        <ele>390</ele>
        <time>2020-02-07T15:03:18.000Z</time>
      </trkpt>
      <trkpt lat="44.73759" lon="5.02928">
        <ele>391</ele>
        <time>2020-02-07T15:03:19.000Z</time>
      </trkpt>
      <trkpt lat="44.73759" lon="5.02928">
        <ele>391</ele>
        <time>2020-02-07T15:03:20.000Z</time>
      </trkpt>
      <trkpt lat="44.7376" lon="5.02929">
        <ele>391</ele>
        <time>2020-02-07T15:03:21.000Z</time>
      </trkpt>
      <trkpt lat="44.7376" lon="5.02929">
        <ele>391</ele>
        <time>2020-02-07T15:03:22.000Z</time>
      </trkpt>
      <trkpt lat="44.73761" lon="5.02929">
        <ele>391</ele>
        <time>2020-02-07T15:03:23.000Z</time>
      </trkpt>
      <trkpt lat="44.73761" lon="5.02929">
        <ele>391</ele>
        <time>2020-02-07T15:03:24.000Z</time>
      </trkpt>
      <trkpt lat="44.73761" lon="5.02929">
        <ele>391</ele>
        <time>2020-02-07T15:03:25.000Z</time>
      </trkpt>
      <trkpt lat="44.73761" lon="5.02928">
        <ele>391</ele>
        <time>2020-02-07T15:03:26.000Z</time>
      </trkpt>
      <trkpt lat="44.73761" lon="5.02929">
        <ele>391</ele>
        <time>2020-02-07T15:03:27.000Z</time>
      </trkpt>
      <trkpt lat="44.73761" lon="5.02929">
        <ele>391</ele>
        <time>2020-02-07T15:03:28.000Z</time>
      </trkpt>
      <trkpt lat="44.73761" lon="5.02929">
        <ele>392</ele>
        <time>2020-02-07T15:03:29.000Z</time>
      </trkpt>
      <trkpt lat="44.73761" lon="5.02929">
        <ele>392</ele>
        <time>2020-02-07T15:03:30.000Z</time>
      </trkpt>
      <trkpt lat="44.73761" lon="5.02929">
        <ele>392</ele>
        <time>2020-02-07T15:03:31.000Z</time>
      </trkpt>
      <trkpt lat="44.73761" lon="5.02928">
        <ele>392</ele>
        <time>2020-02-07T15:03:32.000Z</time>
      </trkpt>
      <trkpt lat="44.73761" lon="5.02928">
        <ele>392</ele>
        <time>2020-02-07T15:03:33.000Z</time>
      </trkpt>
      <trkpt lat="44.73761" lon="5.02928">
        <ele>392</ele>
        <time>2020-02-07T15:03:34.000Z</time>
      </trkpt>
      <trkpt lat="44.7376" lon="5.02928">
        <ele>392</ele>
        <time>2020-02-07T15:03:35.000Z</time>
      </trkpt>
      <trkpt lat="44.7376" lon="5.02928">
        <ele>392</ele>
        <time>2020-02-07T15:03:36.000Z</time>
      </trkpt>
      <trkpt lat="44.7376" lon="5.02928">
        <ele>392</ele>
        <time>2020-02-07T15:03:37.000Z</time>
      </trkpt>
      <trkpt lat="44.7376" lon="5.02928">
        <ele>393</ele>
        <time>2020-02-07T15:03:38.000Z</time>
      </trkpt>
      <trkpt lat="44.7376" lon="5.02927">
        <ele>393</ele>
        <time>2020-02-07T15:03:39.000Z</time>
      </trkpt>
      <trkpt lat="44.7376" lon="5.02927">
        <ele>393</ele>
        <time>2020-02-07T15:03:40.000Z</time>
      </trkpt>
      <trkpt lat="44.7376" lon="5.02927">
        <ele>393</ele>
        <time>2020-02-07T15:03:41.000Z</time>
      </trkpt>
      <trkpt lat="44.7376" lon="5.02927">
        <ele>393</ele>
        <time>2020-02-07T15:03:42.000Z</time>
      </trkpt>
      <trkpt lat="44.73761" lon="5.02926">
        <ele>393</ele>
        <time>2020-02-07T15:03:43.000Z</time>
      </trkpt>
      <trkpt lat="44.73761" lon="5.02926">
        <ele>393</ele>
        <time>2020-02-07T15:03:44.000Z</time>
      </trkpt>
      <trkpt lat="44.73761" lon="5.02926">
        <ele>393</ele>
        <time>2020-02-07T15:03:45.000Z</time>
      </trkpt>
      <trkpt lat="44.7376" lon="5.02926">
        <ele>393</ele>
        <time>2020-02-07T15:03:46.000Z</time>
      </trkpt>
      <trkpt lat="44.7376" lon="5.02926">
        <ele>393</ele>
        <time>2020-02-07T15:03:47.000Z</time>
      </trkpt>
      <trkpt lat="44.7376" lon="5.02926">
        <ele>393</ele>
        <time>2020-02-07T15:03:48.000Z</time>
      </trkpt>
      <trkpt lat="44.7376" lon="5.02926">
        <ele>393</ele>
        <time>2020-02-07T15:03:49.000Z</time>
      </trkpt>
      <trkpt lat="44.73759" lon="5.02926">
        <ele>393</ele>
        <time>2020-02-07T15:03:50.000Z</time>
      </trkpt>
      <trkpt lat="44.73759" lon="5.02926">
        <ele>393</ele>
        <time>2020-02-07T15:03:51.000Z</time>
      </trkpt>
      <trkpt lat="44.73758" lon="5.02926">
        <ele>393</ele>
        <time>2020-02-07T15:03:52.000Z</time>
      </trkpt>
      <trkpt lat="44.73757" lon="5.02926">
        <ele>393</ele>
        <time>2020-02-07T15:03:53.000Z</time>
      </trkpt>
      <trkpt lat="44.73757" lon="5.02926">
        <ele>393</ele>
        <time>2020-02-07T15:03:54.000Z</time>
      </trkpt>
      <trkpt lat="44.73756" lon="5.02926">
        <ele>393</ele>
        <time>2020-02-07T15:03:55.000Z</time>
      </trkpt>
      <trkpt lat="44.73756" lon="5.02927">
        <ele>394</ele>
        <time>2020-02-07T15:03:56.000Z</time>
      </trkpt>
      <trkpt lat="44.73755" lon="5.02927">
        <ele>394</ele>
        <time>2020-02-07T15:03:57.000Z</time>
      </trkpt>
      <trkpt lat="44.73755" lon="5.02927">
        <ele>394</ele>
        <time>2020-02-07T15:03:58.000Z</time>
      </trkpt>
      <trkpt lat="44.73755" lon="5.02927">
        <ele>394</ele>
        <time>2020-02-07T15:03:59.000Z</time>
      </trkpt>
      <trkpt lat="44.73755" lon="5.02928">
        <ele>394</ele>
        <time>2020-02-07T15:04:00.000Z</time>
      </trkpt>
      <trkpt lat="44.73755" lon="5.02928">
        <ele>394</ele>
        <time>2020-02-07T15:04:01.000Z</time>
      </trkpt>
      <trkpt lat="44.73754" lon="5.02928">
        <ele>394</ele>
        <time>2020-02-07T15:04:02.000Z</time>
      </trkpt>
      <trkpt lat="44.73753" lon="5.02928">
        <ele>394</ele>
        <time>2020-02-07T15:04:03.000Z</time>
      </trkpt>
      <trkpt lat="44.73752" lon="5.02928">
        <ele>394</ele>
        <time>2020-02-07T15:04:04.000Z</time>
      </trkpt>
      <trkpt lat="44.73752" lon="5.02928">
        <ele>394</ele>
        <time>2020-02-07T15:04:05.000Z</time>
      </trkpt>
      <trkpt lat="44.73751" lon="5.02928">
        <ele>394</ele>
        <time>2020-02-07T15:04:06.000Z</time>
      </trkpt>
      <trkpt lat="44.73751" lon="5.02927">
        <ele>393</ele>
        <time>2020-02-07T15:04:07.000Z</time>
      </trkpt>
      <trkpt lat="44.7375" lon="5.02927">
        <ele>393</ele>
        <time>2020-02-07T15:04:08.000Z</time>
      </trkpt>
      <trkpt lat="44.73749" lon="5.02926">
        <ele>393</ele>
        <time>2020-02-07T15:04:09.000Z</time>
      </trkpt>
      <trkpt lat="44.73749" lon="5.02925">
        <ele>393</ele>
        <time>2020-02-07T15:04:10.000Z</time>
      </trkpt>
      <trkpt lat="44.73748" lon="5.02924">
        <ele>393</ele>
        <time>2020-02-07T15:04:11.000Z</time>
      </trkpt>
      <trkpt lat="44.73747" lon="5.02923">
        <ele>393</ele>
        <time>2020-02-07T15:04:12.000Z</time>
      </trkpt>
      <trkpt lat="44.73746" lon="5.02923">
        <ele>393</ele>
        <time>2020-02-07T15:04:13.000Z</time>
      </trkpt>
      <trkpt lat="44.73746" lon="5.02923">
        <ele>393</ele>
        <time>2020-02-07T15:04:14.000Z</time>
      </trkpt>
      <trkpt lat="44.73745" lon="5.02923">
        <ele>393</ele>
        <time>2020-02-07T15:04:15.000Z</time>
      </trkpt>
      <trkpt lat="44.73744" lon="5.02923">
        <ele>393</ele>
        <time>2020-02-07T15:04:16.000Z</time>
      </trkpt>
      <trkpt lat="44.73743" lon="5.02923">
        <ele>393</ele>
        <time>2020-02-07T15:04:17.000Z</time>
      </trkpt>
      <trkpt lat="44.73742" lon="5.02923">
        <ele>393</ele>
        <time>2020-02-07T15:04:18.000Z</time>
      </trkpt>
      <trkpt lat="44.73741" lon="5.02924">
        <ele>392</ele>
        <time>2020-02-07T15:04:19.000Z</time>
      </trkpt>
      <trkpt lat="44.7374" lon="5.02923">
        <ele>392</ele>
        <time>2020-02-07T15:04:20.000Z</time>
      </trkpt>
      <trkpt lat="44.73739" lon="5.02923">
        <ele>392</ele>
        <time>2020-02-07T15:04:21.000Z</time>
      </trkpt>
      <trkpt lat="44.73738" lon="5.02923">
        <ele>392</ele>
        <time>2020-02-07T15:04:22.000Z</time>
      </trkpt>
      <trkpt lat="44.73736" lon="5.02922">
        <ele>392</ele>
        <time>2020-02-07T15:04:23.000Z</time>
      </trkpt>
      <trkpt lat="44.73735" lon="5.02922">
        <ele>392</ele>
        <time>2020-02-07T15:04:24.000Z</time>
      </trkpt>
      <trkpt lat="44.73733" lon="5.02922">
        <ele>392</ele>
        <time>2020-02-07T15:04:25.000Z</time>
      </trkpt>
      <trkpt lat="44.73732" lon="5.02922">
        <ele>391</ele>
        <time>2020-02-07T15:04:26.000Z</time>
      </trkpt>
      <trkpt lat="44.7373" lon="5.02922">
        <ele>391</ele>
        <time>2020-02-07T15:04:27.000Z</time>
      </trkpt>
      <trkpt lat="44.73729" lon="5.02922">
        <ele>391</ele>
        <time>2020-02-07T15:04:28.000Z</time>
      </trkpt>
      <trkpt lat="44.73728" lon="5.02922">
        <ele>391</ele>
        <time>2020-02-07T15:04:29.000Z</time>
      </trkpt>
      <trkpt lat="44.73727" lon="5.02922">
        <ele>391</ele>
        <time>2020-02-07T15:04:30.000Z</time>
      </trkpt>
      <trkpt lat="44.73727" lon="5.02922">
        <ele>391</ele>
        <time>2020-02-07T15:04:31.000Z</time>
      </trkpt>
      <trkpt lat="44.73726" lon="5.02922">
        <ele>391</ele>
        <time>2020-02-07T15:04:32.000Z</time>
      </trkpt>
      <trkpt lat="44.73725" lon="5.02922">
        <ele>391</ele>
        <time>2020-02-07T15:04:33.000Z</time>
      </trkpt>
      <trkpt lat="44.73723" lon="5.02923">
        <ele>391</ele>
        <time>2020-02-07T15:04:34.000Z</time>
      </trkpt>
      <trkpt lat="44.73722" lon="5.02922">
        <ele>391</ele>
        <time>2020-02-07T15:04:35.000Z</time>
      </trkpt>
      <trkpt lat="44.73721" lon="5.02922">
        <ele>390</ele>
        <time>2020-02-07T15:04:36.000Z</time>
      </trkpt>
      <trkpt lat="44.7372" lon="5.02922">
        <ele>390</ele>
        <time>2020-02-07T15:04:37.000Z</time>
      </trkpt>
      <trkpt lat="44.73719" lon="5.02922">
        <ele>390</ele>
        <time>2020-02-07T15:04:38.000Z</time>
      </trkpt>
      <trkpt lat="44.73718" lon="5.02921">
        <ele>390</ele>
        <time>2020-02-07T15:04:39.000Z</time>
      </trkpt>
      <trkpt lat="44.73716" lon="5.0292">
        <ele>390</ele>
        <time>2020-02-07T15:04:40.000Z</time>
      </trkpt>
      <trkpt lat="44.73715" lon="5.0292">
        <ele>390</ele>
        <time>2020-02-07T15:04:41.000Z</time>
      </trkpt>
      <trkpt lat="44.73714" lon="5.02919">
        <ele>390</ele>
        <time>2020-02-07T15:04:42.000Z</time>
      </trkpt>
      <trkpt lat="44.73713" lon="5.02919">
        <ele>390</ele>
        <time>2020-02-07T15:04:43.000Z</time>
      </trkpt>
      <trkpt lat="44.73711" lon="5.02918">
        <ele>390</ele>
        <time>2020-02-07T15:04:44.000Z</time>
      </trkpt>
      <trkpt lat="44.7371" lon="5.02918">
        <ele>389</ele>
        <time>2020-02-07T15:04:45.000Z</time>
      </trkpt>
      <trkpt lat="44.73709" lon="5.02917">
        <ele>389</ele>
        <time>2020-02-07T15:04:46.000Z</time>
      </trkpt>
      <trkpt lat="44.73707" lon="5.02917">
        <ele>389</ele>
        <time>2020-02-07T15:04:47.000Z</time>
      </trkpt>
      <trkpt lat="44.73706" lon="5.02916">
        <ele>389</ele>
        <time>2020-02-07T15:04:48.000Z</time>
      </trkpt>
      <trkpt lat="44.73705" lon="5.02916">
        <ele>389</ele>
        <time>2020-02-07T15:04:49.000Z</time>
      </trkpt>
      <trkpt lat="44.73704" lon="5.02916">
        <ele>389</ele>
        <time>2020-02-07T15:04:50.000Z</time>
      </trkpt>
      <trkpt lat="44.73703" lon="5.02915">
        <ele>389</ele>
        <time>2020-02-07T15:04:51.000Z</time>
      </trkpt>
      <trkpt lat="44.73702" lon="5.02915">
        <ele>389</ele>
        <time>2020-02-07T15:04:52.000Z</time>
      </trkpt>
      <trkpt lat="44.737" lon="5.02914">
        <ele>389</ele>
        <time>2020-02-07T15:04:53.000Z</time>
      </trkpt>
      <trkpt lat="44.73698" lon="5.02914">
        <ele>389</ele>
        <time>2020-02-07T15:04:54.000Z</time>
      </trkpt>
      <trkpt lat="44.73697" lon="5.02913">
        <ele>389</ele>
        <time>2020-02-07T15:04:55.000Z</time>
      </trkpt>
      <trkpt lat="44.73695" lon="5.02913">
        <ele>389</ele>
        <time>2020-02-07T15:04:56.000Z</time>
      </trkpt>
      <trkpt lat="44.73694" lon="5.02912">
        <ele>388</ele>
        <time>2020-02-07T15:04:57.000Z</time>
      </trkpt>
      <trkpt lat="44.73692" lon="5.02912">
        <ele>388</ele>
        <time>2020-02-07T15:04:58.000Z</time>
      </trkpt>
      <trkpt lat="44.73691" lon="5.02912">
        <ele>388</ele>
        <time>2020-02-07T15:04:59.000Z</time>
      </trkpt>
      <trkpt lat="44.73689" lon="5.02912">
        <ele>388</ele>
        <time>2020-02-07T15:05:00.000Z</time>
      </trkpt>
      <trkpt lat="44.73688" lon="5.02912">
        <ele>387</ele>
        <time>2020-02-07T15:05:01.000Z</time>
      </trkpt>
      <trkpt lat="44.73687" lon="5.02912">
        <ele>387</ele>
        <time>2020-02-07T15:05:02.000Z</time>
      </trkpt>
      <trkpt lat="44.73686" lon="5.02912">
        <ele>387</ele>
        <time>2020-02-07T15:05:03.000Z</time>
      </trkpt>
      <trkpt lat="44.73685" lon="5.02912">
        <ele>387</ele>
        <time>2020-02-07T15:05:04.000Z</time>
      </trkpt>
      <trkpt lat="44.73684" lon="5.02913">
        <ele>387</ele>
        <time>2020-02-07T15:05:05.000Z</time>
      </trkpt>
      <trkpt lat="44.73683" lon="5.02913">
        <ele>386</ele>
        <time>2020-02-07T15:05:06.000Z</time>
      </trkpt>
      <trkpt lat="44.73682" lon="5.02913">
        <ele>386</ele>
        <time>2020-02-07T15:05:07.000Z</time>
      </trkpt>
      <trkpt lat="44.73681" lon="5.02913">
        <ele>386</ele>
        <time>2020-02-07T15:05:08.000Z</time>
      </trkpt>
      <trkpt lat="44.7368" lon="5.02913">
        <ele>386</ele>
        <time>2020-02-07T15:05:09.000Z</time>
      </trkpt>
      <trkpt lat="44.73679" lon="5.02913">
        <ele>385</ele>
        <time>2020-02-07T15:05:10.000Z</time>
      </trkpt>
      <trkpt lat="44.73678" lon="5.02914">
        <ele>385</ele>
        <time>2020-02-07T15:05:11.000Z</time>
      </trkpt>
      <trkpt lat="44.73676" lon="5.02914">
        <ele>384</ele>
        <time>2020-02-07T15:05:12.000Z</time>
      </trkpt>
      <trkpt lat="44.73675" lon="5.02914">
        <ele>384</ele>
        <time>2020-02-07T15:05:13.000Z</time>
      </trkpt>
      <trkpt lat="44.73674" lon="5.02914">
        <ele>383</ele>
        <time>2020-02-07T15:05:14.000Z</time>
      </trkpt>
      <trkpt lat="44.73673" lon="5.02914">
        <ele>383</ele>
        <time>2020-02-07T15:05:15.000Z</time>
      </trkpt>
      <trkpt lat="44.73671" lon="5.02914">
        <ele>382</ele>
        <time>2020-02-07T15:05:16.000Z</time>
      </trkpt>
      <trkpt lat="44.73671" lon="5.02913">
        <ele>382</ele>
        <time>2020-02-07T15:05:17.000Z</time>
      </trkpt>
      <trkpt lat="44.7367" lon="5.02911">
        <ele>381</ele>
        <time>2020-02-07T15:05:18.000Z</time>
      </trkpt>
      <trkpt lat="44.7367" lon="5.02909">
        <ele>381</ele>
        <time>2020-02-07T15:05:19.000Z</time>
      </trkpt>
      <trkpt lat="44.73669" lon="5.02908">
        <ele>381</ele>
        <time>2020-02-07T15:05:20.000Z</time>
      </trkpt>
      <trkpt lat="44.73669" lon="5.02906">
        <ele>380</ele>
        <time>2020-02-07T15:05:21.000Z</time>
      </trkpt>
      <trkpt lat="44.73668" lon="5.02905">
        <ele>380</ele>
        <time>2020-02-07T15:05:22.000Z</time>
      </trkpt>
      <trkpt lat="44.73668" lon="5.02904">
        <ele>379</ele>
        <time>2020-02-07T15:05:23.000Z</time>
      </trkpt>
      <trkpt lat="44.73667" lon="5.02903">
        <ele>379</ele>
        <time>2020-02-07T15:05:24.000Z</time>
      </trkpt>
      <trkpt lat="44.73667" lon="5.02902">
        <ele>379</ele>
        <time>2020-02-07T15:05:25.000Z</time>
      </trkpt>
      <trkpt lat="44.73666" lon="5.02901">
        <ele>378</ele>
        <time>2020-02-07T15:05:26.000Z</time>
      </trkpt>
      <trkpt lat="44.73666" lon="5.02899">
        <ele>378</ele>
        <time>2020-02-07T15:05:27.000Z</time>
      </trkpt>
      <trkpt lat="44.73665" lon="5.02897">
        <ele>377</ele>
        <time>2020-02-07T15:05:28.000Z</time>
      </trkpt>
      <trkpt lat="44.73665" lon="5.02895">
        <ele>377</ele>
        <time>2020-02-07T15:05:29.000Z</time>
      </trkpt>
      <trkpt lat="44.73664" lon="5.02894">
        <ele>377</ele>
        <time>2020-02-07T15:05:30.000Z</time>
      </trkpt>
      <trkpt lat="44.73663" lon="5.02892">
        <ele>376</ele>
        <time>2020-02-07T15:05:31.000Z</time>
      </trkpt>
      <trkpt lat="44.73663" lon="5.0289">
        <ele>376</ele>
        <time>2020-02-07T15:05:32.000Z</time>
      </trkpt>
      <trkpt lat="44.73662" lon="5.02889">
        <ele>376</ele>
        <time>2020-02-07T15:05:33.000Z</time>
      </trkpt>
      <trkpt lat="44.73662" lon="5.02887">
        <ele>375</ele>
        <time>2020-02-07T15:05:34.000Z</time>
      </trkpt>
      <trkpt lat="44.73661" lon="5.02885">
        <ele>375</ele>
        <time>2020-02-07T15:05:35.000Z</time>
      </trkpt>
      <trkpt lat="44.73661" lon="5.02883">
        <ele>375</ele>
        <time>2020-02-07T15:05:36.000Z</time>
      </trkpt>
      <trkpt lat="44.73661" lon="5.02881">
        <ele>375</ele>
        <time>2020-02-07T15:05:37.000Z</time>
      </trkpt>
      <trkpt lat="44.7366" lon="5.02879">
        <ele>374</ele>
        <time>2020-02-07T15:05:38.000Z</time>
      </trkpt>
      <trkpt lat="44.7366" lon="5.02878">
        <ele>374</ele>
        <time>2020-02-07T15:05:39.000Z</time>
      </trkpt>
      <trkpt lat="44.7366" lon="5.02876">
        <ele>373</ele>
        <time>2020-02-07T15:05:40.000Z</time>
      </trkpt>
      <trkpt lat="44.7366" lon="5.02874">
        <ele>373</ele>
        <time>2020-02-07T15:05:41.000Z</time>
      </trkpt>
      <trkpt lat="44.73659" lon="5.02872">
        <ele>373</ele>
        <time>2020-02-07T15:05:42.000Z</time>
      </trkpt>
      <trkpt lat="44.73659" lon="5.02871">
        <ele>372</ele>
        <time>2020-02-07T15:05:43.000Z</time>
      </trkpt>
      <trkpt lat="44.73659" lon="5.02869">
        <ele>372</ele>
        <time>2020-02-07T15:05:44.000Z</time>
      </trkpt>
      <trkpt lat="44.73658" lon="5.02868">
        <ele>372</ele>
        <time>2020-02-07T15:05:45.000Z</time>
      </trkpt>
      <trkpt lat="44.73657" lon="5.02867">
        <ele>372</ele>
        <time>2020-02-07T15:05:46.000Z</time>
      </trkpt>
      <trkpt lat="44.73656" lon="5.02866">
        <ele>371</ele>
        <time>2020-02-07T15:05:47.000Z</time>
      </trkpt>
      <trkpt lat="44.73655" lon="5.02866">
        <ele>371</ele>
        <time>2020-02-07T15:05:48.000Z</time>
      </trkpt>
      <trkpt lat="44.73655" lon="5.02865">
        <ele>371</ele>
        <time>2020-02-07T15:05:49.000Z</time>
      </trkpt>
      <trkpt lat="44.73654" lon="5.02866">
        <ele>371</ele>
        <time>2020-02-07T15:05:50.000Z</time>
      </trkpt>
      <trkpt lat="44.73653" lon="5.02866">
        <ele>371</ele>
        <time>2020-02-07T15:05:51.000Z</time>
      </trkpt>
      <trkpt lat="44.73652" lon="5.02866">
        <ele>371</ele>
        <time>2020-02-07T15:05:52.000Z</time>
      </trkpt>
      <trkpt lat="44.73651" lon="5.02866">
        <ele>371</ele>
        <time>2020-02-07T15:05:53.000Z</time>
      </trkpt>
      <trkpt lat="44.73649" lon="5.02867">
        <ele>371</ele>
        <time>2020-02-07T15:05:54.000Z</time>
      </trkpt>
      <trkpt lat="44.73648" lon="5.02867">
        <ele>371</ele>
        <time>2020-02-07T15:05:55.000Z</time>
      </trkpt>
      <trkpt lat="44.73647" lon="5.02867">
        <ele>371</ele>
        <time>2020-02-07T15:05:56.000Z</time>
      </trkpt>
      <trkpt lat="44.73646" lon="5.02867">
        <ele>371</ele>
        <time>2020-02-07T15:05:57.000Z</time>
      </trkpt>
      <trkpt lat="44.73645" lon="5.02867">
        <ele>371</ele>
        <time>2020-02-07T15:05:58.000Z</time>
      </trkpt>
      <trkpt lat="44.73644" lon="5.02867">
        <ele>371</ele>
        <time>2020-02-07T15:05:59.000Z</time>
      </trkpt>
      <trkpt lat="44.73643" lon="5.02866">
        <ele>371</ele>
        <time>2020-02-07T15:06:00.000Z</time>
      </trkpt>
      <trkpt lat="44.73641" lon="5.02866">
        <ele>371</ele>
        <time>2020-02-07T15:06:01.000Z</time>
      </trkpt>
      <trkpt lat="44.7364" lon="5.02866">
        <ele>371</ele>
        <time>2020-02-07T15:06:02.000Z</time>
      </trkpt>
      <trkpt lat="44.73639" lon="5.02866">
        <ele>371</ele>
        <time>2020-02-07T15:06:03.000Z</time>
      </trkpt>
      <trkpt lat="44.73638" lon="5.02866">
        <ele>371</ele>
        <time>2020-02-07T15:06:04.000Z</time>
      </trkpt>
      <trkpt lat="44.73636" lon="5.02866">
        <ele>371</ele>
        <time>2020-02-07T15:06:05.000Z</time>
      </trkpt>
      <trkpt lat="44.73635" lon="5.02867">
        <ele>371</ele>
        <time>2020-02-07T15:06:06.000Z</time>
      </trkpt>
      <trkpt lat="44.73634" lon="5.02867">
        <ele>371</ele>
        <time>2020-02-07T15:06:07.000Z</time>
      </trkpt>
      <trkpt lat="44.73632" lon="5.02868">
        <ele>371</ele>
        <time>2020-02-07T15:06:08.000Z</time>
      </trkpt>
      <trkpt lat="44.73631" lon="5.02868">
        <ele>371</ele>
        <time>2020-02-07T15:06:09.000Z</time>
      </trkpt>
      <trkpt lat="44.7363" lon="5.02868">
        <ele>370</ele>
        <time>2020-02-07T15:06:10.000Z</time>
      </trkpt>
      <trkpt lat="44.73629" lon="5.02868">
        <ele>370</ele>
        <time>2020-02-07T15:06:11.000Z</time>
      </trkpt>
      <trkpt lat="44.73628" lon="5.02868">
        <ele>370</ele>
        <time>2020-02-07T15:06:12.000Z</time>
      </trkpt>
      <trkpt lat="44.73627" lon="5.02868">
        <ele>370</ele>
        <time>2020-02-07T15:06:13.000Z</time>
      </trkpt>
      <trkpt lat="44.73626" lon="5.02867">
        <ele>370</ele>
        <time>2020-02-07T15:06:14.000Z</time>
      </trkpt>
      <trkpt lat="44.73624" lon="5.02867">
        <ele>370</ele>
        <time>2020-02-07T15:06:15.000Z</time>
      </trkpt>
      <trkpt lat="44.73623" lon="5.02866">
        <ele>370</ele>
        <time>2020-02-07T15:06:16.000Z</time>
      </trkpt>
      <trkpt lat="44.73622" lon="5.02866">
        <ele>370</ele>
        <time>2020-02-07T15:06:17.000Z</time>
      </trkpt>
      <trkpt lat="44.7362" lon="5.02865">
        <ele>370</ele>
        <time>2020-02-07T15:06:18.000Z</time>
      </trkpt>
      <trkpt lat="44.73619" lon="5.02865">
        <ele>370</ele>
        <time>2020-02-07T15:06:19.000Z</time>
      </trkpt>
      <trkpt lat="44.73618" lon="5.02865">
        <ele>370</ele>
        <time>2020-02-07T15:06:20.000Z</time>
      </trkpt>
      <trkpt lat="44.73617" lon="5.02864">
        <ele>370</ele>
        <time>2020-02-07T15:06:21.000Z</time>
      </trkpt>
      <trkpt lat="44.73615" lon="5.02864">
        <ele>370</ele>
        <time>2020-02-07T15:06:22.000Z</time>
      </trkpt>
      <trkpt lat="44.73614" lon="5.02864">
        <ele>370</ele>
        <time>2020-02-07T15:06:23.000Z</time>
      </trkpt>
      <trkpt lat="44.73612" lon="5.02863">
        <ele>370</ele>
        <time>2020-02-07T15:06:24.000Z</time>
      </trkpt>
      <trkpt lat="44.73611" lon="5.02863">
        <ele>370</ele>
        <time>2020-02-07T15:06:25.000Z</time>
      </trkpt>
      <trkpt lat="44.73609" lon="5.02863">
        <ele>370</ele>
        <time>2020-02-07T15:06:26.000Z</time>
      </trkpt>
      <trkpt lat="44.73608" lon="5.02862">
        <ele>369</ele>
        <time>2020-02-07T15:06:27.000Z</time>
      </trkpt>
      <trkpt lat="44.73607" lon="5.02862">
        <ele>369</ele>
        <time>2020-02-07T15:06:28.000Z</time>
      </trkpt>
      <trkpt lat="44.73606" lon="5.02861">
        <ele>369</ele>
        <time>2020-02-07T15:06:29.000Z</time>
      </trkpt>
      <trkpt lat="44.73604" lon="5.02861">
        <ele>369</ele>
        <time>2020-02-07T15:06:30.000Z</time>
      </trkpt>
      <trkpt lat="44.73603" lon="5.0286">
        <ele>369</ele>
        <time>2020-02-07T15:06:31.000Z</time>
      </trkpt>
      <trkpt lat="44.73601" lon="5.0286">
        <ele>369</ele>
        <time>2020-02-07T15:06:32.000Z</time>
      </trkpt>
      <trkpt lat="44.736" lon="5.02859">
        <ele>368</ele>
        <time>2020-02-07T15:06:33.000Z</time>
      </trkpt>
      <trkpt lat="44.73598" lon="5.02858">
        <ele>368</ele>
        <time>2020-02-07T15:06:34.000Z</time>
      </trkpt>
      <trkpt lat="44.73597" lon="5.02857">
        <ele>368</ele>
        <time>2020-02-07T15:06:35.000Z</time>
      </trkpt>
      <trkpt lat="44.73595" lon="5.02856">
        <ele>367</ele>
        <time>2020-02-07T15:06:36.000Z</time>
      </trkpt>
      <trkpt lat="44.73594" lon="5.02856">
        <ele>367</ele>
        <time>2020-02-07T15:06:37.000Z</time>
      </trkpt>
      <trkpt lat="44.73592" lon="5.02856">
        <ele>367</ele>
        <time>2020-02-07T15:06:38.000Z</time>
      </trkpt>
      <trkpt lat="44.73591" lon="5.02855">
        <ele>366</ele>
        <time>2020-02-07T15:06:39.000Z</time>
      </trkpt>
      <trkpt lat="44.73589" lon="5.02855">
        <ele>366</ele>
        <time>2020-02-07T15:06:40.000Z</time>
      </trkpt>
      <trkpt lat="44.73588" lon="5.02854">
        <ele>365</ele>
        <time>2020-02-07T15:06:41.000Z</time>
      </trkpt>
      <trkpt lat="44.73587" lon="5.02853">
        <ele>365</ele>
        <time>2020-02-07T15:06:42.000Z</time>
      </trkpt>
      <trkpt lat="44.73585" lon="5.02852">
        <ele>364</ele>
        <time>2020-02-07T15:06:43.000Z</time>
      </trkpt>
      <trkpt lat="44.73584" lon="5.02852">
        <ele>364</ele>
        <time>2020-02-07T15:06:44.000Z</time>
      </trkpt>
      <trkpt lat="44.73582" lon="5.02851">
        <ele>364</ele>
        <time>2020-02-07T15:06:45.000Z</time>
      </trkpt>
      <trkpt lat="44.73581" lon="5.02851">
        <ele>364</ele>
        <time>2020-02-07T15:06:46.000Z</time>
      </trkpt>
      <trkpt lat="44.7358" lon="5.0285">
        <ele>363</ele>
        <time>2020-02-07T15:06:47.000Z</time>
      </trkpt>
      <trkpt lat="44.73578" lon="5.02849">
        <ele>363</ele>
        <time>2020-02-07T15:06:48.000Z</time>
      </trkpt>
      <trkpt lat="44.73577" lon="5.02848">
        <ele>363</ele>
        <time>2020-02-07T15:06:49.000Z</time>
      </trkpt>
      <trkpt lat="44.73576" lon="5.02847">
        <ele>362</ele>
        <time>2020-02-07T15:06:50.000Z</time>
      </trkpt>
      <trkpt lat="44.73575" lon="5.02846">
        <ele>362</ele>
        <time>2020-02-07T15:06:51.000Z</time>
      </trkpt>
      <trkpt lat="44.73574" lon="5.02845">
        <ele>362</ele>
        <time>2020-02-07T15:06:52.000Z</time>
      </trkpt>
      <trkpt lat="44.73572" lon="5.02844">
        <ele>361</ele>
        <time>2020-02-07T15:06:53.000Z</time>
      </trkpt>
      <trkpt lat="44.73571" lon="5.02843">
        <ele>361</ele>
        <time>2020-02-07T15:06:54.000Z</time>
      </trkpt>
      <trkpt lat="44.7357" lon="5.02842">
        <ele>361</ele>
        <time>2020-02-07T15:06:55.000Z</time>
      </trkpt>
      <trkpt lat="44.73569" lon="5.02841">
        <ele>361</ele>
        <time>2020-02-07T15:06:56.000Z</time>
      </trkpt>
      <trkpt lat="44.73568" lon="5.0284">
        <ele>360</ele>
        <time>2020-02-07T15:06:57.000Z</time>
      </trkpt>
      <trkpt lat="44.73567" lon="5.02839">
        <ele>360</ele>
        <time>2020-02-07T15:06:58.000Z</time>
      </trkpt>
      <trkpt lat="44.73566" lon="5.02839">
        <ele>360</ele>
        <time>2020-02-07T15:06:59.000Z</time>
      </trkpt>
      <trkpt lat="44.73565" lon="5.02838">
        <ele>360</ele>
        <time>2020-02-07T15:07:00.000Z</time>
      </trkpt>
      <trkpt lat="44.73564" lon="5.02838">
        <ele>360</ele>
        <time>2020-02-07T15:07:01.000Z</time>
      </trkpt>
      <trkpt lat="44.73562" lon="5.02837">
        <ele>360</ele>
        <time>2020-02-07T15:07:02.000Z</time>
      </trkpt>
      <trkpt lat="44.73561" lon="5.02835">
        <ele>359</ele>
        <time>2020-02-07T15:07:03.000Z</time>
      </trkpt>
      <trkpt lat="44.7356" lon="5.02834">
        <ele>359</ele>
        <time>2020-02-07T15:07:04.000Z</time>
      </trkpt>
      <trkpt lat="44.73559" lon="5.02833">
        <ele>359</ele>
        <time>2020-02-07T15:07:05.000Z</time>
      </trkpt>
      <trkpt lat="44.73557" lon="5.02833">
        <ele>359</ele>
        <time>2020-02-07T15:07:06.000Z</time>
      </trkpt>
      <trkpt lat="44.73556" lon="5.02832">
        <ele>359</ele>
        <time>2020-02-07T15:07:07.000Z</time>
      </trkpt>
      <trkpt lat="44.73555" lon="5.02831">
        <ele>359</ele>
        <time>2020-02-07T15:07:08.000Z</time>
      </trkpt>
      <trkpt lat="44.73554" lon="5.0283">
        <ele>359</ele>
        <time>2020-02-07T15:07:09.000Z</time>
      </trkpt>
      <trkpt lat="44.73552" lon="5.02829">
        <ele>359</ele>
        <time>2020-02-07T15:07:10.000Z</time>
      </trkpt>
      <trkpt lat="44.73551" lon="5.02828">
        <ele>359</ele>
        <time>2020-02-07T15:07:11.000Z</time>
      </trkpt>
      <trkpt lat="44.7355" lon="5.02827">
        <ele>359</ele>
        <time>2020-02-07T15:07:12.000Z</time>
      </trkpt>
      <trkpt lat="44.73549" lon="5.02826">
        <ele>359</ele>
        <time>2020-02-07T15:07:13.000Z</time>
      </trkpt>
      <trkpt lat="44.73548" lon="5.02825">
        <ele>359</ele>
        <time>2020-02-07T15:07:14.000Z</time>
      </trkpt>
      <trkpt lat="44.73547" lon="5.02824">
        <ele>359</ele>
        <time>2020-02-07T15:07:15.000Z</time>
      </trkpt>
      <trkpt lat="44.73547" lon="5.02823">
        <ele>359</ele>
        <time>2020-02-07T15:07:16.000Z</time>
      </trkpt>
      <trkpt lat="44.73546" lon="5.02823">
        <ele>359</ele>
        <time>2020-02-07T15:07:17.000Z</time>
      </trkpt>
      <trkpt lat="44.73545" lon="5.02822">
        <ele>358</ele>
        <time>2020-02-07T15:07:18.000Z</time>
      </trkpt>
      <trkpt lat="44.73544" lon="5.02821">
        <ele>358</ele>
        <time>2020-02-07T15:07:19.000Z</time>
      </trkpt>
      <trkpt lat="44.73543" lon="5.0282">
        <ele>358</ele>
        <time>2020-02-07T15:07:20.000Z</time>
      </trkpt>
      <trkpt lat="44.73542" lon="5.02819">
        <ele>358</ele>
        <time>2020-02-07T15:07:21.000Z</time>
      </trkpt>
      <trkpt lat="44.73541" lon="5.02818">
        <ele>358</ele>
        <time>2020-02-07T15:07:22.000Z</time>
      </trkpt>
      <trkpt lat="44.7354" lon="5.02817">
        <ele>357</ele>
        <time>2020-02-07T15:07:23.000Z</time>
      </trkpt>
      <trkpt lat="44.73539" lon="5.02816">
        <ele>357</ele>
        <time>2020-02-07T15:07:24.000Z</time>
      </trkpt>
      <trkpt lat="44.73538" lon="5.02816">
        <ele>357</ele>
        <time>2020-02-07T15:07:25.000Z</time>
      </trkpt>
      <trkpt lat="44.73537" lon="5.02815">
        <ele>357</ele>
        <time>2020-02-07T15:07:26.000Z</time>
      </trkpt>
      <trkpt lat="44.73536" lon="5.02815">
        <ele>357</ele>
        <time>2020-02-07T15:07:27.000Z</time>
      </trkpt>
      <trkpt lat="44.73535" lon="5.02814">
        <ele>357</ele>
        <time>2020-02-07T15:07:28.000Z</time>
      </trkpt>
      <trkpt lat="44.73533" lon="5.02814">
        <ele>357</ele>
        <time>2020-02-07T15:07:29.000Z</time>
      </trkpt>
      <trkpt lat="44.73532" lon="5.02813">
        <ele>357</ele>
        <time>2020-02-07T15:07:30.000Z</time>
      </trkpt>
      <trkpt lat="44.73531" lon="5.02812">
        <ele>357</ele>
        <time>2020-02-07T15:07:31.000Z</time>
      </trkpt>
      <trkpt lat="44.7353" lon="5.02811">
        <ele>357</ele>
        <time>2020-02-07T15:07:32.000Z</time>
      </trkpt>
      <trkpt lat="44.73528" lon="5.0281">
        <ele>357</ele>
        <time>2020-02-07T15:07:33.000Z</time>
      </trkpt>
      <trkpt lat="44.73527" lon="5.02809">
        <ele>357</ele>
        <time>2020-02-07T15:07:34.000Z</time>
      </trkpt>
      <trkpt lat="44.73525" lon="5.02807">
        <ele>357</ele>
        <time>2020-02-07T15:07:35.000Z</time>
      </trkpt>
      <trkpt lat="44.73524" lon="5.02806">
        <ele>357</ele>
        <time>2020-02-07T15:07:36.000Z</time>
      </trkpt>
      <trkpt lat="44.73523" lon="5.02805">
        <ele>357</ele>
        <time>2020-02-07T15:07:37.000Z</time>
      </trkpt>
      <trkpt lat="44.73522" lon="5.02803">
        <ele>357</ele>
        <time>2020-02-07T15:07:38.000Z</time>
      </trkpt>
      <trkpt lat="44.73521" lon="5.02802">
        <ele>357</ele>
        <time>2020-02-07T15:07:39.000Z</time>
      </trkpt>
      <trkpt lat="44.73519" lon="5.02802">
        <ele>357</ele>
        <time>2020-02-07T15:07:40.000Z</time>
      </trkpt>
      <trkpt lat="44.73518" lon="5.02801">
        <ele>356</ele>
        <time>2020-02-07T15:07:41.000Z</time>
      </trkpt>
      <trkpt lat="44.73517" lon="5.028">
        <ele>356</ele>
        <time>2020-02-07T15:07:42.000Z</time>
      </trkpt>
      <trkpt lat="44.73516" lon="5.02799">
        <ele>356</ele>
        <time>2020-02-07T15:07:43.000Z</time>
      </trkpt>
      <trkpt lat="44.73515" lon="5.02799">
        <ele>356</ele>
        <time>2020-02-07T15:07:44.000Z</time>
      </trkpt>
      <trkpt lat="44.73514" lon="5.02798">
        <ele>356</ele>
        <time>2020-02-07T15:07:45.000Z</time>
      </trkpt>
      <trkpt lat="44.73513" lon="5.02797">
        <ele>356</ele>
        <time>2020-02-07T15:07:46.000Z</time>
      </trkpt>
      <trkpt lat="44.73512" lon="5.02796">
        <ele>356</ele>
        <time>2020-02-07T15:07:47.000Z</time>
      </trkpt>
      <trkpt lat="44.73511" lon="5.02795">
        <ele>356</ele>
        <time>2020-02-07T15:07:48.000Z</time>
      </trkpt>
      <trkpt lat="44.7351" lon="5.02794">
        <ele>356</ele>
        <time>2020-02-07T15:07:49.000Z</time>
      </trkpt>
      <trkpt lat="44.73508" lon="5.02793">
        <ele>355</ele>
        <time>2020-02-07T15:07:50.000Z</time>
      </trkpt>
      <trkpt lat="44.73507" lon="5.02792">
        <ele>355</ele>
        <time>2020-02-07T15:07:51.000Z</time>
      </trkpt>
      <trkpt lat="44.73506" lon="5.0279">
        <ele>355</ele>
        <time>2020-02-07T15:07:52.000Z</time>
      </trkpt>
      <trkpt lat="44.73505" lon="5.02789">
        <ele>355</ele>
        <time>2020-02-07T15:07:53.000Z</time>
      </trkpt>
      <trkpt lat="44.73504" lon="5.02788">
        <ele>355</ele>
        <time>2020-02-07T15:07:54.000Z</time>
      </trkpt>
      <trkpt lat="44.73503" lon="5.02787">
        <ele>355</ele>
        <time>2020-02-07T15:07:55.000Z</time>
      </trkpt>
      <trkpt lat="44.73502" lon="5.02786">
        <ele>355</ele>
        <time>2020-02-07T15:07:56.000Z</time>
      </trkpt>
      <trkpt lat="44.73501" lon="5.02784">
        <ele>355</ele>
        <time>2020-02-07T15:07:57.000Z</time>
      </trkpt>
      <trkpt lat="44.735" lon="5.02783">
        <ele>355</ele>
        <time>2020-02-07T15:07:58.000Z</time>
      </trkpt>
      <trkpt lat="44.73499" lon="5.02781">
        <ele>354</ele>
        <time>2020-02-07T15:07:59.000Z</time>
      </trkpt>
      <trkpt lat="44.73498" lon="5.0278">
        <ele>354</ele>
        <time>2020-02-07T15:08:00.000Z</time>
      </trkpt>
      <trkpt lat="44.73497" lon="5.02779">
        <ele>354</ele>
        <time>2020-02-07T15:08:01.000Z</time>
      </trkpt>
      <trkpt lat="44.73495" lon="5.02778">
        <ele>354</ele>
        <time>2020-02-07T15:08:02.000Z</time>
      </trkpt>
      <trkpt lat="44.73494" lon="5.02777">
        <ele>354</ele>
        <time>2020-02-07T15:08:03.000Z</time>
      </trkpt>
      <trkpt lat="44.73493" lon="5.02777">
        <ele>354</ele>
        <time>2020-02-07T15:08:04.000Z</time>
      </trkpt>
      <trkpt lat="44.73492" lon="5.02775">
        <ele>354</ele>
        <time>2020-02-07T15:08:05.000Z</time>
      </trkpt>
      <trkpt lat="44.73491" lon="5.02774">
        <ele>354</ele>
        <time>2020-02-07T15:08:06.000Z</time>
      </trkpt>
      <trkpt lat="44.7349" lon="5.02773">
        <ele>354</ele>
        <time>2020-02-07T15:08:07.000Z</time>
      </trkpt>
      <trkpt lat="44.73489" lon="5.02772">
        <ele>354</ele>
        <time>2020-02-07T15:08:08.000Z</time>
      </trkpt>
      <trkpt lat="44.73488" lon="5.02772">
        <ele>354</ele>
        <time>2020-02-07T15:08:09.000Z</time>
      </trkpt>
      <trkpt lat="44.73487" lon="5.02771">
        <ele>354</ele>
        <time>2020-02-07T15:08:10.000Z</time>
      </trkpt>
      <trkpt lat="44.73486" lon="5.0277">
        <ele>354</ele>
        <time>2020-02-07T15:08:11.000Z</time>
      </trkpt>
      <trkpt lat="44.73484" lon="5.02769">
        <ele>354</ele>
        <time>2020-02-07T15:08:12.000Z</time>
      </trkpt>
      <trkpt lat="44.73483" lon="5.02768">
        <ele>354</ele>
        <time>2020-02-07T15:08:13.000Z</time>
      </trkpt>
      <trkpt lat="44.73482" lon="5.02767">
        <ele>354</ele>
        <time>2020-02-07T15:08:14.000Z</time>
      </trkpt>
      <trkpt lat="44.73481" lon="5.02766">
        <ele>354</ele>
        <time>2020-02-07T15:08:15.000Z</time>
      </trkpt>
      <trkpt lat="44.7348" lon="5.02765">
        <ele>354</ele>
        <time>2020-02-07T15:08:16.000Z</time>
      </trkpt>
      <trkpt lat="44.73479" lon="5.02764">
        <ele>354</ele>
        <time>2020-02-07T15:08:17.000Z</time>
      </trkpt>
      <trkpt lat="44.73478" lon="5.02763">
        <ele>354</ele>
        <time>2020-02-07T15:08:18.000Z</time>
      </trkpt>
      <trkpt lat="44.73477" lon="5.02761">
        <ele>354</ele>
        <time>2020-02-07T15:08:19.000Z</time>
      </trkpt>
      <trkpt lat="44.73476" lon="5.0276">
        <ele>354</ele>
        <time>2020-02-07T15:08:20.000Z</time>
      </trkpt>
      <trkpt lat="44.73474" lon="5.02759">
        <ele>354</ele>
        <time>2020-02-07T15:08:21.000Z</time>
      </trkpt>
      <trkpt lat="44.73473" lon="5.02759">
        <ele>354</ele>
        <time>2020-02-07T15:08:22.000Z</time>
      </trkpt>
      <trkpt lat="44.73472" lon="5.02757">
        <ele>354</ele>
        <time>2020-02-07T15:08:23.000Z</time>
      </trkpt>
      <trkpt lat="44.73471" lon="5.02756">
        <ele>354</ele>
        <time>2020-02-07T15:08:24.000Z</time>
      </trkpt>
      <trkpt lat="44.7347" lon="5.02755">
        <ele>354</ele>
        <time>2020-02-07T15:08:25.000Z</time>
      </trkpt>
      <trkpt lat="44.73469" lon="5.02754">
        <ele>353</ele>
        <time>2020-02-07T15:08:26.000Z</time>
      </trkpt>
      <trkpt lat="44.73468" lon="5.02752">
        <ele>353</ele>
        <time>2020-02-07T15:08:27.000Z</time>
      </trkpt>
      <trkpt lat="44.73467" lon="5.02751">
        <ele>353</ele>
        <time>2020-02-07T15:08:28.000Z</time>
      </trkpt>
      <trkpt lat="44.73466" lon="5.02751">
        <ele>353</ele>
        <time>2020-02-07T15:08:29.000Z</time>
      </trkpt>
      <trkpt lat="44.73465" lon="5.0275">
        <ele>353</ele>
        <time>2020-02-07T15:08:30.000Z</time>
      </trkpt>
      <trkpt lat="44.73464" lon="5.02749">
        <ele>353</ele>
        <time>2020-02-07T15:08:31.000Z</time>
      </trkpt>
      <trkpt lat="44.73463" lon="5.02748">
        <ele>353</ele>
        <time>2020-02-07T15:08:32.000Z</time>
      </trkpt>
      <trkpt lat="44.73463" lon="5.02747">
        <ele>353</ele>
        <time>2020-02-07T15:08:33.000Z</time>
      </trkpt>
      <trkpt lat="44.73462" lon="5.02746">
        <ele>353</ele>
        <time>2020-02-07T15:08:34.000Z</time>
      </trkpt>
      <trkpt lat="44.73461" lon="5.02745">
        <ele>353</ele>
        <time>2020-02-07T15:08:35.000Z</time>
      </trkpt>
      <trkpt lat="44.7346" lon="5.02744">
        <ele>352</ele>
        <time>2020-02-07T15:08:36.000Z</time>
      </trkpt>
      <trkpt lat="44.73459" lon="5.02743">
        <ele>352</ele>
        <time>2020-02-07T15:08:37.000Z</time>
      </trkpt>
      <trkpt lat="44.73458" lon="5.02742">
        <ele>352</ele>
        <time>2020-02-07T15:08:38.000Z</time>
      </trkpt>
      <trkpt lat="44.73457" lon="5.02741">
        <ele>352</ele>
        <time>2020-02-07T15:08:39.000Z</time>
      </trkpt>
      <trkpt lat="44.73457" lon="5.02739">
        <ele>351</ele>
        <time>2020-02-07T15:08:40.000Z</time>
      </trkpt>
      <trkpt lat="44.73456" lon="5.02738">
        <ele>351</ele>
        <time>2020-02-07T15:08:41.000Z</time>
      </trkpt>
      <trkpt lat="44.73456" lon="5.02737">
        <ele>351</ele>
        <time>2020-02-07T15:08:42.000Z</time>
      </trkpt>
      <trkpt lat="44.73455" lon="5.02737">
        <ele>351</ele>
        <time>2020-02-07T15:08:43.000Z</time>
      </trkpt>
      <trkpt lat="44.73454" lon="5.02736">
        <ele>351</ele>
        <time>2020-02-07T15:08:44.000Z</time>
      </trkpt>
      <trkpt lat="44.73454" lon="5.02736">
        <ele>351</ele>
        <time>2020-02-07T15:08:45.000Z</time>
      </trkpt>
      <trkpt lat="44.73453" lon="5.02735">
        <ele>350</ele>
        <time>2020-02-07T15:08:46.000Z</time>
      </trkpt>
      <trkpt lat="44.73452" lon="5.02735">
        <ele>350</ele>
        <time>2020-02-07T15:08:47.000Z</time>
      </trkpt>
      <trkpt lat="44.73451" lon="5.02734">
        <ele>350</ele>
        <time>2020-02-07T15:08:48.000Z</time>
      </trkpt>
      <trkpt lat="44.73451" lon="5.02734">
        <ele>350</ele>
        <time>2020-02-07T15:08:49.000Z</time>
      </trkpt>
      <trkpt lat="44.7345" lon="5.02733">
        <ele>350</ele>
        <time>2020-02-07T15:08:50.000Z</time>
      </trkpt>
      <trkpt lat="44.73449" lon="5.02732">
        <ele>350</ele>
        <time>2020-02-07T15:08:51.000Z</time>
      </trkpt>
      <trkpt lat="44.73449" lon="5.02731">
        <ele>350</ele>
        <time>2020-02-07T15:08:52.000Z</time>
      </trkpt>
      <trkpt lat="44.73448" lon="5.0273">
        <ele>350</ele>
        <time>2020-02-07T15:08:53.000Z</time>
      </trkpt>
      <trkpt lat="44.73447" lon="5.02729">
        <ele>350</ele>
        <time>2020-02-07T15:08:54.000Z</time>
      </trkpt>
      <trkpt lat="44.73447" lon="5.02729">
        <ele>350</ele>
        <time>2020-02-07T15:08:55.000Z</time>
      </trkpt>
      <trkpt lat="44.73446" lon="5.02728">
        <ele>350</ele>
        <time>2020-02-07T15:08:56.000Z</time>
      </trkpt>
      <trkpt lat="44.73445" lon="5.02727">
        <ele>349</ele>
        <time>2020-02-07T15:08:57.000Z</time>
      </trkpt>
      <trkpt lat="44.73444" lon="5.02727">
        <ele>349</ele>
        <time>2020-02-07T15:08:58.000Z</time>
      </trkpt>
      <trkpt lat="44.73444" lon="5.02726">
        <ele>349</ele>
        <time>2020-02-07T15:08:59.000Z</time>
      </trkpt>
      <trkpt lat="44.73443" lon="5.02725">
        <ele>349</ele>
        <time>2020-02-07T15:09:00.000Z</time>
      </trkpt>
      <trkpt lat="44.73442" lon="5.02724">
        <ele>349</ele>
        <time>2020-02-07T15:09:01.000Z</time>
      </trkpt>
      <trkpt lat="44.73441" lon="5.02724">
        <ele>349</ele>
        <time>2020-02-07T15:09:02.000Z</time>
      </trkpt>
      <trkpt lat="44.73441" lon="5.02722">
        <ele>349</ele>
        <time>2020-02-07T15:09:03.000Z</time>
      </trkpt>
      <trkpt lat="44.7344" lon="5.02721">
        <ele>349</ele>
        <time>2020-02-07T15:09:04.000Z</time>
      </trkpt>
      <trkpt lat="44.73439" lon="5.0272">
        <ele>348</ele>
        <time>2020-02-07T15:09:05.000Z</time>
      </trkpt>
      <trkpt lat="44.73437" lon="5.02718">
        <ele>348</ele>
        <time>2020-02-07T15:09:06.000Z</time>
      </trkpt>
      <trkpt lat="44.73436" lon="5.02717">
        <ele>348</ele>
        <time>2020-02-07T15:09:07.000Z</time>
      </trkpt>
      <trkpt lat="44.73435" lon="5.02716">
        <ele>348</ele>
        <time>2020-02-07T15:09:08.000Z</time>
      </trkpt>
      <trkpt lat="44.73434" lon="5.02716">
        <ele>347</ele>
        <time>2020-02-07T15:09:09.000Z</time>
      </trkpt>
      <trkpt lat="44.73433" lon="5.02715">
        <ele>347</ele>
        <time>2020-02-07T15:09:10.000Z</time>
      </trkpt>
      <trkpt lat="44.73432" lon="5.02714">
        <ele>347</ele>
        <time>2020-02-07T15:09:11.000Z</time>
      </trkpt>
      <trkpt lat="44.7343" lon="5.02713">
        <ele>347</ele>
        <time>2020-02-07T15:09:12.000Z</time>
      </trkpt>
      <trkpt lat="44.73429" lon="5.02712">
        <ele>347</ele>
        <time>2020-02-07T15:09:13.000Z</time>
      </trkpt>
      <trkpt lat="44.73428" lon="5.02711">
        <ele>347</ele>
        <time>2020-02-07T15:09:14.000Z</time>
      </trkpt>
      <trkpt lat="44.73427" lon="5.0271">
        <ele>346</ele>
        <time>2020-02-07T15:09:15.000Z</time>
      </trkpt>
      <trkpt lat="44.73426" lon="5.02709">
        <ele>346</ele>
        <time>2020-02-07T15:09:16.000Z</time>
      </trkpt>
      <trkpt lat="44.73425" lon="5.02708">
        <ele>346</ele>
        <time>2020-02-07T15:09:17.000Z</time>
      </trkpt>
      <trkpt lat="44.73424" lon="5.02707">
        <ele>346</ele>
        <time>2020-02-07T15:09:18.000Z</time>
      </trkpt>
      <trkpt lat="44.73423" lon="5.02706">
        <ele>345</ele>
        <time>2020-02-07T15:09:19.000Z</time>
      </trkpt>
      <trkpt lat="44.73422" lon="5.02705">
        <ele>345</ele>
        <time>2020-02-07T15:09:20.000Z</time>
      </trkpt>
      <trkpt lat="44.73421" lon="5.02704">
        <ele>345</ele>
        <time>2020-02-07T15:09:21.000Z</time>
      </trkpt>
      <trkpt lat="44.7342" lon="5.02703">
        <ele>345</ele>
        <time>2020-02-07T15:09:22.000Z</time>
      </trkpt>
      <trkpt lat="44.73419" lon="5.02702">
        <ele>345</ele>
        <time>2020-02-07T15:09:23.000Z</time>
      </trkpt>
      <trkpt lat="44.73418" lon="5.02702">
        <ele>345</ele>
        <time>2020-02-07T15:09:24.000Z</time>
      </trkpt>
      <trkpt lat="44.73416" lon="5.02701">
        <ele>344</ele>
        <time>2020-02-07T15:09:25.000Z</time>
      </trkpt>
      <trkpt lat="44.73415" lon="5.027">
        <ele>344</ele>
        <time>2020-02-07T15:09:26.000Z</time>
      </trkpt>
      <trkpt lat="44.73414" lon="5.02699">
        <ele>344</ele>
        <time>2020-02-07T15:09:27.000Z</time>
      </trkpt>
      <trkpt lat="44.73413" lon="5.02698">
        <ele>344</ele>
        <time>2020-02-07T15:09:28.000Z</time>
      </trkpt>
      <trkpt lat="44.73412" lon="5.02697">
        <ele>344</ele>
        <time>2020-02-07T15:09:29.000Z</time>
      </trkpt>
      <trkpt lat="44.73411" lon="5.02695">
        <ele>343</ele>
        <time>2020-02-07T15:09:30.000Z</time>
      </trkpt>
      <trkpt lat="44.73411" lon="5.02694">
        <ele>343</ele>
        <time>2020-02-07T15:09:31.000Z</time>
      </trkpt>
      <trkpt lat="44.7341" lon="5.02693">
        <ele>343</ele>
        <time>2020-02-07T15:09:32.000Z</time>
      </trkpt>
      <trkpt lat="44.7341" lon="5.02691">
        <ele>343</ele>
        <time>2020-02-07T15:09:33.000Z</time>
      </trkpt>
      <trkpt lat="44.73409" lon="5.0269">
        <ele>342</ele>
        <time>2020-02-07T15:09:34.000Z</time>
      </trkpt>
      <trkpt lat="44.73408" lon="5.02689">
        <ele>342</ele>
        <time>2020-02-07T15:09:35.000Z</time>
      </trkpt>
      <trkpt lat="44.73407" lon="5.02688">
        <ele>342</ele>
        <time>2020-02-07T15:09:36.000Z</time>
      </trkpt>
      <trkpt lat="44.73406" lon="5.02686">
        <ele>342</ele>
        <time>2020-02-07T15:09:37.000Z</time>
      </trkpt>
      <trkpt lat="44.73405" lon="5.02685">
        <ele>341</ele>
        <time>2020-02-07T15:09:38.000Z</time>
      </trkpt>
      <trkpt lat="44.73404" lon="5.02684">
        <ele>341</ele>
        <time>2020-02-07T15:09:39.000Z</time>
      </trkpt>
      <trkpt lat="44.73403" lon="5.02683">
        <ele>341</ele>
        <time>2020-02-07T15:09:40.000Z</time>
      </trkpt>
      <trkpt lat="44.73402" lon="5.02682">
        <ele>341</ele>
        <time>2020-02-07T15:09:41.000Z</time>
      </trkpt>
      <trkpt lat="44.73401" lon="5.0268">
        <ele>341</ele>
        <time>2020-02-07T15:09:42.000Z</time>
      </trkpt>
      <trkpt lat="44.734" lon="5.02679">
        <ele>340</ele>
        <time>2020-02-07T15:09:43.000Z</time>
      </trkpt>
      <trkpt lat="44.73399" lon="5.02678">
        <ele>340</ele>
        <time>2020-02-07T15:09:44.000Z</time>
      </trkpt>
      <trkpt lat="44.73398" lon="5.02677">
        <ele>340</ele>
        <time>2020-02-07T15:09:45.000Z</time>
      </trkpt>
      <trkpt lat="44.73397" lon="5.02676">
        <ele>340</ele>
        <time>2020-02-07T15:09:46.000Z</time>
      </trkpt>
      <trkpt lat="44.73396" lon="5.02675">
        <ele>340</ele>
        <time>2020-02-07T15:09:47.000Z</time>
      </trkpt>
      <trkpt lat="44.73395" lon="5.02674">
        <ele>339</ele>
        <time>2020-02-07T15:09:48.000Z</time>
      </trkpt>
      <trkpt lat="44.73394" lon="5.02673">
        <ele>339</ele>
        <time>2020-02-07T15:09:49.000Z</time>
      </trkpt>
      <trkpt lat="44.73393" lon="5.02672">
        <ele>339</ele>
        <time>2020-02-07T15:09:50.000Z</time>
      </trkpt>
      <trkpt lat="44.73392" lon="5.02671">
        <ele>339</ele>
        <time>2020-02-07T15:09:51.000Z</time>
      </trkpt>
      <trkpt lat="44.73391" lon="5.02669">
        <ele>338</ele>
        <time>2020-02-07T15:09:52.000Z</time>
      </trkpt>
      <trkpt lat="44.7339" lon="5.02668">
        <ele>338</ele>
        <time>2020-02-07T15:09:53.000Z</time>
      </trkpt>
      <trkpt lat="44.73389" lon="5.02667">
        <ele>338</ele>
        <time>2020-02-07T15:09:54.000Z</time>
      </trkpt>
      <trkpt lat="44.73388" lon="5.02665">
        <ele>338</ele>
        <time>2020-02-07T15:09:55.000Z</time>
      </trkpt>
      <trkpt lat="44.73387" lon="5.02664">
        <ele>338</ele>
        <time>2020-02-07T15:09:56.000Z</time>
      </trkpt>
      <trkpt lat="44.73386" lon="5.02664">
        <ele>338</ele>
        <time>2020-02-07T15:09:57.000Z</time>
      </trkpt>
      <trkpt lat="44.73385" lon="5.02662">
        <ele>337</ele>
        <time>2020-02-07T15:09:58.000Z</time>
      </trkpt>
      <trkpt lat="44.73383" lon="5.02661">
        <ele>337</ele>
        <time>2020-02-07T15:09:59.000Z</time>
      </trkpt>
      <trkpt lat="44.73382" lon="5.0266">
        <ele>337</ele>
        <time>2020-02-07T15:10:00.000Z</time>
      </trkpt>
      <trkpt lat="44.73381" lon="5.02659">
        <ele>336</ele>
        <time>2020-02-07T15:10:01.000Z</time>
      </trkpt>
      <trkpt lat="44.7338" lon="5.02658">
        <ele>336</ele>
        <time>2020-02-07T15:10:02.000Z</time>
      </trkpt>
      <trkpt lat="44.73379" lon="5.02656">
        <ele>336</ele>
        <time>2020-02-07T15:10:03.000Z</time>
      </trkpt>
      <trkpt lat="44.73378" lon="5.02655">
        <ele>336</ele>
        <time>2020-02-07T15:10:04.000Z</time>
      </trkpt>
      <trkpt lat="44.73377" lon="5.02653">
        <ele>335</ele>
        <time>2020-02-07T15:10:05.000Z</time>
      </trkpt>
      <trkpt lat="44.73376" lon="5.02652">
        <ele>335</ele>
        <time>2020-02-07T15:10:06.000Z</time>
      </trkpt>
      <trkpt lat="44.73375" lon="5.0265">
        <ele>335</ele>
        <time>2020-02-07T15:10:07.000Z</time>
      </trkpt>
      <trkpt lat="44.73374" lon="5.02649">
        <ele>335</ele>
        <time>2020-02-07T15:10:08.000Z</time>
      </trkpt>
      <trkpt lat="44.73373" lon="5.02647">
        <ele>335</ele>
        <time>2020-02-07T15:10:09.000Z</time>
      </trkpt>
      <trkpt lat="44.73372" lon="5.02646">
        <ele>334</ele>
        <time>2020-02-07T15:10:10.000Z</time>
      </trkpt>
      <trkpt lat="44.73371" lon="5.02644">
        <ele>334</ele>
        <time>2020-02-07T15:10:11.000Z</time>
      </trkpt>
      <trkpt lat="44.7337" lon="5.02643">
        <ele>334</ele>
        <time>2020-02-07T15:10:12.000Z</time>
      </trkpt>
      <trkpt lat="44.73369" lon="5.02641">
        <ele>334</ele>
        <time>2020-02-07T15:10:13.000Z</time>
      </trkpt>
      <trkpt lat="44.73368" lon="5.0264">
        <ele>334</ele>
        <time>2020-02-07T15:10:14.000Z</time>
      </trkpt>
      <trkpt lat="44.73367" lon="5.02639">
        <ele>334</ele>
        <time>2020-02-07T15:10:15.000Z</time>
      </trkpt>
      <trkpt lat="44.73366" lon="5.02638">
        <ele>334</ele>
        <time>2020-02-07T15:10:16.000Z</time>
      </trkpt>
      <trkpt lat="44.73365" lon="5.02637">
        <ele>334</ele>
        <time>2020-02-07T15:10:17.000Z</time>
      </trkpt>
      <trkpt lat="44.73364" lon="5.02636">
        <ele>333</ele>
        <time>2020-02-07T15:10:18.000Z</time>
      </trkpt>
      <trkpt lat="44.73363" lon="5.02634">
        <ele>333</ele>
        <time>2020-02-07T15:10:19.000Z</time>
      </trkpt>
      <trkpt lat="44.73362" lon="5.02633">
        <ele>333</ele>
        <time>2020-02-07T15:10:20.000Z</time>
      </trkpt>
      <trkpt lat="44.73361" lon="5.02632">
        <ele>332</ele>
        <time>2020-02-07T15:10:21.000Z</time>
      </trkpt>
      <trkpt lat="44.7336" lon="5.02631">
        <ele>332</ele>
        <time>2020-02-07T15:10:22.000Z</time>
      </trkpt>
      <trkpt lat="44.73358" lon="5.0263">
        <ele>332</ele>
        <time>2020-02-07T15:10:23.000Z</time>
      </trkpt>
      <trkpt lat="44.73357" lon="5.02629">
        <ele>331</ele>
        <time>2020-02-07T15:10:24.000Z</time>
      </trkpt>
      <trkpt lat="44.73356" lon="5.02628">
        <ele>331</ele>
        <time>2020-02-07T15:10:25.000Z</time>
      </trkpt>
      <trkpt lat="44.73355" lon="5.02627">
        <ele>331</ele>
        <time>2020-02-07T15:10:26.000Z</time>
      </trkpt>
      <trkpt lat="44.73353" lon="5.02626">
        <ele>330</ele>
        <time>2020-02-07T15:10:27.000Z</time>
      </trkpt>
      <trkpt lat="44.73352" lon="5.02625">
        <ele>330</ele>
        <time>2020-02-07T15:10:28.000Z</time>
      </trkpt>
      <trkpt lat="44.73351" lon="5.02624">
        <ele>330</ele>
        <time>2020-02-07T15:10:29.000Z</time>
      </trkpt>
      <trkpt lat="44.73349" lon="5.02623">
        <ele>330</ele>
        <time>2020-02-07T15:10:30.000Z</time>
      </trkpt>
      <trkpt lat="44.73348" lon="5.02622">
        <ele>329</ele>
        <time>2020-02-07T15:10:31.000Z</time>
      </trkpt>
      <trkpt lat="44.73347" lon="5.02621">
        <ele>329</ele>
        <time>2020-02-07T15:10:32.000Z</time>
      </trkpt>
      <trkpt lat="44.73346" lon="5.0262">
        <ele>329</ele>
        <time>2020-02-07T15:10:33.000Z</time>
      </trkpt>
      <trkpt lat="44.73345" lon="5.02619">
        <ele>329</ele>
        <time>2020-02-07T15:10:34.000Z</time>
      </trkpt>
      <trkpt lat="44.73344" lon="5.02617">
        <ele>329</ele>
        <time>2020-02-07T15:10:35.000Z</time>
      </trkpt>
      <trkpt lat="44.73343" lon="5.02616">
        <ele>329</ele>
        <time>2020-02-07T15:10:36.000Z</time>
      </trkpt>
      <trkpt lat="44.73341" lon="5.02615">
        <ele>329</ele>
        <time>2020-02-07T15:10:37.000Z</time>
      </trkpt>
      <trkpt lat="44.7334" lon="5.02614">
        <ele>329</ele>
        <time>2020-02-07T15:10:38.000Z</time>
      </trkpt>
      <trkpt lat="44.73339" lon="5.02614">
        <ele>329</ele>
        <time>2020-02-07T15:10:39.000Z</time>
      </trkpt>
      <trkpt lat="44.73338" lon="5.02613">
        <ele>329</ele>
        <time>2020-02-07T15:10:40.000Z</time>
      </trkpt>
      <trkpt lat="44.73336" lon="5.02612">
        <ele>328</ele>
        <time>2020-02-07T15:10:41.000Z</time>
      </trkpt>
      <trkpt lat="44.73335" lon="5.0261">
        <ele>328</ele>
        <time>2020-02-07T15:10:42.000Z</time>
      </trkpt>
      <trkpt lat="44.73334" lon="5.02609">
        <ele>328</ele>
        <time>2020-02-07T15:10:43.000Z</time>
      </trkpt>
      <trkpt lat="44.73334" lon="5.02607">
        <ele>328</ele>
        <time>2020-02-07T15:10:44.000Z</time>
      </trkpt>
      <trkpt lat="44.73333" lon="5.02606">
        <ele>328</ele>
        <time>2020-02-07T15:10:45.000Z</time>
      </trkpt>
      <trkpt lat="44.73332" lon="5.02605">
        <ele>328</ele>
        <time>2020-02-07T15:10:46.000Z</time>
      </trkpt>
      <trkpt lat="44.73331" lon="5.02604">
        <ele>328</ele>
        <time>2020-02-07T15:10:47.000Z</time>
      </trkpt>
      <trkpt lat="44.7333" lon="5.02603">
        <ele>328</ele>
        <time>2020-02-07T15:10:48.000Z</time>
      </trkpt>
      <trkpt lat="44.73329" lon="5.02602">
        <ele>328</ele>
        <time>2020-02-07T15:10:49.000Z</time>
      </trkpt>
      <trkpt lat="44.73328" lon="5.02601">
        <ele>327</ele>
        <time>2020-02-07T15:10:50.000Z</time>
      </trkpt>
      <trkpt lat="44.73327" lon="5.02599">
        <ele>327</ele>
        <time>2020-02-07T15:10:51.000Z</time>
      </trkpt>
      <trkpt lat="44.73326" lon="5.02598">
        <ele>327</ele>
        <time>2020-02-07T15:10:52.000Z</time>
      </trkpt>
      <trkpt lat="44.73325" lon="5.02597">
        <ele>327</ele>
        <time>2020-02-07T15:10:53.000Z</time>
      </trkpt>
      <trkpt lat="44.73324" lon="5.02596">
        <ele>326</ele>
        <time>2020-02-07T15:10:54.000Z</time>
      </trkpt>
      <trkpt lat="44.73323" lon="5.02596">
        <ele>326</ele>
        <time>2020-02-07T15:10:55.000Z</time>
      </trkpt>
      <trkpt lat="44.73323" lon="5.02595">
        <ele>326</ele>
        <time>2020-02-07T15:10:56.000Z</time>
      </trkpt>
      <trkpt lat="44.73323" lon="5.02595">
        <ele>326</ele>
        <time>2020-02-07T15:10:57.000Z</time>
      </trkpt>
      <trkpt lat="44.73323" lon="5.02595">
        <ele>326</ele>
        <time>2020-02-07T15:10:58.000Z</time>
      </trkpt>
      <trkpt lat="44.73322" lon="5.02595">
        <ele>326</ele>
        <time>2020-02-07T15:10:59.000Z</time>
      </trkpt>
      <trkpt lat="44.73322" lon="5.02594">
        <ele>325</ele>
        <time>2020-02-07T15:11:00.000Z</time>
      </trkpt>
      <trkpt lat="44.73322" lon="5.02594">
        <ele>325</ele>
        <time>2020-02-07T15:11:01.000Z</time>
      </trkpt>
      <trkpt lat="44.73321" lon="5.02593">
        <ele>325</ele>
        <time>2020-02-07T15:11:02.000Z</time>
      </trkpt>
      <trkpt lat="44.7332" lon="5.02593">
        <ele>325</ele>
        <time>2020-02-07T15:11:03.000Z</time>
      </trkpt>
      <trkpt lat="44.73319" lon="5.02592">
        <ele>325</ele>
        <time>2020-02-07T15:11:04.000Z</time>
      </trkpt>
      <trkpt lat="44.73318" lon="5.02592">
        <ele>325</ele>
        <time>2020-02-07T15:11:05.000Z</time>
      </trkpt>
      <trkpt lat="44.73318" lon="5.02592">
        <ele>325</ele>
        <time>2020-02-07T15:11:06.000Z</time>
      </trkpt>
      <trkpt lat="44.73317" lon="5.02591">
        <ele>325</ele>
        <time>2020-02-07T15:11:07.000Z</time>
      </trkpt>
      <trkpt lat="44.73316" lon="5.02591">
        <ele>325</ele>
        <time>2020-02-07T15:11:08.000Z</time>
      </trkpt>
      <trkpt lat="44.73315" lon="5.0259">
        <ele>325</ele>
        <time>2020-02-07T15:11:09.000Z</time>
      </trkpt>
      <trkpt lat="44.73314" lon="5.02589">
        <ele>324</ele>
        <time>2020-02-07T15:11:10.000Z</time>
      </trkpt>
      <trkpt lat="44.73313" lon="5.02589">
        <ele>324</ele>
        <time>2020-02-07T15:11:11.000Z</time>
      </trkpt>
      <trkpt lat="44.73312" lon="5.02588">
        <ele>324</ele>
        <time>2020-02-07T15:11:12.000Z</time>
      </trkpt>
      <trkpt lat="44.73311" lon="5.02587">
        <ele>324</ele>
        <time>2020-02-07T15:11:13.000Z</time>
      </trkpt>
      <trkpt lat="44.73311" lon="5.02586">
        <ele>324</ele>
        <time>2020-02-07T15:11:14.000Z</time>
      </trkpt>
      <trkpt lat="44.7331" lon="5.02584">
        <ele>324</ele>
        <time>2020-02-07T15:11:15.000Z</time>
      </trkpt>
      <trkpt lat="44.73309" lon="5.02583">
        <ele>324</ele>
        <time>2020-02-07T15:11:16.000Z</time>
      </trkpt>
      <trkpt lat="44.73308" lon="5.02582">
        <ele>324</ele>
        <time>2020-02-07T15:11:17.000Z</time>
      </trkpt>
      <trkpt lat="44.73308" lon="5.02582">
        <ele>324</ele>
        <time>2020-02-07T15:11:18.000Z</time>
      </trkpt>
      <trkpt lat="44.73307" lon="5.02581">
        <ele>324</ele>
        <time>2020-02-07T15:11:19.000Z</time>
      </trkpt>
      <trkpt lat="44.73306" lon="5.0258">
        <ele>324</ele>
        <time>2020-02-07T15:11:20.000Z</time>
      </trkpt>
      <trkpt lat="44.73306" lon="5.02578">
        <ele>324</ele>
        <time>2020-02-07T15:11:21.000Z</time>
      </trkpt>
      <trkpt lat="44.73305" lon="5.02577">
        <ele>323</ele>
        <time>2020-02-07T15:11:22.000Z</time>
      </trkpt>
      <trkpt lat="44.73304" lon="5.02576">
        <ele>323</ele>
        <time>2020-02-07T15:11:23.000Z</time>
      </trkpt>
      <trkpt lat="44.73304" lon="5.02575">
        <ele>323</ele>
        <time>2020-02-07T15:11:24.000Z</time>
      </trkpt>
      <trkpt lat="44.73303" lon="5.02575">
        <ele>323</ele>
        <time>2020-02-07T15:11:25.000Z</time>
      </trkpt>
      <trkpt lat="44.73302" lon="5.02574">
        <ele>323</ele>
        <time>2020-02-07T15:11:26.000Z</time>
      </trkpt>
      <trkpt lat="44.73301" lon="5.02573">
        <ele>323</ele>
        <time>2020-02-07T15:11:27.000Z</time>
      </trkpt>
      <trkpt lat="44.733" lon="5.02572">
        <ele>323</ele>
        <time>2020-02-07T15:11:28.000Z</time>
      </trkpt>
      <trkpt lat="44.73299" lon="5.02572">
        <ele>323</ele>
        <time>2020-02-07T15:11:29.000Z</time>
      </trkpt>
      <trkpt lat="44.73299" lon="5.02571">
        <ele>323</ele>
        <time>2020-02-07T15:11:30.000Z</time>
      </trkpt>
      <trkpt lat="44.73298" lon="5.02571">
        <ele>323</ele>
        <time>2020-02-07T15:11:31.000Z</time>
      </trkpt>
      <trkpt lat="44.73297" lon="5.02571">
        <ele>323</ele>
        <time>2020-02-07T15:11:32.000Z</time>
      </trkpt>
      <trkpt lat="44.73297" lon="5.0257">
        <ele>323</ele>
        <time>2020-02-07T15:11:33.000Z</time>
      </trkpt>
      <trkpt lat="44.73297" lon="5.0257">
        <ele>323</ele>
        <time>2020-02-07T15:11:34.000Z</time>
      </trkpt>
      <trkpt lat="44.73296" lon="5.0257">
        <ele>323</ele>
        <time>2020-02-07T15:11:35.000Z</time>
      </trkpt>
      <trkpt lat="44.73296" lon="5.0257">
        <ele>323</ele>
        <time>2020-02-07T15:11:36.000Z</time>
      </trkpt>
      <trkpt lat="44.73295" lon="5.0257">
        <ele>323</ele>
        <time>2020-02-07T15:11:37.000Z</time>
      </trkpt>
      <trkpt lat="44.73295" lon="5.0257">
        <ele>323</ele>
        <time>2020-02-07T15:11:38.000Z</time>
      </trkpt>
      <trkpt lat="44.73295" lon="5.0257">
        <ele>323</ele>
        <time>2020-02-07T15:11:39.000Z</time>
      </trkpt>
      <trkpt lat="44.73295" lon="5.0257">
        <ele>323</ele>
        <time>2020-02-07T15:11:40.000Z</time>
      </trkpt>
      <trkpt lat="44.73295" lon="5.0257">
        <ele>323</ele>
        <time>2020-02-07T15:11:41.000Z</time>
      </trkpt>
      <trkpt lat="44.73295" lon="5.0257">
        <ele>323</ele>
        <time>2020-02-07T15:11:42.000Z</time>
      </trkpt>
      <trkpt lat="44.73295" lon="5.0257">
        <ele>322</ele>
        <time>2020-02-07T15:11:43.000Z</time>
      </trkpt>
      <trkpt lat="44.73295" lon="5.0257">
        <ele>322</ele>
        <time>2020-02-07T15:11:44.000Z</time>
      </trkpt>
      <trkpt lat="44.73295" lon="5.0257">
        <ele>322</ele>
        <time>2020-02-07T15:11:45.000Z</time>
      </trkpt>
      <trkpt lat="44.73294" lon="5.02569">
        <ele>322</ele>
        <time>2020-02-07T15:11:46.000Z</time>
      </trkpt>
      <trkpt lat="44.73294" lon="5.02569">
        <ele>322</ele>
        <time>2020-02-07T15:11:47.000Z</time>
      </trkpt>
      <trkpt lat="44.73294" lon="5.02569">
        <ele>322</ele>
        <time>2020-02-07T15:11:48.000Z</time>
      </trkpt>
      <trkpt lat="44.73294" lon="5.02569">
        <ele>322</ele>
        <time>2020-02-07T15:11:49.000Z</time>
      </trkpt>
      <trkpt lat="44.73294" lon="5.02569">
        <ele>322</ele>
        <time>2020-02-07T15:11:50.000Z</time>
      </trkpt>
      <trkpt lat="44.73294" lon="5.02569">
        <ele>322</ele>
        <time>2020-02-07T15:11:51.000Z</time>
      </trkpt>
      <trkpt lat="44.73294" lon="5.02568">
        <ele>322</ele>
        <time>2020-02-07T15:11:52.000Z</time>
      </trkpt>
      <trkpt lat="44.73294" lon="5.02568">
        <ele>322</ele>
        <time>2020-02-07T15:11:53.000Z</time>
      </trkpt>
      <trkpt lat="44.73294" lon="5.02567">
        <ele>322</ele>
        <time>2020-02-07T15:11:54.000Z</time>
      </trkpt>
      <trkpt lat="44.73294" lon="5.02567">
        <ele>322</ele>
        <time>2020-02-07T15:11:55.000Z</time>
      </trkpt>
      <trkpt lat="44.73294" lon="5.02567">
        <ele>322</ele>
        <time>2020-02-07T15:11:56.000Z</time>
      </trkpt>
      <trkpt lat="44.73294" lon="5.02567">
        <ele>322</ele>
        <time>2020-02-07T15:11:57.000Z</time>
      </trkpt>
      <trkpt lat="44.73294" lon="5.02567">
        <ele>321</ele>
        <time>2020-02-07T15:11:58.000Z</time>
      </trkpt>
      <trkpt lat="44.73294" lon="5.02567">
        <ele>321</ele>
        <time>2020-02-07T15:11:59.000Z</time>
      </trkpt>
      <trkpt lat="44.73294" lon="5.02567">
        <ele>321</ele>
        <time>2020-02-07T15:12:00.000Z</time>
      </trkpt>
      <trkpt lat="44.73294" lon="5.02567">
        <ele>321</ele>
        <time>2020-02-07T15:12:01.000Z</time>
      </trkpt>
      <trkpt lat="44.73293" lon="5.02566">
        <ele>321</ele>
        <time>2020-02-07T15:12:02.000Z</time>
      </trkpt>
      <trkpt lat="44.73293" lon="5.02566">
        <ele>321</ele>
        <time>2020-02-07T15:12:03.000Z</time>
      </trkpt>
      <trkpt lat="44.73293" lon="5.02566">
        <ele>321</ele>
        <time>2020-02-07T15:12:04.000Z</time>
      </trkpt>
      <trkpt lat="44.73293" lon="5.02565">
        <ele>321</ele>
        <time>2020-02-07T15:12:05.000Z</time>
      </trkpt>
      <trkpt lat="44.73293" lon="5.02565">
        <ele>320</ele>
        <time>2020-02-07T15:12:06.000Z</time>
      </trkpt>
      <trkpt lat="44.73293" lon="5.02565">
        <ele>320</ele>
        <time>2020-02-07T15:12:07.000Z</time>
      </trkpt>
      <trkpt lat="44.73293" lon="5.02565">
        <ele>320</ele>
        <time>2020-02-07T15:12:08.000Z</time>
      </trkpt>
      <trkpt lat="44.73293" lon="5.02564">
        <ele>320</ele>
        <time>2020-02-07T15:12:09.000Z</time>
      </trkpt>
      <trkpt lat="44.73292" lon="5.02564">
        <ele>320</ele>
        <time>2020-02-07T15:12:10.000Z</time>
      </trkpt>
      <trkpt lat="44.73292" lon="5.02564">
        <ele>320</ele>
        <time>2020-02-07T15:12:11.000Z</time>
      </trkpt>
      <trkpt lat="44.73292" lon="5.02564">
        <ele>320</ele>
        <time>2020-02-07T15:12:12.000Z</time>
      </trkpt>
      <trkpt lat="44.73292" lon="5.02564">
        <ele>320</ele>
        <time>2020-02-07T15:12:13.000Z</time>
      </trkpt>
      <trkpt lat="44.73292" lon="5.02564">
        <ele>319</ele>
        <time>2020-02-07T15:12:14.000Z</time>
      </trkpt>
      <trkpt lat="44.73292" lon="5.02563">
        <ele>319</ele>
        <time>2020-02-07T15:12:15.000Z</time>
      </trkpt>
      <trkpt lat="44.73292" lon="5.02563">
        <ele>319</ele>
        <time>2020-02-07T15:12:16.000Z</time>
      </trkpt>
      <trkpt lat="44.73292" lon="5.02563">
        <ele>319</ele>
        <time>2020-02-07T15:12:17.000Z</time>
      </trkpt>
      <trkpt lat="44.73292" lon="5.02562">
        <ele>319</ele>
        <time>2020-02-07T15:12:18.000Z</time>
      </trkpt>
      <trkpt lat="44.73292" lon="5.02561">
        <ele>319</ele>
        <time>2020-02-07T15:12:19.000Z</time>
      </trkpt>
      <trkpt lat="44.73292" lon="5.02561">
        <ele>319</ele>
        <time>2020-02-07T15:12:20.000Z</time>
      </trkpt>
      <trkpt lat="44.73292" lon="5.02561">
        <ele>319</ele>
        <time>2020-02-07T15:12:21.000Z</time>
      </trkpt>
      <trkpt lat="44.73292" lon="5.02561">
        <ele>319</ele>
        <time>2020-02-07T15:12:22.000Z</time>
      </trkpt>
      <trkpt lat="44.73292" lon="5.02561">
        <ele>319</ele>
        <time>2020-02-07T15:12:23.000Z</time>
      </trkpt>
      <trkpt lat="44.73292" lon="5.02561">
        <ele>318</ele>
        <time>2020-02-07T15:12:24.000Z</time>
      </trkpt>
      <trkpt lat="44.73292" lon="5.02561">
        <ele>318</ele>
        <time>2020-02-07T15:12:25.000Z</time>
      </trkpt>
      <trkpt lat="44.73292" lon="5.0256">
        <ele>318</ele>
        <time>2020-02-07T15:12:26.000Z</time>
      </trkpt>
      <trkpt lat="44.73292" lon="5.02561">
        <ele>318</ele>
        <time>2020-02-07T15:12:27.000Z</time>
      </trkpt>
      <trkpt lat="44.73292" lon="5.02561">
        <ele>318</ele>
        <time>2020-02-07T15:12:28.000Z</time>
      </trkpt>
      <trkpt lat="44.73293" lon="5.02561">
        <ele>318</ele>
        <time>2020-02-07T15:12:29.000Z</time>
      </trkpt>
      <trkpt lat="44.73293" lon="5.02561">
        <ele>318</ele>
        <time>2020-02-07T15:12:30.000Z</time>
      </trkpt>
      <trkpt lat="44.73293" lon="5.0256">
        <ele>318</ele>
        <time>2020-02-07T15:12:31.000Z</time>
      </trkpt>
      <trkpt lat="44.73293" lon="5.0256">
        <ele>318</ele>
        <time>2020-02-07T15:12:32.000Z</time>
      </trkpt>
      <trkpt lat="44.73293" lon="5.0256">
        <ele>318</ele>
        <time>2020-02-07T15:12:33.000Z</time>
      </trkpt>
      <trkpt lat="44.73293" lon="5.0256">
        <ele>318</ele>
        <time>2020-02-07T15:12:34.000Z</time>
      </trkpt>
      <trkpt lat="44.73292" lon="5.0256">
        <ele>318</ele>
        <time>2020-02-07T15:12:35.000Z</time>
      </trkpt>
      <trkpt lat="44.73292" lon="5.0256">
        <ele>318</ele>
        <time>2020-02-07T15:12:36.000Z</time>
      </trkpt>
      <trkpt lat="44.73292" lon="5.0256">
        <ele>318</ele>
        <time>2020-02-07T15:12:37.000Z</time>
      </trkpt>
      <trkpt lat="44.73292" lon="5.0256">
        <ele>318</ele>
        <time>2020-02-07T15:12:38.000Z</time>
      </trkpt>
      <trkpt lat="44.73291" lon="5.0256">
        <ele>318</ele>
        <time>2020-02-07T15:12:39.000Z</time>
      </trkpt>
      <trkpt lat="44.7329" lon="5.0256">
        <ele>318</ele>
        <time>2020-02-07T15:12:40.000Z</time>
      </trkpt>
      <trkpt lat="44.7329" lon="5.0256">
        <ele>318</ele>
        <time>2020-02-07T15:12:41.000Z</time>
      </trkpt>
      <trkpt lat="44.73289" lon="5.0256">
        <ele>318</ele>
        <time>2020-02-07T15:12:42.000Z</time>
      </trkpt>
      <trkpt lat="44.73289" lon="5.0256">
        <ele>318</ele>
        <time>2020-02-07T15:12:43.000Z</time>
      </trkpt>
      <trkpt lat="44.73289" lon="5.0256">
        <ele>318</ele>
        <time>2020-02-07T15:12:44.000Z</time>
      </trkpt>
      <trkpt lat="44.73289" lon="5.0256">
        <ele>318</ele>
        <time>2020-02-07T15:12:45.000Z</time>
      </trkpt>
      <trkpt lat="44.73289" lon="5.0256">
        <ele>318</ele>
        <time>2020-02-07T15:12:46.000Z</time>
      </trkpt>
      <trkpt lat="44.73289" lon="5.0256">
        <ele>318</ele>
        <time>2020-02-07T15:12:47.000Z</time>
      </trkpt>
      <trkpt lat="44.73289" lon="5.0256">
        <ele>318</ele>
        <time>2020-02-07T15:12:48.000Z</time>
      </trkpt>
      <trkpt lat="44.73289" lon="5.0256">
        <ele>318</ele>
        <time>2020-02-07T15:12:49.000Z</time>
      </trkpt>
      <trkpt lat="44.73289" lon="5.0256">
        <ele>318</ele>
        <time>2020-02-07T15:12:50.000Z</time>
      </trkpt>
      <trkpt lat="44.73289" lon="5.0256">
        <ele>318</ele>
        <time>2020-02-07T15:12:51.000Z</time>
      </trkpt>
      <trkpt lat="44.73289" lon="5.0256">
        <ele>318</ele>
        <time>2020-02-07T15:12:52.000Z</time>
      </trkpt>
      <trkpt lat="44.73289" lon="5.0256">
        <ele>319</ele>
        <time>2020-02-07T15:12:53.000Z</time>
      </trkpt>
      <trkpt lat="44.73289" lon="5.0256">
        <ele>319</ele>
        <time>2020-02-07T15:12:54.000Z</time>
      </trkpt>
      <trkpt lat="44.73288" lon="5.0256">
        <ele>319</ele>
        <time>2020-02-07T15:12:55.000Z</time>
      </trkpt>
      <trkpt lat="44.73288" lon="5.02561">
        <ele>319</ele>
        <time>2020-02-07T15:12:56.000Z</time>
      </trkpt>
      <trkpt lat="44.73288" lon="5.02561">
        <ele>319</ele>
        <time>2020-02-07T15:12:57.000Z</time>
      </trkpt>
      <trkpt lat="44.73287" lon="5.02561">
        <ele>318</ele>
        <time>2020-02-07T15:12:58.000Z</time>
      </trkpt>
      <trkpt lat="44.73286" lon="5.02561">
        <ele>318</ele>
        <time>2020-02-07T15:12:59.000Z</time>
      </trkpt>
      <trkpt lat="44.73286" lon="5.02562">
        <ele>318</ele>
        <time>2020-02-07T15:13:00.000Z</time>
      </trkpt>
      <trkpt lat="44.73286" lon="5.02562">
        <ele>318</ele>
        <time>2020-02-07T15:13:01.000Z</time>
      </trkpt>
      <trkpt lat="44.73285" lon="5.02562">
        <ele>318</ele>
        <time>2020-02-07T15:13:02.000Z</time>
      </trkpt>
      <trkpt lat="44.73285" lon="5.02562">
        <ele>318</ele>
        <time>2020-02-07T15:13:03.000Z</time>
      </trkpt>
      <trkpt lat="44.73285" lon="5.02562">
        <ele>318</ele>
        <time>2020-02-07T15:13:04.000Z</time>
      </trkpt>
      <trkpt lat="44.73285" lon="5.02561">
        <ele>318</ele>
        <time>2020-02-07T15:13:05.000Z</time>
      </trkpt>
      <trkpt lat="44.73285" lon="5.02561">
        <ele>318</ele>
        <time>2020-02-07T15:13:06.000Z</time>
      </trkpt>
      <trkpt lat="44.73285" lon="5.02562">
        <ele>318</ele>
        <time>2020-02-07T15:13:07.000Z</time>
      </trkpt>
      <trkpt lat="44.73285" lon="5.02562">
        <ele>318</ele>
        <time>2020-02-07T15:13:08.000Z</time>
      </trkpt>
      <trkpt lat="44.73284" lon="5.02562">
        <ele>318</ele>
        <time>2020-02-07T15:13:09.000Z</time>
      </trkpt>
      <trkpt lat="44.73284" lon="5.02563">
        <ele>318</ele>
        <time>2020-02-07T15:13:10.000Z</time>
      </trkpt>
      <trkpt lat="44.73283" lon="5.02563">
        <ele>318</ele>
        <time>2020-02-07T15:13:11.000Z</time>
      </trkpt>
      <trkpt lat="44.73283" lon="5.02564">
        <ele>318</ele>
        <time>2020-02-07T15:13:12.000Z</time>
      </trkpt>
      <trkpt lat="44.73282" lon="5.02565">
        <ele>318</ele>
        <time>2020-02-07T15:13:13.000Z</time>
      </trkpt>
      <trkpt lat="44.73282" lon="5.02566">
        <ele>318</ele>
        <time>2020-02-07T15:13:14.000Z</time>
      </trkpt>
      <trkpt lat="44.73282" lon="5.02567">
        <ele>318</ele>
        <time>2020-02-07T15:13:15.000Z</time>
      </trkpt>
      <trkpt lat="44.73282" lon="5.02568">
        <ele>319</ele>
        <time>2020-02-07T15:13:16.000Z</time>
      </trkpt>
      <trkpt lat="44.73282" lon="5.02569">
        <ele>319</ele>
        <time>2020-02-07T15:13:17.000Z</time>
      </trkpt>
      <trkpt lat="44.73282" lon="5.0257">
        <ele>319</ele>
        <time>2020-02-07T15:13:18.000Z</time>
      </trkpt>
      <trkpt lat="44.73282" lon="5.02571">
        <ele>319</ele>
        <time>2020-02-07T15:13:19.000Z</time>
      </trkpt>
      <trkpt lat="44.73281" lon="5.02572">
        <ele>319</ele>
        <time>2020-02-07T15:13:20.000Z</time>
      </trkpt>
      <trkpt lat="44.73281" lon="5.02572">
        <ele>319</ele>
        <time>2020-02-07T15:13:21.000Z</time>
      </trkpt>
      <trkpt lat="44.73281" lon="5.02573">
        <ele>319</ele>
        <time>2020-02-07T15:13:22.000Z</time>
      </trkpt>
      <trkpt lat="44.73281" lon="5.02573">
        <ele>319</ele>
        <time>2020-02-07T15:13:23.000Z</time>
      </trkpt>
      <trkpt lat="44.73281" lon="5.02573">
        <ele>319</ele>
        <time>2020-02-07T15:13:24.000Z</time>
      </trkpt>
      <trkpt lat="44.73281" lon="5.02573">
        <ele>319</ele>
        <time>2020-02-07T15:13:25.000Z</time>
      </trkpt>
      <trkpt lat="44.7328" lon="5.02574">
        <ele>318</ele>
        <time>2020-02-07T15:13:26.000Z</time>
      </trkpt>
      <trkpt lat="44.7328" lon="5.02574">
        <ele>318</ele>
        <time>2020-02-07T15:13:27.000Z</time>
      </trkpt>
      <trkpt lat="44.7328" lon="5.02574">
        <ele>318</ele>
        <time>2020-02-07T15:13:28.000Z</time>
      </trkpt>
      <trkpt lat="44.7328" lon="5.02574">
        <ele>318</ele>
        <time>2020-02-07T15:13:29.000Z</time>
      </trkpt>
      <trkpt lat="44.73279" lon="5.02574">
        <ele>318</ele>
        <time>2020-02-07T15:13:30.000Z</time>
      </trkpt>
      <trkpt lat="44.7328" lon="5.02574">
        <ele>318</ele>
        <time>2020-02-07T15:13:31.000Z</time>
      </trkpt>
      <trkpt lat="44.7328" lon="5.02574">
        <ele>318</ele>
        <time>2020-02-07T15:13:32.000Z</time>
      </trkpt>
      <trkpt lat="44.7328" lon="5.02574">
        <ele>318</ele>
        <time>2020-02-07T15:13:33.000Z</time>
      </trkpt>
      <trkpt lat="44.73279" lon="5.02574">
        <ele>318</ele>
        <time>2020-02-07T15:13:34.000Z</time>
      </trkpt>
      <trkpt lat="44.73279" lon="5.02575">
        <ele>318</ele>
        <time>2020-02-07T15:13:35.000Z</time>
      </trkpt>
      <trkpt lat="44.73278" lon="5.02575">
        <ele>318</ele>
        <time>2020-02-07T15:13:36.000Z</time>
      </trkpt>
      <trkpt lat="44.73278" lon="5.02576">
        <ele>318</ele>
        <time>2020-02-07T15:13:37.000Z</time>
      </trkpt>
      <trkpt lat="44.73277" lon="5.02577">
        <ele>318</ele>
        <time>2020-02-07T15:13:38.000Z</time>
      </trkpt>
      <trkpt lat="44.73276" lon="5.02578">
        <ele>318</ele>
        <time>2020-02-07T15:13:39.000Z</time>
      </trkpt>
      <trkpt lat="44.73275" lon="5.02579">
        <ele>318</ele>
        <time>2020-02-07T15:13:40.000Z</time>
      </trkpt>
      <trkpt lat="44.73275" lon="5.0258">
        <ele>318</ele>
        <time>2020-02-07T15:13:41.000Z</time>
      </trkpt>
      <trkpt lat="44.73275" lon="5.0258">
        <ele>318</ele>
        <time>2020-02-07T15:13:42.000Z</time>
      </trkpt>
      <trkpt lat="44.73274" lon="5.0258">
        <ele>318</ele>
        <time>2020-02-07T15:13:43.000Z</time>
      </trkpt>
      <trkpt lat="44.73274" lon="5.02581">
        <ele>318</ele>
        <time>2020-02-07T15:13:44.000Z</time>
      </trkpt>
      <trkpt lat="44.73273" lon="5.02581">
        <ele>318</ele>
        <time>2020-02-07T15:13:45.000Z</time>
      </trkpt>
      <trkpt lat="44.73272" lon="5.02582">
        <ele>317</ele>
        <time>2020-02-07T15:13:46.000Z</time>
      </trkpt>
      <trkpt lat="44.73271" lon="5.02582">
        <ele>317</ele>
        <time>2020-02-07T15:13:47.000Z</time>
      </trkpt>
      <trkpt lat="44.73271" lon="5.02583">
        <ele>317</ele>
        <time>2020-02-07T15:13:48.000Z</time>
      </trkpt>
      <trkpt lat="44.7327" lon="5.02584">
        <ele>317</ele>
        <time>2020-02-07T15:13:49.000Z</time>
      </trkpt>
      <trkpt lat="44.73269" lon="5.02584">
        <ele>317</ele>
        <time>2020-02-07T15:13:50.000Z</time>
      </trkpt>
      <trkpt lat="44.73268" lon="5.02584">
        <ele>317</ele>
        <time>2020-02-07T15:13:51.000Z</time>
      </trkpt>
      <trkpt lat="44.73267" lon="5.02585">
        <ele>317</ele>
        <time>2020-02-07T15:13:52.000Z</time>
      </trkpt>
      <trkpt lat="44.73266" lon="5.02585">
        <ele>317</ele>
        <time>2020-02-07T15:13:53.000Z</time>
      </trkpt>
      <trkpt lat="44.73265" lon="5.02586">
        <ele>317</ele>
        <time>2020-02-07T15:13:54.000Z</time>
      </trkpt>
      <trkpt lat="44.73264" lon="5.02587">
        <ele>317</ele>
        <time>2020-02-07T15:13:55.000Z</time>
      </trkpt>
      <trkpt lat="44.73263" lon="5.02588">
        <ele>317</ele>
        <time>2020-02-07T15:13:56.000Z</time>
      </trkpt>
      <trkpt lat="44.73262" lon="5.02588">
        <ele>317</ele>
        <time>2020-02-07T15:13:57.000Z</time>
      </trkpt>
      <trkpt lat="44.73261" lon="5.02589">
        <ele>317</ele>
        <time>2020-02-07T15:13:58.000Z</time>
      </trkpt>
      <trkpt lat="44.7326" lon="5.0259">
        <ele>317</ele>
        <time>2020-02-07T15:13:59.000Z</time>
      </trkpt>
      <trkpt lat="44.73258" lon="5.0259">
        <ele>317</ele>
        <time>2020-02-07T15:14:00.000Z</time>
      </trkpt>
      <trkpt lat="44.73258" lon="5.0259">
        <ele>317</ele>
        <time>2020-02-07T15:14:01.000Z</time>
      </trkpt>
      <trkpt lat="44.73257" lon="5.02591">
        <ele>317</ele>
        <time>2020-02-07T15:14:02.000Z</time>
      </trkpt>
      <trkpt lat="44.73256" lon="5.02591">
        <ele>317</ele>
        <time>2020-02-07T15:14:03.000Z</time>
      </trkpt>
      <trkpt lat="44.73255" lon="5.02592">
        <ele>317</ele>
        <time>2020-02-07T15:14:04.000Z</time>
      </trkpt>
      <trkpt lat="44.73254" lon="5.02593">
        <ele>317</ele>
        <time>2020-02-07T15:14:05.000Z</time>
      </trkpt>
      <trkpt lat="44.73254" lon="5.02593">
        <ele>317</ele>
        <time>2020-02-07T15:14:06.000Z</time>
      </trkpt>
      <trkpt lat="44.73253" lon="5.02593">
        <ele>317</ele>
        <time>2020-02-07T15:14:07.000Z</time>
      </trkpt>
      <trkpt lat="44.73252" lon="5.02594">
        <ele>316</ele>
        <time>2020-02-07T15:14:08.000Z</time>
      </trkpt>
      <trkpt lat="44.73251" lon="5.02594">
        <ele>316</ele>
        <time>2020-02-07T15:14:09.000Z</time>
      </trkpt>
      <trkpt lat="44.7325" lon="5.02594">
        <ele>316</ele>
        <time>2020-02-07T15:14:10.000Z</time>
      </trkpt>
      <trkpt lat="44.7325" lon="5.02594">
        <ele>316</ele>
        <time>2020-02-07T15:14:11.000Z</time>
      </trkpt>
      <trkpt lat="44.73249" lon="5.02594">
        <ele>316</ele>
        <time>2020-02-07T15:14:12.000Z</time>
      </trkpt>
      <trkpt lat="44.73248" lon="5.02594">
        <ele>316</ele>
        <time>2020-02-07T15:14:13.000Z</time>
      </trkpt>
      <trkpt lat="44.73247" lon="5.02595">
        <ele>316</ele>
        <time>2020-02-07T15:14:14.000Z</time>
      </trkpt>
      <trkpt lat="44.73247" lon="5.02595">
        <ele>316</ele>
        <time>2020-02-07T15:14:15.000Z</time>
      </trkpt>
      <trkpt lat="44.73246" lon="5.02595">
        <ele>316</ele>
        <time>2020-02-07T15:14:16.000Z</time>
      </trkpt>
      <trkpt lat="44.73245" lon="5.02594">
        <ele>316</ele>
        <time>2020-02-07T15:14:17.000Z</time>
      </trkpt>
      <trkpt lat="44.73244" lon="5.02594">
        <ele>316</ele>
        <time>2020-02-07T15:14:18.000Z</time>
      </trkpt>
      <trkpt lat="44.73243" lon="5.02593">
        <ele>316</ele>
        <time>2020-02-07T15:14:19.000Z</time>
      </trkpt>
      <trkpt lat="44.73242" lon="5.02593">
        <ele>316</ele>
        <time>2020-02-07T15:14:20.000Z</time>
      </trkpt>
      <trkpt lat="44.73241" lon="5.02593">
        <ele>316</ele>
        <time>2020-02-07T15:14:21.000Z</time>
      </trkpt>
      <trkpt lat="44.7324" lon="5.02592">
        <ele>316</ele>
        <time>2020-02-07T15:14:22.000Z</time>
      </trkpt>
      <trkpt lat="44.73239" lon="5.02592">
        <ele>315</ele>
        <time>2020-02-07T15:14:23.000Z</time>
      </trkpt>
      <trkpt lat="44.73238" lon="5.02591">
        <ele>315</ele>
        <time>2020-02-07T15:14:24.000Z</time>
      </trkpt>
      <trkpt lat="44.73237" lon="5.02591">
        <ele>315</ele>
        <time>2020-02-07T15:14:25.000Z</time>
      </trkpt>
      <trkpt lat="44.73237" lon="5.0259">
        <ele>315</ele>
        <time>2020-02-07T15:14:26.000Z</time>
      </trkpt>
      <trkpt lat="44.73237" lon="5.0259">
        <ele>315</ele>
        <time>2020-02-07T15:14:27.000Z</time>
      </trkpt>
      <trkpt lat="44.73237" lon="5.02589">
        <ele>314</ele>
        <time>2020-02-07T15:14:28.000Z</time>
      </trkpt>
      <trkpt lat="44.73237" lon="5.02589">
        <ele>314</ele>
        <time>2020-02-07T15:14:29.000Z</time>
      </trkpt>
      <trkpt lat="44.73236" lon="5.02589">
        <ele>314</ele>
        <time>2020-02-07T15:14:30.000Z</time>
      </trkpt>
      <trkpt lat="44.73235" lon="5.02588">
        <ele>314</ele>
        <time>2020-02-07T15:14:31.000Z</time>
      </trkpt>
      <trkpt lat="44.73234" lon="5.02587">
        <ele>313</ele>
        <time>2020-02-07T15:14:32.000Z</time>
      </trkpt>
      <trkpt lat="44.73233" lon="5.02586">
        <ele>313</ele>
        <time>2020-02-07T15:14:33.000Z</time>
      </trkpt>
      <trkpt lat="44.73232" lon="5.02585">
        <ele>313</ele>
        <time>2020-02-07T15:14:34.000Z</time>
      </trkpt>
      <trkpt lat="44.73231" lon="5.02584">
        <ele>313</ele>
        <time>2020-02-07T15:14:35.000Z</time>
      </trkpt>
      <trkpt lat="44.7323" lon="5.02583">
        <ele>312</ele>
        <time>2020-02-07T15:14:36.000Z</time>
      </trkpt>
      <trkpt lat="44.73229" lon="5.02583">
        <ele>312</ele>
        <time>2020-02-07T15:14:37.000Z</time>
      </trkpt>
      <trkpt lat="44.73228" lon="5.02582">
        <ele>312</ele>
        <time>2020-02-07T15:14:38.000Z</time>
      </trkpt>
      <trkpt lat="44.73227" lon="5.02581">
        <ele>312</ele>
        <time>2020-02-07T15:14:39.000Z</time>
      </trkpt>
      <trkpt lat="44.73226" lon="5.02579">
        <ele>311</ele>
        <time>2020-02-07T15:14:40.000Z</time>
      </trkpt>
      <trkpt lat="44.73225" lon="5.02578">
        <ele>311</ele>
        <time>2020-02-07T15:14:41.000Z</time>
      </trkpt>
      <trkpt lat="44.73224" lon="5.02577">
        <ele>311</ele>
        <time>2020-02-07T15:14:42.000Z</time>
      </trkpt>
      <trkpt lat="44.73223" lon="5.02577">
        <ele>311</ele>
        <time>2020-02-07T15:14:43.000Z</time>
      </trkpt>
      <trkpt lat="44.73222" lon="5.02576">
        <ele>310</ele>
        <time>2020-02-07T15:14:44.000Z</time>
      </trkpt>
      <trkpt lat="44.73221" lon="5.02575">
        <ele>310</ele>
        <time>2020-02-07T15:14:45.000Z</time>
      </trkpt>
      <trkpt lat="44.73219" lon="5.02575">
        <ele>310</ele>
        <time>2020-02-07T15:14:46.000Z</time>
      </trkpt>
      <trkpt lat="44.73218" lon="5.02574">
        <ele>310</ele>
        <time>2020-02-07T15:14:47.000Z</time>
      </trkpt>
      <trkpt lat="44.73217" lon="5.02574">
        <ele>310</ele>
        <time>2020-02-07T15:14:48.000Z</time>
      </trkpt>
      <trkpt lat="44.73216" lon="5.02573">
        <ele>310</ele>
        <time>2020-02-07T15:14:49.000Z</time>
      </trkpt>
      <trkpt lat="44.73215" lon="5.02573">
        <ele>310</ele>
        <time>2020-02-07T15:14:50.000Z</time>
      </trkpt>
      <trkpt lat="44.73214" lon="5.02572">
        <ele>310</ele>
        <time>2020-02-07T15:14:51.000Z</time>
      </trkpt>
      <trkpt lat="44.73214" lon="5.02572">
        <ele>309</ele>
        <time>2020-02-07T15:14:52.000Z</time>
      </trkpt>
      <trkpt lat="44.73214" lon="5.02572">
        <ele>309</ele>
        <time>2020-02-07T15:14:53.000Z</time>
      </trkpt>
      <trkpt lat="44.73214" lon="5.02572">
        <ele>309</ele>
        <time>2020-02-07T15:14:54.000Z</time>
      </trkpt>
      <trkpt lat="44.73214" lon="5.02572">
        <ele>309</ele>
        <time>2020-02-07T15:14:55.000Z</time>
      </trkpt>
      <trkpt lat="44.73213" lon="5.02572">
        <ele>309</ele>
        <time>2020-02-07T15:14:56.000Z</time>
      </trkpt>
      <trkpt lat="44.73212" lon="5.02572">
        <ele>309</ele>
        <time>2020-02-07T15:14:57.000Z</time>
      </trkpt>
      <trkpt lat="44.73211" lon="5.02572">
        <ele>309</ele>
        <time>2020-02-07T15:14:58.000Z</time>
      </trkpt>
      <trkpt lat="44.7321" lon="5.02571">
        <ele>309</ele>
        <time>2020-02-07T15:14:59.000Z</time>
      </trkpt>
      <trkpt lat="44.73209" lon="5.0257">
        <ele>309</ele>
        <time>2020-02-07T15:15:00.000Z</time>
      </trkpt>
      <trkpt lat="44.73208" lon="5.0257">
        <ele>309</ele>
        <time>2020-02-07T15:15:01.000Z</time>
      </trkpt>
      <trkpt lat="44.73207" lon="5.0257">
        <ele>309</ele>
        <time>2020-02-07T15:15:02.000Z</time>
      </trkpt>
      <trkpt lat="44.73206" lon="5.02569">
        <ele>309</ele>
        <time>2020-02-07T15:15:03.000Z</time>
      </trkpt>
      <trkpt lat="44.73205" lon="5.02569">
        <ele>309</ele>
        <time>2020-02-07T15:15:04.000Z</time>
      </trkpt>
      <trkpt lat="44.73205" lon="5.02569">
        <ele>309</ele>
        <time>2020-02-07T15:15:05.000Z</time>
      </trkpt>
      <trkpt lat="44.73204" lon="5.0257">
        <ele>309</ele>
        <time>2020-02-07T15:15:06.000Z</time>
      </trkpt>
      <trkpt lat="44.73204" lon="5.0257">
        <ele>309</ele>
        <time>2020-02-07T15:15:07.000Z</time>
      </trkpt>
      <trkpt lat="44.73203" lon="5.02569">
        <ele>309</ele>
        <time>2020-02-07T15:15:08.000Z</time>
      </trkpt>
      <trkpt lat="44.73202" lon="5.02569">
        <ele>309</ele>
        <time>2020-02-07T15:15:09.000Z</time>
      </trkpt>
      <trkpt lat="44.73201" lon="5.02568">
        <ele>309</ele>
        <time>2020-02-07T15:15:10.000Z</time>
      </trkpt>
      <trkpt lat="44.732" lon="5.02568">
        <ele>309</ele>
        <time>2020-02-07T15:15:11.000Z</time>
      </trkpt>
      <trkpt lat="44.73199" lon="5.02568">
        <ele>309</ele>
        <time>2020-02-07T15:15:12.000Z</time>
      </trkpt>
      <trkpt lat="44.73198" lon="5.02568">
        <ele>309</ele>
        <time>2020-02-07T15:15:13.000Z</time>
      </trkpt>
      <trkpt lat="44.73198" lon="5.02567">
        <ele>308</ele>
        <time>2020-02-07T15:15:14.000Z</time>
      </trkpt>
      <trkpt lat="44.73197" lon="5.02567">
        <ele>308</ele>
        <time>2020-02-07T15:15:15.000Z</time>
      </trkpt>
      <trkpt lat="44.73197" lon="5.02568">
        <ele>308</ele>
        <time>2020-02-07T15:15:16.000Z</time>
      </trkpt>
      <trkpt lat="44.73197" lon="5.02568">
        <ele>308</ele>
        <time>2020-02-07T15:15:17.000Z</time>
      </trkpt>
      <trkpt lat="44.73196" lon="5.02568">
        <ele>308</ele>
        <time>2020-02-07T15:15:18.000Z</time>
      </trkpt>
      <trkpt lat="44.73196" lon="5.02568">
        <ele>308</ele>
        <time>2020-02-07T15:15:19.000Z</time>
      </trkpt>
      <trkpt lat="44.73195" lon="5.02568">
        <ele>308</ele>
        <time>2020-02-07T15:15:20.000Z</time>
      </trkpt>
      <trkpt lat="44.73195" lon="5.02568">
        <ele>308</ele>
        <time>2020-02-07T15:15:21.000Z</time>
      </trkpt>
      <trkpt lat="44.73194" lon="5.02567">
        <ele>308</ele>
        <time>2020-02-07T15:15:22.000Z</time>
      </trkpt>
      <trkpt lat="44.73193" lon="5.02567">
        <ele>308</ele>
        <time>2020-02-07T15:15:23.000Z</time>
      </trkpt>
      <trkpt lat="44.73193" lon="5.02566">
        <ele>308</ele>
        <time>2020-02-07T15:15:24.000Z</time>
      </trkpt>
      <trkpt lat="44.73192" lon="5.02566">
        <ele>308</ele>
        <time>2020-02-07T15:15:25.000Z</time>
      </trkpt>
      <trkpt lat="44.73191" lon="5.02566">
        <ele>308</ele>
        <time>2020-02-07T15:15:26.000Z</time>
      </trkpt>
      <trkpt lat="44.7319" lon="5.02565">
        <ele>307</ele>
        <time>2020-02-07T15:15:27.000Z</time>
      </trkpt>
      <trkpt lat="44.73189" lon="5.02565">
        <ele>307</ele>
        <time>2020-02-07T15:15:28.000Z</time>
      </trkpt>
      <trkpt lat="44.73189" lon="5.02564">
        <ele>307</ele>
        <time>2020-02-07T15:15:29.000Z</time>
      </trkpt>
      <trkpt lat="44.73188" lon="5.02564">
        <ele>307</ele>
        <time>2020-02-07T15:15:30.000Z</time>
      </trkpt>
      <trkpt lat="44.73187" lon="5.02563">
        <ele>307</ele>
        <time>2020-02-07T15:15:31.000Z</time>
      </trkpt>
      <trkpt lat="44.73186" lon="5.02562">
        <ele>307</ele>
        <time>2020-02-07T15:15:32.000Z</time>
      </trkpt>
      <trkpt lat="44.73186" lon="5.02562">
        <ele>307</ele>
        <time>2020-02-07T15:15:33.000Z</time>
      </trkpt>
      <trkpt lat="44.73185" lon="5.02561">
        <ele>307</ele>
        <time>2020-02-07T15:15:34.000Z</time>
      </trkpt>
      <trkpt lat="44.73185" lon="5.02561">
        <ele>307</ele>
        <time>2020-02-07T15:15:35.000Z</time>
      </trkpt>
      <trkpt lat="44.73184" lon="5.0256">
        <ele>307</ele>
        <time>2020-02-07T15:15:36.000Z</time>
      </trkpt>
      <trkpt lat="44.73184" lon="5.0256">
        <ele>307</ele>
        <time>2020-02-07T15:15:37.000Z</time>
      </trkpt>
      <trkpt lat="44.73183" lon="5.02559">
        <ele>307</ele>
        <time>2020-02-07T15:15:38.000Z</time>
      </trkpt>
      <trkpt lat="44.73182" lon="5.02558">
        <ele>307</ele>
        <time>2020-02-07T15:15:39.000Z</time>
      </trkpt>
      <trkpt lat="44.73182" lon="5.02558">
        <ele>307</ele>
        <time>2020-02-07T15:15:40.000Z</time>
      </trkpt>
      <trkpt lat="44.73181" lon="5.02557">
        <ele>306</ele>
        <time>2020-02-07T15:15:41.000Z</time>
      </trkpt>
      <trkpt lat="44.7318" lon="5.02557">
        <ele>306</ele>
        <time>2020-02-07T15:15:42.000Z</time>
      </trkpt>
      <trkpt lat="44.7318" lon="5.02556">
        <ele>306</ele>
        <time>2020-02-07T15:15:43.000Z</time>
      </trkpt>
      <trkpt lat="44.73179" lon="5.02556">
        <ele>306</ele>
        <time>2020-02-07T15:15:44.000Z</time>
      </trkpt>
      <trkpt lat="44.73178" lon="5.02555">
        <ele>305</ele>
        <time>2020-02-07T15:15:45.000Z</time>
      </trkpt>
      <trkpt lat="44.73178" lon="5.02554">
        <ele>305</ele>
        <time>2020-02-07T15:15:46.000Z</time>
      </trkpt>
      <trkpt lat="44.73177" lon="5.02553">
        <ele>305</ele>
        <time>2020-02-07T15:15:47.000Z</time>
      </trkpt>
      <trkpt lat="44.73176" lon="5.02552">
        <ele>305</ele>
        <time>2020-02-07T15:15:48.000Z</time>
      </trkpt>
      <trkpt lat="44.73176" lon="5.02552">
        <ele>305</ele>
        <time>2020-02-07T15:15:49.000Z</time>
      </trkpt>
      <trkpt lat="44.73175" lon="5.02551">
        <ele>304</ele>
        <time>2020-02-07T15:15:50.000Z</time>
      </trkpt>
      <trkpt lat="44.73175" lon="5.0255">
        <ele>304</ele>
        <time>2020-02-07T15:15:51.000Z</time>
      </trkpt>
      <trkpt lat="44.73174" lon="5.02549">
        <ele>303</ele>
        <time>2020-02-07T15:15:52.000Z</time>
      </trkpt>
      <trkpt lat="44.73173" lon="5.02549">
        <ele>303</ele>
        <time>2020-02-07T15:15:53.000Z</time>
      </trkpt>
      <trkpt lat="44.73172" lon="5.02548">
        <ele>302</ele>
        <time>2020-02-07T15:15:54.000Z</time>
      </trkpt>
      <trkpt lat="44.73171" lon="5.02547">
        <ele>302</ele>
        <time>2020-02-07T15:15:55.000Z</time>
      </trkpt>
      <trkpt lat="44.7317" lon="5.02546">
        <ele>302</ele>
        <time>2020-02-07T15:15:56.000Z</time>
      </trkpt>
      <trkpt lat="44.73169" lon="5.02546">
        <ele>301</ele>
        <time>2020-02-07T15:15:57.000Z</time>
      </trkpt>
      <trkpt lat="44.73169" lon="5.02545">
        <ele>301</ele>
        <time>2020-02-07T15:15:58.000Z</time>
      </trkpt>
      <trkpt lat="44.73168" lon="5.02545">
        <ele>301</ele>
        <time>2020-02-07T15:15:59.000Z</time>
      </trkpt>
      <trkpt lat="44.73167" lon="5.02544">
        <ele>301</ele>
        <time>2020-02-07T15:16:00.000Z</time>
      </trkpt>
      <trkpt lat="44.73167" lon="5.02543">
        <ele>300</ele>
        <time>2020-02-07T15:16:01.000Z</time>
      </trkpt>
      <trkpt lat="44.73166" lon="5.02541">
        <ele>300</ele>
        <time>2020-02-07T15:16:02.000Z</time>
      </trkpt>
      <trkpt lat="44.73165" lon="5.0254">
        <ele>300</ele>
        <time>2020-02-07T15:16:03.000Z</time>
      </trkpt>
      <trkpt lat="44.73165" lon="5.0254">
        <ele>300</ele>
        <time>2020-02-07T15:16:04.000Z</time>
      </trkpt>
      <trkpt lat="44.73164" lon="5.02539">
        <ele>299</ele>
        <time>2020-02-07T15:16:05.000Z</time>
      </trkpt>
      <trkpt lat="44.73163" lon="5.02538">
        <ele>299</ele>
        <time>2020-02-07T15:16:06.000Z</time>
      </trkpt>
      <trkpt lat="44.73163" lon="5.02537">
        <ele>299</ele>
        <time>2020-02-07T15:16:07.000Z</time>
      </trkpt>
      <trkpt lat="44.73162" lon="5.02537">
        <ele>299</ele>
        <time>2020-02-07T15:16:08.000Z</time>
      </trkpt>
      <trkpt lat="44.73162" lon="5.02537">
        <ele>298</ele>
        <time>2020-02-07T15:16:09.000Z</time>
      </trkpt>
      <trkpt lat="44.73161" lon="5.02536">
        <ele>298</ele>
        <time>2020-02-07T15:16:10.000Z</time>
      </trkpt>
      <trkpt lat="44.7316" lon="5.02536">
        <ele>298</ele>
        <time>2020-02-07T15:16:11.000Z</time>
      </trkpt>
      <trkpt lat="44.7316" lon="5.02535">
        <ele>298</ele>
        <time>2020-02-07T15:16:12.000Z</time>
      </trkpt>
      <trkpt lat="44.73159" lon="5.02534">
        <ele>297</ele>
        <time>2020-02-07T15:16:13.000Z</time>
      </trkpt>
      <trkpt lat="44.73159" lon="5.02534">
        <ele>297</ele>
        <time>2020-02-07T15:16:14.000Z</time>
      </trkpt>
      <trkpt lat="44.73159" lon="5.02533">
        <ele>297</ele>
        <time>2020-02-07T15:16:15.000Z</time>
      </trkpt>
      <trkpt lat="44.73158" lon="5.02533">
        <ele>297</ele>
        <time>2020-02-07T15:16:16.000Z</time>
      </trkpt>
      <trkpt lat="44.73158" lon="5.02532">
        <ele>297</ele>
        <time>2020-02-07T15:16:17.000Z</time>
      </trkpt>
      <trkpt lat="44.73157" lon="5.02532">
        <ele>297</ele>
        <time>2020-02-07T15:16:18.000Z</time>
      </trkpt>
      <trkpt lat="44.73156" lon="5.02531">
        <ele>297</ele>
        <time>2020-02-07T15:16:19.000Z</time>
      </trkpt>
      <trkpt lat="44.73156" lon="5.0253">
        <ele>296</ele>
        <time>2020-02-07T15:16:20.000Z</time>
      </trkpt>
      <trkpt lat="44.73156" lon="5.02529">
        <ele>296</ele>
        <time>2020-02-07T15:16:21.000Z</time>
      </trkpt>
      <trkpt lat="44.73155" lon="5.02529">
        <ele>296</ele>
        <time>2020-02-07T15:16:22.000Z</time>
      </trkpt>
      <trkpt lat="44.73155" lon="5.02528">
        <ele>296</ele>
        <time>2020-02-07T15:16:23.000Z</time>
      </trkpt>
      <trkpt lat="44.73155" lon="5.02528">
        <ele>296</ele>
        <time>2020-02-07T15:16:24.000Z</time>
      </trkpt>
      <trkpt lat="44.73154" lon="5.02527">
        <ele>296</ele>
        <time>2020-02-07T15:16:25.000Z</time>
      </trkpt>
      <trkpt lat="44.73154" lon="5.02526">
        <ele>296</ele>
        <time>2020-02-07T15:16:26.000Z</time>
      </trkpt>
      <trkpt lat="44.73153" lon="5.02525">
        <ele>296</ele>
        <time>2020-02-07T15:16:27.000Z</time>
      </trkpt>
      <trkpt lat="44.73153" lon="5.02524">
        <ele>296</ele>
        <time>2020-02-07T15:16:28.000Z</time>
      </trkpt>
      <trkpt lat="44.73153" lon="5.02523">
        <ele>295</ele>
        <time>2020-02-07T15:16:29.000Z</time>
      </trkpt>
      <trkpt lat="44.73152" lon="5.02523">
        <ele>295</ele>
        <time>2020-02-07T15:16:30.000Z</time>
      </trkpt>
      <trkpt lat="44.73151" lon="5.02522">
        <ele>295</ele>
        <time>2020-02-07T15:16:31.000Z</time>
      </trkpt>
      <trkpt lat="44.7315" lon="5.02522">
        <ele>295</ele>
        <time>2020-02-07T15:16:32.000Z</time>
      </trkpt>
      <trkpt lat="44.7315" lon="5.02521">
        <ele>295</ele>
        <time>2020-02-07T15:16:33.000Z</time>
      </trkpt>
      <trkpt lat="44.73149" lon="5.0252">
        <ele>295</ele>
        <time>2020-02-07T15:16:34.000Z</time>
      </trkpt>
      <trkpt lat="44.73149" lon="5.02519">
        <ele>295</ele>
        <time>2020-02-07T15:16:35.000Z</time>
      </trkpt>
      <trkpt lat="44.73148" lon="5.02519">
        <ele>295</ele>
        <time>2020-02-07T15:16:36.000Z</time>
      </trkpt>
      <trkpt lat="44.73148" lon="5.02518">
        <ele>295</ele>
        <time>2020-02-07T15:16:37.000Z</time>
      </trkpt>
      <trkpt lat="44.73147" lon="5.02518">
        <ele>295</ele>
        <time>2020-02-07T15:16:38.000Z</time>
      </trkpt>
      <trkpt lat="44.73147" lon="5.02517">
        <ele>295</ele>
        <time>2020-02-07T15:16:39.000Z</time>
      </trkpt>
      <trkpt lat="44.73146" lon="5.02517">
        <ele>294</ele>
        <time>2020-02-07T15:16:40.000Z</time>
      </trkpt>
      <trkpt lat="44.73145" lon="5.02517">
        <ele>294</ele>
        <time>2020-02-07T15:16:41.000Z</time>
      </trkpt>
      <trkpt lat="44.73145" lon="5.02516">
        <ele>294</ele>
        <time>2020-02-07T15:16:42.000Z</time>
      </trkpt>
      <trkpt lat="44.73144" lon="5.02516">
        <ele>294</ele>
        <time>2020-02-07T15:16:43.000Z</time>
      </trkpt>
      <trkpt lat="44.73144" lon="5.02516">
        <ele>294</ele>
        <time>2020-02-07T15:16:44.000Z</time>
      </trkpt>
      <trkpt lat="44.73143" lon="5.02515">
        <ele>294</ele>
        <time>2020-02-07T15:16:45.000Z</time>
      </trkpt>
      <trkpt lat="44.73142" lon="5.02515">
        <ele>294</ele>
        <time>2020-02-07T15:16:46.000Z</time>
      </trkpt>
      <trkpt lat="44.73142" lon="5.02514">
        <ele>294</ele>
        <time>2020-02-07T15:16:47.000Z</time>
      </trkpt>
      <trkpt lat="44.73141" lon="5.02514">
        <ele>294</ele>
        <time>2020-02-07T15:16:48.000Z</time>
      </trkpt>
      <trkpt lat="44.7314" lon="5.02513">
        <ele>293</ele>
        <time>2020-02-07T15:16:49.000Z</time>
      </trkpt>
      <trkpt lat="44.73139" lon="5.02513">
        <ele>293</ele>
        <time>2020-02-07T15:16:50.000Z</time>
      </trkpt>
      <trkpt lat="44.73139" lon="5.02513">
        <ele>293</ele>
        <time>2020-02-07T15:16:51.000Z</time>
      </trkpt>
      <trkpt lat="44.73139" lon="5.02513">
        <ele>293</ele>
        <time>2020-02-07T15:16:52.000Z</time>
      </trkpt>
      <trkpt lat="44.73138" lon="5.02512">
        <ele>293</ele>
        <time>2020-02-07T15:16:53.000Z</time>
      </trkpt>
      <trkpt lat="44.73138" lon="5.02512">
        <ele>292</ele>
        <time>2020-02-07T15:16:54.000Z</time>
      </trkpt>
      <trkpt lat="44.73138" lon="5.02513">
        <ele>292</ele>
        <time>2020-02-07T15:16:55.000Z</time>
      </trkpt>
      <trkpt lat="44.73138" lon="5.02514">
        <ele>292</ele>
        <time>2020-02-07T15:16:56.000Z</time>
      </trkpt>
      <trkpt lat="44.73138" lon="5.02515">
        <ele>292</ele>
        <time>2020-02-07T15:16:57.000Z</time>
      </trkpt>
      <trkpt lat="44.73138" lon="5.02516">
        <ele>292</ele>
        <time>2020-02-07T15:16:58.000Z</time>
      </trkpt>
      <trkpt lat="44.73138" lon="5.02518">
        <ele>292</ele>
        <time>2020-02-07T15:16:59.000Z</time>
      </trkpt>
      <trkpt lat="44.73138" lon="5.02519">
        <ele>292</ele>
        <time>2020-02-07T15:17:00.000Z</time>
      </trkpt>
      <trkpt lat="44.73138" lon="5.0252">
        <ele>292</ele>
        <time>2020-02-07T15:17:01.000Z</time>
      </trkpt>
      <trkpt lat="44.73137" lon="5.02521">
        <ele>292</ele>
        <time>2020-02-07T15:17:02.000Z</time>
      </trkpt>
      <trkpt lat="44.73137" lon="5.02523">
        <ele>292</ele>
        <time>2020-02-07T15:17:03.000Z</time>
      </trkpt>
      <trkpt lat="44.73137" lon="5.02524">
        <ele>292</ele>
        <time>2020-02-07T15:17:04.000Z</time>
      </trkpt>
      <trkpt lat="44.73137" lon="5.02525">
        <ele>292</ele>
        <time>2020-02-07T15:17:05.000Z</time>
      </trkpt>
      <trkpt lat="44.73137" lon="5.02526">
        <ele>292</ele>
        <time>2020-02-07T15:17:06.000Z</time>
      </trkpt>
      <trkpt lat="44.73138" lon="5.02527">
        <ele>292</ele>
        <time>2020-02-07T15:17:07.000Z</time>
      </trkpt>
      <trkpt lat="44.73138" lon="5.02528">
        <ele>291</ele>
        <time>2020-02-07T15:17:08.000Z</time>
      </trkpt>
      <trkpt lat="44.73138" lon="5.02529">
        <ele>291</ele>
        <time>2020-02-07T15:17:09.000Z</time>
      </trkpt>
      <trkpt lat="44.73139" lon="5.0253">
        <ele>291</ele>
        <time>2020-02-07T15:17:10.000Z</time>
      </trkpt>
      <trkpt lat="44.73139" lon="5.02531">
        <ele>291</ele>
        <time>2020-02-07T15:17:11.000Z</time>
      </trkpt>
      <trkpt lat="44.7314" lon="5.02532">
        <ele>291</ele>
        <time>2020-02-07T15:17:12.000Z</time>
      </trkpt>
      <trkpt lat="44.7314" lon="5.02533">
        <ele>291</ele>
        <time>2020-02-07T15:17:13.000Z</time>
      </trkpt>
      <trkpt lat="44.73141" lon="5.02534">
        <ele>291</ele>
        <time>2020-02-07T15:17:14.000Z</time>
      </trkpt>
      <trkpt lat="44.73142" lon="5.02535">
        <ele>291</ele>
        <time>2020-02-07T15:17:15.000Z</time>
      </trkpt>
      <trkpt lat="44.73142" lon="5.02537">
        <ele>291</ele>
        <time>2020-02-07T15:17:16.000Z</time>
      </trkpt>
      <trkpt lat="44.73143" lon="5.02538">
        <ele>291</ele>
        <time>2020-02-07T15:17:17.000Z</time>
      </trkpt>
      <trkpt lat="44.73144" lon="5.02539">
        <ele>291</ele>
        <time>2020-02-07T15:17:18.000Z</time>
      </trkpt>
      <trkpt lat="44.73144" lon="5.0254">
        <ele>291</ele>
        <time>2020-02-07T15:17:19.000Z</time>
      </trkpt>
      <trkpt lat="44.73145" lon="5.02542">
        <ele>291</ele>
        <time>2020-02-07T15:17:20.000Z</time>
      </trkpt>
      <trkpt lat="44.73146" lon="5.02542">
        <ele>290</ele>
        <time>2020-02-07T15:17:21.000Z</time>
      </trkpt>
      <trkpt lat="44.73146" lon="5.02544">
        <ele>290</ele>
        <time>2020-02-07T15:17:22.000Z</time>
      </trkpt>
      <trkpt lat="44.73147" lon="5.02545">
        <ele>290</ele>
        <time>2020-02-07T15:17:23.000Z</time>
      </trkpt>
      <trkpt lat="44.73148" lon="5.02546">
        <ele>290</ele>
        <time>2020-02-07T15:17:24.000Z</time>
      </trkpt>
      <trkpt lat="44.73148" lon="5.02547">
        <ele>290</ele>
        <time>2020-02-07T15:17:25.000Z</time>
      </trkpt>
      <trkpt lat="44.73149" lon="5.02548">
        <ele>290</ele>
        <time>2020-02-07T15:17:26.000Z</time>
      </trkpt>
      <trkpt lat="44.7315" lon="5.02549">
        <ele>290</ele>
        <time>2020-02-07T15:17:27.000Z</time>
      </trkpt>
      <trkpt lat="44.7315" lon="5.0255">
        <ele>290</ele>
        <time>2020-02-07T15:17:28.000Z</time>
      </trkpt>
      <trkpt lat="44.7315" lon="5.02552">
        <ele>290</ele>
        <time>2020-02-07T15:17:29.000Z</time>
      </trkpt>
      <trkpt lat="44.73151" lon="5.02552">
        <ele>290</ele>
        <time>2020-02-07T15:17:30.000Z</time>
      </trkpt>
      <trkpt lat="44.73151" lon="5.02553">
        <ele>290</ele>
        <time>2020-02-07T15:17:31.000Z</time>
      </trkpt>
      <trkpt lat="44.73151" lon="5.02553">
        <ele>290</ele>
        <time>2020-02-07T15:17:32.000Z</time>
      </trkpt>
      <trkpt lat="44.73151" lon="5.02553">
        <ele>289</ele>
        <time>2020-02-07T15:17:33.000Z</time>
      </trkpt>
      <trkpt lat="44.73151" lon="5.02553">
        <ele>289</ele>
        <time>2020-02-07T15:17:34.000Z</time>
      </trkpt>
      <trkpt lat="44.73151" lon="5.02553">
        <ele>289</ele>
        <time>2020-02-07T15:17:35.000Z</time>
      </trkpt>
      <trkpt lat="44.73151" lon="5.02553">
        <ele>289</ele>
        <time>2020-02-07T15:17:36.000Z</time>
      </trkpt>
      <trkpt lat="44.73152" lon="5.02553">
        <ele>289</ele>
        <time>2020-02-07T15:17:37.000Z</time>
      </trkpt>
      <trkpt lat="44.73152" lon="5.02554">
        <ele>289</ele>
        <time>2020-02-07T15:17:38.000Z</time>
      </trkpt>
      <trkpt lat="44.73152" lon="5.02555">
        <ele>289</ele>
        <time>2020-02-07T15:17:39.000Z</time>
      </trkpt>
      <trkpt lat="44.73152" lon="5.02556">
        <ele>289</ele>
        <time>2020-02-07T15:17:40.000Z</time>
      </trkpt>
      <trkpt lat="44.73152" lon="5.02557">
        <ele>290</ele>
        <time>2020-02-07T15:17:41.000Z</time>
      </trkpt>
      <trkpt lat="44.73152" lon="5.02557">
        <ele>290</ele>
        <time>2020-02-07T15:17:42.000Z</time>
      </trkpt>
      <trkpt lat="44.73152" lon="5.02558">
        <ele>290</ele>
        <time>2020-02-07T15:17:43.000Z</time>
      </trkpt>
      <trkpt lat="44.73152" lon="5.02558">
        <ele>290</ele>
        <time>2020-02-07T15:17:44.000Z</time>
      </trkpt>
      <trkpt lat="44.73152" lon="5.02558">
        <ele>290</ele>
        <time>2020-02-07T15:17:45.000Z</time>
      </trkpt>
      <trkpt lat="44.73153" lon="5.02559">
        <ele>290</ele>
        <time>2020-02-07T15:17:46.000Z</time>
      </trkpt>
      <trkpt lat="44.73153" lon="5.0256">
        <ele>290</ele>
        <time>2020-02-07T15:17:47.000Z</time>
      </trkpt>
      <trkpt lat="44.73153" lon="5.02561">
        <ele>290</ele>
        <time>2020-02-07T15:17:48.000Z</time>
      </trkpt>
      <trkpt lat="44.73153" lon="5.02561">
        <ele>290</ele>
        <time>2020-02-07T15:17:49.000Z</time>
      </trkpt>
      <trkpt lat="44.73153" lon="5.02561">
        <ele>290</ele>
        <time>2020-02-07T15:17:50.000Z</time>
      </trkpt>
      <trkpt lat="44.73153" lon="5.02562">
        <ele>290</ele>
        <time>2020-02-07T15:17:51.000Z</time>
      </trkpt>
      <trkpt lat="44.73153" lon="5.02561">
        <ele>290</ele>
        <time>2020-02-07T15:17:52.000Z</time>
      </trkpt>
      <trkpt lat="44.73153" lon="5.02561">
        <ele>290</ele>
        <time>2020-02-07T15:17:53.000Z</time>
      </trkpt>
      <trkpt lat="44.73152" lon="5.02561">
        <ele>290</ele>
        <time>2020-02-07T15:17:54.000Z</time>
      </trkpt>
      <trkpt lat="44.73152" lon="5.02561">
        <ele>290</ele>
        <time>2020-02-07T15:17:55.000Z</time>
      </trkpt>
      <trkpt lat="44.73152" lon="5.02561">
        <ele>290</ele>
        <time>2020-02-07T15:17:56.000Z</time>
      </trkpt>
      <trkpt lat="44.73152" lon="5.02562">
        <ele>291</ele>
        <time>2020-02-07T15:17:57.000Z</time>
      </trkpt>
      <trkpt lat="44.73152" lon="5.02562">
        <ele>291</ele>
        <time>2020-02-07T15:17:58.000Z</time>
      </trkpt>
      <trkpt lat="44.73152" lon="5.02562">
        <ele>291</ele>
        <time>2020-02-07T15:17:59.000Z</time>
      </trkpt>
      <trkpt lat="44.73152" lon="5.02562">
        <ele>291</ele>
        <time>2020-02-07T15:18:00.000Z</time>
      </trkpt>
      <trkpt lat="44.73152" lon="5.02562">
        <ele>291</ele>
        <time>2020-02-07T15:18:01.000Z</time>
      </trkpt>
      <trkpt lat="44.73152" lon="5.02562">
        <ele>291</ele>
        <time>2020-02-07T15:18:02.000Z</time>
      </trkpt>
      <trkpt lat="44.73152" lon="5.02562">
        <ele>291</ele>
        <time>2020-02-07T15:18:03.000Z</time>
      </trkpt>
      <trkpt lat="44.73152" lon="5.02562">
        <ele>291</ele>
        <time>2020-02-07T15:18:04.000Z</time>
      </trkpt>
      <trkpt lat="44.73152" lon="5.02562">
        <ele>291</ele>
        <time>2020-02-07T15:18:05.000Z</time>
      </trkpt>
      <trkpt lat="44.73152" lon="5.02562">
        <ele>291</ele>
        <time>2020-02-07T15:18:06.000Z</time>
      </trkpt>
      <trkpt lat="44.73152" lon="5.02562">
        <ele>291</ele>
        <time>2020-02-07T15:18:07.000Z</time>
      </trkpt>
      <trkpt lat="44.73152" lon="5.02561">
        <ele>291</ele>
        <time>2020-02-07T15:18:08.000Z</time>
      </trkpt>
      <trkpt lat="44.73152" lon="5.02562">
        <ele>291</ele>
        <time>2020-02-07T15:18:09.000Z</time>
      </trkpt>
      <trkpt lat="44.73152" lon="5.02561">
        <ele>291</ele>
        <time>2020-02-07T15:18:10.000Z</time>
      </trkpt>
      <trkpt lat="44.73152" lon="5.02561">
        <ele>291</ele>
        <time>2020-02-07T15:18:11.000Z</time>
      </trkpt>
      <trkpt lat="44.73152" lon="5.02561">
        <ele>291</ele>
        <time>2020-02-07T15:18:12.000Z</time>
      </trkpt>
      <trkpt lat="44.73152" lon="5.02561">
        <ele>291</ele>
        <time>2020-02-07T15:18:13.000Z</time>
      </trkpt>
      <trkpt lat="44.73152" lon="5.02561">
        <ele>291</ele>
        <time>2020-02-07T15:18:14.000Z</time>
      </trkpt>
      <trkpt lat="44.73152" lon="5.02561">
        <ele>291</ele>
        <time>2020-02-07T15:18:15.000Z</time>
      </trkpt>
      <trkpt lat="44.73152" lon="5.02561">
        <ele>290</ele>
        <time>2020-02-07T15:18:16.000Z</time>
      </trkpt>
      <trkpt lat="44.73152" lon="5.02561">
        <ele>290</ele>
        <time>2020-02-07T15:18:17.000Z</time>
      </trkpt>
      <trkpt lat="44.73152" lon="5.02561">
        <ele>290</ele>
        <time>2020-02-07T15:18:18.000Z</time>
      </trkpt>
      <trkpt lat="44.73152" lon="5.02561">
        <ele>290</ele>
        <time>2020-02-07T15:18:19.000Z</time>
      </trkpt>
      <trkpt lat="44.73152" lon="5.02561">
        <ele>290</ele>
        <time>2020-02-07T15:18:20.000Z</time>
      </trkpt>
      <trkpt lat="44.73152" lon="5.02561">
        <ele>290</ele>
        <time>2020-02-07T15:18:21.000Z</time>
      </trkpt>
      <trkpt lat="44.73152" lon="5.02561">
        <ele>290</ele>
        <time>2020-02-07T15:18:22.000Z</time>
      </trkpt>
      <trkpt lat="44.73152" lon="5.02561">
        <ele>290</ele>
        <time>2020-02-07T15:18:23.000Z</time>
      </trkpt>
      <trkpt lat="44.73152" lon="5.02561">
        <ele>290</ele>
        <time>2020-02-07T15:18:24.000Z</time>
      </trkpt>
      <trkpt lat="44.73152" lon="5.02561">
        <ele>290</ele>
        <time>2020-02-07T15:18:25.000Z</time>
      </trkpt>
      <trkpt lat="44.73153" lon="5.02561">
        <ele>290</ele>
        <time>2020-02-07T15:18:26.000Z</time>
      </trkpt>
      <trkpt lat="44.73153" lon="5.02561">
        <ele>290</ele>
        <time>2020-02-07T15:18:27.000Z</time>
      </trkpt>
      <trkpt lat="44.73153" lon="5.02561">
        <ele>290</ele>
        <time>2020-02-07T15:18:28.000Z</time>
      </trkpt>
      <trkpt lat="44.73153" lon="5.02561">
        <ele>290</ele>
        <time>2020-02-07T15:18:29.000Z</time>
      </trkpt>
      <trkpt lat="44.73153" lon="5.02561">
        <ele>291</ele>
        <time>2020-02-07T15:18:30.000Z</time>
      </trkpt>
      <trkpt lat="44.73153" lon="5.02561">
        <ele>291</ele>
        <time>2020-02-07T15:18:31.000Z</time>
      </trkpt>
      <trkpt lat="44.73153" lon="5.02561">
        <ele>291</ele>
        <time>2020-02-07T15:18:32.000Z</time>
      </trkpt>
      <trkpt lat="44.73153" lon="5.02561">
        <ele>291</ele>
        <time>2020-02-07T15:18:33.000Z</time>
      </trkpt>
      <trkpt lat="44.73153" lon="5.02561">
        <ele>291</ele>
        <time>2020-02-07T15:18:34.000Z</time>
      </trkpt>
      <trkpt lat="44.73153" lon="5.02561">
        <ele>291</ele>
        <time>2020-02-07T15:18:35.000Z</time>
      </trkpt>
      <trkpt lat="44.73153" lon="5.02561">
        <ele>291</ele>
        <time>2020-02-07T15:18:36.000Z</time>
      </trkpt>
      <trkpt lat="44.73153" lon="5.02561">
        <ele>291</ele>
        <time>2020-02-07T15:18:37.000Z</time>
      </trkpt>
      <trkpt lat="44.73153" lon="5.02561">
        <ele>291</ele>
        <time>2020-02-07T15:18:38.000Z</time>
      </trkpt>
      <trkpt lat="44.73153" lon="5.02561">
        <ele>291</ele>
        <time>2020-02-07T15:18:39.000Z</time>
      </trkpt>
      <trkpt lat="44.73153" lon="5.02561">
        <ele>291</ele>
        <time>2020-02-07T15:18:40.000Z</time>
      </trkpt>
      <trkpt lat="44.73153" lon="5.02561">
        <ele>291</ele>
        <time>2020-02-07T15:18:41.000Z</time>
      </trkpt>
      <trkpt lat="44.73153" lon="5.02561">
        <ele>291</ele>
        <time>2020-02-07T15:18:42.000Z</time>
      </trkpt>
      <trkpt lat="44.73153" lon="5.02561">
        <ele>291</ele>
        <time>2020-02-07T15:18:43.000Z</time>
      </trkpt>
      <trkpt lat="44.73153" lon="5.02561">
        <ele>291</ele>
        <time>2020-02-07T15:18:44.000Z</time>
      </trkpt>
      <trkpt lat="44.73153" lon="5.02561">
        <ele>291</ele>
        <time>2020-02-07T15:18:45.000Z</time>
      </trkpt>
      <trkpt lat="44.73153" lon="5.02562">
        <ele>291</ele>
        <time>2020-02-07T15:18:46.000Z</time>
      </trkpt>
      <trkpt lat="44.73153" lon="5.02561">
        <ele>291</ele>
        <time>2020-02-07T15:18:47.000Z</time>
      </trkpt>
      <trkpt lat="44.73153" lon="5.02561">
        <ele>291</ele>
        <time>2020-02-07T15:18:48.000Z</time>
      </trkpt>
      <trkpt lat="44.73153" lon="5.02561">
        <ele>291</ele>
        <time>2020-02-07T15:18:49.000Z</time>
      </trkpt>
      <trkpt lat="44.73153" lon="5.02561">
        <ele>291</ele>
        <time>2020-02-07T15:18:50.000Z</time>
      </trkpt>
      <trkpt lat="44.73154" lon="5.02561">
        <ele>291</ele>
        <time>2020-02-07T15:18:51.000Z</time>
      </trkpt>
      <trkpt lat="44.73154" lon="5.02561">
        <ele>291</ele>
        <time>2020-02-07T15:18:52.000Z</time>
      </trkpt>
      <trkpt lat="44.73154" lon="5.02561">
        <ele>290</ele>
        <time>2020-02-07T15:18:53.000Z</time>
      </trkpt>
      <trkpt lat="44.73154" lon="5.02561">
        <ele>290</ele>
        <time>2020-02-07T15:18:54.000Z</time>
      </trkpt>
      <trkpt lat="44.73154" lon="5.02561">
        <ele>290</ele>
        <time>2020-02-07T15:18:55.000Z</time>
      </trkpt>
      <trkpt lat="44.73154" lon="5.02561">
        <ele>290</ele>
        <time>2020-02-07T15:18:56.000Z</time>
      </trkpt>
      <trkpt lat="44.73154" lon="5.02561">
        <ele>290</ele>
        <time>2020-02-07T15:18:57.000Z</time>
      </trkpt>
      <trkpt lat="44.73154" lon="5.02561">
        <ele>290</ele>
        <time>2020-02-07T15:18:58.000Z</time>
      </trkpt>
      <trkpt lat="44.73154" lon="5.02561">
        <ele>290</ele>
        <time>2020-02-07T15:18:59.000Z</time>
      </trkpt>
      <trkpt lat="44.73154" lon="5.02561">
        <ele>290</ele>
        <time>2020-02-07T15:19:00.000Z</time>
      </trkpt>
      <trkpt lat="44.73154" lon="5.02561">
        <ele>290</ele>
        <time>2020-02-07T15:19:01.000Z</time>
      </trkpt>
      <trkpt lat="44.73154" lon="5.02561">
        <ele>290</ele>
        <time>2020-02-07T15:19:02.000Z</time>
      </trkpt>
      <trkpt lat="44.73154" lon="5.02561">
        <ele>290</ele>
        <time>2020-02-07T15:19:03.000Z</time>
      </trkpt>
      <trkpt lat="44.73154" lon="5.02561">
        <ele>290</ele>
        <time>2020-02-07T15:19:04.000Z</time>
      </trkpt>
      <trkpt lat="44.73154" lon="5.02561">
        <ele>290</ele>
        <time>2020-02-07T15:19:05.000Z</time>
      </trkpt>
      <trkpt lat="44.73154" lon="5.02561">
        <ele>290</ele>
        <time>2020-02-07T15:19:06.000Z</time>
      </trkpt>
      <trkpt lat="44.73154" lon="5.02561">
        <ele>290</ele>
        <time>2020-02-07T15:19:07.000Z</time>
      </trkpt>
      <trkpt lat="44.73153" lon="5.02562">
        <ele>290</ele>
        <time>2020-02-07T15:19:08.000Z</time>
      </trkpt>
      <trkpt lat="44.73153" lon="5.02562">
        <ele>290</ele>
        <time>2020-02-07T15:19:09.000Z</time>
      </trkpt>
      <trkpt lat="44.73152" lon="5.02562">
        <ele>290</ele>
        <time>2020-02-07T15:19:10.000Z</time>
      </trkpt>
      <trkpt lat="44.73152" lon="5.02562">
        <ele>290</ele>
        <time>2020-02-07T15:19:11.000Z</time>
      </trkpt>
      <trkpt lat="44.73152" lon="5.02562">
        <ele>290</ele>
        <time>2020-02-07T15:19:12.000Z</time>
      </trkpt>
      <trkpt lat="44.73152" lon="5.02562">
        <ele>290</ele>
        <time>2020-02-07T15:19:13.000Z</time>
      </trkpt>
      <trkpt lat="44.73152" lon="5.02562">
        <ele>290</ele>
        <time>2020-02-07T15:19:14.000Z</time>
      </trkpt>
      <trkpt lat="44.73152" lon="5.02562">
        <ele>290</ele>
        <time>2020-02-07T15:19:15.000Z</time>
      </trkpt>
      <trkpt lat="44.73152" lon="5.02563">
        <ele>290</ele>
        <time>2020-02-07T15:19:16.000Z</time>
      </trkpt>
      <trkpt lat="44.73152" lon="5.02564">
        <ele>290</ele>
        <time>2020-02-07T15:19:17.000Z</time>
      </trkpt>
      <trkpt lat="44.73152" lon="5.02564">
        <ele>290</ele>
        <time>2020-02-07T15:19:18.000Z</time>
      </trkpt>
      <trkpt lat="44.73152" lon="5.02565">
        <ele>290</ele>
        <time>2020-02-07T15:19:19.000Z</time>
      </trkpt>
      <trkpt lat="44.73152" lon="5.02565">
        <ele>290</ele>
        <time>2020-02-07T15:19:20.000Z</time>
      </trkpt>
      <trkpt lat="44.73153" lon="5.02564">
        <ele>290</ele>
        <time>2020-02-07T15:19:21.000Z</time>
      </trkpt>
      <trkpt lat="44.73153" lon="5.02563">
        <ele>290</ele>
        <time>2020-02-07T15:19:22.000Z</time>
      </trkpt>
      <trkpt lat="44.73153" lon="5.02562">
        <ele>290</ele>
        <time>2020-02-07T15:19:23.000Z</time>
      </trkpt>
      <trkpt lat="44.73153" lon="5.02562">
        <ele>289</ele>
        <time>2020-02-07T15:19:24.000Z</time>
      </trkpt>
      <trkpt lat="44.73153" lon="5.02561">
        <ele>289</ele>
        <time>2020-02-07T15:19:25.000Z</time>
      </trkpt>
      <trkpt lat="44.73153" lon="5.02561">
        <ele>289</ele>
        <time>2020-02-07T15:19:26.000Z</time>
      </trkpt>
      <trkpt lat="44.73153" lon="5.02561">
        <ele>289</ele>
        <time>2020-02-07T15:19:27.000Z</time>
      </trkpt>
      <trkpt lat="44.73153" lon="5.02561">
        <ele>289</ele>
        <time>2020-02-07T15:19:28.000Z</time>
      </trkpt>
      <trkpt lat="44.73152" lon="5.02561">
        <ele>289</ele>
        <time>2020-02-07T15:19:29.000Z</time>
      </trkpt>
      <trkpt lat="44.73152" lon="5.02561">
        <ele>289</ele>
        <time>2020-02-07T15:19:30.000Z</time>
      </trkpt>
      <trkpt lat="44.73152" lon="5.02561">
        <ele>289</ele>
        <time>2020-02-07T15:19:31.000Z</time>
      </trkpt>
      <trkpt lat="44.73152" lon="5.02561">
        <ele>289</ele>
        <time>2020-02-07T15:19:32.000Z</time>
      </trkpt>
      <trkpt lat="44.73152" lon="5.02561">
        <ele>289</ele>
        <time>2020-02-07T15:19:33.000Z</time>
      </trkpt>
      <trkpt lat="44.73152" lon="5.02561">
        <ele>289</ele>
        <time>2020-02-07T15:19:34.000Z</time>
      </trkpt>
      <trkpt lat="44.73152" lon="5.02561">
        <ele>289</ele>
        <time>2020-02-07T15:19:35.000Z</time>
      </trkpt>
      <trkpt lat="44.73152" lon="5.02561">
        <ele>289</ele>
        <time>2020-02-07T15:19:36.000Z</time>
      </trkpt>
      <trkpt lat="44.73152" lon="5.02562">
        <ele>289</ele>
        <time>2020-02-07T15:19:37.000Z</time>
      </trkpt>
      <trkpt lat="44.73152" lon="5.02561">
        <ele>288</ele>
        <time>2020-02-07T15:19:38.000Z</time>
      </trkpt>
      <trkpt lat="44.73152" lon="5.02561">
        <ele>288</ele>
        <time>2020-02-07T15:19:39.000Z</time>
      </trkpt>
      <trkpt lat="44.73152" lon="5.02561">
        <ele>288</ele>
        <time>2020-02-07T15:19:40.000Z</time>
      </trkpt>
      <trkpt lat="44.73152" lon="5.02561">
        <ele>288</ele>
        <time>2020-02-07T15:19:41.000Z</time>
      </trkpt>
      <trkpt lat="44.73152" lon="5.02561">
        <ele>288</ele>
        <time>2020-02-07T15:19:42.000Z</time>
      </trkpt>
      <trkpt lat="44.73152" lon="5.02561">
        <ele>288</ele>
        <time>2020-02-07T15:19:43.000Z</time>
      </trkpt>
      <trkpt lat="44.73152" lon="5.02561">
        <ele>288</ele>
        <time>2020-02-07T15:19:44.000Z</time>
      </trkpt>
      <trkpt lat="44.73152" lon="5.02561">
        <ele>288</ele>
        <time>2020-02-07T15:19:45.000Z</time>
      </trkpt>
      <trkpt lat="44.73152" lon="5.02561">
        <ele>288</ele>
        <time>2020-02-07T15:19:46.000Z</time>
      </trkpt>
      <trkpt lat="44.73152" lon="5.02561">
        <ele>288</ele>
        <time>2020-02-07T15:19:47.000Z</time>
      </trkpt>
      <trkpt lat="44.73151" lon="5.02562">
        <ele>288</ele>
        <time>2020-02-07T15:19:48.000Z</time>
      </trkpt>
      <trkpt lat="44.73151" lon="5.02562">
        <ele>288</ele>
        <time>2020-02-07T15:19:49.000Z</time>
      </trkpt>
      <trkpt lat="44.73151" lon="5.02562">
        <ele>288</ele>
        <time>2020-02-07T15:19:50.000Z</time>
      </trkpt>
      <trkpt lat="44.73151" lon="5.02562">
        <ele>288</ele>
        <time>2020-02-07T15:19:51.000Z</time>
      </trkpt>
      <trkpt lat="44.73151" lon="5.02562">
        <ele>288</ele>
        <time>2020-02-07T15:19:52.000Z</time>
      </trkpt>
      <trkpt lat="44.73151" lon="5.02562">
        <ele>288</ele>
        <time>2020-02-07T15:19:53.000Z</time>
      </trkpt>
      <trkpt lat="44.73151" lon="5.02562">
        <ele>288</ele>
        <time>2020-02-07T15:19:54.000Z</time>
      </trkpt>
      <trkpt lat="44.73152" lon="5.02562">
        <ele>288</ele>
        <time>2020-02-07T15:19:55.000Z</time>
      </trkpt>
      <trkpt lat="44.73152" lon="5.02562">
        <ele>288</ele>
        <time>2020-02-07T15:19:56.000Z</time>
      </trkpt>
      <trkpt lat="44.73152" lon="5.02562">
        <ele>288</ele>
        <time>2020-02-07T15:19:57.000Z</time>
      </trkpt>
      <trkpt lat="44.73152" lon="5.02562">
        <ele>288</ele>
        <time>2020-02-07T15:19:58.000Z</time>
      </trkpt>
      <trkpt lat="44.73152" lon="5.02562">
        <ele>289</ele>
        <time>2020-02-07T15:19:59.000Z</time>
      </trkpt>
      <trkpt lat="44.73152" lon="5.02563">
        <ele>289</ele>
        <time>2020-02-07T15:20:00.000Z</time>
      </trkpt>
      <trkpt lat="44.73152" lon="5.02563">
        <ele>289</ele>
        <time>2020-02-07T15:20:01.000Z</time>
      </trkpt>
      <trkpt lat="44.73152" lon="5.02563">
        <ele>289</ele>
        <time>2020-02-07T15:20:02.000Z</time>
      </trkpt>
      <trkpt lat="44.73152" lon="5.02563">
        <ele>289</ele>
        <time>2020-02-07T15:20:03.000Z</time>
      </trkpt>
      <trkpt lat="44.73152" lon="5.02562">
        <ele>289</ele>
        <time>2020-02-07T15:20:04.000Z</time>
      </trkpt>
      <trkpt lat="44.73152" lon="5.02562">
        <ele>289</ele>
        <time>2020-02-07T15:20:05.000Z</time>
      </trkpt>
      <trkpt lat="44.73152" lon="5.02562">
        <ele>289</ele>
        <time>2020-02-07T15:20:06.000Z</time>
      </trkpt>
      <trkpt lat="44.73152" lon="5.02563">
        <ele>289</ele>
        <time>2020-02-07T15:20:07.000Z</time>
      </trkpt>
      <trkpt lat="44.73152" lon="5.02563">
        <ele>290</ele>
        <time>2020-02-07T15:20:08.000Z</time>
      </trkpt>
      <trkpt lat="44.73152" lon="5.02563">
        <ele>290</ele>
        <time>2020-02-07T15:20:09.000Z</time>
      </trkpt>
      <trkpt lat="44.73152" lon="5.02563">
        <ele>290</ele>
        <time>2020-02-07T15:20:10.000Z</time>
      </trkpt>
      <trkpt lat="44.73152" lon="5.02563">
        <ele>290</ele>
        <time>2020-02-07T15:20:11.000Z</time>
      </trkpt>
      <trkpt lat="44.73152" lon="5.02563">
        <ele>290</ele>
        <time>2020-02-07T15:20:12.000Z</time>
      </trkpt>
      <trkpt lat="44.73152" lon="5.02563">
        <ele>290</ele>
        <time>2020-02-07T15:20:13.000Z</time>
      </trkpt>
      <trkpt lat="44.73152" lon="5.02563">
        <ele>290</ele>
        <time>2020-02-07T15:20:14.000Z</time>
      </trkpt>
      <trkpt lat="44.73152" lon="5.02562">
        <ele>290</ele>
        <time>2020-02-07T15:20:15.000Z</time>
      </trkpt>
      <trkpt lat="44.73152" lon="5.02562">
        <ele>290</ele>
        <time>2020-02-07T15:20:16.000Z</time>
      </trkpt>
      <trkpt lat="44.73152" lon="5.02562">
        <ele>290</ele>
        <time>2020-02-07T15:20:17.000Z</time>
      </trkpt>
      <trkpt lat="44.73152" lon="5.02562">
        <ele>290</ele>
        <time>2020-02-07T15:20:18.000Z</time>
      </trkpt>
      <trkpt lat="44.73152" lon="5.02562">
        <ele>290</ele>
        <time>2020-02-07T15:20:19.000Z</time>
      </trkpt>
      <trkpt lat="44.73152" lon="5.02562">
        <ele>290</ele>
        <time>2020-02-07T15:20:20.000Z</time>
      </trkpt>
      <trkpt lat="44.73152" lon="5.02562">
        <ele>290</ele>
        <time>2020-02-07T15:20:21.000Z</time>
      </trkpt>
      <trkpt lat="44.73152" lon="5.02562">
        <ele>290</ele>
        <time>2020-02-07T15:20:22.000Z</time>
      </trkpt>
      <trkpt lat="44.73152" lon="5.02562">
        <ele>290</ele>
        <time>2020-02-07T15:20:23.000Z</time>
      </trkpt>
      <trkpt lat="44.73152" lon="5.02562">
        <ele>290</ele>
        <time>2020-02-07T15:20:24.000Z</time>
      </trkpt>
      <trkpt lat="44.73152" lon="5.02562">
        <ele>290</ele>
        <time>2020-02-07T15:20:25.000Z</time>
      </trkpt>
      <trkpt lat="44.73152" lon="5.02562">
        <ele>290</ele>
        <time>2020-02-07T15:20:26.000Z</time>
      </trkpt>
      <trkpt lat="44.73152" lon="5.02562">
        <ele>290</ele>
        <time>2020-02-07T15:20:27.000Z</time>
      </trkpt>
      <trkpt lat="44.73152" lon="5.02563">
        <ele>290</ele>
        <time>2020-02-07T15:20:28.000Z</time>
      </trkpt>
      <trkpt lat="44.73152" lon="5.02563">
        <ele>290</ele>
        <time>2020-02-07T15:20:29.000Z</time>
      </trkpt>
      <trkpt lat="44.73152" lon="5.02563">
        <ele>290</ele>
        <time>2020-02-07T15:20:30.000Z</time>
      </trkpt>
      <trkpt lat="44.73152" lon="5.02563">
        <ele>290</ele>
        <time>2020-02-07T15:20:31.000Z</time>
      </trkpt>
      <trkpt lat="44.73152" lon="5.02563">
        <ele>290</ele>
        <time>2020-02-07T15:20:32.000Z</time>
      </trkpt>
      <trkpt lat="44.73151" lon="5.02563">
        <ele>290</ele>
        <time>2020-02-07T15:20:33.000Z</time>
      </trkpt>
      <trkpt lat="44.73151" lon="5.02563">
        <ele>290</ele>
        <time>2020-02-07T15:20:34.000Z</time>
      </trkpt>
      <trkpt lat="44.73151" lon="5.02563">
        <ele>290</ele>
        <time>2020-02-07T15:20:35.000Z</time>
      </trkpt>
      <trkpt lat="44.73151" lon="5.02563">
        <ele>290</ele>
        <time>2020-02-07T15:20:36.000Z</time>
      </trkpt>
      <trkpt lat="44.73151" lon="5.02563">
        <ele>291</ele>
        <time>2020-02-07T15:20:37.000Z</time>
      </trkpt>
      <trkpt lat="44.73151" lon="5.02564">
        <ele>290</ele>
        <time>2020-02-07T15:20:38.000Z</time>
      </trkpt>
      <trkpt lat="44.73151" lon="5.02564">
        <ele>290</ele>
        <time>2020-02-07T15:20:39.000Z</time>
      </trkpt>
      <trkpt lat="44.73151" lon="5.02564">
        <ele>290</ele>
        <time>2020-02-07T15:20:40.000Z</time>
      </trkpt>
      <trkpt lat="44.73151" lon="5.02564">
        <ele>290</ele>
        <time>2020-02-07T15:20:41.000Z</time>
      </trkpt>
      <trkpt lat="44.73151" lon="5.02564">
        <ele>290</ele>
        <time>2020-02-07T15:20:42.000Z</time>
      </trkpt>
      <trkpt lat="44.73151" lon="5.02564">
        <ele>290</ele>
        <time>2020-02-07T15:20:43.000Z</time>
      </trkpt>
      <trkpt lat="44.73151" lon="5.02564">
        <ele>290</ele>
        <time>2020-02-07T15:20:44.000Z</time>
      </trkpt>
      <trkpt lat="44.73151" lon="5.02564">
        <ele>290</ele>
        <time>2020-02-07T15:20:45.000Z</time>
      </trkpt>
      <trkpt lat="44.73151" lon="5.02564">
        <ele>290</ele>
        <time>2020-02-07T15:20:46.000Z</time>
      </trkpt>
      <trkpt lat="44.73151" lon="5.02564">
        <ele>290</ele>
        <time>2020-02-07T15:20:47.000Z</time>
      </trkpt>
      <trkpt lat="44.73151" lon="5.02564">
        <ele>290</ele>
        <time>2020-02-07T15:20:48.000Z</time>
      </trkpt>
      <trkpt lat="44.73151" lon="5.02564">
        <ele>290</ele>
        <time>2020-02-07T15:20:49.000Z</time>
      </trkpt>
      <trkpt lat="44.73152" lon="5.02563">
        <ele>291</ele>
        <time>2020-02-07T15:20:50.000Z</time>
      </trkpt>
      <trkpt lat="44.73152" lon="5.02563">
        <ele>291</ele>
        <time>2020-02-07T15:20:51.000Z</time>
      </trkpt>
      <trkpt lat="44.73152" lon="5.02563">
        <ele>291</ele>
        <time>2020-02-07T15:20:52.000Z</time>
      </trkpt>
      <trkpt lat="44.73151" lon="5.02564">
        <ele>291</ele>
        <time>2020-02-07T15:20:53.000Z</time>
      </trkpt>
      <trkpt lat="44.73151" lon="5.02563">
        <ele>291</ele>
        <time>2020-02-07T15:20:54.000Z</time>
      </trkpt>
      <trkpt lat="44.7315" lon="5.02564">
        <ele>290</ele>
        <time>2020-02-07T15:20:55.000Z</time>
      </trkpt>
      <trkpt lat="44.7315" lon="5.02564">
        <ele>290</ele>
        <time>2020-02-07T15:20:56.000Z</time>
      </trkpt>
      <trkpt lat="44.7315" lon="5.02564">
        <ele>290</ele>
        <time>2020-02-07T15:20:57.000Z</time>
      </trkpt>
      <trkpt lat="44.7315" lon="5.02564">
        <ele>290</ele>
        <time>2020-02-07T15:20:58.000Z</time>
      </trkpt>
      <trkpt lat="44.7315" lon="5.02564">
        <ele>290</ele>
        <time>2020-02-07T15:20:59.000Z</time>
      </trkpt>
      <trkpt lat="44.7315" lon="5.02564">
        <ele>290</ele>
        <time>2020-02-07T15:21:00.000Z</time>
      </trkpt>
      <trkpt lat="44.7315" lon="5.02564">
        <ele>290</ele>
        <time>2020-02-07T15:21:01.000Z</time>
      </trkpt>
      <trkpt lat="44.7315" lon="5.02564">
        <ele>290</ele>
        <time>2020-02-07T15:21:02.000Z</time>
      </trkpt>
      <trkpt lat="44.7315" lon="5.02563">
        <ele>290</ele>
        <time>2020-02-07T15:21:03.000Z</time>
      </trkpt>
      <trkpt lat="44.7315" lon="5.02563">
        <ele>290</ele>
        <time>2020-02-07T15:21:04.000Z</time>
      </trkpt>
      <trkpt lat="44.7315" lon="5.02563">
        <ele>290</ele>
        <time>2020-02-07T15:21:05.000Z</time>
      </trkpt>
      <trkpt lat="44.7315" lon="5.02563">
        <ele>290</ele>
        <time>2020-02-07T15:21:06.000Z</time>
      </trkpt>
      <trkpt lat="44.7315" lon="5.02563">
        <ele>290</ele>
        <time>2020-02-07T15:21:07.000Z</time>
      </trkpt>
      <trkpt lat="44.7315" lon="5.02563">
        <ele>290</ele>
        <time>2020-02-07T15:21:08.000Z</time>
      </trkpt>
      <trkpt lat="44.7315" lon="5.02563">
        <ele>290</ele>
        <time>2020-02-07T15:21:09.000Z</time>
      </trkpt>
      <trkpt lat="44.7315" lon="5.02563">
        <ele>290</ele>
        <time>2020-02-07T15:21:10.000Z</time>
      </trkpt>
      <trkpt lat="44.7315" lon="5.02563">
        <ele>290</ele>
        <time>2020-02-07T15:21:11.000Z</time>
      </trkpt>
      <trkpt lat="44.7315" lon="5.02563">
        <ele>290</ele>
        <time>2020-02-07T15:21:12.000Z</time>
      </trkpt>
      <trkpt lat="44.7315" lon="5.02563">
        <ele>290</ele>
        <time>2020-02-07T15:21:13.000Z</time>
      </trkpt>
      <trkpt lat="44.7315" lon="5.02563">
        <ele>290</ele>
        <time>2020-02-07T15:21:14.000Z</time>
      </trkpt>
      <trkpt lat="44.7315" lon="5.02563">
        <ele>290</ele>
        <time>2020-02-07T15:21:15.000Z</time>
      </trkpt>
      <trkpt lat="44.7315" lon="5.02563">
        <ele>290</ele>
        <time>2020-02-07T15:21:16.000Z</time>
      </trkpt>
      <trkpt lat="44.7315" lon="5.02563">
        <ele>290</ele>
        <time>2020-02-07T15:21:17.000Z</time>
      </trkpt>
      <trkpt lat="44.7315" lon="5.02563">
        <ele>290</ele>
        <time>2020-02-07T15:21:18.000Z</time>
      </trkpt>
      <trkpt lat="44.7315" lon="5.02563">
        <ele>290</ele>
        <time>2020-02-07T15:21:19.000Z</time>
      </trkpt>
      <trkpt lat="44.7315" lon="5.02563">
        <ele>290</ele>
        <time>2020-02-07T15:21:20.000Z</time>
      </trkpt>
      <trkpt lat="44.7315" lon="5.02563">
        <ele>290</ele>
        <time>2020-02-07T15:21:21.000Z</time>
      </trkpt>
      <trkpt lat="44.7315" lon="5.02564">
        <ele>290</ele>
        <time>2020-02-07T15:21:22.000Z</time>
      </trkpt>
      <trkpt lat="44.7315" lon="5.02563">
        <ele>290</ele>
        <time>2020-02-07T15:21:23.000Z</time>
      </trkpt>
      <trkpt lat="44.7315" lon="5.02563">
        <ele>290</ele>
        <time>2020-02-07T15:21:24.000Z</time>
      </trkpt>
      <trkpt lat="44.7315" lon="5.02563">
        <ele>290</ele>
        <time>2020-02-07T15:21:25.000Z</time>
      </trkpt>
      <trkpt lat="44.7315" lon="5.02563">
        <ele>290</ele>
        <time>2020-02-07T15:21:26.000Z</time>
      </trkpt>
      <trkpt lat="44.7315" lon="5.02564">
        <ele>290</ele>
        <time>2020-02-07T15:21:27.000Z</time>
      </trkpt>
      <trkpt lat="44.7315" lon="5.02564">
        <ele>290</ele>
        <time>2020-02-07T15:21:28.000Z</time>
      </trkpt>
      <trkpt lat="44.7315" lon="5.02564">
        <ele>290</ele>
        <time>2020-02-07T15:21:29.000Z</time>
      </trkpt>
      <trkpt lat="44.7315" lon="5.02563">
        <ele>290</ele>
        <time>2020-02-07T15:21:30.000Z</time>
      </trkpt>
      <trkpt lat="44.7315" lon="5.02563">
        <ele>290</ele>
        <time>2020-02-07T15:21:31.000Z</time>
      </trkpt>
      <trkpt lat="44.7315" lon="5.02563">
        <ele>290</ele>
        <time>2020-02-07T15:21:32.000Z</time>
      </trkpt>
      <trkpt lat="44.7315" lon="5.02563">
        <ele>290</ele>
        <time>2020-02-07T15:21:33.000Z</time>
      </trkpt>
      <trkpt lat="44.7315" lon="5.02563">
        <ele>290</ele>
        <time>2020-02-07T15:21:34.000Z</time>
      </trkpt>
      <trkpt lat="44.7315" lon="5.02563">
        <ele>290</ele>
        <time>2020-02-07T15:21:35.000Z</time>
      </trkpt>
      <trkpt lat="44.7315" lon="5.02563">
        <ele>290</ele>
        <time>2020-02-07T15:21:36.000Z</time>
      </trkpt>
      <trkpt lat="44.7315" lon="5.02563">
        <ele>290</ele>
        <time>2020-02-07T15:21:37.000Z</time>
      </trkpt>
      <trkpt lat="44.7315" lon="5.02563">
        <ele>290</ele>
        <time>2020-02-07T15:21:38.000Z</time>
      </trkpt>
      <trkpt lat="44.7315" lon="5.02563">
        <ele>290</ele>
        <time>2020-02-07T15:21:39.000Z</time>
      </trkpt>
      <trkpt lat="44.7315" lon="5.02563">
        <ele>290</ele>
        <time>2020-02-07T15:21:40.000Z</time>
      </trkpt>
      <trkpt lat="44.7315" lon="5.02563">
        <ele>290</ele>
        <time>2020-02-07T15:21:41.000Z</time>
      </trkpt>
      <trkpt lat="44.7315" lon="5.02563">
        <ele>290</ele>
        <time>2020-02-07T15:21:42.000Z</time>
      </trkpt>
      <trkpt lat="44.7315" lon="5.02563">
        <ele>290</ele>
        <time>2020-02-07T15:21:43.000Z</time>
      </trkpt>
      <trkpt lat="44.7315" lon="5.02563">
        <ele>290</ele>
        <time>2020-02-07T15:21:44.000Z</time>
      </trkpt>
      <trkpt lat="44.7315" lon="5.02563">
        <ele>290</ele>
        <time>2020-02-07T15:21:45.000Z</time>
      </trkpt>
      <trkpt lat="44.7315" lon="5.02563">
        <ele>290</ele>
        <time>2020-02-07T15:21:46.000Z</time>
      </trkpt>
      <trkpt lat="44.7315" lon="5.02563">
        <ele>290</ele>
        <time>2020-02-07T15:21:47.000Z</time>
      </trkpt>
      <trkpt lat="44.7315" lon="5.02563">
        <ele>290</ele>
        <time>2020-02-07T15:21:48.000Z</time>
      </trkpt>
      <trkpt lat="44.7315" lon="5.02563">
        <ele>290</ele>
        <time>2020-02-07T15:21:49.000Z</time>
      </trkpt>
      <trkpt lat="44.7315" lon="5.02563">
        <ele>290</ele>
        <time>2020-02-07T15:21:50.000Z</time>
      </trkpt>
      <trkpt lat="44.7315" lon="5.02563">
        <ele>290</ele>
        <time>2020-02-07T15:21:51.000Z</time>
      </trkpt>
      <trkpt lat="44.7315" lon="5.02562">
        <ele>289</ele>
        <time>2020-02-07T15:21:52.000Z</time>
      </trkpt>
      <trkpt lat="44.7315" lon="5.02563">
        <ele>289</ele>
        <time>2020-02-07T15:21:53.000Z</time>
      </trkpt>
      <trkpt lat="44.7315" lon="5.02563">
        <ele>290</ele>
        <time>2020-02-07T15:21:54.000Z</time>
      </trkpt>
      <trkpt lat="44.7315" lon="5.02563">
        <ele>290</ele>
        <time>2020-02-07T15:21:55.000Z</time>
      </trkpt>
      <trkpt lat="44.7315" lon="5.02563">
        <ele>290</ele>
        <time>2020-02-07T15:21:56.000Z</time>
      </trkpt>
      <trkpt lat="44.7315" lon="5.02563">
        <ele>290</ele>
        <time>2020-02-07T15:21:57.000Z</time>
      </trkpt>
      <trkpt lat="44.73151" lon="5.02563">
        <ele>290</ele>
        <time>2020-02-07T15:21:58.000Z</time>
      </trkpt>
      <trkpt lat="44.7315" lon="5.02563">
        <ele>290</ele>
        <time>2020-02-07T15:21:59.000Z</time>
      </trkpt>
      <trkpt lat="44.7315" lon="5.02564">
        <ele>290</ele>
        <time>2020-02-07T15:22:00.000Z</time>
      </trkpt>
      <trkpt lat="44.73151" lon="5.02564">
        <ele>290</ele>
        <time>2020-02-07T15:22:01.000Z</time>
      </trkpt>
      <trkpt lat="44.73151" lon="5.02564">
        <ele>290</ele>
        <time>2020-02-07T15:22:02.000Z</time>
      </trkpt>
      <trkpt lat="44.73151" lon="5.02564">
        <ele>290</ele>
        <time>2020-02-07T15:22:03.000Z</time>
      </trkpt>
      <trkpt lat="44.73151" lon="5.02564">
        <ele>290</ele>
        <time>2020-02-07T15:22:04.000Z</time>
      </trkpt>
      <trkpt lat="44.73151" lon="5.02564">
        <ele>290</ele>
        <time>2020-02-07T15:22:05.000Z</time>
      </trkpt>
      <trkpt lat="44.73151" lon="5.02564">
        <ele>290</ele>
        <time>2020-02-07T15:22:06.000Z</time>
      </trkpt>
      <trkpt lat="44.73151" lon="5.02564">
        <ele>290</ele>
        <time>2020-02-07T15:22:07.000Z</time>
      </trkpt>
      <trkpt lat="44.73151" lon="5.02564">
        <ele>290</ele>
        <time>2020-02-07T15:22:08.000Z</time>
      </trkpt>
      <trkpt lat="44.73151" lon="5.02564">
        <ele>290</ele>
        <time>2020-02-07T15:22:09.000Z</time>
      </trkpt>
      <trkpt lat="44.73151" lon="5.02564">
        <ele>290</ele>
        <time>2020-02-07T15:22:10.000Z</time>
      </trkpt>
      <trkpt lat="44.7315" lon="5.02564">
        <ele>291</ele>
        <time>2020-02-07T15:22:11.000Z</time>
      </trkpt>
      <trkpt lat="44.7315" lon="5.02565">
        <ele>291</ele>
        <time>2020-02-07T15:22:12.000Z</time>
      </trkpt>
      <trkpt lat="44.7315" lon="5.02565">
        <ele>291</ele>
        <time>2020-02-07T15:22:13.000Z</time>
      </trkpt>
      <trkpt lat="44.7315" lon="5.02565">
        <ele>291</ele>
        <time>2020-02-07T15:22:14.000Z</time>
      </trkpt>
      <trkpt lat="44.7315" lon="5.02565">
        <ele>291</ele>
        <time>2020-02-07T15:22:15.000Z</time>
      </trkpt>
      <trkpt lat="44.7315" lon="5.02565">
        <ele>291</ele>
        <time>2020-02-07T15:22:16.000Z</time>
      </trkpt>
      <trkpt lat="44.7315" lon="5.02564">
        <ele>291</ele>
        <time>2020-02-07T15:22:17.000Z</time>
      </trkpt>
      <trkpt lat="44.7315" lon="5.02564">
        <ele>291</ele>
        <time>2020-02-07T15:22:18.000Z</time>
      </trkpt>
      <trkpt lat="44.7315" lon="5.02564">
        <ele>291</ele>
        <time>2020-02-07T15:22:19.000Z</time>
      </trkpt>
      <trkpt lat="44.73151" lon="5.02564">
        <ele>291</ele>
        <time>2020-02-07T15:22:20.000Z</time>
      </trkpt>
      <trkpt lat="44.73151" lon="5.02565">
        <ele>291</ele>
        <time>2020-02-07T15:22:21.000Z</time>
      </trkpt>
      <trkpt lat="44.73151" lon="5.02565">
        <ele>291</ele>
        <time>2020-02-07T15:22:22.000Z</time>
      </trkpt>
      <trkpt lat="44.73151" lon="5.02565">
        <ele>291</ele>
        <time>2020-02-07T15:22:23.000Z</time>
      </trkpt>
      <trkpt lat="44.73151" lon="5.02565">
        <ele>291</ele>
        <time>2020-02-07T15:22:24.000Z</time>
      </trkpt>
      <trkpt lat="44.73151" lon="5.02565">
        <ele>291</ele>
        <time>2020-02-07T15:22:25.000Z</time>
      </trkpt>
      <trkpt lat="44.73151" lon="5.02565">
        <ele>291</ele>
        <time>2020-02-07T15:22:26.000Z</time>
      </trkpt>
      <trkpt lat="44.73151" lon="5.02565">
        <ele>291</ele>
        <time>2020-02-07T15:22:27.000Z</time>
      </trkpt>
      <trkpt lat="44.73151" lon="5.02565">
        <ele>291</ele>
        <time>2020-02-07T15:22:28.000Z</time>
      </trkpt>
      <trkpt lat="44.73151" lon="5.02565">
        <ele>291</ele>
        <time>2020-02-07T15:22:29.000Z</time>
      </trkpt>
      <trkpt lat="44.73151" lon="5.02565">
        <ele>291</ele>
        <time>2020-02-07T15:22:30.000Z</time>
      </trkpt>
      <trkpt lat="44.73151" lon="5.02565">
        <ele>291</ele>
        <time>2020-02-07T15:22:31.000Z</time>
      </trkpt>
      <trkpt lat="44.73151" lon="5.02565">
        <ele>291</ele>
        <time>2020-02-07T15:22:32.000Z</time>
      </trkpt>
      <trkpt lat="44.73151" lon="5.02565">
        <ele>291</ele>
        <time>2020-02-07T15:22:33.000Z</time>
      </trkpt>
      <trkpt lat="44.73151" lon="5.02565">
        <ele>291</ele>
        <time>2020-02-07T15:22:34.000Z</time>
      </trkpt>
      <trkpt lat="44.73151" lon="5.02565">
        <ele>291</ele>
        <time>2020-02-07T15:22:35.000Z</time>
      </trkpt>
      <trkpt lat="44.73151" lon="5.02565">
        <ele>291</ele>
        <time>2020-02-07T15:22:36.000Z</time>
      </trkpt>
      <trkpt lat="44.73151" lon="5.02564">
        <ele>291</ele>
        <time>2020-02-07T15:22:37.000Z</time>
      </trkpt>
      <trkpt lat="44.73151" lon="5.02565">
        <ele>291</ele>
        <time>2020-02-07T15:22:38.000Z</time>
      </trkpt>
      <trkpt lat="44.73151" lon="5.02565">
        <ele>291</ele>
        <time>2020-02-07T15:22:39.000Z</time>
      </trkpt>
      <trkpt lat="44.73151" lon="5.02566">
        <ele>291</ele>
        <time>2020-02-07T15:22:40.000Z</time>
      </trkpt>
      <trkpt lat="44.73151" lon="5.02566">
        <ele>291</ele>
        <time>2020-02-07T15:22:41.000Z</time>
      </trkpt>
      <trkpt lat="44.73151" lon="5.02566">
        <ele>291</ele>
        <time>2020-02-07T15:22:42.000Z</time>
      </trkpt>
      <trkpt lat="44.73151" lon="5.02566">
        <ele>291</ele>
        <time>2020-02-07T15:22:43.000Z</time>
      </trkpt>
      <trkpt lat="44.73151" lon="5.02566">
        <ele>291</ele>
        <time>2020-02-07T15:22:44.000Z</time>
      </trkpt>
      <trkpt lat="44.73151" lon="5.02566">
        <ele>291</ele>
        <time>2020-02-07T15:22:45.000Z</time>
      </trkpt>
      <trkpt lat="44.73151" lon="5.02566">
        <ele>291</ele>
        <time>2020-02-07T15:22:46.000Z</time>
      </trkpt>
      <trkpt lat="44.73151" lon="5.02565">
        <ele>291</ele>
        <time>2020-02-07T15:22:47.000Z</time>
      </trkpt>
      <trkpt lat="44.73152" lon="5.02565">
        <ele>291</ele>
        <time>2020-02-07T15:22:48.000Z</time>
      </trkpt>
      <trkpt lat="44.73152" lon="5.02564">
        <ele>291</ele>
        <time>2020-02-07T15:22:49.000Z</time>
      </trkpt>
      <trkpt lat="44.73152" lon="5.02564">
        <ele>291</ele>
        <time>2020-02-07T15:22:50.000Z</time>
      </trkpt>
      <trkpt lat="44.73152" lon="5.02564">
        <ele>291</ele>
        <time>2020-02-07T15:22:51.000Z</time>
      </trkpt>
      <trkpt lat="44.73152" lon="5.02564">
        <ele>291</ele>
        <time>2020-02-07T15:22:52.000Z</time>
      </trkpt>
      <trkpt lat="44.73152" lon="5.02564">
        <ele>291</ele>
        <time>2020-02-07T15:22:53.000Z</time>
      </trkpt>
      <trkpt lat="44.73152" lon="5.02564">
        <ele>291</ele>
        <time>2020-02-07T15:22:54.000Z</time>
      </trkpt>
      <trkpt lat="44.73152" lon="5.02564">
        <ele>291</ele>
        <time>2020-02-07T15:22:55.000Z</time>
      </trkpt>
      <trkpt lat="44.73152" lon="5.02564">
        <ele>291</ele>
        <time>2020-02-07T15:22:56.000Z</time>
      </trkpt>
      <trkpt lat="44.73152" lon="5.02564">
        <ele>291</ele>
        <time>2020-02-07T15:22:57.000Z</time>
      </trkpt>
      <trkpt lat="44.73152" lon="5.02564">
        <ele>291</ele>
        <time>2020-02-07T15:22:58.000Z</time>
      </trkpt>
      <trkpt lat="44.73152" lon="5.02564">
        <ele>291</ele>
        <time>2020-02-07T15:22:59.000Z</time>
      </trkpt>
      <trkpt lat="44.73152" lon="5.02564">
        <ele>291</ele>
        <time>2020-02-07T15:23:00.000Z</time>
      </trkpt>
      <trkpt lat="44.73152" lon="5.02564">
        <ele>291</ele>
        <time>2020-02-07T15:23:01.000Z</time>
      </trkpt>
      <trkpt lat="44.73152" lon="5.02564">
        <ele>291</ele>
        <time>2020-02-07T15:23:02.000Z</time>
      </trkpt>
      <trkpt lat="44.73152" lon="5.02564">
        <ele>291</ele>
        <time>2020-02-07T15:23:03.000Z</time>
      </trkpt>
      <trkpt lat="44.73152" lon="5.02564">
        <ele>291</ele>
        <time>2020-02-07T15:23:04.000Z</time>
      </trkpt>
      <trkpt lat="44.73152" lon="5.02564">
        <ele>291</ele>
        <time>2020-02-07T15:23:05.000Z</time>
      </trkpt>
      <trkpt lat="44.73152" lon="5.02564">
        <ele>291</ele>
        <time>2020-02-07T15:23:06.000Z</time>
      </trkpt>
      <trkpt lat="44.73152" lon="5.02564">
        <ele>291</ele>
        <time>2020-02-07T15:23:07.000Z</time>
      </trkpt>
      <trkpt lat="44.73152" lon="5.02564">
        <ele>291</ele>
        <time>2020-02-07T15:23:08.000Z</time>
      </trkpt>
      <trkpt lat="44.73152" lon="5.02564">
        <ele>291</ele>
        <time>2020-02-07T15:23:09.000Z</time>
      </trkpt>
      <trkpt lat="44.73152" lon="5.02565">
        <ele>291</ele>
        <time>2020-02-07T15:23:10.000Z</time>
      </trkpt>
      <trkpt lat="44.73151" lon="5.02565">
        <ele>291</ele>
        <time>2020-02-07T15:23:11.000Z</time>
      </trkpt>
      <trkpt lat="44.73151" lon="5.02565">
        <ele>291</ele>
        <time>2020-02-07T15:23:12.000Z</time>
      </trkpt>
      <trkpt lat="44.73152" lon="5.02565">
        <ele>291</ele>
        <time>2020-02-07T15:23:13.000Z</time>
      </trkpt>
      <trkpt lat="44.73152" lon="5.02565">
        <ele>291</ele>
        <time>2020-02-07T15:23:14.000Z</time>
      </trkpt>
      <trkpt lat="44.73152" lon="5.02565">
        <ele>291</ele>
        <time>2020-02-07T15:23:15.000Z</time>
      </trkpt>
      <trkpt lat="44.73151" lon="5.02565">
        <ele>291</ele>
        <time>2020-02-07T15:23:16.000Z</time>
      </trkpt>
      <trkpt lat="44.73151" lon="5.02565">
        <ele>291</ele>
        <time>2020-02-07T15:23:17.000Z</time>
      </trkpt>
      <trkpt lat="44.73151" lon="5.02565">
        <ele>292</ele>
        <time>2020-02-07T15:23:18.000Z</time>
      </trkpt>
      <trkpt lat="44.73151" lon="5.02564">
        <ele>292</ele>
        <time>2020-02-07T15:23:19.000Z</time>
      </trkpt>
      <trkpt lat="44.73151" lon="5.02564">
        <ele>292</ele>
        <time>2020-02-07T15:23:20.000Z</time>
      </trkpt>
      <trkpt lat="44.73151" lon="5.02564">
        <ele>292</ele>
        <time>2020-02-07T15:23:21.000Z</time>
      </trkpt>
      <trkpt lat="44.73151" lon="5.02564">
        <ele>292</ele>
        <time>2020-02-07T15:23:22.000Z</time>
      </trkpt>
      <trkpt lat="44.73151" lon="5.02564">
        <ele>292</ele>
        <time>2020-02-07T15:23:23.000Z</time>
      </trkpt>
      <trkpt lat="44.73151" lon="5.02564">
        <ele>292</ele>
        <time>2020-02-07T15:23:24.000Z</time>
      </trkpt>
      <trkpt lat="44.7315" lon="5.02564">
        <ele>292</ele>
        <time>2020-02-07T15:23:25.000Z</time>
      </trkpt>
      <trkpt lat="44.7315" lon="5.02564">
        <ele>292</ele>
        <time>2020-02-07T15:23:26.000Z</time>
      </trkpt>
      <trkpt lat="44.7315" lon="5.02564">
        <ele>292</ele>
        <time>2020-02-07T15:23:27.000Z</time>
      </trkpt>
      <trkpt lat="44.7315" lon="5.02564">
        <ele>292</ele>
        <time>2020-02-07T15:23:28.000Z</time>
      </trkpt>
      <trkpt lat="44.7315" lon="5.02563">
        <ele>292</ele>
        <time>2020-02-07T15:23:29.000Z</time>
      </trkpt>
      <trkpt lat="44.73151" lon="5.02563">
        <ele>291</ele>
        <time>2020-02-07T15:23:30.000Z</time>
      </trkpt>
      <trkpt lat="44.73151" lon="5.02563">
        <ele>291</ele>
        <time>2020-02-07T15:23:31.000Z</time>
      </trkpt>
      <trkpt lat="44.73151" lon="5.02563">
        <ele>291</ele>
        <time>2020-02-07T15:23:32.000Z</time>
      </trkpt>
      <trkpt lat="44.73151" lon="5.02563">
        <ele>291</ele>
        <time>2020-02-07T15:23:33.000Z</time>
      </trkpt>
      <trkpt lat="44.73151" lon="5.02562">
        <ele>291</ele>
        <time>2020-02-07T15:23:34.000Z</time>
      </trkpt>
      <trkpt lat="44.73151" lon="5.02562">
        <ele>291</ele>
        <time>2020-02-07T15:23:35.000Z</time>
      </trkpt>
      <trkpt lat="44.73151" lon="5.02562">
        <ele>291</ele>
        <time>2020-02-07T15:23:36.000Z</time>
      </trkpt>
      <trkpt lat="44.73151" lon="5.02562">
        <ele>291</ele>
        <time>2020-02-07T15:23:37.000Z</time>
      </trkpt>
      <trkpt lat="44.73151" lon="5.02562">
        <ele>291</ele>
        <time>2020-02-07T15:23:38.000Z</time>
      </trkpt>
      <trkpt lat="44.73151" lon="5.02562">
        <ele>291</ele>
        <time>2020-02-07T15:23:39.000Z</time>
      </trkpt>
      <trkpt lat="44.73151" lon="5.02561">
        <ele>291</ele>
        <time>2020-02-07T15:23:40.000Z</time>
      </trkpt>
      <trkpt lat="44.73151" lon="5.02561">
        <ele>291</ele>
        <time>2020-02-07T15:23:41.000Z</time>
      </trkpt>
      <trkpt lat="44.73151" lon="5.02561">
        <ele>291</ele>
        <time>2020-02-07T15:23:42.000Z</time>
      </trkpt>
      <trkpt lat="44.73151" lon="5.02561">
        <ele>291</ele>
        <time>2020-02-07T15:23:43.000Z</time>
      </trkpt>
      <trkpt lat="44.73151" lon="5.02561">
        <ele>291</ele>
        <time>2020-02-07T15:23:44.000Z</time>
      </trkpt>
      <trkpt lat="44.73151" lon="5.02561">
        <ele>291</ele>
        <time>2020-02-07T15:23:45.000Z</time>
      </trkpt>
      <trkpt lat="44.73151" lon="5.02561">
        <ele>291</ele>
        <time>2020-02-07T15:23:46.000Z</time>
      </trkpt>
      <trkpt lat="44.73151" lon="5.0256">
        <ele>291</ele>
        <time>2020-02-07T15:23:47.000Z</time>
      </trkpt>
      <trkpt lat="44.73151" lon="5.0256">
        <ele>291</ele>
        <time>2020-02-07T15:23:48.000Z</time>
      </trkpt>
      <trkpt lat="44.73151" lon="5.0256">
        <ele>291</ele>
        <time>2020-02-07T15:23:49.000Z</time>
      </trkpt>
      <trkpt lat="44.73151" lon="5.0256">
        <ele>291</ele>
        <time>2020-02-07T15:23:50.000Z</time>
      </trkpt>
      <trkpt lat="44.73151" lon="5.0256">
        <ele>291</ele>
        <time>2020-02-07T15:23:51.000Z</time>
      </trkpt>
      <trkpt lat="44.73151" lon="5.0256">
        <ele>291</ele>
        <time>2020-02-07T15:23:52.000Z</time>
      </trkpt>
      <trkpt lat="44.73151" lon="5.0256">
        <ele>291</ele>
        <time>2020-02-07T15:23:53.000Z</time>
      </trkpt>
      <trkpt lat="44.73151" lon="5.0256">
        <ele>291</ele>
        <time>2020-02-07T15:23:54.000Z</time>
      </trkpt>
      <trkpt lat="44.73151" lon="5.0256">
        <ele>291</ele>
        <time>2020-02-07T15:23:55.000Z</time>
      </trkpt>
      <trkpt lat="44.73151" lon="5.0256">
        <ele>291</ele>
        <time>2020-02-07T15:23:56.000Z</time>
      </trkpt>
      <trkpt lat="44.73151" lon="5.0256">
        <ele>291</ele>
        <time>2020-02-07T15:23:57.000Z</time>
      </trkpt>
      <trkpt lat="44.73151" lon="5.0256">
        <ele>291</ele>
        <time>2020-02-07T15:23:58.000Z</time>
      </trkpt>
      <trkpt lat="44.73151" lon="5.0256">
        <ele>291</ele>
        <time>2020-02-07T15:23:59.000Z</time>
      </trkpt>
      <trkpt lat="44.73151" lon="5.0256">
        <ele>291</ele>
        <time>2020-02-07T15:24:00.000Z</time>
      </trkpt>
      <trkpt lat="44.73151" lon="5.0256">
        <ele>291</ele>
        <time>2020-02-07T15:24:01.000Z</time>
      </trkpt>
      <trkpt lat="44.73151" lon="5.0256">
        <ele>291</ele>
        <time>2020-02-07T15:24:02.000Z</time>
      </trkpt>
      <trkpt lat="44.73151" lon="5.0256">
        <ele>291</ele>
        <time>2020-02-07T15:24:03.000Z</time>
      </trkpt>
      <trkpt lat="44.73151" lon="5.0256">
        <ele>291</ele>
        <time>2020-02-07T15:24:04.000Z</time>
      </trkpt>
      <trkpt lat="44.73151" lon="5.0256">
        <ele>291</ele>
        <time>2020-02-07T15:24:05.000Z</time>
      </trkpt>
      <trkpt lat="44.73151" lon="5.0256">
        <ele>291</ele>
        <time>2020-02-07T15:24:06.000Z</time>
      </trkpt>
      <trkpt lat="44.73151" lon="5.0256">
        <ele>291</ele>
        <time>2020-02-07T15:24:07.000Z</time>
      </trkpt>
      <trkpt lat="44.73151" lon="5.02561">
        <ele>291</ele>
        <time>2020-02-07T15:24:08.000Z</time>
      </trkpt>
      <trkpt lat="44.73152" lon="5.02561">
        <ele>291</ele>
        <time>2020-02-07T15:24:09.000Z</time>
      </trkpt>
      <trkpt lat="44.73152" lon="5.02561">
        <ele>291</ele>
        <time>2020-02-07T15:24:10.000Z</time>
      </trkpt>
      <trkpt lat="44.73152" lon="5.02562">
        <ele>291</ele>
        <time>2020-02-07T15:24:11.000Z</time>
      </trkpt>
      <trkpt lat="44.73152" lon="5.02562">
        <ele>291</ele>
        <time>2020-02-07T15:24:12.000Z</time>
      </trkpt>
      <trkpt lat="44.73152" lon="5.02562">
        <ele>291</ele>
        <time>2020-02-07T15:24:13.000Z</time>
      </trkpt>
      <trkpt lat="44.73152" lon="5.02562">
        <ele>291</ele>
        <time>2020-02-07T15:24:14.000Z</time>
      </trkpt>
      <trkpt lat="44.73152" lon="5.02562">
        <ele>291</ele>
        <time>2020-02-07T15:24:15.000Z</time>
      </trkpt>
      <trkpt lat="44.73152" lon="5.02563">
        <ele>291</ele>
        <time>2020-02-07T15:24:16.000Z</time>
      </trkpt>
      <trkpt lat="44.73152" lon="5.02562">
        <ele>291</ele>
        <time>2020-02-07T15:24:17.000Z</time>
      </trkpt>
      <trkpt lat="44.73152" lon="5.02563">
        <ele>291</ele>
        <time>2020-02-07T15:24:18.000Z</time>
      </trkpt>
      <trkpt lat="44.73152" lon="5.02563">
        <ele>291</ele>
        <time>2020-02-07T15:24:19.000Z</time>
      </trkpt>
      <trkpt lat="44.73152" lon="5.02563">
        <ele>291</ele>
        <time>2020-02-07T15:24:20.000Z</time>
      </trkpt>
      <trkpt lat="44.73152" lon="5.02563">
        <ele>291</ele>
        <time>2020-02-07T15:24:21.000Z</time>
      </trkpt>
      <trkpt lat="44.73152" lon="5.02562">
        <ele>291</ele>
        <time>2020-02-07T15:24:22.000Z</time>
      </trkpt>
      <trkpt lat="44.73151" lon="5.02561">
        <ele>290</ele>
        <time>2020-02-07T15:24:23.000Z</time>
      </trkpt>
      <trkpt lat="44.73151" lon="5.0256">
        <ele>290</ele>
        <time>2020-02-07T15:24:24.000Z</time>
      </trkpt>
      <trkpt lat="44.73151" lon="5.02559">
        <ele>290</ele>
        <time>2020-02-07T15:24:25.000Z</time>
      </trkpt>
      <trkpt lat="44.7315" lon="5.02558">
        <ele>290</ele>
        <time>2020-02-07T15:24:26.000Z</time>
      </trkpt>
      <trkpt lat="44.73149" lon="5.02557">
        <ele>290</ele>
        <time>2020-02-07T15:24:27.000Z</time>
      </trkpt>
      <trkpt lat="44.73148" lon="5.02556">
        <ele>290</ele>
        <time>2020-02-07T15:24:28.000Z</time>
      </trkpt>
      <trkpt lat="44.73147" lon="5.02555">
        <ele>290</ele>
        <time>2020-02-07T15:24:29.000Z</time>
      </trkpt>
      <trkpt lat="44.73146" lon="5.02554">
        <ele>290</ele>
        <time>2020-02-07T15:24:30.000Z</time>
      </trkpt>
      <trkpt lat="44.73145" lon="5.02553">
        <ele>290</ele>
        <time>2020-02-07T15:24:31.000Z</time>
      </trkpt>
      <trkpt lat="44.73144" lon="5.02553">
        <ele>290</ele>
        <time>2020-02-07T15:24:32.000Z</time>
      </trkpt>
      <trkpt lat="44.73143" lon="5.02552">
        <ele>290</ele>
        <time>2020-02-07T15:24:33.000Z</time>
      </trkpt>
      <trkpt lat="44.73142" lon="5.02552">
        <ele>290</ele>
        <time>2020-02-07T15:24:34.000Z</time>
      </trkpt>
      <trkpt lat="44.73141" lon="5.02552">
        <ele>289</ele>
        <time>2020-02-07T15:24:35.000Z</time>
      </trkpt>
      <trkpt lat="44.7314" lon="5.02551">
        <ele>289</ele>
        <time>2020-02-07T15:24:36.000Z</time>
      </trkpt>
      <trkpt lat="44.7314" lon="5.02551">
        <ele>289</ele>
        <time>2020-02-07T15:24:37.000Z</time>
      </trkpt>
      <trkpt lat="44.7314" lon="5.02551">
        <ele>289</ele>
        <time>2020-02-07T15:24:38.000Z</time>
      </trkpt>
      <trkpt lat="44.7314" lon="5.02551">
        <ele>289</ele>
        <time>2020-02-07T15:24:39.000Z</time>
      </trkpt>
      <trkpt lat="44.7314" lon="5.02551">
        <ele>289</ele>
        <time>2020-02-07T15:24:40.000Z</time>
      </trkpt>
      <trkpt lat="44.7314" lon="5.02551">
        <ele>289</ele>
        <time>2020-02-07T15:24:41.000Z</time>
      </trkpt>
      <trkpt lat="44.73139" lon="5.02551">
        <ele>289</ele>
        <time>2020-02-07T15:24:42.000Z</time>
      </trkpt>
      <trkpt lat="44.73139" lon="5.0255">
        <ele>289</ele>
        <time>2020-02-07T15:24:43.000Z</time>
      </trkpt>
      <trkpt lat="44.73139" lon="5.0255">
        <ele>289</ele>
        <time>2020-02-07T15:24:44.000Z</time>
      </trkpt>
      <trkpt lat="44.73139" lon="5.0255">
        <ele>289</ele>
        <time>2020-02-07T15:24:45.000Z</time>
      </trkpt>
      <trkpt lat="44.73139" lon="5.0255">
        <ele>289</ele>
        <time>2020-02-07T15:24:46.000Z</time>
      </trkpt>
      <trkpt lat="44.73139" lon="5.0255">
        <ele>289</ele>
        <time>2020-02-07T15:24:47.000Z</time>
      </trkpt>
      <trkpt lat="44.73139" lon="5.0255">
        <ele>289</ele>
        <time>2020-02-07T15:24:48.000Z</time>
      </trkpt>
      <trkpt lat="44.73139" lon="5.0255">
        <ele>289</ele>
        <time>2020-02-07T15:24:49.000Z</time>
      </trkpt>
      <trkpt lat="44.73139" lon="5.0255">
        <ele>289</ele>
        <time>2020-02-07T15:24:50.000Z</time>
      </trkpt>
      <trkpt lat="44.73139" lon="5.0255">
        <ele>289</ele>
        <time>2020-02-07T15:24:51.000Z</time>
      </trkpt>
      <trkpt lat="44.73139" lon="5.0255">
        <ele>289</ele>
        <time>2020-02-07T15:24:52.000Z</time>
      </trkpt>
      <trkpt lat="44.73139" lon="5.0255">
        <ele>289</ele>
        <time>2020-02-07T15:24:53.000Z</time>
      </trkpt>
      <trkpt lat="44.73139" lon="5.0255">
        <ele>289</ele>
        <time>2020-02-07T15:24:54.000Z</time>
      </trkpt>
      <trkpt lat="44.73139" lon="5.0255">
        <ele>289</ele>
        <time>2020-02-07T15:24:55.000Z</time>
      </trkpt>
      <trkpt lat="44.73139" lon="5.0255">
        <ele>289</ele>
        <time>2020-02-07T15:24:56.000Z</time>
      </trkpt>
      <trkpt lat="44.73139" lon="5.0255">
        <ele>289</ele>
        <time>2020-02-07T15:24:57.000Z</time>
      </trkpt>
      <trkpt lat="44.73139" lon="5.0255">
        <ele>289</ele>
        <time>2020-02-07T15:24:58.000Z</time>
      </trkpt>
      <trkpt lat="44.73139" lon="5.0255">
        <ele>289</ele>
        <time>2020-02-07T15:24:59.000Z</time>
      </trkpt>
      <trkpt lat="44.73139" lon="5.0255">
        <ele>289</ele>
        <time>2020-02-07T15:25:00.000Z</time>
      </trkpt>
      <trkpt lat="44.73139" lon="5.0255">
        <ele>289</ele>
        <time>2020-02-07T15:25:01.000Z</time>
      </trkpt>
      <trkpt lat="44.73139" lon="5.0255">
        <ele>289</ele>
        <time>2020-02-07T15:25:02.000Z</time>
      </trkpt>
      <trkpt lat="44.73139" lon="5.0255">
        <ele>289</ele>
        <time>2020-02-07T15:25:03.000Z</time>
      </trkpt>
      <trkpt lat="44.73139" lon="5.0255">
        <ele>289</ele>
        <time>2020-02-07T15:25:04.000Z</time>
      </trkpt>
      <trkpt lat="44.73139" lon="5.0255">
        <ele>289</ele>
        <time>2020-02-07T15:25:05.000Z</time>
      </trkpt>
      <trkpt lat="44.73139" lon="5.0255">
        <ele>289</ele>
        <time>2020-02-07T15:25:06.000Z</time>
      </trkpt>
      <trkpt lat="44.73139" lon="5.0255">
        <ele>289</ele>
        <time>2020-02-07T15:25:07.000Z</time>
      </trkpt>
      <trkpt lat="44.7314" lon="5.0255">
        <ele>289</ele>
        <time>2020-02-07T15:25:08.000Z</time>
      </trkpt>
      <trkpt lat="44.7314" lon="5.0255">
        <ele>289</ele>
        <time>2020-02-07T15:25:09.000Z</time>
      </trkpt>
      <trkpt lat="44.73141" lon="5.0255">
        <ele>289</ele>
        <time>2020-02-07T15:25:10.000Z</time>
      </trkpt>
      <trkpt lat="44.73142" lon="5.02551">
        <ele>289</ele>
        <time>2020-02-07T15:25:11.000Z</time>
      </trkpt>
      <trkpt lat="44.73143" lon="5.02551">
        <ele>289</ele>
        <time>2020-02-07T15:25:12.000Z</time>
      </trkpt>
      <trkpt lat="44.73143" lon="5.02551">
        <ele>289</ele>
        <time>2020-02-07T15:25:13.000Z</time>
      </trkpt>
      <trkpt lat="44.73144" lon="5.02551">
        <ele>289</ele>
        <time>2020-02-07T15:25:14.000Z</time>
      </trkpt>
      <trkpt lat="44.73144" lon="5.02552">
        <ele>289</ele>
        <time>2020-02-07T15:25:15.000Z</time>
      </trkpt>
      <trkpt lat="44.73145" lon="5.02552">
        <ele>288</ele>
        <time>2020-02-07T15:25:16.000Z</time>
      </trkpt>
      <trkpt lat="44.73146" lon="5.02553">
        <ele>288</ele>
        <time>2020-02-07T15:25:17.000Z</time>
      </trkpt>
      <trkpt lat="44.73147" lon="5.02553">
        <ele>288</ele>
        <time>2020-02-07T15:25:18.000Z</time>
      </trkpt>
      <trkpt lat="44.73148" lon="5.02554">
        <ele>288</ele>
        <time>2020-02-07T15:25:19.000Z</time>
      </trkpt>
      <trkpt lat="44.73148" lon="5.02555">
        <ele>288</ele>
        <time>2020-02-07T15:25:20.000Z</time>
      </trkpt>
      <trkpt lat="44.73149" lon="5.02555">
        <ele>288</ele>
        <time>2020-02-07T15:25:21.000Z</time>
      </trkpt>
      <trkpt lat="44.73149" lon="5.02556">
        <ele>288</ele>
        <time>2020-02-07T15:25:22.000Z</time>
      </trkpt>
      <trkpt lat="44.7315" lon="5.02556">
        <ele>288</ele>
        <time>2020-02-07T15:25:23.000Z</time>
      </trkpt>
      <trkpt lat="44.7315" lon="5.02557">
        <ele>288</ele>
        <time>2020-02-07T15:25:24.000Z</time>
      </trkpt>
      <trkpt lat="44.7315" lon="5.02557">
        <ele>288</ele>
        <time>2020-02-07T15:25:25.000Z</time>
      </trkpt>
      <trkpt lat="44.7315" lon="5.02558">
        <ele>288</ele>
        <time>2020-02-07T15:25:26.000Z</time>
      </trkpt>
      <trkpt lat="44.7315" lon="5.02558">
        <ele>288</ele>
        <time>2020-02-07T15:25:27.000Z</time>
      </trkpt>
      <trkpt lat="44.7315" lon="5.02558">
        <ele>288</ele>
        <time>2020-02-07T15:25:28.000Z</time>
      </trkpt>
      <trkpt lat="44.7315" lon="5.02558">
        <ele>288</ele>
        <time>2020-02-07T15:25:29.000Z</time>
      </trkpt>
      <trkpt lat="44.7315" lon="5.02558">
        <ele>288</ele>
        <time>2020-02-07T15:25:30.000Z</time>
      </trkpt>
      <trkpt lat="44.7315" lon="5.02558">
        <ele>288</ele>
        <time>2020-02-07T15:25:31.000Z</time>
      </trkpt>
      <trkpt lat="44.7315" lon="5.02558">
        <ele>288</ele>
        <time>2020-02-07T15:25:32.000Z</time>
      </trkpt>
      <trkpt lat="44.7315" lon="5.02558">
        <ele>288</ele>
        <time>2020-02-07T15:25:33.000Z</time>
      </trkpt>
      <trkpt lat="44.7315" lon="5.02558">
        <ele>288</ele>
        <time>2020-02-07T15:25:34.000Z</time>
      </trkpt>
      <trkpt lat="44.7315" lon="5.02558">
        <ele>288</ele>
        <time>2020-02-07T15:25:35.000Z</time>
      </trkpt>
      <trkpt lat="44.73151" lon="5.02558">
        <ele>288</ele>
        <time>2020-02-07T15:25:36.000Z</time>
      </trkpt>
      <trkpt lat="44.7315" lon="5.02558">
        <ele>288</ele>
        <time>2020-02-07T15:25:37.000Z</time>
      </trkpt>
      <trkpt lat="44.7315" lon="5.02558">
        <ele>288</ele>
        <time>2020-02-07T15:25:38.000Z</time>
      </trkpt>
      <trkpt lat="44.73151" lon="5.02558">
        <ele>288</ele>
        <time>2020-02-07T15:25:39.000Z</time>
      </trkpt>
      <trkpt lat="44.73151" lon="5.02558">
        <ele>288</ele>
        <time>2020-02-07T15:25:40.000Z</time>
      </trkpt>
      <trkpt lat="44.73151" lon="5.02558">
        <ele>288</ele>
        <time>2020-02-07T15:25:41.000Z</time>
      </trkpt>
      <trkpt lat="44.73152" lon="5.02557">
        <ele>288</ele>
        <time>2020-02-07T15:25:42.000Z</time>
      </trkpt>
      <trkpt lat="44.73152" lon="5.02558">
        <ele>288</ele>
        <time>2020-02-07T15:25:43.000Z</time>
      </trkpt>
      <trkpt lat="44.73152" lon="5.02558">
        <ele>288</ele>
        <time>2020-02-07T15:25:44.000Z</time>
      </trkpt>
      <trkpt lat="44.73152" lon="5.02558">
        <ele>288</ele>
        <time>2020-02-07T15:25:45.000Z</time>
      </trkpt>
      <trkpt lat="44.73151" lon="5.02558">
        <ele>288</ele>
        <time>2020-02-07T15:25:46.000Z</time>
      </trkpt>
      <trkpt lat="44.73151" lon="5.02558">
        <ele>288</ele>
        <time>2020-02-07T15:25:47.000Z</time>
      </trkpt>
      <trkpt lat="44.73151" lon="5.02558">
        <ele>288</ele>
        <time>2020-02-07T15:25:48.000Z</time>
      </trkpt>
      <trkpt lat="44.73151" lon="5.02558">
        <ele>288</ele>
        <time>2020-02-07T15:25:49.000Z</time>
      </trkpt>
      <trkpt lat="44.73152" lon="5.02558">
        <ele>288</ele>
        <time>2020-02-07T15:25:50.000Z</time>
      </trkpt>
      <trkpt lat="44.73152" lon="5.02558">
        <ele>288</ele>
        <time>2020-02-07T15:25:51.000Z</time>
      </trkpt>
      <trkpt lat="44.73152" lon="5.02558">
        <ele>288</ele>
        <time>2020-02-07T15:25:52.000Z</time>
      </trkpt>
      <trkpt lat="44.73152" lon="5.02558">
        <ele>288</ele>
        <time>2020-02-07T15:25:53.000Z</time>
      </trkpt>
      <trkpt lat="44.73152" lon="5.02558">
        <ele>289</ele>
        <time>2020-02-07T15:25:54.000Z</time>
      </trkpt>
      <trkpt lat="44.73152" lon="5.02558">
        <ele>289</ele>
        <time>2020-02-07T15:25:55.000Z</time>
      </trkpt>
      <trkpt lat="44.73152" lon="5.02558">
        <ele>289</ele>
        <time>2020-02-07T15:25:56.000Z</time>
      </trkpt>
      <trkpt lat="44.73152" lon="5.02558">
        <ele>289</ele>
        <time>2020-02-07T15:25:57.000Z</time>
      </trkpt>
      <trkpt lat="44.73152" lon="5.02558">
        <ele>289</ele>
        <time>2020-02-07T15:25:58.000Z</time>
      </trkpt>
      <trkpt lat="44.73152" lon="5.02558">
        <ele>289</ele>
        <time>2020-02-07T15:25:59.000Z</time>
      </trkpt>
      <trkpt lat="44.73152" lon="5.02559">
        <ele>289</ele>
        <time>2020-02-07T15:26:00.000Z</time>
      </trkpt>
      <trkpt lat="44.73152" lon="5.02559">
        <ele>289</ele>
        <time>2020-02-07T15:26:01.000Z</time>
      </trkpt>
      <trkpt lat="44.73152" lon="5.02559">
        <ele>289</ele>
        <time>2020-02-07T15:26:02.000Z</time>
      </trkpt>
      <trkpt lat="44.73152" lon="5.02559">
        <ele>289</ele>
        <time>2020-02-07T15:26:03.000Z</time>
      </trkpt>
      <trkpt lat="44.73152" lon="5.02559">
        <ele>289</ele>
        <time>2020-02-07T15:26:04.000Z</time>
      </trkpt>
      <trkpt lat="44.73152" lon="5.02559">
        <ele>289</ele>
        <time>2020-02-07T15:26:05.000Z</time>
      </trkpt>
      <trkpt lat="44.73152" lon="5.0256">
        <ele>289</ele>
        <time>2020-02-07T15:26:06.000Z</time>
      </trkpt>
      <trkpt lat="44.73152" lon="5.0256">
        <ele>289</ele>
        <time>2020-02-07T15:26:07.000Z</time>
      </trkpt>
      <trkpt lat="44.73152" lon="5.02559">
        <ele>289</ele>
        <time>2020-02-07T15:26:08.000Z</time>
      </trkpt>
      <trkpt lat="44.73152" lon="5.02559">
        <ele>289</ele>
        <time>2020-02-07T15:26:09.000Z</time>
      </trkpt>
      <trkpt lat="44.73152" lon="5.02559">
        <ele>289</ele>
        <time>2020-02-07T15:26:10.000Z</time>
      </trkpt>
      <trkpt lat="44.73152" lon="5.02559">
        <ele>290</ele>
        <time>2020-02-07T15:26:11.000Z</time>
      </trkpt>
      <trkpt lat="44.73151" lon="5.02559">
        <ele>290</ele>
        <time>2020-02-07T15:26:12.000Z</time>
      </trkpt>
      <trkpt lat="44.73151" lon="5.02559">
        <ele>290</ele>
        <time>2020-02-07T15:26:13.000Z</time>
      </trkpt>
      <trkpt lat="44.73151" lon="5.02559">
        <ele>290</ele>
        <time>2020-02-07T15:26:14.000Z</time>
      </trkpt>
      <trkpt lat="44.73152" lon="5.0256">
        <ele>290</ele>
        <time>2020-02-07T15:26:15.000Z</time>
      </trkpt>
      <trkpt lat="44.73152" lon="5.0256">
        <ele>290</ele>
        <time>2020-02-07T15:26:16.000Z</time>
      </trkpt>
      <trkpt lat="44.73152" lon="5.0256">
        <ele>290</ele>
        <time>2020-02-07T15:26:17.000Z</time>
      </trkpt>
      <trkpt lat="44.73152" lon="5.0256">
        <ele>290</ele>
        <time>2020-02-07T15:26:18.000Z</time>
      </trkpt>
      <trkpt lat="44.73152" lon="5.0256">
        <ele>290</ele>
        <time>2020-02-07T15:26:19.000Z</time>
      </trkpt>
      <trkpt lat="44.73151" lon="5.0256">
        <ele>290</ele>
        <time>2020-02-07T15:26:20.000Z</time>
      </trkpt>
      <trkpt lat="44.73151" lon="5.0256">
        <ele>290</ele>
        <time>2020-02-07T15:26:21.000Z</time>
      </trkpt>
      <trkpt lat="44.73151" lon="5.0256">
        <ele>290</ele>
        <time>2020-02-07T15:26:22.000Z</time>
      </trkpt>
      <trkpt lat="44.73151" lon="5.0256">
        <ele>290</ele>
        <time>2020-02-07T15:26:23.000Z</time>
      </trkpt>
      <trkpt lat="44.73151" lon="5.0256">
        <ele>290</ele>
        <time>2020-02-07T15:26:24.000Z</time>
      </trkpt>
      <trkpt lat="44.73151" lon="5.0256">
        <ele>290</ele>
        <time>2020-02-07T15:26:25.000Z</time>
      </trkpt>
      <trkpt lat="44.73152" lon="5.0256">
        <ele>290</ele>
        <time>2020-02-07T15:26:26.000Z</time>
      </trkpt>
      <trkpt lat="44.73152" lon="5.0256">
        <ele>291</ele>
        <time>2020-02-07T15:26:27.000Z</time>
      </trkpt>
      <trkpt lat="44.73151" lon="5.0256">
        <ele>291</ele>
        <time>2020-02-07T15:26:28.000Z</time>
      </trkpt>
      <trkpt lat="44.73151" lon="5.0256">
        <ele>291</ele>
        <time>2020-02-07T15:26:29.000Z</time>
      </trkpt>
      <trkpt lat="44.73151" lon="5.0256">
        <ele>291</ele>
        <time>2020-02-07T15:26:30.000Z</time>
      </trkpt>
      <trkpt lat="44.73151" lon="5.0256">
        <ele>291</ele>
        <time>2020-02-07T15:26:31.000Z</time>
      </trkpt>
      <trkpt lat="44.73151" lon="5.0256">
        <ele>291</ele>
        <time>2020-02-07T15:26:32.000Z</time>
      </trkpt>
      <trkpt lat="44.73151" lon="5.0256">
        <ele>291</ele>
        <time>2020-02-07T15:26:33.000Z</time>
      </trkpt>
      <trkpt lat="44.73151" lon="5.0256">
        <ele>291</ele>
        <time>2020-02-07T15:26:34.000Z</time>
      </trkpt>
      <trkpt lat="44.73151" lon="5.0256">
        <ele>291</ele>
        <time>2020-02-07T15:26:35.000Z</time>
      </trkpt>
      <trkpt lat="44.73151" lon="5.0256">
        <ele>291</ele>
        <time>2020-02-07T15:26:36.000Z</time>
      </trkpt>
      <trkpt lat="44.73151" lon="5.0256">
        <ele>291</ele>
        <time>2020-02-07T15:26:37.000Z</time>
      </trkpt>
      <trkpt lat="44.73151" lon="5.0256">
        <ele>291</ele>
        <time>2020-02-07T15:26:38.000Z</time>
      </trkpt>
      <trkpt lat="44.73151" lon="5.0256">
        <ele>291</ele>
        <time>2020-02-07T15:26:39.000Z</time>
      </trkpt>
      <trkpt lat="44.73152" lon="5.0256">
        <ele>291</ele>
        <time>2020-02-07T15:26:40.000Z</time>
      </trkpt>
      <trkpt lat="44.73152" lon="5.0256">
        <ele>291</ele>
        <time>2020-02-07T15:26:41.000Z</time>
      </trkpt>
      <trkpt lat="44.73152" lon="5.0256">
        <ele>291</ele>
        <time>2020-02-07T15:26:42.000Z</time>
      </trkpt>
      <trkpt lat="44.73152" lon="5.0256">
        <ele>291</ele>
        <time>2020-02-07T15:26:43.000Z</time>
      </trkpt>
      <trkpt lat="44.73152" lon="5.0256">
        <ele>292</ele>
        <time>2020-02-07T15:26:44.000Z</time>
      </trkpt>
      <trkpt lat="44.73152" lon="5.0256">
        <ele>292</ele>
        <time>2020-02-07T15:26:45.000Z</time>
      </trkpt>
      <trkpt lat="44.73152" lon="5.0256">
        <ele>292</ele>
        <time>2020-02-07T15:26:46.000Z</time>
      </trkpt>
      <trkpt lat="44.73152" lon="5.0256">
        <ele>292</ele>
        <time>2020-02-07T15:26:47.000Z</time>
      </trkpt>
      <trkpt lat="44.73152" lon="5.0256">
        <ele>292</ele>
        <time>2020-02-07T15:26:48.000Z</time>
      </trkpt>
      <trkpt lat="44.73152" lon="5.0256">
        <ele>292</ele>
        <time>2020-02-07T15:26:49.000Z</time>
      </trkpt>
      <trkpt lat="44.73152" lon="5.0256">
        <ele>292</ele>
        <time>2020-02-07T15:26:50.000Z</time>
      </trkpt>
      <trkpt lat="44.73152" lon="5.0256">
        <ele>292</ele>
        <time>2020-02-07T15:26:51.000Z</time>
      </trkpt>
      <trkpt lat="44.73152" lon="5.0256">
        <ele>292</ele>
        <time>2020-02-07T15:26:52.000Z</time>
      </trkpt>
      <trkpt lat="44.73152" lon="5.0256">
        <ele>292</ele>
        <time>2020-02-07T15:26:53.000Z</time>
      </trkpt>
      <trkpt lat="44.73152" lon="5.0256">
        <ele>292</ele>
        <time>2020-02-07T15:26:54.000Z</time>
      </trkpt>
      <trkpt lat="44.73152" lon="5.0256">
        <ele>292</ele>
        <time>2020-02-07T15:26:55.000Z</time>
      </trkpt>
      <trkpt lat="44.73152" lon="5.0256">
        <ele>292</ele>
        <time>2020-02-07T15:26:56.000Z</time>
      </trkpt>
      <trkpt lat="44.73152" lon="5.0256">
        <ele>292</ele>
        <time>2020-02-07T15:26:57.000Z</time>
      </trkpt>
      <trkpt lat="44.73152" lon="5.0256">
        <ele>292</ele>
        <time>2020-02-07T15:26:58.000Z</time>
      </trkpt>
      <trkpt lat="44.73152" lon="5.0256">
        <ele>292</ele>
        <time>2020-02-07T15:26:59.000Z</time>
      </trkpt>
      <trkpt lat="44.73152" lon="5.0256">
        <ele>292</ele>
        <time>2020-02-07T15:27:00.000Z</time>
      </trkpt>
      <trkpt lat="44.73152" lon="5.0256">
        <ele>292</ele>
        <time>2020-02-07T15:27:01.000Z</time>
      </trkpt>
      <trkpt lat="44.73152" lon="5.0256">
        <ele>292</ele>
        <time>2020-02-07T15:27:02.000Z</time>
      </trkpt>
      <trkpt lat="44.73152" lon="5.0256">
        <ele>292</ele>
        <time>2020-02-07T15:27:03.000Z</time>
      </trkpt>
      <trkpt lat="44.73152" lon="5.0256">
        <ele>292</ele>
        <time>2020-02-07T15:27:04.000Z</time>
      </trkpt>
      <trkpt lat="44.73152" lon="5.0256">
        <ele>292</ele>
        <time>2020-02-07T15:27:05.000Z</time>
      </trkpt>
      <trkpt lat="44.73152" lon="5.0256">
        <ele>292</ele>
        <time>2020-02-07T15:27:06.000Z</time>
      </trkpt>
      <trkpt lat="44.73152" lon="5.0256">
        <ele>292</ele>
        <time>2020-02-07T15:27:07.000Z</time>
      </trkpt>
      <trkpt lat="44.73152" lon="5.0256">
        <ele>292</ele>
        <time>2020-02-07T15:27:08.000Z</time>
      </trkpt>
      <trkpt lat="44.73152" lon="5.0256">
        <ele>292</ele>
        <time>2020-02-07T15:27:09.000Z</time>
      </trkpt>
      <trkpt lat="44.73152" lon="5.0256">
        <ele>292</ele>
        <time>2020-02-07T15:27:10.000Z</time>
      </trkpt>
      <trkpt lat="44.73152" lon="5.0256">
        <ele>292</ele>
        <time>2020-02-07T15:27:11.000Z</time>
      </trkpt>
      <trkpt lat="44.73152" lon="5.0256">
        <ele>292</ele>
        <time>2020-02-07T15:27:12.000Z</time>
      </trkpt>
      <trkpt lat="44.73152" lon="5.0256">
        <ele>292</ele>
        <time>2020-02-07T15:27:13.000Z</time>
      </trkpt>
      <trkpt lat="44.73152" lon="5.0256">
        <ele>292</ele>
        <time>2020-02-07T15:27:14.000Z</time>
      </trkpt>
      <trkpt lat="44.73152" lon="5.0256">
        <ele>292</ele>
        <time>2020-02-07T15:27:15.000Z</time>
      </trkpt>
      <trkpt lat="44.73152" lon="5.0256">
        <ele>292</ele>
        <time>2020-02-07T15:27:16.000Z</time>
      </trkpt>
      <trkpt lat="44.73152" lon="5.0256">
        <ele>292</ele>
        <time>2020-02-07T15:27:17.000Z</time>
      </trkpt>
      <trkpt lat="44.73152" lon="5.0256">
        <ele>292</ele>
        <time>2020-02-07T15:27:18.000Z</time>
      </trkpt>
      <trkpt lat="44.73152" lon="5.0256">
        <ele>292</ele>
        <time>2020-02-07T15:27:19.000Z</time>
      </trkpt>
      <trkpt lat="44.73152" lon="5.0256">
        <ele>292</ele>
        <time>2020-02-07T15:27:20.000Z</time>
      </trkpt>
      <trkpt lat="44.73152" lon="5.0256">
        <ele>292</ele>
        <time>2020-02-07T15:27:21.000Z</time>
      </trkpt>
      <trkpt lat="44.73152" lon="5.0256">
        <ele>292</ele>
        <time>2020-02-07T15:27:22.000Z</time>
      </trkpt>
      <trkpt lat="44.73153" lon="5.0256">
        <ele>292</ele>
        <time>2020-02-07T15:27:23.000Z</time>
      </trkpt>
      <trkpt lat="44.73153" lon="5.0256">
        <ele>292</ele>
        <time>2020-02-07T15:27:24.000Z</time>
      </trkpt>
      <trkpt lat="44.73153" lon="5.0256">
        <ele>292</ele>
        <time>2020-02-07T15:27:25.000Z</time>
      </trkpt>
      <trkpt lat="44.73153" lon="5.0256">
        <ele>293</ele>
        <time>2020-02-07T15:27:26.000Z</time>
      </trkpt>
      <trkpt lat="44.73154" lon="5.0256">
        <ele>293</ele>
        <time>2020-02-07T15:27:27.000Z</time>
      </trkpt>
      <trkpt lat="44.73154" lon="5.0256">
        <ele>293</ele>
        <time>2020-02-07T15:27:28.000Z</time>
      </trkpt>
      <trkpt lat="44.73154" lon="5.0256">
        <ele>293</ele>
        <time>2020-02-07T15:27:29.000Z</time>
      </trkpt>
      <trkpt lat="44.73154" lon="5.0256">
        <ele>293</ele>
        <time>2020-02-07T15:27:30.000Z</time>
      </trkpt>
      <trkpt lat="44.73154" lon="5.0256">
        <ele>293</ele>
        <time>2020-02-07T15:27:31.000Z</time>
      </trkpt>
      <trkpt lat="44.73154" lon="5.0256">
        <ele>293</ele>
        <time>2020-02-07T15:27:32.000Z</time>
      </trkpt>
      <trkpt lat="44.73154" lon="5.0256">
        <ele>293</ele>
        <time>2020-02-07T15:27:33.000Z</time>
      </trkpt>
      <trkpt lat="44.73154" lon="5.02561">
        <ele>293</ele>
        <time>2020-02-07T15:27:34.000Z</time>
      </trkpt>
      <trkpt lat="44.73154" lon="5.02561">
        <ele>293</ele>
        <time>2020-02-07T15:27:35.000Z</time>
      </trkpt>
      <trkpt lat="44.73155" lon="5.02562">
        <ele>293</ele>
        <time>2020-02-07T15:27:36.000Z</time>
      </trkpt>
      <trkpt lat="44.73155" lon="5.02563">
        <ele>293</ele>
        <time>2020-02-07T15:27:37.000Z</time>
      </trkpt>
      <trkpt lat="44.73155" lon="5.02564">
        <ele>293</ele>
        <time>2020-02-07T15:27:38.000Z</time>
      </trkpt>
      <trkpt lat="44.73154" lon="5.02565">
        <ele>293</ele>
        <time>2020-02-07T15:27:39.000Z</time>
      </trkpt>
      <trkpt lat="44.73154" lon="5.02566">
        <ele>293</ele>
        <time>2020-02-07T15:27:40.000Z</time>
      </trkpt>
      <trkpt lat="44.73153" lon="5.02566">
        <ele>293</ele>
        <time>2020-02-07T15:27:41.000Z</time>
      </trkpt>
      <trkpt lat="44.73152" lon="5.02567">
        <ele>293</ele>
        <time>2020-02-07T15:27:42.000Z</time>
      </trkpt>
      <trkpt lat="44.73152" lon="5.02567">
        <ele>293</ele>
        <time>2020-02-07T15:27:43.000Z</time>
      </trkpt>
      <trkpt lat="44.73152" lon="5.02567">
        <ele>293</ele>
        <time>2020-02-07T15:27:44.000Z</time>
      </trkpt>
      <trkpt lat="44.73152" lon="5.02567">
        <ele>293</ele>
        <time>2020-02-07T15:27:45.000Z</time>
      </trkpt>
      <trkpt lat="44.73151" lon="5.02567">
        <ele>293</ele>
        <time>2020-02-07T15:27:46.000Z</time>
      </trkpt>
      <trkpt lat="44.73151" lon="5.02567">
        <ele>293</ele>
        <time>2020-02-07T15:27:47.000Z</time>
      </trkpt>
      <trkpt lat="44.73151" lon="5.02567">
        <ele>293</ele>
        <time>2020-02-07T15:27:48.000Z</time>
      </trkpt>
      <trkpt lat="44.73151" lon="5.02567">
        <ele>293</ele>
        <time>2020-02-07T15:27:49.000Z</time>
      </trkpt>
      <trkpt lat="44.73151" lon="5.02567">
        <ele>293</ele>
        <time>2020-02-07T15:27:50.000Z</time>
      </trkpt>
      <trkpt lat="44.73151" lon="5.02567">
        <ele>293</ele>
        <time>2020-02-07T15:27:51.000Z</time>
      </trkpt>
      <trkpt lat="44.73151" lon="5.02567">
        <ele>292</ele>
        <time>2020-02-07T15:27:52.000Z</time>
      </trkpt>
      <trkpt lat="44.73151" lon="5.02567">
        <ele>292</ele>
        <time>2020-02-07T15:27:53.000Z</time>
      </trkpt>
      <trkpt lat="44.73151" lon="5.02567">
        <ele>292</ele>
        <time>2020-02-07T15:27:54.000Z</time>
      </trkpt>
      <trkpt lat="44.73151" lon="5.02567">
        <ele>292</ele>
        <time>2020-02-07T15:27:55.000Z</time>
      </trkpt>
      <trkpt lat="44.73151" lon="5.02567">
        <ele>292</ele>
        <time>2020-02-07T15:27:56.000Z</time>
      </trkpt>
      <trkpt lat="44.73151" lon="5.02567">
        <ele>292</ele>
        <time>2020-02-07T15:27:57.000Z</time>
      </trkpt>
      <trkpt lat="44.73151" lon="5.02567">
        <ele>292</ele>
        <time>2020-02-07T15:27:58.000Z</time>
      </trkpt>
      <trkpt lat="44.73151" lon="5.02566">
        <ele>292</ele>
        <time>2020-02-07T15:27:59.000Z</time>
      </trkpt>
      <trkpt lat="44.73151" lon="5.02566">
        <ele>292</ele>
        <time>2020-02-07T15:28:00.000Z</time>
      </trkpt>
      <trkpt lat="44.73151" lon="5.02567">
        <ele>292</ele>
        <time>2020-02-07T15:28:01.000Z</time>
      </trkpt>
      <trkpt lat="44.73151" lon="5.02567">
        <ele>292</ele>
        <time>2020-02-07T15:28:02.000Z</time>
      </trkpt>
      <trkpt lat="44.73151" lon="5.02567">
        <ele>292</ele>
        <time>2020-02-07T15:28:03.000Z</time>
      </trkpt>
      <trkpt lat="44.73151" lon="5.02567">
        <ele>292</ele>
        <time>2020-02-07T15:28:04.000Z</time>
      </trkpt>
      <trkpt lat="44.73151" lon="5.02567">
        <ele>292</ele>
        <time>2020-02-07T15:28:05.000Z</time>
      </trkpt>
      <trkpt lat="44.73151" lon="5.02567">
        <ele>292</ele>
        <time>2020-02-07T15:28:06.000Z</time>
      </trkpt>
      <trkpt lat="44.73151" lon="5.02566">
        <ele>292</ele>
        <time>2020-02-07T15:28:07.000Z</time>
      </trkpt>
      <trkpt lat="44.7315" lon="5.02566">
        <ele>292</ele>
        <time>2020-02-07T15:28:08.000Z</time>
      </trkpt>
      <trkpt lat="44.7315" lon="5.02566">
        <ele>292</ele>
        <time>2020-02-07T15:28:09.000Z</time>
      </trkpt>
      <trkpt lat="44.7315" lon="5.02566">
        <ele>292</ele>
        <time>2020-02-07T15:28:10.000Z</time>
      </trkpt>
      <trkpt lat="44.7315" lon="5.02566">
        <ele>292</ele>
        <time>2020-02-07T15:28:11.000Z</time>
      </trkpt>
      <trkpt lat="44.7315" lon="5.02566">
        <ele>292</ele>
        <time>2020-02-07T15:28:12.000Z</time>
      </trkpt>
      <trkpt lat="44.7315" lon="5.02566">
        <ele>292</ele>
        <time>2020-02-07T15:28:13.000Z</time>
      </trkpt>
      <trkpt lat="44.7315" lon="5.02566">
        <ele>292</ele>
        <time>2020-02-07T15:28:14.000Z</time>
      </trkpt>
      <trkpt lat="44.7315" lon="5.02566">
        <ele>292</ele>
        <time>2020-02-07T15:28:15.000Z</time>
      </trkpt>
      <trkpt lat="44.7315" lon="5.02566">
        <ele>292</ele>
        <time>2020-02-07T15:28:16.000Z</time>
      </trkpt>
      <trkpt lat="44.7315" lon="5.02566">
        <ele>292</ele>
        <time>2020-02-07T15:28:17.000Z</time>
      </trkpt>
      <trkpt lat="44.7315" lon="5.02566">
        <ele>292</ele>
        <time>2020-02-07T15:28:18.000Z</time>
      </trkpt>
      <trkpt lat="44.7315" lon="5.02566">
        <ele>292</ele>
        <time>2020-02-07T15:28:19.000Z</time>
      </trkpt>
      <trkpt lat="44.7315" lon="5.02566">
        <ele>292</ele>
        <time>2020-02-07T15:28:20.000Z</time>
      </trkpt>
      <trkpt lat="44.7315" lon="5.02566">
        <ele>292</ele>
        <time>2020-02-07T15:28:21.000Z</time>
      </trkpt>
      <trkpt lat="44.7315" lon="5.02566">
        <ele>292</ele>
        <time>2020-02-07T15:28:22.000Z</time>
      </trkpt>
      <trkpt lat="44.7315" lon="5.02566">
        <ele>292</ele>
        <time>2020-02-07T15:28:23.000Z</time>
      </trkpt>
      <trkpt lat="44.7315" lon="5.02566">
        <ele>292</ele>
        <time>2020-02-07T15:28:24.000Z</time>
      </trkpt>
      <trkpt lat="44.7315" lon="5.02566">
        <ele>292</ele>
        <time>2020-02-07T15:28:25.000Z</time>
      </trkpt>
      <trkpt lat="44.7315" lon="5.02566">
        <ele>292</ele>
        <time>2020-02-07T15:28:26.000Z</time>
      </trkpt>
      <trkpt lat="44.7315" lon="5.02566">
        <ele>292</ele>
        <time>2020-02-07T15:28:27.000Z</time>
      </trkpt>
      <trkpt lat="44.73151" lon="5.02566">
        <ele>292</ele>
        <time>2020-02-07T15:28:28.000Z</time>
      </trkpt>
      <trkpt lat="44.73151" lon="5.02565">
        <ele>292</ele>
        <time>2020-02-07T15:28:29.000Z</time>
      </trkpt>
      <trkpt lat="44.73152" lon="5.02565">
        <ele>292</ele>
        <time>2020-02-07T15:28:30.000Z</time>
      </trkpt>
      <trkpt lat="44.73152" lon="5.02565">
        <ele>292</ele>
        <time>2020-02-07T15:28:31.000Z</time>
      </trkpt>
      <trkpt lat="44.73152" lon="5.02565">
        <ele>292</ele>
        <time>2020-02-07T15:28:32.000Z</time>
      </trkpt>
      <trkpt lat="44.73153" lon="5.02566">
        <ele>292</ele>
        <time>2020-02-07T15:28:33.000Z</time>
      </trkpt>
      <trkpt lat="44.73153" lon="5.02568">
        <ele>292</ele>
        <time>2020-02-07T15:28:34.000Z</time>
      </trkpt>
      <trkpt lat="44.73154" lon="5.02571">
        <ele>292</ele>
        <time>2020-02-07T15:28:35.000Z</time>
      </trkpt>
      <trkpt lat="44.73157" lon="5.02574">
        <ele>292</ele>
        <time>2020-02-07T15:28:36.000Z</time>
      </trkpt>
      <trkpt lat="44.7316" lon="5.02577">
        <ele>292</ele>
        <time>2020-02-07T15:28:37.000Z</time>
      </trkpt>
      <trkpt lat="44.73163" lon="5.0258">
        <ele>292</ele>
        <time>2020-02-07T15:28:38.000Z</time>
      </trkpt>
      <trkpt lat="44.73167" lon="5.02583">
        <ele>292</ele>
        <time>2020-02-07T15:28:39.000Z</time>
      </trkpt>
      <trkpt lat="44.73172" lon="5.02587">
        <ele>292</ele>
        <time>2020-02-07T15:28:40.000Z</time>
      </trkpt>
      <trkpt lat="44.73177" lon="5.02591">
        <ele>292</ele>
        <time>2020-02-07T15:28:41.000Z</time>
      </trkpt>
      <trkpt lat="44.73182" lon="5.02596">
        <ele>293</ele>
        <time>2020-02-07T15:28:42.000Z</time>
      </trkpt>
      <trkpt lat="44.73187" lon="5.02601">
        <ele>293</ele>
        <time>2020-02-07T15:28:43.000Z</time>
      </trkpt>
      <trkpt lat="44.73192" lon="5.02606">
        <ele>293</ele>
        <time>2020-02-07T15:28:44.000Z</time>
      </trkpt>
      <trkpt lat="44.73196" lon="5.02611">
        <ele>293</ele>
        <time>2020-02-07T15:28:45.000Z</time>
      </trkpt>
      <trkpt lat="44.73201" lon="5.02617">
        <ele>293</ele>
        <time>2020-02-07T15:28:46.000Z</time>
      </trkpt>
      <trkpt lat="44.73206" lon="5.02624">
        <ele>293</ele>
        <time>2020-02-07T15:28:47.000Z</time>
      </trkpt>
      <trkpt lat="44.7321" lon="5.0263">
        <ele>293</ele>
        <time>2020-02-07T15:28:48.000Z</time>
      </trkpt>
      <trkpt lat="44.73215" lon="5.02636">
        <ele>292</ele>
        <time>2020-02-07T15:28:49.000Z</time>
      </trkpt>
      <trkpt lat="44.73219" lon="5.02643">
        <ele>292</ele>
        <time>2020-02-07T15:28:50.000Z</time>
      </trkpt>
      <trkpt lat="44.73223" lon="5.0265">
        <ele>292</ele>
        <time>2020-02-07T15:28:51.000Z</time>
      </trkpt>
      <trkpt lat="44.73227" lon="5.02657">
        <ele>292</ele>
        <time>2020-02-07T15:28:52.000Z</time>
      </trkpt>
      <trkpt lat="44.7323" lon="5.02664">
        <ele>292</ele>
        <time>2020-02-07T15:28:53.000Z</time>
      </trkpt>
      <trkpt lat="44.73232" lon="5.02671">
        <ele>292</ele>
        <time>2020-02-07T15:28:54.000Z</time>
      </trkpt>
      <trkpt lat="44.73234" lon="5.02678">
        <ele>292</ele>
        <time>2020-02-07T15:28:55.000Z</time>
      </trkpt>
      <trkpt lat="44.73235" lon="5.02684">
        <ele>292</ele>
        <time>2020-02-07T15:28:56.000Z</time>
      </trkpt>
      <trkpt lat="44.73234" lon="5.02689">
        <ele>292</ele>
        <time>2020-02-07T15:28:57.000Z</time>
      </trkpt>
      <trkpt lat="44.73232" lon="5.02693">
        <ele>291</ele>
        <time>2020-02-07T15:28:58.000Z</time>
      </trkpt>
      <trkpt lat="44.73227" lon="5.02695">
        <ele>291</ele>
        <time>2020-02-07T15:28:59.000Z</time>
      </trkpt>
      <trkpt lat="44.73222" lon="5.02695">
        <ele>291</ele>
        <time>2020-02-07T15:29:00.000Z</time>
      </trkpt>
      <trkpt lat="44.73216" lon="5.02691">
        <ele>291</ele>
        <time>2020-02-07T15:29:01.000Z</time>
      </trkpt>
      <trkpt lat="44.7321" lon="5.02684">
        <ele>291</ele>
        <time>2020-02-07T15:29:02.000Z</time>
      </trkpt>
      <trkpt lat="44.73204" lon="5.02677">
        <ele>291</ele>
        <time>2020-02-07T15:29:03.000Z</time>
      </trkpt>
      <trkpt lat="44.73198" lon="5.02671">
        <ele>291</ele>
        <time>2020-02-07T15:29:04.000Z</time>
      </trkpt>
      <trkpt lat="44.73192" lon="5.02665">
        <ele>291</ele>
        <time>2020-02-07T15:29:05.000Z</time>
      </trkpt>
      <trkpt lat="44.73187" lon="5.0266">
        <ele>290</ele>
        <time>2020-02-07T15:29:06.000Z</time>
      </trkpt>
      <trkpt lat="44.73181" lon="5.02658">
        <ele>290</ele>
        <time>2020-02-07T15:29:07.000Z</time>
      </trkpt>
      <trkpt lat="44.73175" lon="5.02657">
        <ele>289</ele>
        <time>2020-02-07T15:29:08.000Z</time>
      </trkpt>
      <trkpt lat="44.73169" lon="5.02656">
        <ele>289</ele>
        <time>2020-02-07T15:29:09.000Z</time>
      </trkpt>
      <trkpt lat="44.73164" lon="5.02656">
        <ele>289</ele>
        <time>2020-02-07T15:29:10.000Z</time>
      </trkpt>
      <trkpt lat="44.7316" lon="5.02658">
        <ele>289</ele>
        <time>2020-02-07T15:29:11.000Z</time>
      </trkpt>
      <trkpt lat="44.73156" lon="5.02661">
        <ele>289</ele>
        <time>2020-02-07T15:29:12.000Z</time>
      </trkpt>
      <trkpt lat="44.73153" lon="5.02665">
        <ele>289</ele>
        <time>2020-02-07T15:29:13.000Z</time>
      </trkpt>
      <trkpt lat="44.73151" lon="5.02671">
        <ele>288</ele>
        <time>2020-02-07T15:29:14.000Z</time>
      </trkpt>
      <trkpt lat="44.7315" lon="5.02677">
        <ele>288</ele>
        <time>2020-02-07T15:29:15.000Z</time>
      </trkpt>
      <trkpt lat="44.7315" lon="5.02683">
        <ele>288</ele>
        <time>2020-02-07T15:29:16.000Z</time>
      </trkpt>
      <trkpt lat="44.73149" lon="5.02688">
        <ele>288</ele>
        <time>2020-02-07T15:29:17.000Z</time>
      </trkpt>
      <trkpt lat="44.7315" lon="5.02693">
        <ele>288</ele>
        <time>2020-02-07T15:29:18.000Z</time>
      </trkpt>
      <trkpt lat="44.7315" lon="5.02699">
        <ele>288</ele>
        <time>2020-02-07T15:29:19.000Z</time>
      </trkpt>
      <trkpt lat="44.7315" lon="5.02706">
        <ele>288</ele>
        <time>2020-02-07T15:29:20.000Z</time>
      </trkpt>
      <trkpt lat="44.7315" lon="5.02712">
        <ele>288</ele>
        <time>2020-02-07T15:29:21.000Z</time>
      </trkpt>
      <trkpt lat="44.73151" lon="5.0272">
        <ele>288</ele>
        <time>2020-02-07T15:29:22.000Z</time>
      </trkpt>
      <trkpt lat="44.7315" lon="5.02727">
        <ele>288</ele>
        <time>2020-02-07T15:29:23.000Z</time>
      </trkpt>
      <trkpt lat="44.7315" lon="5.02735">
        <ele>288</ele>
        <time>2020-02-07T15:29:24.000Z</time>
      </trkpt>
      <trkpt lat="44.73149" lon="5.02742">
        <ele>288</ele>
        <time>2020-02-07T15:29:25.000Z</time>
      </trkpt>
      <trkpt lat="44.73148" lon="5.02749">
        <ele>288</ele>
        <time>2020-02-07T15:29:26.000Z</time>
      </trkpt>
      <trkpt lat="44.73147" lon="5.02754">
        <ele>288</ele>
        <time>2020-02-07T15:29:27.000Z</time>
      </trkpt>
      <trkpt lat="44.73146" lon="5.02758">
        <ele>288</ele>
        <time>2020-02-07T15:29:28.000Z</time>
      </trkpt>
      <trkpt lat="44.73146" lon="5.02763">
        <ele>288</ele>
        <time>2020-02-07T15:29:29.000Z</time>
      </trkpt>
      <trkpt lat="44.73145" lon="5.02769">
        <ele>288</ele>
        <time>2020-02-07T15:29:30.000Z</time>
      </trkpt>
      <trkpt lat="44.73144" lon="5.02775">
        <ele>288</ele>
        <time>2020-02-07T15:29:31.000Z</time>
      </trkpt>
      <trkpt lat="44.73142" lon="5.02782">
        <ele>288</ele>
        <time>2020-02-07T15:29:32.000Z</time>
      </trkpt>
      <trkpt lat="44.73141" lon="5.02789">
        <ele>288</ele>
        <time>2020-02-07T15:29:33.000Z</time>
      </trkpt>
      <trkpt lat="44.7314" lon="5.02796">
        <ele>288</ele>
        <time>2020-02-07T15:29:34.000Z</time>
      </trkpt>
      <trkpt lat="44.73138" lon="5.02804">
        <ele>288</ele>
        <time>2020-02-07T15:29:35.000Z</time>
      </trkpt>
      <trkpt lat="44.73137" lon="5.02812">
        <ele>288</ele>
        <time>2020-02-07T15:29:36.000Z</time>
      </trkpt>
      <trkpt lat="44.73136" lon="5.0282">
        <ele>288</ele>
        <time>2020-02-07T15:29:37.000Z</time>
      </trkpt>
      <trkpt lat="44.73135" lon="5.02829">
        <ele>288</ele>
        <time>2020-02-07T15:29:38.000Z</time>
      </trkpt>
      <trkpt lat="44.73135" lon="5.02837">
        <ele>288</ele>
        <time>2020-02-07T15:29:39.000Z</time>
      </trkpt>
      <trkpt lat="44.73134" lon="5.02846">
        <ele>288</ele>
        <time>2020-02-07T15:29:40.000Z</time>
      </trkpt>
      <trkpt lat="44.73133" lon="5.02855">
        <ele>287</ele>
        <time>2020-02-07T15:29:41.000Z</time>
      </trkpt>
      <trkpt lat="44.73132" lon="5.02864">
        <ele>287</ele>
        <time>2020-02-07T15:29:42.000Z</time>
      </trkpt>
      <trkpt lat="44.73131" lon="5.02873">
        <ele>287</ele>
        <time>2020-02-07T15:29:43.000Z</time>
      </trkpt>
      <trkpt lat="44.73131" lon="5.02883">
        <ele>287</ele>
        <time>2020-02-07T15:29:44.000Z</time>
      </trkpt>
      <trkpt lat="44.7313" lon="5.02893">
        <ele>286</ele>
        <time>2020-02-07T15:29:45.000Z</time>
      </trkpt>
      <trkpt lat="44.7313" lon="5.02903">
        <ele>286</ele>
        <time>2020-02-07T15:29:46.000Z</time>
      </trkpt>
      <trkpt lat="44.7313" lon="5.02914">
        <ele>286</ele>
        <time>2020-02-07T15:29:47.000Z</time>
      </trkpt>
      <trkpt lat="44.7313" lon="5.02925">
        <ele>285</ele>
        <time>2020-02-07T15:29:48.000Z</time>
      </trkpt>
      <trkpt lat="44.7313" lon="5.02936">
        <ele>285</ele>
        <time>2020-02-07T15:29:49.000Z</time>
      </trkpt>
      <trkpt lat="44.73129" lon="5.02947">
        <ele>285</ele>
        <time>2020-02-07T15:29:50.000Z</time>
      </trkpt>
      <trkpt lat="44.73127" lon="5.02958">
        <ele>284</ele>
        <time>2020-02-07T15:29:51.000Z</time>
      </trkpt>
      <trkpt lat="44.73124" lon="5.02968">
        <ele>284</ele>
        <time>2020-02-07T15:29:52.000Z</time>
      </trkpt>
      <trkpt lat="44.73121" lon="5.02977">
        <ele>284</ele>
        <time>2020-02-07T15:29:53.000Z</time>
      </trkpt>
      <trkpt lat="44.73118" lon="5.02985">
        <ele>283</ele>
        <time>2020-02-07T15:29:54.000Z</time>
      </trkpt>
      <trkpt lat="44.73116" lon="5.02992">
        <ele>283</ele>
        <time>2020-02-07T15:29:55.000Z</time>
      </trkpt>
      <trkpt lat="44.73113" lon="5.02999">
        <ele>282</ele>
        <time>2020-02-07T15:29:56.000Z</time>
      </trkpt>
      <trkpt lat="44.7311" lon="5.03007">
        <ele>282</ele>
        <time>2020-02-07T15:29:57.000Z</time>
      </trkpt>
      <trkpt lat="44.73106" lon="5.03014">
        <ele>282</ele>
        <time>2020-02-07T15:29:58.000Z</time>
      </trkpt>
      <trkpt lat="44.73103" lon="5.03021">
        <ele>281</ele>
        <time>2020-02-07T15:29:59.000Z</time>
      </trkpt>
      <trkpt lat="44.73098" lon="5.03028">
        <ele>281</ele>
        <time>2020-02-07T15:30:00.000Z</time>
      </trkpt>
      <trkpt lat="44.73095" lon="5.03034">
        <ele>280</ele>
        <time>2020-02-07T15:30:01.000Z</time>
      </trkpt>
      <trkpt lat="44.73091" lon="5.0304">
        <ele>280</ele>
        <time>2020-02-07T15:30:02.000Z</time>
      </trkpt>
      <trkpt lat="44.73086" lon="5.03046">
        <ele>279</ele>
        <time>2020-02-07T15:30:03.000Z</time>
      </trkpt>
      <trkpt lat="44.7308" lon="5.03051">
        <ele>279</ele>
        <time>2020-02-07T15:30:04.000Z</time>
      </trkpt>
      <trkpt lat="44.73074" lon="5.03057">
        <ele>278</ele>
        <time>2020-02-07T15:30:05.000Z</time>
      </trkpt>
      <trkpt lat="44.73068" lon="5.03064">
        <ele>278</ele>
        <time>2020-02-07T15:30:06.000Z</time>
      </trkpt>
      <trkpt lat="44.73063" lon="5.0307">
        <ele>277</ele>
        <time>2020-02-07T15:30:07.000Z</time>
      </trkpt>
      <trkpt lat="44.73057" lon="5.03076">
        <ele>277</ele>
        <time>2020-02-07T15:30:08.000Z</time>
      </trkpt>
      <trkpt lat="44.73051" lon="5.03082">
        <ele>276</ele>
        <time>2020-02-07T15:30:09.000Z</time>
      </trkpt>
      <trkpt lat="44.73044" lon="5.03089">
        <ele>276</ele>
        <time>2020-02-07T15:30:10.000Z</time>
      </trkpt>
      <trkpt lat="44.73038" lon="5.03095">
        <ele>275</ele>
        <time>2020-02-07T15:30:11.000Z</time>
      </trkpt>
      <trkpt lat="44.73032" lon="5.03103">
        <ele>274</ele>
        <time>2020-02-07T15:30:12.000Z</time>
      </trkpt>
      <trkpt lat="44.73026" lon="5.0311">
        <ele>273</ele>
        <time>2020-02-07T15:30:13.000Z</time>
      </trkpt>
      <trkpt lat="44.7302" lon="5.03118">
        <ele>272</ele>
        <time>2020-02-07T15:30:14.000Z</time>
      </trkpt>
      <trkpt lat="44.73014" lon="5.03126">
        <ele>271</ele>
        <time>2020-02-07T15:30:15.000Z</time>
      </trkpt>
      <trkpt lat="44.73009" lon="5.03135">
        <ele>270</ele>
        <time>2020-02-07T15:30:16.000Z</time>
      </trkpt>
      <trkpt lat="44.73004" lon="5.03141">
        <ele>269</ele>
        <time>2020-02-07T15:30:17.000Z</time>
      </trkpt>
      <trkpt lat="44.72998" lon="5.03146">
        <ele>268</ele>
        <time>2020-02-07T15:30:18.000Z</time>
      </trkpt>
      <trkpt lat="44.72992" lon="5.03149">
        <ele>267</ele>
        <time>2020-02-07T15:30:19.000Z</time>
      </trkpt>
      <trkpt lat="44.72985" lon="5.03151">
        <ele>266</ele>
        <time>2020-02-07T15:30:20.000Z</time>
      </trkpt>
      <trkpt lat="44.72978" lon="5.03152">
        <ele>265</ele>
        <time>2020-02-07T15:30:21.000Z</time>
      </trkpt>
      <trkpt lat="44.72971" lon="5.03153">
        <ele>264</ele>
        <time>2020-02-07T15:30:22.000Z</time>
      </trkpt>
      <trkpt lat="44.72963" lon="5.03153">
        <ele>262</ele>
        <time>2020-02-07T15:30:23.000Z</time>
      </trkpt>
      <trkpt lat="44.72955" lon="5.03152">
        <ele>261</ele>
        <time>2020-02-07T15:30:24.000Z</time>
      </trkpt>
      <trkpt lat="44.72947" lon="5.0315">
        <ele>260</ele>
        <time>2020-02-07T15:30:25.000Z</time>
      </trkpt>
      <trkpt lat="44.72939" lon="5.0315">
        <ele>258</ele>
        <time>2020-02-07T15:30:26.000Z</time>
      </trkpt>
      <trkpt lat="44.7293" lon="5.03149">
        <ele>256</ele>
        <time>2020-02-07T15:30:27.000Z</time>
      </trkpt>
      <trkpt lat="44.72922" lon="5.0315">
        <ele>254</ele>
        <time>2020-02-07T15:30:28.000Z</time>
      </trkpt>
      <trkpt lat="44.72914" lon="5.03152">
        <ele>252</ele>
        <time>2020-02-07T15:30:29.000Z</time>
      </trkpt>
      <trkpt lat="44.72907" lon="5.03154">
        <ele>250</ele>
        <time>2020-02-07T15:30:30.000Z</time>
      </trkpt>
      <trkpt lat="44.729" lon="5.03157">
        <ele>248</ele>
        <time>2020-02-07T15:30:31.000Z</time>
      </trkpt>
      <trkpt lat="44.72895" lon="5.03158">
        <ele>246</ele>
        <time>2020-02-07T15:30:32.000Z</time>
      </trkpt>
      <trkpt lat="44.7289" lon="5.03158">
        <ele>244</ele>
        <time>2020-02-07T15:30:33.000Z</time>
      </trkpt>
      <trkpt lat="44.72887" lon="5.03158">
        <ele>243</ele>
        <time>2020-02-07T15:30:34.000Z</time>
      </trkpt>
      <trkpt lat="44.72883" lon="5.03157">
        <ele>241</ele>
        <time>2020-02-07T15:30:35.000Z</time>
      </trkpt>
      <trkpt lat="44.7288" lon="5.03154">
        <ele>240</ele>
        <time>2020-02-07T15:30:36.000Z</time>
      </trkpt>
      <trkpt lat="44.72876" lon="5.03149">
        <ele>239</ele>
        <time>2020-02-07T15:30:37.000Z</time>
      </trkpt>
      <trkpt lat="44.72873" lon="5.03142">
        <ele>238</ele>
        <time>2020-02-07T15:30:38.000Z</time>
      </trkpt>
      <trkpt lat="44.72872" lon="5.03133">
        <ele>237</ele>
        <time>2020-02-07T15:30:39.000Z</time>
      </trkpt>
      <trkpt lat="44.72871" lon="5.03124">
        <ele>236</ele>
        <time>2020-02-07T15:30:40.000Z</time>
      </trkpt>
      <trkpt lat="44.7287" lon="5.03115">
        <ele>235</ele>
        <time>2020-02-07T15:30:41.000Z</time>
      </trkpt>
      <trkpt lat="44.72869" lon="5.03106">
        <ele>234</ele>
        <time>2020-02-07T15:30:42.000Z</time>
      </trkpt>
      <trkpt lat="44.72868" lon="5.03096">
        <ele>233</ele>
        <time>2020-02-07T15:30:43.000Z</time>
      </trkpt>
      <trkpt lat="44.72867" lon="5.03085">
        <ele>232</ele>
        <time>2020-02-07T15:30:44.000Z</time>
      </trkpt>
      <trkpt lat="44.72866" lon="5.03073">
        <ele>231</ele>
        <time>2020-02-07T15:30:45.000Z</time>
      </trkpt>
      <trkpt lat="44.72865" lon="5.03061">
        <ele>230</ele>
        <time>2020-02-07T15:30:46.000Z</time>
      </trkpt>
      <trkpt lat="44.72864" lon="5.03049">
        <ele>229</ele>
        <time>2020-02-07T15:30:47.000Z</time>
      </trkpt>
      <trkpt lat="44.72863" lon="5.0304">
        <ele>228</ele>
        <time>2020-02-07T15:30:48.000Z</time>
      </trkpt>
      <trkpt lat="44.72862" lon="5.03031">
        <ele>228</ele>
        <time>2020-02-07T15:30:49.000Z</time>
      </trkpt>
      <trkpt lat="44.72862" lon="5.03024">
        <ele>227</ele>
        <time>2020-02-07T15:30:50.000Z</time>
      </trkpt>
      <trkpt lat="44.72861" lon="5.03016">
        <ele>226</ele>
        <time>2020-02-07T15:30:51.000Z</time>
      </trkpt>
      <trkpt lat="44.7286" lon="5.03009">
        <ele>225</ele>
        <time>2020-02-07T15:30:52.000Z</time>
      </trkpt>
      <trkpt lat="44.72859" lon="5.03001">
        <ele>225</ele>
        <time>2020-02-07T15:30:53.000Z</time>
      </trkpt>
      <trkpt lat="44.72859" lon="5.02994">
        <ele>224</ele>
        <time>2020-02-07T15:30:54.000Z</time>
      </trkpt>
      <trkpt lat="44.72859" lon="5.02988">
        <ele>224</ele>
        <time>2020-02-07T15:30:55.000Z</time>
      </trkpt>
      <trkpt lat="44.72858" lon="5.02983">
        <ele>223</ele>
        <time>2020-02-07T15:30:56.000Z</time>
      </trkpt>
      <trkpt lat="44.72857" lon="5.02978">
        <ele>222</ele>
        <time>2020-02-07T15:30:57.000Z</time>
      </trkpt>
      <trkpt lat="44.72855" lon="5.02971">
        <ele>222</ele>
        <time>2020-02-07T15:30:58.000Z</time>
      </trkpt>
      <trkpt lat="44.72853" lon="5.02964">
        <ele>221</ele>
        <time>2020-02-07T15:30:59.000Z</time>
      </trkpt>
      <trkpt lat="44.7285" lon="5.02956">
        <ele>221</ele>
        <time>2020-02-07T15:31:00.000Z</time>
      </trkpt>
      <trkpt lat="44.72846" lon="5.02948">
        <ele>220</ele>
        <time>2020-02-07T15:31:01.000Z</time>
      </trkpt>
      <trkpt lat="44.72843" lon="5.02942">
        <ele>220</ele>
        <time>2020-02-07T15:31:02.000Z</time>
      </trkpt>
      <trkpt lat="44.7284" lon="5.02936">
        <ele>219</ele>
        <time>2020-02-07T15:31:03.000Z</time>
      </trkpt>
      <trkpt lat="44.72837" lon="5.0293">
        <ele>218</ele>
        <time>2020-02-07T15:31:04.000Z</time>
      </trkpt>
      <trkpt lat="44.72833" lon="5.02925">
        <ele>218</ele>
        <time>2020-02-07T15:31:05.000Z</time>
      </trkpt>
      <trkpt lat="44.72831" lon="5.0292">
        <ele>217</ele>
        <time>2020-02-07T15:31:06.000Z</time>
      </trkpt>
      <trkpt lat="44.72828" lon="5.02916">
        <ele>217</ele>
        <time>2020-02-07T15:31:07.000Z</time>
      </trkpt>
      <trkpt lat="44.72825" lon="5.02911">
        <ele>216</ele>
        <time>2020-02-07T15:31:08.000Z</time>
      </trkpt>
      <trkpt lat="44.72822" lon="5.02906">
        <ele>216</ele>
        <time>2020-02-07T15:31:09.000Z</time>
      </trkpt>
      <trkpt lat="44.72819" lon="5.02901">
        <ele>215</ele>
        <time>2020-02-07T15:31:10.000Z</time>
      </trkpt>
      <trkpt lat="44.72817" lon="5.02896">
        <ele>215</ele>
        <time>2020-02-07T15:31:11.000Z</time>
      </trkpt>
      <trkpt lat="44.72814" lon="5.02892">
        <ele>214</ele>
        <time>2020-02-07T15:31:12.000Z</time>
      </trkpt>
      <trkpt lat="44.72812" lon="5.02888">
        <ele>214</ele>
        <time>2020-02-07T15:31:13.000Z</time>
      </trkpt>
      <trkpt lat="44.7281" lon="5.02884">
        <ele>214</ele>
        <time>2020-02-07T15:31:14.000Z</time>
      </trkpt>
      <trkpt lat="44.72808" lon="5.02882">
        <ele>213</ele>
        <time>2020-02-07T15:31:15.000Z</time>
      </trkpt>
      <trkpt lat="44.72807" lon="5.0288">
        <ele>213</ele>
        <time>2020-02-07T15:31:16.000Z</time>
      </trkpt>
      <trkpt lat="44.72806" lon="5.02878">
        <ele>212</ele>
        <time>2020-02-07T15:31:17.000Z</time>
      </trkpt>
      <trkpt lat="44.72805" lon="5.02877">
        <ele>212</ele>
        <time>2020-02-07T15:31:18.000Z</time>
      </trkpt>
      <trkpt lat="44.72804" lon="5.02875">
        <ele>211</ele>
        <time>2020-02-07T15:31:19.000Z</time>
      </trkpt>
      <trkpt lat="44.72802" lon="5.02872">
        <ele>211</ele>
        <time>2020-02-07T15:31:20.000Z</time>
      </trkpt>
      <trkpt lat="44.72799" lon="5.02867">
        <ele>211</ele>
        <time>2020-02-07T15:31:21.000Z</time>
      </trkpt>
      <trkpt lat="44.72796" lon="5.02863">
        <ele>210</ele>
        <time>2020-02-07T15:31:22.000Z</time>
      </trkpt>
      <trkpt lat="44.72793" lon="5.02859">
        <ele>210</ele>
        <time>2020-02-07T15:31:23.000Z</time>
      </trkpt>
      <trkpt lat="44.7279" lon="5.02854">
        <ele>210</ele>
        <time>2020-02-07T15:31:24.000Z</time>
      </trkpt>
      <trkpt lat="44.72787" lon="5.02848">
        <ele>209</ele>
        <time>2020-02-07T15:31:25.000Z</time>
      </trkpt>
      <trkpt lat="44.72783" lon="5.02841">
        <ele>209</ele>
        <time>2020-02-07T15:31:26.000Z</time>
      </trkpt>
      <trkpt lat="44.72779" lon="5.02833">
        <ele>208</ele>
        <time>2020-02-07T15:31:27.000Z</time>
      </trkpt>
      <trkpt lat="44.72775" lon="5.02825">
        <ele>208</ele>
        <time>2020-02-07T15:31:28.000Z</time>
      </trkpt>
      <trkpt lat="44.72771" lon="5.02819">
        <ele>207</ele>
        <time>2020-02-07T15:31:29.000Z</time>
      </trkpt>
      <trkpt lat="44.72768" lon="5.02814">
        <ele>207</ele>
        <time>2020-02-07T15:31:30.000Z</time>
      </trkpt>
      <trkpt lat="44.72765" lon="5.02809">
        <ele>207</ele>
        <time>2020-02-07T15:31:31.000Z</time>
      </trkpt>
      <trkpt lat="44.72762" lon="5.02804">
        <ele>206</ele>
        <time>2020-02-07T15:31:32.000Z</time>
      </trkpt>
      <trkpt lat="44.72758" lon="5.02798">
        <ele>206</ele>
        <time>2020-02-07T15:31:33.000Z</time>
      </trkpt>
      <trkpt lat="44.72753" lon="5.02791">
        <ele>206</ele>
        <time>2020-02-07T15:31:34.000Z</time>
      </trkpt>
      <trkpt lat="44.72748" lon="5.02784">
        <ele>205</ele>
        <time>2020-02-07T15:31:35.000Z</time>
      </trkpt>
      <trkpt lat="44.72743" lon="5.02776">
        <ele>205</ele>
        <time>2020-02-07T15:31:36.000Z</time>
      </trkpt>
      <trkpt lat="44.72737" lon="5.02765">
        <ele>204</ele>
        <time>2020-02-07T15:31:37.000Z</time>
      </trkpt>
      <trkpt lat="44.72731" lon="5.02753">
        <ele>204</ele>
        <time>2020-02-07T15:31:38.000Z</time>
      </trkpt>
      <trkpt lat="44.72725" lon="5.02743">
        <ele>203</ele>
        <time>2020-02-07T15:31:39.000Z</time>
      </trkpt>
      <trkpt lat="44.72719" lon="5.02732">
        <ele>202</ele>
        <time>2020-02-07T15:31:40.000Z</time>
      </trkpt>
      <trkpt lat="44.72713" lon="5.02722">
        <ele>202</ele>
        <time>2020-02-07T15:31:41.000Z</time>
      </trkpt>
      <trkpt lat="44.72707" lon="5.02712">
        <ele>201</ele>
        <time>2020-02-07T15:31:42.000Z</time>
      </trkpt>
      <trkpt lat="44.72702" lon="5.02703">
        <ele>201</ele>
        <time>2020-02-07T15:31:43.000Z</time>
      </trkpt>
      <trkpt lat="44.72698" lon="5.02695">
        <ele>200</ele>
        <time>2020-02-07T15:31:44.000Z</time>
      </trkpt>
      <trkpt lat="44.72694" lon="5.02688">
        <ele>200</ele>
        <time>2020-02-07T15:31:45.000Z</time>
      </trkpt>
      <trkpt lat="44.7269" lon="5.02682">
        <ele>199</ele>
        <time>2020-02-07T15:31:46.000Z</time>
      </trkpt>
      <trkpt lat="44.72687" lon="5.02676">
        <ele>199</ele>
        <time>2020-02-07T15:31:47.000Z</time>
      </trkpt>
      <trkpt lat="44.72685" lon="5.02672">
        <ele>198</ele>
        <time>2020-02-07T15:31:48.000Z</time>
      </trkpt>
      <trkpt lat="44.72683" lon="5.02668">
        <ele>198</ele>
        <time>2020-02-07T15:31:49.000Z</time>
      </trkpt>
      <trkpt lat="44.72682" lon="5.02665">
        <ele>198</ele>
        <time>2020-02-07T15:31:50.000Z</time>
      </trkpt>
      <trkpt lat="44.72681" lon="5.02664">
        <ele>198</ele>
        <time>2020-02-07T15:31:51.000Z</time>
      </trkpt>
      <trkpt lat="44.7268" lon="5.02662">
        <ele>197</ele>
        <time>2020-02-07T15:31:52.000Z</time>
      </trkpt>
      <trkpt lat="44.72679" lon="5.0266">
        <ele>197</ele>
        <time>2020-02-07T15:31:53.000Z</time>
      </trkpt>
      <trkpt lat="44.72679" lon="5.02656">
        <ele>197</ele>
        <time>2020-02-07T15:31:54.000Z</time>
      </trkpt>
      <trkpt lat="44.72679" lon="5.02653">
        <ele>197</ele>
        <time>2020-02-07T15:31:55.000Z</time>
      </trkpt>
      <trkpt lat="44.72679" lon="5.02647">
        <ele>197</ele>
        <time>2020-02-07T15:31:56.000Z</time>
      </trkpt>
      <trkpt lat="44.7268" lon="5.0264">
        <ele>197</ele>
        <time>2020-02-07T15:31:57.000Z</time>
      </trkpt>
      <trkpt lat="44.72682" lon="5.0263">
        <ele>197</ele>
        <time>2020-02-07T15:31:58.000Z</time>
      </trkpt>
      <trkpt lat="44.72684" lon="5.02619">
        <ele>197</ele>
        <time>2020-02-07T15:31:59.000Z</time>
      </trkpt>
      <trkpt lat="44.72686" lon="5.02606">
        <ele>197</ele>
        <time>2020-02-07T15:32:00.000Z</time>
      </trkpt>
      <trkpt lat="44.72688" lon="5.02592">
        <ele>198</ele>
        <time>2020-02-07T15:32:01.000Z</time>
      </trkpt>
      <trkpt lat="44.7269" lon="5.02579">
        <ele>198</ele>
        <time>2020-02-07T15:32:02.000Z</time>
      </trkpt>
      <trkpt lat="44.72691" lon="5.02564">
        <ele>199</ele>
        <time>2020-02-07T15:32:03.000Z</time>
      </trkpt>
      <trkpt lat="44.72693" lon="5.0255">
        <ele>199</ele>
        <time>2020-02-07T15:32:04.000Z</time>
      </trkpt>
      <trkpt lat="44.72696" lon="5.02537">
        <ele>200</ele>
        <time>2020-02-07T15:32:05.000Z</time>
      </trkpt>
      <trkpt lat="44.72699" lon="5.02525">
        <ele>200</ele>
        <time>2020-02-07T15:32:06.000Z</time>
      </trkpt>
      <trkpt lat="44.72701" lon="5.02515">
        <ele>200</ele>
        <time>2020-02-07T15:32:07.000Z</time>
      </trkpt>
      <trkpt lat="44.72702" lon="5.02505">
        <ele>201</ele>
        <time>2020-02-07T15:32:08.000Z</time>
      </trkpt>
      <trkpt lat="44.72703" lon="5.02495">
        <ele>201</ele>
        <time>2020-02-07T15:32:09.000Z</time>
      </trkpt>
      <trkpt lat="44.72704" lon="5.02486">
        <ele>201</ele>
        <time>2020-02-07T15:32:10.000Z</time>
      </trkpt>
      <trkpt lat="44.72705" lon="5.02478">
        <ele>201</ele>
        <time>2020-02-07T15:32:11.000Z</time>
      </trkpt>
      <trkpt lat="44.72705" lon="5.02472">
        <ele>201</ele>
        <time>2020-02-07T15:32:12.000Z</time>
      </trkpt>
      <trkpt lat="44.72706" lon="5.02466">
        <ele>201</ele>
        <time>2020-02-07T15:32:13.000Z</time>
      </trkpt>
      <trkpt lat="44.72707" lon="5.02461">
        <ele>201</ele>
        <time>2020-02-07T15:32:14.000Z</time>
      </trkpt>
      <trkpt lat="44.72707" lon="5.02455">
        <ele>201</ele>
        <time>2020-02-07T15:32:15.000Z</time>
      </trkpt>
      <trkpt lat="44.72708" lon="5.02449">
        <ele>201</ele>
        <time>2020-02-07T15:32:16.000Z</time>
      </trkpt>
      <trkpt lat="44.72708" lon="5.02443">
        <ele>201</ele>
        <time>2020-02-07T15:32:17.000Z</time>
      </trkpt>
      <trkpt lat="44.72709" lon="5.02437">
        <ele>201</ele>
        <time>2020-02-07T15:32:18.000Z</time>
      </trkpt>
      <trkpt lat="44.72709" lon="5.0243">
        <ele>201</ele>
        <time>2020-02-07T15:32:19.000Z</time>
      </trkpt>
      <trkpt lat="44.72709" lon="5.02421">
        <ele>201</ele>
        <time>2020-02-07T15:32:20.000Z</time>
      </trkpt>
      <trkpt lat="44.72709" lon="5.02412">
        <ele>201</ele>
        <time>2020-02-07T15:32:21.000Z</time>
      </trkpt>
      <trkpt lat="44.72709" lon="5.02404">
        <ele>201</ele>
        <time>2020-02-07T15:32:22.000Z</time>
      </trkpt>
      <trkpt lat="44.7271" lon="5.02396">
        <ele>201</ele>
        <time>2020-02-07T15:32:23.000Z</time>
      </trkpt>
      <trkpt lat="44.72711" lon="5.02391">
        <ele>201</ele>
        <time>2020-02-07T15:32:24.000Z</time>
      </trkpt>
      <trkpt lat="44.72711" lon="5.02387">
        <ele>201</ele>
        <time>2020-02-07T15:32:25.000Z</time>
      </trkpt>
      <trkpt lat="44.72711" lon="5.02385">
        <ele>201</ele>
        <time>2020-02-07T15:32:26.000Z</time>
      </trkpt>
      <trkpt lat="44.72712" lon="5.02384">
        <ele>201</ele>
        <time>2020-02-07T15:32:27.000Z</time>
      </trkpt>
      <trkpt lat="44.72712" lon="5.02383">
        <ele>201</ele>
        <time>2020-02-07T15:32:28.000Z</time>
      </trkpt>
      <trkpt lat="44.72712" lon="5.02381">
        <ele>200</ele>
        <time>2020-02-07T15:32:29.000Z</time>
      </trkpt>
      <trkpt lat="44.72712" lon="5.02378">
        <ele>200</ele>
        <time>2020-02-07T15:32:30.000Z</time>
      </trkpt>
      <trkpt lat="44.72713" lon="5.02373">
        <ele>200</ele>
        <time>2020-02-07T15:32:31.000Z</time>
      </trkpt>
      <trkpt lat="44.72715" lon="5.02367">
        <ele>200</ele>
        <time>2020-02-07T15:32:32.000Z</time>
      </trkpt>
      <trkpt lat="44.72717" lon="5.0236">
        <ele>200</ele>
        <time>2020-02-07T15:32:33.000Z</time>
      </trkpt>
      <trkpt lat="44.72718" lon="5.02351">
        <ele>200</ele>
        <time>2020-02-07T15:32:34.000Z</time>
      </trkpt>
      <trkpt lat="44.7272" lon="5.02342">
        <ele>200</ele>
        <time>2020-02-07T15:32:35.000Z</time>
      </trkpt>
      <trkpt lat="44.72722" lon="5.02333">
        <ele>200</ele>
        <time>2020-02-07T15:32:36.000Z</time>
      </trkpt>
      <trkpt lat="44.72724" lon="5.02323">
        <ele>200</ele>
        <time>2020-02-07T15:32:37.000Z</time>
      </trkpt>
      <trkpt lat="44.72726" lon="5.02313">
        <ele>199</ele>
        <time>2020-02-07T15:32:38.000Z</time>
      </trkpt>
      <trkpt lat="44.72728" lon="5.02303">
        <ele>199</ele>
        <time>2020-02-07T15:32:39.000Z</time>
      </trkpt>
      <trkpt lat="44.72729" lon="5.02293">
        <ele>199</ele>
        <time>2020-02-07T15:32:40.000Z</time>
      </trkpt>
      <trkpt lat="44.72731" lon="5.02285">
        <ele>199</ele>
        <time>2020-02-07T15:32:41.000Z</time>
      </trkpt>
      <trkpt lat="44.72732" lon="5.0228">
        <ele>199</ele>
        <time>2020-02-07T15:32:42.000Z</time>
      </trkpt>
      <trkpt lat="44.72732" lon="5.02277">
        <ele>199</ele>
        <time>2020-02-07T15:32:43.000Z</time>
      </trkpt>
      <trkpt lat="44.72732" lon="5.02276">
        <ele>199</ele>
        <time>2020-02-07T15:32:44.000Z</time>
      </trkpt>
      <trkpt lat="44.72732" lon="5.02274">
        <ele>199</ele>
        <time>2020-02-07T15:32:45.000Z</time>
      </trkpt>
      <trkpt lat="44.72733" lon="5.02271">
        <ele>198</ele>
        <time>2020-02-07T15:32:46.000Z</time>
      </trkpt>
      <trkpt lat="44.72733" lon="5.02267">
        <ele>198</ele>
        <time>2020-02-07T15:32:47.000Z</time>
      </trkpt>
      <trkpt lat="44.72734" lon="5.02261">
        <ele>198</ele>
        <time>2020-02-07T15:32:48.000Z</time>
      </trkpt>
      <trkpt lat="44.72736" lon="5.02254">
        <ele>198</ele>
        <time>2020-02-07T15:32:49.000Z</time>
      </trkpt>
      <trkpt lat="44.72737" lon="5.02247">
        <ele>198</ele>
        <time>2020-02-07T15:32:50.000Z</time>
      </trkpt>
      <trkpt lat="44.72738" lon="5.02241">
        <ele>198</ele>
        <time>2020-02-07T15:32:51.000Z</time>
      </trkpt>
      <trkpt lat="44.72739" lon="5.02235">
        <ele>198</ele>
        <time>2020-02-07T15:32:52.000Z</time>
      </trkpt>
      <trkpt lat="44.7274" lon="5.0223">
        <ele>198</ele>
        <time>2020-02-07T15:32:53.000Z</time>
      </trkpt>
      <trkpt lat="44.72741" lon="5.02226">
        <ele>198</ele>
        <time>2020-02-07T15:32:54.000Z</time>
      </trkpt>
      <trkpt lat="44.72742" lon="5.02223">
        <ele>198</ele>
        <time>2020-02-07T15:32:55.000Z</time>
      </trkpt>
      <trkpt lat="44.72742" lon="5.0222">
        <ele>198</ele>
        <time>2020-02-07T15:32:56.000Z</time>
      </trkpt>
      <trkpt lat="44.72742" lon="5.02218">
        <ele>198</ele>
        <time>2020-02-07T15:32:57.000Z</time>
      </trkpt>
      <trkpt lat="44.72743" lon="5.02216">
        <ele>198</ele>
        <time>2020-02-07T15:32:58.000Z</time>
      </trkpt>
      <trkpt lat="44.72743" lon="5.02214">
        <ele>198</ele>
        <time>2020-02-07T15:32:59.000Z</time>
      </trkpt>
      <trkpt lat="44.72743" lon="5.02211">
        <ele>198</ele>
        <time>2020-02-07T15:33:00.000Z</time>
      </trkpt>
      <trkpt lat="44.72743" lon="5.02208">
        <ele>198</ele>
        <time>2020-02-07T15:33:01.000Z</time>
      </trkpt>
      <trkpt lat="44.72743" lon="5.02207">
        <ele>198</ele>
        <time>2020-02-07T15:33:02.000Z</time>
      </trkpt>
      <trkpt lat="44.72743" lon="5.02205">
        <ele>199</ele>
        <time>2020-02-07T15:33:03.000Z</time>
      </trkpt>
      <trkpt lat="44.72743" lon="5.02205">
        <ele>199</ele>
        <time>2020-02-07T15:33:04.000Z</time>
      </trkpt>
      <trkpt lat="44.72743" lon="5.02204">
        <ele>199</ele>
        <time>2020-02-07T15:33:05.000Z</time>
      </trkpt>
      <trkpt lat="44.72743" lon="5.02203">
        <ele>199</ele>
        <time>2020-02-07T15:33:06.000Z</time>
      </trkpt>
      <trkpt lat="44.72743" lon="5.02203">
        <ele>199</ele>
        <time>2020-02-07T15:33:07.000Z</time>
      </trkpt>
    </trkseg>
  </trk>
</gpx>